<gpx xmlns="http://www.topografix.com/GPX/1/1" xmlns:xsi="http://www.w3.org/2001/XMLSchema-instance" version="1.1" xsi:schemaLocation="http://www.topografix.com/GPX/1/1 http://www.topografix.com/GPX/1/1/gpx.xsd" creator="MotionXGPSFull 24.1 Build 5049R64">
<trk>
<name>Gateway 5-10-16</name>
<desc>5 Oct. 2016  7:01 am</desc>
<trkseg>
<trkpt lat="-27.3569153" lon="152.9566092">
<ele>23.343</ele>
<time>2016-10-04T21:01:18.999Z</time>
</trkpt>
<trkpt lat="-27.3569153" lon="152.9566092">
<ele>23.337</ele>
<time>2016-10-04T21:06:14.992Z</time>
</trkpt>
<trkpt lat="-27.3567529" lon="152.9564743">
<ele>23.331</ele>
<time>2016-10-04T21:06:34.858Z</time>
</trkpt>
<trkpt lat="-27.3566485" lon="152.9565706">
<ele>23.373</ele>
<time>2016-10-04T21:06:40.009Z</time>
</trkpt>
<trkpt lat="-27.3565391" lon="152.9566604">
<ele>23.492</ele>
<time>2016-10-04T21:06:44.601Z</time>
</trkpt>
<trkpt lat="-27.3564023" lon="152.9567689">
<ele>23.548</ele>
<time>2016-10-04T21:06:47.360Z</time>
</trkpt>
<trkpt lat="-27.3561750" lon="152.9569331">
<ele>23.416</ele>
<time>2016-10-04T21:06:50.683Z</time>
</trkpt>
<trkpt lat="-27.3560134" lon="152.9570382">
<ele>23.138</ele>
<time>2016-10-04T21:06:52.777Z</time>
</trkpt>
<trkpt lat="-27.3558640" lon="152.9571423">
<ele>22.788</ele>
<time>2016-10-04T21:06:54.727Z</time>
</trkpt>
<trkpt lat="-27.3556883" lon="152.9572116">
<ele>22.378</ele>
<time>2016-10-04T21:06:56.772Z</time>
</trkpt>
<trkpt lat="-27.3554165" lon="152.9572878">
<ele>21.970</ele>
<time>2016-10-04T21:06:59.834Z</time>
</trkpt>
<trkpt lat="-27.3551865" lon="152.9573131">
<ele>21.695</ele>
<time>2016-10-04T21:07:02.625Z</time>
</trkpt>
<trkpt lat="-27.3550341" lon="152.9572628">
<ele>21.534</ele>
<time>2016-10-04T21:07:05.028Z</time>
</trkpt>
<trkpt lat="-27.3549727" lon="152.9571446">
<ele>21.354</ele>
<time>2016-10-04T21:07:07.092Z</time>
</trkpt>
<trkpt lat="-27.3549344" lon="152.9568828">
<ele>21.171</ele>
<time>2016-10-04T21:07:10.680Z</time>
</trkpt>
<trkpt lat="-27.3549273" lon="152.9565782">
<ele>21.171</ele>
<time>2016-10-04T21:07:13.895Z</time>
</trkpt>
<trkpt lat="-27.3549288" lon="152.9563827">
<ele>21.618</ele>
<time>2016-10-04T21:07:15.829Z</time>
</trkpt>
<trkpt lat="-27.3549244" lon="152.9560864">
<ele>22.482</ele>
<time>2016-10-04T21:07:18.790Z</time>
</trkpt>
<trkpt lat="-27.3548826" lon="152.9558770">
<ele>23.377</ele>
<time>2016-10-04T21:07:20.881Z</time>
</trkpt>
<trkpt lat="-27.3547975" lon="152.9555704">
<ele>24.250</ele>
<time>2016-10-04T21:07:23.904Z</time>
</trkpt>
<trkpt lat="-27.3547296" lon="152.9553779">
<ele>25.699</ele>
<time>2016-10-04T21:07:25.867Z</time>
</trkpt>
<trkpt lat="-27.3545992" lon="152.9550957">
<ele>28.115</ele>
<time>2016-10-04T21:07:28.859Z</time>
</trkpt>
<trkpt lat="-27.3544371" lon="152.9549123">
<ele>31.145</ele>
<time>2016-10-04T21:07:31.114Z</time>
</trkpt>
<trkpt lat="-27.3541733" lon="152.9546603">
<ele>33.888</ele>
<time>2016-10-04T21:07:34.248Z</time>
</trkpt>
<trkpt lat="-27.3539852" lon="152.9545184">
<ele>35.531</ele>
<time>2016-10-04T21:07:36.259Z</time>
</trkpt>
<trkpt lat="-27.3536943" lon="152.9543601">
<ele>36.005</ele>
<time>2016-10-04T21:07:39.169Z</time>
</trkpt>
<trkpt lat="-27.3534799" lon="152.9542931">
<ele>35.874</ele>
<time>2016-10-04T21:07:41.184Z</time>
</trkpt>
<trkpt lat="-27.3531650" lon="152.9542340">
<ele>35.604</ele>
<time>2016-10-04T21:07:44.138Z</time>
</trkpt>
<trkpt lat="-27.3529740" lon="152.9542130">
<ele>34.981</ele>
<time>2016-10-04T21:07:46.030Z</time>
</trkpt>
<trkpt lat="-27.3526852" lon="152.9542760">
<ele>33.420</ele>
<time>2016-10-04T21:07:48.980Z</time>
</trkpt>
<trkpt lat="-27.3523512" lon="152.9543938">
<ele>31.132</ele>
<time>2016-10-04T21:07:52.175Z</time>
</trkpt>
<trkpt lat="-27.3521201" lon="152.9544904">
<ele>29.109</ele>
<time>2016-10-04T21:07:54.259Z</time>
</trkpt>
<trkpt lat="-27.3517812" lon="152.9546167">
<ele>27.989</ele>
<time>2016-10-04T21:07:57.235Z</time>
</trkpt>
<trkpt lat="-27.3515564" lon="152.9547019">
<ele>27.799</ele>
<time>2016-10-04T21:07:59.208Z</time>
</trkpt>
<trkpt lat="-27.3511968" lon="152.9548444">
<ele>28.377</ele>
<time>2016-10-04T21:08:02.329Z</time>
</trkpt>
<trkpt lat="-27.3508395" lon="152.9549819">
<ele>29.700</ele>
<time>2016-10-04T21:08:05.352Z</time>
</trkpt>
<trkpt lat="-27.3505967" lon="152.9550644">
<ele>31.379</ele>
<time>2016-10-04T21:08:07.342Z</time>
</trkpt>
<trkpt lat="-27.3502251" lon="152.9552271">
<ele>32.267</ele>
<time>2016-10-04T21:08:10.370Z</time>
</trkpt>
<trkpt lat="-27.3499611" lon="152.9553265">
<ele>31.425</ele>
<time>2016-10-04T21:08:12.435Z</time>
</trkpt>
<trkpt lat="-27.3495826" lon="152.9554765">
<ele>29.266</ele>
<time>2016-10-04T21:08:15.432Z</time>
</trkpt>
<trkpt lat="-27.3493437" lon="152.9555699">
<ele>26.807</ele>
<time>2016-10-04T21:08:17.376Z</time>
</trkpt>
<trkpt lat="-27.3491096" lon="152.9557048">
<ele>24.789</ele>
<time>2016-10-04T21:08:19.408Z</time>
</trkpt>
<trkpt lat="-27.3487918" lon="152.9560075">
<ele>23.951</ele>
<time>2016-10-04T21:08:22.510Z</time>
</trkpt>
<trkpt lat="-27.3484818" lon="152.9563370">
<ele>24.874</ele>
<time>2016-10-04T21:08:25.629Z</time>
</trkpt>
<trkpt lat="-27.3482945" lon="152.9565383">
<ele>27.004</ele>
<time>2016-10-04T21:08:27.573Z</time>
</trkpt>
<trkpt lat="-27.3480386" lon="152.9568624">
<ele>28.965</ele>
<time>2016-10-04T21:08:30.509Z</time>
</trkpt>
<trkpt lat="-27.3478571" lon="152.9572418">
<ele>29.830</ele>
<time>2016-10-04T21:08:33.420Z</time>
</trkpt>
<trkpt lat="-27.3477772" lon="152.9575398">
<ele>29.486</ele>
<time>2016-10-04T21:08:35.495Z</time>
</trkpt>
<trkpt lat="-27.3477313" lon="152.9579984">
<ele>28.120</ele>
<time>2016-10-04T21:08:38.512Z</time>
</trkpt>
<trkpt lat="-27.3477574" lon="152.9583089">
<ele>25.891</ele>
<time>2016-10-04T21:08:40.512Z</time>
</trkpt>
<trkpt lat="-27.3478281" lon="152.9587745">
<ele>23.010</ele>
<time>2016-10-04T21:08:43.551Z</time>
</trkpt>
<trkpt lat="-27.3478840" lon="152.9592203">
<ele>19.702</ele>
<time>2016-10-04T21:08:46.487Z</time>
</trkpt>
<trkpt lat="-27.3479515" lon="152.9596816">
<ele>16.237</ele>
<time>2016-10-04T21:08:49.541Z</time>
</trkpt>
<trkpt lat="-27.3480296" lon="152.9601397">
<ele>13.349</ele>
<time>2016-10-04T21:08:52.611Z</time>
</trkpt>
<trkpt lat="-27.3480195" lon="152.9605876">
<ele>11.842</ele>
<time>2016-10-04T21:08:55.579Z</time>
</trkpt>
<trkpt lat="-27.3479483" lon="152.9608892">
<ele>11.884</ele>
<time>2016-10-04T21:08:57.633Z</time>
</trkpt>
<trkpt lat="-27.3477575" lon="152.9612993">
<ele>13.268</ele>
<time>2016-10-04T21:09:00.648Z</time>
</trkpt>
<trkpt lat="-27.3474785" lon="152.9616461">
<ele>15.515</ele>
<time>2016-10-04T21:09:03.652Z</time>
</trkpt>
<trkpt lat="-27.3471627" lon="152.9619575">
<ele>17.879</ele>
<time>2016-10-04T21:09:06.677Z</time>
</trkpt>
<trkpt lat="-27.3468389" lon="152.9622553">
<ele>19.772</ele>
<time>2016-10-04T21:09:09.708Z</time>
</trkpt>
<trkpt lat="-27.3466298" lon="152.9624627">
<ele>21.195</ele>
<time>2016-10-04T21:09:11.768Z</time>
</trkpt>
<trkpt lat="-27.3464461" lon="152.9626399">
<ele>22.531</ele>
<time>2016-10-04T21:09:13.677Z</time>
</trkpt>
<trkpt lat="-27.3462792" lon="152.9627972">
<ele>23.749</ele>
<time>2016-10-04T21:09:15.705Z</time>
</trkpt>
<trkpt lat="-27.3461225" lon="152.9629385">
<ele>24.331</ele>
<time>2016-10-04T21:09:17.999Z</time>
</trkpt>
<trkpt lat="-27.3461225" lon="152.9629385">
<ele>24.168</ele>
<time>2016-10-04T21:09:23.000Z</time>
</trkpt>
<trkpt lat="-27.3461225" lon="152.9629385">
<ele>23.837</ele>
<time>2016-10-04T21:09:25.260Z</time>
</trkpt>
<trkpt lat="-27.3459502" lon="152.9630884">
<ele>23.809</ele>
<time>2016-10-04T21:09:31.794Z</time>
</trkpt>
<trkpt lat="-27.3458030" lon="152.9632202">
<ele>23.470</ele>
<time>2016-10-04T21:09:34.795Z</time>
</trkpt>
<trkpt lat="-27.3457273" lon="152.9633355">
<ele>22.138</ele>
<time>2016-10-04T21:09:36.621Z</time>
</trkpt>
<trkpt lat="-27.3457185" lon="152.9634968">
<ele>20.375</ele>
<time>2016-10-04T21:09:38.352Z</time>
</trkpt>
<trkpt lat="-27.3458519" lon="152.9637797">
<ele>19.130</ele>
<time>2016-10-04T21:09:41.266Z</time>
</trkpt>
<trkpt lat="-27.3459925" lon="152.9640069">
<ele>18.744</ele>
<time>2016-10-04T21:09:43.271Z</time>
</trkpt>
<trkpt lat="-27.3462225" lon="152.9643528">
<ele>19.063</ele>
<time>2016-10-04T21:09:46.256Z</time>
</trkpt>
<trkpt lat="-27.3463596" lon="152.9645532">
<ele>19.566</ele>
<time>2016-10-04T21:09:48.121Z</time>
</trkpt>
<trkpt lat="-27.3464688" lon="152.9647373">
<ele>19.628</ele>
<time>2016-10-04T21:09:49.952Z</time>
</trkpt>
<trkpt lat="-27.3465285" lon="152.9649280">
<ele>18.964</ele>
<time>2016-10-04T21:09:51.894Z</time>
</trkpt>
<trkpt lat="-27.3464910" lon="152.9651528">
<ele>17.879</ele>
<time>2016-10-04T21:09:54.329Z</time>
</trkpt>
<trkpt lat="-27.3462781" lon="152.9653137">
<ele>16.857</ele>
<time>2016-10-04T21:09:57.456Z</time>
</trkpt>
<trkpt lat="-27.3461013" lon="152.9653520">
<ele>16.113</ele>
<time>2016-10-04T21:09:59.498Z</time>
</trkpt>
<trkpt lat="-27.3458852" lon="152.9653906">
<ele>15.723</ele>
<time>2016-10-04T21:10:02.137Z</time>
</trkpt>
<trkpt lat="-27.3457137" lon="152.9653305">
<ele>15.354</ele>
<time>2016-10-04T21:10:05.412Z</time>
</trkpt>
<trkpt lat="-27.3456876" lon="152.9651905">
<ele>14.675</ele>
<time>2016-10-04T21:10:08.339Z</time>
</trkpt>
<trkpt lat="-27.3458126" lon="152.9650640">
<ele>13.990</ele>
<time>2016-10-04T21:10:12.182Z</time>
</trkpt>
<trkpt lat="-27.3459324" lon="152.9650001">
<ele>13.734</ele>
<time>2016-10-04T21:10:15.065Z</time>
</trkpt>
<trkpt lat="-27.3460151" lon="152.9648633">
<ele>14.055</ele>
<time>2016-10-04T21:10:18.014Z</time>
</trkpt>
<trkpt lat="-27.3460784" lon="152.9647351">
<ele>14.903</ele>
<time>2016-10-04T21:10:20.886Z</time>
</trkpt>
<trkpt lat="-27.3461630" lon="152.9646743">
<ele>15.883</ele>
<time>2016-10-04T21:10:23.500Z</time>
</trkpt>
<trkpt lat="-27.3462246" lon="152.9647682">
<ele>16.575</ele>
<time>2016-10-04T21:10:26.665Z</time>
</trkpt>
<trkpt lat="-27.3461124" lon="152.9648208">
<ele>16.887</ele>
<time>2016-10-04T21:10:30.999Z</time>
</trkpt>
<trkpt lat="-27.3461124" lon="152.9648208">
<ele>16.941</ele>
<time>2016-10-04T21:10:37.999Z</time>
</trkpt>
<trkpt lat="-27.3461124" lon="152.9648208">
<ele>16.899</ele>
<time>2016-10-04T21:31:59.231Z</time>
</trkpt>
<trkpt lat="-27.3462339" lon="152.9648129">
<ele>16.872</ele>
<time>2016-10-04T21:32:07.570Z</time>
</trkpt>
<trkpt lat="-27.3462654" lon="152.9647144">
<ele>18.520</ele>
<time>2016-10-04T21:32:10.908Z</time>
</trkpt>
<trkpt lat="-27.3463086" lon="152.9646116">
<ele>22.865</ele>
<time>2016-10-04T21:32:13.747Z</time>
</trkpt>
<trkpt lat="-27.3464208" lon="152.9646225">
<ele>27.422</ele>
<time>2016-10-04T21:32:15.697Z</time>
</trkpt>
<trkpt lat="-27.3465353" lon="152.9647549">
<ele>29.705</ele>
<time>2016-10-04T21:32:17.523Z</time>
</trkpt>
<trkpt lat="-27.3466859" lon="152.9649439">
<ele>30.226</ele>
<time>2016-10-04T21:32:19.522Z</time>
</trkpt>
<trkpt lat="-27.3468745" lon="152.9651595">
<ele>30.243</ele>
<time>2016-10-04T21:32:21.561Z</time>
</trkpt>
<trkpt lat="-27.3472412" lon="152.9654857">
<ele>30.617</ele>
<time>2016-10-04T21:32:24.724Z</time>
</trkpt>
<trkpt lat="-27.3476696" lon="152.9657810">
<ele>31.608</ele>
<time>2016-10-04T21:32:27.856Z</time>
</trkpt>
<trkpt lat="-27.3481105" lon="152.9659864">
<ele>32.868</ele>
<time>2016-10-04T21:32:30.908Z</time>
</trkpt>
<trkpt lat="-27.3483859" lon="152.9660819">
<ele>33.750</ele>
<time>2016-10-04T21:32:32.988Z</time>
</trkpt>
<trkpt lat="-27.3486276" lon="152.9661608">
<ele>33.836</ele>
<time>2016-10-04T21:32:35.183Z</time>
</trkpt>
<trkpt lat="-27.3489196" lon="152.9662565">
<ele>33.136</ele>
<time>2016-10-04T21:32:38.371Z</time>
</trkpt>
<trkpt lat="-27.3490802" lon="152.9663090">
<ele>31.928</ele>
<time>2016-10-04T21:32:40.565Z</time>
</trkpt>
<trkpt lat="-27.3492130" lon="152.9663606">
<ele>30.713</ele>
<time>2016-10-04T21:32:42.507Z</time>
</trkpt>
<trkpt lat="-27.3494242" lon="152.9664250">
<ele>29.964</ele>
<time>2016-10-04T21:32:45.295Z</time>
</trkpt>
<trkpt lat="-27.3496217" lon="152.9665058">
<ele>29.820</ele>
<time>2016-10-04T21:32:47.605Z</time>
</trkpt>
<trkpt lat="-27.3498429" lon="152.9665141">
<ele>30.372</ele>
<time>2016-10-04T21:32:49.651Z</time>
</trkpt>
<trkpt lat="-27.3502722" lon="152.9665022">
<ele>31.713</ele>
<time>2016-10-04T21:32:53.269Z</time>
</trkpt>
<trkpt lat="-27.3505588" lon="152.9665528">
<ele>33.636</ele>
<time>2016-10-04T21:32:55.536Z</time>
</trkpt>
<trkpt lat="-27.3508281" lon="152.9665482">
<ele>35.961</ele>
<time>2016-10-04T21:32:57.494Z</time>
</trkpt>
<trkpt lat="-27.3512609" lon="152.9665488">
<ele>38.518</ele>
<time>2016-10-04T21:33:00.522Z</time>
</trkpt>
<trkpt lat="-27.3515369" lon="152.9665892">
<ele>41.029</ele>
<time>2016-10-04T21:33:02.400Z</time>
</trkpt>
<trkpt lat="-27.3518265" lon="152.9666580">
<ele>43.198</ele>
<time>2016-10-04T21:33:04.320Z</time>
</trkpt>
<trkpt lat="-27.3522638" lon="152.9668335">
<ele>44.603</ele>
<time>2016-10-04T21:33:07.204Z</time>
</trkpt>
<trkpt lat="-27.3526909" lon="152.9670943">
<ele>45.078</ele>
<time>2016-10-04T21:33:10.073Z</time>
</trkpt>
<trkpt lat="-27.3531338" lon="152.9674089">
<ele>44.691</ele>
<time>2016-10-04T21:33:13.043Z</time>
</trkpt>
<trkpt lat="-27.3534982" lon="152.9678536">
<ele>43.380</ele>
<time>2016-10-04T21:33:16.016Z</time>
</trkpt>
<trkpt lat="-27.3537378" lon="152.9681587">
<ele>41.557</ele>
<time>2016-10-04T21:33:18.024Z</time>
</trkpt>
<trkpt lat="-27.3539568" lon="152.9684439">
<ele>40.109</ele>
<time>2016-10-04T21:33:19.930Z</time>
</trkpt>
<trkpt lat="-27.3543514" lon="152.9688374">
<ele>39.574</ele>
<time>2016-10-04T21:33:23.058Z</time>
</trkpt>
<trkpt lat="-27.3545862" lon="152.9690365">
<ele>39.906</ele>
<time>2016-10-04T21:33:25.194Z</time>
</trkpt>
<trkpt lat="-27.3548033" lon="152.9691839">
<ele>40.649</ele>
<time>2016-10-04T21:33:27.627Z</time>
</trkpt>
<trkpt lat="-27.3549353" lon="152.9692522">
<ele>40.933</ele>
<time>2016-10-04T21:33:30.007Z</time>
</trkpt>
<trkpt lat="-27.3550245" lon="152.9692903">
<ele>40.364</ele>
<time>2016-10-04T21:33:33.151Z</time>
</trkpt>
<trkpt lat="-27.3550245" lon="152.9692903">
<ele>39.582</ele>
<time>2016-10-04T21:33:35.186Z</time>
</trkpt>
<trkpt lat="-27.3550245" lon="152.9692903">
<ele>39.241</ele>
<time>2016-10-04T21:33:36.940Z</time>
</trkpt>
<trkpt lat="-27.3551822" lon="152.9693592">
<ele>39.349</ele>
<time>2016-10-04T21:33:42.094Z</time>
</trkpt>
<trkpt lat="-27.3552770" lon="152.9693967">
<ele>39.658</ele>
<time>2016-10-04T21:33:44.075Z</time>
</trkpt>
<trkpt lat="-27.3552770" lon="152.9693967">
<ele>39.897</ele>
<time>2016-10-04T21:33:49.099Z</time>
</trkpt>
<trkpt lat="-27.3552770" lon="152.9693967">
<ele>39.963</ele>
<time>2016-10-04T21:33:50.562Z</time>
</trkpt>
<trkpt lat="-27.3554518" lon="152.9694461">
<ele>39.930</ele>
<time>2016-10-04T21:33:56.624Z</time>
</trkpt>
<trkpt lat="-27.3555935" lon="152.9694806">
<ele>39.907</ele>
<time>2016-10-04T21:33:59.454Z</time>
</trkpt>
<trkpt lat="-27.3557065" lon="152.9695096">
<ele>39.952</ele>
<time>2016-10-04T21:34:01.847Z</time>
</trkpt>
<trkpt lat="-27.3558017" lon="152.9695232">
<ele>39.910</ele>
<time>2016-10-04T21:34:04.146Z</time>
</trkpt>
<trkpt lat="-27.3558017" lon="152.9695232">
<ele>39.658</ele>
<time>2016-10-04T21:34:09.138Z</time>
</trkpt>
<trkpt lat="-27.3558017" lon="152.9695232">
<ele>39.419</ele>
<time>2016-10-04T21:34:14.823Z</time>
</trkpt>
<trkpt lat="-27.3560189" lon="152.9695354">
<ele>39.403</ele>
<time>2016-10-04T21:34:20.440Z</time>
</trkpt>
<trkpt lat="-27.3562536" lon="152.9695364">
<ele>39.307</ele>
<time>2016-10-04T21:34:23.193Z</time>
</trkpt>
<trkpt lat="-27.3565417" lon="152.9695268">
<ele>38.815</ele>
<time>2016-10-04T21:34:25.949Z</time>
</trkpt>
<trkpt lat="-27.3567468" lon="152.9695143">
<ele>37.913</ele>
<time>2016-10-04T21:34:27.770Z</time>
</trkpt>
<trkpt lat="-27.3569461" lon="152.9695274">
<ele>36.682</ele>
<time>2016-10-04T21:34:29.570Z</time>
</trkpt>
<trkpt lat="-27.3571968" lon="152.9695752">
<ele>35.396</ele>
<time>2016-10-04T21:34:32.097Z</time>
</trkpt>
<trkpt lat="-27.3571968" lon="152.9695752">
<ele>34.493</ele>
<time>2016-10-04T21:34:37.089Z</time>
</trkpt>
<trkpt lat="-27.3571968" lon="152.9695752">
<ele>34.132</ele>
<time>2016-10-04T21:35:05.054Z</time>
</trkpt>
<trkpt lat="-27.3574412" lon="152.9695715">
<ele>34.171</ele>
<time>2016-10-04T21:35:10.690Z</time>
</trkpt>
<trkpt lat="-27.3576385" lon="152.9694034">
<ele>33.394</ele>
<time>2016-10-04T21:35:13.847Z</time>
</trkpt>
<trkpt lat="-27.3577208" lon="152.9692518">
<ele>31.010</ele>
<time>2016-10-04T21:35:15.991Z</time>
</trkpt>
<trkpt lat="-27.3577766" lon="152.9691287">
<ele>28.317</ele>
<time>2016-10-04T21:35:18.358Z</time>
</trkpt>
<trkpt lat="-27.3578718" lon="152.9690486">
<ele>26.693</ele>
<time>2016-10-04T21:35:20.821Z</time>
</trkpt>
<trkpt lat="-27.3580110" lon="152.9691202">
<ele>26.029</ele>
<time>2016-10-04T21:35:23.587Z</time>
</trkpt>
<trkpt lat="-27.3581267" lon="152.9691820">
<ele>25.924</ele>
<time>2016-10-04T21:35:25.671Z</time>
</trkpt>
<trkpt lat="-27.3582621" lon="152.9692621">
<ele>26.032</ele>
<time>2016-10-04T21:35:28.599Z</time>
</trkpt>
<trkpt lat="-27.3583233" lon="152.9693418">
<ele>26.061</ele>
<time>2016-10-04T21:35:31.060Z</time>
</trkpt>
<trkpt lat="-27.3582897" lon="152.9694428">
<ele>25.845</ele>
<time>2016-10-04T21:35:34.437Z</time>
</trkpt>
<trkpt lat="-27.3582083" lon="152.9695051">
<ele>25.438</ele>
<time>2016-10-04T21:35:39.134Z</time>
</trkpt>
<trkpt lat="-27.3582083" lon="152.9695051">
<ele>25.040</ele>
<time>2016-10-04T21:35:42.062Z</time>
</trkpt>
<trkpt lat="-27.3582083" lon="152.9695051">
<ele>24.830</ele>
<time>2016-10-04T21:43:24.558Z</time>
</trkpt>
<trkpt lat="-27.3582725" lon="152.9693757">
<ele>24.893</ele>
<time>2016-10-04T21:43:32.291Z</time>
</trkpt>
<trkpt lat="-27.3583758" lon="152.9693507">
<ele>26.239</ele>
<time>2016-10-04T21:43:36.596Z</time>
</trkpt>
<trkpt lat="-27.3584773" lon="152.9693823">
<ele>29.342</ele>
<time>2016-10-04T21:43:40.121Z</time>
</trkpt>
<trkpt lat="-27.3585728" lon="152.9694422">
<ele>32.400</ele>
<time>2016-10-04T21:43:43.608Z</time>
</trkpt>
<trkpt lat="-27.3585782" lon="152.9695455">
<ele>33.809</ele>
<time>2016-10-04T21:43:46.661Z</time>
</trkpt>
<trkpt lat="-27.3586536" lon="152.9696288">
<ele>33.789</ele>
<time>2016-10-04T21:43:50.137Z</time>
</trkpt>
<trkpt lat="-27.3587573" lon="152.9696837">
<ele>32.882</ele>
<time>2016-10-04T21:43:53.707Z</time>
</trkpt>
<trkpt lat="-27.3588477" lon="152.9697400">
<ele>31.680</ele>
<time>2016-10-04T21:43:57.000Z</time>
</trkpt>
<trkpt lat="-27.3588477" lon="152.9697400">
<ele>30.719</ele>
<time>2016-10-04T21:44:10.000Z</time>
</trkpt>
<trkpt lat="-27.3588477" lon="152.9697400">
<ele>30.285</ele>
<time>2016-10-04T22:28:21.937Z</time>
</trkpt>
<trkpt lat="-27.3589960" lon="152.9698589">
<ele>30.324</ele>
<time>2016-10-04T22:28:29.818Z</time>
</trkpt>
<trkpt lat="-27.3590616" lon="152.9699491">
<ele>29.938</ele>
<time>2016-10-04T22:28:32.873Z</time>
</trkpt>
<trkpt lat="-27.3590278" lon="152.9700696">
<ele>28.527</ele>
<time>2016-10-04T22:28:36.065Z</time>
</trkpt>
<trkpt lat="-27.3589638" lon="152.9701656">
<ele>26.952</ele>
<time>2016-10-04T22:28:39.159Z</time>
</trkpt>
<trkpt lat="-27.3588620" lon="152.9702189">
<ele>26.151</ele>
<time>2016-10-04T22:28:42.479Z</time>
</trkpt>
<trkpt lat="-27.3585589" lon="152.9701295">
<ele>26.089</ele>
<time>2016-10-04T22:28:47.655Z</time>
</trkpt>
<trkpt lat="-27.3583626" lon="152.9699575">
<ele>26.673</ele>
<time>2016-10-04T22:28:49.842Z</time>
</trkpt>
<trkpt lat="-27.3580771" lon="152.9696977">
<ele>27.681</ele>
<time>2016-10-04T22:28:52.788Z</time>
</trkpt>
<trkpt lat="-27.3574724" lon="152.9695617">
<ele>28.953</ele>
<time>2016-10-04T22:28:57.333Z</time>
</trkpt>
<trkpt lat="-27.3570270" lon="152.9694637">
<ele>29.126</ele>
<time>2016-10-04T22:29:00.359Z</time>
</trkpt>
<trkpt lat="-27.3567063" lon="152.9694279">
<ele>29.329</ele>
<time>2016-10-04T22:29:02.441Z</time>
</trkpt>
<trkpt lat="-27.3564072" lon="152.9694378">
<ele>29.526</ele>
<time>2016-10-04T22:29:04.378Z</time>
</trkpt>
<trkpt lat="-27.3559637" lon="152.9694308">
<ele>30.157</ele>
<time>2016-10-04T22:29:07.211Z</time>
</trkpt>
<trkpt lat="-27.3554801" lon="152.9693627">
<ele>31.719</ele>
<time>2016-10-04T22:29:10.199Z</time>
</trkpt>
<trkpt lat="-27.3551385" lon="152.9692591">
<ele>34.094</ele>
<time>2016-10-04T22:29:12.259Z</time>
</trkpt>
<trkpt lat="-27.3546815" lon="152.9689936">
<ele>38.105</ele>
<time>2016-10-04T22:29:15.185Z</time>
</trkpt>
<trkpt lat="-27.3542628" lon="152.9686432">
<ele>43.729</ele>
<time>2016-10-04T22:29:18.096Z</time>
</trkpt>
<trkpt lat="-27.3539970" lon="152.9683495">
<ele>47.322</ele>
<time>2016-10-04T22:29:20.116Z</time>
</trkpt>
<trkpt lat="-27.3536137" lon="152.9678884">
<ele>46.580</ele>
<time>2016-10-04T22:29:23.111Z</time>
</trkpt>
<trkpt lat="-27.3532268" lon="152.9674329">
<ele>43.856</ele>
<time>2016-10-04T22:29:26.124Z</time>
</trkpt>
<trkpt lat="-27.3528250" lon="152.9670451">
<ele>41.751</ele>
<time>2016-10-04T22:29:29.076Z</time>
</trkpt>
<trkpt lat="-27.3523497" lon="152.9667431">
<ele>40.809</ele>
<time>2016-10-04T22:29:32.194Z</time>
</trkpt>
<trkpt lat="-27.3518603" lon="152.9665392">
<ele>41.083</ele>
<time>2016-10-04T22:29:35.229Z</time>
</trkpt>
<trkpt lat="-27.3515421" lon="152.9664569">
<ele>42.413</ele>
<time>2016-10-04T22:29:37.182Z</time>
</trkpt>
<trkpt lat="-27.3510471" lon="152.9664151">
<ele>44.007</ele>
<time>2016-10-04T22:29:40.136Z</time>
</trkpt>
<trkpt lat="-27.3507056" lon="152.9664152">
<ele>44.770</ele>
<time>2016-10-04T22:29:42.071Z</time>
</trkpt>
<trkpt lat="-27.3501627" lon="152.9664177">
<ele>44.342</ele>
<time>2016-10-04T22:29:44.923Z</time>
</trkpt>
<trkpt lat="-27.3495083" lon="152.9663315">
<ele>43.308</ele>
<time>2016-10-04T22:29:47.964Z</time>
</trkpt>
<trkpt lat="-27.3490551" lon="152.9662007">
<ele>42.370</ele>
<time>2016-10-04T22:29:50.028Z</time>
</trkpt>
<trkpt lat="-27.3486752" lon="152.9660267">
<ele>41.589</ele>
<time>2016-10-04T22:29:52.018Z</time>
</trkpt>
<trkpt lat="-27.3482066" lon="152.9658039">
<ele>39.884</ele>
<time>2016-10-04T22:29:54.785Z</time>
</trkpt>
<trkpt lat="-27.3478441" lon="152.9657054">
<ele>36.331</ele>
<time>2016-10-04T22:29:57.039Z</time>
</trkpt>
<trkpt lat="-27.3474254" lon="152.9654824">
<ele>32.063</ele>
<time>2016-10-04T22:30:00.008Z</time>
</trkpt>
<trkpt lat="-27.3471828" lon="152.9653114">
<ele>28.615</ele>
<time>2016-10-04T22:30:01.981Z</time>
</trkpt>
<trkpt lat="-27.3468677" lon="152.9650087">
<ele>26.137</ele>
<time>2016-10-04T22:30:04.857Z</time>
</trkpt>
<trkpt lat="-27.3465595" lon="152.9646227">
<ele>24.505</ele>
<time>2016-10-04T22:30:07.961Z</time>
</trkpt>
<trkpt lat="-27.3462926" lon="152.9642319">
<ele>23.793</ele>
<time>2016-10-04T22:30:10.983Z</time>
</trkpt>
<trkpt lat="-27.3461453" lon="152.9639976">
<ele>23.718</ele>
<time>2016-10-04T22:30:12.882Z</time>
</trkpt>
<trkpt lat="-27.3459936" lon="152.9637459">
<ele>23.897</ele>
<time>2016-10-04T22:30:14.918Z</time>
</trkpt>
<trkpt lat="-27.3457525" lon="152.9633723">
<ele>24.144</ele>
<time>2016-10-04T22:30:17.889Z</time>
</trkpt>
<trkpt lat="-27.3454747" lon="152.9629492">
<ele>24.463</ele>
<time>2016-10-04T22:30:20.966Z</time>
</trkpt>
<trkpt lat="-27.3452549" lon="152.9626450">
<ele>24.862</ele>
<time>2016-10-04T22:30:23.052Z</time>
</trkpt>
<trkpt lat="-27.3448953" lon="152.9622234">
<ele>25.326</ele>
<time>2016-10-04T22:30:26.053Z</time>
</trkpt>
<trkpt lat="-27.3444503" lon="152.9618557">
<ele>25.783</ele>
<time>2016-10-04T22:30:29.135Z</time>
</trkpt>
<trkpt lat="-27.3441271" lon="152.9616445">
<ele>25.782</ele>
<time>2016-10-04T22:30:31.154Z</time>
</trkpt>
<trkpt lat="-27.3437945" lon="152.9614749">
<ele>24.715</ele>
<time>2016-10-04T22:30:33.127Z</time>
</trkpt>
<trkpt lat="-27.3434510" lon="152.9613439">
<ele>22.589</ele>
<time>2016-10-04T22:30:35.125Z</time>
</trkpt>
<trkpt lat="-27.3429338" lon="152.9612292">
<ele>20.017</ele>
<time>2016-10-04T22:30:38.100Z</time>
</trkpt>
<trkpt lat="-27.3424273" lon="152.9611801">
<ele>17.307</ele>
<time>2016-10-04T22:30:41.113Z</time>
</trkpt>
<trkpt lat="-27.3419720" lon="152.9611425">
<ele>14.503</ele>
<time>2016-10-04T22:30:43.996Z</time>
</trkpt>
<trkpt lat="-27.3414983" lon="152.9611186">
<ele>12.184</ele>
<time>2016-10-04T22:30:46.996Z</time>
</trkpt>
<trkpt lat="-27.3411466" lon="152.9610792">
<ele>11.352</ele>
<time>2016-10-04T22:30:49.126Z</time>
</trkpt>
<trkpt lat="-27.3408196" lon="152.9610514">
<ele>12.038</ele>
<time>2016-10-04T22:30:51.273Z</time>
</trkpt>
<trkpt lat="-27.3404542" lon="152.9609973">
<ele>13.136</ele>
<time>2016-10-04T22:30:54.314Z</time>
</trkpt>
<trkpt lat="-27.3402314" lon="152.9609778">
<ele>13.757</ele>
<time>2016-10-04T22:30:56.985Z</time>
</trkpt>
<trkpt lat="-27.3401243" lon="152.9609722">
<ele>13.945</ele>
<time>2016-10-04T22:30:58.845Z</time>
</trkpt>
<trkpt lat="-27.3399803" lon="152.9609495">
<ele>14.105</ele>
<time>2016-10-04T22:31:01.762Z</time>
</trkpt>
<trkpt lat="-27.3398625" lon="152.9609238">
<ele>14.692</ele>
<time>2016-10-04T22:31:03.955Z</time>
</trkpt>
<trkpt lat="-27.3396680" lon="152.9608737">
<ele>15.866</ele>
<time>2016-10-04T22:31:06.942Z</time>
</trkpt>
<trkpt lat="-27.3395006" lon="152.9608155">
<ele>17.342</ele>
<time>2016-10-04T22:31:08.910Z</time>
</trkpt>
<trkpt lat="-27.3391683" lon="152.9606774">
<ele>18.918</ele>
<time>2016-10-04T22:31:12.080Z</time>
</trkpt>
<trkpt lat="-27.3387815" lon="152.9605508">
<ele>20.776</ele>
<time>2016-10-04T22:31:15.193Z</time>
</trkpt>
<trkpt lat="-27.3385033" lon="152.9605158">
<ele>23.032</ele>
<time>2016-10-04T22:31:17.252Z</time>
</trkpt>
<trkpt lat="-27.3382021" lon="152.9605187">
<ele>25.239</ele>
<time>2016-10-04T22:31:19.387Z</time>
</trkpt>
<trkpt lat="-27.3379224" lon="152.9605570">
<ele>26.834</ele>
<time>2016-10-04T22:31:21.415Z</time>
</trkpt>
<trkpt lat="-27.3375291" lon="152.9606188">
<ele>27.712</ele>
<time>2016-10-04T22:31:24.673Z</time>
</trkpt>
<trkpt lat="-27.3373053" lon="152.9606546">
<ele>27.686</ele>
<time>2016-10-04T22:31:27.215Z</time>
</trkpt>
<trkpt lat="-27.3371312" lon="152.9606655">
<ele>26.474</ele>
<time>2016-10-04T22:31:30.253Z</time>
</trkpt>
<trkpt lat="-27.3370239" lon="152.9606734">
<ele>24.605</ele>
<time>2016-10-04T22:31:33.245Z</time>
</trkpt>
<trkpt lat="-27.3369254" lon="152.9606756">
<ele>22.934</ele>
<time>2016-10-04T22:31:37.167Z</time>
</trkpt>
<trkpt lat="-27.3369254" lon="152.9606756">
<ele>21.850</ele>
<time>2016-10-04T22:31:40.122Z</time>
</trkpt>
<trkpt lat="-27.3369254" lon="152.9606756">
<ele>21.421</ele>
<time>2016-10-04T22:32:35.357Z</time>
</trkpt>
<trkpt lat="-27.3367741" lon="152.9607319">
<ele>21.477</ele>
<time>2016-10-04T22:32:40.444Z</time>
</trkpt>
<trkpt lat="-27.3365847" lon="152.9607337">
<ele>21.544</ele>
<time>2016-10-04T22:32:42.829Z</time>
</trkpt>
<trkpt lat="-27.3362960" lon="152.9607721">
<ele>21.329</ele>
<time>2016-10-04T22:32:45.799Z</time>
</trkpt>
<trkpt lat="-27.3360745" lon="152.9608129">
<ele>21.027</ele>
<time>2016-10-04T22:32:47.807Z</time>
</trkpt>
<trkpt lat="-27.3358561" lon="152.9608600">
<ele>20.922</ele>
<time>2016-10-04T22:32:49.710Z</time>
</trkpt>
<trkpt lat="-27.3356148" lon="152.9609156">
<ele>21.162</ele>
<time>2016-10-04T22:32:51.707Z</time>
</trkpt>
<trkpt lat="-27.3352500" lon="152.9610073">
<ele>21.801</ele>
<time>2016-10-04T22:32:54.553Z</time>
</trkpt>
<trkpt lat="-27.3349635" lon="152.9610663">
<ele>22.783</ele>
<time>2016-10-04T22:32:56.541Z</time>
</trkpt>
<trkpt lat="-27.3345063" lon="152.9611464">
<ele>23.953</ele>
<time>2016-10-04T22:32:59.526Z</time>
</trkpt>
<trkpt lat="-27.3340309" lon="152.9612256">
<ele>24.989</ele>
<time>2016-10-04T22:33:02.425Z</time>
</trkpt>
<trkpt lat="-27.3335121" lon="152.9612844">
<ele>25.566</ele>
<time>2016-10-04T22:33:05.394Z</time>
</trkpt>
<trkpt lat="-27.3331438" lon="152.9613172">
<ele>25.567</ele>
<time>2016-10-04T22:33:07.406Z</time>
</trkpt>
<trkpt lat="-27.3325832" lon="152.9613555">
<ele>24.780</ele>
<time>2016-10-04T22:33:10.425Z</time>
</trkpt>
<trkpt lat="-27.3322114" lon="152.9613934">
<ele>22.981</ele>
<time>2016-10-04T22:33:12.436Z</time>
</trkpt>
<trkpt lat="-27.3318490" lon="152.9614416">
<ele>20.255</ele>
<time>2016-10-04T22:33:14.471Z</time>
</trkpt>
<trkpt lat="-27.3313432" lon="152.9615330">
<ele>17.217</ele>
<time>2016-10-04T22:33:17.443Z</time>
</trkpt>
<trkpt lat="-27.3310212" lon="152.9615955">
<ele>14.884</ele>
<time>2016-10-04T22:33:19.380Z</time>
</trkpt>
<trkpt lat="-27.3306820" lon="152.9616603">
<ele>13.985</ele>
<time>2016-10-04T22:33:21.373Z</time>
</trkpt>
<trkpt lat="-27.3303284" lon="152.9617291">
<ele>14.573</ele>
<time>2016-10-04T22:33:23.414Z</time>
</trkpt>
<trkpt lat="-27.3299854" lon="152.9617935">
<ele>16.254</ele>
<time>2016-10-04T22:33:25.382Z</time>
</trkpt>
<trkpt lat="-27.3294599" lon="152.9618853">
<ele>18.286</ele>
<time>2016-10-04T22:33:28.426Z</time>
</trkpt>
<trkpt lat="-27.3291282" lon="152.9619425">
<ele>19.869</ele>
<time>2016-10-04T22:33:30.420Z</time>
</trkpt>
<trkpt lat="-27.3286514" lon="152.9620472">
<ele>20.241</ele>
<time>2016-10-04T22:33:33.348Z</time>
</trkpt>
<trkpt lat="-27.3283255" lon="152.9621277">
<ele>19.121</ele>
<time>2016-10-04T22:33:35.345Z</time>
</trkpt>
<trkpt lat="-27.3278279" lon="152.9622445">
<ele>17.319</ele>
<time>2016-10-04T22:33:38.414Z</time>
</trkpt>
<trkpt lat="-27.3275196" lon="152.9623049">
<ele>15.976</ele>
<time>2016-10-04T22:33:40.409Z</time>
</trkpt>
<trkpt lat="-27.3272235" lon="152.9623581">
<ele>15.665</ele>
<time>2016-10-04T22:33:42.426Z</time>
</trkpt>
<trkpt lat="-27.3268018" lon="152.9624348">
<ele>16.585</ele>
<time>2016-10-04T22:33:45.383Z</time>
</trkpt>
<trkpt lat="-27.3265191" lon="152.9624846">
<ele>18.656</ele>
<time>2016-10-04T22:33:47.363Z</time>
</trkpt>
<trkpt lat="-27.3260830" lon="152.9625571">
<ele>21.590</ele>
<time>2016-10-04T22:33:50.393Z</time>
</trkpt>
<trkpt lat="-27.3257968" lon="152.9626256">
<ele>24.969</ele>
<time>2016-10-04T22:33:52.431Z</time>
</trkpt>
<trkpt lat="-27.3255314" lon="152.9627365">
<ele>28.007</ele>
<time>2016-10-04T22:33:54.428Z</time>
</trkpt>
<trkpt lat="-27.3252867" lon="152.9628886">
<ele>30.003</ele>
<time>2016-10-04T22:33:56.435Z</time>
</trkpt>
<trkpt lat="-27.3249516" lon="152.9631379">
<ele>30.922</ele>
<time>2016-10-04T22:33:59.353Z</time>
</trkpt>
<trkpt lat="-27.3245836" lon="152.9633379">
<ele>31.060</ele>
<time>2016-10-04T22:34:02.227Z</time>
</trkpt>
<trkpt lat="-27.3241296" lon="152.9634530">
<ele>30.668</ele>
<time>2016-10-04T22:34:05.207Z</time>
</trkpt>
<trkpt lat="-27.3237885" lon="152.9634709">
<ele>30.068</ele>
<time>2016-10-04T22:34:07.138Z</time>
</trkpt>
<trkpt lat="-27.3231998" lon="152.9634771">
<ele>29.483</ele>
<time>2016-10-04T22:34:10.178Z</time>
</trkpt>
<trkpt lat="-27.3225580" lon="152.9635094">
<ele>28.434</ele>
<time>2016-10-04T22:34:13.256Z</time>
</trkpt>
<trkpt lat="-27.3219400" lon="152.9635356">
<ele>26.591</ele>
<time>2016-10-04T22:34:16.214Z</time>
</trkpt>
<trkpt lat="-27.3215273" lon="152.9635455">
<ele>24.018</ele>
<time>2016-10-04T22:34:18.171Z</time>
</trkpt>
<trkpt lat="-27.3208768" lon="152.9635672">
<ele>20.990</ele>
<time>2016-10-04T22:34:21.230Z</time>
</trkpt>
<trkpt lat="-27.3202504" lon="152.9635841">
<ele>18.246</ele>
<time>2016-10-04T22:34:24.264Z</time>
</trkpt>
<trkpt lat="-27.3198685" lon="152.9635948">
<ele>16.478</ele>
<time>2016-10-04T22:34:26.259Z</time>
</trkpt>
<trkpt lat="-27.3195097" lon="152.9636034">
<ele>15.678</ele>
<time>2016-10-04T22:34:28.325Z</time>
</trkpt>
<trkpt lat="-27.3190545" lon="152.9636189">
<ele>15.795</ele>
<time>2016-10-04T22:34:31.187Z</time>
</trkpt>
<trkpt lat="-27.3187576" lon="152.9636261">
<ele>16.728</ele>
<time>2016-10-04T22:34:33.169Z</time>
</trkpt>
<trkpt lat="-27.3184524" lon="152.9636334">
<ele>18.331</ele>
<time>2016-10-04T22:34:35.170Z</time>
</trkpt>
<trkpt lat="-27.3179926" lon="152.9636485">
<ele>20.439</ele>
<time>2016-10-04T22:34:38.066Z</time>
</trkpt>
<trkpt lat="-27.3176387" lon="152.9636589">
<ele>23.130</ele>
<time>2016-10-04T22:34:40.137Z</time>
</trkpt>
<trkpt lat="-27.3170881" lon="152.9636651">
<ele>26.369</ele>
<time>2016-10-04T22:34:43.262Z</time>
</trkpt>
<trkpt lat="-27.3167440" lon="152.9636792">
<ele>29.437</ele>
<time>2016-10-04T22:34:45.224Z</time>
</trkpt>
<trkpt lat="-27.3162206" lon="152.9636957">
<ele>31.422</ele>
<time>2016-10-04T22:34:48.181Z</time>
</trkpt>
<trkpt lat="-27.3156700" lon="152.9636213">
<ele>32.165</ele>
<time>2016-10-04T22:34:51.199Z</time>
</trkpt>
<trkpt lat="-27.3153024" lon="152.9635245">
<ele>32.132</ele>
<time>2016-10-04T22:34:53.223Z</time>
</trkpt>
<trkpt lat="-27.3149388" lon="152.9634345">
<ele>31.844</ele>
<time>2016-10-04T22:34:55.276Z</time>
</trkpt>
<trkpt lat="-27.3146037" lon="152.9633525">
<ele>31.512</ele>
<time>2016-10-04T22:34:57.217Z</time>
</trkpt>
<trkpt lat="-27.3140931" lon="152.9632422">
<ele>30.868</ele>
<time>2016-10-04T22:35:00.157Z</time>
</trkpt>
<trkpt lat="-27.3137362" lon="152.9631724">
<ele>29.677</ele>
<time>2016-10-04T22:35:02.160Z</time>
</trkpt>
<trkpt lat="-27.3133717" lon="152.9631118">
<ele>28.364</ele>
<time>2016-10-04T22:35:04.201Z</time>
</trkpt>
<trkpt lat="-27.3128453" lon="152.9630435">
<ele>27.459</ele>
<time>2016-10-04T22:35:07.196Z</time>
</trkpt>
<trkpt lat="-27.3123332" lon="152.9630140">
<ele>26.831</ele>
<time>2016-10-04T22:35:10.185Z</time>
</trkpt>
<trkpt lat="-27.3119995" lon="152.9630137">
<ele>26.219</ele>
<time>2016-10-04T22:35:12.158Z</time>
</trkpt>
<trkpt lat="-27.3114929" lon="152.9630326">
<ele>25.907</ele>
<time>2016-10-04T22:35:15.144Z</time>
</trkpt>
<trkpt lat="-27.3111504" lon="152.9630512">
<ele>26.472</ele>
<time>2016-10-04T22:35:17.122Z</time>
</trkpt>
<trkpt lat="-27.3107919" lon="152.9630859">
<ele>28.062</ele>
<time>2016-10-04T22:35:19.168Z</time>
</trkpt>
<trkpt lat="-27.3104502" lon="152.9631425">
<ele>30.292</ele>
<time>2016-10-04T22:35:21.158Z</time>
</trkpt>
<trkpt lat="-27.3099518" lon="152.9632396">
<ele>32.405</ele>
<time>2016-10-04T22:35:24.111Z</time>
</trkpt>
<trkpt lat="-27.3096079" lon="152.9633039">
<ele>33.727</ele>
<time>2016-10-04T22:35:26.121Z</time>
</trkpt>
<trkpt lat="-27.3090910" lon="152.9634135">
<ele>34.122</ele>
<time>2016-10-04T22:35:29.124Z</time>
</trkpt>
<trkpt lat="-27.3085844" lon="152.9635226">
<ele>33.959</ele>
<time>2016-10-04T22:35:32.128Z</time>
</trkpt>
<trkpt lat="-27.3082624" lon="152.9635853">
<ele>33.440</ele>
<time>2016-10-04T22:35:34.128Z</time>
</trkpt>
<trkpt lat="-27.3078125" lon="152.9636661">
<ele>32.407</ele>
<time>2016-10-04T22:35:36.996Z</time>
</trkpt>
<trkpt lat="-27.3074865" lon="152.9637107">
<ele>30.687</ele>
<time>2016-10-04T22:35:39.068Z</time>
</trkpt>
<trkpt lat="-27.3071773" lon="152.9637429">
<ele>28.674</ele>
<time>2016-10-04T22:35:41.036Z</time>
</trkpt>
<trkpt lat="-27.3068644" lon="152.9637645">
<ele>26.883</ele>
<time>2016-10-04T22:35:43.101Z</time>
</trkpt>
<trkpt lat="-27.3064414" lon="152.9637535">
<ele>25.371</ele>
<time>2016-10-04T22:35:46.066Z</time>
</trkpt>
<trkpt lat="-27.3061835" lon="152.9637303">
<ele>23.699</ele>
<time>2016-10-04T22:35:48.047Z</time>
</trkpt>
<trkpt lat="-27.3059468" lon="152.9636796">
<ele>21.780</ele>
<time>2016-10-04T22:35:50.033Z</time>
</trkpt>
<trkpt lat="-27.3056617" lon="152.9634909">
<ele>20.125</ele>
<time>2016-10-04T22:35:52.890Z</time>
</trkpt>
<trkpt lat="-27.3052999" lon="152.9634107">
<ele>19.033</ele>
<time>2016-10-04T22:35:55.926Z</time>
</trkpt>
<trkpt lat="-27.3048622" lon="152.9632716">
<ele>18.347</ele>
<time>2016-10-04T22:35:59.141Z</time>
</trkpt>
<trkpt lat="-27.3046004" lon="152.9631175">
<ele>18.026</ele>
<time>2016-10-04T22:36:01.115Z</time>
</trkpt>
<trkpt lat="-27.3042409" lon="152.9628357">
<ele>18.041</ele>
<time>2016-10-04T22:36:04.112Z</time>
</trkpt>
<trkpt lat="-27.3039215" lon="152.9625327">
<ele>18.182</ele>
<time>2016-10-04T22:36:07.073Z</time>
</trkpt>
<trkpt lat="-27.3036219" lon="152.9622270">
<ele>18.194</ele>
<time>2016-10-04T22:36:09.986Z</time>
</trkpt>
<trkpt lat="-27.3033958" lon="152.9620302">
<ele>18.070</ele>
<time>2016-10-04T22:36:12.003Z</time>
</trkpt>
<trkpt lat="-27.3031591" lon="152.9618474">
<ele>18.074</ele>
<time>2016-10-04T22:36:14.016Z</time>
</trkpt>
<trkpt lat="-27.3027970" lon="152.9616147">
<ele>18.315</ele>
<time>2016-10-04T22:36:16.945Z</time>
</trkpt>
<trkpt lat="-27.3023978" lon="152.9614342">
<ele>18.830</ele>
<time>2016-10-04T22:36:19.876Z</time>
</trkpt>
<trkpt lat="-27.3019378" lon="152.9612459">
<ele>20.075</ele>
<time>2016-10-04T22:36:22.959Z</time>
</trkpt>
<trkpt lat="-27.3016313" lon="152.9611275">
<ele>22.530</ele>
<time>2016-10-04T22:36:25.001Z</time>
</trkpt>
<trkpt lat="-27.3013539" lon="152.9610310">
<ele>25.553</ele>
<time>2016-10-04T22:36:27.082Z</time>
</trkpt>
<trkpt lat="-27.3010393" lon="152.9609179">
<ele>27.813</ele>
<time>2016-10-04T22:36:29.938Z</time>
</trkpt>
<trkpt lat="-27.3008815" lon="152.9608616">
<ele>28.580</ele>
<time>2016-10-04T22:36:31.850Z</time>
</trkpt>
<trkpt lat="-27.3007647" lon="152.9608210">
<ele>28.132</ele>
<time>2016-10-04T22:36:33.725Z</time>
</trkpt>
<trkpt lat="-27.3006516" lon="152.9607825">
<ele>27.283</ele>
<time>2016-10-04T22:36:36.143Z</time>
</trkpt>
<trkpt lat="-27.3006516" lon="152.9607825">
<ele>26.686</ele>
<time>2016-10-04T22:36:40.158Z</time>
</trkpt>
<trkpt lat="-27.3006516" lon="152.9607825">
<ele>26.471</ele>
<time>2016-10-04T22:37:34.749Z</time>
</trkpt>
<trkpt lat="-27.3004749" lon="152.9607109">
<ele>26.580</ele>
<time>2016-10-04T22:37:39.168Z</time>
</trkpt>
<trkpt lat="-27.3002648" lon="152.9606086">
<ele>27.475</ele>
<time>2016-10-04T22:37:41.333Z</time>
</trkpt>
<trkpt lat="-27.2999006" lon="152.9603784">
<ele>29.495</ele>
<time>2016-10-04T22:37:44.512Z</time>
</trkpt>
<trkpt lat="-27.2995464" lon="152.9600848">
<ele>31.906</ele>
<time>2016-10-04T22:37:47.520Z</time>
</trkpt>
<trkpt lat="-27.2993077" lon="152.9598740">
<ele>33.815</ele>
<time>2016-10-04T22:37:49.465Z</time>
</trkpt>
<trkpt lat="-27.2989545" lon="152.9595596">
<ele>35.074</ele>
<time>2016-10-04T22:37:52.340Z</time>
</trkpt>
<trkpt lat="-27.2986060" lon="152.9592497">
<ele>35.681</ele>
<time>2016-10-04T22:37:55.299Z</time>
</trkpt>
<trkpt lat="-27.2984146" lon="152.9590743">
<ele>35.688</ele>
<time>2016-10-04T22:37:57.219Z</time>
</trkpt>
<trkpt lat="-27.2982591" lon="152.9589329">
<ele>35.124</ele>
<time>2016-10-04T22:37:59.198Z</time>
</trkpt>
<trkpt lat="-27.2980869" lon="152.9587937">
<ele>34.052</ele>
<time>2016-10-04T22:38:01.958Z</time>
</trkpt>
<trkpt lat="-27.2979893" lon="152.9587228">
<ele>32.665</ele>
<time>2016-10-04T22:38:04.115Z</time>
</trkpt>
<trkpt lat="-27.2979893" lon="152.9587228">
<ele>31.338</ele>
<time>2016-10-04T22:38:08.071Z</time>
</trkpt>
<trkpt lat="-27.2979893" lon="152.9587228">
<ele>30.599</ele>
<time>2016-10-04T22:38:13.928Z</time>
</trkpt>
<trkpt lat="-27.2978254" lon="152.9586250">
<ele>30.750</ele>
<time>2016-10-04T22:38:17.964Z</time>
</trkpt>
<trkpt lat="-27.2975668" lon="152.9584906">
<ele>31.392</ele>
<time>2016-10-04T22:38:20.345Z</time>
</trkpt>
<trkpt lat="-27.2969869" lon="152.9582923">
<ele>32.527</ele>
<time>2016-10-04T22:38:24.489Z</time>
</trkpt>
<trkpt lat="-27.2964500" lon="152.9580632">
<ele>34.288</ele>
<time>2016-10-04T22:38:27.961Z</time>
</trkpt>
<trkpt lat="-27.2961537" lon="152.9579380">
<ele>35.709</ele>
<time>2016-10-04T22:38:29.789Z</time>
</trkpt>
<trkpt lat="-27.2957444" lon="152.9576792">
<ele>35.259</ele>
<time>2016-10-04T22:38:32.487Z</time>
</trkpt>
<trkpt lat="-27.2954971" lon="152.9574246">
<ele>32.702</ele>
<time>2016-10-04T22:38:34.352Z</time>
</trkpt>
<trkpt lat="-27.2951217" lon="152.9570093">
<ele>29.440</ele>
<time>2016-10-04T22:38:37.216Z</time>
</trkpt>
<trkpt lat="-27.2947438" lon="152.9565828">
<ele>26.912</ele>
<time>2016-10-04T22:38:40.121Z</time>
</trkpt>
<trkpt lat="-27.2945065" lon="152.9563110">
<ele>25.103</ele>
<time>2016-10-04T22:38:42.085Z</time>
</trkpt>
<trkpt lat="-27.2941824" lon="152.9559193">
<ele>23.446</ele>
<time>2016-10-04T22:38:44.973Z</time>
</trkpt>
<trkpt lat="-27.2938785" lon="152.9555573">
<ele>21.634</ele>
<time>2016-10-04T22:38:47.772Z</time>
</trkpt>
<trkpt lat="-27.2936865" lon="152.9553044">
<ele>19.773</ele>
<time>2016-10-04T22:38:49.656Z</time>
</trkpt>
<trkpt lat="-27.2933959" lon="152.9549139">
<ele>18.337</ele>
<time>2016-10-04T22:38:52.545Z</time>
</trkpt>
<trkpt lat="-27.2930881" lon="152.9545502">
<ele>17.570</ele>
<time>2016-10-04T22:38:55.426Z</time>
</trkpt>
<trkpt lat="-27.2928664" lon="152.9543522">
<ele>16.870</ele>
<time>2016-10-04T22:38:57.318Z</time>
</trkpt>
<trkpt lat="-27.2925116" lon="152.9541071">
<ele>15.739</ele>
<time>2016-10-04T22:39:00.243Z</time>
</trkpt>
<trkpt lat="-27.2921723" lon="152.9539344">
<ele>14.514</ele>
<time>2016-10-04T22:39:03.200Z</time>
</trkpt>
<trkpt lat="-27.2919857" lon="152.9538632">
<ele>13.329</ele>
<time>2016-10-04T22:39:05.169Z</time>
</trkpt>
<trkpt lat="-27.2918550" lon="152.9538126">
<ele>12.003</ele>
<time>2016-10-04T22:39:07.128Z</time>
</trkpt>
<trkpt lat="-27.2917588" lon="152.9537715">
<ele>10.814</ele>
<time>2016-10-04T22:39:09.082Z</time>
</trkpt>
<trkpt lat="-27.2917588" lon="152.9537715">
<ele>10.056</ele>
<time>2016-10-04T22:39:14.143Z</time>
</trkpt>
<trkpt lat="-27.2917588" lon="152.9537715">
<ele>9.750</ele>
<time>2016-10-04T22:40:16.423Z</time>
</trkpt>
<trkpt lat="-27.2915097" lon="152.9536856">
<ele>9.895</ele>
<time>2016-10-04T22:40:21.514Z</time>
</trkpt>
<trkpt lat="-27.2911591" lon="152.9535567">
<ele>10.864</ele>
<time>2016-10-04T22:40:24.729Z</time>
</trkpt>
<trkpt lat="-27.2908775" lon="152.9534482">
<ele>12.759</ele>
<time>2016-10-04T22:40:26.872Z</time>
</trkpt>
<trkpt lat="-27.2904344" lon="152.9532673">
<ele>14.620</ele>
<time>2016-10-04T22:40:30.078Z</time>
</trkpt>
<trkpt lat="-27.2901262" lon="152.9531369">
<ele>15.643</ele>
<time>2016-10-04T22:40:32.105Z</time>
</trkpt>
<trkpt lat="-27.2896493" lon="152.9529526">
<ele>16.015</ele>
<time>2016-10-04T22:40:35.136Z</time>
</trkpt>
<trkpt lat="-27.2891756" lon="152.9527765">
<ele>16.008</ele>
<time>2016-10-04T22:40:38.071Z</time>
</trkpt>
<trkpt lat="-27.2886855" lon="152.9525957">
<ele>15.767</ele>
<time>2016-10-04T22:40:41.065Z</time>
</trkpt>
<trkpt lat="-27.2883587" lon="152.9524759">
<ele>15.499</ele>
<time>2016-10-04T22:40:43.071Z</time>
</trkpt>
<trkpt lat="-27.2878766" lon="152.9522954">
<ele>15.285</ele>
<time>2016-10-04T22:40:46.043Z</time>
</trkpt>
<trkpt lat="-27.2873785" lon="152.9521247">
<ele>14.967</ele>
<time>2016-10-04T22:40:49.150Z</time>
</trkpt>
<trkpt lat="-27.2870730" lon="152.9520228">
<ele>14.381</ele>
<time>2016-10-04T22:40:51.211Z</time>
</trkpt>
<trkpt lat="-27.2867893" lon="152.9519244">
<ele>13.527</ele>
<time>2016-10-04T22:40:53.217Z</time>
</trkpt>
<trkpt lat="-27.2863726" lon="152.9517716">
<ele>12.505</ele>
<time>2016-10-04T22:40:56.170Z</time>
</trkpt>
<trkpt lat="-27.2859447" lon="152.9516216">
<ele>11.562</ele>
<time>2016-10-04T22:40:59.162Z</time>
</trkpt>
<trkpt lat="-27.2856626" lon="152.9515211">
<ele>11.012</ele>
<time>2016-10-04T22:41:01.103Z</time>
</trkpt>
<trkpt lat="-27.2852247" lon="152.9513639">
<ele>10.945</ele>
<time>2016-10-04T22:41:04.054Z</time>
</trkpt>
<trkpt lat="-27.2849257" lon="152.9512548">
<ele>11.152</ele>
<time>2016-10-04T22:41:06.031Z</time>
</trkpt>
<trkpt lat="-27.2846265" lon="152.9511329">
<ele>11.533</ele>
<time>2016-10-04T22:41:08.048Z</time>
</trkpt>
<trkpt lat="-27.2843402" lon="152.9510045">
<ele>12.065</ele>
<time>2016-10-04T22:41:10.005Z</time>
</trkpt>
<trkpt lat="-27.2840456" lon="152.9508755">
<ele>12.454</ele>
<time>2016-10-04T22:41:11.982Z</time>
</trkpt>
<trkpt lat="-27.2835953" lon="152.9507008">
<ele>12.473</ele>
<time>2016-10-04T22:41:14.933Z</time>
</trkpt>
<trkpt lat="-27.2832846" lon="152.9505822">
<ele>12.312</ele>
<time>2016-10-04T22:41:16.964Z</time>
</trkpt>
<trkpt lat="-27.2828331" lon="152.9504120">
<ele>12.113</ele>
<time>2016-10-04T22:41:19.914Z</time>
</trkpt>
<trkpt lat="-27.2823763" lon="152.9502287">
<ele>11.829</ele>
<time>2016-10-04T22:41:22.900Z</time>
</trkpt>
<trkpt lat="-27.2820654" lon="152.9501055">
<ele>11.511</ele>
<time>2016-10-04T22:41:24.936Z</time>
</trkpt>
<trkpt lat="-27.2816092" lon="152.9499289">
<ele>11.305</ele>
<time>2016-10-04T22:41:27.979Z</time>
</trkpt>
<trkpt lat="-27.2811796" lon="152.9497618">
<ele>11.265</ele>
<time>2016-10-04T22:41:30.916Z</time>
</trkpt>
<trkpt lat="-27.2808879" lon="152.9496537">
<ele>11.334</ele>
<time>2016-10-04T22:41:32.966Z</time>
</trkpt>
<trkpt lat="-27.2805189" lon="152.9495269">
<ele>11.413</ele>
<time>2016-10-04T22:41:35.617Z</time>
</trkpt>
<trkpt lat="-27.2802447" lon="152.9494137">
<ele>11.447</ele>
<time>2016-10-04T22:41:37.660Z</time>
</trkpt>
<trkpt lat="-27.2799713" lon="152.9493115">
<ele>11.414</ele>
<time>2016-10-04T22:41:39.591Z</time>
</trkpt>
<trkpt lat="-27.2795042" lon="152.9491991">
<ele>11.305</ele>
<time>2016-10-04T22:41:42.704Z</time>
</trkpt>
<trkpt lat="-27.2791993" lon="152.9491657">
<ele>11.027</ele>
<time>2016-10-04T22:41:44.676Z</time>
</trkpt>
<trkpt lat="-27.2787364" lon="152.9491919">
<ele>10.507</ele>
<time>2016-10-04T22:41:47.631Z</time>
</trkpt>
<trkpt lat="-27.2784360" lon="152.9492784">
<ele>9.883</ele>
<time>2016-10-04T22:41:49.580Z</time>
</trkpt>
<trkpt lat="-27.2779847" lon="152.9494713">
<ele>9.395</ele>
<time>2016-10-04T22:41:52.631Z</time>
</trkpt>
<trkpt lat="-27.2776929" lon="152.9496187">
<ele>9.127</ele>
<time>2016-10-04T22:41:54.727Z</time>
</trkpt>
<trkpt lat="-27.2772915" lon="152.9498103">
<ele>8.829</ele>
<time>2016-10-04T22:41:57.657Z</time>
</trkpt>
<trkpt lat="-27.2770342" lon="152.9499552">
<ele>8.285</ele>
<time>2016-10-04T22:41:59.637Z</time>
</trkpt>
<trkpt lat="-27.2766438" lon="152.9501530">
<ele>7.756</ele>
<time>2016-10-04T22:42:02.593Z</time>
</trkpt>
<trkpt lat="-27.2762219" lon="152.9503096">
<ele>7.829</ele>
<time>2016-10-04T22:42:05.654Z</time>
</trkpt>
<trkpt lat="-27.2759283" lon="152.9504007">
<ele>8.624</ele>
<time>2016-10-04T22:42:07.765Z</time>
</trkpt>
<trkpt lat="-27.2755328" lon="152.9505717">
<ele>9.361</ele>
<time>2016-10-04T22:42:10.720Z</time>
</trkpt>
<trkpt lat="-27.2752630" lon="152.9506739">
<ele>9.276</ele>
<time>2016-10-04T22:42:12.721Z</time>
</trkpt>
<trkpt lat="-27.2748643" lon="152.9508174">
<ele>8.622</ele>
<time>2016-10-04T22:42:15.698Z</time>
</trkpt>
<trkpt lat="-27.2744764" lon="152.9509774">
<ele>8.255</ele>
<time>2016-10-04T22:42:18.724Z</time>
</trkpt>
<trkpt lat="-27.2742302" lon="152.9510802">
<ele>8.653</ele>
<time>2016-10-04T22:42:20.770Z</time>
</trkpt>
<trkpt lat="-27.2739905" lon="152.9511795">
<ele>9.426</ele>
<time>2016-10-04T22:42:22.918Z</time>
</trkpt>
<trkpt lat="-27.2737815" lon="152.9512639">
<ele>9.876</ele>
<time>2016-10-04T22:42:25.285Z</time>
</trkpt>
<trkpt lat="-27.2735578" lon="152.9513480">
<ele>9.733</ele>
<time>2016-10-04T22:42:28.457Z</time>
</trkpt>
<trkpt lat="-27.2734429" lon="152.9513678">
<ele>9.024</ele>
<time>2016-10-04T22:42:29.900Z</time>
</trkpt>
<trkpt lat="-27.2731813" lon="152.9514431">
<ele>8.038</ele>
<time>2016-10-04T22:42:32.523Z</time>
</trkpt>
<trkpt lat="-27.2728229" lon="152.9516802">
<ele>7.397</ele>
<time>2016-10-04T22:42:35.560Z</time>
</trkpt>
<trkpt lat="-27.2725224" lon="152.9518125">
<ele>7.501</ele>
<time>2016-10-04T22:42:37.625Z</time>
</trkpt>
<trkpt lat="-27.2722359" lon="152.9519296">
<ele>8.035</ele>
<time>2016-10-04T22:42:39.667Z</time>
</trkpt>
<trkpt lat="-27.2718388" lon="152.9520877">
<ele>8.418</ele>
<time>2016-10-04T22:42:42.624Z</time>
</trkpt>
<trkpt lat="-27.2714500" lon="152.9522305">
<ele>8.263</ele>
<time>2016-10-04T22:42:45.584Z</time>
</trkpt>
<trkpt lat="-27.2710510" lon="152.9523807">
<ele>7.675</ele>
<time>2016-10-04T22:42:48.617Z</time>
</trkpt>
<trkpt lat="-27.2707769" lon="152.9524818">
<ele>7.304</ele>
<time>2016-10-04T22:42:50.653Z</time>
</trkpt>
<trkpt lat="-27.2705144" lon="152.9525931">
<ele>7.532</ele>
<time>2016-10-04T22:42:52.549Z</time>
</trkpt>
<trkpt lat="-27.2700691" lon="152.9527589">
<ele>8.007</ele>
<time>2016-10-04T22:42:55.614Z</time>
</trkpt>
<trkpt lat="-27.2697808" lon="152.9528837">
<ele>8.774</ele>
<time>2016-10-04T22:42:57.628Z</time>
</trkpt>
<trkpt lat="-27.2695003" lon="152.9529879">
<ele>10.063</ele>
<time>2016-10-04T22:42:59.642Z</time>
</trkpt>
<trkpt lat="-27.2691125" lon="152.9531657">
<ele>11.267</ele>
<time>2016-10-04T22:43:02.605Z</time>
</trkpt>
<trkpt lat="-27.2687212" lon="152.9533269">
<ele>11.806</ele>
<time>2016-10-04T22:43:05.677Z</time>
</trkpt>
<trkpt lat="-27.2684761" lon="152.9534221">
<ele>11.927</ele>
<time>2016-10-04T22:43:07.674Z</time>
</trkpt>
<trkpt lat="-27.2681187" lon="152.9535796">
<ele>12.025</ele>
<time>2016-10-04T22:43:10.738Z</time>
</trkpt>
<trkpt lat="-27.2678355" lon="152.9537954">
<ele>12.217</ele>
<time>2016-10-04T22:43:13.568Z</time>
</trkpt>
<trkpt lat="-27.2677062" lon="152.9540156">
<ele>12.419</ele>
<time>2016-10-04T22:43:15.444Z</time>
</trkpt>
<trkpt lat="-27.2676168" lon="152.9542963">
<ele>12.477</ele>
<time>2016-10-04T22:43:17.421Z</time>
</trkpt>
<trkpt lat="-27.2675768" lon="152.9547720">
<ele>12.288</ele>
<time>2016-10-04T22:43:20.453Z</time>
</trkpt>
<trkpt lat="-27.2675674" lon="152.9552568">
<ele>11.375</ele>
<time>2016-10-04T22:43:23.450Z</time>
</trkpt>
<trkpt lat="-27.2675679" lon="152.9555859">
<ele>9.016</ele>
<time>2016-10-04T22:43:25.553Z</time>
</trkpt>
<trkpt lat="-27.2675376" lon="152.9559995">
<ele>5.288</ele>
<time>2016-10-04T22:43:28.343Z</time>
</trkpt>
<trkpt lat="-27.2674355" lon="152.9562634">
<ele>1.010</ele>
<time>2016-10-04T22:43:30.320Z</time>
</trkpt>
<trkpt lat="-27.2670988" lon="152.9565086">
<ele>0.000</ele>
<time>2016-10-04T22:43:33.308Z</time>
</trkpt>
<trkpt lat="-27.2668072" lon="152.9565259">
<ele>0.000</ele>
<time>2016-10-04T22:43:35.333Z</time>
</trkpt>
<trkpt lat="-27.2663730" lon="152.9563653">
<ele>0.000</ele>
<time>2016-10-04T22:43:38.409Z</time>
</trkpt>
<trkpt lat="-27.2661020" lon="152.9562488">
<ele>0.000</ele>
<time>2016-10-04T22:43:40.421Z</time>
</trkpt>
<trkpt lat="-27.2658351" lon="152.9561989">
<ele>0.000</ele>
<time>2016-10-04T22:43:42.376Z</time>
</trkpt>
<trkpt lat="-27.2654324" lon="152.9562269">
<ele>0.000</ele>
<time>2016-10-04T22:43:45.406Z</time>
</trkpt>
<trkpt lat="-27.2652028" lon="152.9563107">
<ele>0.000</ele>
<time>2016-10-04T22:43:47.361Z</time>
</trkpt>
<trkpt lat="-27.2649832" lon="152.9564064">
<ele>0.559</ele>
<time>2016-10-04T22:43:49.291Z</time>
</trkpt>
<trkpt lat="-27.2646404" lon="152.9565602">
<ele>0.890</ele>
<time>2016-10-04T22:43:52.249Z</time>
</trkpt>
<trkpt lat="-27.2643960" lon="152.9566663">
<ele>0.646</ele>
<time>2016-10-04T22:43:54.336Z</time>
</trkpt>
<trkpt lat="-27.2640522" lon="152.9568165">
<ele>0.141</ele>
<time>2016-10-04T22:43:57.503Z</time>
</trkpt>
<trkpt lat="-27.2637773" lon="152.9569396">
<ele>0.000</ele>
<time>2016-10-04T22:44:00.423Z</time>
</trkpt>
<trkpt lat="-27.2636127" lon="152.9570186">
<ele>0.000</ele>
<time>2016-10-04T22:44:02.211Z</time>
</trkpt>
<trkpt lat="-27.2632874" lon="152.9571527">
<ele>0.000</ele>
<time>2016-10-04T22:44:05.552Z</time>
</trkpt>
<trkpt lat="-27.2630409" lon="152.9573276">
<ele>0.488</ele>
<time>2016-10-04T22:44:08.614Z</time>
</trkpt>
<trkpt lat="-27.2629043" lon="152.9574344">
<ele>1.852</ele>
<time>2016-10-04T22:44:10.760Z</time>
</trkpt>
<trkpt lat="-27.2627374" lon="152.9575711">
<ele>3.636</ele>
<time>2016-10-04T22:44:13.687Z</time>
</trkpt>
<trkpt lat="-27.2626162" lon="152.9576095">
<ele>5.450</ele>
<time>2016-10-04T22:44:15.362Z</time>
</trkpt>
<trkpt lat="-27.2623878" lon="152.9574884">
<ele>6.927</ele>
<time>2016-10-04T22:44:18.227Z</time>
</trkpt>
<trkpt lat="-27.2622099" lon="152.9573246">
<ele>7.710</ele>
<time>2016-10-04T22:44:20.243Z</time>
</trkpt>
<trkpt lat="-27.2619087" lon="152.9570484">
<ele>7.859</ele>
<time>2016-10-04T22:44:23.356Z</time>
</trkpt>
<trkpt lat="-27.2616190" lon="152.9567734">
<ele>7.704</ele>
<time>2016-10-04T22:44:26.331Z</time>
</trkpt>
<trkpt lat="-27.2614306" lon="152.9565931">
<ele>7.457</ele>
<time>2016-10-04T22:44:28.220Z</time>
</trkpt>
<trkpt lat="-27.2611097" lon="152.9562751">
<ele>7.274</ele>
<time>2016-10-04T22:44:31.318Z</time>
</trkpt>
<trkpt lat="-27.2609132" lon="152.9560239">
<ele>7.627</ele>
<time>2016-10-04T22:44:33.357Z</time>
</trkpt>
<trkpt lat="-27.2607495" lon="152.9557553">
<ele>8.865</ele>
<time>2016-10-04T22:44:35.315Z</time>
</trkpt>
<trkpt lat="-27.2605143" lon="152.9553325">
<ele>10.716</ele>
<time>2016-10-04T22:44:38.339Z</time>
</trkpt>
<trkpt lat="-27.2602983" lon="152.9549254">
<ele>12.802</ele>
<time>2016-10-04T22:44:41.279Z</time>
</trkpt>
<trkpt lat="-27.2600655" lon="152.9545317">
<ele>14.712</ele>
<time>2016-10-04T22:44:44.185Z</time>
</trkpt>
<trkpt lat="-27.2598287" lon="152.9540977">
<ele>15.875</ele>
<time>2016-10-04T22:44:47.180Z</time>
</trkpt>
<trkpt lat="-27.2596724" lon="152.9538068">
<ele>16.024</ele>
<time>2016-10-04T22:44:49.131Z</time>
</trkpt>
<trkpt lat="-27.2594289" lon="152.9533732">
<ele>15.369</ele>
<time>2016-10-04T22:44:52.082Z</time>
</trkpt>
<trkpt lat="-27.2592627" lon="152.9530771">
<ele>14.465</ele>
<time>2016-10-04T22:44:54.132Z</time>
</trkpt>
<trkpt lat="-27.2591209" lon="152.9528086">
<ele>14.060</ele>
<time>2016-10-04T22:44:56.009Z</time>
</trkpt>
<trkpt lat="-27.2589183" lon="152.9523807">
<ele>14.553</ele>
<time>2016-10-04T22:44:58.970Z</time>
</trkpt>
<trkpt lat="-27.2586770" lon="152.9519388">
<ele>15.975</ele>
<time>2016-10-04T22:45:02.086Z</time>
</trkpt>
<trkpt lat="-27.2585205" lon="152.9516601">
<ele>17.867</ele>
<time>2016-10-04T22:45:03.979Z</time>
</trkpt>
<trkpt lat="-27.2582350" lon="152.9512147">
<ele>19.378</ele>
<time>2016-10-04T22:45:06.998Z</time>
</trkpt>
<trkpt lat="-27.2578898" lon="152.9507604">
<ele>20.015</ele>
<time>2016-10-04T22:45:10.084Z</time>
</trkpt>
<trkpt lat="-27.2576267" lon="152.9504861">
<ele>19.985</ele>
<time>2016-10-04T22:45:12.086Z</time>
</trkpt>
<trkpt lat="-27.2571931" lon="152.9501015">
<ele>19.704</ele>
<time>2016-10-04T22:45:15.187Z</time>
</trkpt>
<trkpt lat="-27.2567536" lon="152.9498099">
<ele>20.171</ele>
<time>2016-10-04T22:45:18.167Z</time>
</trkpt>
<trkpt lat="-27.2564658" lon="152.9496359">
<ele>21.932</ele>
<time>2016-10-04T22:45:20.132Z</time>
</trkpt>
<trkpt lat="-27.2560496" lon="152.9493402">
<ele>24.181</ele>
<time>2016-10-04T22:45:23.097Z</time>
</trkpt>
<trkpt lat="-27.2558072" lon="152.9490690">
<ele>26.129</ele>
<time>2016-10-04T22:45:25.127Z</time>
</trkpt>
<trkpt lat="-27.2556029" lon="152.9487774">
<ele>27.860</ele>
<time>2016-10-04T22:45:27.049Z</time>
</trkpt>
<trkpt lat="-27.2554272" lon="152.9484316">
<ele>29.329</ele>
<time>2016-10-04T22:45:29.043Z</time>
</trkpt>
<trkpt lat="-27.2552736" lon="152.9478190">
<ele>30.299</ele>
<time>2016-10-04T22:45:32.132Z</time>
</trkpt>
<trkpt lat="-27.2552432" lon="152.9474100">
<ele>30.700</ele>
<time>2016-10-04T22:45:34.103Z</time>
</trkpt>
<trkpt lat="-27.2552339" lon="152.9470062">
<ele>30.476</ele>
<time>2016-10-04T22:45:36.054Z</time>
</trkpt>
<trkpt lat="-27.2552378" lon="152.9464076">
<ele>29.455</ele>
<time>2016-10-04T22:45:38.927Z</time>
</trkpt>
<trkpt lat="-27.2552365" lon="152.9459906">
<ele>28.010</ele>
<time>2016-10-04T22:45:40.886Z</time>
</trkpt>
<trkpt lat="-27.2552198" lon="152.9455400">
<ele>27.144</ele>
<time>2016-10-04T22:45:43.010Z</time>
</trkpt>
<trkpt lat="-27.2552096" lon="152.9449432">
<ele>27.277</ele>
<time>2016-10-04T22:45:45.932Z</time>
</trkpt>
<trkpt lat="-27.2551536" lon="152.9444006">
<ele>27.977</ele>
<time>2016-10-04T22:45:48.788Z</time>
</trkpt>
<trkpt lat="-27.2550923" lon="152.9440424">
<ele>29.151</ele>
<time>2016-10-04T22:45:50.793Z</time>
</trkpt>
<trkpt lat="-27.2550201" lon="152.9437001">
<ele>31.045</ele>
<time>2016-10-04T22:45:52.770Z</time>
</trkpt>
<trkpt lat="-27.2549475" lon="152.9433594">
<ele>33.540</ele>
<time>2016-10-04T22:45:54.769Z</time>
</trkpt>
<trkpt lat="-27.2548725" lon="152.9430213">
<ele>36.267</ele>
<time>2016-10-04T22:45:56.767Z</time>
</trkpt>
<trkpt lat="-27.2547501" lon="152.9425248">
<ele>38.634</ele>
<time>2016-10-04T22:45:59.736Z</time>
</trkpt>
<trkpt lat="-27.2546379" lon="152.9420247">
<ele>40.361</ele>
<time>2016-10-04T22:46:02.736Z</time>
</trkpt>
<trkpt lat="-27.2544979" lon="152.9415253">
<ele>42.165</ele>
<time>2016-10-04T22:46:05.790Z</time>
</trkpt>
<trkpt lat="-27.2543355" lon="152.9410456">
<ele>44.531</ele>
<time>2016-10-04T22:46:08.813Z</time>
</trkpt>
<trkpt lat="-27.2542266" lon="152.9407363">
<ele>46.728</ele>
<time>2016-10-04T22:46:10.815Z</time>
</trkpt>
<trkpt lat="-27.2541014" lon="152.9404467">
<ele>47.869</ele>
<time>2016-10-04T22:46:12.811Z</time>
</trkpt>
<trkpt lat="-27.2539093" lon="152.9400375">
<ele>47.953</ele>
<time>2016-10-04T22:46:15.837Z</time>
</trkpt>
<trkpt lat="-27.2537137" lon="152.9397074">
<ele>47.046</ele>
<time>2016-10-04T22:46:18.754Z</time>
</trkpt>
<trkpt lat="-27.2536113" lon="152.9395202">
<ele>44.775</ele>
<time>2016-10-04T22:46:20.768Z</time>
</trkpt>
<trkpt lat="-27.2534709" lon="152.9394395">
<ele>41.550</ele>
<time>2016-10-04T22:46:22.704Z</time>
</trkpt>
<trkpt lat="-27.2532406" lon="152.9395748">
<ele>38.834</ele>
<time>2016-10-04T22:46:25.669Z</time>
</trkpt>
<trkpt lat="-27.2529073" lon="152.9397501">
<ele>37.414</ele>
<time>2016-10-04T22:46:28.835Z</time>
</trkpt>
<trkpt lat="-27.2526260" lon="152.9398202">
<ele>36.849</ele>
<time>2016-10-04T22:46:30.907Z</time>
</trkpt>
<trkpt lat="-27.2521661" lon="152.9398116">
<ele>36.311</ele>
<time>2016-10-04T22:46:33.985Z</time>
</trkpt>
<trkpt lat="-27.2518592" lon="152.9397890">
<ele>35.004</ele>
<time>2016-10-04T22:46:35.979Z</time>
</trkpt>
<trkpt lat="-27.2514358" lon="152.9398966">
<ele>32.635</ele>
<time>2016-10-04T22:46:38.794Z</time>
</trkpt>
<trkpt lat="-27.2511578" lon="152.9400566">
<ele>29.467</ele>
<time>2016-10-04T22:46:40.807Z</time>
</trkpt>
<trkpt lat="-27.2507635" lon="152.9403433">
<ele>25.919</ele>
<time>2016-10-04T22:46:43.820Z</time>
</trkpt>
<trkpt lat="-27.2503085" lon="152.9404868">
<ele>22.427</ele>
<time>2016-10-04T22:46:46.881Z</time>
</trkpt>
<trkpt lat="-27.2500555" lon="152.9406710">
<ele>19.201</ele>
<time>2016-10-04T22:46:48.802Z</time>
</trkpt>
<trkpt lat="-27.2497649" lon="152.9411675">
<ele>16.529</ele>
<time>2016-10-04T22:46:51.974Z</time>
</trkpt>
<trkpt lat="-27.2496118" lon="152.9415052">
<ele>15.346</ele>
<time>2016-10-04T22:46:53.937Z</time>
</trkpt>
<trkpt lat="-27.2493225" lon="152.9419655">
<ele>15.858</ele>
<time>2016-10-04T22:46:56.889Z</time>
</trkpt>
<trkpt lat="-27.2490093" lon="152.9424449">
<ele>16.880</ele>
<time>2016-10-04T22:46:59.949Z</time>
</trkpt>
<trkpt lat="-27.2488107" lon="152.9427546">
<ele>17.376</ele>
<time>2016-10-04T22:47:01.912Z</time>
</trkpt>
<trkpt lat="-27.2486300" lon="152.9430423">
<ele>17.332</ele>
<time>2016-10-04T22:47:03.808Z</time>
</trkpt>
<trkpt lat="-27.2483610" lon="152.9434615">
<ele>17.010</ele>
<time>2016-10-04T22:47:06.736Z</time>
</trkpt>
<trkpt lat="-27.2481770" lon="152.9437365">
<ele>16.592</ele>
<time>2016-10-04T22:47:08.772Z</time>
</trkpt>
<trkpt lat="-27.2478940" lon="152.9440770">
<ele>16.469</ele>
<time>2016-10-04T22:47:11.604Z</time>
</trkpt>
<trkpt lat="-27.2475494" lon="152.9443798">
<ele>16.870</ele>
<time>2016-10-04T22:47:14.561Z</time>
</trkpt>
<trkpt lat="-27.2471094" lon="152.9446429">
<ele>17.352</ele>
<time>2016-10-04T22:47:17.658Z</time>
</trkpt>
<trkpt lat="-27.2467572" lon="152.9447704">
<ele>17.493</ele>
<time>2016-10-04T22:47:19.765Z</time>
</trkpt>
<trkpt lat="-27.2463992" lon="152.9448839">
<ele>17.584</ele>
<time>2016-10-04T22:47:21.820Z</time>
</trkpt>
<trkpt lat="-27.2460601" lon="152.9449915">
<ele>17.944</ele>
<time>2016-10-04T22:47:23.782Z</time>
</trkpt>
<trkpt lat="-27.2455248" lon="152.9450478">
<ele>18.367</ele>
<time>2016-10-04T22:47:26.792Z</time>
</trkpt>
<trkpt lat="-27.2451499" lon="152.9450221">
<ele>18.725</ele>
<time>2016-10-04T22:47:28.837Z</time>
</trkpt>
<trkpt lat="-27.2445905" lon="152.9449731">
<ele>19.679</ele>
<time>2016-10-04T22:47:31.893Z</time>
</trkpt>
<trkpt lat="-27.2442792" lon="152.9449422">
<ele>21.441</ele>
<time>2016-10-04T22:47:33.728Z</time>
</trkpt>
<trkpt lat="-27.2437976" lon="152.9448480">
<ele>22.874</ele>
<time>2016-10-04T22:47:36.801Z</time>
</trkpt>
<trkpt lat="-27.2434833" lon="152.9448013">
<ele>22.966</ele>
<time>2016-10-04T22:47:38.787Z</time>
</trkpt>
<trkpt lat="-27.2429487" lon="152.9447388">
<ele>22.130</ele>
<time>2016-10-04T22:47:41.983Z</time>
</trkpt>
<trkpt lat="-27.2426050" lon="152.9447078">
<ele>21.296</ele>
<time>2016-10-04T22:47:43.972Z</time>
</trkpt>
<trkpt lat="-27.2422584" lon="152.9446671">
<ele>20.879</ele>
<time>2016-10-04T22:47:45.954Z</time>
</trkpt>
<trkpt lat="-27.2417229" lon="152.9446324">
<ele>20.751</ele>
<time>2016-10-04T22:47:48.881Z</time>
</trkpt>
<trkpt lat="-27.2411277" lon="152.9447614">
<ele>20.784</ele>
<time>2016-10-04T22:47:51.973Z</time>
</trkpt>
<trkpt lat="-27.2407453" lon="152.9448873">
<ele>20.912</ele>
<time>2016-10-04T22:47:54.001Z</time>
</trkpt>
<trkpt lat="-27.2404037" lon="152.9450528">
<ele>20.904</ele>
<time>2016-10-04T22:47:55.988Z</time>
</trkpt>
<trkpt lat="-27.2398871" lon="152.9451637">
<ele>20.618</ele>
<time>2016-10-04T22:47:58.920Z</time>
</trkpt>
<trkpt lat="-27.2395494" lon="152.9451270">
<ele>20.374</ele>
<time>2016-10-04T22:48:00.864Z</time>
</trkpt>
<trkpt lat="-27.2390409" lon="152.9448438">
<ele>20.512</ele>
<time>2016-10-04T22:48:04.067Z</time>
</trkpt>
<trkpt lat="-27.2385956" lon="152.9444861">
<ele>21.102</ele>
<time>2016-10-04T22:48:07.127Z</time>
</trkpt>
<trkpt lat="-27.2382661" lon="152.9443273">
<ele>21.960</ele>
<time>2016-10-04T22:48:09.149Z</time>
</trkpt>
<trkpt lat="-27.2377385" lon="152.9442014">
<ele>22.650</ele>
<time>2016-10-04T22:48:12.178Z</time>
</trkpt>
<trkpt lat="-27.2373934" lon="152.9441210">
<ele>22.843</ele>
<time>2016-10-04T22:48:14.222Z</time>
</trkpt>
<trkpt lat="-27.2369061" lon="152.9440294">
<ele>22.713</ele>
<time>2016-10-04T22:48:17.147Z</time>
</trkpt>
<trkpt lat="-27.2365613" lon="152.9439610">
<ele>22.614</ele>
<time>2016-10-04T22:48:19.168Z</time>
</trkpt>
<trkpt lat="-27.2362178" lon="152.9439601">
<ele>22.729</ele>
<time>2016-10-04T22:48:21.080Z</time>
</trkpt>
<trkpt lat="-27.2356594" lon="152.9440088">
<ele>23.285</ele>
<time>2016-10-04T22:48:24.147Z</time>
</trkpt>
<trkpt lat="-27.2353094" lon="152.9440823">
<ele>24.383</ele>
<time>2016-10-04T22:48:26.140Z</time>
</trkpt>
<trkpt lat="-27.2349666" lon="152.9441472">
<ele>25.572</ele>
<time>2016-10-04T22:48:28.131Z</time>
</trkpt>
<trkpt lat="-27.2344547" lon="152.9442392">
<ele>26.623</ele>
<time>2016-10-04T22:48:31.101Z</time>
</trkpt>
<trkpt lat="-27.2339299" lon="152.9443298">
<ele>27.837</ele>
<time>2016-10-04T22:48:34.087Z</time>
</trkpt>
<trkpt lat="-27.2333941" lon="152.9444513">
<ele>29.105</ele>
<time>2016-10-04T22:48:37.081Z</time>
</trkpt>
<trkpt lat="-27.2328340" lon="152.9445666">
<ele>29.924</ele>
<time>2016-10-04T22:48:40.175Z</time>
</trkpt>
<trkpt lat="-27.2323245" lon="152.9447592">
<ele>30.234</ele>
<time>2016-10-04T22:48:43.159Z</time>
</trkpt>
<trkpt lat="-27.2319808" lon="152.9448581">
<ele>30.450</ele>
<time>2016-10-04T22:48:45.151Z</time>
</trkpt>
<trkpt lat="-27.2316172" lon="152.9449234">
<ele>31.502</ele>
<time>2016-10-04T22:48:47.239Z</time>
</trkpt>
<trkpt lat="-27.2311187" lon="152.9450245">
<ele>34.035</ele>
<time>2016-10-04T22:48:50.150Z</time>
</trkpt>
<trkpt lat="-27.2307777" lon="152.9450841">
<ele>37.123</ele>
<time>2016-10-04T22:48:52.081Z</time>
</trkpt>
<trkpt lat="-27.2302156" lon="152.9451821">
<ele>39.250</ele>
<time>2016-10-04T22:48:55.125Z</time>
</trkpt>
<trkpt lat="-27.2296450" lon="152.9453036">
<ele>39.399</ele>
<time>2016-10-04T22:48:58.144Z</time>
</trkpt>
<trkpt lat="-27.2290800" lon="152.9454222">
<ele>37.409</ele>
<time>2016-10-04T22:49:01.115Z</time>
</trkpt>
<trkpt lat="-27.2285153" lon="152.9455156">
<ele>34.541</ele>
<time>2016-10-04T22:49:04.087Z</time>
</trkpt>
<trkpt lat="-27.2281561" lon="152.9455839">
<ele>32.176</ele>
<time>2016-10-04T22:49:06.048Z</time>
</trkpt>
<trkpt lat="-27.2277991" lon="152.9456745">
<ele>30.296</ele>
<time>2016-10-04T22:49:08.039Z</time>
</trkpt>
<trkpt lat="-27.2272991" lon="152.9459494">
<ele>28.657</ele>
<time>2016-10-04T22:49:11.021Z</time>
</trkpt>
<trkpt lat="-27.2268592" lon="152.9463758">
<ele>27.712</ele>
<time>2016-10-04T22:49:14.066Z</time>
</trkpt>
<trkpt lat="-27.2264921" lon="152.9468417">
<ele>28.171</ele>
<time>2016-10-04T22:49:17.023Z</time>
</trkpt>
<trkpt lat="-27.2261484" lon="152.9472913">
<ele>29.799</ele>
<time>2016-10-04T22:49:19.977Z</time>
</trkpt>
<trkpt lat="-27.2257006" lon="152.9475772">
<ele>31.374</ele>
<time>2016-10-04T22:49:22.959Z</time>
</trkpt>
<trkpt lat="-27.2251704" lon="152.9477047">
<ele>32.323</ele>
<time>2016-10-04T22:49:26.064Z</time>
</trkpt>
<trkpt lat="-27.2248194" lon="152.9477627">
<ele>33.305</ele>
<time>2016-10-04T22:49:28.050Z</time>
</trkpt>
<trkpt lat="-27.2242833" lon="152.9478513">
<ele>34.550</ele>
<time>2016-10-04T22:49:31.046Z</time>
</trkpt>
<trkpt lat="-27.2237303" lon="152.9479518">
<ele>35.238</ele>
<time>2016-10-04T22:49:34.061Z</time>
</trkpt>
<trkpt lat="-27.2233567" lon="152.9480177">
<ele>34.394</ele>
<time>2016-10-04T22:49:36.080Z</time>
</trkpt>
<trkpt lat="-27.2229967" lon="152.9480833">
<ele>32.171</ele>
<time>2016-10-04T22:49:38.071Z</time>
</trkpt>
<trkpt lat="-27.2224750" lon="152.9481733">
<ele>29.850</ele>
<time>2016-10-04T22:49:40.995Z</time>
</trkpt>
<trkpt lat="-27.2221104" lon="152.9482319">
<ele>28.121</ele>
<time>2016-10-04T22:49:43.020Z</time>
</trkpt>
<trkpt lat="-27.2217416" lon="152.9482983">
<ele>26.636</ele>
<time>2016-10-04T22:49:45.026Z</time>
</trkpt>
<trkpt lat="-27.2213622" lon="152.9483605">
<ele>25.246</ele>
<time>2016-10-04T22:49:47.012Z</time>
</trkpt>
<trkpt lat="-27.2207562" lon="152.9484690">
<ele>24.177</ele>
<time>2016-10-04T22:49:50.100Z</time>
</trkpt>
<trkpt lat="-27.2201718" lon="152.9485708">
<ele>23.340</ele>
<time>2016-10-04T22:49:53.085Z</time>
</trkpt>
<trkpt lat="-27.2198011" lon="152.9486298">
<ele>22.406</ele>
<time>2016-10-04T22:49:55.050Z</time>
</trkpt>
<trkpt lat="-27.2192483" lon="152.9487296">
<ele>21.403</ele>
<time>2016-10-04T22:49:58.018Z</time>
</trkpt>
<trkpt lat="-27.2188661" lon="152.9488012">
<ele>20.702</ele>
<time>2016-10-04T22:50:00.024Z</time>
</trkpt>
<trkpt lat="-27.2184674" lon="152.9488769">
<ele>20.398</ele>
<time>2016-10-04T22:50:02.074Z</time>
</trkpt>
<trkpt lat="-27.2178899" lon="152.9489877">
<ele>20.077</ele>
<time>2016-10-04T22:50:05.050Z</time>
</trkpt>
<trkpt lat="-27.2175123" lon="152.9490598">
<ele>19.306</ele>
<time>2016-10-04T22:50:07.034Z</time>
</trkpt>
<trkpt lat="-27.2169466" lon="152.9491589">
<ele>18.186</ele>
<time>2016-10-04T22:50:10.040Z</time>
</trkpt>
<trkpt lat="-27.2165774" lon="152.9492214">
<ele>17.192</ele>
<time>2016-10-04T22:50:12.037Z</time>
</trkpt>
<trkpt lat="-27.2160288" lon="152.9493085">
<ele>16.616</ele>
<time>2016-10-04T22:50:15.020Z</time>
</trkpt>
<trkpt lat="-27.2156707" lon="152.9493655">
<ele>16.623</ele>
<time>2016-10-04T22:50:17.003Z</time>
</trkpt>
<trkpt lat="-27.2151390" lon="152.9494450">
<ele>17.118</ele>
<time>2016-10-04T22:50:20.016Z</time>
</trkpt>
<trkpt lat="-27.2147956" lon="152.9494925">
<ele>18.016</ele>
<time>2016-10-04T22:50:22.012Z</time>
</trkpt>
<trkpt lat="-27.2144549" lon="152.9495468">
<ele>19.207</ele>
<time>2016-10-04T22:50:24.027Z</time>
</trkpt>
<trkpt lat="-27.2141223" lon="152.9496013">
<ele>20.218</ele>
<time>2016-10-04T22:50:26.006Z</time>
</trkpt>
<trkpt lat="-27.2136202" lon="152.9496969">
<ele>20.457</ele>
<time>2016-10-04T22:50:28.975Z</time>
</trkpt>
<trkpt lat="-27.2132806" lon="152.9497566">
<ele>19.823</ele>
<time>2016-10-04T22:50:30.986Z</time>
</trkpt>
<trkpt lat="-27.2127916" lon="152.9498420">
<ele>18.614</ele>
<time>2016-10-04T22:50:34.047Z</time>
</trkpt>
<trkpt lat="-27.2125208" lon="152.9498896">
<ele>17.157</ele>
<time>2016-10-04T22:50:36.035Z</time>
</trkpt>
<trkpt lat="-27.2123013" lon="152.9499214">
<ele>15.608</ele>
<time>2016-10-04T22:50:38.043Z</time>
</trkpt>
<trkpt lat="-27.2120655" lon="152.9499716">
<ele>14.323</ele>
<time>2016-10-04T22:50:40.843Z</time>
</trkpt>
<trkpt lat="-27.2118994" lon="152.9499799">
<ele>13.650</ele>
<time>2016-10-04T22:50:43.658Z</time>
</trkpt>
<trkpt lat="-27.2117841" lon="152.9499980">
<ele>13.641</ele>
<time>2016-10-04T22:50:46.497Z</time>
</trkpt>
<trkpt lat="-27.2116758" lon="152.9500277">
<ele>14.120</ele>
<time>2016-10-04T22:50:50.110Z</time>
</trkpt>
<trkpt lat="-27.2116417" lon="152.9502112">
<ele>14.787</ele>
<time>2016-10-04T22:50:53.325Z</time>
</trkpt>
<trkpt lat="-27.2117165" lon="152.9507083">
<ele>15.586</ele>
<time>2016-10-04T22:50:57.043Z</time>
</trkpt>
<trkpt lat="-27.2118061" lon="152.9512976">
<ele>17.619</ele>
<time>2016-10-04T22:51:00.465Z</time>
</trkpt>
<trkpt lat="-27.2118798" lon="152.9518461">
<ele>21.366</ele>
<time>2016-10-04T22:51:03.482Z</time>
</trkpt>
<trkpt lat="-27.2119387" lon="152.9522268">
<ele>25.102</ele>
<time>2016-10-04T22:51:05.485Z</time>
</trkpt>
<trkpt lat="-27.2119965" lon="152.9526025">
<ele>27.140</ele>
<time>2016-10-04T22:51:07.502Z</time>
</trkpt>
<trkpt lat="-27.2120698" lon="152.9531489">
<ele>27.634</ele>
<time>2016-10-04T22:51:10.609Z</time>
</trkpt>
<trkpt lat="-27.2121419" lon="152.9536365">
<ele>26.989</ele>
<time>2016-10-04T22:51:13.880Z</time>
</trkpt>
<trkpt lat="-27.2120396" lon="152.9539799">
<ele>25.386</ele>
<time>2016-10-04T22:51:16.592Z</time>
</trkpt>
<trkpt lat="-27.2117075" lon="152.9541474">
<ele>23.447</ele>
<time>2016-10-04T22:51:19.382Z</time>
</trkpt>
<trkpt lat="-27.2113863" lon="152.9542065">
<ele>22.060</ele>
<time>2016-10-04T22:51:21.298Z</time>
</trkpt>
<trkpt lat="-27.2109911" lon="152.9542636">
<ele>21.758</ele>
<time>2016-10-04T22:51:23.336Z</time>
</trkpt>
<trkpt lat="-27.2103806" lon="152.9543707">
<ele>23.078</ele>
<time>2016-10-04T22:51:26.407Z</time>
</trkpt>
<trkpt lat="-27.2100028" lon="152.9544398">
<ele>25.638</ele>
<time>2016-10-04T22:51:28.434Z</time>
</trkpt>
<trkpt lat="-27.2096573" lon="152.9544971">
<ele>27.847</ele>
<time>2016-10-04T22:51:30.397Z</time>
</trkpt>
<trkpt lat="-27.2091468" lon="152.9545800">
<ele>28.435</ele>
<time>2016-10-04T22:51:33.331Z</time>
</trkpt>
<trkpt lat="-27.2087863" lon="152.9546364">
<ele>27.605</ele>
<time>2016-10-04T22:51:35.389Z</time>
</trkpt>
<trkpt lat="-27.2084360" lon="152.9546923">
<ele>26.372</ele>
<time>2016-10-04T22:51:37.387Z</time>
</trkpt>
<trkpt lat="-27.2079119" lon="152.9547825">
<ele>25.260</ele>
<time>2016-10-04T22:51:40.375Z</time>
</trkpt>
<trkpt lat="-27.2074078" lon="152.9549065">
<ele>23.976</ele>
<time>2016-10-04T22:51:43.332Z</time>
</trkpt>
<trkpt lat="-27.2070907" lon="152.9549621">
<ele>22.596</ele>
<time>2016-10-04T22:51:45.328Z</time>
</trkpt>
<trkpt lat="-27.2066529" lon="152.9550255">
<ele>21.337</ele>
<time>2016-10-04T22:51:48.322Z</time>
</trkpt>
<trkpt lat="-27.2062515" lon="152.9550705">
<ele>19.971</ele>
<time>2016-10-04T22:51:51.508Z</time>
</trkpt>
<trkpt lat="-27.2059188" lon="152.9551175">
<ele>18.282</ele>
<time>2016-10-04T22:51:54.809Z</time>
</trkpt>
<trkpt lat="-27.2056841" lon="152.9551790">
<ele>16.611</ele>
<time>2016-10-04T22:51:57.909Z</time>
</trkpt>
<trkpt lat="-27.2055729" lon="152.9551108">
<ele>15.490</ele>
<time>2016-10-04T22:51:59.460Z</time>
</trkpt>
<trkpt lat="-27.2055212" lon="152.9547805">
<ele>15.097</ele>
<time>2016-10-04T22:52:02.501Z</time>
</trkpt>
<trkpt lat="-27.2054808" lon="152.9544958">
<ele>15.440</ele>
<time>2016-10-04T22:52:04.421Z</time>
</trkpt>
<trkpt lat="-27.2053982" lon="152.9539828">
<ele>16.559</ele>
<time>2016-10-04T22:52:07.566Z</time>
</trkpt>
<trkpt lat="-27.2053343" lon="152.9534707">
<ele>18.345</ele>
<time>2016-10-04T22:52:10.561Z</time>
</trkpt>
<trkpt lat="-27.2052817" lon="152.9529780">
<ele>20.358</ele>
<time>2016-10-04T22:52:13.512Z</time>
</trkpt>
<trkpt lat="-27.2051936" lon="152.9524848">
<ele>22.228</ele>
<time>2016-10-04T22:52:16.634Z</time>
</trkpt>
<trkpt lat="-27.2051609" lon="152.9521860">
<ele>24.048</ele>
<time>2016-10-04T22:52:18.604Z</time>
</trkpt>
<trkpt lat="-27.2051155" lon="152.9518999">
<ele>25.894</ele>
<time>2016-10-04T22:52:20.545Z</time>
</trkpt>
<trkpt lat="-27.2050450" lon="152.9514673">
<ele>27.464</ele>
<time>2016-10-04T22:52:23.632Z</time>
</trkpt>
<trkpt lat="-27.2048389" lon="152.9511365">
<ele>28.740</ele>
<time>2016-10-04T22:52:26.588Z</time>
</trkpt>
<trkpt lat="-27.2044914" lon="152.9510437">
<ele>30.006</ele>
<time>2016-10-04T22:52:29.320Z</time>
</trkpt>
<trkpt lat="-27.2041918" lon="152.9510026">
<ele>31.653</ele>
<time>2016-10-04T22:52:31.450Z</time>
</trkpt>
<trkpt lat="-27.2038062" lon="152.9508422">
<ele>33.690</ele>
<time>2016-10-04T22:52:34.431Z</time>
</trkpt>
<trkpt lat="-27.2035719" lon="152.9507425">
<ele>35.609</ele>
<time>2016-10-04T22:52:36.370Z</time>
</trkpt>
<trkpt lat="-27.2032046" lon="152.9506476">
<ele>36.823</ele>
<time>2016-10-04T22:52:39.370Z</time>
</trkpt>
<trkpt lat="-27.2029573" lon="152.9507025">
<ele>37.155</ele>
<time>2016-10-04T22:52:41.301Z</time>
</trkpt>
<trkpt lat="-27.2025568" lon="152.9508809">
<ele>36.949</ele>
<time>2016-10-04T22:52:44.344Z</time>
</trkpt>
<trkpt lat="-27.2022480" lon="152.9509413">
<ele>36.364</ele>
<time>2016-10-04T22:52:46.358Z</time>
</trkpt>
<trkpt lat="-27.2017718" lon="152.9510230">
<ele>35.327</ele>
<time>2016-10-04T22:52:49.453Z</time>
</trkpt>
<trkpt lat="-27.2014748" lon="152.9510822">
<ele>33.913</ele>
<time>2016-10-04T22:52:51.532Z</time>
</trkpt>
<trkpt lat="-27.2010752" lon="152.9511663">
<ele>32.213</ele>
<time>2016-10-04T22:52:54.494Z</time>
</trkpt>
<trkpt lat="-27.2007006" lon="152.9512327">
<ele>30.288</ele>
<time>2016-10-04T22:52:57.372Z</time>
</trkpt>
<trkpt lat="-27.2003121" lon="152.9513068">
<ele>28.495</ele>
<time>2016-10-04T22:53:00.337Z</time>
</trkpt>
<trkpt lat="-27.1999069" lon="152.9513672">
<ele>27.480</ele>
<time>2016-10-04T22:53:03.388Z</time>
</trkpt>
<trkpt lat="-27.1996461" lon="152.9514207">
<ele>27.670</ele>
<time>2016-10-04T22:53:05.441Z</time>
</trkpt>
<trkpt lat="-27.1994012" lon="152.9514654">
<ele>28.650</ele>
<time>2016-10-04T22:53:07.467Z</time>
</trkpt>
<trkpt lat="-27.1991702" lon="152.9515125">
<ele>29.678</ele>
<time>2016-10-04T22:53:09.484Z</time>
</trkpt>
<trkpt lat="-27.1988347" lon="152.9514354">
<ele>30.315</ele>
<time>2016-10-04T22:53:12.441Z</time>
</trkpt>
<trkpt lat="-27.1986572" lon="152.9512423">
<ele>30.854</ele>
<time>2016-10-04T22:53:14.445Z</time>
</trkpt>
<trkpt lat="-27.1984205" lon="152.9508695">
<ele>31.858</ele>
<time>2016-10-04T22:53:17.736Z</time>
</trkpt>
<trkpt lat="-27.1982882" lon="152.9506486">
<ele>33.745</ele>
<time>2016-10-04T22:53:20.076Z</time>
</trkpt>
<trkpt lat="-27.1981447" lon="152.9503823">
<ele>36.398</ele>
<time>2016-10-04T22:53:23.528Z</time>
</trkpt>
<trkpt lat="-27.1980505" lon="152.9502932">
<ele>39.068</ele>
<time>2016-10-04T22:53:25.264Z</time>
</trkpt>
<trkpt lat="-27.1978494" lon="152.9503671">
<ele>41.051</ele>
<time>2016-10-04T22:53:27.800Z</time>
</trkpt>
<trkpt lat="-27.1977064" lon="152.9505154">
<ele>42.450</ele>
<time>2016-10-04T22:53:29.645Z</time>
</trkpt>
<trkpt lat="-27.1975587" lon="152.9506967">
<ele>43.924</ele>
<time>2016-10-04T22:53:31.465Z</time>
</trkpt>
<trkpt lat="-27.1972950" lon="152.9510209">
<ele>45.981</ele>
<time>2016-10-04T22:53:34.593Z</time>
</trkpt>
<trkpt lat="-27.1970980" lon="152.9511870">
<ele>48.886</ele>
<time>2016-10-04T22:53:36.803Z</time>
</trkpt>
<trkpt lat="-27.1968523" lon="152.9513815">
<ele>52.324</ele>
<time>2016-10-04T22:53:40.350Z</time>
</trkpt>
<trkpt lat="-27.1967542" lon="152.9514525">
<ele>55.148</ele>
<time>2016-10-04T22:53:42.650Z</time>
</trkpt>
<trkpt lat="-27.1966543" lon="152.9515347">
<ele>56.690</ele>
<time>2016-10-04T22:53:45.459Z</time>
</trkpt>
<trkpt lat="-27.1965224" lon="152.9516101">
<ele>57.322</ele>
<time>2016-10-04T22:53:49.323Z</time>
</trkpt>
<trkpt lat="-27.1964315" lon="152.9516371">
<ele>57.489</ele>
<time>2016-10-04T22:53:51.314Z</time>
</trkpt>
<trkpt lat="-27.1963382" lon="152.9515488">
<ele>57.466</ele>
<time>2016-10-04T22:53:52.932Z</time>
</trkpt>
<trkpt lat="-27.1962211" lon="152.9513669">
<ele>57.614</ele>
<time>2016-10-04T22:53:54.643Z</time>
</trkpt>
<trkpt lat="-27.1959730" lon="152.9510097">
<ele>58.313</ele>
<time>2016-10-04T22:53:57.679Z</time>
</trkpt>
<trkpt lat="-27.1957008" lon="152.9505650">
<ele>59.802</ele>
<time>2016-10-04T22:54:00.890Z</time>
</trkpt>
<trkpt lat="-27.1954167" lon="152.9501273">
<ele>61.839</ele>
<time>2016-10-04T22:54:04.016Z</time>
</trkpt>
<trkpt lat="-27.1951604" lon="152.9497169">
<ele>63.584</ele>
<time>2016-10-04T22:54:06.955Z</time>
</trkpt>
<trkpt lat="-27.1950009" lon="152.9494366">
<ele>64.407</ele>
<time>2016-10-04T22:54:08.931Z</time>
</trkpt>
<trkpt lat="-27.1948693" lon="152.9491401">
<ele>64.469</ele>
<time>2016-10-04T22:54:10.880Z</time>
</trkpt>
<trkpt lat="-27.1947525" lon="152.9488235">
<ele>64.202</ele>
<time>2016-10-04T22:54:12.844Z</time>
</trkpt>
<trkpt lat="-27.1946318" lon="152.9484955">
<ele>63.843</ele>
<time>2016-10-04T22:54:14.860Z</time>
</trkpt>
<trkpt lat="-27.1944388" lon="152.9480076">
<ele>63.344</ele>
<time>2016-10-04T22:54:17.899Z</time>
</trkpt>
<trkpt lat="-27.1942857" lon="152.9475479">
<ele>62.621</ele>
<time>2016-10-04T22:54:20.692Z</time>
</trkpt>
<trkpt lat="-27.1941881" lon="152.9470247">
<ele>61.782</ele>
<time>2016-10-04T22:54:23.756Z</time>
</trkpt>
<trkpt lat="-27.1941117" lon="152.9465193">
<ele>61.024</ele>
<time>2016-10-04T22:54:26.835Z</time>
</trkpt>
<trkpt lat="-27.1940745" lon="152.9462223">
<ele>60.335</ele>
<time>2016-10-04T22:54:28.935Z</time>
</trkpt>
<trkpt lat="-27.1940218" lon="152.9458331">
<ele>59.484</ele>
<time>2016-10-04T22:54:31.886Z</time>
</trkpt>
<trkpt lat="-27.1939971" lon="152.9455896">
<ele>58.547</ele>
<time>2016-10-04T22:54:33.726Z</time>
</trkpt>
<trkpt lat="-27.1939240" lon="152.9453304">
<ele>58.074</ele>
<time>2016-10-04T22:54:35.535Z</time>
</trkpt>
<trkpt lat="-27.1936258" lon="152.9449631">
<ele>58.362</ele>
<time>2016-10-04T22:54:38.526Z</time>
</trkpt>
<trkpt lat="-27.1932202" lon="152.9446498">
<ele>59.041</ele>
<time>2016-10-04T22:54:41.487Z</time>
</trkpt>
<trkpt lat="-27.1929268" lon="152.9444169">
<ele>59.597</ele>
<time>2016-10-04T22:54:43.518Z</time>
</trkpt>
<trkpt lat="-27.1926406" lon="152.9441845">
<ele>59.740</ele>
<time>2016-10-04T22:54:45.565Z</time>
</trkpt>
<trkpt lat="-27.1922370" lon="152.9438631">
<ele>59.478</ele>
<time>2016-10-04T22:54:48.600Z</time>
</trkpt>
<trkpt lat="-27.1920008" lon="152.9436771">
<ele>58.987</ele>
<time>2016-10-04T22:54:50.569Z</time>
</trkpt>
<trkpt lat="-27.1916696" lon="152.9433990">
<ele>58.441</ele>
<time>2016-10-04T22:54:53.522Z</time>
</trkpt>
<trkpt lat="-27.1914598" lon="152.9432208">
<ele>58.105</ele>
<time>2016-10-04T22:54:55.466Z</time>
</trkpt>
<trkpt lat="-27.1911277" lon="152.9429333">
<ele>58.273</ele>
<time>2016-10-04T22:54:58.537Z</time>
</trkpt>
<trkpt lat="-27.1908718" lon="152.9425658">
<ele>59.001</ele>
<time>2016-10-04T22:55:01.525Z</time>
</trkpt>
<trkpt lat="-27.1907207" lon="152.9422936">
<ele>60.044</ele>
<time>2016-10-04T22:55:03.572Z</time>
</trkpt>
<trkpt lat="-27.1905696" lon="152.9420382">
<ele>60.926</ele>
<time>2016-10-04T22:55:05.524Z</time>
</trkpt>
<trkpt lat="-27.1903327" lon="152.9416431">
<ele>61.149</ele>
<time>2016-10-04T22:55:08.519Z</time>
</trkpt>
<trkpt lat="-27.1901378" lon="152.9414201">
<ele>60.644</ele>
<time>2016-10-04T22:55:10.368Z</time>
</trkpt>
<trkpt lat="-27.1897250" lon="152.9411491">
<ele>59.917</ele>
<time>2016-10-04T22:55:13.393Z</time>
</trkpt>
<trkpt lat="-27.1894153" lon="152.9409852">
<ele>59.400</ele>
<time>2016-10-04T22:55:15.452Z</time>
</trkpt>
<trkpt lat="-27.1891158" lon="152.9408353">
<ele>59.024</ele>
<time>2016-10-04T22:55:17.414Z</time>
</trkpt>
<trkpt lat="-27.1886603" lon="152.9406005">
<ele>58.679</ele>
<time>2016-10-04T22:55:20.420Z</time>
</trkpt>
<trkpt lat="-27.1883816" lon="152.9404148">
<ele>58.339</ele>
<time>2016-10-04T22:55:22.357Z</time>
</trkpt>
<trkpt lat="-27.1880396" lon="152.9400209">
<ele>57.979</ele>
<time>2016-10-04T22:55:25.246Z</time>
</trkpt>
<trkpt lat="-27.1878122" lon="152.9397238">
<ele>57.021</ele>
<time>2016-10-04T22:55:27.249Z</time>
</trkpt>
<trkpt lat="-27.1875838" lon="152.9394230">
<ele>54.802</ele>
<time>2016-10-04T22:55:29.251Z</time>
</trkpt>
<trkpt lat="-27.1873706" lon="152.9391103">
<ele>51.572</ele>
<time>2016-10-04T22:55:31.305Z</time>
</trkpt>
<trkpt lat="-27.1870940" lon="152.9386611">
<ele>48.023</ele>
<time>2016-10-04T22:55:34.305Z</time>
</trkpt>
<trkpt lat="-27.1868736" lon="152.9382147">
<ele>44.315</ele>
<time>2016-10-04T22:55:37.353Z</time>
</trkpt>
<trkpt lat="-27.1867909" lon="152.9379277">
<ele>40.528</ele>
<time>2016-10-04T22:55:39.302Z</time>
</trkpt>
<trkpt lat="-27.1867042" lon="152.9374953">
<ele>37.165</ele>
<time>2016-10-04T22:55:42.216Z</time>
</trkpt>
<trkpt lat="-27.1866249" lon="152.9370280">
<ele>34.857</ele>
<time>2016-10-04T22:55:45.353Z</time>
</trkpt>
<trkpt lat="-27.1865830" lon="152.9367347">
<ele>33.465</ele>
<time>2016-10-04T22:55:47.320Z</time>
</trkpt>
<trkpt lat="-27.1865469" lon="152.9364504">
<ele>32.394</ele>
<time>2016-10-04T22:55:49.248Z</time>
</trkpt>
<trkpt lat="-27.1864887" lon="152.9360375">
<ele>31.407</ele>
<time>2016-10-04T22:55:52.116Z</time>
</trkpt>
<trkpt lat="-27.1864351" lon="152.9357599">
<ele>30.359</ele>
<time>2016-10-04T22:55:54.157Z</time>
</trkpt>
<trkpt lat="-27.1863634" lon="152.9353788">
<ele>29.049</ele>
<time>2016-10-04T22:55:57.076Z</time>
</trkpt>
<trkpt lat="-27.1863363" lon="152.9351527">
<ele>27.463</ele>
<time>2016-10-04T22:55:58.965Z</time>
</trkpt>
<trkpt lat="-27.1862756" lon="152.9348301">
<ele>25.782</ele>
<time>2016-10-04T22:56:02.085Z</time>
</trkpt>
<trkpt lat="-27.1862244" lon="152.9345840">
<ele>24.097</ele>
<time>2016-10-04T22:56:05.156Z</time>
</trkpt>
<trkpt lat="-27.1862134" lon="152.9344689">
<ele>22.431</ele>
<time>2016-10-04T22:56:07.203Z</time>
</trkpt>
<trkpt lat="-27.1861867" lon="152.9343466">
<ele>20.972</ele>
<time>2016-10-04T22:56:10.050Z</time>
</trkpt>
<trkpt lat="-27.1861677" lon="152.9342462">
<ele>19.984</ele>
<time>2016-10-04T22:56:12.534Z</time>
</trkpt>
<trkpt lat="-27.1861808" lon="152.9340720">
<ele>19.469</ele>
<time>2016-10-04T22:56:15.378Z</time>
</trkpt>
<trkpt lat="-27.1862843" lon="152.9337082">
<ele>19.473</ele>
<time>2016-10-04T22:56:18.781Z</time>
</trkpt>
<trkpt lat="-27.1863552" lon="152.9334212">
<ele>20.434</ele>
<time>2016-10-04T22:56:20.870Z</time>
</trkpt>
<trkpt lat="-27.1864441" lon="152.9331529">
<ele>22.283</ele>
<time>2016-10-04T22:56:22.897Z</time>
</trkpt>
<trkpt lat="-27.1865654" lon="152.9327838">
<ele>24.025</ele>
<time>2016-10-04T22:56:25.783Z</time>
</trkpt>
<trkpt lat="-27.1866314" lon="152.9325379">
<ele>24.987</ele>
<time>2016-10-04T22:56:27.810Z</time>
</trkpt>
<trkpt lat="-27.1867543" lon="152.9322535">
<ele>25.306</ele>
<time>2016-10-04T22:56:30.606Z</time>
</trkpt>
<trkpt lat="-27.1868412" lon="152.9321155">
<ele>25.252</ele>
<time>2016-10-04T22:56:32.407Z</time>
</trkpt>
<trkpt lat="-27.1868120" lon="152.9318750">
<ele>25.085</ele>
<time>2016-10-04T22:56:35.173Z</time>
</trkpt>
<trkpt lat="-27.1866976" lon="152.9315422">
<ele>25.015</ele>
<time>2016-10-04T22:56:38.489Z</time>
</trkpt>
<trkpt lat="-27.1866628" lon="152.9312791">
<ele>25.573</ele>
<time>2016-10-04T22:56:40.548Z</time>
</trkpt>
<trkpt lat="-27.1866835" lon="152.9309888">
<ele>26.934</ele>
<time>2016-10-04T22:56:42.617Z</time>
</trkpt>
<trkpt lat="-27.1867150" lon="152.9306919">
<ele>28.500</ele>
<time>2016-10-04T22:56:44.627Z</time>
</trkpt>
<trkpt lat="-27.1866775" lon="152.9302482">
<ele>29.744</ele>
<time>2016-10-04T22:56:47.604Z</time>
</trkpt>
<trkpt lat="-27.1865307" lon="152.9300139">
<ele>30.634</ele>
<time>2016-10-04T22:56:49.515Z</time>
</trkpt>
<trkpt lat="-27.1861450" lon="152.9298162">
<ele>31.257</ele>
<time>2016-10-04T22:56:52.567Z</time>
</trkpt>
<trkpt lat="-27.1858773" lon="152.9296893">
<ele>31.893</ele>
<time>2016-10-04T22:56:54.583Z</time>
</trkpt>
<trkpt lat="-27.1856430" lon="152.9292816">
<ele>32.625</ele>
<time>2016-10-04T22:56:57.577Z</time>
</trkpt>
<trkpt lat="-27.1856391" lon="152.9289288">
<ele>33.417</ele>
<time>2016-10-04T22:56:59.645Z</time>
</trkpt>
<trkpt lat="-27.1857539" lon="152.9283694">
<ele>34.953</ele>
<time>2016-10-04T22:57:02.779Z</time>
</trkpt>
<trkpt lat="-27.1859442" lon="152.9278576">
<ele>37.735</ele>
<time>2016-10-04T22:57:05.741Z</time>
</trkpt>
<trkpt lat="-27.1861199" lon="152.9273395">
<ele>40.770</ele>
<time>2016-10-04T22:57:08.801Z</time>
</trkpt>
<trkpt lat="-27.1863801" lon="152.9269206">
<ele>42.931</ele>
<time>2016-10-04T22:57:11.771Z</time>
</trkpt>
<trkpt lat="-27.1865523" lon="152.9266657">
<ele>44.360</ele>
<time>2016-10-04T22:57:13.754Z</time>
</trkpt>
<trkpt lat="-27.1866152" lon="152.9262262">
<ele>45.689</ele>
<time>2016-10-04T22:57:16.707Z</time>
</trkpt>
<trkpt lat="-27.1865540" lon="152.9259931">
<ele>47.420</ele>
<time>2016-10-04T22:57:18.727Z</time>
</trkpt>
<trkpt lat="-27.1864481" lon="152.9257887">
<ele>49.392</ele>
<time>2016-10-04T22:57:21.420Z</time>
</trkpt>
<trkpt lat="-27.1864007" lon="152.9256815">
<ele>50.714</ele>
<time>2016-10-04T22:57:23.690Z</time>
</trkpt>
<trkpt lat="-27.1863359" lon="152.9255935">
<ele>50.941</ele>
<time>2016-10-04T22:57:27.000Z</time>
</trkpt>
<trkpt lat="-27.1863359" lon="152.9255935">
<ele>50.716</ele>
<time>2016-10-04T22:57:31.000Z</time>
</trkpt>
<trkpt lat="-27.1863359" lon="152.9255935">
<ele>50.650</ele>
<time>2016-10-04T22:57:34.475Z</time>
</trkpt>
<trkpt lat="-27.1860971" lon="152.9256633">
<ele>50.755</ele>
<time>2016-10-04T22:57:38.085Z</time>
</trkpt>
<trkpt lat="-27.1858165" lon="152.9258906">
<ele>51.288</ele>
<time>2016-10-04T22:57:40.862Z</time>
</trkpt>
<trkpt lat="-27.1854651" lon="152.9262339">
<ele>53.030</ele>
<time>2016-10-04T22:57:44.100Z</time>
</trkpt>
<trkpt lat="-27.1849685" lon="152.9269421">
<ele>56.063</ele>
<time>2016-10-04T22:57:48.359Z</time>
</trkpt>
<trkpt lat="-27.1847031" lon="152.9274203">
<ele>59.138</ele>
<time>2016-10-04T22:57:50.876Z</time>
</trkpt>
<trkpt lat="-27.1843493" lon="152.9280441">
<ele>60.252</ele>
<time>2016-10-04T22:57:55.006Z</time>
</trkpt>
<trkpt lat="-27.1841815" lon="152.9285786">
<ele>57.982</ele>
<time>2016-10-04T22:58:00.343Z</time>
</trkpt>
<trkpt lat="-27.1841419" lon="152.9289958">
<ele>52.815</ele>
<time>2016-10-04T22:58:03.418Z</time>
</trkpt>
<trkpt lat="-27.1840587" lon="152.9292476">
<ele>46.357</ele>
<time>2016-10-04T22:58:05.027Z</time>
</trkpt>
<trkpt lat="-27.1837782" lon="152.9293133">
<ele>40.511</ele>
<time>2016-10-04T22:58:06.807Z</time>
</trkpt>
<trkpt lat="-27.1833243" lon="152.9292194">
<ele>37.012</ele>
<time>2016-10-04T22:58:09.596Z</time>
</trkpt>
<trkpt lat="-27.1830197" lon="152.9290926">
<ele>36.024</ele>
<time>2016-10-04T22:58:11.506Z</time>
</trkpt>
<trkpt lat="-27.1827364" lon="152.9289411">
<ele>36.208</ele>
<time>2016-10-04T22:58:13.274Z</time>
</trkpt>
<trkpt lat="-27.1822650" lon="152.9286931">
<ele>36.347</ele>
<time>2016-10-04T22:58:16.161Z</time>
</trkpt>
<trkpt lat="-27.1817554" lon="152.9284307">
<ele>35.848</ele>
<time>2016-10-04T22:58:19.255Z</time>
</trkpt>
<trkpt lat="-27.1812686" lon="152.9281942">
<ele>34.721</ele>
<time>2016-10-04T22:58:22.252Z</time>
</trkpt>
<trkpt lat="-27.1809243" lon="152.9280051">
<ele>33.442</ele>
<time>2016-10-04T22:58:24.568Z</time>
</trkpt>
<trkpt lat="-27.1804851" lon="152.9277072">
<ele>32.548</ele>
<time>2016-10-04T22:58:27.993Z</time>
</trkpt>
<trkpt lat="-27.1802142" lon="152.9274968">
<ele>32.170</ele>
<time>2016-10-04T22:58:30.323Z</time>
</trkpt>
<trkpt lat="-27.1800009" lon="152.9272826">
<ele>32.181</ele>
<time>2016-10-04T22:58:32.386Z</time>
</trkpt>
<trkpt lat="-27.1796745" lon="152.9269672">
<ele>32.424</ele>
<time>2016-10-04T22:58:35.574Z</time>
</trkpt>
<trkpt lat="-27.1793755" lon="152.9266381">
<ele>32.511</ele>
<time>2016-10-04T22:58:39.037Z</time>
</trkpt>
<trkpt lat="-27.1791741" lon="152.9264243">
<ele>31.928</ele>
<time>2016-10-04T22:58:41.775Z</time>
</trkpt>
<trkpt lat="-27.1789974" lon="152.9262164">
<ele>30.730</ele>
<time>2016-10-04T22:58:44.379Z</time>
</trkpt>
<trkpt lat="-27.1787884" lon="152.9259303">
<ele>29.576</ele>
<time>2016-10-04T22:58:47.114Z</time>
</trkpt>
<trkpt lat="-27.1786673" lon="152.9257602">
<ele>28.653</ele>
<time>2016-10-04T22:58:48.508Z</time>
</trkpt>
<trkpt lat="-27.1785219" lon="152.9254871">
<ele>27.738</ele>
<time>2016-10-04T22:58:50.293Z</time>
</trkpt>
<trkpt lat="-27.1783186" lon="152.9253490">
<ele>27.173</ele>
<time>2016-10-04T22:58:51.716Z</time>
</trkpt>
<trkpt lat="-27.1779664" lon="152.9250008">
<ele>27.355</ele>
<time>2016-10-04T22:58:54.510Z</time>
</trkpt>
<trkpt lat="-27.1777232" lon="152.9247274">
<ele>28.389</ele>
<time>2016-10-04T22:58:56.551Z</time>
</trkpt>
<trkpt lat="-27.1773593" lon="152.9243322">
<ele>30.010</ele>
<time>2016-10-04T22:58:59.574Z</time>
</trkpt>
<trkpt lat="-27.1770072" lon="152.9239171">
<ele>31.370</ele>
<time>2016-10-04T22:59:02.717Z</time>
</trkpt>
<trkpt lat="-27.1766584" lon="152.9235220">
<ele>31.813</ele>
<time>2016-10-04T22:59:05.656Z</time>
</trkpt>
<trkpt lat="-27.1763225" lon="152.9231535">
<ele>31.508</ele>
<time>2016-10-04T22:59:08.229Z</time>
</trkpt>
<trkpt lat="-27.1759679" lon="152.9227388">
<ele>30.796</ele>
<time>2016-10-04T22:59:10.807Z</time>
</trkpt>
<trkpt lat="-27.1757078" lon="152.9224357">
<ele>29.811</ele>
<time>2016-10-04T22:59:12.604Z</time>
</trkpt>
<trkpt lat="-27.1752780" lon="152.9219260">
<ele>28.773</ele>
<time>2016-10-04T22:59:15.620Z</time>
</trkpt>
<trkpt lat="-27.1748254" lon="152.9214105">
<ele>28.142</ele>
<time>2016-10-04T22:59:18.929Z</time>
</trkpt>
<trkpt lat="-27.1745562" lon="152.9210909">
<ele>28.038</ele>
<time>2016-10-04T22:59:21.090Z</time>
</trkpt>
<trkpt lat="-27.1741648" lon="152.9206298">
<ele>28.181</ele>
<time>2016-10-04T22:59:24.394Z</time>
</trkpt>
<trkpt lat="-27.1739227" lon="152.9203551">
<ele>28.482</ele>
<time>2016-10-04T22:59:26.421Z</time>
</trkpt>
<trkpt lat="-27.1735685" lon="152.9199516">
<ele>29.039</ele>
<time>2016-10-04T22:59:29.368Z</time>
</trkpt>
<trkpt lat="-27.1732196" lon="152.9195442">
<ele>30.009</ele>
<time>2016-10-04T22:59:32.203Z</time>
</trkpt>
<trkpt lat="-27.1729836" lon="152.9192676">
<ele>31.902</ele>
<time>2016-10-04T22:59:34.040Z</time>
</trkpt>
<trkpt lat="-27.1725933" lon="152.9188338">
<ele>34.864</ele>
<time>2016-10-04T22:59:36.951Z</time>
</trkpt>
<trkpt lat="-27.1722072" lon="152.9183931">
<ele>38.399</ele>
<time>2016-10-04T22:59:39.801Z</time>
</trkpt>
<trkpt lat="-27.1717600" lon="152.9179975">
<ele>41.840</ele>
<time>2016-10-04T22:59:42.713Z</time>
</trkpt>
<trkpt lat="-27.1714142" lon="152.9177843">
<ele>44.671</ele>
<time>2016-10-04T22:59:44.739Z</time>
</trkpt>
<trkpt lat="-27.1710458" lon="152.9176360">
<ele>46.734</ele>
<time>2016-10-04T22:59:46.773Z</time>
</trkpt>
<trkpt lat="-27.1704620" lon="152.9175353">
<ele>48.149</ele>
<time>2016-10-04T22:59:49.913Z</time>
</trkpt>
<trkpt lat="-27.1698971" lon="152.9175621">
<ele>49.015</ele>
<time>2016-10-04T22:59:52.998Z</time>
</trkpt>
<trkpt lat="-27.1695440" lon="152.9176537">
<ele>49.489</ele>
<time>2016-10-04T22:59:54.966Z</time>
</trkpt>
<trkpt lat="-27.1690267" lon="152.9178633">
<ele>49.504</ele>
<time>2016-10-04T22:59:58.043Z</time>
</trkpt>
<trkpt lat="-27.1686792" lon="152.9180283">
<ele>48.787</ele>
<time>2016-10-04T23:00:00.188Z</time>
</trkpt>
<trkpt lat="-27.1683488" lon="152.9181649">
<ele>47.394</ele>
<time>2016-10-04T23:00:02.103Z</time>
</trkpt>
<trkpt lat="-27.1678801" lon="152.9183698">
<ele>45.703</ele>
<time>2016-10-04T23:00:04.761Z</time>
</trkpt>
<trkpt lat="-27.1673267" lon="152.9185889">
<ele>44.128</ele>
<time>2016-10-04T23:00:07.814Z</time>
</trkpt>
<trkpt lat="-27.1669793" lon="152.9187429">
<ele>42.997</ele>
<time>2016-10-04T23:00:09.665Z</time>
</trkpt>
<trkpt lat="-27.1664549" lon="152.9189830">
<ele>42.453</ele>
<time>2016-10-04T23:00:12.386Z</time>
</trkpt>
<trkpt lat="-27.1658764" lon="152.9192731">
<ele>42.361</ele>
<time>2016-10-04T23:00:15.418Z</time>
</trkpt>
<trkpt lat="-27.1654756" lon="152.9194560">
<ele>42.469</ele>
<time>2016-10-04T23:00:17.585Z</time>
</trkpt>
<trkpt lat="-27.1649188" lon="152.9197181">
<ele>42.421</ele>
<time>2016-10-04T23:00:20.727Z</time>
</trkpt>
<trkpt lat="-27.1645675" lon="152.9198922">
<ele>41.890</ele>
<time>2016-10-04T23:00:22.691Z</time>
</trkpt>
<trkpt lat="-27.1640513" lon="152.9201400">
<ele>40.963</ele>
<time>2016-10-04T23:00:25.478Z</time>
</trkpt>
<trkpt lat="-27.1636882" lon="152.9203532">
<ele>40.262</ele>
<time>2016-10-04T23:00:27.476Z</time>
</trkpt>
<trkpt lat="-27.1631474" lon="152.9206681">
<ele>40.309</ele>
<time>2016-10-04T23:00:30.412Z</time>
</trkpt>
<trkpt lat="-27.1626157" lon="152.9210225">
<ele>40.958</ele>
<time>2016-10-04T23:00:33.402Z</time>
</trkpt>
<trkpt lat="-27.1620781" lon="152.9213926">
<ele>41.468</ele>
<time>2016-10-04T23:00:36.508Z</time>
</trkpt>
<trkpt lat="-27.1615657" lon="152.9217391">
<ele>41.384</ele>
<time>2016-10-04T23:00:39.479Z</time>
</trkpt>
<trkpt lat="-27.1610516" lon="152.9220829">
<ele>41.127</ele>
<time>2016-10-04T23:00:42.512Z</time>
</trkpt>
<trkpt lat="-27.1607026" lon="152.9222999">
<ele>41.383</ele>
<time>2016-10-04T23:00:44.582Z</time>
</trkpt>
<trkpt lat="-27.1603584" lon="152.9224951">
<ele>42.311</ele>
<time>2016-10-04T23:00:46.613Z</time>
</trkpt>
<trkpt lat="-27.1598378" lon="152.9227614">
<ele>43.439</ele>
<time>2016-10-04T23:00:49.655Z</time>
</trkpt>
<trkpt lat="-27.1593156" lon="152.9230096">
<ele>44.234</ele>
<time>2016-10-04T23:00:52.668Z</time>
</trkpt>
<trkpt lat="-27.1588005" lon="152.9232068">
<ele>44.571</ele>
<time>2016-10-04T23:00:55.508Z</time>
</trkpt>
<trkpt lat="-27.1582574" lon="152.9234043">
<ele>44.451</ele>
<time>2016-10-04T23:00:58.418Z</time>
</trkpt>
<trkpt lat="-27.1577004" lon="152.9235878">
<ele>43.661</ele>
<time>2016-10-04T23:01:01.334Z</time>
</trkpt>
<trkpt lat="-27.1571183" lon="152.9237809">
<ele>42.098</ele>
<time>2016-10-04T23:01:04.356Z</time>
</trkpt>
<trkpt lat="-27.1565545" lon="152.9239772">
<ele>40.164</ele>
<time>2016-10-04T23:01:07.212Z</time>
</trkpt>
<trkpt lat="-27.1561598" lon="152.9241207">
<ele>38.219</ele>
<time>2016-10-04T23:01:09.198Z</time>
</trkpt>
<trkpt lat="-27.1555593" lon="152.9243341">
<ele>36.472</ele>
<time>2016-10-04T23:01:12.216Z</time>
</trkpt>
<trkpt lat="-27.1551594" lon="152.9244705">
<ele>35.106</ele>
<time>2016-10-04T23:01:14.204Z</time>
</trkpt>
<trkpt lat="-27.1545789" lon="152.9246975">
<ele>33.840</ele>
<time>2016-10-04T23:01:17.047Z</time>
</trkpt>
<trkpt lat="-27.1541727" lon="152.9248757">
<ele>31.855</ele>
<time>2016-10-04T23:01:19.029Z</time>
</trkpt>
<trkpt lat="-27.1538084" lon="152.9251529">
<ele>28.935</ele>
<time>2016-10-04T23:01:21.044Z</time>
</trkpt>
<trkpt lat="-27.1533368" lon="152.9256464">
<ele>25.923</ele>
<time>2016-10-04T23:01:24.077Z</time>
</trkpt>
<trkpt lat="-27.1529134" lon="152.9261953">
<ele>23.703</ele>
<time>2016-10-04T23:01:27.562Z</time>
</trkpt>
<trkpt lat="-27.1526660" lon="152.9265310">
<ele>22.244</ele>
<time>2016-10-04T23:01:30.145Z</time>
</trkpt>
<trkpt lat="-27.1524470" lon="152.9268176">
<ele>21.115</ele>
<time>2016-10-04T23:01:32.793Z</time>
</trkpt>
<trkpt lat="-27.1522661" lon="152.9270739">
<ele>19.785</ele>
<time>2016-10-04T23:01:35.731Z</time>
</trkpt>
<trkpt lat="-27.1520279" lon="152.9273745">
<ele>17.968</ele>
<time>2016-10-04T23:01:40.333Z</time>
</trkpt>
<trkpt lat="-27.1518838" lon="152.9275355">
<ele>15.931</ele>
<time>2016-10-04T23:01:42.815Z</time>
</trkpt>
<trkpt lat="-27.1517757" lon="152.9276699">
<ele>14.220</ele>
<time>2016-10-04T23:01:44.422Z</time>
</trkpt>
<trkpt lat="-27.1515925" lon="152.9278152">
<ele>13.190</ele>
<time>2016-10-04T23:01:46.157Z</time>
</trkpt>
<trkpt lat="-27.1513837" lon="152.9277074">
<ele>12.893</ele>
<time>2016-10-04T23:01:47.660Z</time>
</trkpt>
<trkpt lat="-27.1512432" lon="152.9273621">
<ele>13.406</ele>
<time>2016-10-04T23:01:49.716Z</time>
</trkpt>
<trkpt lat="-27.1511776" lon="152.9270053">
<ele>15.654</ele>
<time>2016-10-04T23:01:51.691Z</time>
</trkpt>
<trkpt lat="-27.1511018" lon="152.9264424">
<ele>20.370</ele>
<time>2016-10-04T23:01:54.904Z</time>
</trkpt>
<trkpt lat="-27.1510499" lon="152.9261015">
<ele>26.315</ele>
<time>2016-10-04T23:01:56.877Z</time>
</trkpt>
<trkpt lat="-27.1510183" lon="152.9257702">
<ele>31.154</ele>
<time>2016-10-04T23:01:58.759Z</time>
</trkpt>
<trkpt lat="-27.1509439" lon="152.9252480">
<ele>33.701</ele>
<time>2016-10-04T23:02:01.676Z</time>
</trkpt>
<trkpt lat="-27.1509039" lon="152.9249048">
<ele>34.337</ele>
<time>2016-10-04T23:02:03.546Z</time>
</trkpt>
<trkpt lat="-27.1507929" lon="152.9243483">
<ele>33.882</ele>
<time>2016-10-04T23:02:06.457Z</time>
</trkpt>
<trkpt lat="-27.1506978" lon="152.9239921">
<ele>32.992</ele>
<time>2016-10-04T23:02:08.284Z</time>
</trkpt>
<trkpt lat="-27.1504354" lon="152.9234519">
<ele>32.469</ele>
<time>2016-10-04T23:02:11.291Z</time>
</trkpt>
<trkpt lat="-27.1502130" lon="152.9231216">
<ele>33.838</ele>
<time>2016-10-04T23:02:13.300Z</time>
</trkpt>
<trkpt lat="-27.1498910" lon="152.9226397">
<ele>37.449</ele>
<time>2016-10-04T23:02:16.179Z</time>
</trkpt>
<trkpt lat="-27.1496507" lon="152.9220702">
<ele>41.337</ele>
<time>2016-10-04T23:02:19.146Z</time>
</trkpt>
<trkpt lat="-27.1495123" lon="152.9214499">
<ele>43.688</ele>
<time>2016-10-04T23:02:22.215Z</time>
</trkpt>
<trkpt lat="-27.1494961" lon="152.9210237">
<ele>44.336</ele>
<time>2016-10-04T23:02:24.333Z</time>
</trkpt>
<trkpt lat="-27.1495398" lon="152.9206260">
<ele>43.771</ele>
<time>2016-10-04T23:02:26.363Z</time>
</trkpt>
<trkpt lat="-27.1496190" lon="152.9202368">
<ele>42.824</ele>
<time>2016-10-04T23:02:28.454Z</time>
</trkpt>
<trkpt lat="-27.1497612" lon="152.9196655">
<ele>41.909</ele>
<time>2016-10-04T23:02:31.694Z</time>
</trkpt>
<trkpt lat="-27.1498624" lon="152.9191280">
<ele>40.821</ele>
<time>2016-10-04T23:02:34.769Z</time>
</trkpt>
<trkpt lat="-27.1499223" lon="152.9186183">
<ele>39.576</ele>
<time>2016-10-04T23:02:37.554Z</time>
</trkpt>
<trkpt lat="-27.1499284" lon="152.9182567">
<ele>38.633</ele>
<time>2016-10-04T23:02:39.462Z</time>
</trkpt>
<trkpt lat="-27.1499337" lon="152.9178831">
<ele>38.285</ele>
<time>2016-10-04T23:02:41.428Z</time>
</trkpt>
<trkpt lat="-27.1499598" lon="152.9173016">
<ele>38.423</ele>
<time>2016-10-04T23:02:44.440Z</time>
</trkpt>
<trkpt lat="-27.1499701" lon="152.9169374">
<ele>38.757</ele>
<time>2016-10-04T23:02:46.237Z</time>
</trkpt>
<trkpt lat="-27.1499734" lon="152.9165523">
<ele>39.015</ele>
<time>2016-10-04T23:02:48.107Z</time>
</trkpt>
<trkpt lat="-27.1499894" lon="152.9161277">
<ele>39.136</ele>
<time>2016-10-04T23:02:50.245Z</time>
</trkpt>
<trkpt lat="-27.1499948" lon="152.9157201">
<ele>39.632</ele>
<time>2016-10-04T23:02:52.346Z</time>
</trkpt>
<trkpt lat="-27.1500045" lon="152.9151406">
<ele>41.311</ele>
<time>2016-10-04T23:02:55.381Z</time>
</trkpt>
<trkpt lat="-27.1500174" lon="152.9145748">
<ele>44.054</ele>
<time>2016-10-04T23:02:58.348Z</time>
</trkpt>
<trkpt lat="-27.1500311" lon="152.9139948">
<ele>46.702</ele>
<time>2016-10-04T23:03:01.372Z</time>
</trkpt>
<trkpt lat="-27.1500320" lon="152.9136160">
<ele>48.713</ele>
<time>2016-10-04T23:03:03.340Z</time>
</trkpt>
<trkpt lat="-27.1500397" lon="152.9130457">
<ele>50.433</ele>
<time>2016-10-04T23:03:06.281Z</time>
</trkpt>
<trkpt lat="-27.1500070" lon="152.9126689">
<ele>51.984</ele>
<time>2016-10-04T23:03:08.199Z</time>
</trkpt>
<trkpt lat="-27.1499467" lon="152.9122810">
<ele>53.080</ele>
<time>2016-10-04T23:03:10.165Z</time>
</trkpt>
<trkpt lat="-27.1498990" lon="152.9118951">
<ele>53.551</ele>
<time>2016-10-04T23:03:12.103Z</time>
</trkpt>
<trkpt lat="-27.1498178" lon="152.9113019">
<ele>53.211</ele>
<time>2016-10-04T23:03:15.074Z</time>
</trkpt>
<trkpt lat="-27.1497383" lon="152.9107053">
<ele>51.971</ele>
<time>2016-10-04T23:03:18.070Z</time>
</trkpt>
<trkpt lat="-27.1496626" lon="152.9101079">
<ele>50.132</ele>
<time>2016-10-04T23:03:21.201Z</time>
</trkpt>
<trkpt lat="-27.1496106" lon="152.9097267">
<ele>48.311</ele>
<time>2016-10-04T23:03:23.189Z</time>
</trkpt>
<trkpt lat="-27.1495592" lon="152.9093527">
<ele>46.818</ele>
<time>2016-10-04T23:03:25.036Z</time>
</trkpt>
<trkpt lat="-27.1495026" lon="152.9089594">
<ele>45.311</ele>
<time>2016-10-04T23:03:26.957Z</time>
</trkpt>
<trkpt lat="-27.1494339" lon="152.9083328">
<ele>43.532</ele>
<time>2016-10-04T23:03:30.038Z</time>
</trkpt>
<trkpt lat="-27.1493834" lon="152.9079237">
<ele>41.892</ele>
<time>2016-10-04T23:03:32.102Z</time>
</trkpt>
<trkpt lat="-27.1492840" lon="152.9073488">
<ele>40.519</ele>
<time>2016-10-04T23:03:35.023Z</time>
</trkpt>
<trkpt lat="-27.1491932" lon="152.9067886">
<ele>39.253</ele>
<time>2016-10-04T23:03:37.772Z</time>
</trkpt>
<trkpt lat="-27.1491141" lon="152.9061881">
<ele>38.401</ele>
<time>2016-10-04T23:03:40.599Z</time>
</trkpt>
<trkpt lat="-27.1490199" lon="152.9055516">
<ele>38.253</ele>
<time>2016-10-04T23:03:43.515Z</time>
</trkpt>
<trkpt lat="-27.1489525" lon="152.9051048">
<ele>38.547</ele>
<time>2016-10-04T23:03:45.572Z</time>
</trkpt>
<trkpt lat="-27.1488676" lon="152.9044701">
<ele>38.745</ele>
<time>2016-10-04T23:03:48.550Z</time>
</trkpt>
<trkpt lat="-27.1488281" lon="152.9040535">
<ele>38.560</ele>
<time>2016-10-04T23:03:50.523Z</time>
</trkpt>
<trkpt lat="-27.1487721" lon="152.9036319">
<ele>38.313</ele>
<time>2016-10-04T23:03:52.552Z</time>
</trkpt>
<trkpt lat="-27.1486815" lon="152.9030041">
<ele>38.465</ele>
<time>2016-10-04T23:03:55.677Z</time>
</trkpt>
<trkpt lat="-27.1486268" lon="152.9026144">
<ele>39.147</ele>
<time>2016-10-04T23:03:57.654Z</time>
</trkpt>
<trkpt lat="-27.1485402" lon="152.9020260">
<ele>40.300</ele>
<time>2016-10-04T23:04:00.707Z</time>
</trkpt>
<trkpt lat="-27.1484915" lon="152.9016581">
<ele>41.582</ele>
<time>2016-10-04T23:04:02.600Z</time>
</trkpt>
<trkpt lat="-27.1484244" lon="152.9010942">
<ele>42.455</ele>
<time>2016-10-04T23:04:05.414Z</time>
</trkpt>
<trkpt lat="-27.1483378" lon="152.9004883">
<ele>42.592</ele>
<time>2016-10-04T23:04:08.260Z</time>
</trkpt>
<trkpt lat="-27.1482748" lon="152.9000760">
<ele>42.020</ele>
<time>2016-10-04T23:04:10.065Z</time>
</trkpt>
<trkpt lat="-27.1482127" lon="152.8996152">
<ele>40.921</ele>
<time>2016-10-04T23:04:12.026Z</time>
</trkpt>
<trkpt lat="-27.1481135" lon="152.8988898">
<ele>39.722</ele>
<time>2016-10-04T23:04:15.144Z</time>
</trkpt>
<trkpt lat="-27.1480360" lon="152.8984213">
<ele>39.468</ele>
<time>2016-10-04T23:04:17.242Z</time>
</trkpt>
<trkpt lat="-27.1479380" lon="152.8977756">
<ele>41.194</ele>
<time>2016-10-04T23:04:20.202Z</time>
</trkpt>
<trkpt lat="-27.1478783" lon="152.8973209">
<ele>44.156</ele>
<time>2016-10-04T23:04:22.222Z</time>
</trkpt>
<trkpt lat="-27.1478172" lon="152.8968853">
<ele>46.424</ele>
<time>2016-10-04T23:04:24.125Z</time>
</trkpt>
<trkpt lat="-27.1477226" lon="152.8961801">
<ele>47.089</ele>
<time>2016-10-04T23:04:27.093Z</time>
</trkpt>
<trkpt lat="-27.1476128" lon="152.8954544">
<ele>46.653</ele>
<time>2016-10-04T23:04:30.339Z</time>
</trkpt>
<trkpt lat="-27.1475253" lon="152.8950053">
<ele>46.927</ele>
<time>2016-10-04T23:04:32.526Z</time>
</trkpt>
<trkpt lat="-27.1474689" lon="152.8944386">
<ele>49.846</ele>
<time>2016-10-04T23:04:35.426Z</time>
</trkpt>
<trkpt lat="-27.1473880" lon="152.8938736">
<ele>55.289</ele>
<time>2016-10-04T23:04:38.493Z</time>
</trkpt>
<trkpt lat="-27.1473131" lon="152.8933560">
<ele>61.374</ele>
<time>2016-10-04T23:04:41.511Z</time>
</trkpt>
<trkpt lat="-27.1472973" lon="152.8930098">
<ele>66.133</ele>
<time>2016-10-04T23:04:43.517Z</time>
</trkpt>
<trkpt lat="-27.1474574" lon="152.8925116">
<ele>68.781</ele>
<time>2016-10-04T23:04:46.504Z</time>
</trkpt>
<trkpt lat="-27.1478642" lon="152.8921563">
<ele>70.255</ele>
<time>2016-10-04T23:04:49.748Z</time>
</trkpt>
<trkpt lat="-27.1482648" lon="152.8918706">
<ele>71.943</ele>
<time>2016-10-04T23:04:52.685Z</time>
</trkpt>
<trkpt lat="-27.1484711" lon="152.8916148">
<ele>74.360</ele>
<time>2016-10-04T23:04:54.550Z</time>
</trkpt>
<trkpt lat="-27.1487573" lon="152.8911649">
<ele>76.867</ele>
<time>2016-10-04T23:04:57.574Z</time>
</trkpt>
<trkpt lat="-27.1489472" lon="152.8908619">
<ele>77.820</ele>
<time>2016-10-04T23:04:59.634Z</time>
</trkpt>
<trkpt lat="-27.1492106" lon="152.8904492">
<ele>75.745</ele>
<time>2016-10-04T23:05:02.396Z</time>
</trkpt>
<trkpt lat="-27.1496993" lon="152.8902834">
<ele>70.229</ele>
<time>2016-10-04T23:05:05.223Z</time>
</trkpt>
<trkpt lat="-27.1502815" lon="152.8903100">
<ele>63.222</ele>
<time>2016-10-04T23:05:08.520Z</time>
</trkpt>
<trkpt lat="-27.1506227" lon="152.8903176">
<ele>58.640</ele>
<time>2016-10-04T23:05:10.599Z</time>
</trkpt>
<trkpt lat="-27.1511036" lon="152.8902651">
<ele>58.267</ele>
<time>2016-10-04T23:05:13.768Z</time>
</trkpt>
<trkpt lat="-27.1513990" lon="152.8902072">
<ele>60.863</ele>
<time>2016-10-04T23:05:15.726Z</time>
</trkpt>
<trkpt lat="-27.1518292" lon="152.8901387">
<ele>64.514</ele>
<time>2016-10-04T23:05:18.426Z</time>
</trkpt>
<trkpt lat="-27.1523023" lon="152.8900601">
<ele>66.682</ele>
<time>2016-10-04T23:05:21.147Z</time>
</trkpt>
<trkpt lat="-27.1526726" lon="152.8900747">
<ele>65.576</ele>
<time>2016-10-04T23:05:23.247Z</time>
</trkpt>
<trkpt lat="-27.1531946" lon="152.8902551">
<ele>62.460</ele>
<time>2016-10-04T23:05:27.179Z</time>
</trkpt>
<trkpt lat="-27.1535860" lon="152.8904125">
<ele>59.854</ele>
<time>2016-10-04T23:05:31.595Z</time>
</trkpt>
<trkpt lat="-27.1538243" lon="152.8904933">
<ele>59.445</ele>
<time>2016-10-04T23:05:35.037Z</time>
</trkpt>
<trkpt lat="-27.1539887" lon="152.8905590">
<ele>61.532</ele>
<time>2016-10-04T23:05:37.895Z</time>
</trkpt>
<trkpt lat="-27.1541331" lon="152.8906286">
<ele>65.026</ele>
<time>2016-10-04T23:05:39.573Z</time>
</trkpt>
<trkpt lat="-27.1542917" lon="152.8906524">
<ele>68.289</ele>
<time>2016-10-04T23:05:41.162Z</time>
</trkpt>
<trkpt lat="-27.1543952" lon="152.8905520">
<ele>70.444</ele>
<time>2016-10-04T23:05:42.119Z</time>
</trkpt>
<trkpt lat="-27.1544977" lon="152.8901380">
<ele>71.530</ele>
<time>2016-10-04T23:05:44.751Z</time>
</trkpt>
<trkpt lat="-27.1546834" lon="152.8896534">
<ele>72.268</ele>
<time>2016-10-04T23:05:47.932Z</time>
</trkpt>
<trkpt lat="-27.1548698" lon="152.8891999">
<ele>73.162</ele>
<time>2016-10-04T23:05:51.345Z</time>
</trkpt>
<trkpt lat="-27.1549812" lon="152.8889159">
<ele>74.085</ele>
<time>2016-10-04T23:05:53.503Z</time>
</trkpt>
<trkpt lat="-27.1550947" lon="152.8885458">
<ele>74.776</ele>
<time>2016-10-04T23:05:56.084Z</time>
</trkpt>
<trkpt lat="-27.1552470" lon="152.8881273">
<ele>75.173</ele>
<time>2016-10-04T23:05:58.782Z</time>
</trkpt>
<trkpt lat="-27.1553403" lon="152.8878007">
<ele>74.359</ele>
<time>2016-10-04T23:06:00.797Z</time>
</trkpt>
<trkpt lat="-27.1555450" lon="152.8873331">
<ele>71.066</ele>
<time>2016-10-04T23:06:03.943Z</time>
</trkpt>
<trkpt lat="-27.1556638" lon="152.8870416">
<ele>66.368</ele>
<time>2016-10-04T23:06:05.925Z</time>
</trkpt>
<trkpt lat="-27.1558431" lon="152.8865991">
<ele>62.960</ele>
<time>2016-10-04T23:06:09.090Z</time>
</trkpt>
<trkpt lat="-27.1559509" lon="152.8863068">
<ele>61.408</ele>
<time>2016-10-04T23:06:11.431Z</time>
</trkpt>
<trkpt lat="-27.1561018" lon="152.8859052">
<ele>60.192</ele>
<time>2016-10-04T23:06:15.320Z</time>
</trkpt>
<trkpt lat="-27.1562382" lon="152.8856082">
<ele>58.564</ele>
<time>2016-10-04T23:06:18.667Z</time>
</trkpt>
<trkpt lat="-27.1563244" lon="152.8854426">
<ele>57.118</ele>
<time>2016-10-04T23:06:20.516Z</time>
</trkpt>
<trkpt lat="-27.1564280" lon="152.8851736">
<ele>56.399</ele>
<time>2016-10-04T23:06:23.177Z</time>
</trkpt>
<trkpt lat="-27.1564873" lon="152.8848768">
<ele>56.307</ele>
<time>2016-10-04T23:06:25.503Z</time>
</trkpt>
<trkpt lat="-27.1565446" lon="152.8846594">
<ele>56.490</ele>
<time>2016-10-04T23:06:27.101Z</time>
</trkpt>
<trkpt lat="-27.1568129" lon="152.8843152">
<ele>56.657</ele>
<time>2016-10-04T23:06:30.324Z</time>
</trkpt>
<trkpt lat="-27.1570457" lon="152.8839625">
<ele>57.580</ele>
<time>2016-10-04T23:06:34.083Z</time>
</trkpt>
<trkpt lat="-27.1572165" lon="152.8838055">
<ele>59.801</ele>
<time>2016-10-04T23:06:36.488Z</time>
</trkpt>
<trkpt lat="-27.1574625" lon="152.8836330">
<ele>61.841</ele>
<time>2016-10-04T23:06:39.467Z</time>
</trkpt>
<trkpt lat="-27.1576240" lon="152.8835378">
<ele>62.290</ele>
<time>2016-10-04T23:06:41.248Z</time>
</trkpt>
<trkpt lat="-27.1579137" lon="152.8834017">
<ele>61.630</ele>
<time>2016-10-04T23:06:44.303Z</time>
</trkpt>
<trkpt lat="-27.1581853" lon="152.8832612">
<ele>60.762</ele>
<time>2016-10-04T23:06:47.195Z</time>
</trkpt>
<trkpt lat="-27.1583668" lon="152.8831622">
<ele>60.276</ele>
<time>2016-10-04T23:06:49.159Z</time>
</trkpt>
<trkpt lat="-27.1586091" lon="152.8829511">
<ele>60.316</ele>
<time>2016-10-04T23:06:52.152Z</time>
</trkpt>
<trkpt lat="-27.1588041" lon="152.8826867">
<ele>60.601</ele>
<time>2016-10-04T23:06:55.004Z</time>
</trkpt>
<trkpt lat="-27.1588244" lon="152.8823361">
<ele>60.852</ele>
<time>2016-10-04T23:06:57.756Z</time>
</trkpt>
<trkpt lat="-27.1587865" lon="152.8820852">
<ele>61.206</ele>
<time>2016-10-04T23:06:59.789Z</time>
</trkpt>
<trkpt lat="-27.1587277" lon="152.8818316">
<ele>61.818</ele>
<time>2016-10-04T23:07:01.858Z</time>
</trkpt>
<trkpt lat="-27.1586030" lon="152.8814987">
<ele>62.407</ele>
<time>2016-10-04T23:07:04.672Z</time>
</trkpt>
<trkpt lat="-27.1583751" lon="152.8812157">
<ele>62.612</ele>
<time>2016-10-04T23:07:07.718Z</time>
</trkpt>
<trkpt lat="-27.1581486" lon="152.8809346">
<ele>62.374</ele>
<time>2016-10-04T23:07:10.830Z</time>
</trkpt>
<trkpt lat="-27.1579118" lon="152.8807141">
<ele>61.807</ele>
<time>2016-10-04T23:07:13.608Z</time>
</trkpt>
<trkpt lat="-27.1576417" lon="152.8804971">
<ele>61.219</ele>
<time>2016-10-04T23:07:16.556Z</time>
</trkpt>
<trkpt lat="-27.1573512" lon="152.8803017">
<ele>60.919</ele>
<time>2016-10-04T23:07:19.619Z</time>
</trkpt>
<trkpt lat="-27.1570284" lon="152.8801679">
<ele>61.007</ele>
<time>2016-10-04T23:07:22.813Z</time>
</trkpt>
<trkpt lat="-27.1567365" lon="152.8800325">
<ele>61.407</ele>
<time>2016-10-04T23:07:25.512Z</time>
</trkpt>
<trkpt lat="-27.1565360" lon="152.8799634">
<ele>61.966</ele>
<time>2016-10-04T23:07:27.247Z</time>
</trkpt>
<trkpt lat="-27.1561624" lon="152.8798434">
<ele>62.461</ele>
<time>2016-10-04T23:07:30.611Z</time>
</trkpt>
<trkpt lat="-27.1558182" lon="152.8797470">
<ele>62.946</ele>
<time>2016-10-04T23:07:33.958Z</time>
</trkpt>
<trkpt lat="-27.1555187" lon="152.8797023">
<ele>63.584</ele>
<time>2016-10-04T23:07:36.531Z</time>
</trkpt>
<trkpt lat="-27.1553042" lon="152.8796589">
<ele>64.153</ele>
<time>2016-10-04T23:07:38.215Z</time>
</trkpt>
<trkpt lat="-27.1550618" lon="152.8795964">
<ele>64.467</ele>
<time>2016-10-04T23:07:39.981Z</time>
</trkpt>
<trkpt lat="-27.1547990" lon="152.8795175">
<ele>64.836</ele>
<time>2016-10-04T23:07:41.730Z</time>
</trkpt>
<trkpt lat="-27.1545160" lon="152.8793817">
<ele>65.796</ele>
<time>2016-10-04T23:07:43.676Z</time>
</trkpt>
<trkpt lat="-27.1542308" lon="152.8791835">
<ele>67.720</ele>
<time>2016-10-04T23:07:45.818Z</time>
</trkpt>
<trkpt lat="-27.1539887" lon="152.8790000">
<ele>70.452</ele>
<time>2016-10-04T23:07:47.668Z</time>
</trkpt>
<trkpt lat="-27.1536277" lon="152.8786601">
<ele>73.399</ele>
<time>2016-10-04T23:07:50.608Z</time>
</trkpt>
<trkpt lat="-27.1532318" lon="152.8783210">
<ele>76.176</ele>
<time>2016-10-04T23:07:53.802Z</time>
</trkpt>
<trkpt lat="-27.1529890" lon="152.8781531">
<ele>78.954</ele>
<time>2016-10-04T23:07:55.514Z</time>
</trkpt>
<trkpt lat="-27.1527097" lon="152.8779797">
<ele>81.647</ele>
<time>2016-10-04T23:07:57.384Z</time>
</trkpt>
<trkpt lat="-27.1521910" lon="152.8778011">
<ele>83.864</ele>
<time>2016-10-04T23:08:00.384Z</time>
</trkpt>
<trkpt lat="-27.1518528" lon="152.8776534">
<ele>86.299</ele>
<time>2016-10-04T23:08:02.422Z</time>
</trkpt>
<trkpt lat="-27.1515510" lon="152.8774060">
<ele>89.751</ele>
<time>2016-10-04T23:08:04.552Z</time>
</trkpt>
<trkpt lat="-27.1511473" lon="152.8770309">
<ele>93.183</ele>
<time>2016-10-04T23:08:07.538Z</time>
</trkpt>
<trkpt lat="-27.1508862" lon="152.8768084">
<ele>95.080</ele>
<time>2016-10-04T23:08:09.377Z</time>
</trkpt>
<trkpt lat="-27.1504611" lon="152.8764170">
<ele>95.354</ele>
<time>2016-10-04T23:08:12.468Z</time>
</trkpt>
<trkpt lat="-27.1501883" lon="152.8761793">
<ele>94.469</ele>
<time>2016-10-04T23:08:14.405Z</time>
</trkpt>
<trkpt lat="-27.1499016" lon="152.8759361">
<ele>92.477</ele>
<time>2016-10-04T23:08:16.370Z</time>
</trkpt>
<trkpt lat="-27.1496104" lon="152.8756829">
<ele>89.530</ele>
<time>2016-10-04T23:08:18.355Z</time>
</trkpt>
<trkpt lat="-27.1492087" lon="152.8752605">
<ele>86.081</ele>
<time>2016-10-04T23:08:21.203Z</time>
</trkpt>
<trkpt lat="-27.1489657" lon="152.8749252">
<ele>82.391</ele>
<time>2016-10-04T23:08:23.162Z</time>
</trkpt>
<trkpt lat="-27.1485955" lon="152.8744045">
<ele>78.561</ele>
<time>2016-10-04T23:08:26.142Z</time>
</trkpt>
<trkpt lat="-27.1483438" lon="152.8740534">
<ele>73.998</ele>
<time>2016-10-04T23:08:28.156Z</time>
</trkpt>
<trkpt lat="-27.1479837" lon="152.8735341">
<ele>68.394</ele>
<time>2016-10-04T23:08:31.068Z</time>
</trkpt>
<trkpt lat="-27.1476002" lon="152.8730059">
<ele>63.064</ele>
<time>2016-10-04T23:08:34.103Z</time>
</trkpt>
<trkpt lat="-27.1473459" lon="152.8726575">
<ele>59.304</ele>
<time>2016-10-04T23:08:36.142Z</time>
</trkpt>
<trkpt lat="-27.1469734" lon="152.8721562">
<ele>57.054</ele>
<time>2016-10-04T23:08:39.138Z</time>
</trkpt>
<trkpt lat="-27.1467316" lon="152.8718131">
<ele>55.848</ele>
<time>2016-10-04T23:08:41.145Z</time>
</trkpt>
<trkpt lat="-27.1463378" lon="152.8713395">
<ele>55.089</ele>
<time>2016-10-04T23:08:44.072Z</time>
</trkpt>
<trkpt lat="-27.1458521" lon="152.8709900">
<ele>54.248</ele>
<time>2016-10-04T23:08:46.899Z</time>
</trkpt>
<trkpt lat="-27.1454929" lon="152.8707752">
<ele>53.207</ele>
<time>2016-10-04T23:08:48.872Z</time>
</trkpt>
<trkpt lat="-27.1449465" lon="152.8704351">
<ele>52.251</ele>
<time>2016-10-04T23:08:51.976Z</time>
</trkpt>
<trkpt lat="-27.1444092" lon="152.8701608">
<ele>51.593</ele>
<time>2016-10-04T23:08:54.903Z</time>
</trkpt>
<trkpt lat="-27.1440222" lon="152.8700421">
<ele>51.304</ele>
<time>2016-10-04T23:08:56.814Z</time>
</trkpt>
<trkpt lat="-27.1435982" lon="152.8699719">
<ele>51.429</ele>
<time>2016-10-04T23:08:58.831Z</time>
</trkpt>
<trkpt lat="-27.1429782" lon="152.8698844">
<ele>52.026</ele>
<time>2016-10-04T23:09:01.815Z</time>
</trkpt>
<trkpt lat="-27.1425770" lon="152.8698262">
<ele>52.986</ele>
<time>2016-10-04T23:09:03.769Z</time>
</trkpt>
<trkpt lat="-27.1419618" lon="152.8697791">
<ele>53.845</ele>
<time>2016-10-04T23:09:06.689Z</time>
</trkpt>
<trkpt lat="-27.1415492" lon="152.8699028">
<ele>53.595</ele>
<time>2016-10-04T23:09:08.644Z</time>
</trkpt>
<trkpt lat="-27.1411553" lon="152.8701211">
<ele>51.981</ele>
<time>2016-10-04T23:09:10.635Z</time>
</trkpt>
<trkpt lat="-27.1406581" lon="152.8706280">
<ele>50.155</ele>
<time>2016-10-04T23:09:13.687Z</time>
</trkpt>
<trkpt lat="-27.1404284" lon="152.8710538">
<ele>50.073</ele>
<time>2016-10-04T23:09:15.720Z</time>
</trkpt>
<trkpt lat="-27.1401865" lon="152.8717406">
<ele>52.883</ele>
<time>2016-10-04T23:09:18.830Z</time>
</trkpt>
<trkpt lat="-27.1399242" lon="152.8723674">
<ele>57.777</ele>
<time>2016-10-04T23:09:21.840Z</time>
</trkpt>
<trkpt lat="-27.1396083" lon="152.8729444">
<ele>62.741</ele>
<time>2016-10-04T23:09:24.803Z</time>
</trkpt>
<trkpt lat="-27.1392400" lon="152.8734842">
<ele>66.372</ele>
<time>2016-10-04T23:09:27.739Z</time>
</trkpt>
<trkpt lat="-27.1389465" lon="152.8738138">
<ele>68.599</ele>
<time>2016-10-04T23:09:29.771Z</time>
</trkpt>
<trkpt lat="-27.1386352" lon="152.8741166">
<ele>70.077</ele>
<time>2016-10-04T23:09:31.832Z</time>
</trkpt>
<trkpt lat="-27.1381678" lon="152.8745162">
<ele>70.963</ele>
<time>2016-10-04T23:09:34.895Z</time>
</trkpt>
<trkpt lat="-27.1376276" lon="152.8747480">
<ele>71.214</ele>
<time>2016-10-04T23:09:37.988Z</time>
</trkpt>
<trkpt lat="-27.1370917" lon="152.8747880">
<ele>71.268</ele>
<time>2016-10-04T23:09:40.962Z</time>
</trkpt>
<trkpt lat="-27.1367364" lon="152.8747402">
<ele>71.674</ele>
<time>2016-10-04T23:09:42.933Z</time>
</trkpt>
<trkpt lat="-27.1363816" lon="152.8747428">
<ele>72.488</ele>
<time>2016-10-04T23:09:44.795Z</time>
</trkpt>
<trkpt lat="-27.1360089" lon="152.8748285">
<ele>72.905</ele>
<time>2016-10-04T23:09:46.706Z</time>
</trkpt>
<trkpt lat="-27.1354548" lon="152.8751382">
<ele>72.189</ele>
<time>2016-10-04T23:09:49.587Z</time>
</trkpt>
<trkpt lat="-27.1348893" lon="152.8755332">
<ele>70.622</ele>
<time>2016-10-04T23:09:52.556Z</time>
</trkpt>
<trkpt lat="-27.1342780" lon="152.8758704">
<ele>68.405</ele>
<time>2016-10-04T23:09:55.609Z</time>
</trkpt>
<trkpt lat="-27.1338881" lon="152.8760841">
<ele>64.938</ele>
<time>2016-10-04T23:09:57.596Z</time>
</trkpt>
<trkpt lat="-27.1333288" lon="152.8764156">
<ele>60.402</ele>
<time>2016-10-04T23:10:00.499Z</time>
</trkpt>
<trkpt lat="-27.1329822" lon="152.8767105">
<ele>56.124</ele>
<time>2016-10-04T23:10:02.463Z</time>
</trkpt>
<trkpt lat="-27.1325124" lon="152.8772470">
<ele>53.188</ele>
<time>2016-10-04T23:10:05.511Z</time>
</trkpt>
<trkpt lat="-27.1322061" lon="152.8776038">
<ele>51.603</ele>
<time>2016-10-04T23:10:07.607Z</time>
</trkpt>
<trkpt lat="-27.1317997" lon="152.8781166">
<ele>50.822</ele>
<time>2016-10-04T23:10:10.749Z</time>
</trkpt>
<trkpt lat="-27.1316103" lon="152.8784558">
<ele>50.513</ele>
<time>2016-10-04T23:10:12.659Z</time>
</trkpt>
<trkpt lat="-27.1313744" lon="152.8790124">
<ele>50.625</ele>
<time>2016-10-04T23:10:15.585Z</time>
</trkpt>
<trkpt lat="-27.1312050" lon="152.8793844">
<ele>50.960</ele>
<time>2016-10-04T23:10:17.494Z</time>
</trkpt>
<trkpt lat="-27.1310367" lon="152.8797843">
<ele>51.134</ele>
<time>2016-10-04T23:10:19.424Z</time>
</trkpt>
<trkpt lat="-27.1307078" lon="152.8803777">
<ele>50.780</ele>
<time>2016-10-04T23:10:22.415Z</time>
</trkpt>
<trkpt lat="-27.1304583" lon="152.8807466">
<ele>49.712</ele>
<time>2016-10-04T23:10:24.438Z</time>
</trkpt>
<trkpt lat="-27.1302014" lon="152.8810827">
<ele>47.958</ele>
<time>2016-10-04T23:10:26.390Z</time>
</trkpt>
<trkpt lat="-27.1298964" lon="152.8813526">
<ele>46.014</ele>
<time>2016-10-04T23:10:28.274Z</time>
</trkpt>
<trkpt lat="-27.1293327" lon="152.8816856">
<ele>44.452</ele>
<time>2016-10-04T23:10:31.284Z</time>
</trkpt>
<trkpt lat="-27.1287142" lon="152.8818532">
<ele>43.165</ele>
<time>2016-10-04T23:10:34.297Z</time>
</trkpt>
<trkpt lat="-27.1282960" lon="152.8819343">
<ele>41.505</ele>
<time>2016-10-04T23:10:36.488Z</time>
</trkpt>
<trkpt lat="-27.1279237" lon="152.8819881">
<ele>39.268</ele>
<time>2016-10-04T23:10:38.729Z</time>
</trkpt>
<trkpt lat="-27.1276021" lon="152.8820459">
<ele>36.640</ele>
<time>2016-10-04T23:10:41.040Z</time>
</trkpt>
<trkpt lat="-27.1273450" lon="152.8820752">
<ele>33.605</ele>
<time>2016-10-04T23:10:43.222Z</time>
</trkpt>
<trkpt lat="-27.1270950" lon="152.8821076">
<ele>30.321</ele>
<time>2016-10-04T23:10:45.600Z</time>
</trkpt>
<trkpt lat="-27.1268246" lon="152.8821604">
<ele>27.582</ele>
<time>2016-10-04T23:10:48.617Z</time>
</trkpt>
<trkpt lat="-27.1266368" lon="152.8822089">
<ele>25.828</ele>
<time>2016-10-04T23:10:51.583Z</time>
</trkpt>
<trkpt lat="-27.1264676" lon="152.8822309">
<ele>24.752</ele>
<time>2016-10-04T23:10:54.528Z</time>
</trkpt>
<trkpt lat="-27.1263303" lon="152.8822153">
<ele>23.919</ele>
<time>2016-10-04T23:10:55.933Z</time>
</trkpt>
<trkpt lat="-27.1262571" lon="152.8821204">
<ele>23.261</ele>
<time>2016-10-04T23:10:57.042Z</time>
</trkpt>
<trkpt lat="-27.1262175" lon="152.8816762">
<ele>22.863</ele>
<time>2016-10-04T23:10:59.546Z</time>
</trkpt>
<trkpt lat="-27.1261840" lon="152.8810446">
<ele>23.506</ele>
<time>2016-10-04T23:11:02.791Z</time>
</trkpt>
<trkpt lat="-27.1261643" lon="152.8804038">
<ele>26.003</ele>
<time>2016-10-04T23:11:05.798Z</time>
</trkpt>
<trkpt lat="-27.1261407" lon="152.8799709">
<ele>29.913</ele>
<time>2016-10-04T23:11:07.734Z</time>
</trkpt>
<trkpt lat="-27.1261316" lon="152.8795112">
<ele>33.797</ele>
<time>2016-10-04T23:11:09.766Z</time>
</trkpt>
<trkpt lat="-27.1261250" lon="152.8788260">
<ele>36.583</ele>
<time>2016-10-04T23:11:12.782Z</time>
</trkpt>
<trkpt lat="-27.1261129" lon="152.8783765">
<ele>37.990</ele>
<time>2016-10-04T23:11:14.732Z</time>
</trkpt>
<trkpt lat="-27.1260724" lon="152.8776841">
<ele>38.242</ele>
<time>2016-10-04T23:11:17.646Z</time>
</trkpt>
<trkpt lat="-27.1260397" lon="152.8772113">
<ele>37.446</ele>
<time>2016-10-04T23:11:19.605Z</time>
</trkpt>
<trkpt lat="-27.1259711" lon="152.8764974">
<ele>36.046</ele>
<time>2016-10-04T23:11:22.613Z</time>
</trkpt>
<trkpt lat="-27.1258851" lon="152.8758352">
<ele>35.122</ele>
<time>2016-10-04T23:11:25.463Z</time>
</trkpt>
<trkpt lat="-27.1258269" lon="152.8753615">
<ele>35.629</ele>
<time>2016-10-04T23:11:27.517Z</time>
</trkpt>
<trkpt lat="-27.1257404" lon="152.8746884">
<ele>37.371</ele>
<time>2016-10-04T23:11:30.532Z</time>
</trkpt>
<trkpt lat="-27.1256898" lon="152.8742635">
<ele>39.194</ele>
<time>2016-10-04T23:11:32.499Z</time>
</trkpt>
<trkpt lat="-27.1256158" lon="152.8736294">
<ele>40.199</ele>
<time>2016-10-04T23:11:35.456Z</time>
</trkpt>
<trkpt lat="-27.1255567" lon="152.8732034">
<ele>40.352</ele>
<time>2016-10-04T23:11:37.403Z</time>
</trkpt>
<trkpt lat="-27.1254778" lon="152.8725474">
<ele>39.880</ele>
<time>2016-10-04T23:11:40.286Z</time>
</trkpt>
<trkpt lat="-27.1253853" lon="152.8718468">
<ele>38.739</ele>
<time>2016-10-04T23:11:43.318Z</time>
</trkpt>
<trkpt lat="-27.1253277" lon="152.8713925">
<ele>37.065</ele>
<time>2016-10-04T23:11:45.269Z</time>
</trkpt>
<trkpt lat="-27.1252583" lon="152.8709336">
<ele>35.544</ele>
<time>2016-10-04T23:11:47.217Z</time>
</trkpt>
<trkpt lat="-27.1251644" lon="152.8702164">
<ele>34.436</ele>
<time>2016-10-04T23:11:50.249Z</time>
</trkpt>
<trkpt lat="-27.1250676" lon="152.8695152">
<ele>33.481</ele>
<time>2016-10-04T23:11:53.254Z</time>
</trkpt>
<trkpt lat="-27.1250151" lon="152.8690768">
<ele>33.059</ele>
<time>2016-10-04T23:11:55.181Z</time>
</trkpt>
<trkpt lat="-27.1249266" lon="152.8683982">
<ele>33.581</ele>
<time>2016-10-04T23:11:58.235Z</time>
</trkpt>
<trkpt lat="-27.1248762" lon="152.8679702">
<ele>34.830</ele>
<time>2016-10-04T23:12:00.183Z</time>
</trkpt>
<trkpt lat="-27.1248103" lon="152.8675395">
<ele>36.676</ele>
<time>2016-10-04T23:12:02.201Z</time>
</trkpt>
<trkpt lat="-27.1247538" lon="152.8671246">
<ele>38.781</ele>
<time>2016-10-04T23:12:04.238Z</time>
</trkpt>
<trkpt lat="-27.1247031" lon="152.8667239">
<ele>40.319</ele>
<time>2016-10-04T23:12:06.280Z</time>
</trkpt>
<trkpt lat="-27.1246561" lon="152.8663403">
<ele>40.666</ele>
<time>2016-10-04T23:12:08.264Z</time>
</trkpt>
<trkpt lat="-27.1246025" lon="152.8659591">
<ele>39.602</ele>
<time>2016-10-04T23:12:10.185Z</time>
</trkpt>
<trkpt lat="-27.1245123" lon="152.8653314">
<ele>37.174</ele>
<time>2016-10-04T23:12:13.228Z</time>
</trkpt>
<trkpt lat="-27.1244651" lon="152.8649085">
<ele>34.209</ele>
<time>2016-10-04T23:12:15.190Z</time>
</trkpt>
<trkpt lat="-27.1243868" lon="152.8642533">
<ele>31.771</ele>
<time>2016-10-04T23:12:18.181Z</time>
</trkpt>
<trkpt lat="-27.1243247" lon="152.8638107">
<ele>30.241</ele>
<time>2016-10-04T23:12:20.220Z</time>
</trkpt>
<trkpt lat="-27.1242446" lon="152.8631784">
<ele>29.457</ele>
<time>2016-10-04T23:12:23.226Z</time>
</trkpt>
<trkpt lat="-27.1241931" lon="152.8627841">
<ele>29.275</ele>
<time>2016-10-04T23:12:25.213Z</time>
</trkpt>
<trkpt lat="-27.1241115" lon="152.8621981">
<ele>29.678</ele>
<time>2016-10-04T23:12:28.362Z</time>
</trkpt>
<trkpt lat="-27.1240443" lon="152.8616732">
<ele>30.961</ele>
<time>2016-10-04T23:12:31.398Z</time>
</trkpt>
<trkpt lat="-27.1239796" lon="152.8611680">
<ele>33.310</ele>
<time>2016-10-04T23:12:34.549Z</time>
</trkpt>
<trkpt lat="-27.1239286" lon="152.8607227">
<ele>36.039</ele>
<time>2016-10-04T23:12:37.831Z</time>
</trkpt>
<trkpt lat="-27.1238768" lon="152.8603832">
<ele>37.933</ele>
<time>2016-10-04T23:12:41.177Z</time>
</trkpt>
<trkpt lat="-27.1238056" lon="152.8601061">
<ele>38.305</ele>
<time>2016-10-04T23:12:44.133Z</time>
</trkpt>
<trkpt lat="-27.1236404" lon="152.8600594">
<ele>37.199</ele>
<time>2016-10-04T23:12:45.627Z</time>
</trkpt>
<trkpt lat="-27.1234087" lon="152.8600975">
<ele>35.419</ele>
<time>2016-10-04T23:12:47.370Z</time>
</trkpt>
<trkpt lat="-27.1229447" lon="152.8601685">
<ele>34.151</ele>
<time>2016-10-04T23:12:50.654Z</time>
</trkpt>
<trkpt lat="-27.1225483" lon="152.8602480">
<ele>33.796</ele>
<time>2016-10-04T23:12:53.759Z</time>
</trkpt>
<trkpt lat="-27.1221980" lon="152.8603253">
<ele>33.558</ele>
<time>2016-10-04T23:12:57.162Z</time>
</trkpt>
<trkpt lat="-27.1220143" lon="152.8602939">
<ele>32.395</ele>
<time>2016-10-04T23:12:59.035Z</time>
</trkpt>
<trkpt lat="-27.1218153" lon="152.8600330">
<ele>30.110</ele>
<time>2016-10-04T23:13:01.617Z</time>
</trkpt>
<trkpt lat="-27.1217828" lon="152.8597471">
<ele>27.182</ele>
<time>2016-10-04T23:13:03.638Z</time>
</trkpt>
<trkpt lat="-27.1218346" lon="152.8594637">
<ele>24.250</ele>
<time>2016-10-04T23:13:05.752Z</time>
</trkpt>
<trkpt lat="-27.1219231" lon="152.8590765">
<ele>21.679</ele>
<time>2016-10-04T23:13:09.455Z</time>
</trkpt>
<trkpt lat="-27.1218873" lon="152.8589042">
<ele>19.315</ele>
<time>2016-10-04T23:13:11.173Z</time>
</trkpt>
<trkpt lat="-27.1218182" lon="152.8586174">
<ele>17.267</ele>
<time>2016-10-04T23:13:13.672Z</time>
</trkpt>
<trkpt lat="-27.1217328" lon="152.8582407">
<ele>16.057</ele>
<time>2016-10-04T23:13:16.817Z</time>
</trkpt>
<trkpt lat="-27.1214479" lon="152.8579937">
<ele>16.128</ele>
<time>2016-10-04T23:13:19.844Z</time>
</trkpt>
<trkpt lat="-27.1211921" lon="152.8579502">
<ele>17.913</ele>
<time>2016-10-04T23:13:21.674Z</time>
</trkpt>
<trkpt lat="-27.1209040" lon="152.8579912">
<ele>21.155</ele>
<time>2016-10-04T23:13:23.498Z</time>
</trkpt>
<trkpt lat="-27.1204147" lon="152.8581018">
<ele>24.861</ele>
<time>2016-10-04T23:13:26.263Z</time>
</trkpt>
<trkpt lat="-27.1200267" lon="152.8581664">
<ele>28.787</ele>
<time>2016-10-04T23:13:28.339Z</time>
</trkpt>
<trkpt lat="-27.1194570" lon="152.8581725">
<ele>32.943</ele>
<time>2016-10-04T23:13:31.366Z</time>
</trkpt>
<trkpt lat="-27.1190768" lon="152.8581646">
<ele>36.689</ele>
<time>2016-10-04T23:13:33.349Z</time>
</trkpt>
<trkpt lat="-27.1184900" lon="152.8581549">
<ele>39.354</ele>
<time>2016-10-04T23:13:36.406Z</time>
</trkpt>
<trkpt lat="-27.1181107" lon="152.8581573">
<ele>40.169</ele>
<time>2016-10-04T23:13:38.435Z</time>
</trkpt>
<trkpt lat="-27.1177470" lon="152.8582003">
<ele>38.668</ele>
<time>2016-10-04T23:13:40.396Z</time>
</trkpt>
<trkpt lat="-27.1172375" lon="152.8584305">
<ele>35.927</ele>
<time>2016-10-04T23:13:43.366Z</time>
</trkpt>
<trkpt lat="-27.1169096" lon="152.8586249">
<ele>33.398</ele>
<time>2016-10-04T23:13:45.471Z</time>
</trkpt>
<trkpt lat="-27.1166013" lon="152.8587959">
<ele>31.524</ele>
<time>2016-10-04T23:13:47.563Z</time>
</trkpt>
<trkpt lat="-27.1162713" lon="152.8588432">
<ele>29.864</ele>
<time>2016-10-04T23:13:49.703Z</time>
</trkpt>
<trkpt lat="-27.1158220" lon="152.8588387">
<ele>28.048</ele>
<time>2016-10-04T23:13:52.617Z</time>
</trkpt>
<trkpt lat="-27.1153926" lon="152.8590633">
<ele>26.464</ele>
<time>2016-10-04T23:13:55.581Z</time>
</trkpt>
<trkpt lat="-27.1151512" lon="152.8593214">
<ele>25.604</ele>
<time>2016-10-04T23:13:57.637Z</time>
</trkpt>
<trkpt lat="-27.1149616" lon="152.8596297">
<ele>25.346</ele>
<time>2016-10-04T23:13:59.704Z</time>
</trkpt>
<trkpt lat="-27.1146783" lon="152.8600473">
<ele>25.387</ele>
<time>2016-10-04T23:14:02.472Z</time>
</trkpt>
<trkpt lat="-27.1143908" lon="152.8602568">
<ele>25.505</ele>
<time>2016-10-04T23:14:04.365Z</time>
</trkpt>
<trkpt lat="-27.1138935" lon="152.8605474">
<ele>25.970</ele>
<time>2016-10-04T23:14:07.333Z</time>
</trkpt>
<trkpt lat="-27.1133797" lon="152.8608532">
<ele>26.992</ele>
<time>2016-10-04T23:14:10.392Z</time>
</trkpt>
<trkpt lat="-27.1130408" lon="152.8610214">
<ele>28.658</ele>
<time>2016-10-04T23:14:12.370Z</time>
</trkpt>
<trkpt lat="-27.1127189" lon="152.8612275">
<ele>30.841</ele>
<time>2016-10-04T23:14:14.284Z</time>
</trkpt>
<trkpt lat="-27.1122709" lon="152.8616662">
<ele>32.700</ele>
<time>2016-10-04T23:14:17.240Z</time>
</trkpt>
<trkpt lat="-27.1118561" lon="152.8621631">
<ele>33.827</ele>
<time>2016-10-04T23:14:20.271Z</time>
</trkpt>
<trkpt lat="-27.1115971" lon="152.8624794">
<ele>34.707</ele>
<time>2016-10-04T23:14:22.227Z</time>
</trkpt>
<trkpt lat="-27.1111367" lon="152.8628810">
<ele>35.210</ele>
<time>2016-10-04T23:14:25.110Z</time>
</trkpt>
<trkpt lat="-27.1105623" lon="152.8631102">
<ele>35.114</ele>
<time>2016-10-04T23:14:27.851Z</time>
</trkpt>
<trkpt lat="-27.1100403" lon="152.8631613">
<ele>35.254</ele>
<time>2016-10-04T23:14:29.824Z</time>
</trkpt>
<trkpt lat="-27.1094712" lon="152.8632264">
<ele>36.985</ele>
<time>2016-10-04T23:14:31.781Z</time>
</trkpt>
<trkpt lat="-27.1084911" lon="152.8633006">
<ele>40.052</ele>
<time>2016-10-04T23:14:35.003Z</time>
</trkpt>
<trkpt lat="-27.1074539" lon="152.8633500">
<ele>42.848</ele>
<time>2016-10-04T23:14:38.497Z</time>
</trkpt>
<trkpt lat="-27.1066468" lon="152.8633850">
<ele>44.571</ele>
<time>2016-10-04T23:14:41.851Z</time>
</trkpt>
<trkpt lat="-27.1062119" lon="152.8634192">
<ele>46.561</ele>
<time>2016-10-04T23:14:43.969Z</time>
</trkpt>
<trkpt lat="-27.1056349" lon="152.8634669">
<ele>49.834</ele>
<time>2016-10-04T23:14:47.121Z</time>
</trkpt>
<trkpt lat="-27.1053001" lon="152.8634236">
<ele>52.897</ele>
<time>2016-10-04T23:14:48.879Z</time>
</trkpt>
<trkpt lat="-27.1049363" lon="152.8632700">
<ele>54.131</ele>
<time>2016-10-04T23:14:50.835Z</time>
</trkpt>
<trkpt lat="-27.1043847" lon="152.8629299">
<ele>54.066</ele>
<time>2016-10-04T23:14:54.063Z</time>
</trkpt>
<trkpt lat="-27.1040564" lon="152.8627189">
<ele>53.841</ele>
<time>2016-10-04T23:14:56.086Z</time>
</trkpt>
<trkpt lat="-27.1035803" lon="152.8624427">
<ele>54.082</ele>
<time>2016-10-04T23:14:59.077Z</time>
</trkpt>
<trkpt lat="-27.1032758" lon="152.8622201">
<ele>54.516</ele>
<time>2016-10-04T23:15:01.126Z</time>
</trkpt>
<trkpt lat="-27.1028601" lon="152.8618688">
<ele>54.688</ele>
<time>2016-10-04T23:15:04.124Z</time>
</trkpt>
<trkpt lat="-27.1025688" lon="152.8616768">
<ele>54.397</ele>
<time>2016-10-04T23:15:06.081Z</time>
</trkpt>
<trkpt lat="-27.1020696" lon="152.8615788">
<ele>53.568</ele>
<time>2016-10-04T23:15:08.815Z</time>
</trkpt>
<trkpt lat="-27.1014779" lon="152.8615827">
<ele>52.533</ele>
<time>2016-10-04T23:15:11.735Z</time>
</trkpt>
<trkpt lat="-27.1008587" lon="152.8615780">
<ele>51.855</ele>
<time>2016-10-04T23:15:14.658Z</time>
</trkpt>
<trkpt lat="-27.1004287" lon="152.8616470">
<ele>51.694</ele>
<time>2016-10-04T23:15:16.676Z</time>
</trkpt>
<trkpt lat="-27.1000005" lon="152.8617005">
<ele>51.588</ele>
<time>2016-10-04T23:15:18.658Z</time>
</trkpt>
<trkpt lat="-27.0995699" lon="152.8617864">
<ele>50.586</ele>
<time>2016-10-04T23:15:20.689Z</time>
</trkpt>
<trkpt lat="-27.0991423" lon="152.8618860">
<ele>48.108</ele>
<time>2016-10-04T23:15:22.785Z</time>
</trkpt>
<trkpt lat="-27.0985397" lon="152.8618911">
<ele>44.904</ele>
<time>2016-10-04T23:15:25.836Z</time>
</trkpt>
<trkpt lat="-27.0981732" lon="152.8617560">
<ele>42.234</ele>
<time>2016-10-04T23:15:27.748Z</time>
</trkpt>
<trkpt lat="-27.0976694" lon="152.8613484">
<ele>40.652</ele>
<time>2016-10-04T23:15:30.598Z</time>
</trkpt>
<trkpt lat="-27.0971265" lon="152.8608601">
<ele>40.806</ele>
<time>2016-10-04T23:15:33.842Z</time>
</trkpt>
<trkpt lat="-27.0966166" lon="152.8604890">
<ele>42.762</ele>
<time>2016-10-04T23:15:37.165Z</time>
</trkpt>
<trkpt lat="-27.0962039" lon="152.8601781">
<ele>44.974</ele>
<time>2016-10-04T23:15:40.589Z</time>
</trkpt>
<trkpt lat="-27.0959570" lon="152.8600310">
<ele>46.246</ele>
<time>2016-10-04T23:15:42.603Z</time>
</trkpt>
<trkpt lat="-27.0956074" lon="152.8599492">
<ele>47.043</ele>
<time>2016-10-04T23:15:45.033Z</time>
</trkpt>
<trkpt lat="-27.0951626" lon="152.8600662">
<ele>48.442</ele>
<time>2016-10-04T23:15:47.613Z</time>
</trkpt>
<trkpt lat="-27.0948291" lon="152.8602238">
<ele>50.627</ele>
<time>2016-10-04T23:15:49.529Z</time>
</trkpt>
<trkpt lat="-27.0943097" lon="152.8605134">
<ele>52.420</ele>
<time>2016-10-04T23:15:52.494Z</time>
</trkpt>
<trkpt lat="-27.0939911" lon="152.8607564">
<ele>52.510</ele>
<time>2016-10-04T23:15:54.352Z</time>
</trkpt>
<trkpt lat="-27.0935589" lon="152.8613000">
<ele>50.784</ele>
<time>2016-10-04T23:15:57.326Z</time>
</trkpt>
<trkpt lat="-27.0932834" lon="152.8616974">
<ele>48.308</ele>
<time>2016-10-04T23:15:59.398Z</time>
</trkpt>
<trkpt lat="-27.0928464" lon="152.8622221">
<ele>46.302</ele>
<time>2016-10-04T23:16:02.634Z</time>
</trkpt>
<trkpt lat="-27.0925424" lon="152.8624801">
<ele>44.644</ele>
<time>2016-10-04T23:16:04.759Z</time>
</trkpt>
<trkpt lat="-27.0922280" lon="152.8626295">
<ele>42.876</ele>
<time>2016-10-04T23:16:06.653Z</time>
</trkpt>
<trkpt lat="-27.0916846" lon="152.8627170">
<ele>41.947</ele>
<time>2016-10-04T23:16:09.670Z</time>
</trkpt>
<trkpt lat="-27.0911623" lon="152.8627267">
<ele>43.838</ele>
<time>2016-10-04T23:16:12.810Z</time>
</trkpt>
<trkpt lat="-27.0908423" lon="152.8627912">
<ele>48.206</ele>
<time>2016-10-04T23:16:14.831Z</time>
</trkpt>
<trkpt lat="-27.0904449" lon="152.8630996">
<ele>52.151</ele>
<time>2016-10-04T23:16:17.621Z</time>
</trkpt>
<trkpt lat="-27.0900823" lon="152.8635622">
<ele>54.066</ele>
<time>2016-10-04T23:16:20.607Z</time>
</trkpt>
<trkpt lat="-27.0897001" lon="152.8640159">
<ele>54.706</ele>
<time>2016-10-04T23:16:23.553Z</time>
</trkpt>
<trkpt lat="-27.0894414" lon="152.8643236">
<ele>54.511</ele>
<time>2016-10-04T23:16:25.502Z</time>
</trkpt>
<trkpt lat="-27.0891786" lon="152.8646367">
<ele>53.239</ele>
<time>2016-10-04T23:16:27.445Z</time>
</trkpt>
<trkpt lat="-27.0887767" lon="152.8651031">
<ele>51.062</ele>
<time>2016-10-04T23:16:30.415Z</time>
</trkpt>
<trkpt lat="-27.0884964" lon="152.8653935">
<ele>48.392</ele>
<time>2016-10-04T23:16:32.420Z</time>
</trkpt>
<trkpt lat="-27.0881825" lon="152.8656253">
<ele>45.173</ele>
<time>2016-10-04T23:16:34.360Z</time>
</trkpt>
<trkpt lat="-27.0878328" lon="152.8658170">
<ele>41.430</ele>
<time>2016-10-04T23:16:36.297Z</time>
</trkpt>
<trkpt lat="-27.0871920" lon="152.8659430">
<ele>38.090</ele>
<time>2016-10-04T23:16:39.567Z</time>
</trkpt>
<trkpt lat="-27.0866207" lon="152.8661170">
<ele>36.773</ele>
<time>2016-10-04T23:16:42.758Z</time>
</trkpt>
<trkpt lat="-27.0862631" lon="152.8665652">
<ele>38.204</ele>
<time>2016-10-04T23:16:45.923Z</time>
</trkpt>
<trkpt lat="-27.0860557" lon="152.8668651">
<ele>41.764</ele>
<time>2016-10-04T23:16:48.096Z</time>
</trkpt>
<trkpt lat="-27.0858698" lon="152.8671435">
<ele>46.239</ele>
<time>2016-10-04T23:16:50.437Z</time>
</trkpt>
<trkpt lat="-27.0856922" lon="152.8674007">
<ele>50.205</ele>
<time>2016-10-04T23:16:53.358Z</time>
</trkpt>
<trkpt lat="-27.0854802" lon="152.8676840">
<ele>52.874</ele>
<time>2016-10-04T23:16:58.550Z</time>
</trkpt>
<trkpt lat="-27.0853679" lon="152.8678095">
<ele>54.422</ele>
<time>2016-10-04T23:17:00.653Z</time>
</trkpt>
<trkpt lat="-27.0853068" lon="152.8679792">
<ele>55.070</ele>
<time>2016-10-04T23:17:02.171Z</time>
</trkpt>
<trkpt lat="-27.0854276" lon="152.8682382">
<ele>55.412</ele>
<time>2016-10-04T23:17:04.324Z</time>
</trkpt>
<trkpt lat="-27.0855684" lon="152.8686429">
<ele>56.342</ele>
<time>2016-10-04T23:17:06.997Z</time>
</trkpt>
<trkpt lat="-27.0857311" lon="152.8691203">
<ele>58.078</ele>
<time>2016-10-04T23:17:09.901Z</time>
</trkpt>
<trkpt lat="-27.0858515" lon="152.8694213">
<ele>59.929</ele>
<time>2016-10-04T23:17:11.634Z</time>
</trkpt>
<trkpt lat="-27.0860025" lon="152.8697690">
<ele>61.109</ele>
<time>2016-10-04T23:17:13.554Z</time>
</trkpt>
<trkpt lat="-27.0862793" lon="152.8703155">
<ele>61.683</ele>
<time>2016-10-04T23:17:16.441Z</time>
</trkpt>
<trkpt lat="-27.0864958" lon="152.8709227">
<ele>62.160</ele>
<time>2016-10-04T23:17:19.245Z</time>
</trkpt>
<trkpt lat="-27.0865812" lon="152.8714026">
<ele>62.256</ele>
<time>2016-10-04T23:17:21.241Z</time>
</trkpt>
<trkpt lat="-27.0867044" lon="152.8721397">
<ele>61.449</ele>
<time>2016-10-04T23:17:24.369Z</time>
</trkpt>
<trkpt lat="-27.0869308" lon="152.8727781">
<ele>60.128</ele>
<time>2016-10-04T23:17:27.412Z</time>
</trkpt>
<trkpt lat="-27.0871434" lon="152.8731200">
<ele>59.009</ele>
<time>2016-10-04T23:17:29.263Z</time>
</trkpt>
<trkpt lat="-27.0874137" lon="152.8734619">
<ele>58.344</ele>
<time>2016-10-04T23:17:31.251Z</time>
</trkpt>
<trkpt lat="-27.0876996" lon="152.8738052">
<ele>57.986</ele>
<time>2016-10-04T23:17:33.371Z</time>
</trkpt>
<trkpt lat="-27.0880466" lon="152.8743186">
<ele>57.318</ele>
<time>2016-10-04T23:17:36.466Z</time>
</trkpt>
<trkpt lat="-27.0881811" lon="152.8746906">
<ele>55.267</ele>
<time>2016-10-04T23:17:38.402Z</time>
</trkpt>
<trkpt lat="-27.0882463" lon="152.8751093">
<ele>51.904</ele>
<time>2016-10-04T23:17:40.362Z</time>
</trkpt>
<trkpt lat="-27.0882838" lon="152.8755630">
<ele>48.926</ele>
<time>2016-10-04T23:17:42.437Z</time>
</trkpt>
<trkpt lat="-27.0883132" lon="152.8762120">
<ele>47.672</ele>
<time>2016-10-04T23:17:45.436Z</time>
</trkpt>
<trkpt lat="-27.0883274" lon="152.8766319">
<ele>48.118</ele>
<time>2016-10-04T23:17:47.423Z</time>
</trkpt>
<trkpt lat="-27.0883478" lon="152.8770631">
<ele>49.771</ele>
<time>2016-10-04T23:17:49.518Z</time>
</trkpt>
<trkpt lat="-27.0884216" lon="152.8776458">
<ele>51.765</ele>
<time>2016-10-04T23:17:52.380Z</time>
</trkpt>
<trkpt lat="-27.0884988" lon="152.8780435">
<ele>52.836</ele>
<time>2016-10-04T23:17:54.321Z</time>
</trkpt>
<trkpt lat="-27.0886109" lon="152.8784538">
<ele>52.516</ele>
<time>2016-10-04T23:17:56.382Z</time>
</trkpt>
<trkpt lat="-27.0887140" lon="152.8788258">
<ele>51.503</ele>
<time>2016-10-04T23:17:58.271Z</time>
</trkpt>
<trkpt lat="-27.0889629" lon="152.8793724">
<ele>50.160</ele>
<time>2016-10-04T23:18:01.242Z</time>
</trkpt>
<trkpt lat="-27.0892879" lon="152.8798811">
<ele>48.436</ele>
<time>2016-10-04T23:18:04.306Z</time>
</trkpt>
<trkpt lat="-27.0895084" lon="152.8802027">
<ele>46.800</ele>
<time>2016-10-04T23:18:06.329Z</time>
</trkpt>
<trkpt lat="-27.0898233" lon="152.8806794">
<ele>45.722</ele>
<time>2016-10-04T23:18:09.251Z</time>
</trkpt>
<trkpt lat="-27.0900427" lon="152.8810092">
<ele>45.198</ele>
<time>2016-10-04T23:18:11.234Z</time>
</trkpt>
<trkpt lat="-27.0903337" lon="152.8815407">
<ele>45.047</ele>
<time>2016-10-04T23:18:14.250Z</time>
</trkpt>
<trkpt lat="-27.0905061" lon="152.8818740">
<ele>45.231</ele>
<time>2016-10-04T23:18:16.120Z</time>
</trkpt>
<trkpt lat="-27.0907056" lon="152.8822326">
<ele>45.875</ele>
<time>2016-10-04T23:18:18.140Z</time>
</trkpt>
<trkpt lat="-27.0909542" lon="152.8825423">
<ele>47.134</ele>
<time>2016-10-04T23:18:20.101Z</time>
</trkpt>
<trkpt lat="-27.0913890" lon="152.8829710">
<ele>48.697</ele>
<time>2016-10-04T23:18:23.157Z</time>
</trkpt>
<trkpt lat="-27.0916208" lon="152.8832805">
<ele>49.698</ele>
<time>2016-10-04T23:18:25.035Z</time>
</trkpt>
<trkpt lat="-27.0919198" lon="152.8838466">
<ele>49.671</ele>
<time>2016-10-04T23:18:28.001Z</time>
</trkpt>
<trkpt lat="-27.0921068" lon="152.8842552">
<ele>48.651</ele>
<time>2016-10-04T23:18:29.836Z</time>
</trkpt>
<trkpt lat="-27.0922693" lon="152.8850242">
<ele>46.992</ele>
<time>2016-10-04T23:18:32.839Z</time>
</trkpt>
<trkpt lat="-27.0923922" lon="152.8858417">
<ele>45.429</ele>
<time>2016-10-04T23:18:35.951Z</time>
</trkpt>
<trkpt lat="-27.0924512" lon="152.8863426">
<ele>44.181</ele>
<time>2016-10-04T23:18:37.962Z</time>
</trkpt>
<trkpt lat="-27.0925279" lon="152.8870703">
<ele>42.978</ele>
<time>2016-10-04T23:18:40.922Z</time>
</trkpt>
<trkpt lat="-27.0925991" lon="152.8875647">
<ele>41.917</ele>
<time>2016-10-04T23:18:43.004Z</time>
</trkpt>
<trkpt lat="-27.0926594" lon="152.8882600">
<ele>41.135</ele>
<time>2016-10-04T23:18:45.938Z</time>
</trkpt>
<trkpt lat="-27.0926108" lon="152.8889566">
<ele>40.268</ele>
<time>2016-10-04T23:18:48.863Z</time>
</trkpt>
<trkpt lat="-27.0924516" lon="152.8894051">
<ele>38.761</ele>
<time>2016-10-04T23:18:50.779Z</time>
</trkpt>
<trkpt lat="-27.0920494" lon="152.8900455">
<ele>36.913</ele>
<time>2016-10-04T23:18:53.802Z</time>
</trkpt>
<trkpt lat="-27.0917843" lon="152.8904803">
<ele>35.685</ele>
<time>2016-10-04T23:18:55.808Z</time>
</trkpt>
<trkpt lat="-27.0914437" lon="152.8911521">
<ele>35.358</ele>
<time>2016-10-04T23:18:58.808Z</time>
</trkpt>
<trkpt lat="-27.0912022" lon="152.8918585">
<ele>35.566</ele>
<time>2016-10-04T23:19:01.884Z</time>
</trkpt>
<trkpt lat="-27.0911298" lon="152.8923172">
<ele>36.330</ele>
<time>2016-10-04T23:19:03.878Z</time>
</trkpt>
<trkpt lat="-27.0910749" lon="152.8927665">
<ele>37.637</ele>
<time>2016-10-04T23:19:05.792Z</time>
</trkpt>
<trkpt lat="-27.0910213" lon="152.8934768">
<ele>38.714</ele>
<time>2016-10-04T23:19:08.684Z</time>
</trkpt>
<trkpt lat="-27.0909951" lon="152.8942629">
<ele>39.001</ele>
<time>2016-10-04T23:19:11.710Z</time>
</trkpt>
<trkpt lat="-27.0910331" lon="152.8950558">
<ele>38.679</ele>
<time>2016-10-04T23:19:14.733Z</time>
</trkpt>
<trkpt lat="-27.0910729" lon="152.8958233">
<ele>38.074</ele>
<time>2016-10-04T23:19:17.794Z</time>
</trkpt>
<trkpt lat="-27.0910986" lon="152.8965340">
<ele>37.149</ele>
<time>2016-10-04T23:19:20.862Z</time>
</trkpt>
<trkpt lat="-27.0910428" lon="152.8971911">
<ele>35.862</ele>
<time>2016-10-04T23:19:23.886Z</time>
</trkpt>
<trkpt lat="-27.0909728" lon="152.8975933">
<ele>34.747</ele>
<time>2016-10-04T23:19:25.766Z</time>
</trkpt>
<trkpt lat="-27.0908108" lon="152.8982197">
<ele>34.265</ele>
<time>2016-10-04T23:19:28.754Z</time>
</trkpt>
<trkpt lat="-27.0906808" lon="152.8988538">
<ele>34.110</ele>
<time>2016-10-04T23:19:31.748Z</time>
</trkpt>
<trkpt lat="-27.0906693" lon="152.8992887">
<ele>33.641</ele>
<time>2016-10-04T23:19:33.726Z</time>
</trkpt>
<trkpt lat="-27.0907243" lon="152.8997204">
<ele>32.507</ele>
<time>2016-10-04T23:19:35.660Z</time>
</trkpt>
<trkpt lat="-27.0908179" lon="152.9001695">
<ele>30.871</ele>
<time>2016-10-04T23:19:37.669Z</time>
</trkpt>
<trkpt lat="-27.0909229" lon="152.9006129">
<ele>29.057</ele>
<time>2016-10-04T23:19:39.650Z</time>
</trkpt>
<trkpt lat="-27.0909756" lon="152.9013227">
<ele>27.385</ele>
<time>2016-10-04T23:19:42.716Z</time>
</trkpt>
<trkpt lat="-27.0909344" lon="152.9017854">
<ele>26.178</ele>
<time>2016-10-04T23:19:44.690Z</time>
</trkpt>
<trkpt lat="-27.0908214" lon="152.9022375">
<ele>25.561</ele>
<time>2016-10-04T23:19:46.669Z</time>
</trkpt>
<trkpt lat="-27.0906798" lon="152.9029272">
<ele>25.656</ele>
<time>2016-10-04T23:19:49.706Z</time>
</trkpt>
<trkpt lat="-27.0906177" lon="152.9033742">
<ele>26.584</ele>
<time>2016-10-04T23:19:51.746Z</time>
</trkpt>
<trkpt lat="-27.0905846" lon="152.9037956">
<ele>27.953</ele>
<time>2016-10-04T23:19:53.663Z</time>
</trkpt>
<trkpt lat="-27.0905698" lon="152.9042378">
<ele>29.028</ele>
<time>2016-10-04T23:19:55.608Z</time>
</trkpt>
<trkpt lat="-27.0906056" lon="152.9049194">
<ele>29.574</ele>
<time>2016-10-04T23:19:58.551Z</time>
</trkpt>
<trkpt lat="-27.0907073" lon="152.9056205">
<ele>29.769</ele>
<time>2016-10-04T23:20:01.557Z</time>
</trkpt>
<trkpt lat="-27.0907977" lon="152.9060868">
<ele>29.773</ele>
<time>2016-10-04T23:20:03.534Z</time>
</trkpt>
<trkpt lat="-27.0909255" lon="152.9065486">
<ele>29.607</ele>
<time>2016-10-04T23:20:05.505Z</time>
</trkpt>
<trkpt lat="-27.0912062" lon="152.9072184">
<ele>29.141</ele>
<time>2016-10-04T23:20:08.532Z</time>
</trkpt>
<trkpt lat="-27.0914127" lon="152.9076504">
<ele>28.351</ele>
<time>2016-10-04T23:20:10.610Z</time>
</trkpt>
<trkpt lat="-27.0915955" lon="152.9080419">
<ele>27.239</ele>
<time>2016-10-04T23:20:12.573Z</time>
</trkpt>
<trkpt lat="-27.0917737" lon="152.9084302">
<ele>25.943</ele>
<time>2016-10-04T23:20:14.579Z</time>
</trkpt>
<trkpt lat="-27.0919703" lon="152.9090092">
<ele>24.465</ele>
<time>2016-10-04T23:20:17.465Z</time>
</trkpt>
<trkpt lat="-27.0920348" lon="152.9094298">
<ele>22.758</ele>
<time>2016-10-04T23:20:19.471Z</time>
</trkpt>
<trkpt lat="-27.0920246" lon="152.9100715">
<ele>21.202</ele>
<time>2016-10-04T23:20:22.473Z</time>
</trkpt>
<trkpt lat="-27.0919117" lon="152.9107042">
<ele>20.025</ele>
<time>2016-10-04T23:20:25.406Z</time>
</trkpt>
<trkpt lat="-27.0917032" lon="152.9113627">
<ele>19.070</ele>
<time>2016-10-04T23:20:28.445Z</time>
</trkpt>
<trkpt lat="-27.0914889" lon="152.9120272">
<ele>18.478</ele>
<time>2016-10-04T23:20:31.460Z</time>
</trkpt>
<trkpt lat="-27.0913404" lon="152.9126983">
<ele>18.288</ele>
<time>2016-10-04T23:20:34.449Z</time>
</trkpt>
<trkpt lat="-27.0913219" lon="152.9131526">
<ele>18.221</ele>
<time>2016-10-04T23:20:36.421Z</time>
</trkpt>
<trkpt lat="-27.0913833" lon="152.9138478">
<ele>17.933</ele>
<time>2016-10-04T23:20:39.481Z</time>
</trkpt>
<trkpt lat="-27.0914203" lon="152.9142635">
<ele>17.167</ele>
<time>2016-10-04T23:20:41.464Z</time>
</trkpt>
<trkpt lat="-27.0914472" lon="152.9148463">
<ele>15.997</ele>
<time>2016-10-04T23:20:44.458Z</time>
</trkpt>
<trkpt lat="-27.0914869" lon="152.9153639">
<ele>14.829</ele>
<time>2016-10-04T23:20:47.547Z</time>
</trkpt>
<trkpt lat="-27.0915373" lon="152.9157860">
<ele>13.935</ele>
<time>2016-10-04T23:20:50.662Z</time>
</trkpt>
<trkpt lat="-27.0915932" lon="152.9161247">
<ele>12.947</ele>
<time>2016-10-04T23:20:53.663Z</time>
</trkpt>
<trkpt lat="-27.0916354" lon="152.9163276">
<ele>11.637</ele>
<time>2016-10-04T23:20:55.658Z</time>
</trkpt>
<trkpt lat="-27.0916813" lon="152.9165317">
<ele>10.611</ele>
<time>2016-10-04T23:20:57.642Z</time>
</trkpt>
<trkpt lat="-27.0917675" lon="152.9168399">
<ele>10.337</ele>
<time>2016-10-04T23:21:00.488Z</time>
</trkpt>
<trkpt lat="-27.0918672" lon="152.9171936">
<ele>10.523</ele>
<time>2016-10-04T23:21:03.415Z</time>
</trkpt>
<trkpt lat="-27.0919367" lon="152.9174656">
<ele>10.882</ele>
<time>2016-10-04T23:21:05.472Z</time>
</trkpt>
<trkpt lat="-27.0920244" lon="152.9178751">
<ele>11.513</ele>
<time>2016-10-04T23:21:08.541Z</time>
</trkpt>
<trkpt lat="-27.0920392" lon="152.9181409">
<ele>12.388</ele>
<time>2016-10-04T23:21:10.611Z</time>
</trkpt>
<trkpt lat="-27.0920403" lon="152.9183827">
<ele>13.105</ele>
<time>2016-10-04T23:21:12.471Z</time>
</trkpt>
<trkpt lat="-27.0920833" lon="152.9186536">
<ele>13.424</ele>
<time>2016-10-04T23:21:14.298Z</time>
</trkpt>
<trkpt lat="-27.0920925" lon="152.9190021">
<ele>13.605</ele>
<time>2016-10-04T23:21:16.247Z</time>
</trkpt>
<trkpt lat="-27.0920732" lon="152.9196238">
<ele>14.126</ele>
<time>2016-10-04T23:21:19.444Z</time>
</trkpt>
<trkpt lat="-27.0920504" lon="152.9200177">
<ele>15.135</ele>
<time>2016-10-04T23:21:21.522Z</time>
</trkpt>
<trkpt lat="-27.0920156" lon="152.9205459">
<ele>16.200</ele>
<time>2016-10-04T23:21:24.490Z</time>
</trkpt>
<trkpt lat="-27.0919905" lon="152.9210484">
<ele>16.857</ele>
<time>2016-10-04T23:21:27.497Z</time>
</trkpt>
<trkpt lat="-27.0919721" lon="152.9213670">
<ele>17.062</ele>
<time>2016-10-04T23:21:29.476Z</time>
</trkpt>
<trkpt lat="-27.0919246" lon="152.9216590">
<ele>17.026</ele>
<time>2016-10-04T23:21:31.323Z</time>
</trkpt>
<trkpt lat="-27.0918314" lon="152.9221400">
<ele>16.921</ele>
<time>2016-10-04T23:21:34.360Z</time>
</trkpt>
<trkpt lat="-27.0917709" lon="152.9224574">
<ele>16.810</ele>
<time>2016-10-04T23:21:36.344Z</time>
</trkpt>
<trkpt lat="-27.0916561" lon="152.9229280">
<ele>16.683</ele>
<time>2016-10-04T23:21:39.341Z</time>
</trkpt>
<trkpt lat="-27.0915656" lon="152.9232246">
<ele>16.493</ele>
<time>2016-10-04T23:21:41.266Z</time>
</trkpt>
<trkpt lat="-27.0914214" lon="152.9236918">
<ele>16.261</ele>
<time>2016-10-04T23:21:44.284Z</time>
</trkpt>
<trkpt lat="-27.0912312" lon="152.9241357">
<ele>16.002</ele>
<time>2016-10-04T23:21:47.279Z</time>
</trkpt>
<trkpt lat="-27.0910682" lon="152.9244035">
<ele>15.653</ele>
<time>2016-10-04T23:21:49.232Z</time>
</trkpt>
<trkpt lat="-27.0907627" lon="152.9247811">
<ele>15.272</ele>
<time>2016-10-04T23:21:52.254Z</time>
</trkpt>
<trkpt lat="-27.0905479" lon="152.9250288">
<ele>15.063</ele>
<time>2016-10-04T23:21:54.279Z</time>
</trkpt>
<trkpt lat="-27.0903318" lon="152.9252640">
<ele>15.074</ele>
<time>2016-10-04T23:21:56.241Z</time>
</trkpt>
<trkpt lat="-27.0901126" lon="152.9255239">
<ele>15.184</ele>
<time>2016-10-04T23:21:58.292Z</time>
</trkpt>
<trkpt lat="-27.0898927" lon="152.9257804">
<ele>15.243</ele>
<time>2016-10-04T23:22:00.365Z</time>
</trkpt>
<trkpt lat="-27.0895858" lon="152.9261290">
<ele>15.149</ele>
<time>2016-10-04T23:22:03.354Z</time>
</trkpt>
<trkpt lat="-27.0893038" lon="152.9264585">
<ele>14.846</ele>
<time>2016-10-04T23:22:06.359Z</time>
</trkpt>
<trkpt lat="-27.0890340" lon="152.9267575">
<ele>14.282</ele>
<time>2016-10-04T23:22:09.288Z</time>
</trkpt>
<trkpt lat="-27.0888229" lon="152.9269200">
<ele>13.520</ele>
<time>2016-10-04T23:22:11.151Z</time>
</trkpt>
<trkpt lat="-27.0885487" lon="152.9273199">
<ele>12.844</ele>
<time>2016-10-04T23:22:14.124Z</time>
</trkpt>
<trkpt lat="-27.0882140" lon="152.9277519">
<ele>12.720</ele>
<time>2016-10-04T23:22:17.174Z</time>
</trkpt>
<trkpt lat="-27.0880017" lon="152.9280590">
<ele>13.249</ele>
<time>2016-10-04T23:22:19.236Z</time>
</trkpt>
<trkpt lat="-27.0877332" lon="152.9285092">
<ele>13.902</ele>
<time>2016-10-04T23:22:22.161Z</time>
</trkpt>
<trkpt lat="-27.0875610" lon="152.9288080">
<ele>14.031</ele>
<time>2016-10-04T23:22:24.116Z</time>
</trkpt>
<trkpt lat="-27.0872676" lon="152.9292302">
<ele>13.503</ele>
<time>2016-10-04T23:22:27.111Z</time>
</trkpt>
<trkpt lat="-27.0870245" lon="152.9294360">
<ele>12.709</ele>
<time>2016-10-04T23:22:29.043Z</time>
</trkpt>
<trkpt lat="-27.0865774" lon="152.9296545">
<ele>11.969</ele>
<time>2016-10-04T23:22:32.061Z</time>
</trkpt>
<trkpt lat="-27.0862434" lon="152.9297241">
<ele>11.306</ele>
<time>2016-10-04T23:22:34.099Z</time>
</trkpt>
<trkpt lat="-27.0859095" lon="152.9298107">
<ele>10.650</ele>
<time>2016-10-04T23:22:36.175Z</time>
</trkpt>
<trkpt lat="-27.0854432" lon="152.9299012">
<ele>9.845</ele>
<time>2016-10-04T23:22:39.123Z</time>
</trkpt>
<trkpt lat="-27.0851359" lon="152.9299515">
<ele>8.916</ele>
<time>2016-10-04T23:22:41.154Z</time>
</trkpt>
<trkpt lat="-27.0848362" lon="152.9299827">
<ele>8.184</ele>
<time>2016-10-04T23:22:43.143Z</time>
</trkpt>
<trkpt lat="-27.0844069" lon="152.9300799">
<ele>7.862</ele>
<time>2016-10-04T23:22:46.041Z</time>
</trkpt>
<trkpt lat="-27.0839747" lon="152.9301434">
<ele>8.103</ele>
<time>2016-10-04T23:22:48.992Z</time>
</trkpt>
<trkpt lat="-27.0835833" lon="152.9303122">
<ele>8.808</ele>
<time>2016-10-04T23:22:51.959Z</time>
</trkpt>
<trkpt lat="-27.0832899" lon="152.9306354">
<ele>9.476</ele>
<time>2016-10-04T23:22:54.937Z</time>
</trkpt>
<trkpt lat="-27.0831173" lon="152.9310695">
<ele>9.646</ele>
<time>2016-10-04T23:22:57.944Z</time>
</trkpt>
<trkpt lat="-27.0829974" lon="152.9315576">
<ele>9.384</ele>
<time>2016-10-04T23:23:00.962Z</time>
</trkpt>
<trkpt lat="-27.0828636" lon="152.9318890">
<ele>9.059</ele>
<time>2016-10-04T23:23:02.985Z</time>
</trkpt>
<trkpt lat="-27.0826362" lon="152.9323883">
<ele>8.907</ele>
<time>2016-10-04T23:23:06.018Z</time>
</trkpt>
<trkpt lat="-27.0824742" lon="152.9327076">
<ele>8.823</ele>
<time>2016-10-04T23:23:08.070Z</time>
</trkpt>
<trkpt lat="-27.0822540" lon="152.9331429">
<ele>8.660</ele>
<time>2016-10-04T23:23:11.084Z</time>
</trkpt>
<trkpt lat="-27.0821220" lon="152.9333752">
<ele>8.474</ele>
<time>2016-10-04T23:23:12.924Z</time>
</trkpt>
<trkpt lat="-27.0819164" lon="152.9337476">
<ele>8.405</ele>
<time>2016-10-04T23:23:15.963Z</time>
</trkpt>
<trkpt lat="-27.0817846" lon="152.9339826">
<ele>8.922</ele>
<time>2016-10-04T23:23:18.025Z</time>
</trkpt>
<trkpt lat="-27.0816747" lon="152.9341963">
<ele>10.468</ele>
<time>2016-10-04T23:23:20.024Z</time>
</trkpt>
<trkpt lat="-27.0815649" lon="152.9343966">
<ele>12.491</ele>
<time>2016-10-04T23:23:22.086Z</time>
</trkpt>
<trkpt lat="-27.0814652" lon="152.9345778">
<ele>13.962</ele>
<time>2016-10-04T23:23:24.235Z</time>
</trkpt>
<trkpt lat="-27.0814000" lon="152.9347101">
<ele>14.527</ele>
<time>2016-10-04T23:23:26.402Z</time>
</trkpt>
<trkpt lat="-27.0813559" lon="152.9348049">
<ele>14.359</ele>
<time>2016-10-04T23:23:28.407Z</time>
</trkpt>
<trkpt lat="-27.0812935" lon="152.9349068">
<ele>13.799</ele>
<time>2016-10-04T23:23:31.998Z</time>
</trkpt>
<trkpt lat="-27.0812935" lon="152.9349068">
<ele>13.209</ele>
<time>2016-10-04T23:23:35.998Z</time>
</trkpt>
<trkpt lat="-27.0812935" lon="152.9349068">
<ele>12.901</ele>
<time>2016-10-04T23:24:01.428Z</time>
</trkpt>
<trkpt lat="-27.0811927" lon="152.9350451">
<ele>13.004</ele>
<time>2016-10-04T23:24:07.525Z</time>
</trkpt>
<trkpt lat="-27.0811100" lon="152.9351775">
<ele>13.475</ele>
<time>2016-10-04T23:24:09.545Z</time>
</trkpt>
<trkpt lat="-27.0810451" lon="152.9353649">
<ele>14.174</ele>
<time>2016-10-04T23:24:11.463Z</time>
</trkpt>
<trkpt lat="-27.0811430" lon="152.9357053">
<ele>14.988</ele>
<time>2016-10-04T23:24:14.404Z</time>
</trkpt>
<trkpt lat="-27.0812640" lon="152.9359384">
<ele>15.802</ele>
<time>2016-10-04T23:24:16.310Z</time>
</trkpt>
<trkpt lat="-27.0814277" lon="152.9361731">
<ele>16.573</ele>
<time>2016-10-04T23:24:18.270Z</time>
</trkpt>
<trkpt lat="-27.0817527" lon="152.9365110">
<ele>17.281</ele>
<time>2016-10-04T23:24:21.407Z</time>
</trkpt>
<trkpt lat="-27.0819853" lon="152.9367083">
<ele>17.729</ele>
<time>2016-10-04T23:24:23.478Z</time>
</trkpt>
<trkpt lat="-27.0822053" lon="152.9368792">
<ele>17.579</ele>
<time>2016-10-04T23:24:25.423Z</time>
</trkpt>
<trkpt lat="-27.0825301" lon="152.9371291">
<ele>16.866</ele>
<time>2016-10-04T23:24:28.252Z</time>
</trkpt>
<trkpt lat="-27.0827870" lon="152.9373119">
<ele>16.061</ele>
<time>2016-10-04T23:24:30.357Z</time>
</trkpt>
<trkpt lat="-27.0831458" lon="152.9375795">
<ele>15.561</ele>
<time>2016-10-04T23:24:33.355Z</time>
</trkpt>
<trkpt lat="-27.0834236" lon="152.9379298">
<ele>15.140</ele>
<time>2016-10-04T23:24:36.336Z</time>
</trkpt>
<trkpt lat="-27.0836323" lon="152.9383374">
<ele>14.447</ele>
<time>2016-10-04T23:24:39.359Z</time>
</trkpt>
<trkpt lat="-27.0838560" lon="152.9387052">
<ele>13.614</ele>
<time>2016-10-04T23:24:42.257Z</time>
</trkpt>
<trkpt lat="-27.0840332" lon="152.9389362">
<ele>12.962</ele>
<time>2016-10-04T23:24:44.262Z</time>
</trkpt>
<trkpt lat="-27.0842200" lon="152.9391637">
<ele>12.524</ele>
<time>2016-10-04T23:24:46.305Z</time>
</trkpt>
<trkpt lat="-27.0844834" lon="152.9395051">
<ele>12.255</ele>
<time>2016-10-04T23:24:49.445Z</time>
</trkpt>
<trkpt lat="-27.0846770" lon="152.9398358">
<ele>12.112</ele>
<time>2016-10-04T23:24:52.764Z</time>
</trkpt>
<trkpt lat="-27.0847713" lon="152.9400772">
<ele>11.982</ele>
<time>2016-10-04T23:24:55.644Z</time>
</trkpt>
<trkpt lat="-27.0847322" lon="152.9402243">
<ele>11.807</ele>
<time>2016-10-04T23:24:57.494Z</time>
</trkpt>
<trkpt lat="-27.0845804" lon="152.9402884">
<ele>11.771</ele>
<time>2016-10-04T23:24:59.233Z</time>
</trkpt>
<trkpt lat="-27.0842255" lon="152.9403639">
<ele>12.175</ele>
<time>2016-10-04T23:25:02.453Z</time>
</trkpt>
<trkpt lat="-27.0839708" lon="152.9404136">
<ele>13.037</ele>
<time>2016-10-04T23:25:04.417Z</time>
</trkpt>
<trkpt lat="-27.0836984" lon="152.9404764">
<ele>13.942</ele>
<time>2016-10-04T23:25:06.445Z</time>
</trkpt>
<trkpt lat="-27.0832939" lon="152.9405917">
<ele>14.479</ele>
<time>2016-10-04T23:25:09.486Z</time>
</trkpt>
<trkpt lat="-27.0830385" lon="152.9406587">
<ele>14.597</ele>
<time>2016-10-04T23:25:11.445Z</time>
</trkpt>
<trkpt lat="-27.0826417" lon="152.9407554">
<ele>14.396</ele>
<time>2016-10-04T23:25:14.469Z</time>
</trkpt>
<trkpt lat="-27.0823693" lon="152.9408302">
<ele>13.814</ele>
<time>2016-10-04T23:25:16.495Z</time>
</trkpt>
<trkpt lat="-27.0820949" lon="152.9409110">
<ele>12.927</ele>
<time>2016-10-04T23:25:18.537Z</time>
</trkpt>
<trkpt lat="-27.0818377" lon="152.9410068">
<ele>12.140</ele>
<time>2016-10-04T23:25:20.513Z</time>
</trkpt>
<trkpt lat="-27.0814703" lon="152.9411751">
<ele>11.705</ele>
<time>2016-10-04T23:25:23.401Z</time>
</trkpt>
<trkpt lat="-27.0810879" lon="152.9413595">
<ele>11.502</ele>
<time>2016-10-04T23:25:26.400Z</time>
</trkpt>
<trkpt lat="-27.0808531" lon="152.9414808">
<ele>11.397</ele>
<time>2016-10-04T23:25:28.251Z</time>
</trkpt>
<trkpt lat="-27.0804976" lon="152.9417211">
<ele>11.335</ele>
<time>2016-10-04T23:25:31.198Z</time>
</trkpt>
<trkpt lat="-27.0802841" lon="152.9419377">
<ele>11.299</ele>
<time>2016-10-04T23:25:33.191Z</time>
</trkpt>
<trkpt lat="-27.0799853" lon="152.9423188">
<ele>11.312</ele>
<time>2016-10-04T23:25:36.275Z</time>
</trkpt>
<trkpt lat="-27.0798111" lon="152.9425682">
<ele>11.393</ele>
<time>2016-10-04T23:25:38.185Z</time>
</trkpt>
<trkpt lat="-27.0795941" lon="152.9429889">
<ele>11.483</ele>
<time>2016-10-04T23:25:41.070Z</time>
</trkpt>
<trkpt lat="-27.0794528" lon="152.9433078">
<ele>11.483</ele>
<time>2016-10-04T23:25:43.096Z</time>
</trkpt>
<trkpt lat="-27.0793234" lon="152.9436277">
<ele>11.375</ele>
<time>2016-10-04T23:25:45.089Z</time>
</trkpt>
<trkpt lat="-27.0791872" lon="152.9439425">
<ele>11.116</ele>
<time>2016-10-04T23:25:47.162Z</time>
</trkpt>
<trkpt lat="-27.0790249" lon="152.9443733">
<ele>10.687</ele>
<time>2016-10-04T23:25:50.065Z</time>
</trkpt>
<trkpt lat="-27.0789188" lon="152.9446501">
<ele>10.094</ele>
<time>2016-10-04T23:25:52.029Z</time>
</trkpt>
<trkpt lat="-27.0787500" lon="152.9450587">
<ele>9.352</ele>
<time>2016-10-04T23:25:54.987Z</time>
</trkpt>
<trkpt lat="-27.0786598" lon="152.9453422">
<ele>8.651</ele>
<time>2016-10-04T23:25:56.931Z</time>
</trkpt>
<trkpt lat="-27.0785515" lon="152.9456355">
<ele>8.283</ele>
<time>2016-10-04T23:25:58.997Z</time>
</trkpt>
<trkpt lat="-27.0784263" lon="152.9458923">
<ele>8.248</ele>
<time>2016-10-04T23:26:01.071Z</time>
</trkpt>
<trkpt lat="-27.0781659" lon="152.9461338">
<ele>8.242</ele>
<time>2016-10-04T23:26:04.181Z</time>
</trkpt>
<trkpt lat="-27.0780062" lon="152.9461667">
<ele>7.827</ele>
<time>2016-10-04T23:26:06.080Z</time>
</trkpt>
<trkpt lat="-27.0777965" lon="152.9462361">
<ele>7.005</ele>
<time>2016-10-04T23:26:08.795Z</time>
</trkpt>
<trkpt lat="-27.0776853" lon="152.9464180">
<ele>6.385</ele>
<time>2016-10-04T23:26:10.819Z</time>
</trkpt>
<trkpt lat="-27.0774042" lon="152.9467594">
<ele>6.522</ele>
<time>2016-10-04T23:26:14.159Z</time>
</trkpt>
<trkpt lat="-27.0772020" lon="152.9469852">
<ele>7.402</ele>
<time>2016-10-04T23:26:16.235Z</time>
</trkpt>
<trkpt lat="-27.0770166" lon="152.9471923">
<ele>8.497</ele>
<time>2016-10-04T23:26:18.270Z</time>
</trkpt>
<trkpt lat="-27.0767858" lon="152.9474917">
<ele>9.093</ele>
<time>2016-10-04T23:26:21.193Z</time>
</trkpt>
<trkpt lat="-27.0766999" lon="152.9478844">
<ele>8.849</ele>
<time>2016-10-04T23:26:24.321Z</time>
</trkpt>
<trkpt lat="-27.0767249" lon="152.9481403">
<ele>8.108</ele>
<time>2016-10-04T23:26:26.360Z</time>
</trkpt>
<trkpt lat="-27.0767358" lon="152.9485097">
<ele>7.540</ele>
<time>2016-10-04T23:26:29.367Z</time>
</trkpt>
<trkpt lat="-27.0766325" lon="152.9488254">
<ele>7.434</ele>
<time>2016-10-04T23:26:32.308Z</time>
</trkpt>
<trkpt lat="-27.0765236" lon="152.9491004">
<ele>7.463</ele>
<time>2016-10-04T23:26:35.310Z</time>
</trkpt>
<trkpt lat="-27.0764761" lon="152.9492642">
<ele>7.212</ele>
<time>2016-10-04T23:26:37.474Z</time>
</trkpt>
<trkpt lat="-27.0764549" lon="152.9493881">
<ele>6.634</ele>
<time>2016-10-04T23:26:39.660Z</time>
</trkpt>
<trkpt lat="-27.0764133" lon="152.9494988">
<ele>6.003</ele>
<time>2016-10-04T23:26:42.086Z</time>
</trkpt>
<trkpt lat="-27.0763841" lon="152.9495953">
<ele>5.593</ele>
<time>2016-10-04T23:26:43.899Z</time>
</trkpt>
<trkpt lat="-27.0763407" lon="152.9497392">
<ele>5.510</ele>
<time>2016-10-04T23:26:45.969Z</time>
</trkpt>
<trkpt lat="-27.0762702" lon="152.9498938">
<ele>5.788</ele>
<time>2016-10-04T23:26:47.889Z</time>
</trkpt>
<trkpt lat="-27.0759673" lon="152.9498967">
<ele>6.350</ele>
<time>2016-10-04T23:26:50.910Z</time>
</trkpt>
<trkpt lat="-27.0756970" lon="152.9497930">
<ele>7.272</ele>
<time>2016-10-04T23:26:53.120Z</time>
</trkpt>
<trkpt lat="-27.0752986" lon="152.9496784">
<ele>8.541</ele>
<time>2016-10-04T23:26:56.251Z</time>
</trkpt>
<trkpt lat="-27.0749493" lon="152.9495694">
<ele>9.450</ele>
<time>2016-10-04T23:26:59.136Z</time>
</trkpt>
<trkpt lat="-27.0745814" lon="152.9494473">
<ele>9.455</ele>
<time>2016-10-04T23:27:02.195Z</time>
</trkpt>
<trkpt lat="-27.0742092" lon="152.9493384">
<ele>8.970</ele>
<time>2016-10-04T23:27:05.270Z</time>
</trkpt>
<trkpt lat="-27.0739806" lon="152.9492886">
<ele>8.494</ele>
<time>2016-10-04T23:27:07.218Z</time>
</trkpt>
<trkpt lat="-27.0737576" lon="152.9492281">
<ele>8.136</ele>
<time>2016-10-04T23:27:09.202Z</time>
</trkpt>
<trkpt lat="-27.0735372" lon="152.9491662">
<ele>7.867</ele>
<time>2016-10-04T23:27:11.243Z</time>
</trkpt>
<trkpt lat="-27.0733189" lon="152.9491427">
<ele>7.640</ele>
<time>2016-10-04T23:27:13.345Z</time>
</trkpt>
<trkpt lat="-27.0730406" lon="152.9490489">
<ele>7.441</ele>
<time>2016-10-04T23:27:16.255Z</time>
</trkpt>
<trkpt lat="-27.0727598" lon="152.9489461">
<ele>7.350</ele>
<time>2016-10-04T23:27:19.230Z</time>
</trkpt>
<trkpt lat="-27.0725554" lon="152.9488790">
<ele>7.482</ele>
<time>2016-10-04T23:27:21.317Z</time>
</trkpt>
<trkpt lat="-27.0722523" lon="152.9487689">
<ele>7.906</ele>
<time>2016-10-04T23:27:24.776Z</time>
</trkpt>
<trkpt lat="-27.0721370" lon="152.9487308">
<ele>8.499</ele>
<time>2016-10-04T23:27:26.734Z</time>
</trkpt>
<trkpt lat="-27.0719958" lon="152.9487402">
<ele>8.845</ele>
<time>2016-10-04T23:27:28.934Z</time>
</trkpt>
<trkpt lat="-27.0718665" lon="152.9489840">
<ele>8.733</ele>
<time>2016-10-04T23:27:32.108Z</time>
</trkpt>
<trkpt lat="-27.0718263" lon="152.9491870">
<ele>8.671</ele>
<time>2016-10-04T23:27:34.020Z</time>
</trkpt>
<trkpt lat="-27.0716940" lon="152.9494904">
<ele>9.082</ele>
<time>2016-10-04T23:27:36.928Z</time>
</trkpt>
<trkpt lat="-27.0713765" lon="152.9497157">
<ele>9.638</ele>
<time>2016-10-04T23:27:40.196Z</time>
</trkpt>
<trkpt lat="-27.0711864" lon="152.9498509">
<ele>9.918</ele>
<time>2016-10-04T23:27:42.271Z</time>
</trkpt>
<trkpt lat="-27.0709362" lon="152.9500071">
<ele>9.691</ele>
<time>2016-10-04T23:27:45.354Z</time>
</trkpt>
<trkpt lat="-27.0708063" lon="152.9500682">
<ele>8.924</ele>
<time>2016-10-04T23:27:47.252Z</time>
</trkpt>
<trkpt lat="-27.0706888" lon="152.9501158">
<ele>8.059</ele>
<time>2016-10-04T23:27:48.903Z</time>
</trkpt>
<trkpt lat="-27.0704513" lon="152.9502034">
<ele>7.539</ele>
<time>2016-10-04T23:27:51.749Z</time>
</trkpt>
<trkpt lat="-27.0700986" lon="152.9503148">
<ele>7.715</ele>
<time>2016-10-04T23:27:55.020Z</time>
</trkpt>
<trkpt lat="-27.0697445" lon="152.9504709">
<ele>8.627</ele>
<time>2016-10-04T23:27:58.052Z</time>
</trkpt>
<trkpt lat="-27.0695068" lon="152.9505975">
<ele>9.620</ele>
<time>2016-10-04T23:28:00.061Z</time>
</trkpt>
<trkpt lat="-27.0692736" lon="152.9507298">
<ele>10.052</ele>
<time>2016-10-04T23:28:02.050Z</time>
</trkpt>
<trkpt lat="-27.0689214" lon="152.9509456">
<ele>9.967</ele>
<time>2016-10-04T23:28:05.092Z</time>
</trkpt>
<trkpt lat="-27.0685664" lon="152.9511628">
<ele>9.723</ele>
<time>2016-10-04T23:28:08.066Z</time>
</trkpt>
<trkpt lat="-27.0683253" lon="152.9513278">
<ele>9.578</ele>
<time>2016-10-04T23:28:10.081Z</time>
</trkpt>
<trkpt lat="-27.0680977" lon="152.9515131">
<ele>9.478</ele>
<time>2016-10-04T23:28:12.109Z</time>
</trkpt>
<trkpt lat="-27.0678788" lon="152.9517006">
<ele>9.334</ele>
<time>2016-10-04T23:28:14.230Z</time>
</trkpt>
<trkpt lat="-27.0675932" lon="152.9519317">
<ele>9.194</ele>
<time>2016-10-04T23:28:17.183Z</time>
</trkpt>
<trkpt lat="-27.0674305" lon="152.9520798">
<ele>9.257</ele>
<time>2016-10-04T23:28:18.950Z</time>
</trkpt>
<trkpt lat="-27.0671055" lon="152.9523530">
<ele>9.587</ele>
<time>2016-10-04T23:28:21.964Z</time>
</trkpt>
<trkpt lat="-27.0667202" lon="152.9527166">
<ele>10.048</ele>
<time>2016-10-04T23:28:25.113Z</time>
</trkpt>
<trkpt lat="-27.0664580" lon="152.9529588">
<ele>10.751</ele>
<time>2016-10-04T23:28:27.155Z</time>
</trkpt>
<trkpt lat="-27.0662034" lon="152.9531908">
<ele>11.923</ele>
<time>2016-10-04T23:28:29.231Z</time>
</trkpt>
<trkpt lat="-27.0658807" lon="152.9534741">
<ele>13.028</ele>
<time>2016-10-04T23:28:32.009Z</time>
</trkpt>
<trkpt lat="-27.0655432" lon="152.9537511">
<ele>13.090</ele>
<time>2016-10-04T23:28:35.059Z</time>
</trkpt>
<trkpt lat="-27.0653335" lon="152.9539343">
<ele>12.060</ele>
<time>2016-10-04T23:28:37.046Z</time>
</trkpt>
<trkpt lat="-27.0651277" lon="152.9541301">
<ele>10.663</ele>
<time>2016-10-04T23:28:39.024Z</time>
</trkpt>
<trkpt lat="-27.0647978" lon="152.9544512">
<ele>9.452</ele>
<time>2016-10-04T23:28:42.080Z</time>
</trkpt>
<trkpt lat="-27.0645610" lon="152.9546658">
<ele>8.810</ele>
<time>2016-10-04T23:28:44.085Z</time>
</trkpt>
<trkpt lat="-27.0641903" lon="152.9549878">
<ele>8.897</ele>
<time>2016-10-04T23:28:47.118Z</time>
</trkpt>
<trkpt lat="-27.0638275" lon="152.9553156">
<ele>9.361</ele>
<time>2016-10-04T23:28:50.121Z</time>
</trkpt>
<trkpt lat="-27.0635914" lon="152.9555511">
<ele>9.772</ele>
<time>2016-10-04T23:28:52.189Z</time>
</trkpt>
<trkpt lat="-27.0632583" lon="152.9558799">
<ele>9.965</ele>
<time>2016-10-04T23:28:55.149Z</time>
</trkpt>
<trkpt lat="-27.0630337" lon="152.9561039">
<ele>10.094</ele>
<time>2016-10-04T23:28:57.107Z</time>
</trkpt>
<trkpt lat="-27.0627726" lon="152.9563257">
<ele>10.326</ele>
<time>2016-10-04T23:28:59.103Z</time>
</trkpt>
<trkpt lat="-27.0623507" lon="152.9566767">
<ele>10.679</ele>
<time>2016-10-04T23:29:02.136Z</time>
</trkpt>
<trkpt lat="-27.0620263" lon="152.9569231">
<ele>11.134</ele>
<time>2016-10-04T23:29:04.318Z</time>
</trkpt>
<trkpt lat="-27.0616156" lon="152.9572728">
<ele>11.618</ele>
<time>2016-10-04T23:29:07.224Z</time>
</trkpt>
<trkpt lat="-27.0612072" lon="152.9576013">
<ele>11.933</ele>
<time>2016-10-04T23:29:10.163Z</time>
</trkpt>
<trkpt lat="-27.0607906" lon="152.9579150">
<ele>11.783</ele>
<time>2016-10-04T23:29:13.184Z</time>
</trkpt>
<trkpt lat="-27.0603869" lon="152.9582132">
<ele>11.056</ele>
<time>2016-10-04T23:29:16.112Z</time>
</trkpt>
<trkpt lat="-27.0600959" lon="152.9584229">
<ele>10.175</ele>
<time>2016-10-04T23:29:18.177Z</time>
</trkpt>
<trkpt lat="-27.0596443" lon="152.9587011">
<ele>9.575</ele>
<time>2016-10-04T23:29:21.177Z</time>
</trkpt>
<trkpt lat="-27.0593267" lon="152.9588230">
<ele>9.269</ele>
<time>2016-10-04T23:29:23.070Z</time>
</trkpt>
<trkpt lat="-27.0587927" lon="152.9589857">
<ele>9.152</ele>
<time>2016-10-04T23:29:26.142Z</time>
</trkpt>
<trkpt lat="-27.0584334" lon="152.9590587">
<ele>9.143</ele>
<time>2016-10-04T23:29:28.165Z</time>
</trkpt>
<trkpt lat="-27.0580858" lon="152.9591300">
<ele>9.156</ele>
<time>2016-10-04T23:29:30.212Z</time>
</trkpt>
<trkpt lat="-27.0576128" lon="152.9592085">
<ele>9.080</ele>
<time>2016-10-04T23:29:33.115Z</time>
</trkpt>
<trkpt lat="-27.0572960" lon="152.9592511">
<ele>8.821</ele>
<time>2016-10-04T23:29:35.097Z</time>
</trkpt>
<trkpt lat="-27.0569650" lon="152.9593086">
<ele>8.489</ele>
<time>2016-10-04T23:29:37.134Z</time>
</trkpt>
<trkpt lat="-27.0566332" lon="152.9593637">
<ele>8.272</ele>
<time>2016-10-04T23:29:39.144Z</time>
</trkpt>
<trkpt lat="-27.0561535" lon="152.9594827">
<ele>8.163</ele>
<time>2016-10-04T23:29:42.066Z</time>
</trkpt>
<trkpt lat="-27.0558290" lon="152.9596046">
<ele>8.039</ele>
<time>2016-10-04T23:29:44.062Z</time>
</trkpt>
<trkpt lat="-27.0555070" lon="152.9597479">
<ele>7.914</ele>
<time>2016-10-04T23:29:45.996Z</time>
</trkpt>
<trkpt lat="-27.0550146" lon="152.9600859">
<ele>7.988</ele>
<time>2016-10-04T23:29:49.060Z</time>
</trkpt>
<trkpt lat="-27.0547072" lon="152.9603808">
<ele>8.308</ele>
<time>2016-10-04T23:29:51.124Z</time>
</trkpt>
<trkpt lat="-27.0543025" lon="152.9608600">
<ele>8.600</ele>
<time>2016-10-04T23:29:54.125Z</time>
</trkpt>
<trkpt lat="-27.0540575" lon="152.9611916">
<ele>8.604</ele>
<time>2016-10-04T23:29:56.128Z</time>
</trkpt>
<trkpt lat="-27.0537413" lon="152.9617038">
<ele>8.373</ele>
<time>2016-10-04T23:29:59.081Z</time>
</trkpt>
<trkpt lat="-27.0534440" lon="152.9622524">
<ele>7.949</ele>
<time>2016-10-04T23:30:02.134Z</time>
</trkpt>
<trkpt lat="-27.0532431" lon="152.9626186">
<ele>7.334</ele>
<time>2016-10-04T23:30:04.123Z</time>
</trkpt>
<trkpt lat="-27.0529962" lon="152.9629697">
<ele>6.649</ele>
<time>2016-10-04T23:30:06.184Z</time>
</trkpt>
<trkpt lat="-27.0526042" lon="152.9634245">
<ele>6.025</ele>
<time>2016-10-04T23:30:09.208Z</time>
</trkpt>
<trkpt lat="-27.0523646" lon="152.9636874">
<ele>5.500</ele>
<time>2016-10-04T23:30:11.222Z</time>
</trkpt>
<trkpt lat="-27.0520579" lon="152.9640577">
<ele>4.959</ele>
<time>2016-10-04T23:30:14.211Z</time>
</trkpt>
<trkpt lat="-27.0518630" lon="152.9644580">
<ele>4.309</ele>
<time>2016-10-04T23:30:17.307Z</time>
</trkpt>
<trkpt lat="-27.0516783" lon="152.9647695">
<ele>3.620</ele>
<time>2016-10-04T23:30:20.153Z</time>
</trkpt>
<trkpt lat="-27.0513404" lon="152.9649155">
<ele>2.970</ele>
<time>2016-10-04T23:30:23.291Z</time>
</trkpt>
<trkpt lat="-27.0511277" lon="152.9650514">
<ele>2.544</ele>
<time>2016-10-04T23:30:25.196Z</time>
</trkpt>
<trkpt lat="-27.0509023" lon="152.9652730">
<ele>2.519</ele>
<time>2016-10-04T23:30:27.141Z</time>
</trkpt>
<trkpt lat="-27.0504535" lon="152.9656705">
<ele>2.742</ele>
<time>2016-10-04T23:30:30.370Z</time>
</trkpt>
<trkpt lat="-27.0501764" lon="152.9659384">
<ele>3.496</ele>
<time>2016-10-04T23:30:32.413Z</time>
</trkpt>
<trkpt lat="-27.0497935" lon="152.9663235">
<ele>5.001</ele>
<time>2016-10-04T23:30:35.403Z</time>
</trkpt>
<trkpt lat="-27.0493871" lon="152.9666636">
<ele>6.464</ele>
<time>2016-10-04T23:30:38.390Z</time>
</trkpt>
<trkpt lat="-27.0491025" lon="152.9668700">
<ele>7.102</ele>
<time>2016-10-04T23:30:40.337Z</time>
</trkpt>
<trkpt lat="-27.0486236" lon="152.9671238">
<ele>7.113</ele>
<time>2016-10-04T23:30:43.316Z</time>
</trkpt>
<trkpt lat="-27.0482832" lon="152.9672982">
<ele>7.107</ele>
<time>2016-10-04T23:30:45.384Z</time>
</trkpt>
<trkpt lat="-27.0477928" lon="152.9675362">
<ele>7.476</ele>
<time>2016-10-04T23:30:48.319Z</time>
</trkpt>
<trkpt lat="-27.0474308" lon="152.9676625">
<ele>8.054</ele>
<time>2016-10-04T23:30:50.346Z</time>
</trkpt>
<trkpt lat="-27.0470471" lon="152.9677539">
<ele>8.610</ele>
<time>2016-10-04T23:30:52.421Z</time>
</trkpt>
<trkpt lat="-27.0464801" lon="152.9678589">
<ele>9.085</ele>
<time>2016-10-04T23:30:55.487Z</time>
</trkpt>
<trkpt lat="-27.0461099" lon="152.9679234">
<ele>9.281</ele>
<time>2016-10-04T23:30:57.523Z</time>
</trkpt>
<trkpt lat="-27.0455931" lon="152.9680811">
<ele>9.109</ele>
<time>2016-10-04T23:31:00.457Z</time>
</trkpt>
<trkpt lat="-27.0450856" lon="152.9682815">
<ele>8.805</ele>
<time>2016-10-04T23:31:03.375Z</time>
</trkpt>
<trkpt lat="-27.0446051" lon="152.9686180">
<ele>8.612</ele>
<time>2016-10-04T23:31:06.359Z</time>
</trkpt>
<trkpt lat="-27.0442804" lon="152.9688706">
<ele>8.750</ele>
<time>2016-10-04T23:31:08.406Z</time>
</trkpt>
<trkpt lat="-27.0438052" lon="152.9692425">
<ele>9.302</ele>
<time>2016-10-04T23:31:11.417Z</time>
</trkpt>
<trkpt lat="-27.0434933" lon="152.9694854">
<ele>9.942</ele>
<time>2016-10-04T23:31:13.386Z</time>
</trkpt>
<trkpt lat="-27.0430849" lon="152.9699638">
<ele>10.324</ele>
<time>2016-10-04T23:31:16.370Z</time>
</trkpt>
<trkpt lat="-27.0427657" lon="152.9705724">
<ele>10.446</ele>
<time>2016-10-04T23:31:19.411Z</time>
</trkpt>
<trkpt lat="-27.0425845" lon="152.9710017">
<ele>10.842</ele>
<time>2016-10-04T23:31:21.429Z</time>
</trkpt>
<trkpt lat="-27.0423402" lon="152.9716271">
<ele>12.075</ele>
<time>2016-10-04T23:31:24.394Z</time>
</trkpt>
<trkpt lat="-27.0421073" lon="152.9722415">
<ele>13.960</ele>
<time>2016-10-04T23:31:27.403Z</time>
</trkpt>
<trkpt lat="-27.0418927" lon="152.9728441">
<ele>15.909</ele>
<time>2016-10-04T23:31:30.374Z</time>
</trkpt>
<trkpt lat="-27.0416402" lon="152.9734492">
<ele>17.842</ele>
<time>2016-10-04T23:31:33.384Z</time>
</trkpt>
<trkpt lat="-27.0414201" lon="152.9738405">
<ele>19.869</ele>
<time>2016-10-04T23:31:35.411Z</time>
</trkpt>
<trkpt lat="-27.0410156" lon="152.9743760">
<ele>21.820</ele>
<time>2016-10-04T23:31:38.479Z</time>
</trkpt>
<trkpt lat="-27.0407399" lon="152.9747040">
<ele>23.897</ele>
<time>2016-10-04T23:31:40.542Z</time>
</trkpt>
<trkpt lat="-27.0405010" lon="152.9750137">
<ele>26.323</ele>
<time>2016-10-04T23:31:42.576Z</time>
</trkpt>
<trkpt lat="-27.0401955" lon="152.9754714">
<ele>28.319</ele>
<time>2016-10-04T23:31:45.542Z</time>
</trkpt>
<trkpt lat="-27.0400281" lon="152.9757976">
<ele>29.370</ele>
<time>2016-10-04T23:31:47.504Z</time>
</trkpt>
<trkpt lat="-27.0398885" lon="152.9761543">
<ele>29.870</ele>
<time>2016-10-04T23:31:49.507Z</time>
</trkpt>
<trkpt lat="-27.0397231" lon="152.9767059">
<ele>30.274</ele>
<time>2016-10-04T23:31:52.467Z</time>
</trkpt>
<trkpt lat="-27.0396329" lon="152.9773064">
<ele>30.836</ele>
<time>2016-10-04T23:31:55.520Z</time>
</trkpt>
<trkpt lat="-27.0395937" lon="152.9777130">
<ele>31.555</ele>
<time>2016-10-04T23:31:57.568Z</time>
</trkpt>
<trkpt lat="-27.0396042" lon="152.9781115">
<ele>32.248</ele>
<time>2016-10-04T23:31:59.550Z</time>
</trkpt>
<trkpt lat="-27.0396958" lon="152.9787125">
<ele>32.784</ele>
<time>2016-10-04T23:32:02.535Z</time>
</trkpt>
<trkpt lat="-27.0397961" lon="152.9793351">
<ele>33.135</ele>
<time>2016-10-04T23:32:05.590Z</time>
</trkpt>
<trkpt lat="-27.0399122" lon="152.9799383">
<ele>33.364</ele>
<time>2016-10-04T23:32:08.566Z</time>
</trkpt>
<trkpt lat="-27.0400203" lon="152.9805435">
<ele>33.371</ele>
<time>2016-10-04T23:32:11.544Z</time>
</trkpt>
<trkpt lat="-27.0400906" lon="152.9809464">
<ele>32.903</ele>
<time>2016-10-04T23:32:13.552Z</time>
</trkpt>
<trkpt lat="-27.0401570" lon="152.9815285">
<ele>32.065</ele>
<time>2016-10-04T23:32:16.518Z</time>
</trkpt>
<trkpt lat="-27.0401477" lon="152.9818965">
<ele>31.060</ele>
<time>2016-10-04T23:32:18.531Z</time>
</trkpt>
<trkpt lat="-27.0401289" lon="152.9822440">
<ele>29.806</ele>
<time>2016-10-04T23:32:20.542Z</time>
</trkpt>
<trkpt lat="-27.0401140" lon="152.9825793">
<ele>28.506</ele>
<time>2016-10-04T23:32:22.522Z</time>
</trkpt>
<trkpt lat="-27.0401106" lon="152.9829162">
<ele>27.664</ele>
<time>2016-10-04T23:32:24.463Z</time>
</trkpt>
<trkpt lat="-27.0400728" lon="152.9834485">
<ele>27.363</ele>
<time>2016-10-04T23:32:27.402Z</time>
</trkpt>
<trkpt lat="-27.0400644" lon="152.9838344">
<ele>27.333</ele>
<time>2016-10-04T23:32:29.372Z</time>
</trkpt>
<trkpt lat="-27.0400351" lon="152.9844420">
<ele>27.334</ele>
<time>2016-10-04T23:32:32.427Z</time>
</trkpt>
<trkpt lat="-27.0400022" lon="152.9850263">
<ele>27.255</ele>
<time>2016-10-04T23:32:35.398Z</time>
</trkpt>
<trkpt lat="-27.0399774" lon="152.9854169">
<ele>26.898</ele>
<time>2016-10-04T23:32:37.403Z</time>
</trkpt>
<trkpt lat="-27.0399668" lon="152.9858064">
<ele>26.239</ele>
<time>2016-10-04T23:32:39.365Z</time>
</trkpt>
<trkpt lat="-27.0399545" lon="152.9862167">
<ele>25.675</ele>
<time>2016-10-04T23:32:41.376Z</time>
</trkpt>
<trkpt lat="-27.0399177" lon="152.9868397">
<ele>25.540</ele>
<time>2016-10-04T23:32:44.407Z</time>
</trkpt>
<trkpt lat="-27.0398912" lon="152.9872514">
<ele>25.868</ele>
<time>2016-10-04T23:32:46.480Z</time>
</trkpt>
<trkpt lat="-27.0398423" lon="152.9877898">
<ele>26.464</ele>
<time>2016-10-04T23:32:49.269Z</time>
</trkpt>
<trkpt lat="-27.0398300" lon="152.9881778">
<ele>26.734</ele>
<time>2016-10-04T23:32:51.241Z</time>
</trkpt>
<trkpt lat="-27.0398007" lon="152.9887969">
<ele>26.174</ele>
<time>2016-10-04T23:32:54.213Z</time>
</trkpt>
<trkpt lat="-27.0398008" lon="152.9894842">
<ele>25.113</ele>
<time>2016-10-04T23:32:57.254Z</time>
</trkpt>
<trkpt lat="-27.0398528" lon="152.9899567">
<ele>24.421</ele>
<time>2016-10-04T23:32:59.262Z</time>
</trkpt>
<trkpt lat="-27.0399821" lon="152.9906703">
<ele>24.546</ele>
<time>2016-10-04T23:33:02.307Z</time>
</trkpt>
<trkpt lat="-27.0401222" lon="152.9913595">
<ele>25.274</ele>
<time>2016-10-04T23:33:05.270Z</time>
</trkpt>
<trkpt lat="-27.0402436" lon="152.9920525">
<ele>26.193</ele>
<time>2016-10-04T23:33:08.210Z</time>
</trkpt>
<trkpt lat="-27.0403115" lon="152.9925254">
<ele>26.950</ele>
<time>2016-10-04T23:33:10.139Z</time>
</trkpt>
<trkpt lat="-27.0403930" lon="152.9930328">
<ele>27.438</ele>
<time>2016-10-04T23:33:12.187Z</time>
</trkpt>
<trkpt lat="-27.0405126" lon="152.9937844">
<ele>27.773</ele>
<time>2016-10-04T23:33:15.236Z</time>
</trkpt>
<trkpt lat="-27.0405933" lon="152.9942612">
<ele>27.849</ele>
<time>2016-10-04T23:33:17.185Z</time>
</trkpt>
<trkpt lat="-27.0407211" lon="152.9950052">
<ele>27.527</ele>
<time>2016-10-04T23:33:20.219Z</time>
</trkpt>
<trkpt lat="-27.0408024" lon="152.9955004">
<ele>27.062</ele>
<time>2016-10-04T23:33:22.248Z</time>
</trkpt>
<trkpt lat="-27.0409269" lon="152.9962235">
<ele>26.744</ele>
<time>2016-10-04T23:33:25.249Z</time>
</trkpt>
<trkpt lat="-27.0410064" lon="152.9966939">
<ele>26.397</ele>
<time>2016-10-04T23:33:27.229Z</time>
</trkpt>
<trkpt lat="-27.0410954" lon="152.9971629">
<ele>25.691</ele>
<time>2016-10-04T23:33:29.251Z</time>
</trkpt>
<trkpt lat="-27.0412247" lon="152.9978322">
<ele>24.757</ele>
<time>2016-10-04T23:33:32.196Z</time>
</trkpt>
<trkpt lat="-27.0412788" lon="152.9982731">
<ele>23.904</ele>
<time>2016-10-04T23:33:34.100Z</time>
</trkpt>
<trkpt lat="-27.0412040" lon="152.9990089">
<ele>23.221</ele>
<time>2016-10-04T23:33:37.151Z</time>
</trkpt>
<trkpt lat="-27.0410229" lon="152.9997605">
<ele>22.948</ele>
<time>2016-10-04T23:33:40.254Z</time>
</trkpt>
<trkpt lat="-27.0409040" lon="153.0002198">
<ele>23.417</ele>
<time>2016-10-04T23:33:42.187Z</time>
</trkpt>
<trkpt lat="-27.0407557" lon="153.0009219">
<ele>24.373</ele>
<time>2016-10-04T23:33:45.112Z</time>
</trkpt>
<trkpt lat="-27.0405668" lon="153.0016543">
<ele>24.835</ele>
<time>2016-10-04T23:33:48.151Z</time>
</trkpt>
<trkpt lat="-27.0404529" lon="153.0021530">
<ele>24.287</ele>
<time>2016-10-04T23:33:50.165Z</time>
</trkpt>
<trkpt lat="-27.0402060" lon="153.0028630">
<ele>23.388</ele>
<time>2016-10-04T23:33:53.088Z</time>
</trkpt>
<trkpt lat="-27.0398032" lon="153.0035715">
<ele>22.743</ele>
<time>2016-10-04T23:33:56.174Z</time>
</trkpt>
<trkpt lat="-27.0395157" lon="153.0040223">
<ele>22.306</ele>
<time>2016-10-04T23:33:58.101Z</time>
</trkpt>
<trkpt lat="-27.0390450" lon="153.0047544">
<ele>22.048</ele>
<time>2016-10-04T23:34:01.110Z</time>
</trkpt>
<trkpt lat="-27.0387074" lon="153.0052674">
<ele>22.154</ele>
<time>2016-10-04T23:34:03.192Z</time>
</trkpt>
<trkpt lat="-27.0382338" lon="153.0059844">
<ele>22.632</ele>
<time>2016-10-04T23:34:06.176Z</time>
</trkpt>
<trkpt lat="-27.0379300" lon="153.0064376">
<ele>22.847</ele>
<time>2016-10-04T23:34:08.124Z</time>
</trkpt>
<trkpt lat="-27.0376136" lon="153.0069093">
<ele>22.222</ele>
<time>2016-10-04T23:34:10.162Z</time>
</trkpt>
<trkpt lat="-27.0371565" lon="153.0076090">
<ele>21.180</ele>
<time>2016-10-04T23:34:13.196Z</time>
</trkpt>
<trkpt lat="-27.0368699" lon="153.0080457">
<ele>20.435</ele>
<time>2016-10-04T23:34:15.182Z</time>
</trkpt>
<trkpt lat="-27.0364522" lon="153.0086745">
<ele>20.041</ele>
<time>2016-10-04T23:34:18.137Z</time>
</trkpt>
<trkpt lat="-27.0361758" lon="153.0090926">
<ele>19.348</ele>
<time>2016-10-04T23:34:20.122Z</time>
</trkpt>
<trkpt lat="-27.0357514" lon="153.0097218">
<ele>18.078</ele>
<time>2016-10-04T23:34:23.141Z</time>
</trkpt>
<trkpt lat="-27.0354893" lon="153.0101280">
<ele>16.906</ele>
<time>2016-10-04T23:34:25.093Z</time>
</trkpt>
<trkpt lat="-27.0352774" lon="153.0105643">
<ele>16.206</ele>
<time>2016-10-04T23:34:27.021Z</time>
</trkpt>
<trkpt lat="-27.0349917" lon="153.0113048">
<ele>15.669</ele>
<time>2016-10-04T23:34:30.085Z</time>
</trkpt>
<trkpt lat="-27.0347292" lon="153.0120672">
<ele>15.248</ele>
<time>2016-10-04T23:34:33.131Z</time>
</trkpt>
<trkpt lat="-27.0344501" lon="153.0127866">
<ele>15.037</ele>
<time>2016-10-04T23:34:36.089Z</time>
</trkpt>
<trkpt lat="-27.0342349" lon="153.0132509">
<ele>14.602</ele>
<time>2016-10-04T23:34:38.073Z</time>
</trkpt>
<trkpt lat="-27.0340184" lon="153.0137100">
<ele>13.487</ele>
<time>2016-10-04T23:34:40.011Z</time>
</trkpt>
<trkpt lat="-27.0336710" lon="153.0144357">
<ele>12.122</ele>
<time>2016-10-04T23:34:43.058Z</time>
</trkpt>
<trkpt lat="-27.0334482" lon="153.0149014">
<ele>11.345</ele>
<time>2016-10-04T23:34:45.043Z</time>
</trkpt>
<trkpt lat="-27.0331271" lon="153.0155820">
<ele>11.301</ele>
<time>2016-10-04T23:34:48.017Z</time>
</trkpt>
<trkpt lat="-27.0327408" lon="153.0161943">
<ele>11.571</ele>
<time>2016-10-04T23:34:51.001Z</time>
</trkpt>
<trkpt lat="-27.0322838" lon="153.0167445">
<ele>12.347</ele>
<time>2016-10-04T23:34:54.002Z</time>
</trkpt>
<trkpt lat="-27.0317805" lon="153.0172669">
<ele>14.338</ele>
<time>2016-10-04T23:34:57.053Z</time>
</trkpt>
<trkpt lat="-27.0313809" lon="153.0178608">
<ele>17.317</ele>
<time>2016-10-04T23:34:59.974Z</time>
</trkpt>
<trkpt lat="-27.0311227" lon="153.0186173">
<ele>20.029</ele>
<time>2016-10-04T23:35:02.989Z</time>
</trkpt>
<trkpt lat="-27.0309945" lon="153.0192087">
<ele>21.730</ele>
<time>2016-10-04T23:35:05.087Z</time>
</trkpt>
<trkpt lat="-27.0308822" lon="153.0197863">
<ele>22.577</ele>
<time>2016-10-04T23:35:07.111Z</time>
</trkpt>
<trkpt lat="-27.0307475" lon="153.0203162">
<ele>22.548</ele>
<time>2016-10-04T23:35:09.064Z</time>
</trkpt>
<trkpt lat="-27.0306170" lon="153.0208429">
<ele>21.418</ele>
<time>2016-10-04T23:35:11.062Z</time>
</trkpt>
<trkpt lat="-27.0304889" lon="153.0213629">
<ele>19.570</ele>
<time>2016-10-04T23:35:13.049Z</time>
</trkpt>
<trkpt lat="-27.0303007" lon="153.0221546">
<ele>17.712</ele>
<time>2016-10-04T23:35:16.069Z</time>
</trkpt>
<trkpt lat="-27.0301205" lon="153.0229315">
<ele>16.418</ele>
<time>2016-10-04T23:35:19.048Z</time>
</trkpt>
<trkpt lat="-27.0300004" lon="153.0234514">
<ele>15.670</ele>
<time>2016-10-04T23:35:21.062Z</time>
</trkpt>
<trkpt lat="-27.0298298" lon="153.0242116">
<ele>14.897</ele>
<time>2016-10-04T23:35:24.021Z</time>
</trkpt>
<trkpt lat="-27.0297753" lon="153.0247388">
<ele>14.009</ele>
<time>2016-10-04T23:35:26.006Z</time>
</trkpt>
<trkpt lat="-27.0298323" lon="153.0255604">
<ele>13.477</ele>
<time>2016-10-04T23:35:29.022Z</time>
</trkpt>
<trkpt lat="-27.0299399" lon="153.0263828">
<ele>13.729</ele>
<time>2016-10-04T23:35:32.007Z</time>
</trkpt>
<trkpt lat="-27.0300209" lon="153.0269330">
<ele>14.631</ele>
<time>2016-10-04T23:35:33.989Z</time>
</trkpt>
<trkpt lat="-27.0300983" lon="153.0274968">
<ele>15.712</ele>
<time>2016-10-04T23:35:36.007Z</time>
</trkpt>
<trkpt lat="-27.0301721" lon="153.0280589">
<ele>16.427</ele>
<time>2016-10-04T23:35:38.023Z</time>
</trkpt>
<trkpt lat="-27.0302833" lon="153.0288788">
<ele>16.435</ele>
<time>2016-10-04T23:35:40.955Z</time>
</trkpt>
<trkpt lat="-27.0303959" lon="153.0297461">
<ele>15.761</ele>
<time>2016-10-04T23:35:44.002Z</time>
</trkpt>
<trkpt lat="-27.0305144" lon="153.0306141">
<ele>14.782</ele>
<time>2016-10-04T23:35:47.038Z</time>
</trkpt>
<trkpt lat="-27.0305752" lon="153.0314738">
<ele>13.827</ele>
<time>2016-10-04T23:35:50.056Z</time>
</trkpt>
<trkpt lat="-27.0305871" lon="153.0320419">
<ele>13.115</ele>
<time>2016-10-04T23:35:52.032Z</time>
</trkpt>
<trkpt lat="-27.0306300" lon="153.0329040">
<ele>12.579</ele>
<time>2016-10-04T23:35:54.986Z</time>
</trkpt>
<trkpt lat="-27.0306699" lon="153.0337857">
<ele>12.105</ele>
<time>2016-10-04T23:35:57.980Z</time>
</trkpt>
<trkpt lat="-27.0306989" lon="153.0343663">
<ele>11.416</ele>
<time>2016-10-04T23:35:59.953Z</time>
</trkpt>
<trkpt lat="-27.0307350" lon="153.0349564">
<ele>10.340</ele>
<time>2016-10-04T23:36:01.948Z</time>
</trkpt>
<trkpt lat="-27.0307798" lon="153.0358518">
<ele>9.153</ele>
<time>2016-10-04T23:36:04.976Z</time>
</trkpt>
<trkpt lat="-27.0308230" lon="153.0367279">
<ele>8.234</ele>
<time>2016-10-04T23:36:08.009Z</time>
</trkpt>
<trkpt lat="-27.0308625" lon="153.0375509">
<ele>7.461</ele>
<time>2016-10-04T23:36:10.993Z</time>
</trkpt>
<trkpt lat="-27.0308830" lon="153.0380785">
<ele>6.531</ele>
<time>2016-10-04T23:36:13.015Z</time>
</trkpt>
<trkpt lat="-27.0309860" lon="153.0388183">
<ele>5.289</ele>
<time>2016-10-04T23:36:15.960Z</time>
</trkpt>
<trkpt lat="-27.0312393" lon="153.0395107">
<ele>3.642</ele>
<time>2016-10-04T23:36:18.900Z</time>
</trkpt>
<trkpt lat="-27.0314959" lon="153.0399488">
<ele>1.747</ele>
<time>2016-10-04T23:36:20.889Z</time>
</trkpt>
<trkpt lat="-27.0319679" lon="153.0405782">
<ele>0.338</ele>
<time>2016-10-04T23:36:23.945Z</time>
</trkpt>
<trkpt lat="-27.0323484" lon="153.0412559">
<ele>0.039</ele>
<time>2016-10-04T23:36:26.906Z</time>
</trkpt>
<trkpt lat="-27.0325118" lon="153.0417542">
<ele>0.593</ele>
<time>2016-10-04T23:36:28.864Z</time>
</trkpt>
<trkpt lat="-27.0326041" lon="153.0425668">
<ele>1.462</ele>
<time>2016-10-04T23:36:31.862Z</time>
</trkpt>
<trkpt lat="-27.0325242" lon="153.0433825">
<ele>2.320</ele>
<time>2016-10-04T23:36:34.858Z</time>
</trkpt>
<trkpt lat="-27.0324550" lon="153.0439139">
<ele>2.674</ele>
<time>2016-10-04T23:36:36.824Z</time>
</trkpt>
<trkpt lat="-27.0324565" lon="153.0444767">
<ele>2.194</ele>
<time>2016-10-04T23:36:38.883Z</time>
</trkpt>
<trkpt lat="-27.0326278" lon="153.0452676">
<ele>1.181</ele>
<time>2016-10-04T23:36:41.881Z</time>
</trkpt>
<trkpt lat="-27.0328346" lon="153.0457496">
<ele>0.000</ele>
<time>2016-10-04T23:36:43.864Z</time>
</trkpt>
<trkpt lat="-27.0332177" lon="153.0464527">
<ele>0.000</ele>
<time>2016-10-04T23:36:46.916Z</time>
</trkpt>
<trkpt lat="-27.0334574" lon="153.0469069">
<ele>0.000</ele>
<time>2016-10-04T23:36:48.922Z</time>
</trkpt>
<trkpt lat="-27.0337856" lon="153.0475583">
<ele>0.000</ele>
<time>2016-10-04T23:36:51.843Z</time>
</trkpt>
<trkpt lat="-27.0340305" lon="153.0482570">
<ele>0.000</ele>
<time>2016-10-04T23:36:54.830Z</time>
</trkpt>
<trkpt lat="-27.0341532" lon="153.0487413">
<ele>0.000</ele>
<time>2016-10-04T23:36:56.825Z</time>
</trkpt>
<trkpt lat="-27.0342383" lon="153.0492496">
<ele>0.373</ele>
<time>2016-10-04T23:36:58.838Z</time>
</trkpt>
<trkpt lat="-27.0343080" lon="153.0500458">
<ele>0.955</ele>
<time>2016-10-04T23:37:01.915Z</time>
</trkpt>
<trkpt lat="-27.0343299" lon="153.0505381">
<ele>0.924</ele>
<time>2016-10-04T23:37:03.822Z</time>
</trkpt>
<trkpt lat="-27.0343764" lon="153.0510484">
<ele>0.099</ele>
<time>2016-10-04T23:37:05.820Z</time>
</trkpt>
<trkpt lat="-27.0344223" lon="153.0518029">
<ele>0.000</ele>
<time>2016-10-04T23:37:08.772Z</time>
</trkpt>
<trkpt lat="-27.0344780" lon="153.0525654">
<ele>0.000</ele>
<time>2016-10-04T23:37:11.774Z</time>
</trkpt>
<trkpt lat="-27.0345056" lon="153.0530625">
<ele>0.000</ele>
<time>2016-10-04T23:37:13.756Z</time>
</trkpt>
<trkpt lat="-27.0345546" lon="153.0535625">
<ele>0.000</ele>
<time>2016-10-04T23:37:15.755Z</time>
</trkpt>
<trkpt lat="-27.0346931" lon="153.0543138">
<ele>0.000</ele>
<time>2016-10-04T23:37:18.791Z</time>
</trkpt>
<trkpt lat="-27.0348871" lon="153.0550290">
<ele>0.000</ele>
<time>2016-10-04T23:37:21.831Z</time>
</trkpt>
<trkpt lat="-27.0350082" lon="153.0554613">
<ele>0.000</ele>
<time>2016-10-04T23:37:23.809Z</time>
</trkpt>
<trkpt lat="-27.0352022" lon="153.0560547">
<ele>0.000</ele>
<time>2016-10-04T23:37:26.792Z</time>
</trkpt>
<trkpt lat="-27.0353824" lon="153.0563720">
<ele>0.000</ele>
<time>2016-10-04T23:37:28.730Z</time>
</trkpt>
<trkpt lat="-27.0356255" lon="153.0566344">
<ele>0.000</ele>
<time>2016-10-04T23:37:30.675Z</time>
</trkpt>
<trkpt lat="-27.0361103" lon="153.0569613">
<ele>0.000</ele>
<time>2016-10-04T23:37:33.772Z</time>
</trkpt>
<trkpt lat="-27.0366266" lon="153.0572706">
<ele>0.000</ele>
<time>2016-10-04T23:37:36.842Z</time>
</trkpt>
<trkpt lat="-27.0369523" lon="153.0574692">
<ele>0.000</ele>
<time>2016-10-04T23:37:38.801Z</time>
</trkpt>
<trkpt lat="-27.0372702" lon="153.0576656">
<ele>0.000</ele>
<time>2016-10-04T23:37:40.715Z</time>
</trkpt>
<trkpt lat="-27.0377784" lon="153.0580118">
<ele>0.000</ele>
<time>2016-10-04T23:37:43.758Z</time>
</trkpt>
<trkpt lat="-27.0382773" lon="153.0584363">
<ele>0.000</ele>
<time>2016-10-04T23:37:46.855Z</time>
</trkpt>
<trkpt lat="-27.0385728" lon="153.0587268">
<ele>0.000</ele>
<time>2016-10-04T23:37:48.857Z</time>
</trkpt>
<trkpt lat="-27.0389761" lon="153.0591420">
<ele>0.000</ele>
<time>2016-10-04T23:37:51.812Z</time>
</trkpt>
<trkpt lat="-27.0393303" lon="153.0595441">
<ele>0.000</ele>
<time>2016-10-04T23:37:54.760Z</time>
</trkpt>
<trkpt lat="-27.0394988" lon="153.0598655">
<ele>0.000</ele>
<time>2016-10-04T23:37:56.741Z</time>
</trkpt>
<trkpt lat="-27.0396777" lon="153.0604532">
<ele>0.000</ele>
<time>2016-10-04T23:37:59.896Z</time>
</trkpt>
<trkpt lat="-27.0398486" lon="153.0608216">
<ele>0.000</ele>
<time>2016-10-04T23:38:01.959Z</time>
</trkpt>
<trkpt lat="-27.0401535" lon="153.0613057">
<ele>0.000</ele>
<time>2016-10-04T23:38:04.973Z</time>
</trkpt>
<trkpt lat="-27.0404297" lon="153.0617793">
<ele>0.000</ele>
<time>2016-10-04T23:38:07.950Z</time>
</trkpt>
<trkpt lat="-27.0406211" lon="153.0622988">
<ele>0.000</ele>
<time>2016-10-04T23:38:10.891Z</time>
</trkpt>
<trkpt lat="-27.0406053" lon="153.0629174">
<ele>0.000</ele>
<time>2016-10-04T23:38:13.948Z</time>
</trkpt>
<trkpt lat="-27.0405799" lon="153.0633416">
<ele>0.000</ele>
<time>2016-10-04T23:38:15.976Z</time>
</trkpt>
<trkpt lat="-27.0405507" lon="153.0639563">
<ele>0.000</ele>
<time>2016-10-04T23:38:18.929Z</time>
</trkpt>
<trkpt lat="-27.0406159" lon="153.0645957">
<ele>0.000</ele>
<time>2016-10-04T23:38:21.932Z</time>
</trkpt>
<trkpt lat="-27.0408194" lon="153.0652450">
<ele>0.000</ele>
<time>2016-10-04T23:38:24.967Z</time>
</trkpt>
<trkpt lat="-27.0410297" lon="153.0656627">
<ele>0.000</ele>
<time>2016-10-04T23:38:27.038Z</time>
</trkpt>
<trkpt lat="-27.0413402" lon="153.0662400">
<ele>0.000</ele>
<time>2016-10-04T23:38:30.009Z</time>
</trkpt>
<trkpt lat="-27.0417227" lon="153.0667195">
<ele>0.000</ele>
<time>2016-10-04T23:38:32.948Z</time>
</trkpt>
<trkpt lat="-27.0421491" lon="153.0671972">
<ele>0.000</ele>
<time>2016-10-04T23:38:36.088Z</time>
</trkpt>
<trkpt lat="-27.0423772" lon="153.0675347">
<ele>0.000</ele>
<time>2016-10-04T23:38:38.073Z</time>
</trkpt>
<trkpt lat="-27.0425379" lon="153.0679115">
<ele>0.000</ele>
<time>2016-10-04T23:38:40.006Z</time>
</trkpt>
<trkpt lat="-27.0426681" lon="153.0685638">
<ele>0.000</ele>
<time>2016-10-04T23:38:43.045Z</time>
</trkpt>
<trkpt lat="-27.0426800" lon="153.0690033">
<ele>0.000</ele>
<time>2016-10-04T23:38:45.057Z</time>
</trkpt>
<trkpt lat="-27.0426821" lon="153.0696408">
<ele>0.000</ele>
<time>2016-10-04T23:38:48.043Z</time>
</trkpt>
<trkpt lat="-27.0426868" lon="153.0700534">
<ele>0.000</ele>
<time>2016-10-04T23:38:50.037Z</time>
</trkpt>
<trkpt lat="-27.0427308" lon="153.0706460">
<ele>0.000</ele>
<time>2016-10-04T23:38:52.942Z</time>
</trkpt>
<trkpt lat="-27.0428945" lon="153.0712499">
<ele>0.000</ele>
<time>2016-10-04T23:38:55.953Z</time>
</trkpt>
<trkpt lat="-27.0430614" lon="153.0716456">
<ele>0.000</ele>
<time>2016-10-04T23:38:57.917Z</time>
</trkpt>
<trkpt lat="-27.0432498" lon="153.0720681">
<ele>0.000</ele>
<time>2016-10-04T23:38:59.976Z</time>
</trkpt>
<trkpt lat="-27.0434295" lon="153.0724831">
<ele>0.000</ele>
<time>2016-10-04T23:39:02.004Z</time>
</trkpt>
<trkpt lat="-27.0436021" lon="153.0728751">
<ele>0.000</ele>
<time>2016-10-04T23:39:03.898Z</time>
</trkpt>
<trkpt lat="-27.0438936" lon="153.0735417">
<ele>0.000</ele>
<time>2016-10-04T23:39:06.935Z</time>
</trkpt>
<trkpt lat="-27.0442075" lon="153.0742542">
<ele>0.000</ele>
<time>2016-10-04T23:39:10.024Z</time>
</trkpt>
<trkpt lat="-27.0444855" lon="153.0749069">
<ele>0.000</ele>
<time>2016-10-04T23:39:12.951Z</time>
</trkpt>
<trkpt lat="-27.0446620" lon="153.0752993">
<ele>0.000</ele>
<time>2016-10-04T23:39:14.856Z</time>
</trkpt>
<trkpt lat="-27.0448414" lon="153.0757003">
<ele>0.000</ele>
<time>2016-10-04T23:39:16.838Z</time>
</trkpt>
<trkpt lat="-27.0450196" lon="153.0761199">
<ele>0.000</ele>
<time>2016-10-04T23:39:18.851Z</time>
</trkpt>
<trkpt lat="-27.0452198" lon="153.0768123">
<ele>0.000</ele>
<time>2016-10-04T23:39:21.902Z</time>
</trkpt>
<trkpt lat="-27.0452651" lon="153.0773093">
<ele>0.000</ele>
<time>2016-10-04T23:39:23.922Z</time>
</trkpt>
<trkpt lat="-27.0451863" lon="153.0780484">
<ele>0.000</ele>
<time>2016-10-04T23:39:26.892Z</time>
</trkpt>
<trkpt lat="-27.0449547" lon="153.0787660">
<ele>0.000</ele>
<time>2016-10-04T23:39:29.893Z</time>
</trkpt>
<trkpt lat="-27.0447553" lon="153.0792220">
<ele>0.000</ele>
<time>2016-10-04T23:39:31.917Z</time>
</trkpt>
<trkpt lat="-27.0444850" lon="153.0798573">
<ele>0.000</ele>
<time>2016-10-04T23:39:34.853Z</time>
</trkpt>
<trkpt lat="-27.0443141" lon="153.0802533">
<ele>0.000</ele>
<time>2016-10-04T23:39:36.812Z</time>
</trkpt>
<trkpt lat="-27.0441506" lon="153.0806457">
<ele>0.000</ele>
<time>2016-10-04T23:39:38.783Z</time>
</trkpt>
<trkpt lat="-27.0438707" lon="153.0812300">
<ele>0.000</ele>
<time>2016-10-04T23:39:41.788Z</time>
</trkpt>
<trkpt lat="-27.0436287" lon="153.0815928">
<ele>0.000</ele>
<time>2016-10-04T23:39:43.817Z</time>
</trkpt>
<trkpt lat="-27.0431930" lon="153.0820589">
<ele>0.000</ele>
<time>2016-10-04T23:39:46.842Z</time>
</trkpt>
<trkpt lat="-27.0428964" lon="153.0823423">
<ele>0.000</ele>
<time>2016-10-04T23:39:48.824Z</time>
</trkpt>
<trkpt lat="-27.0424594" lon="153.0827613">
<ele>0.000</ele>
<time>2016-10-04T23:39:51.784Z</time>
</trkpt>
<trkpt lat="-27.0421517" lon="153.0830450">
<ele>0.000</ele>
<time>2016-10-04T23:39:53.822Z</time>
</trkpt>
<trkpt lat="-27.0416627" lon="153.0834383">
<ele>0.000</ele>
<time>2016-10-04T23:39:56.817Z</time>
</trkpt>
<trkpt lat="-27.0412784" lon="153.0836574">
<ele>0.000</ele>
<time>2016-10-04T23:39:58.823Z</time>
</trkpt>
<trkpt lat="-27.0408300" lon="153.0838661">
<ele>0.000</ele>
<time>2016-10-04T23:40:00.901Z</time>
</trkpt>
<trkpt lat="-27.0403440" lon="153.0841016">
<ele>0.000</ele>
<time>2016-10-04T23:40:02.947Z</time>
</trkpt>
<trkpt lat="-27.0394212" lon="153.0844631">
<ele>0.478</ele>
<time>2016-10-04T23:40:06.495Z</time>
</trkpt>
<trkpt lat="-27.0387124" lon="153.0847768">
<ele>3.844</ele>
<time>2016-10-04T23:40:09.387Z</time>
</trkpt>
<trkpt lat="-27.0380751" lon="153.0850788">
<ele>4.982</ele>
<time>2016-10-04T23:40:12.251Z</time>
</trkpt>
<trkpt lat="-27.0376458" lon="153.0852592">
<ele>2.535</ele>
<time>2016-10-04T23:40:14.258Z</time>
</trkpt>
<trkpt lat="-27.0372320" lon="153.0854410">
<ele>0.000</ele>
<time>2016-10-04T23:40:16.303Z</time>
</trkpt>
<trkpt lat="-27.0366520" lon="153.0856675">
<ele>0.000</ele>
<time>2016-10-04T23:40:19.298Z</time>
</trkpt>
<trkpt lat="-27.0362994" lon="153.0858105">
<ele>0.000</ele>
<time>2016-10-04T23:40:21.271Z</time>
</trkpt>
<trkpt lat="-27.0357886" lon="153.0860304">
<ele>0.000</ele>
<time>2016-10-04T23:40:24.204Z</time>
</trkpt>
<trkpt lat="-27.0354188" lon="153.0861698">
<ele>0.000</ele>
<time>2016-10-04T23:40:26.280Z</time>
</trkpt>
<trkpt lat="-27.0350671" lon="153.0863033">
<ele>0.000</ele>
<time>2016-10-04T23:40:28.250Z</time>
</trkpt>
<trkpt lat="-27.0345523" lon="153.0865174">
<ele>0.000</ele>
<time>2016-10-04T23:40:31.188Z</time>
</trkpt>
<trkpt lat="-27.0342103" lon="153.0866645">
<ele>0.000</ele>
<time>2016-10-04T23:40:33.203Z</time>
</trkpt>
<trkpt lat="-27.0338809" lon="153.0867986">
<ele>0.000</ele>
<time>2016-10-04T23:40:35.186Z</time>
</trkpt>
<trkpt lat="-27.0334522" lon="153.0871117">
<ele>0.000</ele>
<time>2016-10-04T23:40:38.090Z</time>
</trkpt>
<trkpt lat="-27.0330779" lon="153.0875609">
<ele>0.000</ele>
<time>2016-10-04T23:40:41.151Z</time>
</trkpt>
<trkpt lat="-27.0328503" lon="153.0878328">
<ele>0.000</ele>
<time>2016-10-04T23:40:43.093Z</time>
</trkpt>
<trkpt lat="-27.0325397" lon="153.0882428">
<ele>0.000</ele>
<time>2016-10-04T23:40:46.072Z</time>
</trkpt>
<trkpt lat="-27.0323145" lon="153.0887132">
<ele>0.000</ele>
<time>2016-10-04T23:40:49.122Z</time>
</trkpt>
<trkpt lat="-27.0322400" lon="153.0892683">
<ele>0.000</ele>
<time>2016-10-04T23:40:52.225Z</time>
</trkpt>
<trkpt lat="-27.0323040" lon="153.0898257">
<ele>0.000</ele>
<time>2016-10-04T23:40:55.310Z</time>
</trkpt>
<trkpt lat="-27.0323526" lon="153.0901778">
<ele>0.000</ele>
<time>2016-10-04T23:40:57.405Z</time>
</trkpt>
<trkpt lat="-27.0323911" lon="153.0904918">
<ele>0.000</ele>
<time>2016-10-04T23:40:59.475Z</time>
</trkpt>
<trkpt lat="-27.0324519" lon="153.0909103">
<ele>0.000</ele>
<time>2016-10-04T23:41:02.410Z</time>
</trkpt>
<trkpt lat="-27.0325023" lon="153.0913390">
<ele>0.000</ele>
<time>2016-10-04T23:41:05.427Z</time>
</trkpt>
<trkpt lat="-27.0325387" lon="153.0916280">
<ele>0.000</ele>
<time>2016-10-04T23:41:07.477Z</time>
</trkpt>
<trkpt lat="-27.0326057" lon="153.0920275">
<ele>0.000</ele>
<time>2016-10-04T23:41:10.449Z</time>
</trkpt>
<trkpt lat="-27.0326411" lon="153.0922822">
<ele>0.000</ele>
<time>2016-10-04T23:41:12.382Z</time>
</trkpt>
<trkpt lat="-27.0326753" lon="153.0925324">
<ele>0.000</ele>
<time>2016-10-04T23:41:14.234Z</time>
</trkpt>
<trkpt lat="-27.0327025" lon="153.0928210">
<ele>0.000</ele>
<time>2016-10-04T23:41:16.287Z</time>
</trkpt>
<trkpt lat="-27.0327341" lon="153.0931107">
<ele>0.000</ele>
<time>2016-10-04T23:41:18.253Z</time>
</trkpt>
<trkpt lat="-27.0327972" lon="153.0935742">
<ele>0.000</ele>
<time>2016-10-04T23:41:21.300Z</time>
</trkpt>
<trkpt lat="-27.0328377" lon="153.0938889">
<ele>0.000</ele>
<time>2016-10-04T23:41:23.318Z</time>
</trkpt>
<trkpt lat="-27.0328843" lon="153.0942075">
<ele>0.000</ele>
<time>2016-10-04T23:41:25.375Z</time>
</trkpt>
<trkpt lat="-27.0329562" lon="153.0946623">
<ele>0.000</ele>
<time>2016-10-04T23:41:28.339Z</time>
</trkpt>
<trkpt lat="-27.0330181" lon="153.0951130">
<ele>0.000</ele>
<time>2016-10-04T23:41:31.284Z</time>
</trkpt>
<trkpt lat="-27.0330905" lon="153.0955768">
<ele>0.000</ele>
<time>2016-10-04T23:41:34.327Z</time>
</trkpt>
<trkpt lat="-27.0331303" lon="153.0958812">
<ele>0.000</ele>
<time>2016-10-04T23:41:36.323Z</time>
</trkpt>
<trkpt lat="-27.0331907" lon="153.0963443">
<ele>0.000</ele>
<time>2016-10-04T23:41:39.376Z</time>
</trkpt>
<trkpt lat="-27.0332344" lon="153.0966355">
<ele>0.000</ele>
<time>2016-10-04T23:41:41.350Z</time>
</trkpt>
<trkpt lat="-27.0332947" lon="153.0970463">
<ele>0.000</ele>
<time>2016-10-04T23:41:44.228Z</time>
</trkpt>
<trkpt lat="-27.0333271" lon="153.0973256">
<ele>0.000</ele>
<time>2016-10-04T23:41:46.400Z</time>
</trkpt>
<trkpt lat="-27.0333607" lon="153.0976689">
<ele>0.000</ele>
<time>2016-10-04T23:41:49.377Z</time>
</trkpt>
<trkpt lat="-27.0333915" lon="153.0978661">
<ele>0.000</ele>
<time>2016-10-04T23:41:51.611Z</time>
</trkpt>
<trkpt lat="-27.0333601" lon="153.0980698">
<ele>0.000</ele>
<time>2016-10-04T23:41:54.174Z</time>
</trkpt>
<trkpt lat="-27.0331506" lon="153.0981651">
<ele>0.000</ele>
<time>2016-10-04T23:41:57.128Z</time>
</trkpt>
<trkpt lat="-27.0329547" lon="153.0982044">
<ele>0.000</ele>
<time>2016-10-04T23:41:59.233Z</time>
</trkpt>
<trkpt lat="-27.0327492" lon="153.0982467">
<ele>0.000</ele>
<time>2016-10-04T23:42:01.391Z</time>
</trkpt>
<trkpt lat="-27.0324779" lon="153.0983083">
<ele>0.000</ele>
<time>2016-10-04T23:42:04.567Z</time>
</trkpt>
<trkpt lat="-27.0322870" lon="153.0983435">
<ele>0.000</ele>
<time>2016-10-04T23:42:07.257Z</time>
</trkpt>
<trkpt lat="-27.0321753" lon="153.0983493">
<ele>0.000</ele>
<time>2016-10-04T23:42:09.125Z</time>
</trkpt>
<trkpt lat="-27.0320134" lon="153.0983739">
<ele>0.000</ele>
<time>2016-10-04T23:42:12.157Z</time>
</trkpt>
<trkpt lat="-27.0318927" lon="153.0983659">
<ele>0.000</ele>
<time>2016-10-04T23:42:14.662Z</time>
</trkpt>
<trkpt lat="-27.0317754" lon="153.0982540">
<ele>0.000</ele>
<time>2016-10-04T23:42:17.958Z</time>
</trkpt>
<trkpt lat="-27.0316970" lon="153.0981362">
<ele>0.000</ele>
<time>2016-10-04T23:42:20.885Z</time>
</trkpt>
<trkpt lat="-27.0316210" lon="153.0980157">
<ele>0.000</ele>
<time>2016-10-04T23:42:23.934Z</time>
</trkpt>
<trkpt lat="-27.0315641" lon="153.0979354">
<ele>0.000</ele>
<time>2016-10-04T23:42:25.955Z</time>
</trkpt>
<trkpt lat="-27.0314731" lon="153.0978400">
<ele>0.000</ele>
<time>2016-10-04T23:42:28.802Z</time>
</trkpt>
<trkpt lat="-27.0313978" lon="153.0977439">
<ele>0.000</ele>
<time>2016-10-04T23:42:32.096Z</time>
</trkpt>
<trkpt lat="-27.0313105" lon="153.0977787">
<ele>0.000</ele>
<time>2016-10-04T23:42:35.999Z</time>
</trkpt>
<trkpt lat="-27.0313105" lon="153.0977787">
<ele>0.000</ele>
<time>2016-10-04T23:42:37.999Z</time>
</trkpt>
<trkpt lat="-27.0313105" lon="153.0977787">
<ele>0.000</ele>
<time>2016-10-04T23:44:13.214Z</time>
</trkpt>
<trkpt lat="-27.0312579" lon="153.0976140">
<ele>0.000</ele>
<time>2016-10-04T23:44:18.109Z</time>
</trkpt>
<trkpt lat="-27.0310587" lon="153.0973705">
<ele>0.000</ele>
<time>2016-10-04T23:44:21.550Z</time>
</trkpt>
<trkpt lat="-27.0308408" lon="153.0970677">
<ele>0.514</ele>
<time>2016-10-04T23:44:24.676Z</time>
</trkpt>
<trkpt lat="-27.0306118" lon="153.0967854">
<ele>1.221</ele>
<time>2016-10-04T23:44:27.610Z</time>
</trkpt>
<trkpt lat="-27.0304566" lon="153.0966051">
<ele>1.622</ele>
<time>2016-10-04T23:44:29.528Z</time>
</trkpt>
<trkpt lat="-27.0302404" lon="153.0963162">
<ele>1.714</ele>
<time>2016-10-04T23:44:32.409Z</time>
</trkpt>
<trkpt lat="-27.0300154" lon="153.0960351">
<ele>1.607</ele>
<time>2016-10-04T23:44:35.285Z</time>
</trkpt>
<trkpt lat="-27.0298661" lon="153.0958366">
<ele>1.432</ele>
<time>2016-10-04T23:44:37.231Z</time>
</trkpt>
<trkpt lat="-27.0297017" lon="153.0956452">
<ele>1.275</ele>
<time>2016-10-04T23:44:39.181Z</time>
</trkpt>
<trkpt lat="-27.0295456" lon="153.0954365">
<ele>1.147</ele>
<time>2016-10-04T23:44:41.153Z</time>
</trkpt>
<trkpt lat="-27.0293086" lon="153.0951144">
<ele>0.950</ele>
<time>2016-10-04T23:44:44.165Z</time>
</trkpt>
<trkpt lat="-27.0291499" lon="153.0949062">
<ele>0.659</ele>
<time>2016-10-04T23:44:46.158Z</time>
</trkpt>
<trkpt lat="-27.0289147" lon="153.0945999">
<ele>0.422</ele>
<time>2016-10-04T23:44:49.129Z</time>
</trkpt>
<trkpt lat="-27.0287518" lon="153.0943942">
<ele>0.213</ele>
<time>2016-10-04T23:44:51.219Z</time>
</trkpt>
<trkpt lat="-27.0285266" lon="153.0941127">
<ele>0.000</ele>
<time>2016-10-04T23:44:54.276Z</time>
</trkpt>
<trkpt lat="-27.0284164" lon="153.0939507">
<ele>0.000</ele>
<time>2016-10-04T23:44:56.329Z</time>
</trkpt>
<trkpt lat="-27.0283244" lon="153.0938565">
<ele>0.000</ele>
<time>2016-10-04T23:44:58.658Z</time>
</trkpt>
<trkpt lat="-27.0282319" lon="153.0938988">
<ele>0.000</ele>
<time>2016-10-04T23:45:00.999Z</time>
</trkpt>
<trkpt lat="-27.0282319" lon="153.0938988">
<ele>0.000</ele>
<time>2016-10-04T23:45:03.999Z</time>
</trkpt>
<trkpt lat="-27.0282319" lon="153.0938988">
<ele>0.000</ele>
<time>2016-10-04T23:48:13.841Z</time>
</trkpt>
<trkpt lat="-27.0283585" lon="153.0939590">
<ele>0.000</ele>
<time>2016-10-04T23:48:18.094Z</time>
</trkpt>
<trkpt lat="-27.0285125" lon="153.0941460">
<ele>0.000</ele>
<time>2016-10-04T23:48:21.247Z</time>
</trkpt>
<trkpt lat="-27.0286449" lon="153.0943060">
<ele>0.557</ele>
<time>2016-10-04T23:48:23.276Z</time>
</trkpt>
<trkpt lat="-27.0288531" lon="153.0945585">
<ele>1.217</ele>
<time>2016-10-04T23:48:26.219Z</time>
</trkpt>
<trkpt lat="-27.0289995" lon="153.0947399">
<ele>1.468</ele>
<time>2016-10-04T23:48:28.170Z</time>
</trkpt>
<trkpt lat="-27.0292221" lon="153.0950334">
<ele>1.592</ele>
<time>2016-10-04T23:48:31.149Z</time>
</trkpt>
<trkpt lat="-27.0294537" lon="153.0953270">
<ele>1.808</ele>
<time>2016-10-04T23:48:34.073Z</time>
</trkpt>
<trkpt lat="-27.0296983" lon="153.0956631">
<ele>2.036</ele>
<time>2016-10-04T23:48:37.215Z</time>
</trkpt>
<trkpt lat="-27.0299445" lon="153.0959720">
<ele>2.085</ele>
<time>2016-10-04T23:48:40.213Z</time>
</trkpt>
<trkpt lat="-27.0301030" lon="153.0961636">
<ele>1.961</ele>
<time>2016-10-04T23:48:42.143Z</time>
</trkpt>
<trkpt lat="-27.0303518" lon="153.0964433">
<ele>1.805</ele>
<time>2016-10-04T23:48:45.100Z</time>
</trkpt>
<trkpt lat="-27.0305747" lon="153.0967430">
<ele>1.695</ele>
<time>2016-10-04T23:48:48.063Z</time>
</trkpt>
<trkpt lat="-27.0307944" lon="153.0970422">
<ele>1.615</ele>
<time>2016-10-04T23:48:51.055Z</time>
</trkpt>
<trkpt lat="-27.0310056" lon="153.0973139">
<ele>1.558</ele>
<time>2016-10-04T23:48:54.034Z</time>
</trkpt>
<trkpt lat="-27.0311867" lon="153.0975398">
<ele>1.395</ele>
<time>2016-10-04T23:48:56.987Z</time>
</trkpt>
<trkpt lat="-27.0312761" lon="153.0976386">
<ele>0.937</ele>
<time>2016-10-04T23:48:58.956Z</time>
</trkpt>
<trkpt lat="-27.0313350" lon="153.0977289">
<ele>0.099</ele>
<time>2016-10-04T23:49:00.999Z</time>
</trkpt>
<trkpt lat="-27.0313350" lon="153.0977289">
<ele>0.000</ele>
<time>2016-10-04T23:49:05.999Z</time>
</trkpt>
<trkpt lat="-27.0313350" lon="153.0977289">
<ele>0.000</ele>
<time>2016-10-04T23:50:46.194Z</time>
</trkpt>
<trkpt lat="-27.0312356" lon="153.0975916">
<ele>0.000</ele>
<time>2016-10-04T23:50:51.305Z</time>
</trkpt>
<trkpt lat="-27.0311432" lon="153.0974841">
<ele>0.000</ele>
<time>2016-10-04T23:50:53.421Z</time>
</trkpt>
<trkpt lat="-27.0310683" lon="153.0973703">
<ele>1.165</ele>
<time>2016-10-04T23:50:55.369Z</time>
</trkpt>
<trkpt lat="-27.0309608" lon="153.0972238">
<ele>2.072</ele>
<time>2016-10-04T23:50:58.249Z</time>
</trkpt>
<trkpt lat="-27.0308780" lon="153.0971126">
<ele>2.362</ele>
<time>2016-10-04T23:51:01.115Z</time>
</trkpt>
<trkpt lat="-27.0307864" lon="153.0970703">
<ele>2.213</ele>
<time>2016-10-04T23:51:03.999Z</time>
</trkpt>
<trkpt lat="-27.0307864" lon="153.0970703">
<ele>1.935</ele>
<time>2016-10-04T23:51:08.999Z</time>
</trkpt>
<trkpt lat="-27.0307864" lon="153.0970703">
<ele>1.776</ele>
<time>2016-10-04T23:51:20.500Z</time>
</trkpt>
<trkpt lat="-27.0309030" lon="153.0972152">
<ele>1.787</ele>
<time>2016-10-04T23:51:28.114Z</time>
</trkpt>
<trkpt lat="-27.0309360" lon="153.0973329">
<ele>1.840</ele>
<time>2016-10-04T23:51:30.886Z</time>
</trkpt>
<trkpt lat="-27.0309701" lon="153.0974627">
<ele>1.810</ele>
<time>2016-10-04T23:51:33.643Z</time>
</trkpt>
<trkpt lat="-27.0310382" lon="153.0975829">
<ele>1.704</ele>
<time>2016-10-04T23:51:36.343Z</time>
</trkpt>
<trkpt lat="-27.0311243" lon="153.0976986">
<ele>1.583</ele>
<time>2016-10-04T23:51:39.134Z</time>
</trkpt>
<trkpt lat="-27.0311766" lon="153.0978248">
<ele>1.483</ele>
<time>2016-10-04T23:51:41.846Z</time>
</trkpt>
<trkpt lat="-27.0312364" lon="153.0979285">
<ele>1.390</ele>
<time>2016-10-04T23:51:44.594Z</time>
</trkpt>
<trkpt lat="-27.0313393" lon="153.0979935">
<ele>1.287</ele>
<time>2016-10-04T23:51:47.999Z</time>
</trkpt>
<trkpt lat="-27.0313393" lon="153.0979935">
<ele>1.205</ele>
<time>2016-10-04T23:51:53.999Z</time>
</trkpt>
<trkpt lat="-27.0313393" lon="153.0979935">
<ele>1.177</ele>
<time>2016-10-05T00:10:49.405Z</time>
</trkpt>
<trkpt lat="-27.0312498" lon="153.0979080">
<ele>1.183</ele>
<time>2016-10-05T00:10:56.832Z</time>
</trkpt>
<trkpt lat="-27.0311943" lon="153.0978049">
<ele>0.669</ele>
<time>2016-10-05T00:11:00.124Z</time>
</trkpt>
<trkpt lat="-27.0311282" lon="153.0976986">
<ele>0.000</ele>
<time>2016-10-05T00:11:03.202Z</time>
</trkpt>
<trkpt lat="-27.0310489" lon="153.0976090">
<ele>0.000</ele>
<time>2016-10-05T00:11:05.990Z</time>
</trkpt>
<trkpt lat="-27.0309594" lon="153.0975040">
<ele>0.000</ele>
<time>2016-10-05T00:11:09.121Z</time>
</trkpt>
<trkpt lat="-27.0308944" lon="153.0974023">
<ele>0.000</ele>
<time>2016-10-05T00:11:12.035Z</time>
</trkpt>
<trkpt lat="-27.0308865" lon="153.0972982">
<ele>0.000</ele>
<time>2016-10-05T00:11:14.811Z</time>
</trkpt>
<trkpt lat="-27.0308454" lon="153.0971790">
<ele>0.000</ele>
<time>2016-10-05T00:11:18.735Z</time>
</trkpt>
<trkpt lat="-27.0308050" lon="153.0970760">
<ele>0.000</ele>
<time>2016-10-05T00:11:22.707Z</time>
</trkpt>
<trkpt lat="-27.0309011" lon="153.0971025">
<ele>0.000</ele>
<time>2016-10-05T00:11:26.576Z</time>
</trkpt>
<trkpt lat="-27.0309519" lon="153.0972498">
<ele>0.000</ele>
<time>2016-10-05T00:11:29.458Z</time>
</trkpt>
<trkpt lat="-27.0310268" lon="153.0973440">
<ele>0.000</ele>
<time>2016-10-05T00:11:31.457Z</time>
</trkpt>
<trkpt lat="-27.0311199" lon="153.0974329">
<ele>0.000</ele>
<time>2016-10-05T00:11:33.862Z</time>
</trkpt>
<trkpt lat="-27.0311791" lon="153.0975301">
<ele>0.000</ele>
<time>2016-10-05T00:11:36.527Z</time>
</trkpt>
<trkpt lat="-27.0312217" lon="153.0976271">
<ele>0.000</ele>
<time>2016-10-05T00:11:39.998Z</time>
</trkpt>
<trkpt lat="-27.0312217" lon="153.0976271">
<ele>0.000</ele>
<time>2016-10-05T00:11:41.998Z</time>
</trkpt>
<trkpt lat="-27.0312217" lon="153.0976271">
<ele>0.000</ele>
<time>2016-10-05T00:11:51.490Z</time>
</trkpt>
<trkpt lat="-27.0313339" lon="153.0977787">
<ele>0.000</ele>
<time>2016-10-05T00:11:58.060Z</time>
</trkpt>
<trkpt lat="-27.0314135" lon="153.0978789">
<ele>0.000</ele>
<time>2016-10-05T00:12:01.040Z</time>
</trkpt>
<trkpt lat="-27.0314950" lon="153.0979769">
<ele>0.000</ele>
<time>2016-10-05T00:12:04.030Z</time>
</trkpt>
<trkpt lat="-27.0315733" lon="153.0980835">
<ele>0.000</ele>
<time>2016-10-05T00:12:07.541Z</time>
</trkpt>
<trkpt lat="-27.0316379" lon="153.0981785">
<ele>0.000</ele>
<time>2016-10-05T00:12:10.818Z</time>
</trkpt>
<trkpt lat="-27.0317029" lon="153.0982780">
<ele>0.000</ele>
<time>2016-10-05T00:12:14.161Z</time>
</trkpt>
<trkpt lat="-27.0317573" lon="153.0983786">
<ele>0.000</ele>
<time>2016-10-05T00:12:17.004Z</time>
</trkpt>
<trkpt lat="-27.0318507" lon="153.0984718">
<ele>0.000</ele>
<time>2016-10-05T00:12:20.092Z</time>
</trkpt>
<trkpt lat="-27.0319800" lon="153.0984535">
<ele>0.000</ele>
<time>2016-10-05T00:12:23.533Z</time>
</trkpt>
<trkpt lat="-27.0320919" lon="153.0984256">
<ele>0.000</ele>
<time>2016-10-05T00:12:26.948Z</time>
</trkpt>
<trkpt lat="-27.0322089" lon="153.0984082">
<ele>0.000</ele>
<time>2016-10-05T00:12:30.639Z</time>
</trkpt>
<trkpt lat="-27.0323208" lon="153.0983886">
<ele>0.000</ele>
<time>2016-10-05T00:12:33.900Z</time>
</trkpt>
<trkpt lat="-27.0324277" lon="153.0983766">
<ele>0.000</ele>
<time>2016-10-05T00:12:36.894Z</time>
</trkpt>
<trkpt lat="-27.0325288" lon="153.0983605">
<ele>0.000</ele>
<time>2016-10-05T00:12:40.045Z</time>
</trkpt>
<trkpt lat="-27.0326309" lon="153.0983403">
<ele>0.000</ele>
<time>2016-10-05T00:12:43.988Z</time>
</trkpt>
<trkpt lat="-27.0327275" lon="153.0983220">
<ele>0.000</ele>
<time>2016-10-05T00:12:48.998Z</time>
</trkpt>
<trkpt lat="-27.0327275" lon="153.0983220">
<ele>0.000</ele>
<time>2016-10-05T00:12:50.998Z</time>
</trkpt>
<trkpt lat="-27.0327275" lon="153.0983220">
<ele>0.000</ele>
<time>2016-10-05T00:13:50.690Z</time>
</trkpt>
<trkpt lat="-27.0329275" lon="153.0983175">
<ele>0.000</ele>
<time>2016-10-05T00:14:07.157Z</time>
</trkpt>
<trkpt lat="-27.0330539" lon="153.0983104">
<ele>0.000</ele>
<time>2016-10-05T00:14:09.451Z</time>
</trkpt>
<trkpt lat="-27.0331802" lon="153.0982829">
<ele>0.000</ele>
<time>2016-10-05T00:14:11.489Z</time>
</trkpt>
<trkpt lat="-27.0333041" lon="153.0982637">
<ele>0.000</ele>
<time>2016-10-05T00:14:13.429Z</time>
</trkpt>
<trkpt lat="-27.0334176" lon="153.0981849">
<ele>0.000</ele>
<time>2016-10-05T00:14:15.290Z</time>
</trkpt>
<trkpt lat="-27.0334532" lon="153.0980137">
<ele>0.000</ele>
<time>2016-10-05T00:14:16.967Z</time>
</trkpt>
<trkpt lat="-27.0334090" lon="153.0976364">
<ele>0.000</ele>
<time>2016-10-05T00:14:20.086Z</time>
</trkpt>
<trkpt lat="-27.0333695" lon="153.0973841">
<ele>0.000</ele>
<time>2016-10-05T00:14:21.987Z</time>
</trkpt>
<trkpt lat="-27.0333459" lon="153.0971150">
<ele>0.008</ele>
<time>2016-10-05T00:14:24.027Z</time>
</trkpt>
<trkpt lat="-27.0332940" lon="153.0967420">
<ele>0.861</ele>
<time>2016-10-05T00:14:26.943Z</time>
</trkpt>
<trkpt lat="-27.0332596" lon="153.0964897">
<ele>1.036</ele>
<time>2016-10-05T00:14:28.920Z</time>
</trkpt>
<trkpt lat="-27.0332243" lon="153.0962327">
<ele>0.566</ele>
<time>2016-10-05T00:14:30.863Z</time>
</trkpt>
<trkpt lat="-27.0331768" lon="153.0959516">
<ele>0.000</ele>
<time>2016-10-05T00:14:32.831Z</time>
</trkpt>
<trkpt lat="-27.0331264" lon="153.0955246">
<ele>0.000</ele>
<time>2016-10-05T00:14:35.559Z</time>
</trkpt>
<trkpt lat="-27.0330741" lon="153.0951705">
<ele>0.000</ele>
<time>2016-10-05T00:14:37.608Z</time>
</trkpt>
<trkpt lat="-27.0330172" lon="153.0948103">
<ele>0.350</ele>
<time>2016-10-05T00:14:39.667Z</time>
</trkpt>
<trkpt lat="-27.0329631" lon="153.0944566">
<ele>0.697</ele>
<time>2016-10-05T00:14:41.699Z</time>
</trkpt>
<trkpt lat="-27.0329186" lon="153.0941135">
<ele>0.859</ele>
<time>2016-10-05T00:14:43.699Z</time>
</trkpt>
<trkpt lat="-27.0328516" lon="153.0936384">
<ele>0.504</ele>
<time>2016-10-05T00:14:46.497Z</time>
</trkpt>
<trkpt lat="-27.0327838" lon="153.0931336">
<ele>0.000</ele>
<time>2016-10-05T00:14:49.452Z</time>
</trkpt>
<trkpt lat="-27.0327342" lon="153.0927972">
<ele>0.000</ele>
<time>2016-10-05T00:14:51.376Z</time>
</trkpt>
<trkpt lat="-27.0326643" lon="153.0922704">
<ele>0.000</ele>
<time>2016-10-05T00:14:54.358Z</time>
</trkpt>
<trkpt lat="-27.0325912" lon="153.0917390">
<ele>0.000</ele>
<time>2016-10-05T00:14:57.346Z</time>
</trkpt>
<trkpt lat="-27.0325337" lon="153.0913852">
<ele>0.000</ele>
<time>2016-10-05T00:14:59.323Z</time>
</trkpt>
<trkpt lat="-27.0324892" lon="153.0910323">
<ele>0.000</ele>
<time>2016-10-05T00:15:01.269Z</time>
</trkpt>
<trkpt lat="-27.0324211" lon="153.0904999">
<ele>0.000</ele>
<time>2016-10-05T00:15:04.186Z</time>
</trkpt>
<trkpt lat="-27.0323726" lon="153.0901155">
<ele>0.000</ele>
<time>2016-10-05T00:15:06.260Z</time>
</trkpt>
<trkpt lat="-27.0323209" lon="153.0897528">
<ele>0.000</ele>
<time>2016-10-05T00:15:08.181Z</time>
</trkpt>
<trkpt lat="-27.0322669" lon="153.0893623">
<ele>0.000</ele>
<time>2016-10-05T00:15:10.166Z</time>
</trkpt>
<trkpt lat="-27.0323271" lon="153.0889224">
<ele>0.000</ele>
<time>2016-10-05T00:15:12.266Z</time>
</trkpt>
<trkpt lat="-27.0325739" lon="153.0882892">
<ele>0.000</ele>
<time>2016-10-05T00:15:15.380Z</time>
</trkpt>
<trkpt lat="-27.0328284" lon="153.0879458">
<ele>0.000</ele>
<time>2016-10-05T00:15:17.364Z</time>
</trkpt>
<trkpt lat="-27.0330853" lon="153.0876167">
<ele>0.000</ele>
<time>2016-10-05T00:15:19.361Z</time>
</trkpt>
<trkpt lat="-27.0334609" lon="153.0871650">
<ele>0.000</ele>
<time>2016-10-05T00:15:22.226Z</time>
</trkpt>
<trkpt lat="-27.0337834" lon="153.0869244">
<ele>0.000</ele>
<time>2016-10-05T00:15:24.208Z</time>
</trkpt>
<trkpt lat="-27.0341627" lon="153.0867461">
<ele>0.000</ele>
<time>2016-10-05T00:15:26.226Z</time>
</trkpt>
<trkpt lat="-27.0347516" lon="153.0865034">
<ele>0.000</ele>
<time>2016-10-05T00:15:29.227Z</time>
</trkpt>
<trkpt lat="-27.0353337" lon="153.0862382">
<ele>0.000</ele>
<time>2016-10-05T00:15:32.200Z</time>
</trkpt>
<trkpt lat="-27.0357322" lon="153.0860651">
<ele>0.000</ele>
<time>2016-10-05T00:15:34.220Z</time>
</trkpt>
<trkpt lat="-27.0363289" lon="153.0858177">
<ele>0.000</ele>
<time>2016-10-05T00:15:37.246Z</time>
</trkpt>
<trkpt lat="-27.0369079" lon="153.0855746">
<ele>0.000</ele>
<time>2016-10-05T00:15:40.282Z</time>
</trkpt>
<trkpt lat="-27.0374399" lon="153.0853429">
<ele>0.000</ele>
<time>2016-10-05T00:15:43.206Z</time>
</trkpt>
<trkpt lat="-27.0377905" lon="153.0852004">
<ele>0.000</ele>
<time>2016-10-05T00:15:45.176Z</time>
</trkpt>
<trkpt lat="-27.0383098" lon="153.0849697">
<ele>0.000</ele>
<time>2016-10-05T00:15:48.161Z</time>
</trkpt>
<trkpt lat="-27.0386591" lon="153.0848327">
<ele>0.000</ele>
<time>2016-10-05T00:15:50.119Z</time>
</trkpt>
<trkpt lat="-27.0392044" lon="153.0846034">
<ele>0.000</ele>
<time>2016-10-05T00:15:53.100Z</time>
</trkpt>
<trkpt lat="-27.0397794" lon="153.0843560">
<ele>0.000</ele>
<time>2016-10-05T00:15:56.095Z</time>
</trkpt>
<trkpt lat="-27.0403682" lon="153.0841004">
<ele>0.000</ele>
<time>2016-10-05T00:15:59.065Z</time>
</trkpt>
<trkpt lat="-27.0407667" lon="153.0839281">
<ele>0.000</ele>
<time>2016-10-05T00:16:01.054Z</time>
</trkpt>
<trkpt lat="-27.0413712" lon="153.0836592">
<ele>0.000</ele>
<time>2016-10-05T00:16:04.080Z</time>
</trkpt>
<trkpt lat="-27.0419291" lon="153.0832876">
<ele>0.000</ele>
<time>2016-10-05T00:16:07.042Z</time>
</trkpt>
<trkpt lat="-27.0424715" lon="153.0827841">
<ele>0.000</ele>
<time>2016-10-05T00:16:10.097Z</time>
</trkpt>
<trkpt lat="-27.0428242" lon="153.0824619">
<ele>0.273</ele>
<time>2016-10-05T00:16:12.065Z</time>
</trkpt>
<trkpt lat="-27.0433371" lon="153.0819763">
<ele>1.168</ele>
<time>2016-10-05T00:16:15.055Z</time>
</trkpt>
<trkpt lat="-27.0436477" lon="153.0816352">
<ele>1.374</ele>
<time>2016-10-05T00:16:17.005Z</time>
</trkpt>
<trkpt lat="-27.0440497" lon="153.0809925">
<ele>0.895</ele>
<time>2016-10-05T00:16:20.050Z</time>
</trkpt>
<trkpt lat="-27.0442623" lon="153.0804841">
<ele>0.452</ele>
<time>2016-10-05T00:16:22.151Z</time>
</trkpt>
<trkpt lat="-27.0445528" lon="153.0798128">
<ele>0.595</ele>
<time>2016-10-05T00:16:24.973Z</time>
</trkpt>
<trkpt lat="-27.0448489" lon="153.0791424">
<ele>1.023</ele>
<time>2016-10-05T00:16:27.900Z</time>
</trkpt>
<trkpt lat="-27.0451284" lon="153.0784717">
<ele>1.129</ele>
<time>2016-10-05T00:16:30.874Z</time>
</trkpt>
<trkpt lat="-27.0453323" lon="153.0777692">
<ele>0.752</ele>
<time>2016-10-05T00:16:33.877Z</time>
</trkpt>
<trkpt lat="-27.0452859" lon="153.0772632">
<ele>0.289</ele>
<time>2016-10-05T00:16:35.943Z</time>
</trkpt>
<trkpt lat="-27.0452502" lon="153.0767714">
<ele>0.172</ele>
<time>2016-10-05T00:16:37.949Z</time>
</trkpt>
<trkpt lat="-27.0450589" lon="153.0760599">
<ele>0.383</ele>
<time>2016-10-05T00:16:40.953Z</time>
</trkpt>
<trkpt lat="-27.0448685" lon="153.0755775">
<ele>0.711</ele>
<time>2016-10-05T00:16:43.034Z</time>
</trkpt>
<trkpt lat="-27.0445442" lon="153.0748692">
<ele>1.012</ele>
<time>2016-10-05T00:16:46.158Z</time>
</trkpt>
<trkpt lat="-27.0443410" lon="153.0744280">
<ele>1.204</ele>
<time>2016-10-05T00:16:48.173Z</time>
</trkpt>
<trkpt lat="-27.0441537" lon="153.0740067">
<ele>1.228</ele>
<time>2016-10-05T00:16:50.157Z</time>
</trkpt>
<trkpt lat="-27.0438704" lon="153.0733754">
<ele>0.935</ele>
<time>2016-10-05T00:16:53.196Z</time>
</trkpt>
<trkpt lat="-27.0436723" lon="153.0729780">
<ele>0.316</ele>
<time>2016-10-05T00:16:55.161Z</time>
</trkpt>
<trkpt lat="-27.0434792" lon="153.0725528">
<ele>0.000</ele>
<time>2016-10-05T00:16:57.203Z</time>
</trkpt>
<trkpt lat="-27.0431942" lon="153.0719172">
<ele>0.000</ele>
<time>2016-10-05T00:17:00.254Z</time>
</trkpt>
<trkpt lat="-27.0430364" lon="153.0715270">
<ele>0.032</ele>
<time>2016-10-05T00:17:02.117Z</time>
</trkpt>
<trkpt lat="-27.0428753" lon="153.0711070">
<ele>0.000</ele>
<time>2016-10-05T00:17:04.097Z</time>
</trkpt>
<trkpt lat="-27.0427454" lon="153.0706593">
<ele>0.000</ele>
<time>2016-10-05T00:17:06.103Z</time>
</trkpt>
<trkpt lat="-27.0427419" lon="153.0699704">
<ele>0.000</ele>
<time>2016-10-05T00:17:09.024Z</time>
</trkpt>
<trkpt lat="-27.0427250" lon="153.0694873">
<ele>0.000</ele>
<time>2016-10-05T00:17:11.095Z</time>
</trkpt>
<trkpt lat="-27.0427037" lon="153.0688046">
<ele>0.145</ele>
<time>2016-10-05T00:17:14.056Z</time>
</trkpt>
<trkpt lat="-27.0426512" lon="153.0681376">
<ele>0.403</ele>
<time>2016-10-05T00:17:17.008Z</time>
</trkpt>
<trkpt lat="-27.0424177" lon="153.0674919">
<ele>0.522</ele>
<time>2016-10-05T00:17:20.074Z</time>
</trkpt>
<trkpt lat="-27.0421337" lon="153.0670205">
<ele>0.477</ele>
<time>2016-10-05T00:17:22.410Z</time>
</trkpt>
<trkpt lat="-27.0417751" lon="153.0666893">
<ele>0.306</ele>
<time>2016-10-05T00:17:24.486Z</time>
</trkpt>
<trkpt lat="-27.0413502" lon="153.0661125">
<ele>0.086</ele>
<time>2016-10-05T00:17:27.526Z</time>
</trkpt>
<trkpt lat="-27.0411417" lon="153.0657097">
<ele>0.000</ele>
<time>2016-10-05T00:17:29.512Z</time>
</trkpt>
<trkpt lat="-27.0408646" lon="153.0651097">
<ele>0.095</ele>
<time>2016-10-05T00:17:32.470Z</time>
</trkpt>
<trkpt lat="-27.0407078" lon="153.0647272">
<ele>0.000</ele>
<time>2016-10-05T00:17:34.375Z</time>
</trkpt>
<trkpt lat="-27.0406246" lon="153.0643044">
<ele>0.000</ele>
<time>2016-10-05T00:17:36.296Z</time>
</trkpt>
<trkpt lat="-27.0406236" lon="153.0635854">
<ele>0.000</ele>
<time>2016-10-05T00:17:39.383Z</time>
</trkpt>
<trkpt lat="-27.0406490" lon="153.0631053">
<ele>0.000</ele>
<time>2016-10-05T00:17:41.436Z</time>
</trkpt>
<trkpt lat="-27.0406857" lon="153.0624294">
<ele>0.000</ele>
<time>2016-10-05T00:17:44.450Z</time>
</trkpt>
<trkpt lat="-27.0406055" lon="153.0620345">
<ele>0.000</ele>
<time>2016-10-05T00:17:46.375Z</time>
</trkpt>
<trkpt lat="-27.0402863" lon="153.0614859">
<ele>0.000</ele>
<time>2016-10-05T00:17:49.545Z</time>
</trkpt>
<trkpt lat="-27.0400622" lon="153.0611621">
<ele>0.000</ele>
<time>2016-10-05T00:17:51.589Z</time>
</trkpt>
<trkpt lat="-27.0398698" lon="153.0608415">
<ele>0.000</ele>
<time>2016-10-05T00:17:53.591Z</time>
</trkpt>
<trkpt lat="-27.0396599" lon="153.0603591">
<ele>0.000</ele>
<time>2016-10-05T00:17:56.438Z</time>
</trkpt>
<trkpt lat="-27.0395598" lon="153.0600175">
<ele>0.000</ele>
<time>2016-10-05T00:17:58.389Z</time>
</trkpt>
<trkpt lat="-27.0394300" lon="153.0597117">
<ele>0.000</ele>
<time>2016-10-05T00:18:00.206Z</time>
</trkpt>
<trkpt lat="-27.0392455" lon="153.0593809">
<ele>0.000</ele>
<time>2016-10-05T00:18:02.155Z</time>
</trkpt>
<trkpt lat="-27.0387775" lon="153.0589343">
<ele>0.000</ele>
<time>2016-10-05T00:18:05.349Z</time>
</trkpt>
<trkpt lat="-27.0384619" lon="153.0586401">
<ele>0.000</ele>
<time>2016-10-05T00:18:07.383Z</time>
</trkpt>
<trkpt lat="-27.0381652" lon="153.0583514">
<ele>0.000</ele>
<time>2016-10-05T00:18:09.335Z</time>
</trkpt>
<trkpt lat="-27.0378543" lon="153.0580797">
<ele>0.000</ele>
<time>2016-10-05T00:18:11.259Z</time>
</trkpt>
<trkpt lat="-27.0373329" lon="153.0577033">
<ele>0.000</ele>
<time>2016-10-05T00:18:14.157Z</time>
</trkpt>
<trkpt lat="-27.0367040" lon="153.0573247">
<ele>0.000</ele>
<time>2016-10-05T00:18:17.294Z</time>
</trkpt>
<trkpt lat="-27.0361047" lon="153.0569550">
<ele>0.000</ele>
<time>2016-10-05T00:18:20.307Z</time>
</trkpt>
<trkpt lat="-27.0357386" lon="153.0567192">
<ele>0.000</ele>
<time>2016-10-05T00:18:22.308Z</time>
</trkpt>
<trkpt lat="-27.0353086" lon="153.0562624">
<ele>0.000</ele>
<time>2016-10-05T00:18:25.173Z</time>
</trkpt>
<trkpt lat="-27.0351464" lon="153.0557985">
<ele>0.000</ele>
<time>2016-10-05T00:18:27.217Z</time>
</trkpt>
<trkpt lat="-27.0350111" lon="153.0553134">
<ele>0.000</ele>
<time>2016-10-05T00:18:29.230Z</time>
</trkpt>
<trkpt lat="-27.0347966" lon="153.0545952">
<ele>0.000</ele>
<time>2016-10-05T00:18:32.230Z</time>
</trkpt>
<trkpt lat="-27.0346694" lon="153.0541212">
<ele>0.000</ele>
<time>2016-10-05T00:18:34.177Z</time>
</trkpt>
<trkpt lat="-27.0345729" lon="153.0535948">
<ele>0.000</ele>
<time>2016-10-05T00:18:36.223Z</time>
</trkpt>
<trkpt lat="-27.0345294" lon="153.0530682">
<ele>0.000</ele>
<time>2016-10-05T00:18:38.208Z</time>
</trkpt>
<trkpt lat="-27.0344873" lon="153.0522790">
<ele>0.612</ele>
<time>2016-10-05T00:18:41.205Z</time>
</trkpt>
<trkpt lat="-27.0344527" lon="153.0515165">
<ele>1.287</ele>
<time>2016-10-05T00:18:44.138Z</time>
</trkpt>
<trkpt lat="-27.0344166" lon="153.0509990">
<ele>1.249</ele>
<time>2016-10-05T00:18:46.092Z</time>
</trkpt>
<trkpt lat="-27.0343885" lon="153.0504538">
<ele>0.443</ele>
<time>2016-10-05T00:18:48.084Z</time>
</trkpt>
<trkpt lat="-27.0343314" lon="153.0496114">
<ele>0.000</ele>
<time>2016-10-05T00:18:51.113Z</time>
</trkpt>
<trkpt lat="-27.0342646" lon="153.0490626">
<ele>0.000</ele>
<time>2016-10-05T00:18:53.093Z</time>
</trkpt>
<trkpt lat="-27.0340834" lon="153.0482581">
<ele>0.069</ele>
<time>2016-10-05T00:18:56.096Z</time>
</trkpt>
<trkpt lat="-27.0338170" lon="153.0475346">
<ele>1.487</ele>
<time>2016-10-05T00:18:58.999Z</time>
</trkpt>
<trkpt lat="-27.0335787" lon="153.0470654">
<ele>2.615</ele>
<time>2016-10-05T00:19:00.976Z</time>
</trkpt>
<trkpt lat="-27.0331676" lon="153.0463214">
<ele>3.207</ele>
<time>2016-10-05T00:19:04.078Z</time>
</trkpt>
<trkpt lat="-27.0327819" lon="153.0455967">
<ele>3.369</ele>
<time>2016-10-05T00:19:07.062Z</time>
</trkpt>
<trkpt lat="-27.0325309" lon="153.0448315">
<ele>2.656</ele>
<time>2016-10-05T00:19:10.030Z</time>
</trkpt>
<trkpt lat="-27.0324825" lon="153.0442995">
<ele>0.705</ele>
<time>2016-10-05T00:19:11.992Z</time>
</trkpt>
<trkpt lat="-27.0324913" lon="153.0437260">
<ele>0.000</ele>
<time>2016-10-05T00:19:14.067Z</time>
</trkpt>
<trkpt lat="-27.0326234" lon="153.0428927">
<ele>0.000</ele>
<time>2016-10-05T00:19:17.101Z</time>
</trkpt>
<trkpt lat="-27.0326233" lon="153.0423225">
<ele>0.000</ele>
<time>2016-10-05T00:19:19.135Z</time>
</trkpt>
<trkpt lat="-27.0325573" lon="153.0417696">
<ele>0.739</ele>
<time>2016-10-05T00:19:21.175Z</time>
</trkpt>
<trkpt lat="-27.0322984" lon="153.0410572">
<ele>2.294</ele>
<time>2016-10-05T00:19:24.132Z</time>
</trkpt>
<trkpt lat="-27.0320805" lon="153.0406630">
<ele>2.377</ele>
<time>2016-10-05T00:19:26.127Z</time>
</trkpt>
<trkpt lat="-27.0318499" lon="153.0403660">
<ele>0.396</ele>
<time>2016-10-05T00:19:28.097Z</time>
</trkpt>
<trkpt lat="-27.0316438" lon="153.0401407">
<ele>0.000</ele>
<time>2016-10-05T00:19:30.043Z</time>
</trkpt>
<trkpt lat="-27.0314854" lon="153.0399329">
<ele>0.000</ele>
<time>2016-10-05T00:19:31.974Z</time>
</trkpt>
<trkpt lat="-27.0313488" lon="153.0397089">
<ele>0.000</ele>
<time>2016-10-05T00:19:34.231Z</time>
</trkpt>
<trkpt lat="-27.0311742" lon="153.0394682">
<ele>0.000</ele>
<time>2016-10-05T00:19:37.311Z</time>
</trkpt>
<trkpt lat="-27.0310409" lon="153.0394707">
<ele>0.000</ele>
<time>2016-10-05T00:19:38.905Z</time>
</trkpt>
<trkpt lat="-27.0308489" lon="153.0395937">
<ele>0.000</ele>
<time>2016-10-05T00:19:40.971Z</time>
</trkpt>
<trkpt lat="-27.0304387" lon="153.0397695">
<ele>0.000</ele>
<time>2016-10-05T00:19:44.020Z</time>
</trkpt>
<trkpt lat="-27.0298721" lon="153.0398308">
<ele>0.000</ele>
<time>2016-10-05T00:19:47.128Z</time>
</trkpt>
<trkpt lat="-27.0292548" lon="153.0398665">
<ele>0.000</ele>
<time>2016-10-05T00:19:50.266Z</time>
</trkpt>
<trkpt lat="-27.0286923" lon="153.0399094">
<ele>0.000</ele>
<time>2016-10-05T00:19:53.203Z</time>
</trkpt>
<trkpt lat="-27.0283293" lon="153.0400099">
<ele>0.000</ele>
<time>2016-10-05T00:19:55.212Z</time>
</trkpt>
<trkpt lat="-27.0278226" lon="153.0402775">
<ele>0.000</ele>
<time>2016-10-05T00:19:58.219Z</time>
</trkpt>
<trkpt lat="-27.0275100" lon="153.0405024">
<ele>0.000</ele>
<time>2016-10-05T00:20:00.183Z</time>
</trkpt>
<trkpt lat="-27.0272411" lon="153.0407893">
<ele>0.000</ele>
<time>2016-10-05T00:20:02.117Z</time>
</trkpt>
<trkpt lat="-27.0268665" lon="153.0412727">
<ele>0.000</ele>
<time>2016-10-05T00:20:05.044Z</time>
</trkpt>
<trkpt lat="-27.0265895" lon="153.0415915">
<ele>0.000</ele>
<time>2016-10-05T00:20:07.013Z</time>
</trkpt>
<trkpt lat="-27.0260908" lon="153.0420032">
<ele>0.000</ele>
<time>2016-10-05T00:20:10.018Z</time>
</trkpt>
<trkpt lat="-27.0257000" lon="153.0421857">
<ele>0.000</ele>
<time>2016-10-05T00:20:12.016Z</time>
</trkpt>
<trkpt lat="-27.0250649" lon="153.0423435">
<ele>0.000</ele>
<time>2016-10-05T00:20:15.011Z</time>
</trkpt>
<trkpt lat="-27.0246100" lon="153.0423503">
<ele>0.000</ele>
<time>2016-10-05T00:20:16.996Z</time>
</trkpt>
<trkpt lat="-27.0241321" lon="153.0423204">
<ele>0.000</ele>
<time>2016-10-05T00:20:18.973Z</time>
</trkpt>
<trkpt lat="-27.0233706" lon="153.0422406">
<ele>0.000</ele>
<time>2016-10-05T00:20:22.024Z</time>
</trkpt>
<trkpt lat="-27.0228755" lon="153.0422265">
<ele>0.000</ele>
<time>2016-10-05T00:20:23.976Z</time>
</trkpt>
<trkpt lat="-27.0221270" lon="153.0422949">
<ele>0.000</ele>
<time>2016-10-05T00:20:26.940Z</time>
</trkpt>
<trkpt lat="-27.0216331" lon="153.0424154">
<ele>0.000</ele>
<time>2016-10-05T00:20:28.924Z</time>
</trkpt>
<trkpt lat="-27.0208811" lon="153.0426449">
<ele>0.000</ele>
<time>2016-10-05T00:20:31.970Z</time>
</trkpt>
<trkpt lat="-27.0201414" lon="153.0428799">
<ele>0.000</ele>
<time>2016-10-05T00:20:34.986Z</time>
</trkpt>
<trkpt lat="-27.0196619" lon="153.0430237">
<ele>0.000</ele>
<time>2016-10-05T00:20:36.971Z</time>
</trkpt>
<trkpt lat="-27.0191866" lon="153.0431727">
<ele>0.000</ele>
<time>2016-10-05T00:20:38.984Z</time>
</trkpt>
<trkpt lat="-27.0184888" lon="153.0433972">
<ele>0.000</ele>
<time>2016-10-05T00:20:41.998Z</time>
</trkpt>
<trkpt lat="-27.0178184" lon="153.0435952">
<ele>0.000</ele>
<time>2016-10-05T00:20:44.950Z</time>
</trkpt>
<trkpt lat="-27.0171589" lon="153.0437841">
<ele>0.000</ele>
<time>2016-10-05T00:20:47.924Z</time>
</trkpt>
<trkpt lat="-27.0167322" lon="153.0439202">
<ele>0.000</ele>
<time>2016-10-05T00:20:49.908Z</time>
</trkpt>
<trkpt lat="-27.0163099" lon="153.0440567">
<ele>0.000</ele>
<time>2016-10-05T00:20:51.902Z</time>
</trkpt>
<trkpt lat="-27.0158895" lon="153.0441886">
<ele>0.000</ele>
<time>2016-10-05T00:20:53.899Z</time>
</trkpt>
<trkpt lat="-27.0154675" lon="153.0443141">
<ele>0.000</ele>
<time>2016-10-05T00:20:55.898Z</time>
</trkpt>
<trkpt lat="-27.0148378" lon="153.0444973">
<ele>0.000</ele>
<time>2016-10-05T00:20:58.876Z</time>
</trkpt>
<trkpt lat="-27.0144204" lon="153.0446268">
<ele>0.000</ele>
<time>2016-10-05T00:21:00.886Z</time>
</trkpt>
<trkpt lat="-27.0138259" lon="153.0448153">
<ele>0.000</ele>
<time>2016-10-05T00:21:03.820Z</time>
</trkpt>
<trkpt lat="-27.0134470" lon="153.0449906">
<ele>0.000</ele>
<time>2016-10-05T00:21:05.811Z</time>
</trkpt>
<trkpt lat="-27.0130859" lon="153.0452159">
<ele>0.000</ele>
<time>2016-10-05T00:21:07.808Z</time>
</trkpt>
<trkpt lat="-27.0125842" lon="153.0456464">
<ele>0.000</ele>
<time>2016-10-05T00:21:10.824Z</time>
</trkpt>
<trkpt lat="-27.0122751" lon="153.0459629">
<ele>0.000</ele>
<time>2016-10-05T00:21:12.818Z</time>
</trkpt>
<trkpt lat="-27.0118397" lon="153.0464187">
<ele>0.000</ele>
<time>2016-10-05T00:21:15.710Z</time>
</trkpt>
<trkpt lat="-27.0115471" lon="153.0467208">
<ele>0.000</ele>
<time>2016-10-05T00:21:17.684Z</time>
</trkpt>
<trkpt lat="-27.0112571" lon="153.0470298">
<ele>0.000</ele>
<time>2016-10-05T00:21:19.658Z</time>
</trkpt>
<trkpt lat="-27.0107765" lon="153.0474633">
<ele>0.000</ele>
<time>2016-10-05T00:21:22.656Z</time>
</trkpt>
<trkpt lat="-27.0102440" lon="153.0478222">
<ele>0.000</ele>
<time>2016-10-05T00:21:25.643Z</time>
</trkpt>
<trkpt lat="-27.0098786" lon="153.0480368">
<ele>1.159</ele>
<time>2016-10-05T00:21:27.617Z</time>
</trkpt>
<trkpt lat="-27.0093201" lon="153.0483532">
<ele>2.612</ele>
<time>2016-10-05T00:21:30.597Z</time>
</trkpt>
<trkpt lat="-27.0089396" lon="153.0485546">
<ele>3.957</ele>
<time>2016-10-05T00:21:32.605Z</time>
</trkpt>
<trkpt lat="-27.0083839" lon="153.0488623">
<ele>5.004</ele>
<time>2016-10-05T00:21:35.575Z</time>
</trkpt>
<trkpt lat="-27.0080180" lon="153.0490570">
<ele>5.716</ele>
<time>2016-10-05T00:21:37.553Z</time>
</trkpt>
<trkpt lat="-27.0074880" lon="153.0493437">
<ele>6.058</ele>
<time>2016-10-05T00:21:40.552Z</time>
</trkpt>
<trkpt lat="-27.0070438" lon="153.0496837">
<ele>6.008</ele>
<time>2016-10-05T00:21:43.434Z</time>
</trkpt>
<trkpt lat="-27.0068299" lon="153.0500327">
<ele>5.531</ele>
<time>2016-10-05T00:21:45.455Z</time>
</trkpt>
<trkpt lat="-27.0067304" lon="153.0505036">
<ele>4.858</ele>
<time>2016-10-05T00:21:47.578Z</time>
</trkpt>
<trkpt lat="-27.0066568" lon="153.0510332">
<ele>4.467</ele>
<time>2016-10-05T00:21:49.691Z</time>
</trkpt>
<trkpt lat="-27.0065518" lon="153.0518008">
<ele>4.797</ele>
<time>2016-10-05T00:21:52.650Z</time>
</trkpt>
<trkpt lat="-27.0064692" lon="153.0523076">
<ele>5.743</ele>
<time>2016-10-05T00:21:54.642Z</time>
</trkpt>
<trkpt lat="-27.0063584" lon="153.0530414">
<ele>6.480</ele>
<time>2016-10-05T00:21:57.541Z</time>
</trkpt>
<trkpt lat="-27.0062365" lon="153.0538078">
<ele>6.488</ele>
<time>2016-10-05T00:22:00.569Z</time>
</trkpt>
<trkpt lat="-27.0061500" lon="153.0545831">
<ele>6.135</ele>
<time>2016-10-05T00:22:03.596Z</time>
</trkpt>
<trkpt lat="-27.0060764" lon="153.0553269">
<ele>5.830</ele>
<time>2016-10-05T00:22:06.504Z</time>
</trkpt>
<trkpt lat="-27.0060059" lon="153.0561078">
<ele>5.434</ele>
<time>2016-10-05T00:22:09.556Z</time>
</trkpt>
<trkpt lat="-27.0059992" lon="153.0566322">
<ele>4.615</ele>
<time>2016-10-05T00:22:11.604Z</time>
</trkpt>
<trkpt lat="-27.0060535" lon="153.0571115">
<ele>3.415</ele>
<time>2016-10-05T00:22:13.518Z</time>
</trkpt>
<trkpt lat="-27.0061261" lon="153.0575953">
<ele>2.317</ele>
<time>2016-10-05T00:22:15.514Z</time>
</trkpt>
<trkpt lat="-27.0061016" lon="153.0582792">
<ele>1.516</ele>
<time>2016-10-05T00:22:18.428Z</time>
</trkpt>
<trkpt lat="-27.0059346" lon="153.0586904">
<ele>0.852</ele>
<time>2016-10-05T00:22:20.388Z</time>
</trkpt>
<trkpt lat="-27.0057123" lon="153.0591185">
<ele>0.361</ele>
<time>2016-10-05T00:22:22.447Z</time>
</trkpt>
<trkpt lat="-27.0054945" lon="153.0595430">
<ele>0.168</ele>
<time>2016-10-05T00:22:24.456Z</time>
</trkpt>
<trkpt lat="-27.0052439" lon="153.0601474">
<ele>0.045</ele>
<time>2016-10-05T00:22:27.286Z</time>
</trkpt>
<trkpt lat="-27.0051609" lon="153.0608732">
<ele>0.000</ele>
<time>2016-10-05T00:22:30.345Z</time>
</trkpt>
<trkpt lat="-27.0051234" lon="153.0613926">
<ele>0.000</ele>
<time>2016-10-05T00:22:32.390Z</time>
</trkpt>
<trkpt lat="-27.0050988" lon="153.0621393">
<ele>0.000</ele>
<time>2016-10-05T00:22:35.358Z</time>
</trkpt>
<trkpt lat="-27.0050807" lon="153.0625803">
<ele>0.000</ele>
<time>2016-10-05T00:22:37.229Z</time>
</trkpt>
<trkpt lat="-27.0050695" lon="153.0632152">
<ele>0.000</ele>
<time>2016-10-05T00:22:40.089Z</time>
</trkpt>
<trkpt lat="-27.0050675" lon="153.0636435">
<ele>0.000</ele>
<time>2016-10-05T00:22:42.093Z</time>
</trkpt>
<trkpt lat="-27.0051430" lon="153.0642504">
<ele>0.000</ele>
<time>2016-10-05T00:22:45.084Z</time>
</trkpt>
<trkpt lat="-27.0053618" lon="153.0647395">
<ele>0.000</ele>
<time>2016-10-05T00:22:48.028Z</time>
</trkpt>
<trkpt lat="-27.0055701" lon="153.0651121">
<ele>0.000</ele>
<time>2016-10-05T00:22:50.800Z</time>
</trkpt>
<trkpt lat="-27.0056711" lon="153.0654768">
<ele>0.000</ele>
<time>2016-10-05T00:22:53.575Z</time>
</trkpt>
<trkpt lat="-27.0056862" lon="153.0658829">
<ele>0.000</ele>
<time>2016-10-05T00:22:56.628Z</time>
</trkpt>
<trkpt lat="-27.0056558" lon="153.0661473">
<ele>0.000</ele>
<time>2016-10-05T00:22:58.628Z</time>
</trkpt>
<trkpt lat="-27.0056285" lon="153.0663769">
<ele>0.000</ele>
<time>2016-10-05T00:23:00.474Z</time>
</trkpt>
<trkpt lat="-27.0055905" lon="153.0667285">
<ele>0.000</ele>
<time>2016-10-05T00:23:03.453Z</time>
</trkpt>
<trkpt lat="-27.0055505" lon="153.0670714">
<ele>0.000</ele>
<time>2016-10-05T00:23:06.377Z</time>
</trkpt>
<trkpt lat="-27.0054330" lon="153.0674038">
<ele>0.000</ele>
<time>2016-10-05T00:23:09.390Z</time>
</trkpt>
<trkpt lat="-27.0052234" lon="153.0675970">
<ele>0.000</ele>
<time>2016-10-05T00:23:12.137Z</time>
</trkpt>
<trkpt lat="-27.0051176" lon="153.0676733">
<ele>0.000</ele>
<time>2016-10-05T00:23:13.568Z</time>
</trkpt>
<trkpt lat="-27.0050075" lon="153.0677477">
<ele>0.000</ele>
<time>2016-10-05T00:23:15.429Z</time>
</trkpt>
<trkpt lat="-27.0049285" lon="153.0678047">
<ele>0.000</ele>
<time>2016-10-05T00:23:17.253Z</time>
</trkpt>
<trkpt lat="-27.0047865" lon="153.0679083">
<ele>0.000</ele>
<time>2016-10-05T00:23:20.884Z</time>
</trkpt>
<trkpt lat="-27.0046690" lon="153.0679950">
<ele>0.000</ele>
<time>2016-10-05T00:23:23.484Z</time>
</trkpt>
<trkpt lat="-27.0044567" lon="153.0681409">
<ele>0.000</ele>
<time>2016-10-05T00:23:26.909Z</time>
</trkpt>
<trkpt lat="-27.0042910" lon="153.0682518">
<ele>0.000</ele>
<time>2016-10-05T00:23:29.181Z</time>
</trkpt>
<trkpt lat="-27.0041340" lon="153.0683477">
<ele>0.000</ele>
<time>2016-10-05T00:23:31.146Z</time>
</trkpt>
<trkpt lat="-27.0040047" lon="153.0684475">
<ele>0.000</ele>
<time>2016-10-05T00:23:32.954Z</time>
</trkpt>
<trkpt lat="-27.0038898" lon="153.0685116">
<ele>0.000</ele>
<time>2016-10-05T00:23:34.581Z</time>
</trkpt>
<trkpt lat="-27.0038010" lon="153.0685815">
<ele>0.000</ele>
<time>2016-10-05T00:23:36.102Z</time>
</trkpt>
<trkpt lat="-27.0036235" lon="153.0687084">
<ele>0.000</ele>
<time>2016-10-05T00:23:39.364Z</time>
</trkpt>
<trkpt lat="-27.0034910" lon="153.0688004">
<ele>0.000</ele>
<time>2016-10-05T00:23:41.614Z</time>
</trkpt>
<trkpt lat="-27.0032717" lon="153.0689529">
<ele>0.000</ele>
<time>2016-10-05T00:23:44.819Z</time>
</trkpt>
<trkpt lat="-27.0031159" lon="153.0690609">
<ele>0.000</ele>
<time>2016-10-05T00:23:46.945Z</time>
</trkpt>
<trkpt lat="-27.0028966" lon="153.0692152">
<ele>0.000</ele>
<time>2016-10-05T00:23:49.851Z</time>
</trkpt>
<trkpt lat="-27.0027378" lon="153.0693261">
<ele>0.000</ele>
<time>2016-10-05T00:23:51.926Z</time>
</trkpt>
<trkpt lat="-27.0025778" lon="153.0694421">
<ele>0.000</ele>
<time>2016-10-05T00:23:53.971Z</time>
</trkpt>
<trkpt lat="-27.0023305" lon="153.0696157">
<ele>0.000</ele>
<time>2016-10-05T00:23:56.996Z</time>
</trkpt>
<trkpt lat="-27.0021681" lon="153.0697313">
<ele>0.000</ele>
<time>2016-10-05T00:23:58.973Z</time>
</trkpt>
<trkpt lat="-27.0019184" lon="153.0698967">
<ele>0.000</ele>
<time>2016-10-05T00:24:01.975Z</time>
</trkpt>
<trkpt lat="-27.0017497" lon="153.0700102">
<ele>0.000</ele>
<time>2016-10-05T00:24:04.032Z</time>
</trkpt>
<trkpt lat="-27.0015852" lon="153.0701227">
<ele>0.000</ele>
<time>2016-10-05T00:24:06.062Z</time>
</trkpt>
<trkpt lat="-27.0013485" lon="153.0702741">
<ele>0.000</ele>
<time>2016-10-05T00:24:08.952Z</time>
</trkpt>
<trkpt lat="-27.0010765" lon="153.0703352">
<ele>0.000</ele>
<time>2016-10-05T00:24:11.877Z</time>
</trkpt>
<trkpt lat="-27.0007717" lon="153.0702968">
<ele>0.000</ele>
<time>2016-10-05T00:24:14.921Z</time>
</trkpt>
<trkpt lat="-27.0004552" lon="153.0702435">
<ele>0.000</ele>
<time>2016-10-05T00:24:17.960Z</time>
</trkpt>
<trkpt lat="-27.0001799" lon="153.0701912">
<ele>0.000</ele>
<time>2016-10-05T00:24:20.742Z</time>
</trkpt>
<trkpt lat="-26.9999926" lon="153.0701564">
<ele>0.000</ele>
<time>2016-10-05T00:24:22.723Z</time>
</trkpt>
<trkpt lat="-26.9998088" lon="153.0701322">
<ele>0.000</ele>
<time>2016-10-05T00:24:24.691Z</time>
</trkpt>
<trkpt lat="-26.9995486" lon="153.0701007">
<ele>0.000</ele>
<time>2016-10-05T00:24:27.629Z</time>
</trkpt>
<trkpt lat="-26.9994145" lon="153.0700576">
<ele>0.000</ele>
<time>2016-10-05T00:24:29.314Z</time>
</trkpt>
<trkpt lat="-26.9993092" lon="153.0699491">
<ele>0.000</ele>
<time>2016-10-05T00:24:31.281Z</time>
</trkpt>
<trkpt lat="-26.9991475" lon="153.0697462">
<ele>0.000</ele>
<time>2016-10-05T00:24:34.573Z</time>
</trkpt>
<trkpt lat="-26.9990259" lon="153.0695899">
<ele>0.000</ele>
<time>2016-10-05T00:24:36.865Z</time>
</trkpt>
<trkpt lat="-26.9988642" lon="153.0693435">
<ele>0.000</ele>
<time>2016-10-05T00:24:39.938Z</time>
</trkpt>
<trkpt lat="-26.9987920" lon="153.0691818">
<ele>0.000</ele>
<time>2016-10-05T00:24:41.749Z</time>
</trkpt>
<trkpt lat="-26.9987147" lon="153.0689708">
<ele>0.000</ele>
<time>2016-10-05T00:24:44.230Z</time>
</trkpt>
<trkpt lat="-26.9986922" lon="153.0688413">
<ele>0.000</ele>
<time>2016-10-05T00:24:45.768Z</time>
</trkpt>
<trkpt lat="-26.9986500" lon="153.0687157">
<ele>0.000</ele>
<time>2016-10-05T00:24:47.605Z</time>
</trkpt>
<trkpt lat="-26.9985604" lon="153.0686995">
<ele>0.000</ele>
<time>2016-10-05T00:24:49.391Z</time>
</trkpt>
<trkpt lat="-26.9985429" lon="153.0688136">
<ele>0.000</ele>
<time>2016-10-05T00:24:51.844Z</time>
</trkpt>
<trkpt lat="-26.9986276" lon="153.0689289">
<ele>0.000</ele>
<time>2016-10-05T00:24:56.076Z</time>
</trkpt>
<trkpt lat="-26.9987345" lon="153.0690599">
<ele>0.000</ele>
<time>2016-10-05T00:25:00.210Z</time>
</trkpt>
<trkpt lat="-26.9987892" lon="153.0691708">
<ele>0.000</ele>
<time>2016-10-05T00:25:02.464Z</time>
</trkpt>
<trkpt lat="-26.9988672" lon="153.0693272">
<ele>0.000</ele>
<time>2016-10-05T00:25:05.454Z</time>
</trkpt>
<trkpt lat="-26.9989626" lon="153.0694745">
<ele>0.000</ele>
<time>2016-10-05T00:25:08.472Z</time>
</trkpt>
<trkpt lat="-26.9990561" lon="153.0696200">
<ele>0.000</ele>
<time>2016-10-05T00:25:11.509Z</time>
</trkpt>
<trkpt lat="-26.9991260" lon="153.0697043">
<ele>0.000</ele>
<time>2016-10-05T00:25:13.508Z</time>
</trkpt>
<trkpt lat="-26.9992222" lon="153.0698106">
<ele>0.000</ele>
<time>2016-10-05T00:25:16.222Z</time>
</trkpt>
<trkpt lat="-26.9992955" lon="153.0698861">
<ele>0.000</ele>
<time>2016-10-05T00:25:18.300Z</time>
</trkpt>
<trkpt lat="-26.9993774" lon="153.0700165">
<ele>0.000</ele>
<time>2016-10-05T00:25:21.198Z</time>
</trkpt>
<trkpt lat="-26.9995155" lon="153.0701048">
<ele>0.000</ele>
<time>2016-10-05T00:25:24.270Z</time>
</trkpt>
<trkpt lat="-26.9996888" lon="153.0701449">
<ele>0.000</ele>
<time>2016-10-05T00:25:27.557Z</time>
</trkpt>
<trkpt lat="-26.9998511" lon="153.0701700">
<ele>0.000</ele>
<time>2016-10-05T00:25:30.531Z</time>
</trkpt>
<trkpt lat="-27.0000213" lon="153.0702032">
<ele>0.000</ele>
<time>2016-10-05T00:25:33.653Z</time>
</trkpt>
<trkpt lat="-27.0001903" lon="153.0702477">
<ele>0.000</ele>
<time>2016-10-05T00:25:36.735Z</time>
</trkpt>
<trkpt lat="-27.0003694" lon="153.0703032">
<ele>0.000</ele>
<time>2016-10-05T00:25:39.953Z</time>
</trkpt>
<trkpt lat="-27.0004842" lon="153.0703347">
<ele>0.000</ele>
<time>2016-10-05T00:25:41.982Z</time>
</trkpt>
<trkpt lat="-27.0006433" lon="153.0703766">
<ele>0.000</ele>
<time>2016-10-05T00:25:44.819Z</time>
</trkpt>
<trkpt lat="-27.0008101" lon="153.0703902">
<ele>0.000</ele>
<time>2016-10-05T00:25:47.775Z</time>
</trkpt>
<trkpt lat="-27.0009724" lon="153.0704026">
<ele>0.000</ele>
<time>2016-10-05T00:25:50.703Z</time>
</trkpt>
<trkpt lat="-27.0011216" lon="153.0703946">
<ele>0.000</ele>
<time>2016-10-05T00:25:53.321Z</time>
</trkpt>
<trkpt lat="-27.0013239" lon="153.0703413">
<ele>0.000</ele>
<time>2016-10-05T00:25:56.235Z</time>
</trkpt>
<trkpt lat="-27.0015029" lon="153.0702358">
<ele>0.000</ele>
<time>2016-10-05T00:25:58.529Z</time>
</trkpt>
<trkpt lat="-27.0017743" lon="153.0700486">
<ele>0.000</ele>
<time>2016-10-05T00:26:01.732Z</time>
</trkpt>
<trkpt lat="-27.0020181" lon="153.0698778">
<ele>0.000</ele>
<time>2016-10-05T00:26:04.563Z</time>
</trkpt>
<trkpt lat="-27.0021760" lon="153.0697722">
<ele>0.000</ele>
<time>2016-10-05T00:26:06.437Z</time>
</trkpt>
<trkpt lat="-27.0024063" lon="153.0696018">
<ele>0.000</ele>
<time>2016-10-05T00:26:09.390Z</time>
</trkpt>
<trkpt lat="-27.0026262" lon="153.0694505">
<ele>0.000</ele>
<time>2016-10-05T00:26:12.295Z</time>
</trkpt>
<trkpt lat="-27.0028384" lon="153.0693053">
<ele>0.000</ele>
<time>2016-10-05T00:26:15.219Z</time>
</trkpt>
<trkpt lat="-27.0029885" lon="153.0692033">
<ele>0.000</ele>
<time>2016-10-05T00:26:17.313Z</time>
</trkpt>
<trkpt lat="-27.0031226" lon="153.0691089">
<ele>0.000</ele>
<time>2016-10-05T00:26:19.233Z</time>
</trkpt>
<trkpt lat="-27.0032583" lon="153.0690096">
<ele>0.000</ele>
<time>2016-10-05T00:26:21.252Z</time>
</trkpt>
<trkpt lat="-27.0034717" lon="153.0688652">
<ele>0.000</ele>
<time>2016-10-05T00:26:24.371Z</time>
</trkpt>
<trkpt lat="-27.0036834" lon="153.0687272">
<ele>0.000</ele>
<time>2016-10-05T00:26:27.362Z</time>
</trkpt>
<trkpt lat="-27.0038314" lon="153.0686186">
<ele>0.000</ele>
<time>2016-10-05T00:26:29.475Z</time>
</trkpt>
<trkpt lat="-27.0039781" lon="153.0685192">
<ele>0.000</ele>
<time>2016-10-05T00:26:31.473Z</time>
</trkpt>
<trkpt lat="-27.0041834" lon="153.0683746">
<ele>0.000</ele>
<time>2016-10-05T00:26:34.326Z</time>
</trkpt>
<trkpt lat="-27.0043315" lon="153.0682810">
<ele>0.000</ele>
<time>2016-10-05T00:26:36.362Z</time>
</trkpt>
<trkpt lat="-27.0045353" lon="153.0681498">
<ele>0.000</ele>
<time>2016-10-05T00:26:39.239Z</time>
</trkpt>
<trkpt lat="-27.0046441" lon="153.0680647">
<ele>0.000</ele>
<time>2016-10-05T00:26:40.972Z</time>
</trkpt>
<trkpt lat="-27.0047902" lon="153.0679625">
<ele>0.000</ele>
<time>2016-10-05T00:26:43.534Z</time>
</trkpt>
<trkpt lat="-27.0049174" lon="153.0678752">
<ele>0.000</ele>
<time>2016-10-05T00:26:45.829Z</time>
</trkpt>
<trkpt lat="-27.0051375" lon="153.0677377">
<ele>0.000</ele>
<time>2016-10-05T00:26:49.109Z</time>
</trkpt>
<trkpt lat="-27.0053018" lon="153.0676312">
<ele>0.000</ele>
<time>2016-10-05T00:26:51.276Z</time>
</trkpt>
<trkpt lat="-27.0054390" lon="153.0674774">
<ele>0.000</ele>
<time>2016-10-05T00:26:53.365Z</time>
</trkpt>
<trkpt lat="-27.0055412" lon="153.0671609">
<ele>0.000</ele>
<time>2016-10-05T00:26:56.483Z</time>
</trkpt>
<trkpt lat="-27.0055762" lon="153.0669230">
<ele>0.000</ele>
<time>2016-10-05T00:26:58.583Z</time>
</trkpt>
<trkpt lat="-27.0056081" lon="153.0665948">
<ele>0.000</ele>
<time>2016-10-05T00:27:01.355Z</time>
</trkpt>
<trkpt lat="-27.0056432" lon="153.0663730">
<ele>0.000</ele>
<time>2016-10-05T00:27:03.282Z</time>
</trkpt>
<trkpt lat="-27.0056834" lon="153.0660378">
<ele>0.000</ele>
<time>2016-10-05T00:27:06.255Z</time>
</trkpt>
<trkpt lat="-27.0057108" lon="153.0658181">
<ele>0.000</ele>
<time>2016-10-05T00:27:08.229Z</time>
</trkpt>
<trkpt lat="-27.0056868" lon="153.0654701">
<ele>0.000</ele>
<time>2016-10-05T00:27:11.300Z</time>
</trkpt>
<trkpt lat="-27.0056341" lon="153.0652508">
<ele>0.000</ele>
<time>2016-10-05T00:27:13.272Z</time>
</trkpt>
<trkpt lat="-27.0055011" lon="153.0649371">
<ele>0.078</ele>
<time>2016-10-05T00:27:16.253Z</time>
</trkpt>
<trkpt lat="-27.0053542" lon="153.0647334">
<ele>0.366</ele>
<time>2016-10-05T00:27:18.386Z</time>
</trkpt>
<trkpt lat="-27.0052105" lon="153.0644875">
<ele>0.731</ele>
<time>2016-10-05T00:27:20.559Z</time>
</trkpt>
<trkpt lat="-27.0050901" lon="153.0640473">
<ele>1.076</ele>
<time>2016-10-05T00:27:23.582Z</time>
</trkpt>
<trkpt lat="-27.0050757" lon="153.0636492">
<ele>1.527</ele>
<time>2016-10-05T00:27:25.853Z</time>
</trkpt>
<trkpt lat="-27.0050870" lon="153.0630042">
<ele>2.537</ele>
<time>2016-10-05T00:27:28.989Z</time>
</trkpt>
<trkpt lat="-27.0050975" lon="153.0625635">
<ele>4.096</ele>
<time>2016-10-05T00:27:30.982Z</time>
</trkpt>
<trkpt lat="-27.0051242" lon="153.0619217">
<ele>5.455</ele>
<time>2016-10-05T00:27:33.894Z</time>
</trkpt>
<trkpt lat="-27.0051500" lon="153.0612912">
<ele>6.010</ele>
<time>2016-10-05T00:27:36.845Z</time>
</trkpt>
<trkpt lat="-27.0051661" lon="153.0606816">
<ele>5.885</ele>
<time>2016-10-05T00:27:39.814Z</time>
</trkpt>
<trkpt lat="-27.0052121" lon="153.0602888">
<ele>5.441</ele>
<time>2016-10-05T00:27:41.773Z</time>
</trkpt>
<trkpt lat="-27.0054587" lon="153.0596491">
<ele>4.981</ele>
<time>2016-10-05T00:27:44.948Z</time>
</trkpt>
<trkpt lat="-27.0056706" lon="153.0592498">
<ele>5.397</ele>
<time>2016-10-05T00:27:46.954Z</time>
</trkpt>
<trkpt lat="-27.0059625" lon="153.0587100">
<ele>7.155</ele>
<time>2016-10-05T00:27:49.891Z</time>
</trkpt>
<trkpt lat="-27.0061692" lon="153.0581651">
<ele>8.793</ele>
<time>2016-10-05T00:27:52.824Z</time>
</trkpt>
<trkpt lat="-27.0061603" lon="153.0577058">
<ele>9.018</ele>
<time>2016-10-05T00:27:55.022Z</time>
</trkpt>
<trkpt lat="-27.0060903" lon="153.0572373">
<ele>8.618</ele>
<time>2016-10-05T00:27:57.125Z</time>
</trkpt>
<trkpt lat="-27.0060417" lon="153.0567730">
<ele>8.570</ele>
<time>2016-10-05T00:27:59.170Z</time>
</trkpt>
<trkpt lat="-27.0060347" lon="153.0561283">
<ele>8.810</ele>
<time>2016-10-05T00:28:02.071Z</time>
</trkpt>
<trkpt lat="-27.0060657" lon="153.0556868">
<ele>8.987</ele>
<time>2016-10-05T00:28:04.100Z</time>
</trkpt>
<trkpt lat="-27.0061069" lon="153.0552667">
<ele>9.180</ele>
<time>2016-10-05T00:28:06.063Z</time>
</trkpt>
<trkpt lat="-27.0061440" lon="153.0548658">
<ele>9.576</ele>
<time>2016-10-05T00:28:08.014Z</time>
</trkpt>
<trkpt lat="-27.0062199" lon="153.0543070">
<ele>10.040</ele>
<time>2016-10-05T00:28:10.917Z</time>
</trkpt>
<trkpt lat="-27.0063036" lon="153.0537326">
<ele>10.419</ele>
<time>2016-10-05T00:28:13.909Z</time>
</trkpt>
<trkpt lat="-27.0063553" lon="153.0533252">
<ele>11.024</ele>
<time>2016-10-05T00:28:15.933Z</time>
</trkpt>
<trkpt lat="-27.0064086" lon="153.0529143">
<ele>12.021</ele>
<time>2016-10-05T00:28:17.941Z</time>
</trkpt>
<trkpt lat="-27.0064700" lon="153.0525283">
<ele>12.963</ele>
<time>2016-10-05T00:28:19.865Z</time>
</trkpt>
<trkpt lat="-27.0065582" lon="153.0519552">
<ele>13.323</ele>
<time>2016-10-05T00:28:22.799Z</time>
</trkpt>
<trkpt lat="-27.0066067" lon="153.0515577">
<ele>12.772</ele>
<time>2016-10-05T00:28:24.849Z</time>
</trkpt>
<trkpt lat="-27.0066812" lon="153.0511807">
<ele>11.497</ele>
<time>2016-10-05T00:28:26.822Z</time>
</trkpt>
<trkpt lat="-27.0067358" lon="153.0508103">
<ele>10.305</ele>
<time>2016-10-05T00:28:28.765Z</time>
</trkpt>
<trkpt lat="-27.0068102" lon="153.0502842">
<ele>9.593</ele>
<time>2016-10-05T00:28:31.623Z</time>
</trkpt>
<trkpt lat="-27.0069226" lon="153.0499594">
<ele>9.088</ele>
<time>2016-10-05T00:28:33.560Z</time>
</trkpt>
<trkpt lat="-27.0071300" lon="153.0496749">
<ele>8.592</ele>
<time>2016-10-05T00:28:35.582Z</time>
</trkpt>
<trkpt lat="-27.0076524" lon="153.0493142">
<ele>8.156</ele>
<time>2016-10-05T00:28:38.891Z</time>
</trkpt>
<trkpt lat="-27.0080559" lon="153.0490911">
<ele>8.355</ele>
<time>2016-10-05T00:28:40.991Z</time>
</trkpt>
<trkpt lat="-27.0086728" lon="153.0487430">
<ele>9.569</ele>
<time>2016-10-05T00:28:44.058Z</time>
</trkpt>
<trkpt lat="-27.0090714" lon="153.0485210">
<ele>11.016</ele>
<time>2016-10-05T00:28:46.040Z</time>
</trkpt>
<trkpt lat="-27.0094569" lon="153.0483097">
<ele>11.773</ele>
<time>2016-10-05T00:28:48.010Z</time>
</trkpt>
<trkpt lat="-27.0098320" lon="153.0480999">
<ele>11.832</ele>
<time>2016-10-05T00:28:49.977Z</time>
</trkpt>
<trkpt lat="-27.0102110" lon="153.0478814">
<ele>11.392</ele>
<time>2016-10-05T00:28:52.007Z</time>
</trkpt>
<trkpt lat="-27.0107504" lon="153.0475168">
<ele>10.421</ele>
<time>2016-10-05T00:28:54.998Z</time>
</trkpt>
<trkpt lat="-27.0112555" lon="153.0471022">
<ele>8.981</ele>
<time>2016-10-05T00:28:57.932Z</time>
</trkpt>
<trkpt lat="-27.0115757" lon="153.0467725">
<ele>7.517</ele>
<time>2016-10-05T00:28:59.961Z</time>
</trkpt>
<trkpt lat="-27.0120254" lon="153.0463038">
<ele>6.288</ele>
<time>2016-10-05T00:29:02.878Z</time>
</trkpt>
<trkpt lat="-27.0123001" lon="153.0460061">
<ele>4.759</ele>
<time>2016-10-05T00:29:04.770Z</time>
</trkpt>
<trkpt lat="-27.0127212" lon="153.0455460">
<ele>2.615</ele>
<time>2016-10-05T00:29:07.748Z</time>
</trkpt>
<trkpt lat="-27.0130511" lon="153.0452587">
<ele>0.215</ele>
<time>2016-10-05T00:29:09.829Z</time>
</trkpt>
<trkpt lat="-27.0134182" lon="153.0450096">
<ele>0.000</ele>
<time>2016-10-05T00:29:11.878Z</time>
</trkpt>
<trkpt lat="-27.0138165" lon="153.0448108">
<ele>0.000</ele>
<time>2016-10-05T00:29:13.900Z</time>
</trkpt>
<trkpt lat="-27.0144621" lon="153.0445944">
<ele>0.000</ele>
<time>2016-10-05T00:29:16.969Z</time>
</trkpt>
<trkpt lat="-27.0148824" lon="153.0444556">
<ele>0.000</ele>
<time>2016-10-05T00:29:18.949Z</time>
</trkpt>
<trkpt lat="-27.0155225" lon="153.0442762">
<ele>0.000</ele>
<time>2016-10-05T00:29:21.961Z</time>
</trkpt>
<trkpt lat="-27.0161533" lon="153.0440940">
<ele>0.000</ele>
<time>2016-10-05T00:29:24.954Z</time>
</trkpt>
<trkpt lat="-27.0165631" lon="153.0439644">
<ele>0.000</ele>
<time>2016-10-05T00:29:26.922Z</time>
</trkpt>
<trkpt lat="-27.0169909" lon="153.0438263">
<ele>0.000</ele>
<time>2016-10-05T00:29:28.959Z</time>
</trkpt>
<trkpt lat="-27.0176298" lon="153.0436434">
<ele>0.000</ele>
<time>2016-10-05T00:29:31.937Z</time>
</trkpt>
<trkpt lat="-27.0180428" lon="153.0435163">
<ele>0.000</ele>
<time>2016-10-05T00:29:33.887Z</time>
</trkpt>
<trkpt lat="-27.0184543" lon="153.0433935">
<ele>0.000</ele>
<time>2016-10-05T00:29:35.857Z</time>
</trkpt>
<trkpt lat="-27.0190627" lon="153.0432175">
<ele>0.000</ele>
<time>2016-10-05T00:29:38.832Z</time>
</trkpt>
<trkpt lat="-27.0194498" lon="153.0431061">
<ele>0.000</ele>
<time>2016-10-05T00:29:40.773Z</time>
</trkpt>
<trkpt lat="-27.0200288" lon="153.0429260">
<ele>0.000</ele>
<time>2016-10-05T00:29:43.740Z</time>
</trkpt>
<trkpt lat="-27.0206101" lon="153.0427481">
<ele>0.000</ele>
<time>2016-10-05T00:29:46.726Z</time>
</trkpt>
<trkpt lat="-27.0209886" lon="153.0426387">
<ele>0.000</ele>
<time>2016-10-05T00:29:48.681Z</time>
</trkpt>
<trkpt lat="-27.0215574" lon="153.0424668">
<ele>0.000</ele>
<time>2016-10-05T00:29:51.678Z</time>
</trkpt>
<trkpt lat="-27.0221282" lon="153.0423005">
<ele>0.000</ele>
<time>2016-10-05T00:29:54.683Z</time>
</trkpt>
<trkpt lat="-27.0225378" lon="153.0422561">
<ele>0.000</ele>
<time>2016-10-05T00:29:56.739Z</time>
</trkpt>
<trkpt lat="-27.0231700" lon="153.0422513">
<ele>0.000</ele>
<time>2016-10-05T00:29:59.791Z</time>
</trkpt>
<trkpt lat="-27.0237968" lon="153.0422986">
<ele>0.000</ele>
<time>2016-10-05T00:30:02.773Z</time>
</trkpt>
<trkpt lat="-27.0243759" lon="153.0423603">
<ele>0.000</ele>
<time>2016-10-05T00:30:05.627Z</time>
</trkpt>
<trkpt lat="-27.0249418" lon="153.0423622">
<ele>0.000</ele>
<time>2016-10-05T00:30:08.557Z</time>
</trkpt>
<trkpt lat="-27.0254908" lon="153.0422793">
<ele>0.000</ele>
<time>2016-10-05T00:30:11.473Z</time>
</trkpt>
<trkpt lat="-27.0260713" lon="153.0420307">
<ele>0.000</ele>
<time>2016-10-05T00:30:14.603Z</time>
</trkpt>
<trkpt lat="-27.0264268" lon="153.0417820">
<ele>0.000</ele>
<time>2016-10-05T00:30:16.608Z</time>
</trkpt>
<trkpt lat="-27.0268830" lon="153.0412777">
<ele>0.000</ele>
<time>2016-10-05T00:30:19.629Z</time>
</trkpt>
<trkpt lat="-27.0272584" lon="153.0407468">
<ele>0.000</ele>
<time>2016-10-05T00:30:22.539Z</time>
</trkpt>
<trkpt lat="-27.0277279" lon="153.0403174">
<ele>0.000</ele>
<time>2016-10-05T00:30:25.511Z</time>
</trkpt>
<trkpt lat="-27.0280887" lon="153.0401069">
<ele>0.000</ele>
<time>2016-10-05T00:30:27.508Z</time>
</trkpt>
<trkpt lat="-27.0284858" lon="153.0399679">
<ele>0.000</ele>
<time>2016-10-05T00:30:29.546Z</time>
</trkpt>
<trkpt lat="-27.0288869" lon="153.0398944">
<ele>0.000</ele>
<time>2016-10-05T00:30:31.542Z</time>
</trkpt>
<trkpt lat="-27.0292582" lon="153.0398731">
<ele>0.000</ele>
<time>2016-10-05T00:30:33.413Z</time>
</trkpt>
<trkpt lat="-27.0297740" lon="153.0398433">
<ele>0.000</ele>
<time>2016-10-05T00:30:36.208Z</time>
</trkpt>
<trkpt lat="-27.0302258" lon="153.0398175">
<ele>0.000</ele>
<time>2016-10-05T00:30:38.915Z</time>
</trkpt>
<trkpt lat="-27.0306097" lon="153.0397482">
<ele>0.000</ele>
<time>2016-10-05T00:30:41.538Z</time>
</trkpt>
<trkpt lat="-27.0308122" lon="153.0396726">
<ele>0.000</ele>
<time>2016-10-05T00:30:43.083Z</time>
</trkpt>
<trkpt lat="-27.0309845" lon="153.0395576">
<ele>0.000</ele>
<time>2016-10-05T00:30:44.768Z</time>
</trkpt>
<trkpt lat="-27.0310836" lon="153.0394861">
<ele>0.000</ele>
<time>2016-10-05T00:30:46.009Z</time>
</trkpt>
<trkpt lat="-27.0311346" lon="153.0393530">
<ele>0.000</ele>
<time>2016-10-05T00:30:47.454Z</time>
</trkpt>
<trkpt lat="-27.0311055" lon="153.0391377">
<ele>0.000</ele>
<time>2016-10-05T00:30:50.290Z</time>
</trkpt>
<trkpt lat="-27.0310287" lon="153.0388713">
<ele>0.000</ele>
<time>2016-10-05T00:30:53.982Z</time>
</trkpt>
<trkpt lat="-27.0309428" lon="153.0383363">
<ele>0.000</ele>
<time>2016-10-05T00:30:58.008Z</time>
</trkpt>
<trkpt lat="-27.0308961" lon="153.0375506">
<ele>0.000</ele>
<time>2016-10-05T00:31:02.289Z</time>
</trkpt>
<trkpt lat="-27.0308420" lon="153.0365802">
<ele>0.000</ele>
<time>2016-10-05T00:31:06.748Z</time>
</trkpt>
<trkpt lat="-27.0308092" lon="153.0357572">
<ele>1.545</ele>
<time>2016-10-05T00:31:10.130Z</time>
</trkpt>
<trkpt lat="-27.0307891" lon="153.0353297">
<ele>5.940</ele>
<time>2016-10-05T00:31:11.994Z</time>
</trkpt>
<trkpt lat="-27.0307767" lon="153.0349262">
<ele>6.405</ele>
<time>2016-10-05T00:31:13.976Z</time>
</trkpt>
<trkpt lat="-27.0307601" lon="153.0345339">
<ele>3.499</ele>
<time>2016-10-05T00:31:15.959Z</time>
</trkpt>
<trkpt lat="-27.0307275" lon="153.0339478">
<ele>0.000</ele>
<time>2016-10-05T00:31:18.870Z</time>
</trkpt>
<trkpt lat="-27.0307116" lon="153.0335368">
<ele>0.000</ele>
<time>2016-10-05T00:31:20.829Z</time>
</trkpt>
<trkpt lat="-27.0306826" lon="153.0328964">
<ele>0.000</ele>
<time>2016-10-05T00:31:23.852Z</time>
</trkpt>
<trkpt lat="-27.0306600" lon="153.0322676">
<ele>0.000</ele>
<time>2016-10-05T00:31:26.756Z</time>
</trkpt>
<trkpt lat="-27.0306282" lon="153.0316047">
<ele>1.845</ele>
<time>2016-10-05T00:31:29.710Z</time>
</trkpt>
<trkpt lat="-27.0306067" lon="153.0311473">
<ele>3.955</ele>
<time>2016-10-05T00:31:31.688Z</time>
</trkpt>
<trkpt lat="-27.0305542" lon="153.0304639">
<ele>5.352</ele>
<time>2016-10-05T00:31:34.635Z</time>
</trkpt>
<trkpt lat="-27.0305001" lon="153.0299916">
<ele>5.961</ele>
<time>2016-10-05T00:31:36.607Z</time>
</trkpt>
<trkpt lat="-27.0303876" lon="153.0292482">
<ele>6.544</ele>
<time>2016-10-05T00:31:39.651Z</time>
</trkpt>
<trkpt lat="-27.0303188" lon="153.0287434">
<ele>7.473</ele>
<time>2016-10-05T00:31:41.695Z</time>
</trkpt>
<trkpt lat="-27.0302161" lon="153.0280160">
<ele>8.352</ele>
<time>2016-10-05T00:31:44.657Z</time>
</trkpt>
<trkpt lat="-27.0301025" lon="153.0272803">
<ele>8.649</ele>
<time>2016-10-05T00:31:47.673Z</time>
</trkpt>
<trkpt lat="-27.0300028" lon="153.0265712">
<ele>8.232</ele>
<time>2016-10-05T00:31:50.614Z</time>
</trkpt>
<trkpt lat="-27.0299065" lon="153.0258760">
<ele>7.587</ele>
<time>2016-10-05T00:31:53.555Z</time>
</trkpt>
<trkpt lat="-27.0298459" lon="153.0254092">
<ele>7.251</ele>
<time>2016-10-05T00:31:55.548Z</time>
</trkpt>
<trkpt lat="-27.0298134" lon="153.0249429">
<ele>7.170</ele>
<time>2016-10-05T00:31:57.464Z</time>
</trkpt>
<trkpt lat="-27.0298859" lon="153.0241899">
<ele>7.139</ele>
<time>2016-10-05T00:32:00.419Z</time>
</trkpt>
<trkpt lat="-27.0300139" lon="153.0236490">
<ele>7.273</ele>
<time>2016-10-05T00:32:02.395Z</time>
</trkpt>
<trkpt lat="-27.0301894" lon="153.0228080">
<ele>7.985</ele>
<time>2016-10-05T00:32:05.274Z</time>
</trkpt>
<trkpt lat="-27.0304250" lon="153.0218561">
<ele>10.027</ele>
<time>2016-10-05T00:32:08.429Z</time>
</trkpt>
<trkpt lat="-27.0306303" lon="153.0209753">
<ele>13.111</ele>
<time>2016-10-05T00:32:11.408Z</time>
</trkpt>
<trkpt lat="-27.0307684" lon="153.0204325">
<ele>15.482</ele>
<time>2016-10-05T00:32:13.360Z</time>
</trkpt>
<trkpt lat="-27.0309019" lon="153.0198821">
<ele>15.947</ele>
<time>2016-10-05T00:32:15.342Z</time>
</trkpt>
<trkpt lat="-27.0310953" lon="153.0190537">
<ele>15.106</ele>
<time>2016-10-05T00:32:18.320Z</time>
</trkpt>
<trkpt lat="-27.0312151" lon="153.0185262">
<ele>14.303</ele>
<time>2016-10-05T00:32:20.274Z</time>
</trkpt>
<trkpt lat="-27.0314864" lon="153.0177805">
<ele>14.268</ele>
<time>2016-10-05T00:32:23.243Z</time>
</trkpt>
<trkpt lat="-27.0319457" lon="153.0171535">
<ele>14.647</ele>
<time>2016-10-05T00:32:26.294Z</time>
</trkpt>
<trkpt lat="-27.0324529" lon="153.0166054">
<ele>15.012</ele>
<time>2016-10-05T00:32:29.275Z</time>
</trkpt>
<trkpt lat="-27.0327588" lon="153.0162001">
<ele>15.308</ele>
<time>2016-10-05T00:32:31.207Z</time>
</trkpt>
<trkpt lat="-27.0331973" lon="153.0154781">
<ele>15.497</ele>
<time>2016-10-05T00:32:34.250Z</time>
</trkpt>
<trkpt lat="-27.0334609" lon="153.0149533">
<ele>15.542</ele>
<time>2016-10-05T00:32:36.281Z</time>
</trkpt>
<trkpt lat="-27.0337120" lon="153.0144399">
<ele>14.958</ele>
<time>2016-10-05T00:32:38.274Z</time>
</trkpt>
<trkpt lat="-27.0339427" lon="153.0139267">
<ele>13.318</ele>
<time>2016-10-05T00:32:40.273Z</time>
</trkpt>
<trkpt lat="-27.0342915" lon="153.0131857">
<ele>10.793</ele>
<time>2016-10-05T00:32:43.255Z</time>
</trkpt>
<trkpt lat="-27.0345101" lon="153.0127207">
<ele>8.060</ele>
<time>2016-10-05T00:32:45.205Z</time>
</trkpt>
<trkpt lat="-27.0347069" lon="153.0122565">
<ele>6.080</ele>
<time>2016-10-05T00:32:47.154Z</time>
</trkpt>
<trkpt lat="-27.0349623" lon="153.0115353">
<ele>5.335</ele>
<time>2016-10-05T00:32:50.106Z</time>
</trkpt>
<trkpt lat="-27.0352435" lon="153.0108097">
<ele>5.997</ele>
<time>2016-10-05T00:32:53.113Z</time>
</trkpt>
<trkpt lat="-27.0354565" lon="153.0103486">
<ele>7.936</ele>
<time>2016-10-05T00:32:55.097Z</time>
</trkpt>
<trkpt lat="-27.0358325" lon="153.0096969">
<ele>9.940</ele>
<time>2016-10-05T00:32:58.058Z</time>
</trkpt>
<trkpt lat="-27.0360956" lon="153.0092596">
<ele>11.089</ele>
<time>2016-10-05T00:33:00.013Z</time>
</trkpt>
<trkpt lat="-27.0364145" lon="153.0087968">
<ele>11.687</ele>
<time>2016-10-05T00:33:02.115Z</time>
</trkpt>
<trkpt lat="-27.0367110" lon="153.0083560">
<ele>12.090</ele>
<time>2016-10-05T00:33:04.115Z</time>
</trkpt>
<trkpt lat="-27.0369866" lon="153.0079425">
<ele>12.281</ele>
<time>2016-10-05T00:33:06.060Z</time>
</trkpt>
<trkpt lat="-27.0373802" lon="153.0073295">
<ele>12.157</ele>
<time>2016-10-05T00:33:08.979Z</time>
</trkpt>
<trkpt lat="-27.0376542" lon="153.0069082">
<ele>11.867</ele>
<time>2016-10-05T00:33:10.996Z</time>
</trkpt>
<trkpt lat="-27.0380806" lon="153.0062767">
<ele>11.706</ele>
<time>2016-10-05T00:33:14.044Z</time>
</trkpt>
<trkpt lat="-27.0384842" lon="153.0056684">
<ele>12.000</ele>
<time>2016-10-05T00:33:16.979Z</time>
</trkpt>
<trkpt lat="-27.0387494" lon="153.0052615">
<ele>12.512</ele>
<time>2016-10-05T00:33:18.956Z</time>
</trkpt>
<trkpt lat="-27.0390132" lon="153.0048560">
<ele>12.596</ele>
<time>2016-10-05T00:33:20.944Z</time>
</trkpt>
<trkpt lat="-27.0394105" lon="153.0042548">
<ele>12.230</ele>
<time>2016-10-05T00:33:23.927Z</time>
</trkpt>
<trkpt lat="-27.0398051" lon="153.0036532">
<ele>11.910</ele>
<time>2016-10-05T00:33:26.931Z</time>
</trkpt>
<trkpt lat="-27.0401640" lon="153.0030535">
<ele>11.817</ele>
<time>2016-10-05T00:33:29.875Z</time>
</trkpt>
<trkpt lat="-27.0403486" lon="153.0026174">
<ele>11.938</ele>
<time>2016-10-05T00:33:31.848Z</time>
</trkpt>
<trkpt lat="-27.0405540" lon="153.0019028">
<ele>12.288</ele>
<time>2016-10-05T00:33:34.853Z</time>
</trkpt>
<trkpt lat="-27.0407342" lon="153.0011557">
<ele>12.959</ele>
<time>2016-10-05T00:33:37.846Z</time>
</trkpt>
<trkpt lat="-27.0409089" lon="153.0004012">
<ele>14.495</ele>
<time>2016-10-05T00:33:40.825Z</time>
</trkpt>
<trkpt lat="-27.0410782" lon="152.9996658">
<ele>16.907</ele>
<time>2016-10-05T00:33:43.784Z</time>
</trkpt>
<trkpt lat="-27.0411911" lon="152.9992041">
<ele>18.590</ele>
<time>2016-10-05T00:33:45.729Z</time>
</trkpt>
<trkpt lat="-27.0412804" lon="152.9987442">
<ele>18.309</ele>
<time>2016-10-05T00:33:47.704Z</time>
</trkpt>
<trkpt lat="-27.0413148" lon="152.9982808">
<ele>16.934</ele>
<time>2016-10-05T00:33:49.651Z</time>
</trkpt>
<trkpt lat="-27.0412062" lon="152.9975129">
<ele>16.051</ele>
<time>2016-10-05T00:33:52.759Z</time>
</trkpt>
<trkpt lat="-27.0410664" lon="152.9967371">
<ele>16.539</ele>
<time>2016-10-05T00:33:55.777Z</time>
</trkpt>
<trkpt lat="-27.0409306" lon="152.9959633">
<ele>17.979</ele>
<time>2016-10-05T00:33:58.774Z</time>
</trkpt>
<trkpt lat="-27.0408021" lon="152.9952170">
<ele>19.326</ele>
<time>2016-10-05T00:34:01.701Z</time>
</trkpt>
<trkpt lat="-27.0406669" lon="152.9944651">
<ele>20.170</ele>
<time>2016-10-05T00:34:04.671Z</time>
</trkpt>
<trkpt lat="-27.0405352" lon="152.9936990">
<ele>20.828</ele>
<time>2016-10-05T00:34:07.670Z</time>
</trkpt>
<trkpt lat="-27.0404025" lon="152.9929512">
<ele>21.633</ele>
<time>2016-10-05T00:34:10.630Z</time>
</trkpt>
<trkpt lat="-27.0403203" lon="152.9924633">
<ele>22.683</ele>
<time>2016-10-05T00:34:12.606Z</time>
</trkpt>
<trkpt lat="-27.0401967" lon="152.9917464">
<ele>23.719</ele>
<time>2016-10-05T00:34:15.574Z</time>
</trkpt>
<trkpt lat="-27.0400647" lon="152.9910485">
<ele>23.803</ele>
<time>2016-10-05T00:34:18.550Z</time>
</trkpt>
<trkpt lat="-27.0399530" lon="152.9903845">
<ele>22.456</ele>
<time>2016-10-05T00:34:21.463Z</time>
</trkpt>
<trkpt lat="-27.0398668" lon="152.9897195">
<ele>20.713</ele>
<time>2016-10-05T00:34:24.440Z</time>
</trkpt>
<trkpt lat="-27.0398530" lon="152.9892823">
<ele>19.504</ele>
<time>2016-10-05T00:34:26.408Z</time>
</trkpt>
<trkpt lat="-27.0398809" lon="152.9886285">
<ele>18.748</ele>
<time>2016-10-05T00:34:29.396Z</time>
</trkpt>
<trkpt lat="-27.0398989" lon="152.9879722">
<ele>18.394</ele>
<time>2016-10-05T00:34:32.379Z</time>
</trkpt>
<trkpt lat="-27.0399012" lon="152.9875379">
<ele>18.705</ele>
<time>2016-10-05T00:34:34.337Z</time>
</trkpt>
<trkpt lat="-27.0399245" lon="152.9871175">
<ele>19.672</ele>
<time>2016-10-05T00:34:36.271Z</time>
</trkpt>
<trkpt lat="-27.0399516" lon="152.9865168">
<ele>20.694</ele>
<time>2016-10-05T00:34:39.172Z</time>
</trkpt>
<trkpt lat="-27.0399645" lon="152.9861492">
<ele>21.092</ele>
<time>2016-10-05T00:34:41.090Z</time>
</trkpt>
<trkpt lat="-27.0399847" lon="152.9858040">
<ele>20.527</ele>
<time>2016-10-05T00:34:42.995Z</time>
</trkpt>
<trkpt lat="-27.0400053" lon="152.9852723">
<ele>19.277</ele>
<time>2016-10-05T00:34:45.984Z</time>
</trkpt>
<trkpt lat="-27.0400193" lon="152.9849359">
<ele>18.145</ele>
<time>2016-10-05T00:34:47.931Z</time>
</trkpt>
<trkpt lat="-27.0400368" lon="152.9844890">
<ele>17.511</ele>
<time>2016-10-05T00:34:50.766Z</time>
</trkpt>
<trkpt lat="-27.0400571" lon="152.9840381">
<ele>17.011</ele>
<time>2016-10-05T00:34:53.794Z</time>
</trkpt>
<trkpt lat="-27.0400592" lon="152.9837426">
<ele>16.391</ele>
<time>2016-10-05T00:34:55.742Z</time>
</trkpt>
<trkpt lat="-27.0400813" lon="152.9834217">
<ele>15.953</ele>
<time>2016-10-05T00:34:57.810Z</time>
</trkpt>
<trkpt lat="-27.0401017" lon="152.9829703">
<ele>15.993</ele>
<time>2016-10-05T00:35:00.712Z</time>
</trkpt>
<trkpt lat="-27.0401231" lon="152.9825187">
<ele>16.424</ele>
<time>2016-10-05T00:35:03.595Z</time>
</trkpt>
<trkpt lat="-27.0401462" lon="152.9820290">
<ele>17.182</ele>
<time>2016-10-05T00:35:06.622Z</time>
</trkpt>
<trkpt lat="-27.0401608" lon="152.9815452">
<ele>18.077</ele>
<time>2016-10-05T00:35:09.575Z</time>
</trkpt>
<trkpt lat="-27.0401499" lon="152.9812216">
<ele>18.704</ele>
<time>2016-10-05T00:35:11.567Z</time>
</trkpt>
<trkpt lat="-27.0401053" lon="152.9807261">
<ele>18.966</ele>
<time>2016-10-05T00:35:14.599Z</time>
</trkpt>
<trkpt lat="-27.0400322" lon="152.9802347">
<ele>19.192</ele>
<time>2016-10-05T00:35:17.594Z</time>
</trkpt>
<trkpt lat="-27.0399858" lon="152.9799280">
<ele>19.680</ele>
<time>2016-10-05T00:35:19.505Z</time>
</trkpt>
<trkpt lat="-27.0399325" lon="152.9796207">
<ele>20.455</ele>
<time>2016-10-05T00:35:21.489Z</time>
</trkpt>
<trkpt lat="-27.0398800" lon="152.9793304">
<ele>21.384</ele>
<time>2016-10-05T00:35:23.412Z</time>
</trkpt>
<trkpt lat="-27.0397952" lon="152.9788734">
<ele>22.389</ele>
<time>2016-10-05T00:35:26.432Z</time>
</trkpt>
<trkpt lat="-27.0397390" lon="152.9785641">
<ele>23.554</ele>
<time>2016-10-05T00:35:28.427Z</time>
</trkpt>
<trkpt lat="-27.0396713" lon="152.9780872">
<ele>24.841</ele>
<time>2016-10-05T00:35:31.420Z</time>
</trkpt>
<trkpt lat="-27.0396665" lon="152.9775979">
<ele>25.994</ele>
<time>2016-10-05T00:35:34.423Z</time>
</trkpt>
<trkpt lat="-27.0396879" lon="152.9772628">
<ele>26.801</ele>
<time>2016-10-05T00:35:36.444Z</time>
</trkpt>
<trkpt lat="-27.0397833" lon="152.9767552">
<ele>27.204</ele>
<time>2016-10-05T00:35:39.457Z</time>
</trkpt>
<trkpt lat="-27.0399247" lon="152.9762316">
<ele>27.314</ele>
<time>2016-10-05T00:35:42.506Z</time>
</trkpt>
<trkpt lat="-27.0400646" lon="152.9758968">
<ele>27.404</ele>
<time>2016-10-05T00:35:44.503Z</time>
</trkpt>
<trkpt lat="-27.0402267" lon="152.9755771">
<ele>27.524</ele>
<time>2016-10-05T00:35:46.472Z</time>
</trkpt>
<trkpt lat="-27.0405063" lon="152.9751317">
<ele>27.496</ele>
<time>2016-10-05T00:35:49.403Z</time>
</trkpt>
<trkpt lat="-27.0408207" lon="152.9747285">
<ele>27.194</ele>
<time>2016-10-05T00:35:52.311Z</time>
</trkpt>
<trkpt lat="-27.0411375" lon="152.9743483">
<ele>26.598</ele>
<time>2016-10-05T00:35:55.189Z</time>
</trkpt>
<trkpt lat="-27.0414169" lon="152.9739476">
<ele>25.581</ele>
<time>2016-10-05T00:35:58.111Z</time>
</trkpt>
<trkpt lat="-27.0416558" lon="152.9735168">
<ele>23.929</ele>
<time>2016-10-05T00:36:01.115Z</time>
</trkpt>
<trkpt lat="-27.0418405" lon="152.9731067">
<ele>21.702</ele>
<time>2016-10-05T00:36:03.896Z</time>
</trkpt>
<trkpt lat="-27.0418813" lon="152.9729286">
<ele>19.200</ele>
<time>2016-10-05T00:36:05.020Z</time>
</trkpt>
<trkpt lat="-27.0419421" lon="152.9727636">
<ele>16.399</ele>
<time>2016-10-05T00:36:06.344Z</time>
</trkpt>
<trkpt lat="-27.0419354" lon="152.9726072">
<ele>13.476</ele>
<time>2016-10-05T00:36:07.688Z</time>
</trkpt>
<trkpt lat="-27.0417073" lon="152.9724113">
<ele>11.266</ele>
<time>2016-10-05T00:36:11.271Z</time>
</trkpt>
<trkpt lat="-27.0414822" lon="152.9722253">
<ele>10.276</ele>
<time>2016-10-05T00:36:14.341Z</time>
</trkpt>
<trkpt lat="-27.0411665" lon="152.9718739">
<ele>10.144</ele>
<time>2016-10-05T00:36:17.681Z</time>
</trkpt>
<trkpt lat="-27.0409902" lon="152.9715617">
<ele>10.361</ele>
<time>2016-10-05T00:36:19.868Z</time>
</trkpt>
<trkpt lat="-27.0408544" lon="152.9712164">
<ele>10.624</ele>
<time>2016-10-05T00:36:21.939Z</time>
</trkpt>
<trkpt lat="-27.0407224" lon="152.9706692">
<ele>10.794</ele>
<time>2016-10-05T00:36:24.928Z</time>
</trkpt>
<trkpt lat="-27.0406603" lon="152.9703005">
<ele>10.463</ele>
<time>2016-10-05T00:36:26.895Z</time>
</trkpt>
<trkpt lat="-27.0406116" lon="152.9697680">
<ele>9.357</ele>
<time>2016-10-05T00:36:29.754Z</time>
</trkpt>
<trkpt lat="-27.0405631" lon="152.9694093">
<ele>8.017</ele>
<time>2016-10-05T00:36:31.733Z</time>
</trkpt>
<trkpt lat="-27.0405371" lon="152.9690656">
<ele>7.129</ele>
<time>2016-10-05T00:36:33.674Z</time>
</trkpt>
<trkpt lat="-27.0404593" lon="152.9686141">
<ele>6.778</ele>
<time>2016-10-05T00:36:36.416Z</time>
</trkpt>
<trkpt lat="-27.0404260" lon="152.9682857">
<ele>6.971</ele>
<time>2016-10-05T00:36:38.462Z</time>
</trkpt>
<trkpt lat="-27.0403722" lon="152.9679587">
<ele>7.794</ele>
<time>2016-10-05T00:36:40.545Z</time>
</trkpt>
<trkpt lat="-27.0403312" lon="152.9676228">
<ele>9.126</ele>
<time>2016-10-05T00:36:42.604Z</time>
</trkpt>
<trkpt lat="-27.0402723" lon="152.9671050">
<ele>11.006</ele>
<time>2016-10-05T00:36:45.635Z</time>
</trkpt>
<trkpt lat="-27.0402314" lon="152.9667443">
<ele>13.833</ele>
<time>2016-10-05T00:36:47.681Z</time>
</trkpt>
<trkpt lat="-27.0401834" lon="152.9662126">
<ele>17.291</ele>
<time>2016-10-05T00:36:50.601Z</time>
</trkpt>
<trkpt lat="-27.0401075" lon="152.9656228">
<ele>20.140</ele>
<time>2016-10-05T00:36:53.774Z</time>
</trkpt>
<trkpt lat="-27.0400429" lon="152.9652264">
<ele>21.759</ele>
<time>2016-10-05T00:36:55.844Z</time>
</trkpt>
<trkpt lat="-27.0399641" lon="152.9646253">
<ele>22.478</ele>
<time>2016-10-05T00:36:58.861Z</time>
</trkpt>
<trkpt lat="-27.0398860" lon="152.9640490">
<ele>22.501</ele>
<time>2016-10-05T00:37:01.760Z</time>
</trkpt>
<trkpt lat="-27.0397986" lon="152.9636746">
<ele>21.783</ele>
<time>2016-10-05T00:37:03.704Z</time>
</trkpt>
<trkpt lat="-27.0396697" lon="152.9633136">
<ele>20.742</ele>
<time>2016-10-05T00:37:05.687Z</time>
</trkpt>
<trkpt lat="-27.0393852" lon="152.9628266">
<ele>20.104</ele>
<time>2016-10-05T00:37:08.706Z</time>
</trkpt>
<trkpt lat="-27.0390863" lon="152.9623661">
<ele>20.438</ele>
<time>2016-10-05T00:37:11.687Z</time>
</trkpt>
<trkpt lat="-27.0387728" lon="152.9619265">
<ele>21.584</ele>
<time>2016-10-05T00:37:14.640Z</time>
</trkpt>
<trkpt lat="-27.0385545" lon="152.9616492">
<ele>22.629</ele>
<time>2016-10-05T00:37:16.587Z</time>
</trkpt>
<trkpt lat="-27.0381657" lon="152.9612894">
<ele>22.992</ele>
<time>2016-10-05T00:37:19.604Z</time>
</trkpt>
<trkpt lat="-27.0377536" lon="152.9610238">
<ele>23.060</ele>
<time>2016-10-05T00:37:22.512Z</time>
</trkpt>
<trkpt lat="-27.0374771" lon="152.9608970">
<ele>23.427</ele>
<time>2016-10-05T00:37:24.384Z</time>
</trkpt>
<trkpt lat="-27.0371742" lon="152.9608081">
<ele>24.126</ele>
<time>2016-10-05T00:37:26.401Z</time>
</trkpt>
<trkpt lat="-27.0367063" lon="152.9607280">
<ele>24.759</ele>
<time>2016-10-05T00:37:29.426Z</time>
</trkpt>
<trkpt lat="-27.0362323" lon="152.9607670">
<ele>25.156</ele>
<time>2016-10-05T00:37:32.433Z</time>
</trkpt>
<trkpt lat="-27.0359274" lon="152.9608408">
<ele>25.356</ele>
<time>2016-10-05T00:37:34.398Z</time>
</trkpt>
<trkpt lat="-27.0354610" lon="152.9610159">
<ele>25.494</ele>
<time>2016-10-05T00:37:37.448Z</time>
</trkpt>
<trkpt lat="-27.0350381" lon="152.9612978">
<ele>25.603</ele>
<time>2016-10-05T00:37:40.448Z</time>
</trkpt>
<trkpt lat="-27.0346679" lon="152.9616541">
<ele>25.478</ele>
<time>2016-10-05T00:37:43.432Z</time>
</trkpt>
<trkpt lat="-27.0344672" lon="152.9619163">
<ele>24.979</ele>
<time>2016-10-05T00:37:45.341Z</time>
</trkpt>
<trkpt lat="-27.0342653" lon="152.9622014">
<ele>24.326</ele>
<time>2016-10-05T00:37:47.391Z</time>
</trkpt>
<trkpt lat="-27.0341136" lon="152.9625078">
<ele>23.993</ele>
<time>2016-10-05T00:37:49.373Z</time>
</trkpt>
<trkpt lat="-27.0338924" lon="152.9629594">
<ele>24.250</ele>
<time>2016-10-05T00:37:52.256Z</time>
</trkpt>
<trkpt lat="-27.0335838" lon="152.9633911">
<ele>24.776</ele>
<time>2016-10-05T00:37:55.311Z</time>
</trkpt>
<trkpt lat="-27.0333326" lon="152.9636466">
<ele>25.150</ele>
<time>2016-10-05T00:37:57.366Z</time>
</trkpt>
<trkpt lat="-27.0329021" lon="152.9639648">
<ele>25.257</ele>
<time>2016-10-05T00:38:00.395Z</time>
</trkpt>
<trkpt lat="-27.0325939" lon="152.9641160">
<ele>25.173</ele>
<time>2016-10-05T00:38:02.367Z</time>
</trkpt>
<trkpt lat="-27.0321364" lon="152.9642603">
<ele>24.955</ele>
<time>2016-10-05T00:38:05.216Z</time>
</trkpt>
<trkpt lat="-27.0316928" lon="152.9643250">
<ele>24.586</ele>
<time>2016-10-05T00:38:07.992Z</time>
</trkpt>
<trkpt lat="-27.0312680" lon="152.9643919">
<ele>24.140</ele>
<time>2016-10-05T00:38:10.785Z</time>
</trkpt>
<trkpt lat="-27.0308562" lon="152.9644614">
<ele>23.746</ele>
<time>2016-10-05T00:38:13.624Z</time>
</trkpt>
<trkpt lat="-27.0304185" lon="152.9645254">
<ele>23.246</ele>
<time>2016-10-05T00:38:16.698Z</time>
</trkpt>
<trkpt lat="-27.0299585" lon="152.9645977">
<ele>22.261</ele>
<time>2016-10-05T00:38:19.852Z</time>
</trkpt>
<trkpt lat="-27.0294897" lon="152.9646336">
<ele>20.752</ele>
<time>2016-10-05T00:38:22.905Z</time>
</trkpt>
<trkpt lat="-27.0291778" lon="152.9645884">
<ele>19.171</ele>
<time>2016-10-05T00:38:24.911Z</time>
</trkpt>
<trkpt lat="-27.0287212" lon="152.9642795">
<ele>18.017</ele>
<time>2016-10-05T00:38:28.190Z</time>
</trkpt>
<trkpt lat="-27.0283486" lon="152.9637959">
<ele>17.463</ele>
<time>2016-10-05T00:38:31.445Z</time>
</trkpt>
<trkpt lat="-27.0281241" lon="152.9635253">
<ele>17.283</ele>
<time>2016-10-05T00:38:33.268Z</time>
</trkpt>
<trkpt lat="-27.0278788" lon="152.9633253">
<ele>17.136</ele>
<time>2016-10-05T00:38:35.001Z</time>
</trkpt>
<trkpt lat="-27.0274553" lon="152.9631154">
<ele>16.939</ele>
<time>2016-10-05T00:38:37.943Z</time>
</trkpt>
<trkpt lat="-27.0271934" lon="152.9629839">
<ele>16.681</ele>
<time>2016-10-05T00:38:39.828Z</time>
</trkpt>
<trkpt lat="-27.0267982" lon="152.9628327">
<ele>16.248</ele>
<time>2016-10-05T00:38:42.670Z</time>
</trkpt>
<trkpt lat="-27.0265655" lon="152.9628026">
<ele>15.565</ele>
<time>2016-10-05T00:38:44.333Z</time>
</trkpt>
<trkpt lat="-27.0263806" lon="152.9628171">
<ele>14.540</ele>
<time>2016-10-05T00:38:45.722Z</time>
</trkpt>
<trkpt lat="-27.0261526" lon="152.9628352">
<ele>13.088</ele>
<time>2016-10-05T00:38:47.626Z</time>
</trkpt>
<trkpt lat="-27.0260543" lon="152.9627987">
<ele>11.354</ele>
<time>2016-10-05T00:38:48.594Z</time>
</trkpt>
<trkpt lat="-27.0259742" lon="152.9624859">
<ele>9.806</ele>
<time>2016-10-05T00:38:51.898Z</time>
</trkpt>
<trkpt lat="-27.0259032" lon="152.9619196">
<ele>9.390</ele>
<time>2016-10-05T00:38:57.849Z</time>
</trkpt>
<trkpt lat="-27.0258553" lon="152.9615008">
<ele>11.099</ele>
<time>2016-10-05T00:39:00.357Z</time>
</trkpt>
<trkpt lat="-27.0258055" lon="152.9610866">
<ele>14.284</ele>
<time>2016-10-05T00:39:02.395Z</time>
</trkpt>
<trkpt lat="-27.0257667" lon="152.9607051">
<ele>16.854</ele>
<time>2016-10-05T00:39:04.233Z</time>
</trkpt>
<trkpt lat="-27.0257068" lon="152.9601684">
<ele>17.792</ele>
<time>2016-10-05T00:39:06.946Z</time>
</trkpt>
<trkpt lat="-27.0256181" lon="152.9598080">
<ele>17.874</ele>
<time>2016-10-05T00:39:08.896Z</time>
</trkpt>
<trkpt lat="-27.0254179" lon="152.9593122">
<ele>18.294</ele>
<time>2016-10-05T00:39:11.829Z</time>
</trkpt>
<trkpt lat="-27.0251294" lon="152.9587643">
<ele>19.671</ele>
<time>2016-10-05T00:39:15.131Z</time>
</trkpt>
<trkpt lat="-27.0249076" lon="152.9583555">
<ele>21.489</ele>
<time>2016-10-05T00:39:17.453Z</time>
</trkpt>
<trkpt lat="-27.0247130" lon="152.9579597">
<ele>22.713</ele>
<time>2016-10-05T00:39:19.467Z</time>
</trkpt>
<trkpt lat="-27.0244106" lon="152.9574094">
<ele>22.949</ele>
<time>2016-10-05T00:39:22.227Z</time>
</trkpt>
<trkpt lat="-27.0242233" lon="152.9570143">
<ele>22.433</ele>
<time>2016-10-05T00:39:24.144Z</time>
</trkpt>
<trkpt lat="-27.0239180" lon="152.9564305">
<ele>21.523</ele>
<time>2016-10-05T00:39:27.110Z</time>
</trkpt>
<trkpt lat="-27.0236225" lon="152.9558381">
<ele>20.575</ele>
<time>2016-10-05T00:39:30.093Z</time>
</trkpt>
<trkpt lat="-27.0234413" lon="152.9554681">
<ele>19.961</ele>
<time>2016-10-05T00:39:31.959Z</time>
</trkpt>
<trkpt lat="-27.0232983" lon="152.9550635">
<ele>19.885</ele>
<time>2016-10-05T00:39:33.951Z</time>
</trkpt>
<trkpt lat="-27.0231892" lon="152.9544138">
<ele>20.199</ele>
<time>2016-10-05T00:39:37.043Z</time>
</trkpt>
<trkpt lat="-27.0231088" lon="152.9537509">
<ele>21.040</ele>
<time>2016-10-05T00:39:40.104Z</time>
</trkpt>
<trkpt lat="-27.0230412" lon="152.9531586">
<ele>22.734</ele>
<time>2016-10-05T00:39:42.831Z</time>
</trkpt>
<trkpt lat="-27.0229618" lon="152.9525644">
<ele>24.836</ele>
<time>2016-10-05T00:39:45.683Z</time>
</trkpt>
<trkpt lat="-27.0229143" lon="152.9521673">
<ele>27.001</ele>
<time>2016-10-05T00:39:47.649Z</time>
</trkpt>
<trkpt lat="-27.0228752" lon="152.9517778">
<ele>29.183</ele>
<time>2016-10-05T00:39:49.598Z</time>
</trkpt>
<trkpt lat="-27.0227838" lon="152.9511163">
<ele>30.729</ele>
<time>2016-10-05T00:39:52.906Z</time>
</trkpt>
<trkpt lat="-27.0227364" lon="152.9506633">
<ele>31.203</ele>
<time>2016-10-05T00:39:55.071Z</time>
</trkpt>
<trkpt lat="-27.0226843" lon="152.9502441">
<ele>30.821</ele>
<time>2016-10-05T00:39:56.971Z</time>
</trkpt>
<trkpt lat="-27.0226354" lon="152.9498346">
<ele>29.913</ele>
<time>2016-10-05T00:39:58.837Z</time>
</trkpt>
<trkpt lat="-27.0225874" lon="152.9494046">
<ele>29.008</ele>
<time>2016-10-05T00:40:00.851Z</time>
</trkpt>
<trkpt lat="-27.0225488" lon="152.9487479">
<ele>28.656</ele>
<time>2016-10-05T00:40:03.883Z</time>
</trkpt>
<trkpt lat="-27.0224801" lon="152.9483195">
<ele>29.153</ele>
<time>2016-10-05T00:40:05.837Z</time>
</trkpt>
<trkpt lat="-27.0224163" lon="152.9477132">
<ele>30.269</ele>
<time>2016-10-05T00:40:08.631Z</time>
</trkpt>
<trkpt lat="-27.0223654" lon="152.9473291">
<ele>31.305</ele>
<time>2016-10-05T00:40:10.485Z</time>
</trkpt>
<trkpt lat="-27.0223292" lon="152.9469680">
<ele>32.074</ele>
<time>2016-10-05T00:40:12.272Z</time>
</trkpt>
<trkpt lat="-27.0222850" lon="152.9465207">
<ele>32.831</ele>
<time>2016-10-05T00:40:14.582Z</time>
</trkpt>
<trkpt lat="-27.0222518" lon="152.9462516">
<ele>33.200</ele>
<time>2016-10-05T00:40:16.135Z</time>
</trkpt>
<trkpt lat="-27.0222164" lon="152.9459857">
<ele>32.704</ele>
<time>2016-10-05T00:40:17.728Z</time>
</trkpt>
<trkpt lat="-27.0221617" lon="152.9455542">
<ele>31.744</ele>
<time>2016-10-05T00:40:20.771Z</time>
</trkpt>
<trkpt lat="-27.0221036" lon="152.9451125">
<ele>30.898</ele>
<time>2016-10-05T00:40:24.014Z</time>
</trkpt>
<trkpt lat="-27.0220430" lon="152.9446806">
<ele>30.131</ele>
<time>2016-10-05T00:40:27.081Z</time>
</trkpt>
<trkpt lat="-27.0220146" lon="152.9444135">
<ele>28.974</ele>
<time>2016-10-05T00:40:28.937Z</time>
</trkpt>
<trkpt lat="-27.0219788" lon="152.9441515">
<ele>27.210</ele>
<time>2016-10-05T00:40:30.759Z</time>
</trkpt>
<trkpt lat="-27.0219420" lon="152.9438484">
<ele>25.008</ele>
<time>2016-10-05T00:40:32.894Z</time>
</trkpt>
<trkpt lat="-27.0219425" lon="152.9437055">
<ele>22.544</ele>
<time>2016-10-05T00:40:33.931Z</time>
</trkpt>
<trkpt lat="-27.0218599" lon="152.9436181">
<ele>20.151</ele>
<time>2016-10-05T00:40:34.859Z</time>
</trkpt>
<trkpt lat="-27.0216662" lon="152.9436077">
<ele>18.476</ele>
<time>2016-10-05T00:40:36.689Z</time>
</trkpt>
<trkpt lat="-27.0211622" lon="152.9436966">
<ele>18.048</ele>
<time>2016-10-05T00:40:44.509Z</time>
</trkpt>
<trkpt lat="-27.0208016" lon="152.9437766">
<ele>19.137</ele>
<time>2016-10-05T00:40:48.029Z</time>
</trkpt>
<trkpt lat="-27.0202864" lon="152.9439372">
<ele>21.168</ele>
<time>2016-10-05T00:40:51.301Z</time>
</trkpt>
<trkpt lat="-27.0198885" lon="152.9441610">
<ele>22.832</ele>
<time>2016-10-05T00:40:53.760Z</time>
</trkpt>
<trkpt lat="-27.0194582" lon="152.9444002">
<ele>23.433</ele>
<time>2016-10-05T00:40:56.281Z</time>
</trkpt>
<trkpt lat="-27.0188335" lon="152.9447301">
<ele>23.279</ele>
<time>2016-10-05T00:40:59.535Z</time>
</trkpt>
<trkpt lat="-27.0182161" lon="152.9449632">
<ele>22.653</ele>
<time>2016-10-05T00:41:02.487Z</time>
</trkpt>
<trkpt lat="-27.0177994" lon="152.9450530">
<ele>21.377</ele>
<time>2016-10-05T00:41:04.423Z</time>
</trkpt>
<trkpt lat="-27.0173934" lon="152.9450748">
<ele>19.484</ele>
<time>2016-10-05T00:41:06.352Z</time>
</trkpt>
<trkpt lat="-27.0167772" lon="152.9450147">
<ele>17.718</ele>
<time>2016-10-05T00:41:09.355Z</time>
</trkpt>
<trkpt lat="-27.0163851" lon="152.9448960">
<ele>16.580</ele>
<time>2016-10-05T00:41:11.324Z</time>
</trkpt>
<trkpt lat="-27.0160359" lon="152.9447644">
<ele>15.937</ele>
<time>2016-10-05T00:41:13.121Z</time>
</trkpt>
<trkpt lat="-27.0155492" lon="152.9445748">
<ele>15.483</ele>
<time>2016-10-05T00:41:15.844Z</time>
</trkpt>
<trkpt lat="-27.0152299" lon="152.9444424">
<ele>15.016</ele>
<time>2016-10-05T00:41:17.744Z</time>
</trkpt>
<trkpt lat="-27.0147954" lon="152.9442415">
<ele>14.522</ele>
<time>2016-10-05T00:41:20.508Z</time>
</trkpt>
<trkpt lat="-27.0143484" lon="152.9440510">
<ele>14.166</ele>
<time>2016-10-05T00:41:23.411Z</time>
</trkpt>
<trkpt lat="-27.0140349" lon="152.9439404">
<ele>14.062</ele>
<time>2016-10-05T00:41:25.449Z</time>
</trkpt>
<trkpt lat="-27.0136190" lon="152.9438395">
<ele>14.215</ele>
<time>2016-10-05T00:41:28.105Z</time>
</trkpt>
<trkpt lat="-27.0132022" lon="152.9437395">
<ele>14.471</ele>
<time>2016-10-05T00:41:30.896Z</time>
</trkpt>
<trkpt lat="-27.0129344" lon="152.9436783">
<ele>14.849</ele>
<time>2016-10-05T00:41:32.798Z</time>
</trkpt>
<trkpt lat="-27.0126564" lon="152.9436547">
<ele>15.460</ele>
<time>2016-10-05T00:41:34.764Z</time>
</trkpt>
<trkpt lat="-27.0122443" lon="152.9436250">
<ele>16.081</ele>
<time>2016-10-05T00:41:37.719Z</time>
</trkpt>
<trkpt lat="-27.0119701" lon="152.9436110">
<ele>16.419</ele>
<time>2016-10-05T00:41:39.678Z</time>
</trkpt>
<trkpt lat="-27.0115283" lon="152.9436020">
<ele>16.398</ele>
<time>2016-10-05T00:41:42.832Z</time>
</trkpt>
<trkpt lat="-27.0112208" lon="152.9435850">
<ele>16.031</ele>
<time>2016-10-05T00:41:44.954Z</time>
</trkpt>
<trkpt lat="-27.0107418" lon="152.9435699">
<ele>15.495</ele>
<time>2016-10-05T00:41:48.147Z</time>
</trkpt>
<trkpt lat="-27.0104210" lon="152.9435849">
<ele>15.061</ele>
<time>2016-10-05T00:41:50.199Z</time>
</trkpt>
<trkpt lat="-27.0099713" lon="152.9436563">
<ele>14.921</ele>
<time>2016-10-05T00:41:53.076Z</time>
</trkpt>
<trkpt lat="-27.0096621" lon="152.9437502">
<ele>15.363</ele>
<time>2016-10-05T00:41:55.136Z</time>
</trkpt>
<trkpt lat="-27.0093920" lon="152.9438688">
<ele>16.350</ele>
<time>2016-10-05T00:41:56.997Z</time>
</trkpt>
<trkpt lat="-27.0089845" lon="152.9440258">
<ele>17.229</ele>
<time>2016-10-05T00:41:59.793Z</time>
</trkpt>
<trkpt lat="-27.0085780" lon="152.9442016">
<ele>17.547</ele>
<time>2016-10-05T00:42:02.756Z</time>
</trkpt>
<trkpt lat="-27.0083278" lon="152.9443151">
<ele>17.503</ele>
<time>2016-10-05T00:42:04.601Z</time>
</trkpt>
<trkpt lat="-27.0080698" lon="152.9444749">
<ele>17.112</ele>
<time>2016-10-05T00:42:06.620Z</time>
</trkpt>
<trkpt lat="-27.0076811" lon="152.9446961">
<ele>16.330</ele>
<time>2016-10-05T00:42:09.635Z</time>
</trkpt>
<trkpt lat="-27.0074294" lon="152.9448250">
<ele>15.572</ele>
<time>2016-10-05T00:42:11.535Z</time>
</trkpt>
<trkpt lat="-27.0071663" lon="152.9449881">
<ele>15.216</ele>
<time>2016-10-05T00:42:13.588Z</time>
</trkpt>
<trkpt lat="-27.0068949" lon="152.9451346">
<ele>15.223</ele>
<time>2016-10-05T00:42:15.630Z</time>
</trkpt>
<trkpt lat="-27.0066109" lon="152.9452891">
<ele>15.437</ele>
<time>2016-10-05T00:42:17.751Z</time>
</trkpt>
<trkpt lat="-27.0061584" lon="152.9455529">
<ele>15.659</ele>
<time>2016-10-05T00:42:21.089Z</time>
</trkpt>
<trkpt lat="-27.0056617" lon="152.9458241">
<ele>15.847</ele>
<time>2016-10-05T00:42:24.422Z</time>
</trkpt>
<trkpt lat="-27.0051672" lon="152.9461210">
<ele>16.223</ele>
<time>2016-10-05T00:42:27.584Z</time>
</trkpt>
<trkpt lat="-27.0048205" lon="152.9463004">
<ele>17.156</ele>
<time>2016-10-05T00:42:29.664Z</time>
</trkpt>
<trkpt lat="-27.0044579" lon="152.9464851">
<ele>18.904</ele>
<time>2016-10-05T00:42:31.769Z</time>
</trkpt>
<trkpt lat="-27.0038809" lon="152.9467191">
<ele>21.101</ele>
<time>2016-10-05T00:42:34.848Z</time>
</trkpt>
<trkpt lat="-27.0034895" lon="152.9468445">
<ele>23.163</ele>
<time>2016-10-05T00:42:36.842Z</time>
</trkpt>
<trkpt lat="-27.0030868" lon="152.9469406">
<ele>25.059</ele>
<time>2016-10-05T00:42:38.843Z</time>
</trkpt>
<trkpt lat="-27.0026695" lon="152.9470147">
<ele>27.029</ele>
<time>2016-10-05T00:42:40.891Z</time>
</trkpt>
<trkpt lat="-27.0020437" lon="152.9470768">
<ele>29.093</ele>
<time>2016-10-05T00:42:43.909Z</time>
</trkpt>
<trkpt lat="-27.0016309" lon="152.9470955">
<ele>31.273</ele>
<time>2016-10-05T00:42:45.893Z</time>
</trkpt>
<trkpt lat="-27.0012072" lon="152.9470746">
<ele>33.289</ele>
<time>2016-10-05T00:42:47.943Z</time>
</trkpt>
<trkpt lat="-27.0005638" lon="152.9470014">
<ele>34.447</ele>
<time>2016-10-05T00:42:51.026Z</time>
</trkpt>
<trkpt lat="-27.0001537" lon="152.9469356">
<ele>34.456</ele>
<time>2016-10-05T00:42:52.977Z</time>
</trkpt>
<trkpt lat="-26.9997393" lon="152.9468939">
<ele>33.575</ele>
<time>2016-10-05T00:42:54.927Z</time>
</trkpt>
<trkpt lat="-26.9993165" lon="152.9469040">
<ele>31.642</ele>
<time>2016-10-05T00:42:56.934Z</time>
</trkpt>
<trkpt lat="-26.9986643" lon="152.9470343">
<ele>28.352</ele>
<time>2016-10-05T00:43:00.031Z</time>
</trkpt>
<trkpt lat="-26.9982307" lon="152.9471472">
<ele>24.432</ele>
<time>2016-10-05T00:43:02.071Z</time>
</trkpt>
<trkpt lat="-26.9976165" lon="152.9472871">
<ele>21.243</ele>
<time>2016-10-05T00:43:04.937Z</time>
</trkpt>
<trkpt lat="-26.9971829" lon="152.9473843">
<ele>19.469</ele>
<time>2016-10-05T00:43:06.998Z</time>
</trkpt>
<trkpt lat="-26.9967498" lon="152.9474913">
<ele>19.534</ele>
<time>2016-10-05T00:43:09.068Z</time>
</trkpt>
<trkpt lat="-26.9960889" lon="152.9476326">
<ele>21.368</ele>
<time>2016-10-05T00:43:12.093Z</time>
</trkpt>
<trkpt lat="-26.9956585" lon="152.9477296">
<ele>23.583</ele>
<time>2016-10-05T00:43:14.045Z</time>
</trkpt>
<trkpt lat="-26.9952420" lon="152.9478339">
<ele>24.850</ele>
<time>2016-10-05T00:43:15.962Z</time>
</trkpt>
<trkpt lat="-26.9946131" lon="152.9479833">
<ele>25.319</ele>
<time>2016-10-05T00:43:18.935Z</time>
</trkpt>
<trkpt lat="-26.9942152" lon="152.9480798">
<ele>25.747</ele>
<time>2016-10-05T00:43:20.847Z</time>
</trkpt>
<trkpt lat="-26.9935826" lon="152.9482186">
<ele>26.586</ele>
<time>2016-10-05T00:43:23.911Z</time>
</trkpt>
<trkpt lat="-26.9931422" lon="152.9483346">
<ele>27.915</ele>
<time>2016-10-05T00:43:26.026Z</time>
</trkpt>
<trkpt lat="-26.9927172" lon="152.9484205">
<ele>29.416</ele>
<time>2016-10-05T00:43:27.974Z</time>
</trkpt>
<trkpt lat="-26.9920620" lon="152.9485523">
<ele>30.378</ele>
<time>2016-10-05T00:43:30.996Z</time>
</trkpt>
<trkpt lat="-26.9913772" lon="152.9486210">
<ele>30.518</ele>
<time>2016-10-05T00:43:34.112Z</time>
</trkpt>
<trkpt lat="-26.9907028" lon="152.9486229">
<ele>30.262</ele>
<time>2016-10-05T00:43:37.121Z</time>
</trkpt>
<trkpt lat="-26.9900137" lon="152.9486083">
<ele>30.026</ele>
<time>2016-10-05T00:43:40.154Z</time>
</trkpt>
<trkpt lat="-26.9895214" lon="152.9485640">
<ele>29.587</ele>
<time>2016-10-05T00:43:42.280Z</time>
</trkpt>
<trkpt lat="-26.9887220" lon="152.9485165">
<ele>28.702</ele>
<time>2016-10-05T00:43:45.473Z</time>
</trkpt>
<trkpt lat="-26.9879064" lon="152.9484633">
<ele>27.373</ele>
<time>2016-10-05T00:43:48.561Z</time>
</trkpt>
<trkpt lat="-26.9873819" lon="152.9484439">
<ele>25.554</ele>
<time>2016-10-05T00:43:50.513Z</time>
</trkpt>
<trkpt lat="-26.9865966" lon="152.9485485">
<ele>23.683</ele>
<time>2016-10-05T00:43:53.494Z</time>
</trkpt>
<trkpt lat="-26.9857679" lon="152.9488522">
<ele>22.571</ele>
<time>2016-10-05T00:43:56.731Z</time>
</trkpt>
<trkpt lat="-26.9850237" lon="152.9492675">
<ele>22.546</ele>
<time>2016-10-05T00:43:59.700Z</time>
</trkpt>
<trkpt lat="-26.9845666" lon="152.9495379">
<ele>23.340</ele>
<time>2016-10-05T00:44:01.544Z</time>
</trkpt>
<trkpt lat="-26.9839803" lon="152.9498462">
<ele>24.102</ele>
<time>2016-10-05T00:44:04.033Z</time>
</trkpt>
<trkpt lat="-26.9835977" lon="152.9500274">
<ele>23.953</ele>
<time>2016-10-05T00:44:05.725Z</time>
</trkpt>
<trkpt lat="-26.9831876" lon="152.9502082">
<ele>22.958</ele>
<time>2016-10-05T00:44:07.661Z</time>
</trkpt>
<trkpt lat="-26.9827585" lon="152.9503545">
<ele>22.086</ele>
<time>2016-10-05T00:44:09.723Z</time>
</trkpt>
<trkpt lat="-26.9820337" lon="152.9505259">
<ele>22.205</ele>
<time>2016-10-05T00:44:13.033Z</time>
</trkpt>
<trkpt lat="-26.9815481" lon="152.9505614">
<ele>23.120</ele>
<time>2016-10-05T00:44:15.105Z</time>
</trkpt>
<trkpt lat="-26.9810752" lon="152.9505647">
<ele>24.123</ele>
<time>2016-10-05T00:44:17.048Z</time>
</trkpt>
<trkpt lat="-26.9802865" lon="152.9505728">
<ele>24.875</ele>
<time>2016-10-05T00:44:20.226Z</time>
</trkpt>
<trkpt lat="-26.9795409" lon="152.9505485">
<ele>25.365</ele>
<time>2016-10-05T00:44:23.159Z</time>
</trkpt>
<trkpt lat="-26.9788875" lon="152.9505149">
<ele>25.027</ele>
<time>2016-10-05T00:44:25.806Z</time>
</trkpt>
<trkpt lat="-26.9784548" lon="152.9505143">
<ele>23.621</ele>
<time>2016-10-05T00:44:27.673Z</time>
</trkpt>
<trkpt lat="-26.9780274" lon="152.9505204">
<ele>22.050</ele>
<time>2016-10-05T00:44:29.626Z</time>
</trkpt>
<trkpt lat="-26.9773513" lon="152.9505279">
<ele>21.153</ele>
<time>2016-10-05T00:44:32.739Z</time>
</trkpt>
<trkpt lat="-26.9766532" lon="152.9505019">
<ele>20.324</ele>
<time>2016-10-05T00:44:35.844Z</time>
</trkpt>
<trkpt lat="-26.9759369" lon="152.9505028">
<ele>18.959</ele>
<time>2016-10-05T00:44:38.907Z</time>
</trkpt>
<trkpt lat="-26.9752461" lon="152.9504841">
<ele>17.808</ele>
<time>2016-10-05T00:44:41.834Z</time>
</trkpt>
<trkpt lat="-26.9745495" lon="152.9504912">
<ele>18.311</ele>
<time>2016-10-05T00:44:44.837Z</time>
</trkpt>
<trkpt lat="-26.9738678" lon="152.9504687">
<ele>20.603</ele>
<time>2016-10-05T00:44:47.810Z</time>
</trkpt>
<trkpt lat="-26.9734306" lon="152.9504739">
<ele>23.438</ele>
<time>2016-10-05T00:44:49.729Z</time>
</trkpt>
<trkpt lat="-26.9727391" lon="152.9504647">
<ele>25.543</ele>
<time>2016-10-05T00:44:52.813Z</time>
</trkpt>
<trkpt lat="-26.9722701" lon="152.9504563">
<ele>26.285</ele>
<time>2016-10-05T00:44:54.880Z</time>
</trkpt>
<trkpt lat="-26.9715866" lon="152.9504423">
<ele>25.478</ele>
<time>2016-10-05T00:44:57.808Z</time>
</trkpt>
<trkpt lat="-26.9709258" lon="152.9504506">
<ele>23.870</ele>
<time>2016-10-05T00:45:00.660Z</time>
</trkpt>
<trkpt lat="-26.9704662" lon="152.9504479">
<ele>22.784</ele>
<time>2016-10-05T00:45:02.687Z</time>
</trkpt>
<trkpt lat="-26.9697629" lon="152.9504809">
<ele>22.757</ele>
<time>2016-10-05T00:45:05.792Z</time>
</trkpt>
<trkpt lat="-26.9693068" lon="152.9505677">
<ele>23.094</ele>
<time>2016-10-05T00:45:07.803Z</time>
</trkpt>
<trkpt lat="-26.9688457" lon="152.9507076">
<ele>23.113</ele>
<time>2016-10-05T00:45:09.854Z</time>
</trkpt>
<trkpt lat="-26.9681168" lon="152.9509354">
<ele>23.211</ele>
<time>2016-10-05T00:45:13.032Z</time>
</trkpt>
<trkpt lat="-26.9673338" lon="152.9513223">
<ele>24.330</ele>
<time>2016-10-05T00:45:16.379Z</time>
</trkpt>
<trkpt lat="-26.9666924" lon="152.9516341">
<ele>26.340</ele>
<time>2016-10-05T00:45:19.027Z</time>
</trkpt>
<trkpt lat="-26.9663037" lon="152.9518236">
<ele>26.390</ele>
<time>2016-10-05T00:45:20.683Z</time>
</trkpt>
<trkpt lat="-26.9657441" lon="152.9521073">
<ele>22.646</ele>
<time>2016-10-05T00:45:23.405Z</time>
</trkpt>
<trkpt lat="-26.9653545" lon="152.9522968">
<ele>17.815</ele>
<time>2016-10-05T00:45:25.395Z</time>
</trkpt>
<trkpt lat="-26.9647595" lon="152.9525895">
<ele>15.099</ele>
<time>2016-10-05T00:45:28.428Z</time>
</trkpt>
<trkpt lat="-26.9643899" lon="152.9527876">
<ele>14.644</ele>
<time>2016-10-05T00:45:30.339Z</time>
</trkpt>
<trkpt lat="-26.9640150" lon="152.9529985">
<ele>15.427</ele>
<time>2016-10-05T00:45:32.318Z</time>
</trkpt>
<trkpt lat="-26.9634194" lon="152.9533044">
<ele>16.581</ele>
<time>2016-10-05T00:45:35.423Z</time>
</trkpt>
<trkpt lat="-26.9630514" lon="152.9535037">
<ele>17.724</ele>
<time>2016-10-05T00:45:37.340Z</time>
</trkpt>
<trkpt lat="-26.9625517" lon="152.9537819">
<ele>18.618</ele>
<time>2016-10-05T00:45:39.993Z</time>
</trkpt>
<trkpt lat="-26.9622848" lon="152.9539271">
<ele>19.076</ele>
<time>2016-10-05T00:45:41.547Z</time>
</trkpt>
<trkpt lat="-26.9619174" lon="152.9540724">
<ele>19.222</ele>
<time>2016-10-05T00:45:43.670Z</time>
</trkpt>
<trkpt lat="-26.9617104" lon="152.9541731">
<ele>19.382</ele>
<time>2016-10-05T00:45:45.014Z</time>
</trkpt>
<trkpt lat="-26.9614520" lon="152.9542575">
<ele>19.723</ele>
<time>2016-10-05T00:45:46.886Z</time>
</trkpt>
<trkpt lat="-26.9612613" lon="152.9540822">
<ele>20.157</ele>
<time>2016-10-05T00:45:48.705Z</time>
</trkpt>
<trkpt lat="-26.9611595" lon="152.9537235">
<ele>20.600</ele>
<time>2016-10-05T00:45:51.689Z</time>
</trkpt>
<trkpt lat="-26.9610923" lon="152.9534094">
<ele>21.182</ele>
<time>2016-10-05T00:45:54.774Z</time>
</trkpt>
<trkpt lat="-26.9610113" lon="152.9528433">
<ele>22.169</ele>
<time>2016-10-05T00:45:59.994Z</time>
</trkpt>
<trkpt lat="-26.9610008" lon="152.9520723">
<ele>24.403</ele>
<time>2016-10-05T00:46:04.494Z</time>
</trkpt>
<trkpt lat="-26.9610272" lon="152.9514172">
<ele>27.896</ele>
<time>2016-10-05T00:46:07.582Z</time>
</trkpt>
<trkpt lat="-26.9610726" lon="152.9509047">
<ele>30.167</ele>
<time>2016-10-05T00:46:09.903Z</time>
</trkpt>
<trkpt lat="-26.9610930" lon="152.9505781">
<ele>29.408</ele>
<time>2016-10-05T00:46:11.546Z</time>
</trkpt>
<trkpt lat="-26.9611173" lon="152.9502568">
<ele>27.005</ele>
<time>2016-10-05T00:46:13.203Z</time>
</trkpt>
<trkpt lat="-26.9611574" lon="152.9497576">
<ele>24.850</ele>
<time>2016-10-05T00:46:16.166Z</time>
</trkpt>
<trkpt lat="-26.9611849" lon="152.9494183">
<ele>23.583</ele>
<time>2016-10-05T00:46:18.215Z</time>
</trkpt>
<trkpt lat="-26.9612178" lon="152.9489075">
<ele>23.096</ele>
<time>2016-10-05T00:46:21.272Z</time>
</trkpt>
<trkpt lat="-26.9612370" lon="152.9485727">
<ele>22.953</ele>
<time>2016-10-05T00:46:23.252Z</time>
</trkpt>
<trkpt lat="-26.9612496" lon="152.9482263">
<ele>22.901</ele>
<time>2016-10-05T00:46:25.289Z</time>
</trkpt>
<trkpt lat="-26.9612593" lon="152.9479005">
<ele>22.995</ele>
<time>2016-10-05T00:46:27.196Z</time>
</trkpt>
<trkpt lat="-26.9612749" lon="152.9475813">
<ele>23.331</ele>
<time>2016-10-05T00:46:29.070Z</time>
</trkpt>
<trkpt lat="-26.9612827" lon="152.9472343">
<ele>23.814</ele>
<time>2016-10-05T00:46:31.140Z</time>
</trkpt>
<trkpt lat="-26.9612387" lon="152.9467134">
<ele>24.466</ele>
<time>2016-10-05T00:46:34.303Z</time>
</trkpt>
<trkpt lat="-26.9611670" lon="152.9463274">
<ele>25.481</ele>
<time>2016-10-05T00:46:36.570Z</time>
</trkpt>
<trkpt lat="-26.9609488" lon="152.9457225">
<ele>26.846</ele>
<time>2016-10-05T00:46:40.105Z</time>
</trkpt>
<trkpt lat="-26.9607618" lon="152.9453484">
<ele>28.167</ele>
<time>2016-10-05T00:46:42.201Z</time>
</trkpt>
<trkpt lat="-26.9604110" lon="152.9448188">
<ele>29.010</ele>
<time>2016-10-05T00:46:45.298Z</time>
</trkpt>
<trkpt lat="-26.9599526" lon="152.9443116">
<ele>29.742</ele>
<time>2016-10-05T00:46:48.559Z</time>
</trkpt>
<trkpt lat="-26.9595513" lon="152.9436817">
<ele>30.918</ele>
<time>2016-10-05T00:46:51.872Z</time>
</trkpt>
<trkpt lat="-26.9590967" lon="152.9431984">
<ele>32.056</ele>
<time>2016-10-05T00:46:54.769Z</time>
</trkpt>
<trkpt lat="-26.9587038" lon="152.9429790">
<ele>32.608</ele>
<time>2016-10-05T00:46:56.790Z</time>
</trkpt>
<trkpt lat="-26.9581438" lon="152.9425985">
<ele>32.756</ele>
<time>2016-10-05T00:46:59.818Z</time>
</trkpt>
<trkpt lat="-26.9576312" lon="152.9421614">
<ele>32.729</ele>
<time>2016-10-05T00:47:02.797Z</time>
</trkpt>
<trkpt lat="-26.9573459" lon="152.9418278">
<ele>32.427</ele>
<time>2016-10-05T00:47:04.721Z</time>
</trkpt>
<trkpt lat="-26.9570941" lon="152.9414196">
<ele>31.770</ele>
<time>2016-10-05T00:47:06.801Z</time>
</trkpt>
<trkpt lat="-26.9568258" lon="152.9407214">
<ele>31.037</ele>
<time>2016-10-05T00:47:09.907Z</time>
</trkpt>
<trkpt lat="-26.9567285" lon="152.9401341">
<ele>30.472</ele>
<time>2016-10-05T00:47:12.258Z</time>
</trkpt>
<trkpt lat="-26.9566385" lon="152.9395641">
<ele>30.143</ele>
<time>2016-10-05T00:47:14.363Z</time>
</trkpt>
<trkpt lat="-26.9565010" lon="152.9387210">
<ele>30.049</ele>
<time>2016-10-05T00:47:17.296Z</time>
</trkpt>
<trkpt lat="-26.9563727" lon="152.9379112">
<ele>29.716</ele>
<time>2016-10-05T00:47:20.146Z</time>
</trkpt>
<trkpt lat="-26.9562222" lon="152.9374248">
<ele>28.645</ele>
<time>2016-10-05T00:47:21.980Z</time>
</trkpt>
<trkpt lat="-26.9558942" lon="152.9366284">
<ele>27.221</ele>
<time>2016-10-05T00:47:25.242Z</time>
</trkpt>
<trkpt lat="-26.9557042" lon="152.9361852">
<ele>27.729</ele>
<time>2016-10-05T00:47:27.063Z</time>
</trkpt>
<trkpt lat="-26.9555775" lon="152.9354822">
<ele>31.279</ele>
<time>2016-10-05T00:47:29.812Z</time>
</trkpt>
<trkpt lat="-26.9555261" lon="152.9349338">
<ele>35.335</ele>
<time>2016-10-05T00:47:32.000Z</time>
</trkpt>
<trkpt lat="-26.9554550" lon="152.9341252">
<ele>37.467</ele>
<time>2016-10-05T00:47:35.065Z</time>
</trkpt>
<trkpt lat="-26.9553953" lon="152.9336051">
<ele>37.992</ele>
<time>2016-10-05T00:47:36.996Z</time>
</trkpt>
<trkpt lat="-26.9551463" lon="152.9328048">
<ele>37.798</ele>
<time>2016-10-05T00:47:40.145Z</time>
</trkpt>
<trkpt lat="-26.9549504" lon="152.9322936">
<ele>38.298</ele>
<time>2016-10-05T00:47:42.177Z</time>
</trkpt>
<trkpt lat="-26.9546647" lon="152.9315802">
<ele>40.199</ele>
<time>2016-10-05T00:47:44.991Z</time>
</trkpt>
<trkpt lat="-26.9544826" lon="152.9311480">
<ele>41.973</ele>
<time>2016-10-05T00:47:46.767Z</time>
</trkpt>
<trkpt lat="-26.9543251" lon="152.9307300">
<ele>41.961</ele>
<time>2016-10-05T00:47:48.580Z</time>
</trkpt>
<trkpt lat="-26.9540905" lon="152.9300890">
<ele>40.644</ele>
<time>2016-10-05T00:47:51.499Z</time>
</trkpt>
<trkpt lat="-26.9538527" lon="152.9294864">
<ele>39.225</ele>
<time>2016-10-05T00:47:54.340Z</time>
</trkpt>
<trkpt lat="-26.9536552" lon="152.9288562">
<ele>38.022</ele>
<time>2016-10-05T00:47:57.281Z</time>
</trkpt>
<trkpt lat="-26.9534888" lon="152.9283831">
<ele>36.895</ele>
<time>2016-10-05T00:47:59.618Z</time>
</trkpt>
<trkpt lat="-26.9532362" lon="152.9276868">
<ele>36.210</ele>
<time>2016-10-05T00:48:02.937Z</time>
</trkpt>
<trkpt lat="-26.9530784" lon="152.9269751">
<ele>36.246</ele>
<time>2016-10-05T00:48:05.991Z</time>
</trkpt>
<trkpt lat="-26.9530128" lon="152.9265002">
<ele>36.788</ele>
<time>2016-10-05T00:48:07.972Z</time>
</trkpt>
<trkpt lat="-26.9529290" lon="152.9257971">
<ele>37.654</ele>
<time>2016-10-05T00:48:10.932Z</time>
</trkpt>
<trkpt lat="-26.9528603" lon="152.9251129">
<ele>38.435</ele>
<time>2016-10-05T00:48:13.838Z</time>
</trkpt>
<trkpt lat="-26.9528095" lon="152.9243972">
<ele>38.317</ele>
<time>2016-10-05T00:48:16.930Z</time>
</trkpt>
<trkpt lat="-26.9527339" lon="152.9237508">
<ele>37.172</ele>
<time>2016-10-05T00:48:19.799Z</time>
</trkpt>
<trkpt lat="-26.9526859" lon="152.9233043">
<ele>35.888</ele>
<time>2016-10-05T00:48:21.801Z</time>
</trkpt>
<trkpt lat="-26.9526438" lon="152.9228793">
<ele>35.493</ele>
<time>2016-10-05T00:48:23.709Z</time>
</trkpt>
<trkpt lat="-26.9526045" lon="152.9224770">
<ele>36.424</ele>
<time>2016-10-05T00:48:25.519Z</time>
</trkpt>
<trkpt lat="-26.9524248" lon="152.9219147">
<ele>38.476</ele>
<time>2016-10-05T00:48:28.278Z</time>
</trkpt>
<trkpt lat="-26.9522109" lon="152.9215865">
<ele>41.127</ele>
<time>2016-10-05T00:48:30.260Z</time>
</trkpt>
<trkpt lat="-26.9516812" lon="152.9210546">
<ele>43.612</ele>
<time>2016-10-05T00:48:34.044Z</time>
</trkpt>
<trkpt lat="-26.9512809" lon="152.9207385">
<ele>45.565</ele>
<time>2016-10-05T00:48:36.371Z</time>
</trkpt>
<trkpt lat="-26.9507670" lon="152.9202299">
<ele>47.166</ele>
<time>2016-10-05T00:48:39.281Z</time>
</trkpt>
<trkpt lat="-26.9504483" lon="152.9199361">
<ele>48.025</ele>
<time>2016-10-05T00:48:41.035Z</time>
</trkpt>
<trkpt lat="-26.9499956" lon="152.9195099">
<ele>47.647</ele>
<time>2016-10-05T00:48:43.799Z</time>
</trkpt>
<trkpt lat="-26.9497242" lon="152.9192529">
<ele>46.454</ele>
<time>2016-10-05T00:48:45.556Z</time>
</trkpt>
<trkpt lat="-26.9493796" lon="152.9189144">
<ele>44.664</ele>
<time>2016-10-05T00:48:47.966Z</time>
</trkpt>
<trkpt lat="-26.9491442" lon="152.9187657">
<ele>41.957</ele>
<time>2016-10-05T00:48:49.580Z</time>
</trkpt>
<trkpt lat="-26.9488226" lon="152.9186531">
<ele>38.725</ele>
<time>2016-10-05T00:48:51.675Z</time>
</trkpt>
<trkpt lat="-26.9486143" lon="152.9185836">
<ele>35.939</ele>
<time>2016-10-05T00:48:53.177Z</time>
</trkpt>
<trkpt lat="-26.9482324" lon="152.9184224">
<ele>34.112</ele>
<time>2016-10-05T00:48:56.638Z</time>
</trkpt>
<trkpt lat="-26.9474825" lon="152.9181677">
<ele>34.310</ele>
<time>2016-10-05T00:49:03.404Z</time>
</trkpt>
<trkpt lat="-26.9469139" lon="152.9180034">
<ele>38.163</ele>
<time>2016-10-05T00:49:06.362Z</time>
</trkpt>
<trkpt lat="-26.9462567" lon="152.9178968">
<ele>45.208</ele>
<time>2016-10-05T00:49:09.225Z</time>
</trkpt>
<trkpt lat="-26.9452090" lon="152.9179661">
<ele>52.581</ele>
<time>2016-10-05T00:49:13.290Z</time>
</trkpt>
<trkpt lat="-26.9445519" lon="152.9179908">
<ele>57.844</ele>
<time>2016-10-05T00:49:15.521Z</time>
</trkpt>
<trkpt lat="-26.9439556" lon="152.9180170">
<ele>60.434</ele>
<time>2016-10-05T00:49:17.534Z</time>
</trkpt>
<trkpt lat="-26.9431497" lon="152.9180517">
<ele>60.434</ele>
<time>2016-10-05T00:49:20.438Z</time>
</trkpt>
<trkpt lat="-26.9426634" lon="152.9180714">
<ele>57.305</ele>
<time>2016-10-05T00:49:22.405Z</time>
</trkpt>
<trkpt lat="-26.9419650" lon="152.9180935">
<ele>51.624</ele>
<time>2016-10-05T00:49:25.356Z</time>
</trkpt>
<trkpt lat="-26.9412905" lon="152.9181693">
<ele>45.997</ele>
<time>2016-10-05T00:49:28.270Z</time>
</trkpt>
<trkpt lat="-26.9406105" lon="152.9184774">
<ele>42.085</ele>
<time>2016-10-05T00:49:31.305Z</time>
</trkpt>
<trkpt lat="-26.9401438" lon="152.9187251">
<ele>39.656</ele>
<time>2016-10-05T00:49:33.371Z</time>
</trkpt>
<trkpt lat="-26.9394449" lon="152.9189764">
<ele>38.434</ele>
<time>2016-10-05T00:49:36.292Z</time>
</trkpt>
<trkpt lat="-26.9389162" lon="152.9190075">
<ele>37.739</ele>
<time>2016-10-05T00:49:38.377Z</time>
</trkpt>
<trkpt lat="-26.9381635" lon="152.9190054">
<ele>36.593</ele>
<time>2016-10-05T00:49:41.368Z</time>
</trkpt>
<trkpt lat="-26.9376781" lon="152.9190062">
<ele>35.003</ele>
<time>2016-10-05T00:49:43.343Z</time>
</trkpt>
<trkpt lat="-26.9371956" lon="152.9189932">
<ele>33.472</ele>
<time>2016-10-05T00:49:45.336Z</time>
</trkpt>
<trkpt lat="-26.9364832" lon="152.9189878">
<ele>32.170</ele>
<time>2016-10-05T00:49:48.314Z</time>
</trkpt>
<trkpt lat="-26.9360128" lon="152.9189758">
<ele>31.232</ele>
<time>2016-10-05T00:49:50.337Z</time>
</trkpt>
<trkpt lat="-26.9353375" lon="152.9189851">
<ele>30.775</ele>
<time>2016-10-05T00:49:53.298Z</time>
</trkpt>
<trkpt lat="-26.9348879" lon="152.9189890">
<ele>31.019</ele>
<time>2016-10-05T00:49:55.314Z</time>
</trkpt>
<trkpt lat="-26.9342312" lon="152.9190017">
<ele>32.068</ele>
<time>2016-10-05T00:49:58.289Z</time>
</trkpt>
<trkpt lat="-26.9335830" lon="152.9190033">
<ele>34.111</ele>
<time>2016-10-05T00:50:01.253Z</time>
</trkpt>
<trkpt lat="-26.9331476" lon="152.9190013">
<ele>37.204</ele>
<time>2016-10-05T00:50:03.258Z</time>
</trkpt>
<trkpt lat="-26.9324967" lon="152.9190080">
<ele>40.900</ele>
<time>2016-10-05T00:50:06.287Z</time>
</trkpt>
<trkpt lat="-26.9320815" lon="152.9190022">
<ele>44.336</ele>
<time>2016-10-05T00:50:08.244Z</time>
</trkpt>
<trkpt lat="-26.9316556" lon="152.9189996">
<ele>46.680</ele>
<time>2016-10-05T00:50:10.246Z</time>
</trkpt>
<trkpt lat="-26.9312286" lon="152.9190169">
<ele>47.597</ele>
<time>2016-10-05T00:50:12.241Z</time>
</trkpt>
<trkpt lat="-26.9305886" lon="152.9190097">
<ele>47.166</ele>
<time>2016-10-05T00:50:15.217Z</time>
</trkpt>
<trkpt lat="-26.9299539" lon="152.9190010">
<ele>45.562</ele>
<time>2016-10-05T00:50:18.149Z</time>
</trkpt>
<trkpt lat="-26.9292888" lon="152.9190038">
<ele>43.344</ele>
<time>2016-10-05T00:50:21.194Z</time>
</trkpt>
<trkpt lat="-26.9288539" lon="152.9190308">
<ele>41.218</ele>
<time>2016-10-05T00:50:23.189Z</time>
</trkpt>
<trkpt lat="-26.9282329" lon="152.9192341">
<ele>39.711</ele>
<time>2016-10-05T00:50:26.144Z</time>
</trkpt>
<trkpt lat="-26.9278211" lon="152.9194606">
<ele>38.989</ele>
<time>2016-10-05T00:50:28.157Z</time>
</trkpt>
<trkpt lat="-26.9274008" lon="152.9197461">
<ele>38.752</ele>
<time>2016-10-05T00:50:30.239Z</time>
</trkpt>
<trkpt lat="-26.9268184" lon="152.9202101">
<ele>38.873</ele>
<time>2016-10-05T00:50:33.245Z</time>
</trkpt>
<trkpt lat="-26.9262611" lon="152.9206922">
<ele>39.338</ele>
<time>2016-10-05T00:50:36.212Z</time>
</trkpt>
<trkpt lat="-26.9258926" lon="152.9210317">
<ele>39.830</ele>
<time>2016-10-05T00:50:38.291Z</time>
</trkpt>
<trkpt lat="-26.9253828" lon="152.9214959">
<ele>39.745</ele>
<time>2016-10-05T00:50:41.298Z</time>
</trkpt>
<trkpt lat="-26.9250423" lon="152.9217407">
<ele>38.534</ele>
<time>2016-10-05T00:50:43.242Z</time>
</trkpt>
<trkpt lat="-26.9246610" lon="152.9219218">
<ele>36.448</ele>
<time>2016-10-05T00:50:45.229Z</time>
</trkpt>
<trkpt lat="-26.9242701" lon="152.9221008">
<ele>34.569</ele>
<time>2016-10-05T00:50:47.280Z</time>
</trkpt>
<trkpt lat="-26.9237132" lon="152.9222439">
<ele>33.356</ele>
<time>2016-10-05T00:50:50.157Z</time>
</trkpt>
<trkpt lat="-26.9231835" lon="152.9223782">
<ele>32.161</ele>
<time>2016-10-05T00:50:53.085Z</time>
</trkpt>
<trkpt lat="-26.9228720" lon="152.9224517">
<ele>30.739</ele>
<time>2016-10-05T00:50:54.929Z</time>
</trkpt>
<trkpt lat="-26.9223791" lon="152.9225049">
<ele>29.745</ele>
<time>2016-10-05T00:50:57.860Z</time>
</trkpt>
<trkpt lat="-26.9218656" lon="152.9224398">
<ele>29.544</ele>
<time>2016-10-05T00:51:00.885Z</time>
</trkpt>
<trkpt lat="-26.9213442" lon="152.9223311">
<ele>29.779</ele>
<time>2016-10-05T00:51:03.899Z</time>
</trkpt>
<trkpt lat="-26.9208024" lon="152.9222416">
<ele>30.055</ele>
<time>2016-10-05T00:51:06.963Z</time>
</trkpt>
<trkpt lat="-26.9202839" lon="152.9222406">
<ele>30.238</ele>
<time>2016-10-05T00:51:09.906Z</time>
</trkpt>
<trkpt lat="-26.9197592" lon="152.9224082">
<ele>30.315</ele>
<time>2016-10-05T00:51:12.982Z</time>
</trkpt>
<trkpt lat="-26.9192465" lon="152.9225378">
<ele>30.283</ele>
<time>2016-10-05T00:51:15.868Z</time>
</trkpt>
<trkpt lat="-26.9186778" lon="152.9226118">
<ele>30.101</ele>
<time>2016-10-05T00:51:18.928Z</time>
</trkpt>
<trkpt lat="-26.9182783" lon="152.9226069">
<ele>29.801</ele>
<time>2016-10-05T00:51:21.018Z</time>
</trkpt>
<trkpt lat="-26.9177155" lon="152.9226133">
<ele>29.549</ele>
<time>2016-10-05T00:51:24.007Z</time>
</trkpt>
<trkpt lat="-26.9171840" lon="152.9226317">
<ele>29.315</ele>
<time>2016-10-05T00:51:26.902Z</time>
</trkpt>
<trkpt lat="-26.9166462" lon="152.9226379">
<ele>28.970</ele>
<time>2016-10-05T00:51:29.905Z</time>
</trkpt>
<trkpt lat="-26.9161525" lon="152.9226753">
<ele>28.928</ele>
<time>2016-10-05T00:51:32.875Z</time>
</trkpt>
<trkpt lat="-26.9158569" lon="152.9226869">
<ele>29.523</ele>
<time>2016-10-05T00:51:34.837Z</time>
</trkpt>
<trkpt lat="-26.9154337" lon="152.9226878">
<ele>30.501</ele>
<time>2016-10-05T00:51:37.776Z</time>
</trkpt>
<trkpt lat="-26.9150061" lon="152.9226910">
<ele>31.600</ele>
<time>2016-10-05T00:51:40.785Z</time>
</trkpt>
<trkpt lat="-26.9147204" lon="152.9227109">
<ele>32.777</ele>
<time>2016-10-05T00:51:42.720Z</time>
</trkpt>
<trkpt lat="-26.9142376" lon="152.9227439">
<ele>33.959</ele>
<time>2016-10-05T00:51:45.857Z</time>
</trkpt>
<trkpt lat="-26.9139241" lon="152.9227982">
<ele>35.266</ele>
<time>2016-10-05T00:51:47.871Z</time>
</trkpt>
<trkpt lat="-26.9136172" lon="152.9228633">
<ele>36.614</ele>
<time>2016-10-05T00:51:49.783Z</time>
</trkpt>
<trkpt lat="-26.9130957" lon="152.9229851">
<ele>37.553</ele>
<time>2016-10-05T00:51:52.847Z</time>
</trkpt>
<trkpt lat="-26.9127280" lon="152.9230759">
<ele>37.761</ele>
<time>2016-10-05T00:51:54.898Z</time>
</trkpt>
<trkpt lat="-26.9121917" lon="152.9232121">
<ele>37.306</ele>
<time>2016-10-05T00:51:57.896Z</time>
</trkpt>
<trkpt lat="-26.9118741" lon="152.9232650">
<ele>36.339</ele>
<time>2016-10-05T00:51:59.708Z</time>
</trkpt>
<trkpt lat="-26.9115582" lon="152.9233620">
<ele>35.186</ele>
<time>2016-10-05T00:52:01.643Z</time>
</trkpt>
<trkpt lat="-26.9110928" lon="152.9234731">
<ele>34.296</ele>
<time>2016-10-05T00:52:04.544Z</time>
</trkpt>
<trkpt lat="-26.9105615" lon="152.9236068">
<ele>34.277</ele>
<time>2016-10-05T00:52:07.781Z</time>
</trkpt>
<trkpt lat="-26.9102288" lon="152.9236680">
<ele>35.363</ele>
<time>2016-10-05T00:52:09.774Z</time>
</trkpt>
<trkpt lat="-26.9099290" lon="152.9237282">
<ele>36.826</ele>
<time>2016-10-05T00:52:11.645Z</time>
</trkpt>
<trkpt lat="-26.9094507" lon="152.9238234">
<ele>37.971</ele>
<time>2016-10-05T00:52:14.660Z</time>
</trkpt>
<trkpt lat="-26.9091107" lon="152.9238528">
<ele>38.835</ele>
<time>2016-10-05T00:52:16.690Z</time>
</trkpt>
<trkpt lat="-26.9087505" lon="152.9238674">
<ele>39.390</ele>
<time>2016-10-05T00:52:18.752Z</time>
</trkpt>
<trkpt lat="-26.9082114" lon="152.9238735">
<ele>39.399</ele>
<time>2016-10-05T00:52:21.770Z</time>
</trkpt>
<trkpt lat="-26.9076693" lon="152.9238667">
<ele>38.400</ele>
<time>2016-10-05T00:52:24.837Z</time>
</trkpt>
<trkpt lat="-26.9071920" lon="152.9238672">
<ele>36.464</ele>
<time>2016-10-05T00:52:27.675Z</time>
</trkpt>
<trkpt lat="-26.9068708" lon="152.9238726">
<ele>34.781</ele>
<time>2016-10-05T00:52:29.680Z</time>
</trkpt>
<trkpt lat="-26.9063844" lon="152.9239011">
<ele>34.253</ele>
<time>2016-10-05T00:52:32.736Z</time>
</trkpt>
<trkpt lat="-26.9060589" lon="152.9239086">
<ele>34.644</ele>
<time>2016-10-05T00:52:34.754Z</time>
</trkpt>
<trkpt lat="-26.9055563" lon="152.9239050">
<ele>35.334</ele>
<time>2016-10-05T00:52:37.789Z</time>
</trkpt>
<trkpt lat="-26.9050244" lon="152.9238930">
<ele>35.748</ele>
<time>2016-10-05T00:52:40.836Z</time>
</trkpt>
<trkpt lat="-26.9044881" lon="152.9238761">
<ele>35.692</ele>
<time>2016-10-05T00:52:43.817Z</time>
</trkpt>
<trkpt lat="-26.9041412" lon="152.9238598">
<ele>35.392</ele>
<time>2016-10-05T00:52:45.756Z</time>
</trkpt>
<trkpt lat="-26.9037911" lon="152.9238489">
<ele>35.239</ele>
<time>2016-10-05T00:52:47.731Z</time>
</trkpt>
<trkpt lat="-26.9032603" lon="152.9238361">
<ele>35.663</ele>
<time>2016-10-05T00:52:50.758Z</time>
</trkpt>
<trkpt lat="-26.9027518" lon="152.9238247">
<ele>37.013</ele>
<time>2016-10-05T00:52:53.764Z</time>
</trkpt>
<trkpt lat="-26.9024395" lon="152.9238192">
<ele>39.135</ele>
<time>2016-10-05T00:52:55.688Z</time>
</trkpt>
<trkpt lat="-26.9019742" lon="152.9237835">
<ele>41.450</ele>
<time>2016-10-05T00:52:58.612Z</time>
</trkpt>
<trkpt lat="-26.9015038" lon="152.9237581">
<ele>43.651</ele>
<time>2016-10-05T00:53:01.563Z</time>
</trkpt>
<trkpt lat="-26.9011739" lon="152.9237192">
<ele>45.586</ele>
<time>2016-10-05T00:53:03.559Z</time>
</trkpt>
<trkpt lat="-26.9006348" lon="152.9236079">
<ele>46.876</ele>
<time>2016-10-05T00:53:06.709Z</time>
</trkpt>
<trkpt lat="-26.9003897" lon="152.9233075">
<ele>47.153</ele>
<time>2016-10-05T00:53:08.797Z</time>
</trkpt>
<trkpt lat="-26.8999787" lon="152.9229548">
<ele>46.167</ele>
<time>2016-10-05T00:53:11.820Z</time>
</trkpt>
<trkpt lat="-26.8996930" lon="152.9227633">
<ele>43.969</ele>
<time>2016-10-05T00:53:13.789Z</time>
</trkpt>
<trkpt lat="-26.8992731" lon="152.9225035">
<ele>41.395</ele>
<time>2016-10-05T00:53:16.684Z</time>
</trkpt>
<trkpt lat="-26.8989709" lon="152.9223606">
<ele>39.565</ele>
<time>2016-10-05T00:53:18.694Z</time>
</trkpt>
<trkpt lat="-26.8986589" lon="152.9222202">
<ele>39.079</ele>
<time>2016-10-05T00:53:20.780Z</time>
</trkpt>
<trkpt lat="-26.8982723" lon="152.9219451">
<ele>39.876</ele>
<time>2016-10-05T00:53:23.691Z</time>
</trkpt>
<trkpt lat="-26.8980583" lon="152.9217264">
<ele>41.780</ele>
<time>2016-10-05T00:53:25.609Z</time>
</trkpt>
<trkpt lat="-26.8978819" lon="152.9214612">
<ele>44.527</ele>
<time>2016-10-05T00:53:27.600Z</time>
</trkpt>
<trkpt lat="-26.8976144" lon="152.9210917">
<ele>47.364</ele>
<time>2016-10-05T00:53:30.447Z</time>
</trkpt>
<trkpt lat="-26.8974526" lon="152.9208333">
<ele>49.648</ele>
<time>2016-10-05T00:53:32.316Z</time>
</trkpt>
<trkpt lat="-26.8973275" lon="152.9205169">
<ele>51.358</ele>
<time>2016-10-05T00:53:34.380Z</time>
</trkpt>
<trkpt lat="-26.8971916" lon="152.9202011">
<ele>52.548</ele>
<time>2016-10-05T00:53:36.455Z</time>
</trkpt>
<trkpt lat="-26.8969894" lon="152.9199005">
<ele>53.229</ele>
<time>2016-10-05T00:53:38.622Z</time>
</trkpt>
<trkpt lat="-26.8967251" lon="152.9196397">
<ele>53.301</ele>
<time>2016-10-05T00:53:40.794Z</time>
</trkpt>
<trkpt lat="-26.8963774" lon="152.9194187">
<ele>52.677</ele>
<time>2016-10-05T00:53:43.137Z</time>
</trkpt>
<trkpt lat="-26.8959139" lon="152.9191640">
<ele>51.708</ele>
<time>2016-10-05T00:53:46.130Z</time>
</trkpt>
<trkpt lat="-26.8954894" lon="152.9188608">
<ele>50.914</ele>
<time>2016-10-05T00:53:49.024Z</time>
</trkpt>
<trkpt lat="-26.8950304" lon="152.9185070">
<ele>50.639</ele>
<time>2016-10-05T00:53:52.096Z</time>
</trkpt>
<trkpt lat="-26.8947218" lon="152.9182704">
<ele>50.869</ele>
<time>2016-10-05T00:53:54.119Z</time>
</trkpt>
<trkpt lat="-26.8944231" lon="152.9180440">
<ele>51.160</ele>
<time>2016-10-05T00:53:56.108Z</time>
</trkpt>
<trkpt lat="-26.8940042" lon="152.9176894">
<ele>51.177</ele>
<time>2016-10-05T00:53:59.030Z</time>
</trkpt>
<trkpt lat="-26.8937043" lon="152.9174518">
<ele>51.163</ele>
<time>2016-10-05T00:54:01.059Z</time>
</trkpt>
<trkpt lat="-26.8932441" lon="152.9171226">
<ele>51.384</ele>
<time>2016-10-05T00:54:04.051Z</time>
</trkpt>
<trkpt lat="-26.8929625" lon="152.9168686">
<ele>51.498</ele>
<time>2016-10-05T00:54:06.034Z</time>
</trkpt>
<trkpt lat="-26.8924767" lon="152.9165764">
<ele>51.163</ele>
<time>2016-10-05T00:54:09.105Z</time>
</trkpt>
<trkpt lat="-26.8920143" lon="152.9163192">
<ele>50.603</ele>
<time>2016-10-05T00:54:12.070Z</time>
</trkpt>
<trkpt lat="-26.8917226" lon="152.9161600">
<ele>50.034</ele>
<time>2016-10-05T00:54:13.989Z</time>
</trkpt>
<trkpt lat="-26.8912596" lon="152.9159399">
<ele>49.373</ele>
<time>2016-10-05T00:54:16.964Z</time>
</trkpt>
<trkpt lat="-26.8907714" lon="152.9157144">
<ele>48.359</ele>
<time>2016-10-05T00:54:20.045Z</time>
</trkpt>
<trkpt lat="-26.8904663" lon="152.9155699">
<ele>46.731</ele>
<time>2016-10-05T00:54:21.998Z</time>
</trkpt>
<trkpt lat="-26.8901647" lon="152.9154198">
<ele>44.890</ele>
<time>2016-10-05T00:54:24.011Z</time>
</trkpt>
<trkpt lat="-26.8897426" lon="152.9152168">
<ele>43.553</ele>
<time>2016-10-05T00:54:26.870Z</time>
</trkpt>
<trkpt lat="-26.8892988" lon="152.9150170">
<ele>42.882</ele>
<time>2016-10-05T00:54:29.804Z</time>
</trkpt>
<trkpt lat="-26.8887645" lon="152.9149367">
<ele>42.661</ele>
<time>2016-10-05T00:54:32.948Z</time>
</trkpt>
<trkpt lat="-26.8884479" lon="152.9150055">
<ele>42.847</ele>
<time>2016-10-05T00:54:34.819Z</time>
</trkpt>
<trkpt lat="-26.8881147" lon="152.9151426">
<ele>43.876</ele>
<time>2016-10-05T00:54:36.881Z</time>
</trkpt>
<trkpt lat="-26.8878271" lon="152.9154733">
<ele>45.737</ele>
<time>2016-10-05T00:54:39.234Z</time>
</trkpt>
<trkpt lat="-26.8873623" lon="152.9157719">
<ele>47.293</ele>
<time>2016-10-05T00:54:42.270Z</time>
</trkpt>
<trkpt lat="-26.8870362" lon="152.9159216">
<ele>47.538</ele>
<time>2016-10-05T00:54:44.280Z</time>
</trkpt>
<trkpt lat="-26.8865421" lon="152.9161100">
<ele>46.514</ele>
<time>2016-10-05T00:54:47.266Z</time>
</trkpt>
<trkpt lat="-26.8860257" lon="152.9162389">
<ele>44.581</ele>
<time>2016-10-05T00:54:50.332Z</time>
</trkpt>
<trkpt lat="-26.8857613" lon="152.9163231">
<ele>42.088</ele>
<time>2016-10-05T00:54:52.047Z</time>
</trkpt>
<trkpt lat="-26.8854783" lon="152.9164174">
<ele>39.474</ele>
<time>2016-10-05T00:54:54.029Z</time>
</trkpt>
<trkpt lat="-26.8852058" lon="152.9164566">
<ele>37.271</ele>
<time>2016-10-05T00:54:56.030Z</time>
</trkpt>
<trkpt lat="-26.8848537" lon="152.9165732">
<ele>35.616</ele>
<time>2016-10-05T00:54:58.879Z</time>
</trkpt>
<trkpt lat="-26.8844852" lon="152.9166324">
<ele>34.083</ele>
<time>2016-10-05T00:55:01.943Z</time>
</trkpt>
<trkpt lat="-26.8842756" lon="152.9166859">
<ele>32.424</ele>
<time>2016-10-05T00:55:03.872Z</time>
</trkpt>
<trkpt lat="-26.8840099" lon="152.9167442">
<ele>31.077</ele>
<time>2016-10-05T00:55:06.519Z</time>
</trkpt>
<trkpt lat="-26.8838352" lon="152.9167843">
<ele>30.179</ele>
<time>2016-10-05T00:55:08.428Z</time>
</trkpt>
<trkpt lat="-26.8836639" lon="152.9167989">
<ele>29.277</ele>
<time>2016-10-05T00:55:10.342Z</time>
</trkpt>
<trkpt lat="-26.8834355" lon="152.9167924">
<ele>28.067</ele>
<time>2016-10-05T00:55:13.065Z</time>
</trkpt>
<trkpt lat="-26.8833016" lon="152.9167686">
<ele>26.625</ele>
<time>2016-10-05T00:55:14.961Z</time>
</trkpt>
<trkpt lat="-26.8832037" lon="152.9167734">
<ele>25.341</ele>
<time>2016-10-05T00:55:16.632Z</time>
</trkpt>
<trkpt lat="-26.8830523" lon="152.9168142">
<ele>24.685</ele>
<time>2016-10-05T00:55:19.634Z</time>
</trkpt>
<trkpt lat="-26.8829470" lon="152.9168309">
<ele>24.831</ele>
<time>2016-10-05T00:55:21.733Z</time>
</trkpt>
<trkpt lat="-26.8827379" lon="152.9168648">
<ele>25.662</ele>
<time>2016-10-05T00:55:25.356Z</time>
</trkpt>
<trkpt lat="-26.8826084" lon="152.9168847">
<ele>26.940</ele>
<time>2016-10-05T00:55:27.352Z</time>
</trkpt>
<trkpt lat="-26.8824684" lon="152.9169070">
<ele>28.383</ele>
<time>2016-10-05T00:55:29.426Z</time>
</trkpt>
<trkpt lat="-26.8822279" lon="152.9169044">
<ele>29.753</ele>
<time>2016-10-05T00:55:32.670Z</time>
</trkpt>
<trkpt lat="-26.8820603" lon="152.9169110">
<ele>31.007</ele>
<time>2016-10-05T00:55:34.673Z</time>
</trkpt>
<trkpt lat="-26.8817803" lon="152.9169377">
<ele>32.207</ele>
<time>2016-10-05T00:55:37.744Z</time>
</trkpt>
<trkpt lat="-26.8815814" lon="152.9169698">
<ele>33.283</ele>
<time>2016-10-05T00:55:39.834Z</time>
</trkpt>
<trkpt lat="-26.8812901" lon="152.9170298">
<ele>34.068</ele>
<time>2016-10-05T00:55:42.927Z</time>
</trkpt>
<trkpt lat="-26.8810273" lon="152.9171579">
<ele>34.609</ele>
<time>2016-10-05T00:55:45.981Z</time>
</trkpt>
<trkpt lat="-26.8807964" lon="152.9172749">
<ele>35.350</ele>
<time>2016-10-05T00:55:48.690Z</time>
</trkpt>
<trkpt lat="-26.8805836" lon="152.9173508">
<ele>36.737</ele>
<time>2016-10-05T00:55:50.848Z</time>
</trkpt>
<trkpt lat="-26.8802523" lon="152.9175226">
<ele>38.506</ele>
<time>2016-10-05T00:55:53.974Z</time>
</trkpt>
<trkpt lat="-26.8798962" lon="152.9176793">
<ele>40.300</ele>
<time>2016-10-05T00:55:56.958Z</time>
</trkpt>
<trkpt lat="-26.8796374" lon="152.9178179">
<ele>41.982</ele>
<time>2016-10-05T00:55:59.012Z</time>
</trkpt>
<trkpt lat="-26.8792245" lon="152.9180457">
<ele>43.230</ele>
<time>2016-10-05T00:56:02.025Z</time>
</trkpt>
<trkpt lat="-26.8787589" lon="152.9182330">
<ele>43.766</ele>
<time>2016-10-05T00:56:05.022Z</time>
</trkpt>
<trkpt lat="-26.8784363" lon="152.9183035">
<ele>43.877</ele>
<time>2016-10-05T00:56:07.027Z</time>
</trkpt>
<trkpt lat="-26.8781219" lon="152.9183615">
<ele>43.885</ele>
<time>2016-10-05T00:56:09.044Z</time>
</trkpt>
<trkpt lat="-26.8776549" lon="152.9184643">
<ele>43.886</ele>
<time>2016-10-05T00:56:12.138Z</time>
</trkpt>
<trkpt lat="-26.8773399" lon="152.9185102">
<ele>43.887</ele>
<time>2016-10-05T00:56:14.270Z</time>
</trkpt>
<trkpt lat="-26.8769149" lon="152.9185647">
<ele>44.069</ele>
<time>2016-10-05T00:56:17.250Z</time>
</trkpt>
<trkpt lat="-26.8765082" lon="152.9186847">
<ele>44.470</ele>
<time>2016-10-05T00:56:20.215Z</time>
</trkpt>
<trkpt lat="-26.8760340" lon="152.9187655">
<ele>44.730</ele>
<time>2016-10-05T00:56:23.422Z</time>
</trkpt>
<trkpt lat="-26.8755910" lon="152.9188866">
<ele>44.290</ele>
<time>2016-10-05T00:56:26.419Z</time>
</trkpt>
<trkpt lat="-26.8752019" lon="152.9191016">
<ele>43.177</ele>
<time>2016-10-05T00:56:29.288Z</time>
</trkpt>
<trkpt lat="-26.8749321" lon="152.9193357">
<ele>41.616</ele>
<time>2016-10-05T00:56:31.445Z</time>
</trkpt>
<trkpt lat="-26.8745774" lon="152.9196792">
<ele>39.389</ele>
<time>2016-10-05T00:56:34.367Z</time>
</trkpt>
<trkpt lat="-26.8743428" lon="152.9199357">
<ele>36.302</ele>
<time>2016-10-05T00:56:36.458Z</time>
</trkpt>
<trkpt lat="-26.8740341" lon="152.9203333">
<ele>32.835</ele>
<time>2016-10-05T00:56:39.559Z</time>
</trkpt>
<trkpt lat="-26.8738629" lon="152.9205842">
<ele>29.709</ele>
<time>2016-10-05T00:56:41.531Z</time>
</trkpt>
<trkpt lat="-26.8735891" lon="152.9209179">
<ele>27.485</ele>
<time>2016-10-05T00:56:44.377Z</time>
</trkpt>
<trkpt lat="-26.8732952" lon="152.9212828">
<ele>26.226</ele>
<time>2016-10-05T00:56:47.397Z</time>
</trkpt>
<trkpt lat="-26.8731071" lon="152.9215651">
<ele>25.496</ele>
<time>2016-10-05T00:56:49.468Z</time>
</trkpt>
<trkpt lat="-26.8728359" lon="152.9219927">
<ele>24.934</ele>
<time>2016-10-05T00:56:52.427Z</time>
</trkpt>
<trkpt lat="-26.8726195" lon="152.9222815">
<ele>24.584</ele>
<time>2016-10-05T00:56:54.495Z</time>
</trkpt>
<trkpt lat="-26.8723539" lon="152.9226916">
<ele>24.493</ele>
<time>2016-10-05T00:56:57.338Z</time>
</trkpt>
<trkpt lat="-26.8721594" lon="152.9229676">
<ele>25.048</ele>
<time>2016-10-05T00:56:59.409Z</time>
</trkpt>
<trkpt lat="-26.8719776" lon="152.9232277">
<ele>26.840</ele>
<time>2016-10-05T00:57:01.431Z</time>
</trkpt>
<trkpt lat="-26.8718018" lon="152.9234631">
<ele>29.547</ele>
<time>2016-10-05T00:57:03.382Z</time>
</trkpt>
<trkpt lat="-26.8716439" lon="152.9236812">
<ele>32.138</ele>
<time>2016-10-05T00:57:05.183Z</time>
</trkpt>
<trkpt lat="-26.8713975" lon="152.9238678">
<ele>34.238</ele>
<time>2016-10-05T00:57:07.285Z</time>
</trkpt>
<trkpt lat="-26.8709705" lon="152.9237825">
<ele>35.944</ele>
<time>2016-10-05T00:57:10.296Z</time>
</trkpt>
<trkpt lat="-26.8705401" lon="152.9236927">
<ele>37.066</ele>
<time>2016-10-05T00:57:13.278Z</time>
</trkpt>
<trkpt lat="-26.8702471" lon="152.9236434">
<ele>37.070</ele>
<time>2016-10-05T00:57:15.271Z</time>
</trkpt>
<trkpt lat="-26.8697947" lon="152.9236744">
<ele>35.801</ele>
<time>2016-10-05T00:57:18.339Z</time>
</trkpt>
<trkpt lat="-26.8695202" lon="152.9237255">
<ele>34.016</ele>
<time>2016-10-05T00:57:20.296Z</time>
</trkpt>
<trkpt lat="-26.8692563" lon="152.9237667">
<ele>32.722</ele>
<time>2016-10-05T00:57:22.204Z</time>
</trkpt>
<trkpt lat="-26.8689839" lon="152.9238321">
<ele>32.458</ele>
<time>2016-10-05T00:57:24.171Z</time>
</trkpt>
<trkpt lat="-26.8686866" lon="152.9238710">
<ele>33.212</ele>
<time>2016-10-05T00:57:26.190Z</time>
</trkpt>
<trkpt lat="-26.8682340" lon="152.9239424">
<ele>34.292</ele>
<time>2016-10-05T00:57:29.122Z</time>
</trkpt>
<trkpt lat="-26.8678849" lon="152.9239694">
<ele>34.889</ele>
<time>2016-10-05T00:57:31.231Z</time>
</trkpt>
<trkpt lat="-26.8675658" lon="152.9240453">
<ele>34.543</ele>
<time>2016-10-05T00:57:33.152Z</time>
</trkpt>
<trkpt lat="-26.8670454" lon="152.9241160">
<ele>33.431</ele>
<time>2016-10-05T00:57:36.201Z</time>
</trkpt>
<trkpt lat="-26.8666952" lon="152.9241637">
<ele>32.187</ele>
<time>2016-10-05T00:57:38.261Z</time>
</trkpt>
<trkpt lat="-26.8662027" lon="152.9242523">
<ele>31.226</ele>
<time>2016-10-05T00:57:41.272Z</time>
</trkpt>
<trkpt lat="-26.8659028" lon="152.9243500">
<ele>30.465</ele>
<time>2016-10-05T00:57:43.308Z</time>
</trkpt>
<trkpt lat="-26.8656339" lon="152.9244631">
<ele>29.768</ele>
<time>2016-10-05T00:57:45.306Z</time>
</trkpt>
<trkpt lat="-26.8653749" lon="152.9245931">
<ele>29.226</ele>
<time>2016-10-05T00:57:47.392Z</time>
</trkpt>
<trkpt lat="-26.8650273" lon="152.9247573">
<ele>29.278</ele>
<time>2016-10-05T00:57:50.176Z</time>
</trkpt>
<trkpt lat="-26.8646621" lon="152.9249924">
<ele>30.146</ele>
<time>2016-10-05T00:57:53.147Z</time>
</trkpt>
<trkpt lat="-26.8644427" lon="152.9252506">
<ele>31.358</ele>
<time>2016-10-05T00:57:55.229Z</time>
</trkpt>
<trkpt lat="-26.8641966" lon="152.9254983">
<ele>32.115</ele>
<time>2016-10-05T00:57:57.300Z</time>
</trkpt>
<trkpt lat="-26.8639182" lon="152.9259372">
<ele>31.950</ele>
<time>2016-10-05T00:58:00.274Z</time>
</trkpt>
<trkpt lat="-26.8637388" lon="152.9262273">
<ele>30.718</ele>
<time>2016-10-05T00:58:02.331Z</time>
</trkpt>
<trkpt lat="-26.8634859" lon="152.9265982">
<ele>28.962</ele>
<time>2016-10-05T00:58:05.245Z</time>
</trkpt>
<trkpt lat="-26.8632515" lon="152.9269419">
<ele>27.751</ele>
<time>2016-10-05T00:58:08.085Z</time>
</trkpt>
<trkpt lat="-26.8630818" lon="152.9272001">
<ele>27.729</ele>
<time>2016-10-05T00:58:10.066Z</time>
</trkpt>
<trkpt lat="-26.8627779" lon="152.9276024">
<ele>28.674</ele>
<time>2016-10-05T00:58:13.128Z</time>
</trkpt>
<trkpt lat="-26.8625843" lon="152.9278745">
<ele>29.816</ele>
<time>2016-10-05T00:58:15.088Z</time>
</trkpt>
<trkpt lat="-26.8623847" lon="152.9281441">
<ele>30.347</ele>
<time>2016-10-05T00:58:17.110Z</time>
</trkpt>
<trkpt lat="-26.8621032" lon="152.9285208">
<ele>30.061</ele>
<time>2016-10-05T00:58:20.013Z</time>
</trkpt>
<trkpt lat="-26.8618025" lon="152.9289151">
<ele>29.424</ele>
<time>2016-10-05T00:58:23.068Z</time>
</trkpt>
<trkpt lat="-26.8615306" lon="152.9293397">
<ele>28.957</ele>
<time>2016-10-05T00:58:26.014Z</time>
</trkpt>
<trkpt lat="-26.8612214" lon="152.9297773">
<ele>28.585</ele>
<time>2016-10-05T00:58:29.065Z</time>
</trkpt>
<trkpt lat="-26.8609769" lon="152.9300044">
<ele>28.079</ele>
<time>2016-10-05T00:58:31.038Z</time>
</trkpt>
<trkpt lat="-26.8606761" lon="152.9301465">
<ele>27.577</ele>
<time>2016-10-05T00:58:33.123Z</time>
</trkpt>
<trkpt lat="-26.8604111" lon="152.9302871">
<ele>27.348</ele>
<time>2016-10-05T00:58:35.045Z</time>
</trkpt>
<trkpt lat="-26.8601345" lon="152.9304059">
<ele>27.340</ele>
<time>2016-10-05T00:58:37.030Z</time>
</trkpt>
<trkpt lat="-26.8597282" lon="152.9306124">
<ele>27.303</ele>
<time>2016-10-05T00:58:40.063Z</time>
</trkpt>
<trkpt lat="-26.8593949" lon="152.9309010">
<ele>27.017</ele>
<time>2016-10-05T00:58:42.956Z</time>
</trkpt>
<trkpt lat="-26.8592858" lon="152.9312143">
<ele>26.378</ele>
<time>2016-10-05T00:58:44.987Z</time>
</trkpt>
<trkpt lat="-26.8591505" lon="152.9315459">
<ele>25.401</ele>
<time>2016-10-05T00:58:47.145Z</time>
</trkpt>
<trkpt lat="-26.8590623" lon="152.9318672">
<ele>24.349</ele>
<time>2016-10-05T00:58:49.154Z</time>
</trkpt>
<trkpt lat="-26.8588801" lon="152.9322992">
<ele>23.569</ele>
<time>2016-10-05T00:58:52.060Z</time>
</trkpt>
<trkpt lat="-26.8587790" lon="152.9325879">
<ele>23.346</ele>
<time>2016-10-05T00:58:53.967Z</time>
</trkpt>
<trkpt lat="-26.8586218" lon="152.9330262">
<ele>23.800</ele>
<time>2016-10-05T00:58:56.845Z</time>
</trkpt>
<trkpt lat="-26.8584966" lon="152.9333320">
<ele>24.792</ele>
<time>2016-10-05T00:58:58.828Z</time>
</trkpt>
<trkpt lat="-26.8582946" lon="152.9338056">
<ele>25.894</ele>
<time>2016-10-05T00:59:01.806Z</time>
</trkpt>
<trkpt lat="-26.8581786" lon="152.9341846">
<ele>26.623</ele>
<time>2016-10-05T00:59:03.940Z</time>
</trkpt>
<trkpt lat="-26.8580191" lon="152.9347505">
<ele>26.698</ele>
<time>2016-10-05T00:59:07.053Z</time>
</trkpt>
<trkpt lat="-26.8578698" lon="152.9352844">
<ele>26.082</ele>
<time>2016-10-05T00:59:10.065Z</time>
</trkpt>
<trkpt lat="-26.8577393" lon="152.9358109">
<ele>25.032</ele>
<time>2016-10-05T00:59:13.093Z</time>
</trkpt>
<trkpt lat="-26.8576840" lon="152.9361589">
<ele>23.944</ele>
<time>2016-10-05T00:59:15.113Z</time>
</trkpt>
<trkpt lat="-26.8576506" lon="152.9366605">
<ele>22.945</ele>
<time>2016-10-05T00:59:18.091Z</time>
</trkpt>
<trkpt lat="-26.8576257" lon="152.9371485">
<ele>21.975</ele>
<time>2016-10-05T00:59:21.139Z</time>
</trkpt>
<trkpt lat="-26.8576228" lon="152.9374526">
<ele>21.030</ele>
<time>2016-10-05T00:59:23.108Z</time>
</trkpt>
<trkpt lat="-26.8575838" lon="152.9377464">
<ele>20.216</ele>
<time>2016-10-05T00:59:25.087Z</time>
</trkpt>
<trkpt lat="-26.8574612" lon="152.9381339">
<ele>19.617</ele>
<time>2016-10-05T00:59:27.924Z</time>
</trkpt>
<trkpt lat="-26.8573093" lon="152.9383614">
<ele>18.975</ele>
<time>2016-10-05T00:59:30.011Z</time>
</trkpt>
<trkpt lat="-26.8570611" lon="152.9386298">
<ele>18.017</ele>
<time>2016-10-05T00:59:33.039Z</time>
</trkpt>
<trkpt lat="-26.8569070" lon="152.9387799">
<ele>16.747</ele>
<time>2016-10-05T00:59:35.152Z</time>
</trkpt>
<trkpt lat="-26.8567789" lon="152.9388483">
<ele>15.398</ele>
<time>2016-10-05T00:59:36.970Z</time>
</trkpt>
<trkpt lat="-26.8566812" lon="152.9388919">
<ele>14.263</ele>
<time>2016-10-05T00:59:38.800Z</time>
</trkpt>
<trkpt lat="-26.8565947" lon="152.9389327">
<ele>13.415</ele>
<time>2016-10-05T00:59:41.000Z</time>
</trkpt>
<trkpt lat="-26.8565947" lon="152.9389327">
<ele>12.799</ele>
<time>2016-10-05T00:59:46.000Z</time>
</trkpt>
<trkpt lat="-26.8565947" lon="152.9389327">
<ele>12.520</ele>
<time>2016-10-05T00:59:50.066Z</time>
</trkpt>
<trkpt lat="-26.8563649" lon="152.9389934">
<ele>12.633</ele>
<time>2016-10-05T00:59:56.862Z</time>
</trkpt>
<trkpt lat="-26.8561401" lon="152.9391639">
<ele>13.329</ele>
<time>2016-10-05T00:59:59.899Z</time>
</trkpt>
<trkpt lat="-26.8558716" lon="152.9393590">
<ele>14.541</ele>
<time>2016-10-05T01:00:02.895Z</time>
</trkpt>
<trkpt lat="-26.8557046" lon="152.9394975">
<ele>15.788</ele>
<time>2016-10-05T01:00:04.750Z</time>
</trkpt>
<trkpt lat="-26.8555021" lon="152.9395584">
<ele>17.123</ele>
<time>2016-10-05T01:00:06.572Z</time>
</trkpt>
<trkpt lat="-26.8551654" lon="152.9396966">
<ele>19.096</ele>
<time>2016-10-05T01:00:09.534Z</time>
</trkpt>
<trkpt lat="-26.8547834" lon="152.9397171">
<ele>22.184</ele>
<time>2016-10-05T01:00:12.567Z</time>
</trkpt>
<trkpt lat="-26.8545316" lon="152.9396610">
<ele>26.019</ele>
<time>2016-10-05T01:00:14.502Z</time>
</trkpt>
<trkpt lat="-26.8541310" lon="152.9395932">
<ele>29.123</ele>
<time>2016-10-05T01:00:17.440Z</time>
</trkpt>
<trkpt lat="-26.8537170" lon="152.9395204">
<ele>30.519</ele>
<time>2016-10-05T01:00:20.472Z</time>
</trkpt>
<trkpt lat="-26.8534415" lon="152.9394712">
<ele>30.517</ele>
<time>2016-10-05T01:00:22.522Z</time>
</trkpt>
<trkpt lat="-26.8531665" lon="152.9393632">
<ele>29.797</ele>
<time>2016-10-05T01:00:24.661Z</time>
</trkpt>
<trkpt lat="-26.8529157" lon="152.9392489">
<ele>29.094</ele>
<time>2016-10-05T01:00:26.605Z</time>
</trkpt>
<trkpt lat="-26.8526475" lon="152.9391299">
<ele>28.901</ele>
<time>2016-10-05T01:00:28.641Z</time>
</trkpt>
<trkpt lat="-26.8522350" lon="152.9390327">
<ele>29.230</ele>
<time>2016-10-05T01:00:31.623Z</time>
</trkpt>
<trkpt lat="-26.8519508" lon="152.9390216">
<ele>29.863</ele>
<time>2016-10-05T01:00:33.641Z</time>
</trkpt>
<trkpt lat="-26.8515048" lon="152.9390474">
<ele>30.667</ele>
<time>2016-10-05T01:00:36.707Z</time>
</trkpt>
<trkpt lat="-26.8510592" lon="152.9390417">
<ele>31.966</ele>
<time>2016-10-05T01:00:39.623Z</time>
</trkpt>
<trkpt lat="-26.8507556" lon="152.9390161">
<ele>34.027</ele>
<time>2016-10-05T01:00:41.541Z</time>
</trkpt>
<trkpt lat="-26.8502776" lon="152.9389622">
<ele>36.233</ele>
<time>2016-10-05T01:00:44.458Z</time>
</trkpt>
<trkpt lat="-26.8499329" lon="152.9389379">
<ele>37.665</ele>
<time>2016-10-05T01:00:46.522Z</time>
</trkpt>
<trkpt lat="-26.8496041" lon="152.9388815">
<ele>37.835</ele>
<time>2016-10-05T01:00:48.510Z</time>
</trkpt>
<trkpt lat="-26.8491016" lon="152.9387939">
<ele>36.813</ele>
<time>2016-10-05T01:00:51.604Z</time>
</trkpt>
<trkpt lat="-26.8487832" lon="152.9387256">
<ele>35.454</ele>
<time>2016-10-05T01:00:53.634Z</time>
</trkpt>
<trkpt lat="-26.8483237" lon="152.9386417">
<ele>34.758</ele>
<time>2016-10-05T01:00:56.643Z</time>
</trkpt>
<trkpt lat="-26.8480238" lon="152.9385949">
<ele>34.890</ele>
<time>2016-10-05T01:00:58.626Z</time>
</trkpt>
<trkpt lat="-26.8475756" lon="152.9385453">
<ele>35.338</ele>
<time>2016-10-05T01:01:01.486Z</time>
</trkpt>
<trkpt lat="-26.8470869" lon="152.9385355">
<ele>35.899</ele>
<time>2016-10-05T01:01:04.444Z</time>
</trkpt>
<trkpt lat="-26.8465864" lon="152.9385399">
<ele>36.886</ele>
<time>2016-10-05T01:01:07.434Z</time>
</trkpt>
<trkpt lat="-26.8462521" lon="152.9385631">
<ele>38.218</ele>
<time>2016-10-05T01:01:09.455Z</time>
</trkpt>
<trkpt lat="-26.8457668" lon="152.9386111">
<ele>39.319</ele>
<time>2016-10-05T01:01:12.407Z</time>
</trkpt>
<trkpt lat="-26.8454389" lon="152.9386414">
<ele>39.829</ele>
<time>2016-10-05T01:01:14.391Z</time>
</trkpt>
<trkpt lat="-26.8451095" lon="152.9386647">
<ele>39.847</ele>
<time>2016-10-05T01:01:16.348Z</time>
</trkpt>
<trkpt lat="-26.8447642" lon="152.9387170">
<ele>39.688</ele>
<time>2016-10-05T01:01:18.390Z</time>
</trkpt>
<trkpt lat="-26.8442525" lon="152.9387431">
<ele>39.320</ele>
<time>2016-10-05T01:01:21.478Z</time>
</trkpt>
<trkpt lat="-26.8437740" lon="152.9387700">
<ele>38.321</ele>
<time>2016-10-05T01:01:24.461Z</time>
</trkpt>
<trkpt lat="-26.8433030" lon="152.9387577">
<ele>36.684</ele>
<time>2016-10-05T01:01:27.378Z</time>
</trkpt>
<trkpt lat="-26.8428205" lon="152.9386726">
<ele>35.080</ele>
<time>2016-10-05T01:01:30.359Z</time>
</trkpt>
<trkpt lat="-26.8424980" lon="152.9386017">
<ele>34.089</ele>
<time>2016-10-05T01:01:32.344Z</time>
</trkpt>
<trkpt lat="-26.8420082" lon="152.9384991">
<ele>33.699</ele>
<time>2016-10-05T01:01:35.320Z</time>
</trkpt>
<trkpt lat="-26.8416721" lon="152.9384445">
<ele>33.647</ele>
<time>2016-10-05T01:01:37.357Z</time>
</trkpt>
<trkpt lat="-26.8411814" lon="152.9384382">
<ele>33.788</ele>
<time>2016-10-05T01:01:40.410Z</time>
</trkpt>
<trkpt lat="-26.8407262" lon="152.9385100">
<ele>34.126</ele>
<time>2016-10-05T01:01:43.368Z</time>
</trkpt>
<trkpt lat="-26.8404233" lon="152.9385474">
<ele>34.671</ele>
<time>2016-10-05T01:01:45.325Z</time>
</trkpt>
<trkpt lat="-26.8401101" lon="152.9385914">
<ele>35.461</ele>
<time>2016-10-05T01:01:47.322Z</time>
</trkpt>
<trkpt lat="-26.8396332" lon="152.9386789">
<ele>36.466</ele>
<time>2016-10-05T01:01:50.370Z</time>
</trkpt>
<trkpt lat="-26.8393302" lon="152.9387211">
<ele>37.668</ele>
<time>2016-10-05T01:01:52.316Z</time>
</trkpt>
<trkpt lat="-26.8388572" lon="152.9388106">
<ele>39.021</ele>
<time>2016-10-05T01:01:55.391Z</time>
</trkpt>
<trkpt lat="-26.8385516" lon="152.9388077">
<ele>40.450</ele>
<time>2016-10-05T01:01:57.317Z</time>
</trkpt>
<trkpt lat="-26.8380718" lon="152.9388142">
<ele>41.820</ele>
<time>2016-10-05T01:02:00.287Z</time>
</trkpt>
<trkpt lat="-26.8377486" lon="152.9388493">
<ele>42.855</ele>
<time>2016-10-05T01:02:02.268Z</time>
</trkpt>
<trkpt lat="-26.8374068" lon="152.9389127">
<ele>43.231</ele>
<time>2016-10-05T01:02:04.342Z</time>
</trkpt>
<trkpt lat="-26.8369028" lon="152.9390099">
<ele>43.034</ele>
<time>2016-10-05T01:02:07.379Z</time>
</trkpt>
<trkpt lat="-26.8363988" lon="152.9391350">
<ele>42.667</ele>
<time>2016-10-05T01:02:10.477Z</time>
</trkpt>
<trkpt lat="-26.8359167" lon="152.9392377">
<ele>42.590</ele>
<time>2016-10-05T01:02:13.445Z</time>
</trkpt>
<trkpt lat="-26.8355986" lon="152.9393516">
<ele>43.212</ele>
<time>2016-10-05T01:02:15.441Z</time>
</trkpt>
<trkpt lat="-26.8352920" lon="152.9395368">
<ele>44.445</ele>
<time>2016-10-05T01:02:17.503Z</time>
</trkpt>
<trkpt lat="-26.8350420" lon="152.9397969">
<ele>45.701</ele>
<time>2016-10-05T01:02:19.521Z</time>
</trkpt>
<trkpt lat="-26.8347021" lon="152.9402159">
<ele>46.617</ele>
<time>2016-10-05T01:02:22.588Z</time>
</trkpt>
<trkpt lat="-26.8343890" lon="152.9406103">
<ele>47.413</ele>
<time>2016-10-05T01:02:25.543Z</time>
</trkpt>
<trkpt lat="-26.8341997" lon="152.9408891">
<ele>48.395</ele>
<time>2016-10-05T01:02:27.521Z</time>
</trkpt>
<trkpt lat="-26.8339447" lon="152.9413396">
<ele>49.391</ele>
<time>2016-10-05T01:02:30.461Z</time>
</trkpt>
<trkpt lat="-26.8336715" lon="152.9418313">
<ele>49.880</ele>
<time>2016-10-05T01:02:33.536Z</time>
</trkpt>
<trkpt lat="-26.8334136" lon="152.9423263">
<ele>49.325</ele>
<time>2016-10-05T01:02:36.546Z</time>
</trkpt>
<trkpt lat="-26.8332442" lon="152.9426208">
<ele>47.108</ele>
<time>2016-10-05T01:02:38.419Z</time>
</trkpt>
<trkpt lat="-26.8331012" lon="152.9431594">
<ele>43.810</ele>
<time>2016-10-05T01:02:41.556Z</time>
</trkpt>
<trkpt lat="-26.8329098" lon="152.9436148">
<ele>41.243</ele>
<time>2016-10-05T01:02:44.467Z</time>
</trkpt>
<trkpt lat="-26.8325848" lon="152.9439940">
<ele>40.255</ele>
<time>2016-10-05T01:02:47.477Z</time>
</trkpt>
<trkpt lat="-26.8323242" lon="152.9442252">
<ele>40.391</ele>
<time>2016-10-05T01:02:49.588Z</time>
</trkpt>
<trkpt lat="-26.8320793" lon="152.9444542">
<ele>41.043</ele>
<time>2016-10-05T01:02:51.656Z</time>
</trkpt>
<trkpt lat="-26.8317418" lon="152.9447555">
<ele>41.535</ele>
<time>2016-10-05T01:02:54.536Z</time>
</trkpt>
<trkpt lat="-26.8314587" lon="152.9448618">
<ele>41.533</ele>
<time>2016-10-05T01:02:56.537Z</time>
</trkpt>
<trkpt lat="-26.8310219" lon="152.9449509">
<ele>41.527</ele>
<time>2016-10-05T01:02:59.528Z</time>
</trkpt>
<trkpt lat="-26.8307377" lon="152.9450280">
<ele>42.003</ele>
<time>2016-10-05T01:03:01.506Z</time>
</trkpt>
<trkpt lat="-26.8304626" lon="152.9451546">
<ele>42.687</ele>
<time>2016-10-05T01:03:03.509Z</time>
</trkpt>
<trkpt lat="-26.8302058" lon="152.9453133">
<ele>43.260</ele>
<time>2016-10-05T01:03:05.459Z</time>
</trkpt>
<trkpt lat="-26.8298691" lon="152.9456608">
<ele>43.823</ele>
<time>2016-10-05T01:03:08.480Z</time>
</trkpt>
<trkpt lat="-26.8295659" lon="152.9460315">
<ele>44.348</ele>
<time>2016-10-05T01:03:11.435Z</time>
</trkpt>
<trkpt lat="-26.8293838" lon="152.9464960">
<ele>44.338</ele>
<time>2016-10-05T01:03:14.441Z</time>
</trkpt>
<trkpt lat="-26.8293387" lon="152.9468398">
<ele>43.478</ele>
<time>2016-10-05T01:03:16.555Z</time>
</trkpt>
<trkpt lat="-26.8292971" lon="152.9471558">
<ele>42.304</ele>
<time>2016-10-05T01:03:18.558Z</time>
</trkpt>
<trkpt lat="-26.8292604" lon="152.9474543">
<ele>41.677</ele>
<time>2016-10-05T01:03:20.486Z</time>
</trkpt>
<trkpt lat="-26.8290532" lon="152.9478611">
<ele>42.008</ele>
<time>2016-10-05T01:03:23.413Z</time>
</trkpt>
<trkpt lat="-26.8287916" lon="152.9482491">
<ele>43.035</ele>
<time>2016-10-05T01:03:26.380Z</time>
</trkpt>
<trkpt lat="-26.8284544" lon="152.9485706">
<ele>44.013</ele>
<time>2016-10-05T01:03:29.405Z</time>
</trkpt>
<trkpt lat="-26.8281886" lon="152.9486985">
<ele>44.275</ele>
<time>2016-10-05T01:03:31.380Z</time>
</trkpt>
<trkpt lat="-26.8277503" lon="152.9487324">
<ele>43.479</ele>
<time>2016-10-05T01:03:34.370Z</time>
</trkpt>
<trkpt lat="-26.8273207" lon="152.9486904">
<ele>41.896</ele>
<time>2016-10-05T01:03:37.229Z</time>
</trkpt>
<trkpt lat="-26.8270032" lon="152.9486603">
<ele>40.097</ele>
<time>2016-10-05T01:03:39.284Z</time>
</trkpt>
<trkpt lat="-26.8265487" lon="152.9486168">
<ele>38.433</ele>
<time>2016-10-05T01:03:42.223Z</time>
</trkpt>
<trkpt lat="-26.8260661" lon="152.9485957">
<ele>37.193</ele>
<time>2016-10-05T01:03:45.338Z</time>
</trkpt>
<trkpt lat="-26.8257615" lon="152.9485690">
<ele>36.522</ele>
<time>2016-10-05T01:03:47.337Z</time>
</trkpt>
<trkpt lat="-26.8254519" lon="152.9485563">
<ele>36.280</ele>
<time>2016-10-05T01:03:49.400Z</time>
</trkpt>
<trkpt lat="-26.8250135" lon="152.9485641">
<ele>36.397</ele>
<time>2016-10-05T01:03:52.384Z</time>
</trkpt>
<trkpt lat="-26.8247235" lon="152.9486789">
<ele>36.846</ele>
<time>2016-10-05T01:03:54.448Z</time>
</trkpt>
<trkpt lat="-26.8244435" lon="152.9488052">
<ele>37.634</ele>
<time>2016-10-05T01:03:56.392Z</time>
</trkpt>
<trkpt lat="-26.8240804" lon="152.9492330">
<ele>38.574</ele>
<time>2016-10-05T01:03:59.841Z</time>
</trkpt>
<trkpt lat="-26.8238772" lon="152.9493977">
<ele>39.428</ele>
<time>2016-10-05T01:04:01.538Z</time>
</trkpt>
<trkpt lat="-26.8235175" lon="152.9496812">
<ele>40.153</ele>
<time>2016-10-05T01:04:04.482Z</time>
</trkpt>
<trkpt lat="-26.8232705" lon="152.9498881">
<ele>40.852</ele>
<time>2016-10-05T01:04:06.464Z</time>
</trkpt>
<trkpt lat="-26.8230173" lon="152.9501081">
<ele>41.506</ele>
<time>2016-10-05T01:04:08.434Z</time>
</trkpt>
<trkpt lat="-26.8225878" lon="152.9504343">
<ele>41.742</ele>
<time>2016-10-05T01:04:11.489Z</time>
</trkpt>
<trkpt lat="-26.8223183" lon="152.9506843">
<ele>41.022</ele>
<time>2016-10-05T01:04:13.508Z</time>
</trkpt>
<trkpt lat="-26.8219334" lon="152.9510624">
<ele>39.311</ele>
<time>2016-10-05T01:04:16.474Z</time>
</trkpt>
<trkpt lat="-26.8215276" lon="152.9514078">
<ele>37.011</ele>
<time>2016-10-05T01:04:19.485Z</time>
</trkpt>
<trkpt lat="-26.8211923" lon="152.9514143">
<ele>34.379</ele>
<time>2016-10-05T01:04:21.512Z</time>
</trkpt>
<trkpt lat="-26.8207041" lon="152.9513764">
<ele>31.851</ele>
<time>2016-10-05T01:04:24.479Z</time>
</trkpt>
<trkpt lat="-26.8203999" lon="152.9512264">
<ele>30.498</ele>
<time>2016-10-05T01:04:26.499Z</time>
</trkpt>
<trkpt lat="-26.8199678" lon="152.9510045">
<ele>31.016</ele>
<time>2016-10-05T01:04:29.373Z</time>
</trkpt>
<trkpt lat="-26.8196529" lon="152.9508816">
<ele>32.812</ele>
<time>2016-10-05T01:04:31.401Z</time>
</trkpt>
<trkpt lat="-26.8192025" lon="152.9507163">
<ele>34.898</ele>
<time>2016-10-05T01:04:34.355Z</time>
</trkpt>
<trkpt lat="-26.8187449" lon="152.9505796">
<ele>36.587</ele>
<time>2016-10-05T01:04:37.406Z</time>
</trkpt>
<trkpt lat="-26.8184495" lon="152.9505776">
<ele>37.996</ele>
<time>2016-10-05T01:04:39.370Z</time>
</trkpt>
<trkpt lat="-26.8180139" lon="152.9506620">
<ele>39.482</ele>
<time>2016-10-05T01:04:42.261Z</time>
</trkpt>
<trkpt lat="-26.8175614" lon="152.9508635">
<ele>40.765</ele>
<time>2016-10-05T01:04:45.359Z</time>
</trkpt>
<trkpt lat="-26.8171342" lon="152.9510904">
<ele>41.326</ele>
<time>2016-10-05T01:04:48.325Z</time>
</trkpt>
<trkpt lat="-26.8168594" lon="152.9512599">
<ele>41.318</ele>
<time>2016-10-05T01:04:50.241Z</time>
</trkpt>
<trkpt lat="-26.8164001" lon="152.9514628">
<ele>41.043</ele>
<time>2016-10-05T01:04:53.276Z</time>
</trkpt>
<trkpt lat="-26.8160008" lon="152.9517340">
<ele>40.386</ele>
<time>2016-10-05T01:04:56.233Z</time>
</trkpt>
<trkpt lat="-26.8157678" lon="152.9521991">
<ele>39.273</ele>
<time>2016-10-05T01:04:59.275Z</time>
</trkpt>
<trkpt lat="-26.8156491" lon="152.9525298">
<ele>38.252</ele>
<time>2016-10-05T01:05:01.273Z</time>
</trkpt>
<trkpt lat="-26.8155276" lon="152.9528745">
<ele>37.896</ele>
<time>2016-10-05T01:05:03.302Z</time>
</trkpt>
<trkpt lat="-26.8152564" lon="152.9533489">
<ele>38.210</ele>
<time>2016-10-05T01:05:06.316Z</time>
</trkpt>
<trkpt lat="-26.8150768" lon="152.9536761">
<ele>38.502</ele>
<time>2016-10-05T01:05:08.384Z</time>
</trkpt>
<trkpt lat="-26.8148229" lon="152.9541360">
<ele>38.111</ele>
<time>2016-10-05T01:05:11.362Z</time>
</trkpt>
<trkpt lat="-26.8145179" lon="152.9545494">
<ele>37.159</ele>
<time>2016-10-05T01:05:14.322Z</time>
</trkpt>
<trkpt lat="-26.8143107" lon="152.9548272">
<ele>36.219</ele>
<time>2016-10-05T01:05:16.289Z</time>
</trkpt>
<trkpt lat="-26.8141003" lon="152.9551034">
<ele>35.658</ele>
<time>2016-10-05T01:05:18.215Z</time>
</trkpt>
<trkpt lat="-26.8138723" lon="152.9553914">
<ele>35.463</ele>
<time>2016-10-05T01:05:20.250Z</time>
</trkpt>
<trkpt lat="-26.8135208" lon="152.9557874">
<ele>35.456</ele>
<time>2016-10-05T01:05:23.229Z</time>
</trkpt>
<trkpt lat="-26.8131511" lon="152.9561672">
<ele>35.095</ele>
<time>2016-10-05T01:05:26.261Z</time>
</trkpt>
<trkpt lat="-26.8128846" lon="152.9563642">
<ele>34.053</ele>
<time>2016-10-05T01:05:28.246Z</time>
</trkpt>
<trkpt lat="-26.8125096" lon="152.9567055">
<ele>32.938</ele>
<time>2016-10-05T01:05:31.323Z</time>
</trkpt>
<trkpt lat="-26.8122570" lon="152.9569031">
<ele>32.917</ele>
<time>2016-10-05T01:05:33.306Z</time>
</trkpt>
<trkpt lat="-26.8119967" lon="152.9570998">
<ele>34.458</ele>
<time>2016-10-05T01:05:35.261Z</time>
</trkpt>
<trkpt lat="-26.8117068" lon="152.9572910">
<ele>36.752</ele>
<time>2016-10-05T01:05:37.256Z</time>
</trkpt>
<trkpt lat="-26.8114184" lon="152.9575005">
<ele>38.671</ele>
<time>2016-10-05T01:05:39.215Z</time>
</trkpt>
<trkpt lat="-26.8109498" lon="152.9577764">
<ele>39.853</ele>
<time>2016-10-05T01:05:42.246Z</time>
</trkpt>
<trkpt lat="-26.8104917" lon="152.9579987">
<ele>39.968</ele>
<time>2016-10-05T01:05:45.233Z</time>
</trkpt>
<trkpt lat="-26.8100511" lon="152.9581946">
<ele>38.805</ele>
<time>2016-10-05T01:05:48.214Z</time>
</trkpt>
<trkpt lat="-26.8097550" lon="152.9582977">
<ele>36.962</ele>
<time>2016-10-05T01:05:50.224Z</time>
</trkpt>
<trkpt lat="-26.8093077" lon="152.9584769">
<ele>35.413</ele>
<time>2016-10-05T01:05:53.287Z</time>
</trkpt>
<trkpt lat="-26.8090524" lon="152.9586484">
<ele>34.613</ele>
<time>2016-10-05T01:05:55.126Z</time>
</trkpt>
<trkpt lat="-26.8087737" lon="152.9588525">
<ele>34.692</ele>
<time>2016-10-05T01:05:57.100Z</time>
</trkpt>
<trkpt lat="-26.8083601" lon="152.9591938">
<ele>35.450</ele>
<time>2016-10-05T01:06:00.235Z</time>
</trkpt>
<trkpt lat="-26.8079965" lon="152.9595102">
<ele>35.934</ele>
<time>2016-10-05T01:06:03.208Z</time>
</trkpt>
<trkpt lat="-26.8076053" lon="152.9597541">
<ele>35.496</ele>
<time>2016-10-05T01:06:06.090Z</time>
</trkpt>
<trkpt lat="-26.8072894" lon="152.9598645">
<ele>34.707</ele>
<time>2016-10-05T01:06:08.178Z</time>
</trkpt>
<trkpt lat="-26.8068263" lon="152.9599412">
<ele>34.230</ele>
<time>2016-10-05T01:06:11.294Z</time>
</trkpt>
<trkpt lat="-26.8064238" lon="152.9600417">
<ele>33.778</ele>
<time>2016-10-05T01:06:14.487Z</time>
</trkpt>
<trkpt lat="-26.8062041" lon="152.9600548">
<ele>32.923</ele>
<time>2016-10-05T01:06:16.753Z</time>
</trkpt>
<trkpt lat="-26.8060014" lon="152.9601617">
<ele>31.957</ele>
<time>2016-10-05T01:06:21.862Z</time>
</trkpt>
<trkpt lat="-26.8059077" lon="152.9601462">
<ele>31.248</ele>
<time>2016-10-05T01:06:24.224Z</time>
</trkpt>
<trkpt lat="-26.8057878" lon="152.9601524">
<ele>30.725</ele>
<time>2016-10-05T01:06:27.532Z</time>
</trkpt>
<trkpt lat="-26.8056221" lon="152.9602815">
<ele>30.493</ele>
<time>2016-10-05T01:06:29.938Z</time>
</trkpt>
<trkpt lat="-26.8054356" lon="152.9605065">
<ele>30.835</ele>
<time>2016-10-05T01:06:32.117Z</time>
</trkpt>
<trkpt lat="-26.8051125" lon="152.9608963">
<ele>31.753</ele>
<time>2016-10-05T01:06:35.347Z</time>
</trkpt>
<trkpt lat="-26.8049233" lon="152.9611091">
<ele>32.825</ele>
<time>2016-10-05T01:06:37.166Z</time>
</trkpt>
<trkpt lat="-26.8047677" lon="152.9613687">
<ele>33.628</ele>
<time>2016-10-05T01:06:39.214Z</time>
</trkpt>
<trkpt lat="-26.8046794" lon="152.9617621">
<ele>34.014</ele>
<time>2016-10-05T01:06:42.101Z</time>
</trkpt>
<trkpt lat="-26.8046231" lon="152.9621337">
<ele>33.873</ele>
<time>2016-10-05T01:06:45.088Z</time>
</trkpt>
<trkpt lat="-26.8045908" lon="152.9623571">
<ele>33.198</ele>
<time>2016-10-05T01:06:47.142Z</time>
</trkpt>
<trkpt lat="-26.8045549" lon="152.9626383">
<ele>32.240</ele>
<time>2016-10-05T01:06:49.962Z</time>
</trkpt>
<trkpt lat="-26.8045250" lon="152.9628263">
<ele>31.279</ele>
<time>2016-10-05T01:06:51.943Z</time>
</trkpt>
<trkpt lat="-26.8044949" lon="152.9630354">
<ele>30.551</ele>
<time>2016-10-05T01:06:54.028Z</time>
</trkpt>
<trkpt lat="-26.8044493" lon="152.9633542">
<ele>30.240</ele>
<time>2016-10-05T01:06:57.083Z</time>
</trkpt>
<trkpt lat="-26.8044258" lon="152.9635601">
<ele>30.304</ele>
<time>2016-10-05T01:06:59.085Z</time>
</trkpt>
<trkpt lat="-26.8044013" lon="152.9637472">
<ele>30.419</ele>
<time>2016-10-05T01:07:01.052Z</time>
</trkpt>
<trkpt lat="-26.8043633" lon="152.9639971">
<ele>30.308</ele>
<time>2016-10-05T01:07:03.930Z</time>
</trkpt>
<trkpt lat="-26.8043221" lon="152.9642173">
<ele>29.955</ele>
<time>2016-10-05T01:07:06.834Z</time>
</trkpt>
<trkpt lat="-26.8042886" lon="152.9643329">
<ele>29.460</ele>
<time>2016-10-05T01:07:08.704Z</time>
</trkpt>
<trkpt lat="-26.8042546" lon="152.9644267">
<ele>28.949</ele>
<time>2016-10-05T01:07:10.604Z</time>
</trkpt>
<trkpt lat="-26.8042161" lon="152.9645343">
<ele>28.575</ele>
<time>2016-10-05T01:07:13.309Z</time>
</trkpt>
<trkpt lat="-26.8041761" lon="152.9646469">
<ele>28.410</ele>
<time>2016-10-05T01:07:16.999Z</time>
</trkpt>
<trkpt lat="-26.8041761" lon="152.9646469">
<ele>28.391</ele>
<time>2016-10-05T01:07:22.999Z</time>
</trkpt>
<trkpt lat="-26.8041761" lon="152.9646469">
<ele>28.411</ele>
<time>2016-10-05T01:07:24.287Z</time>
</trkpt>
<trkpt lat="-26.8040836" lon="152.9648901">
<ele>28.409</ele>
<time>2016-10-05T01:07:32.458Z</time>
</trkpt>
<trkpt lat="-26.8040068" lon="152.9650356">
<ele>28.526</ele>
<time>2016-10-05T01:07:35.163Z</time>
</trkpt>
<trkpt lat="-26.8039559" lon="152.9651533">
<ele>28.889</ele>
<time>2016-10-05T01:07:36.903Z</time>
</trkpt>
<trkpt lat="-26.8038896" lon="152.9652981">
<ele>29.375</ele>
<time>2016-10-05T01:07:38.640Z</time>
</trkpt>
<trkpt lat="-26.8037570" lon="152.9655719">
<ele>29.786</ele>
<time>2016-10-05T01:07:41.648Z</time>
</trkpt>
<trkpt lat="-26.8036914" lon="152.9657728">
<ele>30.027</ele>
<time>2016-10-05T01:07:43.513Z</time>
</trkpt>
<trkpt lat="-26.8036240" lon="152.9659942">
<ele>30.094</ele>
<time>2016-10-05T01:07:45.545Z</time>
</trkpt>
<trkpt lat="-26.8035203" lon="152.9663260">
<ele>29.957</ele>
<time>2016-10-05T01:07:48.630Z</time>
</trkpt>
<trkpt lat="-26.8034119" lon="152.9666342">
<ele>29.573</ele>
<time>2016-10-05T01:07:51.579Z</time>
</trkpt>
<trkpt lat="-26.8033599" lon="152.9668373">
<ele>29.106</ele>
<time>2016-10-05T01:07:53.446Z</time>
</trkpt>
<trkpt lat="-26.8032656" lon="152.9671606">
<ele>28.747</ele>
<time>2016-10-05T01:07:56.405Z</time>
</trkpt>
<trkpt lat="-26.8032022" lon="152.9673793">
<ele>28.477</ele>
<time>2016-10-05T01:07:58.400Z</time>
</trkpt>
<trkpt lat="-26.8030859" lon="152.9676773">
<ele>28.141</ele>
<time>2016-10-05T01:08:01.157Z</time>
</trkpt>
<trkpt lat="-26.8029817" lon="152.9678970">
<ele>27.708</ele>
<time>2016-10-05T01:08:03.005Z</time>
</trkpt>
<trkpt lat="-26.8028238" lon="152.9681724">
<ele>27.435</ele>
<time>2016-10-05T01:08:05.107Z</time>
</trkpt>
<trkpt lat="-26.8026504" lon="152.9684599">
<ele>27.593</ele>
<time>2016-10-05T01:08:07.179Z</time>
</trkpt>
<trkpt lat="-26.8024078" lon="152.9688687">
<ele>28.062</ele>
<time>2016-10-05T01:08:10.157Z</time>
</trkpt>
<trkpt lat="-26.8022724" lon="152.9691233">
<ele>28.272</ele>
<time>2016-10-05T01:08:12.135Z</time>
</trkpt>
<trkpt lat="-26.8021416" lon="152.9693485">
<ele>27.794</ele>
<time>2016-10-05T01:08:14.112Z</time>
</trkpt>
<trkpt lat="-26.8019596" lon="152.9694984">
<ele>26.954</ele>
<time>2016-10-05T01:08:16.086Z</time>
</trkpt>
<trkpt lat="-26.8016246" lon="152.9696094">
<ele>26.444</ele>
<time>2016-10-05T01:08:18.962Z</time>
</trkpt>
<trkpt lat="-26.8011146" lon="152.9696316">
<ele>26.771</ele>
<time>2016-10-05T01:08:22.449Z</time>
</trkpt>
<trkpt lat="-26.8008008" lon="152.9696631">
<ele>27.795</ele>
<time>2016-10-05T01:08:24.434Z</time>
</trkpt>
<trkpt lat="-26.8003216" lon="152.9696732">
<ele>28.849</ele>
<time>2016-10-05T01:08:27.460Z</time>
</trkpt>
<trkpt lat="-26.8000139" lon="152.9696965">
<ele>29.502</ele>
<time>2016-10-05T01:08:29.420Z</time>
</trkpt>
<trkpt lat="-26.7997083" lon="152.9696869">
<ele>29.849</ele>
<time>2016-10-05T01:08:31.362Z</time>
</trkpt>
<trkpt lat="-26.7992355" lon="152.9696538">
<ele>30.072</ele>
<time>2016-10-05T01:08:34.359Z</time>
</trkpt>
<trkpt lat="-26.7989166" lon="152.9696403">
<ele>30.044</ele>
<time>2016-10-05T01:08:36.415Z</time>
</trkpt>
<trkpt lat="-26.7984809" lon="152.9696569">
<ele>29.635</ele>
<time>2016-10-05T01:08:39.308Z</time>
</trkpt>
<trkpt lat="-26.7982014" lon="152.9697525">
<ele>29.164</ele>
<time>2016-10-05T01:08:41.279Z</time>
</trkpt>
<trkpt lat="-26.7977740" lon="152.9699519">
<ele>28.958</ele>
<time>2016-10-05T01:08:44.338Z</time>
</trkpt>
<trkpt lat="-26.7974629" lon="152.9699900">
<ele>29.031</ele>
<time>2016-10-05T01:08:46.391Z</time>
</trkpt>
<trkpt lat="-26.7970754" lon="152.9697491">
<ele>29.247</ele>
<time>2016-10-05T01:08:49.379Z</time>
</trkpt>
<trkpt lat="-26.7968641" lon="152.9694915">
<ele>29.475</ele>
<time>2016-10-05T01:08:51.464Z</time>
</trkpt>
<trkpt lat="-26.7966998" lon="152.9689567">
<ele>29.678</ele>
<time>2016-10-05T01:08:54.773Z</time>
</trkpt>
<trkpt lat="-26.7965370" lon="152.9685209">
<ele>29.898</ele>
<time>2016-10-05T01:08:57.663Z</time>
</trkpt>
<trkpt lat="-26.7964143" lon="152.9682608">
<ele>30.155</ele>
<time>2016-10-05T01:08:59.610Z</time>
</trkpt>
<trkpt lat="-26.7961249" lon="152.9679151">
<ele>30.362</ele>
<time>2016-10-05T01:09:02.812Z</time>
</trkpt>
<trkpt lat="-26.7958216" lon="152.9679287">
<ele>30.407</ele>
<time>2016-10-05T01:09:05.063Z</time>
</trkpt>
<trkpt lat="-26.7954251" lon="152.9680941">
<ele>30.314</ele>
<time>2016-10-05T01:09:07.977Z</time>
</trkpt>
<trkpt lat="-26.7951510" lon="152.9682928">
<ele>30.115</ele>
<time>2016-10-05T01:09:09.929Z</time>
</trkpt>
<trkpt lat="-26.7947011" lon="152.9685833">
<ele>29.788</ele>
<time>2016-10-05T01:09:12.916Z</time>
</trkpt>
<trkpt lat="-26.7943957" lon="152.9687877">
<ele>29.416</ele>
<time>2016-10-05T01:09:14.964Z</time>
</trkpt>
<trkpt lat="-26.7939858" lon="152.9690978">
<ele>29.249</ele>
<time>2016-10-05T01:09:17.903Z</time>
</trkpt>
<trkpt lat="-26.7937402" lon="152.9693364">
<ele>29.485</ele>
<time>2016-10-05T01:09:19.817Z</time>
</trkpt>
<trkpt lat="-26.7935075" lon="152.9696444">
<ele>30.002</ele>
<time>2016-10-05T01:09:21.755Z</time>
</trkpt>
<trkpt lat="-26.7931184" lon="152.9701373">
<ele>30.836</ele>
<time>2016-10-05T01:09:24.846Z</time>
</trkpt>
<trkpt lat="-26.7928959" lon="152.9704441">
<ele>32.035</ele>
<time>2016-10-05T01:09:26.798Z</time>
</trkpt>
<trkpt lat="-26.7926878" lon="152.9707514">
<ele>32.924</ele>
<time>2016-10-05T01:09:28.775Z</time>
</trkpt>
<trkpt lat="-26.7924700" lon="152.9710428">
<ele>32.959</ele>
<time>2016-10-05T01:09:30.709Z</time>
</trkpt>
<trkpt lat="-26.7921147" lon="152.9714791">
<ele>32.440</ele>
<time>2016-10-05T01:09:33.647Z</time>
</trkpt>
<trkpt lat="-26.7918689" lon="152.9717801">
<ele>31.747</ele>
<time>2016-10-05T01:09:35.646Z</time>
</trkpt>
<trkpt lat="-26.7915468" lon="152.9722511">
<ele>31.154</ele>
<time>2016-10-05T01:09:38.629Z</time>
</trkpt>
<trkpt lat="-26.7912243" lon="152.9726638">
<ele>30.858</ele>
<time>2016-10-05T01:09:41.497Z</time>
</trkpt>
<trkpt lat="-26.7908284" lon="152.9730080">
<ele>31.008</ele>
<time>2016-10-05T01:09:44.480Z</time>
</trkpt>
<trkpt lat="-26.7905869" lon="152.9732723">
<ele>31.827</ele>
<time>2016-10-05T01:09:46.456Z</time>
</trkpt>
<trkpt lat="-26.7901534" lon="152.9736340">
<ele>33.696</ele>
<time>2016-10-05T01:09:49.616Z</time>
</trkpt>
<trkpt lat="-26.7898642" lon="152.9738076">
<ele>37.236</ele>
<time>2016-10-05T01:09:51.543Z</time>
</trkpt>
<trkpt lat="-26.7895135" lon="152.9738566">
<ele>42.435</ele>
<time>2016-10-05T01:09:53.550Z</time>
</trkpt>
<trkpt lat="-26.7889803" lon="152.9739152">
<ele>48.544</ele>
<time>2016-10-05T01:09:56.583Z</time>
</trkpt>
<trkpt lat="-26.7886542" lon="152.9739264">
<ele>54.967</ele>
<time>2016-10-05T01:09:58.562Z</time>
</trkpt>
<trkpt lat="-26.7883611" lon="152.9739626">
<ele>60.785</ele>
<time>2016-10-05T01:10:00.501Z</time>
</trkpt>
<trkpt lat="-26.7881034" lon="152.9741063">
<ele>64.913</ele>
<time>2016-10-05T01:10:02.428Z</time>
</trkpt>
<trkpt lat="-26.7878593" lon="152.9743780">
<ele>67.336</ele>
<time>2016-10-05T01:10:04.584Z</time>
</trkpt>
<trkpt lat="-26.7875297" lon="152.9748178">
<ele>68.991</ele>
<time>2016-10-05T01:10:07.662Z</time>
</trkpt>
<trkpt lat="-26.7873115" lon="152.9751029">
<ele>70.726</ele>
<time>2016-10-05T01:10:09.733Z</time>
</trkpt>
<trkpt lat="-26.7869984" lon="152.9754827">
<ele>72.462</ele>
<time>2016-10-05T01:10:12.785Z</time>
</trkpt>
<trkpt lat="-26.7867580" lon="152.9756017">
<ele>73.751</ele>
<time>2016-10-05T01:10:14.746Z</time>
</trkpt>
<trkpt lat="-26.7863788" lon="152.9755158">
<ele>74.987</ele>
<time>2016-10-05T01:10:17.590Z</time>
</trkpt>
<trkpt lat="-26.7861033" lon="152.9753582">
<ele>76.928</ele>
<time>2016-10-05T01:10:19.632Z</time>
</trkpt>
<trkpt lat="-26.7857906" lon="152.9752250">
<ele>79.319</ele>
<time>2016-10-05T01:10:21.670Z</time>
</trkpt>
<trkpt lat="-26.7854687" lon="152.9751165">
<ele>81.152</ele>
<time>2016-10-05T01:10:23.640Z</time>
</trkpt>
<trkpt lat="-26.7849710" lon="152.9749725">
<ele>81.939</ele>
<time>2016-10-05T01:10:26.654Z</time>
</trkpt>
<trkpt lat="-26.7846588" lon="152.9748666">
<ele>81.849</ele>
<time>2016-10-05T01:10:28.617Z</time>
</trkpt>
<trkpt lat="-26.7842026" lon="152.9746692">
<ele>81.272</ele>
<time>2016-10-05T01:10:31.582Z</time>
</trkpt>
<trkpt lat="-26.7837415" lon="152.9744499">
<ele>81.118</ele>
<time>2016-10-05T01:10:34.612Z</time>
</trkpt>
<trkpt lat="-26.7834374" lon="152.9743138">
<ele>82.025</ele>
<time>2016-10-05T01:10:36.582Z</time>
</trkpt>
<trkpt lat="-26.7831197" lon="152.9741962">
<ele>83.379</ele>
<time>2016-10-05T01:10:38.643Z</time>
</trkpt>
<trkpt lat="-26.7826924" lon="152.9740393">
<ele>84.193</ele>
<time>2016-10-05T01:10:41.448Z</time>
</trkpt>
<trkpt lat="-26.7822725" lon="152.9737761">
<ele>84.289</ele>
<time>2016-10-05T01:10:44.465Z</time>
</trkpt>
<trkpt lat="-26.7818892" lon="152.9734603">
<ele>84.138</ele>
<time>2016-10-05T01:10:47.507Z</time>
</trkpt>
<trkpt lat="-26.7816064" lon="152.9733629">
<ele>84.316</ele>
<time>2016-10-05T01:10:49.505Z</time>
</trkpt>
<trkpt lat="-26.7813387" lon="152.9733063">
<ele>84.901</ele>
<time>2016-10-05T01:10:51.412Z</time>
</trkpt>
<trkpt lat="-26.7808968" lon="152.9733362">
<ele>85.485</ele>
<time>2016-10-05T01:10:54.543Z</time>
</trkpt>
<trkpt lat="-26.7804626" lon="152.9731913">
<ele>85.845</ele>
<time>2016-10-05T01:10:57.641Z</time>
</trkpt>
<trkpt lat="-26.7802242" lon="152.9728915">
<ele>86.105</ele>
<time>2016-10-05T01:10:59.885Z</time>
</trkpt>
<trkpt lat="-26.7800134" lon="152.9726055">
<ele>86.854</ele>
<time>2016-10-05T01:11:01.919Z</time>
</trkpt>
<trkpt lat="-26.7797887" lon="152.9721257">
<ele>88.957</ele>
<time>2016-10-05T01:11:04.952Z</time>
</trkpt>
<trkpt lat="-26.7796094" lon="152.9716618">
<ele>92.780</ele>
<time>2016-10-05T01:11:07.930Z</time>
</trkpt>
<trkpt lat="-26.7793686" lon="152.9714271">
<ele>97.326</ele>
<time>2016-10-05T01:11:10.074Z</time>
</trkpt>
<trkpt lat="-26.7790749" lon="152.9713243">
<ele>100.847</ele>
<time>2016-10-05T01:11:11.951Z</time>
</trkpt>
<trkpt lat="-26.7785524" lon="152.9712100">
<ele>102.954</ele>
<time>2016-10-05T01:11:15.058Z</time>
</trkpt>
<trkpt lat="-26.7782158" lon="152.9710875">
<ele>104.541</ele>
<time>2016-10-05T01:11:17.123Z</time>
</trkpt>
<trkpt lat="-26.7777661" lon="152.9708311">
<ele>106.363</ele>
<time>2016-10-05T01:11:20.117Z</time>
</trkpt>
<trkpt lat="-26.7773099" lon="152.9706067">
<ele>108.772</ele>
<time>2016-10-05T01:11:23.152Z</time>
</trkpt>
<trkpt lat="-26.7770029" lon="152.9705467">
<ele>111.644</ele>
<time>2016-10-05T01:11:25.121Z</time>
</trkpt>
<trkpt lat="-26.7767027" lon="152.9705529">
<ele>114.369</ele>
<time>2016-10-05T01:11:26.966Z</time>
</trkpt>
<trkpt lat="-26.7763784" lon="152.9706749">
<ele>116.449</ele>
<time>2016-10-05T01:11:28.979Z</time>
</trkpt>
<trkpt lat="-26.7758935" lon="152.9708673">
<ele>117.687</ele>
<time>2016-10-05T01:11:31.984Z</time>
</trkpt>
<trkpt lat="-26.7755849" lon="152.9710302">
<ele>118.337</ele>
<time>2016-10-05T01:11:33.975Z</time>
</trkpt>
<trkpt lat="-26.7751970" lon="152.9713607">
<ele>118.686</ele>
<time>2016-10-05T01:11:36.916Z</time>
</trkpt>
<trkpt lat="-26.7748347" lon="152.9716793">
<ele>117.923</ele>
<time>2016-10-05T01:11:39.786Z</time>
</trkpt>
<trkpt lat="-26.7745350" lon="152.9718678">
<ele>115.174</ele>
<time>2016-10-05T01:11:41.927Z</time>
</trkpt>
<trkpt lat="-26.7742167" lon="152.9718320">
<ele>111.646</ele>
<time>2016-10-05T01:11:43.879Z</time>
</trkpt>
<trkpt lat="-26.7737217" lon="152.9716206">
<ele>108.912</ele>
<time>2016-10-05T01:11:46.956Z</time>
</trkpt>
<trkpt lat="-26.7733874" lon="152.9714561">
<ele>106.836</ele>
<time>2016-10-05T01:11:48.935Z</time>
</trkpt>
<trkpt lat="-26.7728786" lon="152.9712488">
<ele>104.532</ele>
<time>2016-10-05T01:11:51.936Z</time>
</trkpt>
<trkpt lat="-26.7725639" lon="152.9711436">
<ele>100.990</ele>
<time>2016-10-05T01:11:54.037Z</time>
</trkpt>
<trkpt lat="-26.7721483" lon="152.9710761">
<ele>96.340</ele>
<time>2016-10-05T01:11:56.814Z</time>
</trkpt>
<trkpt lat="-26.7718171" lon="152.9711845">
<ele>92.170</ele>
<time>2016-10-05T01:11:58.877Z</time>
</trkpt>
<trkpt lat="-26.7714824" lon="152.9713316">
<ele>89.381</ele>
<time>2016-10-05T01:12:00.890Z</time>
</trkpt>
<trkpt lat="-26.7709911" lon="152.9715909">
<ele>87.181</ele>
<time>2016-10-05T01:12:04.063Z</time>
</trkpt>
<trkpt lat="-26.7705833" lon="152.9718382">
<ele>84.247</ele>
<time>2016-10-05T01:12:06.995Z</time>
</trkpt>
<trkpt lat="-26.7703240" lon="152.9719980">
<ele>80.643</ele>
<time>2016-10-05T01:12:08.904Z</time>
</trkpt>
<trkpt lat="-26.7700421" lon="152.9721543">
<ele>77.964</ele>
<time>2016-10-05T01:12:10.933Z</time>
</trkpt>
<trkpt lat="-26.7697854" lon="152.9722972">
<ele>76.978</ele>
<time>2016-10-05T01:12:12.897Z</time>
</trkpt>
<trkpt lat="-26.7695541" lon="152.9724084">
<ele>77.002</ele>
<time>2016-10-05T01:12:14.746Z</time>
</trkpt>
<trkpt lat="-26.7693004" lon="152.9724227">
<ele>77.309</ele>
<time>2016-10-05T01:12:16.632Z</time>
</trkpt>
<trkpt lat="-26.7690271" lon="152.9723098">
<ele>77.551</ele>
<time>2016-10-05T01:12:18.697Z</time>
</trkpt>
<trkpt lat="-26.7686165" lon="152.9721614">
<ele>77.356</ele>
<time>2016-10-05T01:12:21.640Z</time>
</trkpt>
<trkpt lat="-26.7683176" lon="152.9721066">
<ele>76.588</ele>
<time>2016-10-05T01:12:23.664Z</time>
</trkpt>
<trkpt lat="-26.7680262" lon="152.9720657">
<ele>76.418</ele>
<time>2016-10-05T01:12:25.624Z</time>
</trkpt>
<trkpt lat="-26.7675817" lon="152.9720312">
<ele>78.189</ele>
<time>2016-10-05T01:12:28.551Z</time>
</trkpt>
<trkpt lat="-26.7670835" lon="152.9720663">
<ele>81.612</ele>
<time>2016-10-05T01:12:31.796Z</time>
</trkpt>
<trkpt lat="-26.7667938" lon="152.9721081">
<ele>85.636</ele>
<time>2016-10-05T01:12:33.806Z</time>
</trkpt>
<trkpt lat="-26.7664069" lon="152.9722273">
<ele>89.621</ele>
<time>2016-10-05T01:12:36.512Z</time>
</trkpt>
<trkpt lat="-26.7659601" lon="152.9724817">
<ele>92.822</ele>
<time>2016-10-05T01:12:39.668Z</time>
</trkpt>
<trkpt lat="-26.7656777" lon="152.9726726">
<ele>94.369</ele>
<time>2016-10-05T01:12:41.684Z</time>
</trkpt>
<trkpt lat="-26.7654052" lon="152.9728529">
<ele>93.932</ele>
<time>2016-10-05T01:12:43.740Z</time>
</trkpt>
<trkpt lat="-26.7652996" lon="152.9731666">
<ele>91.835</ele>
<time>2016-10-05T01:12:45.690Z</time>
</trkpt>
<trkpt lat="-26.7652381" lon="152.9737151">
<ele>88.556</ele>
<time>2016-10-05T01:12:48.715Z</time>
</trkpt>
<trkpt lat="-26.7652372" lon="152.9741417">
<ele>83.709</ele>
<time>2016-10-05T01:12:50.882Z</time>
</trkpt>
<trkpt lat="-26.7652469" lon="152.9747406">
<ele>77.110</ele>
<time>2016-10-05T01:12:54.045Z</time>
</trkpt>
<trkpt lat="-26.7651549" lon="152.9750504">
<ele>69.737</ele>
<time>2016-10-05T01:12:56.209Z</time>
</trkpt>
<trkpt lat="-26.7649393" lon="152.9753511">
<ele>62.766</ele>
<time>2016-10-05T01:12:59.571Z</time>
</trkpt>
<trkpt lat="-26.7648261" lon="152.9754675">
<ele>56.787</ele>
<time>2016-10-05T01:13:02.605Z</time>
</trkpt>
<trkpt lat="-26.7647508" lon="152.9755327">
<ele>51.722</ele>
<time>2016-10-05T01:13:05.380Z</time>
</trkpt>
<trkpt lat="-26.7646515" lon="152.9755106">
<ele>47.126</ele>
<time>2016-10-05T01:13:07.851Z</time>
</trkpt>
<trkpt lat="-26.7646928" lon="152.9751960">
<ele>43.232</ele>
<time>2016-10-05T01:13:11.648Z</time>
</trkpt>
<trkpt lat="-26.7647241" lon="152.9749456">
<ele>40.604</ele>
<time>2016-10-05T01:13:13.568Z</time>
</trkpt>
<trkpt lat="-26.7647383" lon="152.9746676">
<ele>39.308</ele>
<time>2016-10-05T01:13:15.543Z</time>
</trkpt>
<trkpt lat="-26.7646376" lon="152.9742620">
<ele>38.724</ele>
<time>2016-10-05T01:13:18.532Z</time>
</trkpt>
<trkpt lat="-26.7643807" lon="152.9739656">
<ele>38.335</ele>
<time>2016-10-05T01:13:21.501Z</time>
</trkpt>
<trkpt lat="-26.7641336" lon="152.9738861">
<ele>38.104</ele>
<time>2016-10-05T01:13:23.513Z</time>
</trkpt>
<trkpt lat="-26.7638930" lon="152.9737856">
<ele>38.397</ele>
<time>2016-10-05T01:13:25.492Z</time>
</trkpt>
<trkpt lat="-26.7636074" lon="152.9734939">
<ele>39.789</ele>
<time>2016-10-05T01:13:28.482Z</time>
</trkpt>
<trkpt lat="-26.7636431" lon="152.9731366">
<ele>42.249</ele>
<time>2016-10-05T01:13:30.879Z</time>
</trkpt>
<trkpt lat="-26.7638407" lon="152.9726945">
<ele>44.761</ele>
<time>2016-10-05T01:13:33.998Z</time>
</trkpt>
<trkpt lat="-26.7640962" lon="152.9723050">
<ele>46.043</ele>
<time>2016-10-05T01:13:36.936Z</time>
</trkpt>
<trkpt lat="-26.7643622" lon="152.9718999">
<ele>45.313</ele>
<time>2016-10-05T01:13:40.021Z</time>
</trkpt>
<trkpt lat="-26.7646168" lon="152.9715407">
<ele>42.680</ele>
<time>2016-10-05T01:13:42.952Z</time>
</trkpt>
<trkpt lat="-26.7647358" lon="152.9712734">
<ele>39.131</ele>
<time>2016-10-05T01:13:44.988Z</time>
</trkpt>
<trkpt lat="-26.7647854" lon="152.9710084">
<ele>35.881</ele>
<time>2016-10-05T01:13:46.861Z</time>
</trkpt>
<trkpt lat="-26.7647020" lon="152.9705609">
<ele>33.504</ele>
<time>2016-10-05T01:13:49.939Z</time>
</trkpt>
<trkpt lat="-26.7646162" lon="152.9701112">
<ele>31.836</ele>
<time>2016-10-05T01:13:52.911Z</time>
</trkpt>
<trkpt lat="-26.7645271" lon="152.9698017">
<ele>30.291</ele>
<time>2016-10-05T01:13:54.986Z</time>
</trkpt>
<trkpt lat="-26.7644184" lon="152.9695303">
<ele>28.414</ele>
<time>2016-10-05T01:13:56.813Z</time>
</trkpt>
<trkpt lat="-26.7641650" lon="152.9691013">
<ele>26.392</ele>
<time>2016-10-05T01:13:59.945Z</time>
</trkpt>
<trkpt lat="-26.7639524" lon="152.9687294">
<ele>24.639</ele>
<time>2016-10-05T01:14:02.699Z</time>
</trkpt>
<trkpt lat="-26.7638186" lon="152.9683251">
<ele>23.374</ele>
<time>2016-10-05T01:14:05.485Z</time>
</trkpt>
<trkpt lat="-26.7637358" lon="152.9678799">
<ele>22.885</ele>
<time>2016-10-05T01:14:08.591Z</time>
</trkpt>
<trkpt lat="-26.7637412" lon="152.9675021">
<ele>23.245</ele>
<time>2016-10-05T01:14:11.384Z</time>
</trkpt>
<trkpt lat="-26.7637731" lon="152.9672518">
<ele>23.951</ele>
<time>2016-10-05T01:14:13.362Z</time>
</trkpt>
<trkpt lat="-26.7638452" lon="152.9670188">
<ele>24.490</ele>
<time>2016-10-05T01:14:15.314Z</time>
</trkpt>
<trkpt lat="-26.7639398" lon="152.9667859">
<ele>24.795</ele>
<time>2016-10-05T01:14:17.322Z</time>
</trkpt>
<trkpt lat="-26.7640329" lon="152.9665529">
<ele>25.028</ele>
<time>2016-10-05T01:14:19.311Z</time>
</trkpt>
<trkpt lat="-26.7641512" lon="152.9661983">
<ele>25.392</ele>
<time>2016-10-05T01:14:22.233Z</time>
</trkpt>
<trkpt lat="-26.7642505" lon="152.9658214">
<ele>25.965</ele>
<time>2016-10-05T01:14:25.216Z</time>
</trkpt>
<trkpt lat="-26.7643440" lon="152.9654345">
<ele>26.587</ele>
<time>2016-10-05T01:14:28.241Z</time>
</trkpt>
<trkpt lat="-26.7644180" lon="152.9650547">
<ele>27.043</ele>
<time>2016-10-05T01:14:31.203Z</time>
</trkpt>
<trkpt lat="-26.7644567" lon="152.9646897">
<ele>27.259</ele>
<time>2016-10-05T01:14:34.033Z</time>
</trkpt>
<trkpt lat="-26.7645433" lon="152.9643115">
<ele>27.284</ele>
<time>2016-10-05T01:14:37.095Z</time>
</trkpt>
<trkpt lat="-26.7646097" lon="152.9639583">
<ele>27.283</ele>
<time>2016-10-05T01:14:40.102Z</time>
</trkpt>
<trkpt lat="-26.7646498" lon="152.9637550">
<ele>27.356</ele>
<time>2016-10-05T01:14:42.221Z</time>
</trkpt>
<trkpt lat="-26.7646914" lon="152.9636118">
<ele>27.313</ele>
<time>2016-10-05T01:14:44.247Z</time>
</trkpt>
<trkpt lat="-26.7647079" lon="152.9635080">
<ele>26.820</ele>
<time>2016-10-05T01:14:45.976Z</time>
</trkpt>
<trkpt lat="-26.7647337" lon="152.9633916">
<ele>25.993</ele>
<time>2016-10-05T01:14:48.123Z</time>
</trkpt>
<trkpt lat="-26.7647596" lon="152.9632381">
<ele>25.289</ele>
<time>2016-10-05T01:14:51.225Z</time>
</trkpt>
<trkpt lat="-26.7648017" lon="152.9631287">
<ele>24.910</ele>
<time>2016-10-05T01:14:54.671Z</time>
</trkpt>
<trkpt lat="-26.7648335" lon="152.9630288">
<ele>24.778</ele>
<time>2016-10-05T01:14:58.999Z</time>
</trkpt>
<trkpt lat="-26.7648335" lon="152.9630288">
<ele>24.771</ele>
<time>2016-10-05T01:15:00.999Z</time>
</trkpt>
<trkpt lat="-26.7648335" lon="152.9630288">
<ele>24.778</ele>
<time>2016-10-05T01:15:06.400Z</time>
</trkpt>
<trkpt lat="-26.7648559" lon="152.9628061">
<ele>24.768</ele>
<time>2016-10-05T01:15:10.647Z</time>
</trkpt>
<trkpt lat="-26.7648995" lon="152.9626006">
<ele>25.210</ele>
<time>2016-10-05T01:15:12.636Z</time>
</trkpt>
<trkpt lat="-26.7649807" lon="152.9623551">
<ele>26.412</ele>
<time>2016-10-05T01:15:14.999Z</time>
</trkpt>
<trkpt lat="-26.7649807" lon="152.9623551">
<ele>27.692</ele>
<time>2016-10-05T01:15:20.999Z</time>
</trkpt>
<trkpt lat="-26.7649807" lon="152.9623551">
<ele>28.260</ele>
<time>2016-10-05T01:15:24.771Z</time>
</trkpt>
<trkpt lat="-26.7649309" lon="152.9620862">
<ele>28.179</ele>
<time>2016-10-05T01:15:30.498Z</time>
</trkpt>
<trkpt lat="-26.7646859" lon="152.9619085">
<ele>27.947</ele>
<time>2016-10-05T01:15:33.561Z</time>
</trkpt>
<trkpt lat="-26.7644934" lon="152.9617541">
<ele>28.182</ele>
<time>2016-10-05T01:15:35.555Z</time>
</trkpt>
<trkpt lat="-26.7642915" lon="152.9616013">
<ele>29.122</ele>
<time>2016-10-05T01:15:37.509Z</time>
</trkpt>
<trkpt lat="-26.7640846" lon="152.9614661">
<ele>30.326</ele>
<time>2016-10-05T01:15:39.361Z</time>
</trkpt>
<trkpt lat="-26.7637167" lon="152.9612967">
<ele>31.270</ele>
<time>2016-10-05T01:15:42.328Z</time>
</trkpt>
<trkpt lat="-26.7634346" lon="152.9612212">
<ele>31.854</ele>
<time>2016-10-05T01:15:44.353Z</time>
</trkpt>
<trkpt lat="-26.7629932" lon="152.9611647">
<ele>31.777</ele>
<time>2016-10-05T01:15:47.425Z</time>
</trkpt>
<trkpt lat="-26.7625917" lon="152.9612486">
<ele>30.912</ele>
<time>2016-10-05T01:15:50.302Z</time>
</trkpt>
<trkpt lat="-26.7623171" lon="152.9613097">
<ele>30.059</ele>
<time>2016-10-05T01:15:52.257Z</time>
</trkpt>
<trkpt lat="-26.7620331" lon="152.9613906">
<ele>30.039</ele>
<time>2016-10-05T01:15:54.247Z</time>
</trkpt>
<trkpt lat="-26.7616196" lon="152.9615666">
<ele>30.667</ele>
<time>2016-10-05T01:15:57.277Z</time>
</trkpt>
<trkpt lat="-26.7612685" lon="152.9617676">
<ele>31.092</ele>
<time>2016-10-05T01:16:00.147Z</time>
</trkpt>
<trkpt lat="-26.7610551" lon="152.9618906">
<ele>30.760</ele>
<time>2016-10-05T01:16:02.068Z</time>
</trkpt>
<trkpt lat="-26.7607460" lon="152.9620567">
<ele>29.843</ele>
<time>2016-10-05T01:16:04.934Z</time>
</trkpt>
<trkpt lat="-26.7605455" lon="152.9621856">
<ele>28.653</ele>
<time>2016-10-05T01:16:06.896Z</time>
</trkpt>
<trkpt lat="-26.7602163" lon="152.9623499">
<ele>27.334</ele>
<time>2016-10-05T01:16:09.956Z</time>
</trkpt>
<trkpt lat="-26.7599063" lon="152.9624352">
<ele>26.136</ele>
<time>2016-10-05T01:16:12.828Z</time>
</trkpt>
<trkpt lat="-26.7596314" lon="152.9624864">
<ele>25.275</ele>
<time>2016-10-05T01:16:15.649Z</time>
</trkpt>
<trkpt lat="-26.7594911" lon="152.9625809">
<ele>24.603</ele>
<time>2016-10-05T01:16:17.469Z</time>
</trkpt>
<trkpt lat="-26.7592747" lon="152.9627959">
<ele>23.957</ele>
<time>2016-10-05T01:16:20.580Z</time>
</trkpt>
<trkpt lat="-26.7590044" lon="152.9628469">
<ele>23.723</ele>
<time>2016-10-05T01:16:22.953Z</time>
</trkpt>
<trkpt lat="-26.7585979" lon="152.9628358">
<ele>24.574</ele>
<time>2016-10-05T01:16:25.988Z</time>
</trkpt>
<trkpt lat="-26.7582564" lon="152.9627379">
<ele>26.941</ele>
<time>2016-10-05T01:16:28.283Z</time>
</trkpt>
<trkpt lat="-26.7579315" lon="152.9626572">
<ele>30.102</ele>
<time>2016-10-05T01:16:30.323Z</time>
</trkpt>
<trkpt lat="-26.7574529" lon="152.9625590">
<ele>32.499</ele>
<time>2016-10-05T01:16:33.255Z</time>
</trkpt>
<trkpt lat="-26.7569658" lon="152.9624605">
<ele>33.576</ele>
<time>2016-10-05T01:16:36.225Z</time>
</trkpt>
<trkpt lat="-26.7566449" lon="152.9623854">
<ele>33.911</ele>
<time>2016-10-05T01:16:38.246Z</time>
</trkpt>
<trkpt lat="-26.7561959" lon="152.9623018">
<ele>33.830</ele>
<time>2016-10-05T01:16:41.177Z</time>
</trkpt>
<trkpt lat="-26.7559076" lon="152.9623006">
<ele>33.383</ele>
<time>2016-10-05T01:16:43.115Z</time>
</trkpt>
<trkpt lat="-26.7556245" lon="152.9624463">
<ele>32.815</ele>
<time>2016-10-05T01:16:45.112Z</time>
</trkpt>
<trkpt lat="-26.7553091" lon="152.9626060">
<ele>32.486</ele>
<time>2016-10-05T01:16:47.141Z</time>
</trkpt>
<trkpt lat="-26.7547882" lon="152.9627731">
<ele>32.487</ele>
<time>2016-10-05T01:16:50.140Z</time>
</trkpt>
<trkpt lat="-26.7542585" lon="152.9629610">
<ele>32.365</ele>
<time>2016-10-05T01:16:53.130Z</time>
</trkpt>
<trkpt lat="-26.7538601" lon="152.9633540">
<ele>31.533</ele>
<time>2016-10-05T01:16:55.957Z</time>
</trkpt>
<trkpt lat="-26.7534703" lon="152.9638664">
<ele>30.205</ele>
<time>2016-10-05T01:16:59.088Z</time>
</trkpt>
<trkpt lat="-26.7530887" lon="152.9642951">
<ele>29.910</ele>
<time>2016-10-05T01:17:02.038Z</time>
</trkpt>
<trkpt lat="-26.7527140" lon="152.9645858">
<ele>31.622</ele>
<time>2016-10-05T01:17:04.800Z</time>
</trkpt>
<trkpt lat="-26.7522640" lon="152.9647100">
<ele>34.413</ele>
<time>2016-10-05T01:17:07.721Z</time>
</trkpt>
<trkpt lat="-26.7518962" lon="152.9646305">
<ele>37.574</ele>
<time>2016-10-05T01:17:09.897Z</time>
</trkpt>
<trkpt lat="-26.7513434" lon="152.9645462">
<ele>41.451</ele>
<time>2016-10-05T01:17:13.031Z</time>
</trkpt>
<trkpt lat="-26.7510183" lon="152.9645407">
<ele>45.516</ele>
<time>2016-10-05T01:17:15.036Z</time>
</trkpt>
<trkpt lat="-26.7506199" lon="152.9646266">
<ele>48.655</ele>
<time>2016-10-05T01:17:17.808Z</time>
</trkpt>
<trkpt lat="-26.7502634" lon="152.9648544">
<ele>50.702</ele>
<time>2016-10-05T01:17:20.793Z</time>
</trkpt>
<trkpt lat="-26.7499202" lon="152.9652680">
<ele>52.606</ele>
<time>2016-10-05T01:17:24.112Z</time>
</trkpt>
<trkpt lat="-26.7494173" lon="152.9654791">
<ele>55.041</ele>
<time>2016-10-05T01:17:27.198Z</time>
</trkpt>
<trkpt lat="-26.7488612" lon="152.9655906">
<ele>57.724</ele>
<time>2016-10-05T01:17:30.240Z</time>
</trkpt>
<trkpt lat="-26.7485236" lon="152.9656510">
<ele>59.969</ele>
<time>2016-10-05T01:17:32.071Z</time>
</trkpt>
<trkpt lat="-26.7481331" lon="152.9657151">
<ele>61.254</ele>
<time>2016-10-05T01:17:34.169Z</time>
</trkpt>
<trkpt lat="-26.7477627" lon="152.9657683">
<ele>61.588</ele>
<time>2016-10-05T01:17:36.177Z</time>
</trkpt>
<trkpt lat="-26.7472573" lon="152.9658900">
<ele>61.689</ele>
<time>2016-10-05T01:17:39.041Z</time>
</trkpt>
<trkpt lat="-26.7467571" lon="152.9660763">
<ele>62.590</ele>
<time>2016-10-05T01:17:42.059Z</time>
</trkpt>
<trkpt lat="-26.7462580" lon="152.9662494">
<ele>65.020</ele>
<time>2016-10-05T01:17:45.074Z</time>
</trkpt>
<trkpt lat="-26.7459165" lon="152.9663227">
<ele>68.684</ele>
<time>2016-10-05T01:17:47.051Z</time>
</trkpt>
<trkpt lat="-26.7453654" lon="152.9662571">
<ele>72.439</ele>
<time>2016-10-05T01:17:50.132Z</time>
</trkpt>
<trkpt lat="-26.7450343" lon="152.9660867">
<ele>75.537</ele>
<time>2016-10-05T01:17:52.132Z</time>
</trkpt>
<trkpt lat="-26.7445984" lon="152.9657203">
<ele>77.960</ele>
<time>2016-10-05T01:17:55.163Z</time>
</trkpt>
<trkpt lat="-26.7442615" lon="152.9655947">
<ele>79.995</ele>
<time>2016-10-05T01:17:57.240Z</time>
</trkpt>
<trkpt lat="-26.7437885" lon="152.9655470">
<ele>82.073</ele>
<time>2016-10-05T01:18:00.144Z</time>
</trkpt>
<trkpt lat="-26.7434730" lon="152.9656756">
<ele>84.133</ele>
<time>2016-10-05T01:18:02.235Z</time>
</trkpt>
<trkpt lat="-26.7430173" lon="152.9659184">
<ele>85.912</ele>
<time>2016-10-05T01:18:05.345Z</time>
</trkpt>
<trkpt lat="-26.7426546" lon="152.9662403">
<ele>88.047</ele>
<time>2016-10-05T01:18:08.432Z</time>
</trkpt>
<trkpt lat="-26.7423996" lon="152.9665062">
<ele>90.625</ele>
<time>2016-10-05T01:18:11.325Z</time>
</trkpt>
<trkpt lat="-26.7422093" lon="152.9665633">
<ele>92.519</ele>
<time>2016-10-05T01:18:13.475Z</time>
</trkpt>
<trkpt lat="-26.7419851" lon="152.9664562">
<ele>93.092</ele>
<time>2016-10-05T01:18:16.251Z</time>
</trkpt>
<trkpt lat="-26.7419621" lon="152.9659687">
<ele>92.818</ele>
<time>2016-10-05T01:18:19.822Z</time>
</trkpt>
<trkpt lat="-26.7418270" lon="152.9656234">
<ele>92.370</ele>
<time>2016-10-05T01:18:22.025Z</time>
</trkpt>
<trkpt lat="-26.7415884" lon="152.9651721">
<ele>92.020</ele>
<time>2016-10-05T01:18:25.668Z</time>
</trkpt>
<trkpt lat="-26.7414242" lon="152.9649859">
<ele>91.210</ele>
<time>2016-10-05T01:18:28.045Z</time>
</trkpt>
<trkpt lat="-26.7411467" lon="152.9649808">
<ele>89.489</ele>
<time>2016-10-05T01:18:30.972Z</time>
</trkpt>
<trkpt lat="-26.7410235" lon="152.9654587">
<ele>87.599</ele>
<time>2016-10-05T01:18:34.795Z</time>
</trkpt>
<trkpt lat="-26.7409276" lon="152.9658935">
<ele>86.923</ele>
<time>2016-10-05T01:18:38.838Z</time>
</trkpt>
<trkpt lat="-26.7408214" lon="152.9660795">
<ele>87.700</ele>
<time>2016-10-05T01:18:41.170Z</time>
</trkpt>
<trkpt lat="-26.7406451" lon="152.9661549">
<ele>88.879</ele>
<time>2016-10-05T01:18:43.040Z</time>
</trkpt>
<trkpt lat="-26.7404532" lon="152.9658207">
<ele>89.705</ele>
<time>2016-10-05T01:18:45.749Z</time>
</trkpt>
<trkpt lat="-26.7405133" lon="152.9654624">
<ele>90.723</ele>
<time>2016-10-05T01:18:47.945Z</time>
</trkpt>
<trkpt lat="-26.7405457" lon="152.9649573">
<ele>92.712</ele>
<time>2016-10-05T01:18:50.647Z</time>
</trkpt>
<trkpt lat="-26.7404371" lon="152.9645918">
<ele>95.669</ele>
<time>2016-10-05T01:18:52.692Z</time>
</trkpt>
<trkpt lat="-26.7403090" lon="152.9642147">
<ele>99.044</ele>
<time>2016-10-05T01:18:54.888Z</time>
</trkpt>
<trkpt lat="-26.7401273" lon="152.9637511">
<ele>102.322</ele>
<time>2016-10-05T01:18:57.701Z</time>
</trkpt>
<trkpt lat="-26.7397860" lon="152.9633749">
<ele>105.441</ele>
<time>2016-10-05T01:19:00.588Z</time>
</trkpt>
<trkpt lat="-26.7393539" lon="152.9630660">
<ele>108.910</ele>
<time>2016-10-05T01:19:03.601Z</time>
</trkpt>
<trkpt lat="-26.7390422" lon="152.9629271">
<ele>112.462</ele>
<time>2016-10-05T01:19:05.497Z</time>
</trkpt>
<trkpt lat="-26.7386992" lon="152.9628245">
<ele>114.826</ele>
<time>2016-10-05T01:19:07.484Z</time>
</trkpt>
<trkpt lat="-26.7381648" lon="152.9627967">
<ele>114.939</ele>
<time>2016-10-05T01:19:10.460Z</time>
</trkpt>
<trkpt lat="-26.7378243" lon="152.9628463">
<ele>112.239</ele>
<time>2016-10-05T01:19:12.330Z</time>
</trkpt>
<trkpt lat="-26.7374665" lon="152.9629718">
<ele>107.320</ele>
<time>2016-10-05T01:19:14.352Z</time>
</trkpt>
<trkpt lat="-26.7369325" lon="152.9631631">
<ele>101.708</ele>
<time>2016-10-05T01:19:17.409Z</time>
</trkpt>
<trkpt lat="-26.7365771" lon="152.9631279">
<ele>95.748</ele>
<time>2016-10-05T01:19:19.381Z</time>
</trkpt>
<trkpt lat="-26.7361043" lon="152.9628728">
<ele>89.299</ele>
<time>2016-10-05T01:19:22.209Z</time>
</trkpt>
<trkpt lat="-26.7356915" lon="152.9623848">
<ele>82.463</ele>
<time>2016-10-05T01:19:25.369Z</time>
</trkpt>
<trkpt lat="-26.7354088" lon="152.9618697">
<ele>74.889</ele>
<time>2016-10-05T01:19:28.349Z</time>
</trkpt>
<trkpt lat="-26.7351823" lon="152.9613495">
<ele>67.197</ele>
<time>2016-10-05T01:19:31.347Z</time>
</trkpt>
<trkpt lat="-26.7349263" lon="152.9609197">
<ele>61.290</ele>
<time>2016-10-05T01:19:34.143Z</time>
</trkpt>
<trkpt lat="-26.7347345" lon="152.9606369">
<ele>57.657</ele>
<time>2016-10-05T01:19:36.136Z</time>
</trkpt>
<trkpt lat="-26.7345467" lon="152.9604105">
<ele>55.397</ele>
<time>2016-10-05T01:19:37.868Z</time>
</trkpt>
<trkpt lat="-26.7343154" lon="152.9601996">
<ele>53.970</ele>
<time>2016-10-05T01:19:39.698Z</time>
</trkpt>
<trkpt lat="-26.7340176" lon="152.9600400">
<ele>53.103</ele>
<time>2016-10-05T01:19:41.666Z</time>
</trkpt>
<trkpt lat="-26.7336949" lon="152.9599518">
<ele>52.195</ele>
<time>2016-10-05T01:19:43.615Z</time>
</trkpt>
<trkpt lat="-26.7331897" lon="152.9599330">
<ele>50.990</ele>
<time>2016-10-05T01:19:46.564Z</time>
</trkpt>
<trkpt lat="-26.7328547" lon="152.9599034">
<ele>49.684</ele>
<time>2016-10-05T01:19:48.531Z</time>
</trkpt>
<trkpt lat="-26.7323376" lon="152.9598617">
<ele>48.451</ele>
<time>2016-10-05T01:19:51.568Z</time>
</trkpt>
<trkpt lat="-26.7319959" lon="152.9597807">
<ele>47.210</ele>
<time>2016-10-05T01:19:53.639Z</time>
</trkpt>
<trkpt lat="-26.7316744" lon="152.9597714">
<ele>45.790</ele>
<time>2016-10-05T01:19:55.588Z</time>
</trkpt>
<trkpt lat="-26.7313527" lon="152.9597288">
<ele>44.180</ele>
<time>2016-10-05T01:19:57.596Z</time>
</trkpt>
<trkpt lat="-26.7310566" lon="152.9597320">
<ele>42.539</ele>
<time>2016-10-05T01:19:59.473Z</time>
</trkpt>
<trkpt lat="-26.7307431" lon="152.9597182">
<ele>41.011</ele>
<time>2016-10-05T01:20:01.498Z</time>
</trkpt>
<trkpt lat="-26.7302771" lon="152.9597212">
<ele>39.770</ele>
<time>2016-10-05T01:20:04.621Z</time>
</trkpt>
<trkpt lat="-26.7299850" lon="152.9597387">
<ele>38.875</ele>
<time>2016-10-05T01:20:06.752Z</time>
</trkpt>
<trkpt lat="-26.7297310" lon="152.9596717">
<ele>38.109</ele>
<time>2016-10-05T01:20:08.735Z</time>
</trkpt>
<trkpt lat="-26.7293722" lon="152.9595580">
<ele>37.034</ele>
<time>2016-10-05T01:20:11.532Z</time>
</trkpt>
<trkpt lat="-26.7290058" lon="152.9594143">
<ele>35.326</ele>
<time>2016-10-05T01:20:14.237Z</time>
</trkpt>
<trkpt lat="-26.7285626" lon="152.9593088">
<ele>33.383</ele>
<time>2016-10-05T01:20:17.164Z</time>
</trkpt>
<trkpt lat="-26.7282410" lon="152.9592840">
<ele>31.494</ele>
<time>2016-10-05T01:20:19.183Z</time>
</trkpt>
<trkpt lat="-26.7279242" lon="152.9592783">
<ele>29.178</ele>
<time>2016-10-05T01:20:21.265Z</time>
</trkpt>
<trkpt lat="-26.7274873" lon="152.9592350">
<ele>26.288</ele>
<time>2016-10-05T01:20:24.375Z</time>
</trkpt>
<trkpt lat="-26.7272413" lon="152.9591540">
<ele>23.233</ele>
<time>2016-10-05T01:20:26.390Z</time>
</trkpt>
<trkpt lat="-26.7269430" lon="152.9589771">
<ele>20.498</ele>
<time>2016-10-05T01:20:29.210Z</time>
</trkpt>
<trkpt lat="-26.7267540" lon="152.9588351">
<ele>18.659</ele>
<time>2016-10-05T01:20:31.196Z</time>
</trkpt>
<trkpt lat="-26.7265867" lon="152.9586753">
<ele>17.781</ele>
<time>2016-10-05T01:20:33.120Z</time>
</trkpt>
<trkpt lat="-26.7264624" lon="152.9584657">
<ele>17.428</ele>
<time>2016-10-05T01:20:35.072Z</time>
</trkpt>
<trkpt lat="-26.7263249" lon="152.9582695">
<ele>17.296</ele>
<time>2016-10-05T01:20:37.097Z</time>
</trkpt>
<trkpt lat="-26.7261174" lon="152.9580173">
<ele>17.241</ele>
<time>2016-10-05T01:20:40.222Z</time>
</trkpt>
<trkpt lat="-26.7259714" lon="152.9579138">
<ele>17.211</ele>
<time>2016-10-05T01:20:42.369Z</time>
</trkpt>
<trkpt lat="-26.7258549" lon="152.9578685">
<ele>17.135</ele>
<time>2016-10-05T01:20:43.805Z</time>
</trkpt>
<trkpt lat="-26.7256253" lon="152.9581624">
<ele>16.981</ele>
<time>2016-10-05T01:20:47.016Z</time>
</trkpt>
<trkpt lat="-26.7253505" lon="152.9585241">
<ele>16.896</ele>
<time>2016-10-05T01:20:50.073Z</time>
</trkpt>
<trkpt lat="-26.7251373" lon="152.9587305">
<ele>17.139</ele>
<time>2016-10-05T01:20:52.001Z</time>
</trkpt>
<trkpt lat="-26.7248338" lon="152.9590947">
<ele>17.770</ele>
<time>2016-10-05T01:20:55.092Z</time>
</trkpt>
<trkpt lat="-26.7245134" lon="152.9593987">
<ele>18.398</ele>
<time>2016-10-05T01:20:58.077Z</time>
</trkpt>
<trkpt lat="-26.7242356" lon="152.9594751">
<ele>18.586</ele>
<time>2016-10-05T01:21:00.122Z</time>
</trkpt>
<trkpt lat="-26.7239610" lon="152.9595423">
<ele>18.407</ele>
<time>2016-10-05T01:21:02.110Z</time>
</trkpt>
<trkpt lat="-26.7235374" lon="152.9593946">
<ele>18.225</ele>
<time>2016-10-05T01:21:05.235Z</time>
</trkpt>
<trkpt lat="-26.7233144" lon="152.9592224">
<ele>18.199</ele>
<time>2016-10-05T01:21:07.115Z</time>
</trkpt>
<trkpt lat="-26.7230319" lon="152.9588732">
<ele>18.212</ele>
<time>2016-10-05T01:21:10.030Z</time>
</trkpt>
<trkpt lat="-26.7228097" lon="152.9584761">
<ele>18.135</ele>
<time>2016-10-05T01:21:13.011Z</time>
</trkpt>
<trkpt lat="-26.7226744" lon="152.9582344">
<ele>18.104</ele>
<time>2016-10-05T01:21:14.983Z</time>
</trkpt>
<trkpt lat="-26.7224259" lon="152.9579174">
<ele>18.322</ele>
<time>2016-10-05T01:21:17.996Z</time>
</trkpt>
<trkpt lat="-26.7221862" lon="152.9578064">
<ele>18.851</ele>
<time>2016-10-05T01:21:19.983Z</time>
</trkpt>
<trkpt lat="-26.7217689" lon="152.9577537">
<ele>19.578</ele>
<time>2016-10-05T01:21:22.982Z</time>
</trkpt>
<trkpt lat="-26.7213132" lon="152.9577143">
<ele>20.542</ele>
<time>2016-10-05T01:21:26.026Z</time>
</trkpt>
<trkpt lat="-26.7210128" lon="152.9576166">
<ele>21.898</ele>
<time>2016-10-05T01:21:28.052Z</time>
</trkpt>
<trkpt lat="-26.7206034" lon="152.9573932">
<ele>23.516</ele>
<time>2016-10-05T01:21:30.990Z</time>
</trkpt>
<trkpt lat="-26.7201895" lon="152.9571418">
<ele>24.944</ele>
<time>2016-10-05T01:21:33.981Z</time>
</trkpt>
<trkpt lat="-26.7199161" lon="152.9569762">
<ele>25.819</ele>
<time>2016-10-05T01:21:35.962Z</time>
</trkpt>
<trkpt lat="-26.7194829" lon="152.9568325">
<ele>25.911</ele>
<time>2016-10-05T01:21:38.811Z</time>
</trkpt>
<trkpt lat="-26.7189915" lon="152.9568982">
<ele>25.384</ele>
<time>2016-10-05T01:21:41.880Z</time>
</trkpt>
<trkpt lat="-26.7187152" lon="152.9573650">
<ele>24.770</ele>
<time>2016-10-05T01:21:45.001Z</time>
</trkpt>
<trkpt lat="-26.7185024" lon="152.9576441">
<ele>24.453</ele>
<time>2016-10-05T01:21:47.146Z</time>
</trkpt>
<trkpt lat="-26.7182715" lon="152.9578282">
<ele>24.012</ele>
<time>2016-10-05T01:21:49.077Z</time>
</trkpt>
<trkpt lat="-26.7178615" lon="152.9579400">
<ele>23.071</ele>
<time>2016-10-05T01:21:51.873Z</time>
</trkpt>
<trkpt lat="-26.7173917" lon="152.9579364">
<ele>22.435</ele>
<time>2016-10-05T01:21:54.844Z</time>
</trkpt>
<trkpt lat="-26.7170714" lon="152.9579938">
<ele>24.000</ele>
<time>2016-10-05T01:21:56.809Z</time>
</trkpt>
<trkpt lat="-26.7165619" lon="152.9581343">
<ele>28.377</ele>
<time>2016-10-05T01:22:00.023Z</time>
</trkpt>
<trkpt lat="-26.7161530" lon="152.9583443">
<ele>33.701</ele>
<time>2016-10-05T01:22:02.870Z</time>
</trkpt>
<trkpt lat="-26.7158652" lon="152.9584565">
<ele>38.454</ele>
<time>2016-10-05T01:22:04.782Z</time>
</trkpt>
<trkpt lat="-26.7154067" lon="152.9586316">
<ele>42.421</ele>
<time>2016-10-05T01:22:07.694Z</time>
</trkpt>
<trkpt lat="-26.7149125" lon="152.9588350">
<ele>44.407</ele>
<time>2016-10-05T01:22:10.646Z</time>
</trkpt>
<trkpt lat="-26.7143692" lon="152.9590091">
<ele>43.282</ele>
<time>2016-10-05T01:22:13.655Z</time>
</trkpt>
<trkpt lat="-26.7139889" lon="152.9591030">
<ele>40.101</ele>
<time>2016-10-05T01:22:15.678Z</time>
</trkpt>
<trkpt lat="-26.7134249" lon="152.9592097">
<ele>36.395</ele>
<time>2016-10-05T01:22:18.640Z</time>
</trkpt>
<trkpt lat="-26.7130461" lon="152.9592843">
<ele>32.384</ele>
<time>2016-10-05T01:22:20.625Z</time>
</trkpt>
<trkpt lat="-26.7126642" lon="152.9593143">
<ele>28.390</ele>
<time>2016-10-05T01:22:22.604Z</time>
</trkpt>
<trkpt lat="-26.7123017" lon="152.9593178">
<ele>25.518</ele>
<time>2016-10-05T01:22:24.478Z</time>
</trkpt>
<trkpt lat="-26.7119188" lon="152.9593128">
<ele>24.080</ele>
<time>2016-10-05T01:22:26.481Z</time>
</trkpt>
<trkpt lat="-26.7113629" lon="152.9592413">
<ele>23.537</ele>
<time>2016-10-05T01:22:29.436Z</time>
</trkpt>
<trkpt lat="-26.7107950" lon="152.9591824">
<ele>23.359</ele>
<time>2016-10-05T01:22:32.436Z</time>
</trkpt>
<trkpt lat="-26.7102135" lon="152.9591087">
<ele>23.241</ele>
<time>2016-10-05T01:22:35.461Z</time>
</trkpt>
<trkpt lat="-26.7098181" lon="152.9590968">
<ele>23.139</ele>
<time>2016-10-05T01:22:37.545Z</time>
</trkpt>
<trkpt lat="-26.7093078" lon="152.9590584">
<ele>23.062</ele>
<time>2016-10-05T01:22:40.382Z</time>
</trkpt>
<trkpt lat="-26.7089785" lon="152.9591411">
<ele>22.980</ele>
<time>2016-10-05T01:22:42.396Z</time>
</trkpt>
<trkpt lat="-26.7086643" lon="152.9594247">
<ele>22.925</ele>
<time>2016-10-05T01:22:44.740Z</time>
</trkpt>
<trkpt lat="-26.7083888" lon="152.9597118">
<ele>23.062</ele>
<time>2016-10-05T01:22:46.767Z</time>
</trkpt>
<trkpt lat="-26.7081251" lon="152.9600644">
<ele>23.586</ele>
<time>2016-10-05T01:22:48.855Z</time>
</trkpt>
<trkpt lat="-26.7078629" lon="152.9604193">
<ele>24.467</ele>
<time>2016-10-05T01:22:50.904Z</time>
</trkpt>
<trkpt lat="-26.7076312" lon="152.9607638">
<ele>25.363</ele>
<time>2016-10-05T01:22:52.830Z</time>
</trkpt>
<trkpt lat="-26.7073392" lon="152.9610653">
<ele>25.915</ele>
<time>2016-10-05T01:22:54.762Z</time>
</trkpt>
<trkpt lat="-26.7069977" lon="152.9613646">
<ele>26.140</ele>
<time>2016-10-05T01:22:56.774Z</time>
</trkpt>
<trkpt lat="-26.7063743" lon="152.9615265">
<ele>26.273</ele>
<time>2016-10-05T01:22:59.710Z</time>
</trkpt>
<trkpt lat="-26.7059519" lon="152.9615765">
<ele>26.320</ele>
<time>2016-10-05T01:23:01.711Z</time>
</trkpt>
<trkpt lat="-26.7053554" lon="152.9617303">
<ele>25.937</ele>
<time>2016-10-05T01:23:04.668Z</time>
</trkpt>
<trkpt lat="-26.7049659" lon="152.9618085">
<ele>25.060</ele>
<time>2016-10-05T01:23:06.678Z</time>
</trkpt>
<trkpt lat="-26.7045912" lon="152.9618315">
<ele>24.534</ele>
<time>2016-10-05T01:23:08.638Z</time>
</trkpt>
<trkpt lat="-26.7042137" lon="152.9618504">
<ele>24.983</ele>
<time>2016-10-05T01:23:10.583Z</time>
</trkpt>
<trkpt lat="-26.7036220" lon="152.9619402">
<ele>25.829</ele>
<time>2016-10-05T01:23:13.555Z</time>
</trkpt>
<trkpt lat="-26.7031923" lon="152.9619859">
<ele>26.002</ele>
<time>2016-10-05T01:23:15.615Z</time>
</trkpt>
<trkpt lat="-26.7025863" lon="152.9620074">
<ele>25.217</ele>
<time>2016-10-05T01:23:18.545Z</time>
</trkpt>
<trkpt lat="-26.7019875" lon="152.9620176">
<ele>24.248</ele>
<time>2016-10-05T01:23:21.527Z</time>
</trkpt>
<trkpt lat="-26.7015939" lon="152.9620116">
<ele>24.396</ele>
<time>2016-10-05T01:23:23.549Z</time>
</trkpt>
<trkpt lat="-26.7012169" lon="152.9620100">
<ele>26.075</ele>
<time>2016-10-05T01:23:25.538Z</time>
</trkpt>
<trkpt lat="-26.7006699" lon="152.9619947">
<ele>28.444</ele>
<time>2016-10-05T01:23:28.476Z</time>
</trkpt>
<trkpt lat="-26.7003061" lon="152.9619577">
<ele>30.400</ele>
<time>2016-10-05T01:23:30.469Z</time>
</trkpt>
<trkpt lat="-26.6999516" lon="152.9619334">
<ele>31.659</ele>
<time>2016-10-05T01:23:32.371Z</time>
</trkpt>
<trkpt lat="-26.6995526" lon="152.9618656">
<ele>32.584</ele>
<time>2016-10-05T01:23:34.483Z</time>
</trkpt>
<trkpt lat="-26.6989848" lon="152.9617059">
<ele>33.475</ele>
<time>2016-10-05T01:23:37.516Z</time>
</trkpt>
<trkpt lat="-26.6986542" lon="152.9614213">
<ele>34.124</ele>
<time>2016-10-05T01:23:39.573Z</time>
</trkpt>
<trkpt lat="-26.6982557" lon="152.9608539">
<ele>34.390</ele>
<time>2016-10-05T01:23:42.645Z</time>
</trkpt>
<trkpt lat="-26.6979855" lon="152.9604975">
<ele>34.545</ele>
<time>2016-10-05T01:23:44.672Z</time>
</trkpt>
<trkpt lat="-26.6977302" lon="152.9602068">
<ele>34.842</ele>
<time>2016-10-05T01:23:46.562Z</time>
</trkpt>
<trkpt lat="-26.6972810" lon="152.9598772">
<ele>35.160</ele>
<time>2016-10-05T01:23:49.445Z</time>
</trkpt>
<trkpt lat="-26.6967751" lon="152.9596841">
<ele>35.554</ele>
<time>2016-10-05T01:23:52.402Z</time>
</trkpt>
<trkpt lat="-26.6962710" lon="152.9595821">
<ele>36.428</ele>
<time>2016-10-05T01:23:55.272Z</time>
</trkpt>
<trkpt lat="-26.6959223" lon="152.9595492">
<ele>37.635</ele>
<time>2016-10-05T01:23:57.182Z</time>
</trkpt>
<trkpt lat="-26.6953486" lon="152.9598138">
<ele>38.253</ele>
<time>2016-10-05T01:24:00.494Z</time>
</trkpt>
<trkpt lat="-26.6950187" lon="152.9599363">
<ele>37.755</ele>
<time>2016-10-05T01:24:02.367Z</time>
</trkpt>
<trkpt lat="-26.6945154" lon="152.9601528">
<ele>36.686</ele>
<time>2016-10-05T01:24:05.257Z</time>
</trkpt>
<trkpt lat="-26.6940119" lon="152.9604871">
<ele>35.450</ele>
<time>2016-10-05T01:24:08.371Z</time>
</trkpt>
<trkpt lat="-26.6937125" lon="152.9606986">
<ele>34.011</ele>
<time>2016-10-05T01:24:10.421Z</time>
</trkpt>
<trkpt lat="-26.6933249" lon="152.9609709">
<ele>32.609</ele>
<time>2016-10-05T01:24:13.290Z</time>
</trkpt>
<trkpt lat="-26.6929682" lon="152.9612383">
<ele>31.258</ele>
<time>2016-10-05T01:24:16.167Z</time>
</trkpt>
<trkpt lat="-26.6926135" lon="152.9615319">
<ele>29.592</ele>
<time>2016-10-05T01:24:19.171Z</time>
</trkpt>
<trkpt lat="-26.6924181" lon="152.9617611">
<ele>27.874</ele>
<time>2016-10-05T01:24:21.162Z</time>
</trkpt>
<trkpt lat="-26.6922597" lon="152.9619750">
<ele>26.827</ele>
<time>2016-10-05T01:24:23.036Z</time>
</trkpt>
<trkpt lat="-26.6921655" lon="152.9622157">
<ele>26.888</ele>
<time>2016-10-05T01:24:24.926Z</time>
</trkpt>
<trkpt lat="-26.6920718" lon="152.9626098">
<ele>28.042</ele>
<time>2016-10-05T01:24:28.030Z</time>
</trkpt>
<trkpt lat="-26.6919943" lon="152.9629192">
<ele>29.927</ele>
<time>2016-10-05T01:24:30.846Z</time>
</trkpt>
<trkpt lat="-26.6919569" lon="152.9630639">
<ele>31.750</ele>
<time>2016-10-05T01:24:32.713Z</time>
</trkpt>
<trkpt lat="-26.6918925" lon="152.9631787">
<ele>32.641</ele>
<time>2016-10-05T01:24:35.000Z</time>
</trkpt>
<trkpt lat="-26.6918925" lon="152.9631787">
<ele>32.477</ele>
<time>2016-10-05T01:24:39.000Z</time>
</trkpt>
<trkpt lat="-26.6918925" lon="152.9631787">
<ele>32.054</ele>
<time>2016-10-05T01:24:39.690Z</time>
</trkpt>
<trkpt lat="-26.6916867" lon="152.9631859">
<ele>32.036</ele>
<time>2016-10-05T01:24:44.013Z</time>
</trkpt>
<trkpt lat="-26.6913247" lon="152.9629544">
<ele>32.482</ele>
<time>2016-10-05T01:24:47.707Z</time>
</trkpt>
<trkpt lat="-26.6910936" lon="152.9628478">
<ele>33.238</ele>
<time>2016-10-05T01:24:49.660Z</time>
</trkpt>
<trkpt lat="-26.6908291" lon="152.9628398">
<ele>33.993</ele>
<time>2016-10-05T01:24:51.623Z</time>
</trkpt>
<trkpt lat="-26.6905519" lon="152.9629026">
<ele>34.423</ele>
<time>2016-10-05T01:24:53.602Z</time>
</trkpt>
<trkpt lat="-26.6901201" lon="152.9629806">
<ele>34.621</ele>
<time>2016-10-05T01:24:56.668Z</time>
</trkpt>
<trkpt lat="-26.6898586" lon="152.9630243">
<ele>34.942</ele>
<time>2016-10-05T01:24:58.590Z</time>
</trkpt>
<trkpt lat="-26.6894550" lon="152.9631116">
<ele>35.457</ele>
<time>2016-10-05T01:25:01.654Z</time>
</trkpt>
<trkpt lat="-26.6892013" lon="152.9631642">
<ele>35.882</ele>
<time>2016-10-05T01:25:03.744Z</time>
</trkpt>
<trkpt lat="-26.6888667" lon="152.9631406">
<ele>36.091</ele>
<time>2016-10-05T01:25:06.523Z</time>
</trkpt>
<trkpt lat="-26.6885202" lon="152.9630279">
<ele>36.358</ele>
<time>2016-10-05T01:25:09.478Z</time>
</trkpt>
<trkpt lat="-26.6882941" lon="152.9629394">
<ele>36.839</ele>
<time>2016-10-05T01:25:11.426Z</time>
</trkpt>
<trkpt lat="-26.6879726" lon="152.9628311">
<ele>37.128</ele>
<time>2016-10-05T01:25:14.194Z</time>
</trkpt>
<trkpt lat="-26.6877169" lon="152.9625327">
<ele>36.549</ele>
<time>2016-10-05T01:25:17.189Z</time>
</trkpt>
<trkpt lat="-26.6876447" lon="152.9622038">
<ele>34.924</ele>
<time>2016-10-05T01:25:19.359Z</time>
</trkpt>
<trkpt lat="-26.6874659" lon="152.9617831">
<ele>32.722</ele>
<time>2016-10-05T01:25:22.178Z</time>
</trkpt>
<trkpt lat="-26.6872764" lon="152.9613806">
<ele>30.391</ele>
<time>2016-10-05T01:25:24.884Z</time>
</trkpt>
<trkpt lat="-26.6871409" lon="152.9610877">
<ele>28.148</ele>
<time>2016-10-05T01:25:26.844Z</time>
</trkpt>
<trkpt lat="-26.6869243" lon="152.9606377">
<ele>26.020</ele>
<time>2016-10-05T01:25:29.857Z</time>
</trkpt>
<trkpt lat="-26.6867718" lon="152.9603663">
<ele>23.714</ele>
<time>2016-10-05T01:25:31.775Z</time>
</trkpt>
<trkpt lat="-26.6866164" lon="152.9600862">
<ele>21.324</ele>
<time>2016-10-05T01:25:33.905Z</time>
</trkpt>
<trkpt lat="-26.6864441" lon="152.9598889">
<ele>19.400</ele>
<time>2016-10-05T01:25:35.884Z</time>
</trkpt>
<trkpt lat="-26.6862720" lon="152.9597650">
<ele>18.164</ele>
<time>2016-10-05T01:25:37.631Z</time>
</trkpt>
<trkpt lat="-26.6859315" lon="152.9597354">
<ele>17.580</ele>
<time>2016-10-05T01:25:40.580Z</time>
</trkpt>
<trkpt lat="-26.6857039" lon="152.9597653">
<ele>17.480</ele>
<time>2016-10-05T01:25:42.585Z</time>
</trkpt>
<trkpt lat="-26.6854154" lon="152.9598365">
<ele>17.226</ele>
<time>2016-10-05T01:25:45.318Z</time>
</trkpt>
<trkpt lat="-26.6852431" lon="152.9599282">
<ele>16.176</ele>
<time>2016-10-05T01:25:47.444Z</time>
</trkpt>
<trkpt lat="-26.6851275" lon="152.9599492">
<ele>14.487</ele>
<time>2016-10-05T01:25:49.291Z</time>
</trkpt>
<trkpt lat="-26.6850313" lon="152.9599738">
<ele>12.849</ele>
<time>2016-10-05T01:25:52.082Z</time>
</trkpt>
<trkpt lat="-26.6849155" lon="152.9598442">
<ele>11.715</ele>
<time>2016-10-05T01:25:56.677Z</time>
</trkpt>
<trkpt lat="-26.6848692" lon="152.9597173">
<ele>11.226</ele>
<time>2016-10-05T01:26:00.041Z</time>
</trkpt>
<trkpt lat="-26.6849921" lon="152.9594977">
<ele>11.348</ele>
<time>2016-10-05T01:26:03.406Z</time>
</trkpt>
<trkpt lat="-26.6853113" lon="152.9594294">
<ele>12.095</ele>
<time>2016-10-05T01:26:07.212Z</time>
</trkpt>
<trkpt lat="-26.6855652" lon="152.9593366">
<ele>13.715</ele>
<time>2016-10-05T01:26:09.965Z</time>
</trkpt>
<trkpt lat="-26.6857213" lon="152.9592698">
<ele>16.058</ele>
<time>2016-10-05T01:26:11.712Z</time>
</trkpt>
<trkpt lat="-26.6858634" lon="152.9591829">
<ele>18.457</ele>
<time>2016-10-05T01:26:13.517Z</time>
</trkpt>
<trkpt lat="-26.6860856" lon="152.9589701">
<ele>20.575</ele>
<time>2016-10-05T01:26:16.817Z</time>
</trkpt>
<trkpt lat="-26.6862770" lon="152.9588047">
<ele>22.679</ele>
<time>2016-10-05T01:26:19.517Z</time>
</trkpt>
<trkpt lat="-26.6865207" lon="152.9586263">
<ele>24.950</ele>
<time>2016-10-05T01:26:22.633Z</time>
</trkpt>
<trkpt lat="-26.6866661" lon="152.9584650">
<ele>27.202</ele>
<time>2016-10-05T01:26:24.695Z</time>
</trkpt>
<trkpt lat="-26.6868263" lon="152.9582294">
<ele>28.992</ele>
<time>2016-10-05T01:26:27.344Z</time>
</trkpt>
<trkpt lat="-26.6869040" lon="152.9580970">
<ele>29.870</ele>
<time>2016-10-05T01:26:28.825Z</time>
</trkpt>
<trkpt lat="-26.6869926" lon="152.9579546">
<ele>29.850</ele>
<time>2016-10-05T01:26:30.654Z</time>
</trkpt>
<trkpt lat="-26.6871195" lon="152.9576821">
<ele>29.471</ele>
<time>2016-10-05T01:26:33.900Z</time>
</trkpt>
<trkpt lat="-26.6871508" lon="152.9574158">
<ele>29.175</ele>
<time>2016-10-05T01:26:36.642Z</time>
</trkpt>
<trkpt lat="-26.6871576" lon="152.9572395">
<ele>28.987</ele>
<time>2016-10-05T01:26:38.470Z</time>
</trkpt>
<trkpt lat="-26.6872445" lon="152.9570745">
<ele>28.778</ele>
<time>2016-10-05T01:26:40.510Z</time>
</trkpt>
<trkpt lat="-26.6872278" lon="152.9569664">
<ele>28.257</ele>
<time>2016-10-05T01:26:41.830Z</time>
</trkpt>
<trkpt lat="-26.6872638" lon="152.9568035">
<ele>27.314</ele>
<time>2016-10-05T01:26:43.998Z</time>
</trkpt>
<trkpt lat="-26.6874013" lon="152.9564868">
<ele>26.413</ele>
<time>2016-10-05T01:26:53.385Z</time>
</trkpt>
<trkpt lat="-26.6875136" lon="152.9562605">
<ele>25.992</ele>
<time>2016-10-05T01:26:56.193Z</time>
</trkpt>
<trkpt lat="-26.6877110" lon="152.9560804">
<ele>25.694</ele>
<time>2016-10-05T01:26:58.398Z</time>
</trkpt>
<trkpt lat="-26.6879346" lon="152.9557161">
<ele>24.708</ele>
<time>2016-10-05T01:27:01.448Z</time>
</trkpt>
<trkpt lat="-26.6881684" lon="152.9552792">
<ele>22.444</ele>
<time>2016-10-05T01:27:04.718Z</time>
</trkpt>
<trkpt lat="-26.6883158" lon="152.9549761">
<ele>19.423</ele>
<time>2016-10-05T01:27:06.805Z</time>
</trkpt>
<trkpt lat="-26.6885343" lon="152.9545096">
<ele>16.994</ele>
<time>2016-10-05T01:27:09.828Z</time>
</trkpt>
<trkpt lat="-26.6887511" lon="152.9540502">
<ele>15.894</ele>
<time>2016-10-05T01:27:12.761Z</time>
</trkpt>
<trkpt lat="-26.6889082" lon="152.9537571">
<ele>15.742</ele>
<time>2016-10-05T01:27:14.686Z</time>
</trkpt>
<trkpt lat="-26.6891435" lon="152.9533182">
<ele>15.910</ele>
<time>2016-10-05T01:27:17.592Z</time>
</trkpt>
<trkpt lat="-26.6893112" lon="152.9530313">
<ele>16.595</ele>
<time>2016-10-05T01:27:19.539Z</time>
</trkpt>
<trkpt lat="-26.6894530" lon="152.9527149">
<ele>18.462</ele>
<time>2016-10-05T01:27:21.520Z</time>
</trkpt>
<trkpt lat="-26.6896611" lon="152.9522631">
<ele>21.322</ele>
<time>2016-10-05T01:27:24.359Z</time>
</trkpt>
<trkpt lat="-26.6897846" lon="152.9518279">
<ele>24.622</ele>
<time>2016-10-05T01:27:27.017Z</time>
</trkpt>
<trkpt lat="-26.6899239" lon="152.9514082">
<ele>27.839</ele>
<time>2016-10-05T01:27:29.810Z</time>
</trkpt>
<trkpt lat="-26.6900214" lon="152.9511141">
<ele>30.062</ele>
<time>2016-10-05T01:27:31.849Z</time>
</trkpt>
<trkpt lat="-26.6901016" lon="152.9508160">
<ele>30.915</ele>
<time>2016-10-05T01:27:33.840Z</time>
</trkpt>
<trkpt lat="-26.6902254" lon="152.9503575">
<ele>30.743</ele>
<time>2016-10-05T01:27:36.847Z</time>
</trkpt>
<trkpt lat="-26.6903199" lon="152.9500639">
<ele>29.904</ele>
<time>2016-10-05T01:27:38.779Z</time>
</trkpt>
<trkpt lat="-26.6904533" lon="152.9496046">
<ele>28.661</ele>
<time>2016-10-05T01:27:41.759Z</time>
</trkpt>
<trkpt lat="-26.6905418" lon="152.9492860">
<ele>27.345</ele>
<time>2016-10-05T01:27:43.818Z</time>
</trkpt>
<trkpt lat="-26.6906535" lon="152.9490157">
<ele>26.466</ele>
<time>2016-10-05T01:27:45.636Z</time>
</trkpt>
<trkpt lat="-26.6908170" lon="152.9486819">
<ele>26.386</ele>
<time>2016-10-05T01:27:47.997Z</time>
</trkpt>
<trkpt lat="-26.6909858" lon="152.9483486">
<ele>26.919</ele>
<time>2016-10-05T01:27:50.254Z</time>
</trkpt>
<trkpt lat="-26.6913610" lon="152.9478941">
<ele>27.831</ele>
<time>2016-10-05T01:27:53.476Z</time>
</trkpt>
<trkpt lat="-26.6916417" lon="152.9476315">
<ele>29.178</ele>
<time>2016-10-05T01:27:55.490Z</time>
</trkpt>
<trkpt lat="-26.6920674" lon="152.9473255">
<ele>30.798</ele>
<time>2016-10-05T01:27:58.240Z</time>
</trkpt>
<trkpt lat="-26.6923214" lon="152.9471654">
<ele>32.055</ele>
<time>2016-10-05T01:27:59.869Z</time>
</trkpt>
<trkpt lat="-26.6926574" lon="152.9470152">
<ele>32.584</ele>
<time>2016-10-05T01:28:02.099Z</time>
</trkpt>
<trkpt lat="-26.6928572" lon="152.9469338">
<ele>32.510</ele>
<time>2016-10-05T01:28:03.629Z</time>
</trkpt>
<trkpt lat="-26.6930178" lon="152.9467950">
<ele>32.152</ele>
<time>2016-10-05T01:28:05.105Z</time>
</trkpt>
<trkpt lat="-26.6932098" lon="152.9466272">
<ele>31.940</ele>
<time>2016-10-05T01:28:07.212Z</time>
</trkpt>
<trkpt lat="-26.6934245" lon="152.9464688">
<ele>32.328</ele>
<time>2016-10-05T01:28:09.515Z</time>
</trkpt>
<trkpt lat="-26.6937858" lon="152.9462531">
<ele>33.269</ele>
<time>2016-10-05T01:28:12.796Z</time>
</trkpt>
<trkpt lat="-26.6940010" lon="152.9461086">
<ele>34.148</ele>
<time>2016-10-05T01:28:14.691Z</time>
</trkpt>
<trkpt lat="-26.6943395" lon="152.9458852">
<ele>34.248</ele>
<time>2016-10-05T01:28:17.650Z</time>
</trkpt>
<trkpt lat="-26.6946357" lon="152.9456437">
<ele>33.012</ele>
<time>2016-10-05T01:28:20.415Z</time>
</trkpt>
<trkpt lat="-26.6948096" lon="152.9454964">
<ele>30.588</ele>
<time>2016-10-05T01:28:22.081Z</time>
</trkpt>
<trkpt lat="-26.6948884" lon="152.9452674">
<ele>27.951</ele>
<time>2016-10-05T01:28:23.766Z</time>
</trkpt>
<trkpt lat="-26.6950184" lon="152.9449600">
<ele>25.945</ele>
<time>2016-10-05T01:28:26.257Z</time>
</trkpt>
<trkpt lat="-26.6950515" lon="152.9447070">
<ele>24.629</ele>
<time>2016-10-05T01:28:28.278Z</time>
</trkpt>
<trkpt lat="-26.6950637" lon="152.9444706">
<ele>23.714</ele>
<time>2016-10-05T01:28:30.233Z</time>
</trkpt>
<trkpt lat="-26.6951234" lon="152.9440693">
<ele>23.149</ele>
<time>2016-10-05T01:28:33.578Z</time>
</trkpt>
<trkpt lat="-26.6951898" lon="152.9437740">
<ele>22.926</ele>
<time>2016-10-05T01:28:35.893Z</time>
</trkpt>
<trkpt lat="-26.6952524" lon="152.9434653">
<ele>22.831</ele>
<time>2016-10-05T01:28:38.182Z</time>
</trkpt>
<trkpt lat="-26.6953892" lon="152.9429940">
<ele>22.775</ele>
<time>2016-10-05T01:28:41.456Z</time>
</trkpt>
<trkpt lat="-26.6955259" lon="152.9425265">
<ele>22.588</ele>
<time>2016-10-05T01:28:44.467Z</time>
</trkpt>
<trkpt lat="-26.6955743" lon="152.9422164">
<ele>21.904</ele>
<time>2016-10-05T01:28:46.349Z</time>
</trkpt>
<trkpt lat="-26.6955664" lon="152.9417197">
<ele>20.830</ele>
<time>2016-10-05T01:28:49.325Z</time>
</trkpt>
<trkpt lat="-26.6955077" lon="152.9413953">
<ele>19.980</ele>
<time>2016-10-05T01:28:51.330Z</time>
</trkpt>
<trkpt lat="-26.6955240" lon="152.9409158">
<ele>19.639</ele>
<time>2016-10-05T01:28:54.241Z</time>
</trkpt>
<trkpt lat="-26.6956545" lon="152.9406147">
<ele>19.613</ele>
<time>2016-10-05T01:28:56.259Z</time>
</trkpt>
<trkpt lat="-26.6958918" lon="152.9403857">
<ele>20.098</ele>
<time>2016-10-05T01:28:58.358Z</time>
</trkpt>
<trkpt lat="-26.6961839" lon="152.9401625">
<ele>21.366</ele>
<time>2016-10-05T01:29:00.666Z</time>
</trkpt>
<trkpt lat="-26.6966624" lon="152.9398548">
<ele>22.925</ele>
<time>2016-10-05T01:29:04.041Z</time>
</trkpt>
<trkpt lat="-26.6970024" lon="152.9396323">
<ele>24.028</ele>
<time>2016-10-05T01:29:06.146Z</time>
</trkpt>
<trkpt lat="-26.6973457" lon="152.9394091">
<ele>24.510</ele>
<time>2016-10-05T01:29:08.185Z</time>
</trkpt>
<trkpt lat="-26.6976849" lon="152.9391876">
<ele>24.569</ele>
<time>2016-10-05T01:29:10.135Z</time>
</trkpt>
<trkpt lat="-26.6981824" lon="152.9388289">
<ele>24.484</ele>
<time>2016-10-05T01:29:13.072Z</time>
</trkpt>
<trkpt lat="-26.6985259" lon="152.9385303">
<ele>24.449</ele>
<time>2016-10-05T01:29:15.195Z</time>
</trkpt>
<trkpt lat="-26.6990070" lon="152.9380778">
<ele>24.534</ele>
<time>2016-10-05T01:29:18.173Z</time>
</trkpt>
<trkpt lat="-26.6994559" lon="152.9376311">
<ele>24.546</ele>
<time>2016-10-05T01:29:20.969Z</time>
</trkpt>
<trkpt lat="-26.6998600" lon="152.9371827">
<ele>24.330</ele>
<time>2016-10-05T01:29:23.708Z</time>
</trkpt>
<trkpt lat="-26.7001520" lon="152.9369004">
<ele>23.892</ele>
<time>2016-10-05T01:29:25.614Z</time>
</trkpt>
<trkpt lat="-26.7004402" lon="152.9365996">
<ele>23.233</ele>
<time>2016-10-05T01:29:27.577Z</time>
</trkpt>
<trkpt lat="-26.7008651" lon="152.9361764">
<ele>22.533</ele>
<time>2016-10-05T01:29:30.436Z</time>
</trkpt>
<trkpt lat="-26.7012913" lon="152.9357684">
<ele>22.476</ele>
<time>2016-10-05T01:29:33.302Z</time>
</trkpt>
<trkpt lat="-26.7016896" lon="152.9353804">
<ele>23.429</ele>
<time>2016-10-05T01:29:36.065Z</time>
</trkpt>
<trkpt lat="-26.7019631" lon="152.9351050">
<ele>24.755</ele>
<time>2016-10-05T01:29:38.015Z</time>
</trkpt>
<trkpt lat="-26.7022326" lon="152.9348025">
<ele>25.742</ele>
<time>2016-10-05T01:29:40.050Z</time>
</trkpt>
<trkpt lat="-26.7024821" lon="152.9344763">
<ele>26.592</ele>
<time>2016-10-05T01:29:42.080Z</time>
</trkpt>
<trkpt lat="-26.7027857" lon="152.9339271">
<ele>27.708</ele>
<time>2016-10-05T01:29:45.077Z</time>
</trkpt>
<trkpt lat="-26.7029276" lon="152.9335038">
<ele>29.038</ele>
<time>2016-10-05T01:29:47.126Z</time>
</trkpt>
<trkpt lat="-26.7030311" lon="152.9328772">
<ele>30.246</ele>
<time>2016-10-05T01:29:49.971Z</time>
</trkpt>
<trkpt lat="-26.7030449" lon="152.9324575">
<ele>31.014</ele>
<time>2016-10-05T01:29:51.831Z</time>
</trkpt>
<trkpt lat="-26.7030052" lon="152.9318749">
<ele>31.334</ele>
<time>2016-10-05T01:29:54.438Z</time>
</trkpt>
<trkpt lat="-26.7029459" lon="152.9312768">
<ele>31.623</ele>
<time>2016-10-05T01:29:57.216Z</time>
</trkpt>
<trkpt lat="-26.7028763" lon="152.9308457">
<ele>32.350</ele>
<time>2016-10-05T01:29:59.280Z</time>
</trkpt>
<trkpt lat="-26.7028368" lon="152.9304479">
<ele>33.970</ele>
<time>2016-10-05T01:30:01.202Z</time>
</trkpt>
<trkpt lat="-26.7027953" lon="152.9298485">
<ele>36.380</ele>
<time>2016-10-05T01:30:04.077Z</time>
</trkpt>
<trkpt lat="-26.7028119" lon="152.9294315">
<ele>38.956</ele>
<time>2016-10-05T01:30:06.055Z</time>
</trkpt>
<trkpt lat="-26.7030818" lon="152.9288108">
<ele>41.409</ele>
<time>2016-10-05T01:30:09.343Z</time>
</trkpt>
<trkpt lat="-26.7032760" lon="152.9284482">
<ele>43.941</ele>
<time>2016-10-05T01:30:11.334Z</time>
</trkpt>
<trkpt lat="-26.7034789" lon="152.9280930">
<ele>46.555</ele>
<time>2016-10-05T01:30:13.253Z</time>
</trkpt>
<trkpt lat="-26.7036503" lon="152.9277370">
<ele>49.264</ele>
<time>2016-10-05T01:30:15.070Z</time>
</trkpt>
<trkpt lat="-26.7038434" lon="152.9272166">
<ele>52.260</ele>
<time>2016-10-05T01:30:17.603Z</time>
</trkpt>
<trkpt lat="-26.7039473" lon="152.9266255">
<ele>55.819</ele>
<time>2016-10-05T01:30:20.411Z</time>
</trkpt>
<trkpt lat="-26.7039315" lon="152.9262405">
<ele>60.135</ele>
<time>2016-10-05T01:30:22.305Z</time>
</trkpt>
<trkpt lat="-26.7038717" lon="152.9256823">
<ele>64.780</ele>
<time>2016-10-05T01:30:25.095Z</time>
</trkpt>
<trkpt lat="-26.7038301" lon="152.9251994">
<ele>68.803</ele>
<time>2016-10-05T01:30:27.495Z</time>
</trkpt>
<trkpt lat="-26.7039705" lon="152.9248243">
<ele>71.739</ele>
<time>2016-10-05T01:30:29.555Z</time>
</trkpt>
<trkpt lat="-26.7042748" lon="152.9246050">
<ele>73.709</ele>
<time>2016-10-05T01:30:31.684Z</time>
</trkpt>
<trkpt lat="-26.7043610" lon="152.9243443">
<ele>75.187</ele>
<time>2016-10-05T01:30:33.236Z</time>
</trkpt>
<trkpt lat="-26.7043099" lon="152.9239284">
<ele>76.577</ele>
<time>2016-10-05T01:30:35.855Z</time>
</trkpt>
<trkpt lat="-26.7043385" lon="152.9236302">
<ele>78.030</ele>
<time>2016-10-05T01:30:37.896Z</time>
</trkpt>
<trkpt lat="-26.7044352" lon="152.9231681">
<ele>79.627</ele>
<time>2016-10-05T01:30:41.316Z</time>
</trkpt>
<trkpt lat="-26.7044955" lon="152.9227304">
<ele>81.429</ele>
<time>2016-10-05T01:30:44.552Z</time>
</trkpt>
<trkpt lat="-26.7044509" lon="152.9223891">
<ele>83.559</ele>
<time>2016-10-05T01:30:46.968Z</time>
</trkpt>
<trkpt lat="-26.7043101" lon="152.9220902">
<ele>85.884</ele>
<time>2016-10-05T01:30:49.134Z</time>
</trkpt>
<trkpt lat="-26.7043465" lon="152.9218297">
<ele>87.935</ele>
<time>2016-10-05T01:30:50.811Z</time>
</trkpt>
<trkpt lat="-26.7045980" lon="152.9215970">
<ele>89.606</ele>
<time>2016-10-05T01:30:53.124Z</time>
</trkpt>
<trkpt lat="-26.7045905" lon="152.9211035">
<ele>91.324</ele>
<time>2016-10-05T01:30:56.558Z</time>
</trkpt>
<trkpt lat="-26.7046044" lon="152.9207780">
<ele>93.664</ele>
<time>2016-10-05T01:30:59.017Z</time>
</trkpt>
<trkpt lat="-26.7046457" lon="152.9202985">
<ele>96.445</ele>
<time>2016-10-05T01:31:02.764Z</time>
</trkpt>
<trkpt lat="-26.7047196" lon="152.9199731">
<ele>99.071</ele>
<time>2016-10-05T01:31:05.190Z</time>
</trkpt>
<trkpt lat="-26.7048135" lon="152.9196255">
<ele>101.570</ele>
<time>2016-10-05T01:31:07.604Z</time>
</trkpt>
<trkpt lat="-26.7049926" lon="152.9190789">
<ele>104.224</ele>
<time>2016-10-05T01:31:11.268Z</time>
</trkpt>
<trkpt lat="-26.7050717" lon="152.9187303">
<ele>106.992</ele>
<time>2016-10-05T01:31:13.435Z</time>
</trkpt>
<trkpt lat="-26.7051218" lon="152.9181516">
<ele>109.610</ele>
<time>2016-10-05T01:31:16.661Z</time>
</trkpt>
<trkpt lat="-26.7051072" lon="152.9175892">
<ele>112.262</ele>
<time>2016-10-05T01:31:19.648Z</time>
</trkpt>
<trkpt lat="-26.7050515" lon="152.9170697">
<ele>115.139</ele>
<time>2016-10-05T01:31:22.413Z</time>
</trkpt>
<trkpt lat="-26.7049326" lon="152.9167324">
<ele>117.843</ele>
<time>2016-10-05T01:31:24.330Z</time>
</trkpt>
<trkpt lat="-26.7047013" lon="152.9164269">
<ele>120.032</ele>
<time>2016-10-05T01:31:26.465Z</time>
</trkpt>
<trkpt lat="-26.7047257" lon="152.9159598">
<ele>121.764</ele>
<time>2016-10-05T01:31:29.034Z</time>
</trkpt>
<trkpt lat="-26.7049345" lon="152.9155162">
<ele>123.597</ele>
<time>2016-10-05T01:31:31.999Z</time>
</trkpt>
<trkpt lat="-26.7050512" lon="152.9152239">
<ele>126.260</ele>
<time>2016-10-05T01:31:34.016Z</time>
</trkpt>
<trkpt lat="-26.7050415" lon="152.9148100">
<ele>129.228</ele>
<time>2016-10-05T01:31:36.685Z</time>
</trkpt>
<trkpt lat="-26.7050556" lon="152.9145552">
<ele>131.462</ele>
<time>2016-10-05T01:31:38.221Z</time>
</trkpt>
<trkpt lat="-26.7052620" lon="152.9141707">
<ele>132.759</ele>
<time>2016-10-05T01:31:40.874Z</time>
</trkpt>
<trkpt lat="-26.7054203" lon="152.9139024">
<ele>133.967</ele>
<time>2016-10-05T01:31:42.853Z</time>
</trkpt>
<trkpt lat="-26.7055527" lon="152.9136580">
<ele>135.969</ele>
<time>2016-10-05T01:31:44.715Z</time>
</trkpt>
<trkpt lat="-26.7056679" lon="152.9132155">
<ele>138.330</ele>
<time>2016-10-05T01:31:47.958Z</time>
</trkpt>
<trkpt lat="-26.7056838" lon="152.9128424">
<ele>140.234</ele>
<time>2016-10-05T01:31:50.516Z</time>
</trkpt>
<trkpt lat="-26.7054889" lon="152.9125308">
<ele>141.657</ele>
<time>2016-10-05T01:31:52.964Z</time>
</trkpt>
<trkpt lat="-26.7051980" lon="152.9124453">
<ele>142.767</ele>
<time>2016-10-05T01:31:55.144Z</time>
</trkpt>
<trkpt lat="-26.7050338" lon="152.9126734">
<ele>143.789</ele>
<time>2016-10-05T01:31:57.067Z</time>
</trkpt>
<trkpt lat="-26.7047638" lon="152.9128769">
<ele>145.119</ele>
<time>2016-10-05T01:31:59.639Z</time>
</trkpt>
<trkpt lat="-26.7045363" lon="152.9127640">
<ele>146.842</ele>
<time>2016-10-05T01:32:01.859Z</time>
</trkpt>
<trkpt lat="-26.7043882" lon="152.9126382">
<ele>148.525</ele>
<time>2016-10-05T01:32:03.632Z</time>
</trkpt>
<trkpt lat="-26.7042359" lon="152.9125995">
<ele>149.669</ele>
<time>2016-10-05T01:32:05.237Z</time>
</trkpt>
<trkpt lat="-26.7039154" lon="152.9128447">
<ele>150.400</ele>
<time>2016-10-05T01:32:09.278Z</time>
</trkpt>
<trkpt lat="-26.7037419" lon="152.9127850">
<ele>151.264</ele>
<time>2016-10-05T01:32:11.101Z</time>
</trkpt>
<trkpt lat="-26.7035603" lon="152.9125744">
<ele>152.518</ele>
<time>2016-10-05T01:32:13.967Z</time>
</trkpt>
<trkpt lat="-26.7032553" lon="152.9122665">
<ele>154.501</ele>
<time>2016-10-05T01:32:18.733Z</time>
</trkpt>
<trkpt lat="-26.7029794" lon="152.9119060">
<ele>157.360</ele>
<time>2016-10-05T01:32:23.134Z</time>
</trkpt>
<trkpt lat="-26.7027875" lon="152.9116729">
<ele>160.264</ele>
<time>2016-10-05T01:32:25.819Z</time>
</trkpt>
<trkpt lat="-26.7025854" lon="152.9114682">
<ele>162.346</ele>
<time>2016-10-05T01:32:28.071Z</time>
</trkpt>
<trkpt lat="-26.7024123" lon="152.9111847">
<ele>163.632</ele>
<time>2016-10-05T01:32:30.264Z</time>
</trkpt>
<trkpt lat="-26.7022975" lon="152.9108379">
<ele>164.726</ele>
<time>2016-10-05T01:32:32.597Z</time>
</trkpt>
<trkpt lat="-26.7021566" lon="152.9106511">
<ele>166.230</ele>
<time>2016-10-05T01:32:34.178Z</time>
</trkpt>
<trkpt lat="-26.7019108" lon="152.9104960">
<ele>168.086</ele>
<time>2016-10-05T01:32:36.381Z</time>
</trkpt>
<trkpt lat="-26.7016909" lon="152.9106623">
<ele>170.008</ele>
<time>2016-10-05T01:32:38.596Z</time>
</trkpt>
<trkpt lat="-26.7014580" lon="152.9108143">
<ele>171.862</ele>
<time>2016-10-05T01:32:41.020Z</time>
</trkpt>
<trkpt lat="-26.7011944" lon="152.9109368">
<ele>173.431</ele>
<time>2016-10-05T01:32:43.692Z</time>
</trkpt>
<trkpt lat="-26.7009445" lon="152.9110429">
<ele>174.672</ele>
<time>2016-10-05T01:32:46.344Z</time>
</trkpt>
<trkpt lat="-26.7006171" lon="152.9110130">
<ele>175.820</ele>
<time>2016-10-05T01:32:49.931Z</time>
</trkpt>
<trkpt lat="-26.7004333" lon="152.9108295">
<ele>177.167</ele>
<time>2016-10-05T01:32:52.028Z</time>
</trkpt>
<trkpt lat="-26.7001164" lon="152.9107347">
<ele>178.806</ele>
<time>2016-10-05T01:32:54.558Z</time>
</trkpt>
<trkpt lat="-26.6997779" lon="152.9106382">
<ele>180.545</ele>
<time>2016-10-05T01:32:57.387Z</time>
</trkpt>
<trkpt lat="-26.6994915" lon="152.9105501">
<ele>182.276</ele>
<time>2016-10-05T01:32:59.941Z</time>
</trkpt>
<trkpt lat="-26.6991753" lon="152.9107731">
<ele>183.828</ele>
<time>2016-10-05T01:33:03.173Z</time>
</trkpt>
<trkpt lat="-26.6993826" lon="152.9113057">
<ele>185.132</ele>
<time>2016-10-05T01:33:07.717Z</time>
</trkpt>
<trkpt lat="-26.6994362" lon="152.9116137">
<ele>186.669</ele>
<time>2016-10-05T01:33:10.259Z</time>
</trkpt>
<trkpt lat="-26.6993258" lon="152.9118171">
<ele>188.643</ele>
<time>2016-10-05T01:33:12.207Z</time>
</trkpt>
<trkpt lat="-26.6991948" lon="152.9119768">
<ele>190.463</ele>
<time>2016-10-05T01:33:13.989Z</time>
</trkpt>
<trkpt lat="-26.6990159" lon="152.9119738">
<ele>191.666</ele>
<time>2016-10-05T01:33:15.513Z</time>
</trkpt>
<trkpt lat="-26.6988453" lon="152.9118901">
<ele>192.511</ele>
<time>2016-10-05T01:33:17.016Z</time>
</trkpt>
<trkpt lat="-26.6985315" lon="152.9115189">
<ele>193.690</ele>
<time>2016-10-05T01:33:21.120Z</time>
</trkpt>
<trkpt lat="-26.6983220" lon="152.9113422">
<ele>195.529</ele>
<time>2016-10-05T01:33:24.071Z</time>
</trkpt>
<trkpt lat="-26.6979877" lon="152.9112517">
<ele>197.702</ele>
<time>2016-10-05T01:33:27.184Z</time>
</trkpt>
<trkpt lat="-26.6978217" lon="152.9110439">
<ele>199.760</ele>
<time>2016-10-05T01:33:29.059Z</time>
</trkpt>
<trkpt lat="-26.6976505" lon="152.9108242">
<ele>201.518</ele>
<time>2016-10-05T01:33:31.106Z</time>
</trkpt>
<trkpt lat="-26.6974071" lon="152.9106251">
<ele>203.050</ele>
<time>2016-10-05T01:33:33.528Z</time>
</trkpt>
<trkpt lat="-26.6972346" lon="152.9104247">
<ele>204.451</ele>
<time>2016-10-05T01:33:35.482Z</time>
</trkpt>
<trkpt lat="-26.6968711" lon="152.9102658">
<ele>205.896</ele>
<time>2016-10-05T01:33:38.732Z</time>
</trkpt>
<trkpt lat="-26.6966761" lon="152.9100334">
<ele>207.637</ele>
<time>2016-10-05T01:33:41.601Z</time>
</trkpt>
<trkpt lat="-26.6966812" lon="152.9097102">
<ele>209.759</ele>
<time>2016-10-05T01:33:44.444Z</time>
</trkpt>
<trkpt lat="-26.6965710" lon="152.9093523">
<ele>211.986</ele>
<time>2016-10-05T01:33:47.563Z</time>
</trkpt>
<trkpt lat="-26.6962289" lon="152.9092809">
<ele>213.741</ele>
<time>2016-10-05T01:33:50.715Z</time>
</trkpt>
<trkpt lat="-26.6959747" lon="152.9093991">
<ele>215.039</ele>
<time>2016-10-05T01:33:53.174Z</time>
</trkpt>
<trkpt lat="-26.6956791" lon="152.9092648">
<ele>216.389</ele>
<time>2016-10-05T01:33:56.258Z</time>
</trkpt>
<trkpt lat="-26.6957852" lon="152.9089259">
<ele>217.751</ele>
<time>2016-10-05T01:33:59.362Z</time>
</trkpt>
<trkpt lat="-26.6957635" lon="152.9086890">
<ele>219.071</ele>
<time>2016-10-05T01:34:01.350Z</time>
</trkpt>
<trkpt lat="-26.6957093" lon="152.9084198">
<ele>220.567</ele>
<time>2016-10-05T01:34:03.656Z</time>
</trkpt>
<trkpt lat="-26.6955284" lon="152.9081641">
<ele>222.243</ele>
<time>2016-10-05T01:34:06.301Z</time>
</trkpt>
<trkpt lat="-26.6954818" lon="152.9079326">
<ele>223.906</ele>
<time>2016-10-05T01:34:08.089Z</time>
</trkpt>
<trkpt lat="-26.6952591" lon="152.9076594">
<ele>225.285</ele>
<time>2016-10-05T01:34:10.733Z</time>
</trkpt>
<trkpt lat="-26.6949911" lon="152.9076479">
<ele>226.575</ele>
<time>2016-10-05T01:34:12.976Z</time>
</trkpt>
<trkpt lat="-26.6946721" lon="152.9076040">
<ele>228.151</ele>
<time>2016-10-05T01:34:15.798Z</time>
</trkpt>
<trkpt lat="-26.6944082" lon="152.9075400">
<ele>229.676</ele>
<time>2016-10-05T01:34:18.236Z</time>
</trkpt>
<trkpt lat="-26.6944127" lon="152.9073203">
<ele>230.801</ele>
<time>2016-10-05T01:34:20.027Z</time>
</trkpt>
<trkpt lat="-26.6945159" lon="152.9071674">
<ele>231.807</ele>
<time>2016-10-05T01:34:21.723Z</time>
</trkpt>
<trkpt lat="-26.6948911" lon="152.9070070">
<ele>233.193</ele>
<time>2016-10-05T01:34:26.527Z</time>
</trkpt>
<trkpt lat="-26.6953592" lon="152.9071264">
<ele>235.293</ele>
<time>2016-10-05T01:34:32.592Z</time>
</trkpt>
<trkpt lat="-26.6956957" lon="152.9073547">
<ele>237.850</ele>
<time>2016-10-05T01:34:35.688Z</time>
</trkpt>
<trkpt lat="-26.6958816" lon="152.9076908">
<ele>240.165</ele>
<time>2016-10-05T01:34:38.335Z</time>
</trkpt>
<trkpt lat="-26.6961115" lon="152.9079776">
<ele>242.086</ele>
<time>2016-10-05T01:34:41.066Z</time>
</trkpt>
<trkpt lat="-26.6964173" lon="152.9081515">
<ele>244.220</ele>
<time>2016-10-05T01:34:43.983Z</time>
</trkpt>
<trkpt lat="-26.6966556" lon="152.9081799">
<ele>246.829</ele>
<time>2016-10-05T01:34:46.087Z</time>
</trkpt>
<trkpt lat="-26.6968892" lon="152.9081930">
<ele>249.351</ele>
<time>2016-10-05T01:34:48.120Z</time>
</trkpt>
<trkpt lat="-26.6970796" lon="152.9084132">
<ele>251.131</ele>
<time>2016-10-05T01:34:50.650Z</time>
</trkpt>
<trkpt lat="-26.6971871" lon="152.9087311">
<ele>252.188</ele>
<time>2016-10-05T01:34:53.743Z</time>
</trkpt>
<trkpt lat="-26.6973986" lon="152.9088506">
<ele>253.129</ele>
<time>2016-10-05T01:34:56.211Z</time>
</trkpt>
<trkpt lat="-26.6978052" lon="152.9089149">
<ele>254.558</ele>
<time>2016-10-05T01:34:59.935Z</time>
</trkpt>
<trkpt lat="-26.6980564" lon="152.9089260">
<ele>256.478</ele>
<time>2016-10-05T01:35:01.902Z</time>
</trkpt>
<trkpt lat="-26.6982513" lon="152.9087706">
<ele>258.425</ele>
<time>2016-10-05T01:35:03.819Z</time>
</trkpt>
<trkpt lat="-26.6985247" lon="152.9084514">
<ele>260.212</ele>
<time>2016-10-05T01:35:06.946Z</time>
</trkpt>
<trkpt lat="-26.6986159" lon="152.9081108">
<ele>262.189</ele>
<time>2016-10-05T01:35:09.263Z</time>
</trkpt>
<trkpt lat="-26.6986592" lon="152.9078263">
<ele>264.499</ele>
<time>2016-10-05T01:35:11.135Z</time>
</trkpt>
<trkpt lat="-26.6987266" lon="152.9075949">
<ele>266.614</ele>
<time>2016-10-05T01:35:12.859Z</time>
</trkpt>
<trkpt lat="-26.6989222" lon="152.9072875">
<ele>268.158</ele>
<time>2016-10-05T01:35:15.793Z</time>
</trkpt>
<trkpt lat="-26.6993777" lon="152.9074857">
<ele>269.674</ele>
<time>2016-10-05T01:35:20.239Z</time>
</trkpt>
<trkpt lat="-26.6995939" lon="152.9075918">
<ele>271.788</ele>
<time>2016-10-05T01:35:22.345Z</time>
</trkpt>
<trkpt lat="-26.6998029" lon="152.9075994">
<ele>274.159</ele>
<time>2016-10-05T01:35:24.210Z</time>
</trkpt>
<trkpt lat="-26.7000299" lon="152.9075113">
<ele>276.123</ele>
<time>2016-10-05T01:35:26.370Z</time>
</trkpt>
<trkpt lat="-26.7003512" lon="152.9074776">
<ele>277.661</ele>
<time>2016-10-05T01:35:29.343Z</time>
</trkpt>
<trkpt lat="-26.7005498" lon="152.9075058">
<ele>279.026</ele>
<time>2016-10-05T01:35:31.348Z</time>
</trkpt>
<trkpt lat="-26.7006692" lon="152.9073395">
<ele>280.083</ele>
<time>2016-10-05T01:35:33.411Z</time>
</trkpt>
<trkpt lat="-26.7007401" lon="152.9071561">
<ele>280.776</ele>
<time>2016-10-05T01:35:35.479Z</time>
</trkpt>
<trkpt lat="-26.7007148" lon="152.9070128">
<ele>281.397</ele>
<time>2016-10-05T01:35:36.929Z</time>
</trkpt>
<trkpt lat="-26.7003439" lon="152.9069588">
<ele>282.152</ele>
<time>2016-10-05T01:35:40.530Z</time>
</trkpt>
<trkpt lat="-26.7000890" lon="152.9070208">
<ele>283.332</ele>
<time>2016-10-05T01:35:42.467Z</time>
</trkpt>
<trkpt lat="-26.6997928" lon="152.9069977">
<ele>285.230</ele>
<time>2016-10-05T01:35:44.479Z</time>
</trkpt>
<trkpt lat="-26.6994954" lon="152.9069823">
<ele>287.768</ele>
<time>2016-10-05T01:35:46.498Z</time>
</trkpt>
<trkpt lat="-26.6990737" lon="152.9069593">
<ele>290.392</ele>
<time>2016-10-05T01:35:49.444Z</time>
</trkpt>
<trkpt lat="-26.6986740" lon="152.9070388">
<ele>292.546</ele>
<time>2016-10-05T01:35:52.349Z</time>
</trkpt>
<trkpt lat="-26.6983980" lon="152.9069439">
<ele>294.450</ele>
<time>2016-10-05T01:35:54.306Z</time>
</trkpt>
<trkpt lat="-26.6979411" lon="152.9067417">
<ele>296.703</ele>
<time>2016-10-05T01:35:57.461Z</time>
</trkpt>
<trkpt lat="-26.6976440" lon="152.9066699">
<ele>299.605</ele>
<time>2016-10-05T01:35:59.433Z</time>
</trkpt>
<trkpt lat="-26.6971862" lon="152.9066472">
<ele>302.947</ele>
<time>2016-10-05T01:36:02.607Z</time>
</trkpt>
<trkpt lat="-26.6968131" lon="152.9065892">
<ele>306.036</ele>
<time>2016-10-05T01:36:05.419Z</time>
</trkpt>
<trkpt lat="-26.6964844" lon="152.9063565">
<ele>308.509</ele>
<time>2016-10-05T01:36:08.577Z</time>
</trkpt>
<trkpt lat="-26.6963323" lon="152.9061644">
<ele>310.583</ele>
<time>2016-10-05T01:36:10.604Z</time>
</trkpt>
<trkpt lat="-26.6963865" lon="152.9057200">
<ele>312.451</ele>
<time>2016-10-05T01:36:14.182Z</time>
</trkpt>
<trkpt lat="-26.6963463" lon="152.9053742">
<ele>314.515</ele>
<time>2016-10-05T01:36:16.617Z</time>
</trkpt>
<trkpt lat="-26.6962365" lon="152.9049728">
<ele>317.108</ele>
<time>2016-10-05T01:36:19.409Z</time>
</trkpt>
<trkpt lat="-26.6963378" lon="152.9045225">
<ele>319.754</ele>
<time>2016-10-05T01:36:22.344Z</time>
</trkpt>
<trkpt lat="-26.6963147" lon="152.9041849">
<ele>322.197</ele>
<time>2016-10-05T01:36:24.449Z</time>
</trkpt>
<trkpt lat="-26.6962512" lon="152.9037323">
<ele>324.805</ele>
<time>2016-10-05T01:36:27.410Z</time>
</trkpt>
<trkpt lat="-26.6961260" lon="152.9033090">
<ele>327.331</ele>
<time>2016-10-05T01:36:30.389Z</time>
</trkpt>
<trkpt lat="-26.6959586" lon="152.9030012">
<ele>329.382</ele>
<time>2016-10-05T01:36:32.768Z</time>
</trkpt>
<trkpt lat="-26.6958398" lon="152.9027342">
<ele>331.201</ele>
<time>2016-10-05T01:36:34.840Z</time>
</trkpt>
<trkpt lat="-26.6955432" lon="152.9025057">
<ele>333.010</ele>
<time>2016-10-05T01:36:37.708Z</time>
</trkpt>
<trkpt lat="-26.6953782" lon="152.9023210">
<ele>334.887</ele>
<time>2016-10-05T01:36:39.507Z</time>
</trkpt>
<trkpt lat="-26.6952249" lon="152.9020779">
<ele>336.890</ele>
<time>2016-10-05T01:36:41.479Z</time>
</trkpt>
<trkpt lat="-26.6949063" lon="152.9018136">
<ele>338.969</ele>
<time>2016-10-05T01:36:44.437Z</time>
</trkpt>
<trkpt lat="-26.6947571" lon="152.9015486">
<ele>340.990</ele>
<time>2016-10-05T01:36:46.716Z</time>
</trkpt>
<trkpt lat="-26.6946308" lon="152.9013964">
<ele>342.710</ele>
<time>2016-10-05T01:36:48.423Z</time>
</trkpt>
<trkpt lat="-26.6945646" lon="152.9011768">
<ele>343.859</ele>
<time>2016-10-05T01:36:50.256Z</time>
</trkpt>
<trkpt lat="-26.6946398" lon="152.9007415">
<ele>344.571</ele>
<time>2016-10-05T01:36:53.441Z</time>
</trkpt>
<trkpt lat="-26.6946023" lon="152.9002822">
<ele>345.909</ele>
<time>2016-10-05T01:36:56.376Z</time>
</trkpt>
<trkpt lat="-26.6944945" lon="152.8997732">
<ele>348.733</ele>
<time>2016-10-05T01:36:59.496Z</time>
</trkpt>
<trkpt lat="-26.6944174" lon="152.8994614">
<ele>352.516</ele>
<time>2016-10-05T01:37:01.456Z</time>
</trkpt>
<trkpt lat="-26.6943124" lon="152.8991915">
<ele>356.014</ele>
<time>2016-10-05T01:37:03.327Z</time>
</trkpt>
<trkpt lat="-26.6941693" lon="152.8989534">
<ele>358.448</ele>
<time>2016-10-05T01:37:05.261Z</time>
</trkpt>
<trkpt lat="-26.6939555" lon="152.8986422">
<ele>359.851</ele>
<time>2016-10-05T01:37:08.089Z</time>
</trkpt>
<trkpt lat="-26.6937964" lon="152.8983469">
<ele>360.659</ele>
<time>2016-10-05T01:37:10.798Z</time>
</trkpt>
<trkpt lat="-26.6936961" lon="152.8979798">
<ele>361.097</ele>
<time>2016-10-05T01:37:13.969Z</time>
</trkpt>
<trkpt lat="-26.6936268" lon="152.8977991">
<ele>361.466</ele>
<time>2016-10-05T01:37:15.888Z</time>
</trkpt>
<trkpt lat="-26.6935895" lon="152.8976234">
<ele>361.976</ele>
<time>2016-10-05T01:37:17.999Z</time>
</trkpt>
<trkpt lat="-26.6935895" lon="152.8976234">
<ele>362.294</ele>
<time>2016-10-05T01:37:22.999Z</time>
</trkpt>
<trkpt lat="-26.6935895" lon="152.8976234">
<ele>362.132</ele>
<time>2016-10-05T01:37:23.860Z</time>
</trkpt>
<trkpt lat="-26.6937224" lon="152.8976467">
<ele>361.825</ele>
<time>2016-10-05T01:37:28.074Z</time>
</trkpt>
<trkpt lat="-26.6938534" lon="152.8979023">
<ele>361.931</ele>
<time>2016-10-05T01:37:31.644Z</time>
</trkpt>
<trkpt lat="-26.6939490" lon="152.8980783">
<ele>362.930</ele>
<time>2016-10-05T01:37:33.471Z</time>
</trkpt>
<trkpt lat="-26.6940692" lon="152.8983264">
<ele>364.975</ele>
<time>2016-10-05T01:37:35.621Z</time>
</trkpt>
<trkpt lat="-26.6941663" lon="152.8985786">
<ele>367.752</ele>
<time>2016-10-05T01:37:37.537Z</time>
</trkpt>
<trkpt lat="-26.6942892" lon="152.8988496">
<ele>370.708</ele>
<time>2016-10-05T01:37:39.550Z</time>
</trkpt>
<trkpt lat="-26.6944157" lon="152.8991325">
<ele>373.094</ele>
<time>2016-10-05T01:37:41.524Z</time>
</trkpt>
<trkpt lat="-26.6945511" lon="152.8994283">
<ele>374.250</ele>
<time>2016-10-05T01:37:43.498Z</time>
</trkpt>
<trkpt lat="-26.6947568" lon="152.8998989">
<ele>374.053</ele>
<time>2016-10-05T01:37:46.562Z</time>
</trkpt>
<trkpt lat="-26.6948868" lon="152.9002047">
<ele>372.984</ele>
<time>2016-10-05T01:37:48.501Z</time>
</trkpt>
<trkpt lat="-26.6950977" lon="152.9006611">
<ele>371.736</ele>
<time>2016-10-05T01:37:51.387Z</time>
</trkpt>
<trkpt lat="-26.6952501" lon="152.9009830">
<ele>370.064</ele>
<time>2016-10-05T01:37:53.454Z</time>
</trkpt>
<trkpt lat="-26.6954473" lon="152.9014350">
<ele>367.541</ele>
<time>2016-10-05T01:37:56.404Z</time>
</trkpt>
<trkpt lat="-26.6956131" lon="152.9017111">
<ele>364.823</ele>
<time>2016-10-05T01:37:58.379Z</time>
</trkpt>
<trkpt lat="-26.6958316" lon="152.9019726">
<ele>362.795</ele>
<time>2016-10-05T01:38:00.424Z</time>
</trkpt>
<trkpt lat="-26.6962017" lon="152.9023508">
<ele>362.194</ele>
<time>2016-10-05T01:38:03.580Z</time>
</trkpt>
<trkpt lat="-26.6965092" lon="152.9027610">
<ele>363.210</ele>
<time>2016-10-05T01:38:06.625Z</time>
</trkpt>
<trkpt lat="-26.6966544" lon="152.9030461">
<ele>364.872</ele>
<time>2016-10-05T01:38:08.486Z</time>
</trkpt>
<trkpt lat="-26.6967922" lon="152.9035469">
<ele>366.210</ele>
<time>2016-10-05T01:38:11.430Z</time>
</trkpt>
<trkpt lat="-26.6968902" lon="152.9038969">
<ele>366.821</ele>
<time>2016-10-05T01:38:13.536Z</time>
</trkpt>
<trkpt lat="-26.6970150" lon="152.9041944">
<ele>366.688</ele>
<time>2016-10-05T01:38:15.478Z</time>
</trkpt>
<trkpt lat="-26.6973732" lon="152.9045505">
<ele>366.259</ele>
<time>2016-10-05T01:38:18.648Z</time>
</trkpt>
<trkpt lat="-26.6978331" lon="152.9047002">
<ele>366.344</ele>
<time>2016-10-05T01:38:21.706Z</time>
</trkpt>
<trkpt lat="-26.6981745" lon="152.9047521">
<ele>367.963</ele>
<time>2016-10-05T01:38:23.810Z</time>
</trkpt>
<trkpt lat="-26.6986551" lon="152.9048103">
<ele>371.474</ele>
<time>2016-10-05T01:38:26.739Z</time>
</trkpt>
<trkpt lat="-26.6991467" lon="152.9048620">
<ele>375.578</ele>
<time>2016-10-05T01:38:29.653Z</time>
</trkpt>
<trkpt lat="-26.6995111" lon="152.9049066">
<ele>378.468</ele>
<time>2016-10-05T01:38:31.710Z</time>
</trkpt>
<trkpt lat="-26.7000556" lon="152.9048860">
<ele>379.645</ele>
<time>2016-10-05T01:38:34.717Z</time>
</trkpt>
<trkpt lat="-26.7005760" lon="152.9047585">
<ele>378.950</ele>
<time>2016-10-05T01:38:37.647Z</time>
</trkpt>
<trkpt lat="-26.7009176" lon="152.9046427">
<ele>375.748</ele>
<time>2016-10-05T01:38:39.716Z</time>
</trkpt>
<trkpt lat="-26.7013705" lon="152.9043938">
<ele>370.814</ele>
<time>2016-10-05T01:38:42.849Z</time>
</trkpt>
<trkpt lat="-26.7015957" lon="152.9042144">
<ele>366.507</ele>
<time>2016-10-05T01:38:44.679Z</time>
</trkpt>
<trkpt lat="-26.7018774" lon="152.9040820">
<ele>364.453</ele>
<time>2016-10-05T01:38:46.613Z</time>
</trkpt>
<trkpt lat="-26.7023703" lon="152.9039225">
<ele>365.044</ele>
<time>2016-10-05T01:38:49.774Z</time>
</trkpt>
<trkpt lat="-26.7026932" lon="152.9038552">
<ele>368.190</ele>
<time>2016-10-05T01:38:51.786Z</time>
</trkpt>
<trkpt lat="-26.7029926" lon="152.9037381">
<ele>372.764</ele>
<time>2016-10-05T01:38:53.749Z</time>
</trkpt>
<trkpt lat="-26.7033682" lon="152.9033958">
<ele>376.876</ele>
<time>2016-10-05T01:38:56.662Z</time>
</trkpt>
<trkpt lat="-26.7036452" lon="152.9028745">
<ele>379.436</ele>
<time>2016-10-05T01:38:59.765Z</time>
</trkpt>
<trkpt lat="-26.7039095" lon="152.9023555">
<ele>380.050</ele>
<time>2016-10-05T01:39:02.798Z</time>
</trkpt>
<trkpt lat="-26.7041529" lon="152.9020894">
<ele>378.413</ele>
<time>2016-10-05T01:39:04.763Z</time>
</trkpt>
<trkpt lat="-26.7045790" lon="152.9017400">
<ele>375.012</ele>
<time>2016-10-05T01:39:07.800Z</time>
</trkpt>
<trkpt lat="-26.7050143" lon="152.9014137">
<ele>371.381</ele>
<time>2016-10-05T01:39:10.794Z</time>
</trkpt>
<trkpt lat="-26.7053124" lon="152.9011917">
<ele>369.091</ele>
<time>2016-10-05T01:39:12.850Z</time>
</trkpt>
<trkpt lat="-26.7055964" lon="152.9009667">
<ele>368.498</ele>
<time>2016-10-05T01:39:14.881Z</time>
</trkpt>
<trkpt lat="-26.7058678" lon="152.9007564">
<ele>368.848</ele>
<time>2016-10-05T01:39:16.811Z</time>
</trkpt>
<trkpt lat="-26.7062888" lon="152.9004245">
<ele>369.365</ele>
<time>2016-10-05T01:39:19.786Z</time>
</trkpt>
<trkpt lat="-26.7066145" lon="152.9002564">
<ele>369.727</ele>
<time>2016-10-05T01:39:21.794Z</time>
</trkpt>
<trkpt lat="-26.7071470" lon="152.9000913">
<ele>369.801</ele>
<time>2016-10-05T01:39:24.847Z</time>
</trkpt>
<trkpt lat="-26.7076932" lon="152.8999914">
<ele>369.271</ele>
<time>2016-10-05T01:39:27.880Z</time>
</trkpt>
<trkpt lat="-26.7080436" lon="152.8999297">
<ele>367.765</ele>
<time>2016-10-05T01:39:29.847Z</time>
</trkpt>
<trkpt lat="-26.7085583" lon="152.8997632">
<ele>365.740</ele>
<time>2016-10-05T01:39:32.842Z</time>
</trkpt>
<trkpt lat="-26.7088764" lon="152.8995907">
<ele>364.968</ele>
<time>2016-10-05T01:39:34.832Z</time>
</trkpt>
<trkpt lat="-26.7093276" lon="152.8992850">
<ele>366.780</ele>
<time>2016-10-05T01:39:37.802Z</time>
</trkpt>
<trkpt lat="-26.7097709" lon="152.8989749">
<ele>370.407</ele>
<time>2016-10-05T01:39:40.716Z</time>
</trkpt>
<trkpt lat="-26.7100832" lon="152.8987766">
<ele>373.899</ele>
<time>2016-10-05T01:39:42.691Z</time>
</trkpt>
<trkpt lat="-26.7105983" lon="152.8985569">
<ele>375.997</ele>
<time>2016-10-05T01:39:45.757Z</time>
</trkpt>
<trkpt lat="-26.7109398" lon="152.8984627">
<ele>376.775</ele>
<time>2016-10-05T01:39:47.776Z</time>
</trkpt>
<trkpt lat="-26.7112696" lon="152.8983625">
<ele>377.053</ele>
<time>2016-10-05T01:39:49.767Z</time>
</trkpt>
<trkpt lat="-26.7117579" lon="152.8981539">
<ele>377.571</ele>
<time>2016-10-05T01:39:52.882Z</time>
</trkpt>
<trkpt lat="-26.7122083" lon="152.8979987">
<ele>378.484</ele>
<time>2016-10-05T01:39:55.860Z</time>
</trkpt>
<trkpt lat="-26.7126569" lon="152.8980249">
<ele>378.973</ele>
<time>2016-10-05T01:39:58.824Z</time>
</trkpt>
<trkpt lat="-26.7130106" lon="152.8983117">
<ele>377.895</ele>
<time>2016-10-05T01:40:01.614Z</time>
</trkpt>
<trkpt lat="-26.7132410" lon="152.8986097">
<ele>375.099</ele>
<time>2016-10-05T01:40:03.677Z</time>
</trkpt>
<trkpt lat="-26.7134602" lon="152.8989217">
<ele>371.509</ele>
<time>2016-10-05T01:40:05.784Z</time>
</trkpt>
<trkpt lat="-26.7137676" lon="152.8993372">
<ele>367.908</ele>
<time>2016-10-05T01:40:08.751Z</time>
</trkpt>
<trkpt lat="-26.7140024" lon="152.8995716">
<ele>363.978</ele>
<time>2016-10-05T01:40:10.736Z</time>
</trkpt>
<trkpt lat="-26.7142855" lon="152.8997369">
<ele>359.471</ele>
<time>2016-10-05T01:40:12.692Z</time>
</trkpt>
<trkpt lat="-26.7147609" lon="152.8998622">
<ele>355.537</ele>
<time>2016-10-05T01:40:15.581Z</time>
</trkpt>
<trkpt lat="-26.7153078" lon="152.8996952">
<ele>353.655</ele>
<time>2016-10-05T01:40:18.756Z</time>
</trkpt>
<trkpt lat="-26.7158213" lon="152.8994427">
<ele>354.146</ele>
<time>2016-10-05T01:40:21.815Z</time>
</trkpt>
<trkpt lat="-26.7163451" lon="152.8992813">
<ele>355.984</ele>
<time>2016-10-05T01:40:24.799Z</time>
</trkpt>
<trkpt lat="-26.7168585" lon="152.8991170">
<ele>357.544</ele>
<time>2016-10-05T01:40:27.730Z</time>
</trkpt>
<trkpt lat="-26.7173670" lon="152.8988653">
<ele>357.990</ele>
<time>2016-10-05T01:40:30.747Z</time>
</trkpt>
<trkpt lat="-26.7176912" lon="152.8986587">
<ele>357.574</ele>
<time>2016-10-05T01:40:32.758Z</time>
</trkpt>
<trkpt lat="-26.7182056" lon="152.8984425">
<ele>356.317</ele>
<time>2016-10-05T01:40:35.701Z</time>
</trkpt>
<trkpt lat="-26.7185912" lon="152.8983524">
<ele>353.894</ele>
<time>2016-10-05T01:40:37.764Z</time>
</trkpt>
<trkpt lat="-26.7191570" lon="152.8982749">
<ele>350.513</ele>
<time>2016-10-05T01:40:40.728Z</time>
</trkpt>
<trkpt lat="-26.7195459" lon="152.8982665">
<ele>346.910</ele>
<time>2016-10-05T01:40:42.777Z</time>
</trkpt>
<trkpt lat="-26.7200796" lon="152.8983611">
<ele>344.000</ele>
<time>2016-10-05T01:40:45.639Z</time>
</trkpt>
<trkpt lat="-26.7204440" lon="152.8984875">
<ele>342.740</ele>
<time>2016-10-05T01:40:47.611Z</time>
</trkpt>
<trkpt lat="-26.7208219" lon="152.8986144">
<ele>343.095</ele>
<time>2016-10-05T01:40:49.582Z</time>
</trkpt>
<trkpt lat="-26.7212093" lon="152.8987635">
<ele>343.979</ele>
<time>2016-10-05T01:40:51.577Z</time>
</trkpt>
<trkpt lat="-26.7216014" lon="152.8989253">
<ele>344.514</ele>
<time>2016-10-05T01:40:53.558Z</time>
</trkpt>
<trkpt lat="-26.7221924" lon="152.8991392">
<ele>344.268</ele>
<time>2016-10-05T01:40:56.465Z</time>
</trkpt>
<trkpt lat="-26.7225990" lon="152.8992880">
<ele>342.989</ele>
<time>2016-10-05T01:40:58.491Z</time>
</trkpt>
<trkpt lat="-26.7231905" lon="152.8994541">
<ele>341.165</ele>
<time>2016-10-05T01:41:01.446Z</time>
</trkpt>
<trkpt lat="-26.7237922" lon="152.8995249">
<ele>339.740</ele>
<time>2016-10-05T01:41:04.441Z</time>
</trkpt>
<trkpt lat="-26.7242016" lon="152.8995356">
<ele>339.784</ele>
<time>2016-10-05T01:41:06.476Z</time>
</trkpt>
<trkpt lat="-26.7248000" lon="152.8994862">
<ele>342.005</ele>
<time>2016-10-05T01:41:09.454Z</time>
</trkpt>
<trkpt lat="-26.7252027" lon="152.8994559">
<ele>346.178</ele>
<time>2016-10-05T01:41:11.453Z</time>
</trkpt>
<trkpt lat="-26.7256103" lon="152.8994386">
<ele>351.336</ele>
<time>2016-10-05T01:41:13.467Z</time>
</trkpt>
<trkpt lat="-26.7262257" lon="152.8995254">
<ele>356.539</ele>
<time>2016-10-05T01:41:16.522Z</time>
</trkpt>
<trkpt lat="-26.7266292" lon="152.8995772">
<ele>361.398</ele>
<time>2016-10-05T01:41:18.505Z</time>
</trkpt>
<trkpt lat="-26.7270395" lon="152.8996194">
<ele>365.882</ele>
<time>2016-10-05T01:41:20.528Z</time>
</trkpt>
<trkpt lat="-26.7276391" lon="152.8996875">
<ele>370.015</ele>
<time>2016-10-05T01:41:23.510Z</time>
</trkpt>
<trkpt lat="-26.7280450" lon="152.8997851">
<ele>373.804</ele>
<time>2016-10-05T01:41:25.558Z</time>
</trkpt>
<trkpt lat="-26.7286295" lon="152.8999709">
<ele>376.863</ele>
<time>2016-10-05T01:41:28.519Z</time>
</trkpt>
<trkpt lat="-26.7290353" lon="152.9001420">
<ele>378.743</ele>
<time>2016-10-05T01:41:30.575Z</time>
</trkpt>
<trkpt lat="-26.7296071" lon="152.9004631">
<ele>379.351</ele>
<time>2016-10-05T01:41:33.568Z</time>
</trkpt>
<trkpt lat="-26.7299809" lon="152.9007219">
<ele>378.916</ele>
<time>2016-10-05T01:41:35.617Z</time>
</trkpt>
<trkpt lat="-26.7305122" lon="152.9010806">
<ele>377.457</ele>
<time>2016-10-05T01:41:38.516Z</time>
</trkpt>
<trkpt lat="-26.7308803" lon="152.9013359">
<ele>374.469</ele>
<time>2016-10-05T01:41:40.548Z</time>
</trkpt>
<trkpt lat="-26.7312673" lon="152.9015480">
<ele>370.601</ele>
<time>2016-10-05T01:41:42.602Z</time>
</trkpt>
<trkpt lat="-26.7316486" lon="152.9017006">
<ele>367.377</ele>
<time>2016-10-05T01:41:44.530Z</time>
</trkpt>
<trkpt lat="-26.7322664" lon="152.9018514">
<ele>365.352</ele>
<time>2016-10-05T01:41:47.489Z</time>
</trkpt>
<trkpt lat="-26.7327060" lon="152.9019116">
<ele>364.573</ele>
<time>2016-10-05T01:41:49.520Z</time>
</trkpt>
<trkpt lat="-26.7333421" lon="152.9018960">
<ele>365.544</ele>
<time>2016-10-05T01:41:52.467Z</time>
</trkpt>
<trkpt lat="-26.7337421" lon="152.9018489">
<ele>368.712</ele>
<time>2016-10-05T01:41:54.426Z</time>
</trkpt>
<trkpt lat="-26.7342955" lon="152.9016346">
<ele>373.164</ele>
<time>2016-10-05T01:41:57.404Z</time>
</trkpt>
<trkpt lat="-26.7346459" lon="152.9014866">
<ele>376.788</ele>
<time>2016-10-05T01:41:59.491Z</time>
</trkpt>
<trkpt lat="-26.7349140" lon="152.9013231">
<ele>378.609</ele>
<time>2016-10-05T01:42:01.329Z</time>
</trkpt>
<trkpt lat="-26.7353285" lon="152.9010619">
<ele>379.216</ele>
<time>2016-10-05T01:42:04.216Z</time>
</trkpt>
<trkpt lat="-26.7357442" lon="152.9007321">
<ele>379.462</ele>
<time>2016-10-05T01:42:07.172Z</time>
</trkpt>
<trkpt lat="-26.7360536" lon="152.9005080">
<ele>379.809</ele>
<time>2016-10-05T01:42:09.216Z</time>
</trkpt>
<trkpt lat="-26.7364961" lon="152.9002104">
<ele>380.184</ele>
<time>2016-10-05T01:42:12.001Z</time>
</trkpt>
<trkpt lat="-26.7368420" lon="152.8999585">
<ele>380.267</ele>
<time>2016-10-05T01:42:13.996Z</time>
</trkpt>
<trkpt lat="-26.7372469" lon="152.8996882">
<ele>379.875</ele>
<time>2016-10-05T01:42:16.041Z</time>
</trkpt>
<trkpt lat="-26.7376722" lon="152.8993951">
<ele>379.209</ele>
<time>2016-10-05T01:42:18.125Z</time>
</trkpt>
<trkpt lat="-26.7380534" lon="152.8990884">
<ele>378.351</ele>
<time>2016-10-05T01:42:20.102Z</time>
</trkpt>
<trkpt lat="-26.7386401" lon="152.8986452">
<ele>377.251</ele>
<time>2016-10-05T01:42:23.126Z</time>
</trkpt>
<trkpt lat="-26.7391672" lon="152.8981520">
<ele>376.452</ele>
<time>2016-10-05T01:42:26.186Z</time>
</trkpt>
<trkpt lat="-26.7395667" lon="152.8976347">
<ele>377.054</ele>
<time>2016-10-05T01:42:29.106Z</time>
</trkpt>
<trkpt lat="-26.7397918" lon="152.8972775">
<ele>379.383</ele>
<time>2016-10-05T01:42:31.056Z</time>
</trkpt>
<trkpt lat="-26.7401328" lon="152.8967102">
<ele>382.390</ele>
<time>2016-10-05T01:42:34.120Z</time>
</trkpt>
<trkpt lat="-26.7405185" lon="152.8962046">
<ele>384.658</ele>
<time>2016-10-05T01:42:37.134Z</time>
</trkpt>
<trkpt lat="-26.7407768" lon="152.8958891">
<ele>385.471</ele>
<time>2016-10-05T01:42:39.099Z</time>
</trkpt>
<trkpt lat="-26.7411083" lon="152.8953467">
<ele>385.010</ele>
<time>2016-10-05T01:42:42.100Z</time>
</trkpt>
<trkpt lat="-26.7412797" lon="152.8949564">
<ele>384.045</ele>
<time>2016-10-05T01:42:44.074Z</time>
</trkpt>
<trkpt lat="-26.7415145" lon="152.8945942">
<ele>382.491</ele>
<time>2016-10-05T01:42:46.071Z</time>
</trkpt>
<trkpt lat="-26.7419528" lon="152.8940688">
<ele>379.399</ele>
<time>2016-10-05T01:42:49.195Z</time>
</trkpt>
<trkpt lat="-26.7422432" lon="152.8937229">
<ele>374.250</ele>
<time>2016-10-05T01:42:51.174Z</time>
</trkpt>
<trkpt lat="-26.7426640" lon="152.8931784">
<ele>367.558</ele>
<time>2016-10-05T01:42:54.102Z</time>
</trkpt>
<trkpt lat="-26.7430680" lon="152.8925763">
<ele>360.168</ele>
<time>2016-10-05T01:42:57.093Z</time>
</trkpt>
<trkpt lat="-26.7432957" lon="152.8921289">
<ele>353.193</ele>
<time>2016-10-05T01:42:59.095Z</time>
</trkpt>
<trkpt lat="-26.7436024" lon="152.8913980">
<ele>348.263</ele>
<time>2016-10-05T01:43:02.205Z</time>
</trkpt>
<trkpt lat="-26.7437765" lon="152.8909254">
<ele>347.520</ele>
<time>2016-10-05T01:43:04.215Z</time>
</trkpt>
<trkpt lat="-26.7439640" lon="152.8904856">
<ele>351.654</ele>
<time>2016-10-05T01:43:06.197Z</time>
</trkpt>
<trkpt lat="-26.7441966" lon="152.8900801">
<ele>358.363</ele>
<time>2016-10-05T01:43:08.201Z</time>
</trkpt>
<trkpt lat="-26.7445052" lon="152.8897430">
<ele>364.357</ele>
<time>2016-10-05T01:43:10.203Z</time>
</trkpt>
<trkpt lat="-26.7450543" lon="152.8893600">
<ele>368.516</ele>
<time>2016-10-05T01:43:13.169Z</time>
</trkpt>
<trkpt lat="-26.7454503" lon="152.8891613">
<ele>371.387</ele>
<time>2016-10-05T01:43:15.116Z</time>
</trkpt>
<trkpt lat="-26.7460679" lon="152.8888376">
<ele>373.405</ele>
<time>2016-10-05T01:43:18.168Z</time>
</trkpt>
<trkpt lat="-26.7466667" lon="152.8885435">
<ele>374.455</ele>
<time>2016-10-05T01:43:21.181Z</time>
</trkpt>
<trkpt lat="-26.7470329" lon="152.8883623">
<ele>374.683</ele>
<time>2016-10-05T01:43:23.149Z</time>
</trkpt>
<trkpt lat="-26.7475840" lon="152.8881148">
<ele>374.711</ele>
<time>2016-10-05T01:43:26.174Z</time>
</trkpt>
<trkpt lat="-26.7481678" lon="152.8880270">
<ele>375.411</ele>
<time>2016-10-05T01:43:29.253Z</time>
</trkpt>
<trkpt lat="-26.7487505" lon="152.8881078">
<ele>377.282</ele>
<time>2016-10-05T01:43:32.294Z</time>
</trkpt>
<trkpt lat="-26.7492967" lon="152.8883849">
<ele>379.739</ele>
<time>2016-10-05T01:43:35.261Z</time>
</trkpt>
<trkpt lat="-26.7496321" lon="152.8886329">
<ele>381.671</ele>
<time>2016-10-05T01:43:37.168Z</time>
</trkpt>
<trkpt lat="-26.7499896" lon="152.8888866">
<ele>382.384</ele>
<time>2016-10-05T01:43:39.170Z</time>
</trkpt>
<trkpt lat="-26.7503344" lon="152.8890912">
<ele>381.666</ele>
<time>2016-10-05T01:43:41.028Z</time>
</trkpt>
<trkpt lat="-26.7509210" lon="152.8892799">
<ele>379.737</ele>
<time>2016-10-05T01:43:43.946Z</time>
</trkpt>
<trkpt lat="-26.7513428" lon="152.8893147">
<ele>377.514</ele>
<time>2016-10-05T01:43:45.946Z</time>
</trkpt>
<trkpt lat="-26.7519987" lon="152.8892069">
<ele>376.102</ele>
<time>2016-10-05T01:43:49.043Z</time>
</trkpt>
<trkpt lat="-26.7525942" lon="152.8889566">
<ele>376.183</ele>
<time>2016-10-05T01:43:52.044Z</time>
</trkpt>
<trkpt lat="-26.7530391" lon="152.8884985">
<ele>378.084</ele>
<time>2016-10-05T01:43:54.980Z</time>
</trkpt>
<trkpt lat="-26.7533288" lon="152.8881672">
<ele>381.240</ele>
<time>2016-10-05T01:43:56.998Z</time>
</trkpt>
<trkpt lat="-26.7537442" lon="152.8876546">
<ele>384.107</ele>
<time>2016-10-05T01:44:00.002Z</time>
</trkpt>
<trkpt lat="-26.7541881" lon="152.8871843">
<ele>385.758</ele>
<time>2016-10-05T01:44:03.024Z</time>
</trkpt>
<trkpt lat="-26.7546901" lon="152.8868537">
<ele>386.413</ele>
<time>2016-10-05T01:44:05.950Z</time>
</trkpt>
<trkpt lat="-26.7550808" lon="152.8867362">
<ele>386.529</ele>
<time>2016-10-05T01:44:07.924Z</time>
</trkpt>
<trkpt lat="-26.7555158" lon="152.8867111">
<ele>386.420</ele>
<time>2016-10-05T01:44:09.960Z</time>
</trkpt>
<trkpt lat="-26.7561782" lon="152.8868932">
<ele>386.543</ele>
<time>2016-10-05T01:44:13.092Z</time>
</trkpt>
<trkpt lat="-26.7565515" lon="152.8871095">
<ele>387.233</ele>
<time>2016-10-05T01:44:15.068Z</time>
</trkpt>
<trkpt lat="-26.7569005" lon="152.8873562">
<ele>388.558</ele>
<time>2016-10-05T01:44:17.056Z</time>
</trkpt>
<trkpt lat="-26.7574441" lon="152.8876766">
<ele>390.756</ele>
<time>2016-10-05T01:44:20.072Z</time>
</trkpt>
<trkpt lat="-26.7578181" lon="152.8877997">
<ele>394.061</ele>
<time>2016-10-05T01:44:22.035Z</time>
</trkpt>
<trkpt lat="-26.7584177" lon="152.8878401">
<ele>397.887</ele>
<time>2016-10-05T01:44:25.025Z</time>
</trkpt>
<trkpt lat="-26.7588406" lon="152.8877254">
<ele>401.912</ele>
<time>2016-10-05T01:44:27.146Z</time>
</trkpt>
<trkpt lat="-26.7594155" lon="152.8875684">
<ele>406.216</ele>
<time>2016-10-05T01:44:30.153Z</time>
</trkpt>
<trkpt lat="-26.7599232" lon="152.8874348">
<ele>409.886</ele>
<time>2016-10-05T01:44:33.076Z</time>
</trkpt>
<trkpt lat="-26.7602410" lon="152.8873606">
<ele>411.893</ele>
<time>2016-10-05T01:44:35.112Z</time>
</trkpt>
<trkpt lat="-26.7605194" lon="152.8872792">
<ele>412.545</ele>
<time>2016-10-05T01:44:37.057Z</time>
</trkpt>
<trkpt lat="-26.7609202" lon="152.8871423">
<ele>412.560</ele>
<time>2016-10-05T01:44:39.989Z</time>
</trkpt>
<trkpt lat="-26.7612009" lon="152.8870604">
<ele>412.504</ele>
<time>2016-10-05T01:44:42.031Z</time>
</trkpt>
<trkpt lat="-26.7614559" lon="152.8869838">
<ele>412.708</ele>
<time>2016-10-05T01:44:43.905Z</time>
</trkpt>
<trkpt lat="-26.7618627" lon="152.8868592">
<ele>413.078</ele>
<time>2016-10-05T01:44:46.946Z</time>
</trkpt>
<trkpt lat="-26.7621206" lon="152.8867789">
<ele>413.439</ele>
<time>2016-10-05T01:44:48.910Z</time>
</trkpt>
<trkpt lat="-26.7623793" lon="152.8867095">
<ele>413.685</ele>
<time>2016-10-05T01:44:50.877Z</time>
</trkpt>
<trkpt lat="-26.7627831" lon="152.8865796">
<ele>413.577</ele>
<time>2016-10-05T01:44:53.990Z</time>
</trkpt>
<trkpt lat="-26.7630520" lon="152.8865101">
<ele>413.125</ele>
<time>2016-10-05T01:44:56.037Z</time>
</trkpt>
<trkpt lat="-26.7634395" lon="152.8863914">
<ele>412.717</ele>
<time>2016-10-05T01:44:59.040Z</time>
</trkpt>
<trkpt lat="-26.7636923" lon="152.8863224">
<ele>412.576</ele>
<time>2016-10-05T01:45:00.995Z</time>
</trkpt>
<trkpt lat="-26.7639478" lon="152.8862438">
<ele>412.679</ele>
<time>2016-10-05T01:45:02.978Z</time>
</trkpt>
<trkpt lat="-26.7641978" lon="152.8861531">
<ele>412.917</ele>
<time>2016-10-05T01:45:04.909Z</time>
</trkpt>
<trkpt lat="-26.7645922" lon="152.8860268">
<ele>413.125</ele>
<time>2016-10-05T01:45:07.850Z</time>
</trkpt>
<trkpt lat="-26.7650290" lon="152.8859095">
<ele>413.265</ele>
<time>2016-10-05T01:45:10.987Z</time>
</trkpt>
<trkpt lat="-26.7653187" lon="152.8858437">
<ele>413.490</ele>
<time>2016-10-05T01:45:13.058Z</time>
</trkpt>
<trkpt lat="-26.7657250" lon="152.8857316">
<ele>413.886</ele>
<time>2016-10-05T01:45:16.051Z</time>
</trkpt>
<trkpt lat="-26.7659752" lon="152.8856548">
<ele>414.379</ele>
<time>2016-10-05T01:45:17.962Z</time>
</trkpt>
<trkpt lat="-26.7663585" lon="152.8855294">
<ele>414.916</ele>
<time>2016-10-05T01:45:20.898Z</time>
</trkpt>
<trkpt lat="-26.7667983" lon="152.8854105">
<ele>415.500</ele>
<time>2016-10-05T01:45:24.140Z</time>
</trkpt>
<trkpt lat="-26.7672034" lon="152.8853316">
<ele>416.294</ele>
<time>2016-10-05T01:45:27.129Z</time>
</trkpt>
<trkpt lat="-26.7674521" lon="152.8852879">
<ele>417.675</ele>
<time>2016-10-05T01:45:29.173Z</time>
</trkpt>
<trkpt lat="-26.7677553" lon="152.8851769">
<ele>419.664</ele>
<time>2016-10-05T01:45:32.182Z</time>
</trkpt>
<trkpt lat="-26.7679891" lon="152.8851035">
<ele>421.671</ele>
<time>2016-10-05T01:45:35.362Z</time>
</trkpt>
<trkpt lat="-26.7680759" lon="152.8850654">
<ele>423.085</ele>
<time>2016-10-05T01:45:37.000Z</time>
</trkpt>
<trkpt lat="-26.7680759" lon="152.8850654">
<ele>423.589</ele>
<time>2016-10-05T01:45:40.000Z</time>
</trkpt>
<trkpt lat="-26.7680759" lon="152.8850654">
<ele>423.331</ele>
<time>2016-10-05T01:45:52.102Z</time>
</trkpt>
<trkpt lat="-26.7682290" lon="152.8851300">
<ele>422.937</ele>
<time>2016-10-05T01:45:59.550Z</time>
</trkpt>
<trkpt lat="-26.7683527" lon="152.8848745">
<ele>423.430</ele>
<time>2016-10-05T01:46:02.253Z</time>
</trkpt>
<trkpt lat="-26.7684738" lon="152.8845089">
<ele>425.353</ele>
<time>2016-10-05T01:46:04.895Z</time>
</trkpt>
<trkpt lat="-26.7686994" lon="152.8838070">
<ele>428.355</ele>
<time>2016-10-05T01:46:09.295Z</time>
</trkpt>
<trkpt lat="-26.7688692" lon="152.8831600">
<ele>431.432</ele>
<time>2016-10-05T01:46:12.764Z</time>
</trkpt>
<trkpt lat="-26.7689750" lon="152.8825722">
<ele>432.856</ele>
<time>2016-10-05T01:46:15.745Z</time>
</trkpt>
<trkpt lat="-26.7690866" lon="152.8820008">
<ele>431.562</ele>
<time>2016-10-05T01:46:18.635Z</time>
</trkpt>
<trkpt lat="-26.7691462" lon="152.8816148">
<ele>428.936</ele>
<time>2016-10-05T01:46:20.555Z</time>
</trkpt>
<trkpt lat="-26.7692272" lon="152.8810328">
<ele>426.907</ele>
<time>2016-10-05T01:46:23.312Z</time>
</trkpt>
<trkpt lat="-26.7692302" lon="152.8806279">
<ele>425.977</ele>
<time>2016-10-05T01:46:25.117Z</time>
</trkpt>
<trkpt lat="-26.7691220" lon="152.8799803">
<ele>425.530</ele>
<time>2016-10-05T01:46:27.914Z</time>
</trkpt>
<trkpt lat="-26.7690017" lon="152.8795355">
<ele>424.620</ele>
<time>2016-10-05T01:46:29.872Z</time>
</trkpt>
<trkpt lat="-26.7688723" lon="152.8790911">
<ele>422.799</ele>
<time>2016-10-05T01:46:31.871Z</time>
</trkpt>
<trkpt lat="-26.7686898" lon="152.8784431">
<ele>420.503</ele>
<time>2016-10-05T01:46:34.869Z</time>
</trkpt>
<trkpt lat="-26.7685386" lon="152.8778047">
<ele>418.553</ele>
<time>2016-10-05T01:46:37.877Z</time>
</trkpt>
<trkpt lat="-26.7685019" lon="152.8774060">
<ele>417.550</ele>
<time>2016-10-05T01:46:39.715Z</time>
</trkpt>
<trkpt lat="-26.7684707" lon="152.8767703">
<ele>417.482</ele>
<time>2016-10-05T01:46:42.627Z</time>
</trkpt>
<trkpt lat="-26.7685740" lon="152.8763659">
<ele>418.061</ele>
<time>2016-10-05T01:46:44.458Z</time>
</trkpt>
<trkpt lat="-26.7687120" lon="152.8759323">
<ele>419.316</ele>
<time>2016-10-05T01:46:46.435Z</time>
</trkpt>
<trkpt lat="-26.7689335" lon="152.8752600">
<ele>421.140</ele>
<time>2016-10-05T01:46:49.496Z</time>
</trkpt>
<trkpt lat="-26.7691782" lon="152.8746243">
<ele>422.781</ele>
<time>2016-10-05T01:46:52.553Z</time>
</trkpt>
<trkpt lat="-26.7693433" lon="152.8742218">
<ele>423.588</ele>
<time>2016-10-05T01:46:54.525Z</time>
</trkpt>
<trkpt lat="-26.7695523" lon="152.8736176">
<ele>423.689</ele>
<time>2016-10-05T01:46:57.373Z</time>
</trkpt>
<trkpt lat="-26.7696265" lon="152.8729373">
<ele>423.609</ele>
<time>2016-10-05T01:47:00.280Z</time>
</trkpt>
<trkpt lat="-26.7695929" lon="152.8724532">
<ele>423.964</ele>
<time>2016-10-05T01:47:02.342Z</time>
</trkpt>
<trkpt lat="-26.7695579" lon="152.8717606">
<ele>424.926</ele>
<time>2016-10-05T01:47:05.402Z</time>
</trkpt>
<trkpt lat="-26.7695208" lon="152.8711204">
<ele>426.047</ele>
<time>2016-10-05T01:47:08.289Z</time>
</trkpt>
<trkpt lat="-26.7694918" lon="152.8706710">
<ele>427.072</ele>
<time>2016-10-05T01:47:10.317Z</time>
</trkpt>
<trkpt lat="-26.7694588" lon="152.8702336">
<ele>428.389</ele>
<time>2016-10-05T01:47:12.298Z</time>
</trkpt>
<trkpt lat="-26.7694749" lon="152.8695906">
<ele>430.087</ele>
<time>2016-10-05T01:47:15.181Z</time>
</trkpt>
<trkpt lat="-26.7695729" lon="152.8691680">
<ele>431.531</ele>
<time>2016-10-05T01:47:17.088Z</time>
</trkpt>
<trkpt lat="-26.7696915" lon="152.8687493">
<ele>431.949</ele>
<time>2016-10-05T01:47:18.975Z</time>
</trkpt>
<trkpt lat="-26.7698446" lon="152.8683271">
<ele>431.083</ele>
<time>2016-10-05T01:47:20.933Z</time>
</trkpt>
<trkpt lat="-26.7700681" lon="152.8679414">
<ele>429.223</ele>
<time>2016-10-05T01:47:22.922Z</time>
</trkpt>
<trkpt lat="-26.7704355" lon="152.8673945">
<ele>426.952</ele>
<time>2016-10-05T01:47:26.026Z</time>
</trkpt>
<trkpt lat="-26.7706593" lon="152.8670496">
<ele>424.550</ele>
<time>2016-10-05T01:47:28.040Z</time>
</trkpt>
<trkpt lat="-26.7708675" lon="152.8667024">
<ele>422.131</ele>
<time>2016-10-05T01:47:30.079Z</time>
</trkpt>
<trkpt lat="-26.7710086" lon="152.8663492">
<ele>420.169</ele>
<time>2016-10-05T01:47:31.966Z</time>
</trkpt>
<trkpt lat="-26.7710496" lon="152.8659660">
<ele>419.204</ele>
<time>2016-10-05T01:47:33.828Z</time>
</trkpt>
<trkpt lat="-26.7709823" lon="152.8653167">
<ele>419.354</ele>
<time>2016-10-05T01:47:36.841Z</time>
</trkpt>
<trkpt lat="-26.7706202" lon="152.8648320">
<ele>420.207</ele>
<time>2016-10-05T01:47:39.670Z</time>
</trkpt>
<trkpt lat="-26.7701326" lon="152.8644853">
<ele>420.623</ele>
<time>2016-10-05T01:47:42.568Z</time>
</trkpt>
<trkpt lat="-26.7697652" lon="152.8643340">
<ele>419.180</ele>
<time>2016-10-05T01:47:44.481Z</time>
</trkpt>
<trkpt lat="-26.7691115" lon="152.8641928">
<ele>415.867</ele>
<time>2016-10-05T01:47:47.595Z</time>
</trkpt>
<trkpt lat="-26.7686911" lon="152.8640633">
<ele>411.933</ele>
<time>2016-10-05T01:47:49.587Z</time>
</trkpt>
<trkpt lat="-26.7681003" lon="152.8637586">
<ele>408.203</ele>
<time>2016-10-05T01:47:52.533Z</time>
</trkpt>
<trkpt lat="-26.7677622" lon="152.8634544">
<ele>404.625</ele>
<time>2016-10-05T01:47:54.525Z</time>
</trkpt>
<trkpt lat="-26.7673712" lon="152.8628959">
<ele>401.332</ele>
<time>2016-10-05T01:47:57.603Z</time>
</trkpt>
<trkpt lat="-26.7671874" lon="152.8625043">
<ele>398.905</ele>
<time>2016-10-05T01:47:59.626Z</time>
</trkpt>
<trkpt lat="-26.7669331" lon="152.8619405">
<ele>397.591</ele>
<time>2016-10-05T01:48:02.686Z</time>
</trkpt>
<trkpt lat="-26.7667579" lon="152.8616102">
<ele>396.986</ele>
<time>2016-10-05T01:48:04.634Z</time>
</trkpt>
<trkpt lat="-26.7664507" lon="152.8611752">
<ele>396.999</ele>
<time>2016-10-05T01:48:07.459Z</time>
</trkpt>
<trkpt lat="-26.7659985" lon="152.8608794">
<ele>397.721</ele>
<time>2016-10-05T01:48:10.369Z</time>
</trkpt>
<trkpt lat="-26.7656552" lon="152.8607365">
<ele>398.916</ele>
<time>2016-10-05T01:48:12.364Z</time>
</trkpt>
<trkpt lat="-26.7653392" lon="152.8606432">
<ele>400.151</ele>
<time>2016-10-05T01:48:14.161Z</time>
</trkpt>
<trkpt lat="-26.7648066" lon="152.8605065">
<ele>401.157</ele>
<time>2016-10-05T01:48:17.233Z</time>
</trkpt>
<trkpt lat="-26.7645285" lon="152.8602761">
<ele>401.988</ele>
<time>2016-10-05T01:48:19.202Z</time>
</trkpt>
<trkpt lat="-26.7642596" lon="152.8600025">
<ele>402.718</ele>
<time>2016-10-05T01:48:21.305Z</time>
</trkpt>
<trkpt lat="-26.7640275" lon="152.8597293">
<ele>403.006</ele>
<time>2016-10-05T01:48:23.405Z</time>
</trkpt>
<trkpt lat="-26.7637301" lon="152.8593850">
<ele>402.496</ele>
<time>2016-10-05T01:48:26.290Z</time>
</trkpt>
<trkpt lat="-26.7635278" lon="152.8591735">
<ele>401.484</ele>
<time>2016-10-05T01:48:28.243Z</time>
</trkpt>
<trkpt lat="-26.7632288" lon="152.8588602">
<ele>400.892</ele>
<time>2016-10-05T01:48:31.108Z</time>
</trkpt>
<trkpt lat="-26.7630334" lon="152.8585741">
<ele>401.517</ele>
<time>2016-10-05T01:48:33.377Z</time>
</trkpt>
<trkpt lat="-26.7628808" lon="152.8582713">
<ele>403.050</ele>
<time>2016-10-05T01:48:35.652Z</time>
</trkpt>
<trkpt lat="-26.7627638" lon="152.8579975">
<ele>404.213</ele>
<time>2016-10-05T01:48:37.706Z</time>
</trkpt>
<trkpt lat="-26.7626264" lon="152.8576115">
<ele>404.239</ele>
<time>2016-10-05T01:48:40.624Z</time>
</trkpt>
<trkpt lat="-26.7625927" lon="152.8573400">
<ele>403.577</ele>
<time>2016-10-05T01:48:42.582Z</time>
</trkpt>
<trkpt lat="-26.7625377" lon="152.8570817">
<ele>402.940</ele>
<time>2016-10-05T01:48:44.487Z</time>
</trkpt>
<trkpt lat="-26.7624316" lon="152.8568294">
<ele>402.536</ele>
<time>2016-10-05T01:48:46.501Z</time>
</trkpt>
<trkpt lat="-26.7621983" lon="152.8565469">
<ele>402.090</ele>
<time>2016-10-05T01:48:49.527Z</time>
</trkpt>
<trkpt lat="-26.7619395" lon="152.8563850">
<ele>401.301</ele>
<time>2016-10-05T01:48:52.578Z</time>
</trkpt>
<trkpt lat="-26.7617593" lon="152.8562087">
<ele>400.358</ele>
<time>2016-10-05T01:48:55.362Z</time>
</trkpt>
<trkpt lat="-26.7616116" lon="152.8559916">
<ele>399.797</ele>
<time>2016-10-05T01:48:58.565Z</time>
</trkpt>
<trkpt lat="-26.7614873" lon="152.8558329">
<ele>399.848</ele>
<time>2016-10-05T01:49:01.343Z</time>
</trkpt>
<trkpt lat="-26.7613755" lon="152.8556478">
<ele>400.304</ele>
<time>2016-10-05T01:49:04.251Z</time>
</trkpt>
<trkpt lat="-26.7612852" lon="152.8555597">
<ele>400.928</ele>
<time>2016-10-05T01:49:05.913Z</time>
</trkpt>
<trkpt lat="-26.7611330" lon="152.8553917">
<ele>401.637</ele>
<time>2016-10-05T01:49:08.851Z</time>
</trkpt>
<trkpt lat="-26.7609476" lon="152.8552432">
<ele>402.267</ele>
<time>2016-10-05T01:49:11.895Z</time>
</trkpt>
<trkpt lat="-26.7608135" lon="152.8551360">
<ele>402.493</ele>
<time>2016-10-05T01:49:14.001Z</time>
</trkpt>
<trkpt lat="-26.7606782" lon="152.8550472">
<ele>402.189</ele>
<time>2016-10-05T01:49:15.939Z</time>
</trkpt>
<trkpt lat="-26.7605306" lon="152.8549608">
<ele>401.658</ele>
<time>2016-10-05T01:49:17.978Z</time>
</trkpt>
<trkpt lat="-26.7603274" lon="152.8548266">
<ele>401.280</ele>
<time>2016-10-05T01:49:20.910Z</time>
</trkpt>
<trkpt lat="-26.7601664" lon="152.8547498">
<ele>401.120</ele>
<time>2016-10-05T01:49:23.109Z</time>
</trkpt>
<trkpt lat="-26.7600468" lon="152.8547000">
<ele>401.058</ele>
<time>2016-10-05T01:49:24.661Z</time>
</trkpt>
<trkpt lat="-26.7598304" lon="152.8545519">
<ele>400.927</ele>
<time>2016-10-05T01:49:27.526Z</time>
</trkpt>
<trkpt lat="-26.7595594" lon="152.8543761">
<ele>400.586</ele>
<time>2016-10-05T01:49:30.657Z</time>
</trkpt>
<trkpt lat="-26.7592805" lon="152.8541767">
<ele>400.065</ele>
<time>2016-10-05T01:49:33.782Z</time>
</trkpt>
<trkpt lat="-26.7591025" lon="152.8540640">
<ele>399.481</ele>
<time>2016-10-05T01:49:35.935Z</time>
</trkpt>
<trkpt lat="-26.7588959" lon="152.8538992">
<ele>398.620</ele>
<time>2016-10-05T01:49:39.394Z</time>
</trkpt>
<trkpt lat="-26.7587966" lon="152.8537673">
<ele>396.949</ele>
<time>2016-10-05T01:49:43.557Z</time>
</trkpt>
<trkpt lat="-26.7587390" lon="152.8536691">
<ele>394.406</ele>
<time>2016-10-05T01:49:47.564Z</time>
</trkpt>
<trkpt lat="-26.7586779" lon="152.8535735">
<ele>391.915</ele>
<time>2016-10-05T01:49:50.764Z</time>
</trkpt>
<trkpt lat="-26.7586063" lon="152.8534613">
<ele>390.512</ele>
<time>2016-10-05T01:49:53.730Z</time>
</trkpt>
<trkpt lat="-26.7585725" lon="152.8533214">
<ele>390.265</ele>
<time>2016-10-05T01:49:57.495Z</time>
</trkpt>
<trkpt lat="-26.7585887" lon="152.8532217">
<ele>390.532</ele>
<time>2016-10-05T01:50:00.611Z</time>
</trkpt>
<trkpt lat="-26.7585946" lon="152.8530937">
<ele>390.803</ele>
<time>2016-10-05T01:50:03.739Z</time>
</trkpt>
<trkpt lat="-26.7585047" lon="152.8529851">
<ele>390.995</ele>
<time>2016-10-05T01:50:06.484Z</time>
</trkpt>
<trkpt lat="-26.7583881" lon="152.8528590">
<ele>391.304</ele>
<time>2016-10-05T01:50:09.634Z</time>
</trkpt>
<trkpt lat="-26.7583418" lon="152.8527698">
<ele>391.975</ele>
<time>2016-10-05T01:50:12.119Z</time>
</trkpt>
<trkpt lat="-26.7583409" lon="152.8526529">
<ele>393.035</ele>
<time>2016-10-05T01:50:15.134Z</time>
</trkpt>
<trkpt lat="-26.7582656" lon="152.8525140">
<ele>394.316</ele>
<time>2016-10-05T01:50:19.316Z</time>
</trkpt>
<trkpt lat="-26.7581503" lon="152.8524975">
<ele>395.582</ele>
<time>2016-10-05T01:50:22.400Z</time>
</trkpt>
<trkpt lat="-26.7580492" lon="152.8525304">
<ele>396.529</ele>
<time>2016-10-05T01:50:25.343Z</time>
</trkpt>
<trkpt lat="-26.7579644" lon="152.8525646">
<ele>396.820</ele>
<time>2016-10-05T01:50:28.068Z</time>
</trkpt>
<trkpt lat="-26.7578620" lon="152.8525926">
<ele>396.413</ele>
<time>2016-10-05T01:50:31.894Z</time>
</trkpt>
<trkpt lat="-26.7578215" lon="152.8526979">
<ele>395.721</ele>
<time>2016-10-05T01:50:37.000Z</time>
</trkpt>
<trkpt lat="-26.7578215" lon="152.8526979">
<ele>395.246</ele>
<time>2016-10-05T01:50:41.000Z</time>
</trkpt>
<trkpt lat="-26.7578215" lon="152.8526979">
<ele>395.108</ele>
<time>2016-10-05T02:03:10.849Z</time>
</trkpt>
<trkpt lat="-26.7576749" lon="152.8526450">
<ele>395.153</ele>
<time>2016-10-05T02:03:16.455Z</time>
</trkpt>
<trkpt lat="-26.7574635" lon="152.8526908">
<ele>396.127</ele>
<time>2016-10-05T02:03:20.196Z</time>
</trkpt>
<trkpt lat="-26.7573588" lon="152.8526985">
<ele>398.563</ele>
<time>2016-10-05T02:03:22.061Z</time>
</trkpt>
<trkpt lat="-26.7572659" lon="152.8527115">
<ele>401.100</ele>
<time>2016-10-05T02:03:23.595Z</time>
</trkpt>
<trkpt lat="-26.7570601" lon="152.8527429">
<ele>402.660</ele>
<time>2016-10-05T02:03:26.749Z</time>
</trkpt>
<trkpt lat="-26.7568393" lon="152.8527838">
<ele>404.008</ele>
<time>2016-10-05T02:03:29.904Z</time>
</trkpt>
<trkpt lat="-26.7566420" lon="152.8528464">
<ele>406.042</ele>
<time>2016-10-05T02:03:32.739Z</time>
</trkpt>
<trkpt lat="-26.7564347" lon="152.8529126">
<ele>409.036</ele>
<time>2016-10-05T02:03:35.689Z</time>
</trkpt>
<trkpt lat="-26.7562783" lon="152.8529533">
<ele>412.704</ele>
<time>2016-10-05T02:03:37.876Z</time>
</trkpt>
<trkpt lat="-26.7561320" lon="152.8529997">
<ele>416.332</ele>
<time>2016-10-05T02:03:39.955Z</time>
</trkpt>
<trkpt lat="-26.7559257" lon="152.8530465">
<ele>419.362</ele>
<time>2016-10-05T02:03:42.804Z</time>
</trkpt>
<trkpt lat="-26.7557117" lon="152.8531372">
<ele>422.029</ele>
<time>2016-10-05T02:03:45.636Z</time>
</trkpt>
<trkpt lat="-26.7554978" lon="152.8533492">
<ele>425.140</ele>
<time>2016-10-05T02:03:48.646Z</time>
</trkpt>
<trkpt lat="-26.7552722" lon="152.8535957">
<ele>428.851</ele>
<time>2016-10-05T02:03:51.552Z</time>
</trkpt>
<trkpt lat="-26.7551208" lon="152.8537995">
<ele>432.811</ele>
<time>2016-10-05T02:03:53.485Z</time>
</trkpt>
<trkpt lat="-26.7548788" lon="152.8541462">
<ele>436.676</ele>
<time>2016-10-05T02:03:56.500Z</time>
</trkpt>
<trkpt lat="-26.7547146" lon="152.8543907">
<ele>439.722</ele>
<time>2016-10-05T02:03:58.477Z</time>
</trkpt>
<trkpt lat="-26.7545096" lon="152.8547862">
<ele>441.453</ele>
<time>2016-10-05T02:04:01.418Z</time>
</trkpt>
<trkpt lat="-26.7544106" lon="152.8550720">
<ele>442.235</ele>
<time>2016-10-05T02:04:03.441Z</time>
</trkpt>
<trkpt lat="-26.7542843" lon="152.8554863">
<ele>442.605</ele>
<time>2016-10-05T02:04:06.402Z</time>
</trkpt>
<trkpt lat="-26.7541539" lon="152.8558795">
<ele>442.884</ele>
<time>2016-10-05T02:04:09.255Z</time>
</trkpt>
<trkpt lat="-26.7540229" lon="152.8563127">
<ele>443.288</ele>
<time>2016-10-05T02:04:12.300Z</time>
</trkpt>
<trkpt lat="-26.7537988" lon="152.8566644">
<ele>443.822</ele>
<time>2016-10-05T02:04:15.128Z</time>
</trkpt>
<trkpt lat="-26.7535852" lon="152.8568705">
<ele>444.040</ele>
<time>2016-10-05T02:04:17.110Z</time>
</trkpt>
<trkpt lat="-26.7532466" lon="152.8571835">
<ele>443.474</ele>
<time>2016-10-05T02:04:20.062Z</time>
</trkpt>
<trkpt lat="-26.7530031" lon="152.8574030">
<ele>441.878</ele>
<time>2016-10-05T02:04:22.095Z</time>
</trkpt>
<trkpt lat="-26.7527685" lon="152.8576137">
<ele>439.474</ele>
<time>2016-10-05T02:04:24.099Z</time>
</trkpt>
<trkpt lat="-26.7524762" lon="152.8579361">
<ele>437.326</ele>
<time>2016-10-05T02:04:26.894Z</time>
</trkpt>
<trkpt lat="-26.7523197" lon="152.8582145">
<ele>436.342</ele>
<time>2016-10-05T02:04:28.880Z</time>
</trkpt>
<trkpt lat="-26.7521378" lon="152.8586670">
<ele>436.307</ele>
<time>2016-10-05T02:04:31.862Z</time>
</trkpt>
<trkpt lat="-26.7520401" lon="152.8589516">
<ele>436.555</ele>
<time>2016-10-05T02:04:33.754Z</time>
</trkpt>
<trkpt lat="-26.7519767" lon="152.8592535">
<ele>436.643</ele>
<time>2016-10-05T02:04:35.711Z</time>
</trkpt>
<trkpt lat="-26.7519762" lon="152.8595767">
<ele>436.853</ele>
<time>2016-10-05T02:04:37.712Z</time>
</trkpt>
<trkpt lat="-26.7519983" lon="152.8598979">
<ele>437.849</ele>
<time>2016-10-05T02:04:39.646Z</time>
</trkpt>
<trkpt lat="-26.7520483" lon="152.8604059">
<ele>439.733</ele>
<time>2016-10-05T02:04:42.644Z</time>
</trkpt>
<trkpt lat="-26.7520912" lon="152.8607396">
<ele>441.791</ele>
<time>2016-10-05T02:04:44.614Z</time>
</trkpt>
<trkpt lat="-26.7521218" lon="152.8612228">
<ele>443.319</ele>
<time>2016-10-05T02:04:47.505Z</time>
</trkpt>
<trkpt lat="-26.7520871" lon="152.8615481">
<ele>444.170</ele>
<time>2016-10-05T02:04:49.457Z</time>
</trkpt>
<trkpt lat="-26.7519962" lon="152.8620631">
<ele>444.787</ele>
<time>2016-10-05T02:04:52.465Z</time>
</trkpt>
<trkpt lat="-26.7519153" lon="152.8624014">
<ele>445.541</ele>
<time>2016-10-05T02:04:54.464Z</time>
</trkpt>
<trkpt lat="-26.7518162" lon="152.8628828">
<ele>446.145</ele>
<time>2016-10-05T02:04:57.361Z</time>
</trkpt>
<trkpt lat="-26.7517335" lon="152.8633674">
<ele>446.263</ele>
<time>2016-10-05T02:05:00.329Z</time>
</trkpt>
<trkpt lat="-26.7516887" lon="152.8636720">
<ele>446.197</ele>
<time>2016-10-05T02:05:02.244Z</time>
</trkpt>
<trkpt lat="-26.7516109" lon="152.8641118">
<ele>446.264</ele>
<time>2016-10-05T02:05:05.222Z</time>
</trkpt>
<trkpt lat="-26.7515879" lon="152.8643631">
<ele>446.165</ele>
<time>2016-10-05T02:05:07.085Z</time>
</trkpt>
<trkpt lat="-26.7515134" lon="152.8646358">
<ele>445.608</ele>
<time>2016-10-05T02:05:09.633Z</time>
</trkpt>
<trkpt lat="-26.7512612" lon="152.8647153">
<ele>445.001</ele>
<time>2016-10-05T02:05:12.579Z</time>
</trkpt>
<trkpt lat="-26.7508977" lon="152.8646448">
<ele>445.003</ele>
<time>2016-10-05T02:05:16.139Z</time>
</trkpt>
<trkpt lat="-26.7505957" lon="152.8645408">
<ele>445.954</ele>
<time>2016-10-05T02:05:18.488Z</time>
</trkpt>
<trkpt lat="-26.7501678" lon="152.8643538">
<ele>447.543</ele>
<time>2016-10-05T02:05:21.539Z</time>
</trkpt>
<trkpt lat="-26.7497387" lon="152.8641276">
<ele>448.912</ele>
<time>2016-10-05T02:05:24.562Z</time>
</trkpt>
<trkpt lat="-26.7494514" lon="152.8639829">
<ele>449.548</ele>
<time>2016-10-05T02:05:26.600Z</time>
</trkpt>
<trkpt lat="-26.7490846" lon="152.8637482">
<ele>449.532</ele>
<time>2016-10-05T02:05:29.416Z</time>
</trkpt>
<trkpt lat="-26.7488832" lon="152.8635306">
<ele>449.186</ele>
<time>2016-10-05T02:05:31.402Z</time>
</trkpt>
<trkpt lat="-26.7486026" lon="152.8633160">
<ele>448.926</ele>
<time>2016-10-05T02:05:34.085Z</time>
</trkpt>
<trkpt lat="-26.7483632" lon="152.8632785">
<ele>448.981</ele>
<time>2016-10-05T02:05:36.134Z</time>
</trkpt>
<trkpt lat="-26.7480934" lon="152.8632955">
<ele>449.208</ele>
<time>2016-10-05T02:05:38.203Z</time>
</trkpt>
<trkpt lat="-26.7476358" lon="152.8633259">
<ele>449.192</ele>
<time>2016-10-05T02:05:41.315Z</time>
</trkpt>
<trkpt lat="-26.7473108" lon="152.8633704">
<ele>447.932</ele>
<time>2016-10-05T02:05:43.354Z</time>
</trkpt>
<trkpt lat="-26.7468440" lon="152.8634316">
<ele>444.728</ele>
<time>2016-10-05T02:05:46.219Z</time>
</trkpt>
<trkpt lat="-26.7465345" lon="152.8634541">
<ele>440.178</ele>
<time>2016-10-05T02:05:48.184Z</time>
</trkpt>
<trkpt lat="-26.7461654" lon="152.8633129">
<ele>435.628</ele>
<time>2016-10-05T02:05:50.958Z</time>
</trkpt>
<trkpt lat="-26.7459965" lon="152.8631064">
<ele>431.956</ele>
<time>2016-10-05T02:05:52.927Z</time>
</trkpt>
<trkpt lat="-26.7458761" lon="152.8628606">
<ele>429.406</ele>
<time>2016-10-05T02:05:54.865Z</time>
</trkpt>
<trkpt lat="-26.7456501" lon="152.8624980">
<ele>427.875</ele>
<time>2016-10-05T02:05:57.884Z</time>
</trkpt>
<trkpt lat="-26.7454604" lon="152.8622888">
<ele>426.823</ele>
<time>2016-10-05T02:05:59.910Z</time>
</trkpt>
<trkpt lat="-26.7452014" lon="152.8621185">
<ele>425.540</ele>
<time>2016-10-05T02:06:02.095Z</time>
</trkpt>
<trkpt lat="-26.7447523" lon="152.8619125">
<ele>423.794</ele>
<time>2016-10-05T02:06:05.283Z</time>
</trkpt>
<trkpt lat="-26.7444422" lon="152.8617881">
<ele>421.465</ele>
<time>2016-10-05T02:06:07.305Z</time>
</trkpt>
<trkpt lat="-26.7441070" lon="152.8616331">
<ele>418.611</ele>
<time>2016-10-05T02:06:09.476Z</time>
</trkpt>
<trkpt lat="-26.7436888" lon="152.8614568">
<ele>415.872</ele>
<time>2016-10-05T02:06:12.222Z</time>
</trkpt>
<trkpt lat="-26.7433959" lon="152.8613393">
<ele>413.998</ele>
<time>2016-10-05T02:06:14.255Z</time>
</trkpt>
<trkpt lat="-26.7429812" lon="152.8611928">
<ele>413.295</ele>
<time>2016-10-05T02:06:17.145Z</time>
</trkpt>
<trkpt lat="-26.7426701" lon="152.8611379">
<ele>413.612</ele>
<time>2016-10-05T02:06:19.233Z</time>
</trkpt>
<trkpt lat="-26.7421778" lon="152.8612002">
<ele>414.459</ele>
<time>2016-10-05T02:06:22.400Z</time>
</trkpt>
<trkpt lat="-26.7417138" lon="152.8612820">
<ele>415.552</ele>
<time>2016-10-05T02:06:25.375Z</time>
</trkpt>
<trkpt lat="-26.7414131" lon="152.8614494">
<ele>416.797</ele>
<time>2016-10-05T02:06:27.479Z</time>
</trkpt>
<trkpt lat="-26.7410485" lon="152.8618495">
<ele>417.728</ele>
<time>2016-10-05T02:06:30.562Z</time>
</trkpt>
<trkpt lat="-26.7406427" lon="152.8621662">
<ele>417.633</ele>
<time>2016-10-05T02:06:33.516Z</time>
</trkpt>
<trkpt lat="-26.7403997" lon="152.8623654">
<ele>416.175</ele>
<time>2016-10-05T02:06:35.377Z</time>
</trkpt>
<trkpt lat="-26.7401945" lon="152.8626032">
<ele>413.415</ele>
<time>2016-10-05T02:06:37.345Z</time>
</trkpt>
<trkpt lat="-26.7399141" lon="152.8628636">
<ele>410.076</ele>
<time>2016-10-05T02:06:40.030Z</time>
</trkpt>
<trkpt lat="-26.7397091" lon="152.8630437">
<ele>406.871</ele>
<time>2016-10-05T02:06:42.048Z</time>
</trkpt>
<trkpt lat="-26.7394822" lon="152.8632484">
<ele>404.032</ele>
<time>2016-10-05T02:06:44.159Z</time>
</trkpt>
<trkpt lat="-26.7392401" lon="152.8634375">
<ele>401.639</ele>
<time>2016-10-05T02:06:46.214Z</time>
</trkpt>
<trkpt lat="-26.7389645" lon="152.8635757">
<ele>399.642</ele>
<time>2016-10-05T02:06:48.304Z</time>
</trkpt>
<trkpt lat="-26.7385497" lon="152.8636449">
<ele>397.522</ele>
<time>2016-10-05T02:06:51.225Z</time>
</trkpt>
<trkpt lat="-26.7382477" lon="152.8635461">
<ele>395.082</ele>
<time>2016-10-05T02:06:53.379Z</time>
</trkpt>
<trkpt lat="-26.7379738" lon="152.8634358">
<ele>392.960</ele>
<time>2016-10-05T02:06:55.372Z</time>
</trkpt>
<trkpt lat="-26.7376316" lon="152.8634591">
<ele>391.829</ele>
<time>2016-10-05T02:06:57.960Z</time>
</trkpt>
<trkpt lat="-26.7374284" lon="152.8636176">
<ele>391.592</ele>
<time>2016-10-05T02:07:00.080Z</time>
</trkpt>
<trkpt lat="-26.7372602" lon="152.8638486">
<ele>391.814</ele>
<time>2016-10-05T02:07:02.257Z</time>
</trkpt>
<trkpt lat="-26.7371792" lon="152.8642513">
<ele>392.557</ele>
<time>2016-10-05T02:07:05.276Z</time>
</trkpt>
<trkpt lat="-26.7369705" lon="152.8644135">
<ele>393.966</ele>
<time>2016-10-05T02:07:07.331Z</time>
</trkpt>
<trkpt lat="-26.7367341" lon="152.8646029">
<ele>395.816</ele>
<time>2016-10-05T02:07:09.454Z</time>
</trkpt>
<trkpt lat="-26.7364306" lon="152.8649566">
<ele>397.863</ele>
<time>2016-10-05T02:07:12.510Z</time>
</trkpt>
<trkpt lat="-26.7362295" lon="152.8651451">
<ele>400.415</ele>
<time>2016-10-05T02:07:14.369Z</time>
</trkpt>
<trkpt lat="-26.7360026" lon="152.8653332">
<ele>403.437</ele>
<time>2016-10-05T02:07:16.394Z</time>
</trkpt>
<trkpt lat="-26.7358158" lon="152.8655365">
<ele>405.908</ele>
<time>2016-10-05T02:07:18.330Z</time>
</trkpt>
<trkpt lat="-26.7356790" lon="152.8659564">
<ele>407.165</ele>
<time>2016-10-05T02:07:21.369Z</time>
</trkpt>
<trkpt lat="-26.7356664" lon="152.8662832">
<ele>407.679</ele>
<time>2016-10-05T02:07:23.499Z</time>
</trkpt>
<trkpt lat="-26.7356667" lon="152.8667609">
<ele>407.860</ele>
<time>2016-10-05T02:07:26.522Z</time>
</trkpt>
<trkpt lat="-26.7356495" lon="152.8670871">
<ele>407.854</ele>
<time>2016-10-05T02:07:28.563Z</time>
</trkpt>
<trkpt lat="-26.7356238" lon="152.8673905">
<ele>407.770</ele>
<time>2016-10-05T02:07:30.505Z</time>
</trkpt>
<trkpt lat="-26.7355441" lon="152.8678458">
<ele>407.620</ele>
<time>2016-10-05T02:07:33.534Z</time>
</trkpt>
<trkpt lat="-26.7354364" lon="152.8682691">
<ele>407.378</ele>
<time>2016-10-05T02:07:36.433Z</time>
</trkpt>
<trkpt lat="-26.7351597" lon="152.8686650">
<ele>406.534</ele>
<time>2016-10-05T02:07:39.622Z</time>
</trkpt>
<trkpt lat="-26.7347633" lon="152.8689257">
<ele>404.221</ele>
<time>2016-10-05T02:07:42.654Z</time>
</trkpt>
<trkpt lat="-26.7342852" lon="152.8691169">
<ele>400.256</ele>
<time>2016-10-05T02:07:45.790Z</time>
</trkpt>
<trkpt lat="-26.7340018" lon="152.8692388">
<ele>395.686</ele>
<time>2016-10-05T02:07:47.632Z</time>
</trkpt>
<trkpt lat="-26.7337241" lon="152.8694582">
<ele>392.123</ele>
<time>2016-10-05T02:07:49.730Z</time>
</trkpt>
<trkpt lat="-26.7333598" lon="152.8698241">
<ele>390.400</ele>
<time>2016-10-05T02:07:52.776Z</time>
</trkpt>
<trkpt lat="-26.7331093" lon="152.8700191">
<ele>389.683</ele>
<time>2016-10-05T02:07:54.659Z</time>
</trkpt>
<trkpt lat="-26.7326282" lon="152.8701634">
<ele>388.562</ele>
<time>2016-10-05T02:07:57.644Z</time>
</trkpt>
<trkpt lat="-26.7323138" lon="152.8702332">
<ele>386.872</ele>
<time>2016-10-05T02:07:59.508Z</time>
</trkpt>
<trkpt lat="-26.7318452" lon="152.8703652">
<ele>385.655</ele>
<time>2016-10-05T02:08:02.370Z</time>
</trkpt>
<trkpt lat="-26.7316357" lon="152.8705200">
<ele>385.659</ele>
<time>2016-10-05T02:08:03.979Z</time>
</trkpt>
<trkpt lat="-26.7312833" lon="152.8708248">
<ele>386.749</ele>
<time>2016-10-05T02:08:07.038Z</time>
</trkpt>
<trkpt lat="-26.7308846" lon="152.8710382">
<ele>388.259</ele>
<time>2016-10-05T02:08:09.992Z</time>
</trkpt>
<trkpt lat="-26.7305683" lon="152.8710429">
<ele>389.440</ele>
<time>2016-10-05T02:08:12.022Z</time>
</trkpt>
<trkpt lat="-26.7302384" lon="152.8709884">
<ele>389.976</ele>
<time>2016-10-05T02:08:14.081Z</time>
</trkpt>
<trkpt lat="-26.7299356" lon="152.8709398">
<ele>390.134</ele>
<time>2016-10-05T02:08:15.997Z</time>
</trkpt>
<trkpt lat="-26.7296423" lon="152.8709076">
<ele>390.269</ele>
<time>2016-10-05T02:08:17.902Z</time>
</trkpt>
<trkpt lat="-26.7291694" lon="152.8708555">
<ele>390.384</ele>
<time>2016-10-05T02:08:20.854Z</time>
</trkpt>
<trkpt lat="-26.7286920" lon="152.8708049">
<ele>390.369</ele>
<time>2016-10-05T02:08:23.832Z</time>
</trkpt>
<trkpt lat="-26.7282578" lon="152.8707180">
<ele>389.828</ele>
<time>2016-10-05T02:08:26.738Z</time>
</trkpt>
<trkpt lat="-26.7279763" lon="152.8706029">
<ele>388.234</ele>
<time>2016-10-05T02:08:28.747Z</time>
</trkpt>
<trkpt lat="-26.7277227" lon="152.8703704">
<ele>385.680</ele>
<time>2016-10-05T02:08:30.873Z</time>
</trkpt>
<trkpt lat="-26.7273086" lon="152.8700400">
<ele>382.764</ele>
<time>2016-10-05T02:08:33.961Z</time>
</trkpt>
<trkpt lat="-26.7270463" lon="152.8698347">
<ele>379.405</ele>
<time>2016-10-05T02:08:35.881Z</time>
</trkpt>
<trkpt lat="-26.7267922" lon="152.8697001">
<ele>375.454</ele>
<time>2016-10-05T02:08:37.709Z</time>
</trkpt>
<trkpt lat="-26.7263453" lon="152.8698034">
<ele>371.968</ele>
<time>2016-10-05T02:08:40.871Z</time>
</trkpt>
<trkpt lat="-26.7259675" lon="152.8700259">
<ele>370.376</ele>
<time>2016-10-05T02:08:43.877Z</time>
</trkpt>
<trkpt lat="-26.7257299" lon="152.8699775">
<ele>370.610</ele>
<time>2016-10-05T02:08:45.708Z</time>
</trkpt>
<trkpt lat="-26.7255292" lon="152.8699270">
<ele>371.038</ele>
<time>2016-10-05T02:08:47.436Z</time>
</trkpt>
<trkpt lat="-26.7253551" lon="152.8696561">
<ele>370.296</ele>
<time>2016-10-05T02:08:50.024Z</time>
</trkpt>
<trkpt lat="-26.7252249" lon="152.8694450">
<ele>368.646</ele>
<time>2016-10-05T02:08:51.916Z</time>
</trkpt>
<trkpt lat="-26.7250176" lon="152.8691754">
<ele>366.571</ele>
<time>2016-10-05T02:08:54.835Z</time>
</trkpt>
<trkpt lat="-26.7247182" lon="152.8693650">
<ele>363.644</ele>
<time>2016-10-05T02:08:58.349Z</time>
</trkpt>
<trkpt lat="-26.7245282" lon="152.8695768">
<ele>359.885</ele>
<time>2016-10-05T02:09:00.722Z</time>
</trkpt>
<trkpt lat="-26.7243388" lon="152.8698809">
<ele>356.172</ele>
<time>2016-10-05T02:09:03.511Z</time>
</trkpt>
<trkpt lat="-26.7243281" lon="152.8702827">
<ele>352.798</ele>
<time>2016-10-05T02:09:06.448Z</time>
</trkpt>
<trkpt lat="-26.7244350" lon="152.8706255">
<ele>349.474</ele>
<time>2016-10-05T02:09:08.749Z</time>
</trkpt>
<trkpt lat="-26.7243947" lon="152.8711063">
<ele>346.337</ele>
<time>2016-10-05T02:09:11.643Z</time>
</trkpt>
<trkpt lat="-26.7242844" lon="152.8714026">
<ele>343.394</ele>
<time>2016-10-05T02:09:13.590Z</time>
</trkpt>
<trkpt lat="-26.7241143" lon="152.8716582">
<ele>340.086</ele>
<time>2016-10-05T02:09:15.537Z</time>
</trkpt>
<trkpt lat="-26.7238982" lon="152.8718648">
<ele>336.327</ele>
<time>2016-10-05T02:09:17.449Z</time>
</trkpt>
<trkpt lat="-26.7234821" lon="152.8720856">
<ele>332.521</ele>
<time>2016-10-05T02:09:20.414Z</time>
</trkpt>
<trkpt lat="-26.7230156" lon="152.8722564">
<ele>328.349</ele>
<time>2016-10-05T02:09:23.421Z</time>
</trkpt>
<trkpt lat="-26.7227356" lon="152.8723399">
<ele>323.450</ele>
<time>2016-10-05T02:09:25.218Z</time>
</trkpt>
<trkpt lat="-26.7224516" lon="152.8724616">
<ele>318.677</ele>
<time>2016-10-05T02:09:27.198Z</time>
</trkpt>
<trkpt lat="-26.7220409" lon="152.8726182">
<ele>314.725</ele>
<time>2016-10-05T02:09:30.123Z</time>
</trkpt>
<trkpt lat="-26.7217536" lon="152.8727091">
<ele>311.241</ele>
<time>2016-10-05T02:09:32.174Z</time>
</trkpt>
<trkpt lat="-26.7213693" lon="152.8728198">
<ele>308.001</ele>
<time>2016-10-05T02:09:35.032Z</time>
</trkpt>
<trkpt lat="-26.7209911" lon="152.8728532">
<ele>304.712</ele>
<time>2016-10-05T02:09:38.034Z</time>
</trkpt>
<trkpt lat="-26.7207638" lon="152.8728113">
<ele>301.132</ele>
<time>2016-10-05T02:09:39.922Z</time>
</trkpt>
<trkpt lat="-26.7205073" lon="152.8728240">
<ele>297.996</ele>
<time>2016-10-05T02:09:41.958Z</time>
</trkpt>
<trkpt lat="-26.7202434" lon="152.8728372">
<ele>295.838</ele>
<time>2016-10-05T02:09:43.980Z</time>
</trkpt>
<trkpt lat="-26.7198772" lon="152.8726719">
<ele>293.727</ele>
<time>2016-10-05T02:09:47.021Z</time>
</trkpt>
<trkpt lat="-26.7197400" lon="152.8724902">
<ele>290.640</ele>
<time>2016-10-05T02:09:48.795Z</time>
</trkpt>
<trkpt lat="-26.7194630" lon="152.8723850">
<ele>286.827</ele>
<time>2016-10-05T02:09:51.545Z</time>
</trkpt>
<trkpt lat="-26.7191590" lon="152.8725875">
<ele>283.142</ele>
<time>2016-10-05T02:09:54.633Z</time>
</trkpt>
<trkpt lat="-26.7189197" lon="152.8726614">
<ele>279.915</ele>
<time>2016-10-05T02:09:56.566Z</time>
</trkpt>
<trkpt lat="-26.7185338" lon="152.8724746">
<ele>277.220</ele>
<time>2016-10-05T02:09:59.800Z</time>
</trkpt>
<trkpt lat="-26.7182848" lon="152.8722446">
<ele>274.919</ele>
<time>2016-10-05T02:10:02.169Z</time>
</trkpt>
<trkpt lat="-26.7180568" lon="152.8720801">
<ele>272.511</ele>
<time>2016-10-05T02:10:04.156Z</time>
</trkpt>
<trkpt lat="-26.7178478" lon="152.8716994">
<ele>269.623</ele>
<time>2016-10-05T02:10:07.151Z</time>
</trkpt>
<trkpt lat="-26.7177325" lon="152.8714670">
<ele>266.200</ele>
<time>2016-10-05T02:10:09.048Z</time>
</trkpt>
<trkpt lat="-26.7175980" lon="152.8712882">
<ele>262.391</ele>
<time>2016-10-05T02:10:10.764Z</time>
</trkpt>
<trkpt lat="-26.7171785" lon="152.8712170">
<ele>258.702</ele>
<time>2016-10-05T02:10:14.050Z</time>
</trkpt>
<trkpt lat="-26.7168810" lon="152.8711192">
<ele>255.207</ele>
<time>2016-10-05T02:10:16.155Z</time>
</trkpt>
<trkpt lat="-26.7165817" lon="152.8710771">
<ele>251.191</ele>
<time>2016-10-05T02:10:18.180Z</time>
</trkpt>
<trkpt lat="-26.7163082" lon="152.8711100">
<ele>246.514</ele>
<time>2016-10-05T02:10:20.068Z</time>
</trkpt>
<trkpt lat="-26.7158781" lon="152.8712319">
<ele>241.990</ele>
<time>2016-10-05T02:10:23.174Z</time>
</trkpt>
<trkpt lat="-26.7156375" lon="152.8713645">
<ele>238.192</ele>
<time>2016-10-05T02:10:25.215Z</time>
</trkpt>
<trkpt lat="-26.7153116" lon="152.8715010">
<ele>235.252</ele>
<time>2016-10-05T02:10:28.256Z</time>
</trkpt>
<trkpt lat="-26.7150601" lon="152.8715520">
<ele>233.197</ele>
<time>2016-10-05T02:10:31.168Z</time>
</trkpt>
<trkpt lat="-26.7149713" lon="152.8715906">
<ele>231.862</ele>
<time>2016-10-05T02:10:32.737Z</time>
</trkpt>
<trkpt lat="-26.7148580" lon="152.8716006">
<ele>230.803</ele>
<time>2016-10-05T02:10:35.055Z</time>
</trkpt>
<trkpt lat="-26.7147259" lon="152.8716541">
<ele>229.735</ele>
<time>2016-10-05T02:10:38.121Z</time>
</trkpt>
<trkpt lat="-26.7145466" lon="152.8717012">
<ele>228.791</ele>
<time>2016-10-05T02:10:41.348Z</time>
</trkpt>
<trkpt lat="-26.7143786" lon="152.8717524">
<ele>228.049</ele>
<time>2016-10-05T02:10:44.161Z</time>
</trkpt>
<trkpt lat="-26.7142459" lon="152.8717928">
<ele>227.186</ele>
<time>2016-10-05T02:10:46.252Z</time>
</trkpt>
<trkpt lat="-26.7140246" lon="152.8718670">
<ele>225.946</ele>
<time>2016-10-05T02:10:49.453Z</time>
</trkpt>
<trkpt lat="-26.7138285" lon="152.8718795">
<ele>224.378</ele>
<time>2016-10-05T02:10:52.171Z</time>
</trkpt>
<trkpt lat="-26.7136574" lon="152.8719109">
<ele>222.692</ele>
<time>2016-10-05T02:10:55.171Z</time>
</trkpt>
<trkpt lat="-26.7135669" lon="152.8719262">
<ele>221.263</ele>
<time>2016-10-05T02:10:57.494Z</time>
</trkpt>
<trkpt lat="-26.7134656" lon="152.8719218">
<ele>220.425</ele>
<time>2016-10-05T02:11:02.029Z</time>
</trkpt>
<trkpt lat="-26.7133822" lon="152.8719772">
<ele>220.091</ele>
<time>2016-10-05T02:11:07.965Z</time>
</trkpt>
<trkpt lat="-26.7133935" lon="152.8720778">
<ele>219.982</ele>
<time>2016-10-05T02:11:14.249Z</time>
</trkpt>
<trkpt lat="-26.7134635" lon="152.8721410">
<ele>219.936</ele>
<time>2016-10-05T02:11:18.799Z</time>
</trkpt>
<trkpt lat="-26.7135510" lon="152.8721948">
<ele>219.906</ele>
<time>2016-10-05T02:11:23.000Z</time>
</trkpt>
<trkpt lat="-26.7135510" lon="152.8721948">
<ele>219.853</ele>
<time>2016-10-05T02:11:27.000Z</time>
</trkpt>
<trkpt lat="-26.7135510" lon="152.8721948">
<ele>219.756</ele>
<time>2016-10-05T02:13:21.994Z</time>
</trkpt>
<trkpt lat="-26.7137070" lon="152.8722352">
<ele>219.652</ele>
<time>2016-10-05T02:13:31.615Z</time>
</trkpt>
<trkpt lat="-26.7137965" lon="152.8721970">
<ele>219.582</ele>
<time>2016-10-05T02:13:34.430Z</time>
</trkpt>
<trkpt lat="-26.7138903" lon="152.8721296">
<ele>219.534</ele>
<time>2016-10-05T02:13:37.402Z</time>
</trkpt>
<trkpt lat="-26.7139725" lon="152.8720545">
<ele>219.551</ele>
<time>2016-10-05T02:13:40.525Z</time>
</trkpt>
<trkpt lat="-26.7140138" lon="152.8719642">
<ele>219.709</ele>
<time>2016-10-05T02:13:44.145Z</time>
</trkpt>
<trkpt lat="-26.7139451" lon="152.8718751">
<ele>219.964</ele>
<time>2016-10-05T02:13:48.544Z</time>
</trkpt>
<trkpt lat="-26.7138513" lon="152.8718725">
<ele>220.178</ele>
<time>2016-10-05T02:13:51.564Z</time>
</trkpt>
<trkpt lat="-26.7137445" lon="152.8719086">
<ele>220.241</ele>
<time>2016-10-05T02:13:54.726Z</time>
</trkpt>
<trkpt lat="-26.7136378" lon="152.8719346">
<ele>220.156</ele>
<time>2016-10-05T02:13:57.967Z</time>
</trkpt>
<trkpt lat="-26.7135406" lon="152.8719795">
<ele>220.031</ele>
<time>2016-10-05T02:14:01.670Z</time>
</trkpt>
<trkpt lat="-26.7134464" lon="152.8719716">
<ele>219.932</ele>
<time>2016-10-05T02:14:07.035Z</time>
</trkpt>
<trkpt lat="-26.7134333" lon="152.8718596">
<ele>219.859</ele>
<time>2016-10-05T02:14:13.000Z</time>
</trkpt>
<trkpt lat="-26.7134333" lon="152.8718596">
<ele>219.818</ele>
<time>2016-10-05T02:14:24.000Z</time>
</trkpt>
<trkpt lat="-26.7134333" lon="152.8718596">
<ele>219.769</ele>
<time>2016-10-05T02:49:03.658Z</time>
</trkpt>
<trkpt lat="-26.7134639" lon="152.8720485">
<ele>219.682</ele>
<time>2016-10-05T02:49:16.828Z</time>
</trkpt>
<trkpt lat="-26.7134889" lon="152.8721687">
<ele>219.208</ele>
<time>2016-10-05T02:49:21.361Z</time>
</trkpt>
<trkpt lat="-26.7136012" lon="152.8721938">
<ele>218.095</ele>
<time>2016-10-05T02:49:26.081Z</time>
</trkpt>
<trkpt lat="-26.7137130" lon="152.8721701">
<ele>216.898</ele>
<time>2016-10-05T02:49:29.829Z</time>
</trkpt>
<trkpt lat="-26.7138193" lon="152.8721286">
<ele>216.256</ele>
<time>2016-10-05T02:49:32.499Z</time>
</trkpt>
<trkpt lat="-26.7139431" lon="152.8720566">
<ele>216.200</ele>
<time>2016-10-05T02:49:35.129Z</time>
</trkpt>
<trkpt lat="-26.7140065" lon="152.8719534">
<ele>216.544</ele>
<time>2016-10-05T02:49:37.094Z</time>
</trkpt>
<trkpt lat="-26.7141465" lon="152.8718364">
<ele>217.057</ele>
<time>2016-10-05T02:49:39.711Z</time>
</trkpt>
<trkpt lat="-26.7142919" lon="152.8718009">
<ele>217.651</ele>
<time>2016-10-05T02:49:41.758Z</time>
</trkpt>
<trkpt lat="-26.7145158" lon="152.8717430">
<ele>218.493</ele>
<time>2016-10-05T02:49:44.944Z</time>
</trkpt>
<trkpt lat="-26.7146145" lon="152.8716549">
<ele>219.892</ele>
<time>2016-10-05T02:49:46.850Z</time>
</trkpt>
<trkpt lat="-26.7147549" lon="152.8716283">
<ele>221.782</ele>
<time>2016-10-05T02:49:49.181Z</time>
</trkpt>
<trkpt lat="-26.7149100" lon="152.8715733">
<ele>223.528</ele>
<time>2016-10-05T02:49:52.364Z</time>
</trkpt>
<trkpt lat="-26.7150434" lon="152.8715569">
<ele>224.650</ele>
<time>2016-10-05T02:49:54.641Z</time>
</trkpt>
<trkpt lat="-26.7151722" lon="152.8715190">
<ele>225.267</ele>
<time>2016-10-05T02:49:56.416Z</time>
</trkpt>
<trkpt lat="-26.7153404" lon="152.8714697">
<ele>225.778</ele>
<time>2016-10-05T02:49:58.261Z</time>
</trkpt>
<trkpt lat="-26.7157052" lon="152.8713754">
<ele>226.469</ele>
<time>2016-10-05T02:50:01.532Z</time>
</trkpt>
<trkpt lat="-26.7159540" lon="152.8712935">
<ele>227.341</ele>
<time>2016-10-05T02:50:03.530Z</time>
</trkpt>
<trkpt lat="-26.7162213" lon="152.8712050">
<ele>228.186</ele>
<time>2016-10-05T02:50:05.593Z</time>
</trkpt>
<trkpt lat="-26.7166211" lon="152.8711058">
<ele>229.243</ele>
<time>2016-10-05T02:50:08.505Z</time>
</trkpt>
<trkpt lat="-26.7169163" lon="152.8711299">
<ele>230.953</ele>
<time>2016-10-05T02:50:10.564Z</time>
</trkpt>
<trkpt lat="-26.7173470" lon="152.8712085">
<ele>233.041</ele>
<time>2016-10-05T02:50:13.820Z</time>
</trkpt>
<trkpt lat="-26.7175875" lon="152.8712749">
<ele>235.634</ele>
<time>2016-10-05T02:50:15.859Z</time>
</trkpt>
<trkpt lat="-26.7178238" lon="152.8715444">
<ele>239.518</ele>
<time>2016-10-05T02:50:18.665Z</time>
</trkpt>
<trkpt lat="-26.7179369" lon="152.8717907">
<ele>244.583</ele>
<time>2016-10-05T02:50:20.579Z</time>
</trkpt>
<trkpt lat="-26.7181102" lon="152.8720351">
<ele>249.803</ele>
<time>2016-10-05T02:50:22.665Z</time>
</trkpt>
<trkpt lat="-26.7183317" lon="152.8722141">
<ele>254.279</ele>
<time>2016-10-05T02:50:24.725Z</time>
</trkpt>
<trkpt lat="-26.7186480" lon="152.8724673">
<ele>257.952</ele>
<time>2016-10-05T02:50:27.823Z</time>
</trkpt>
<trkpt lat="-26.7188616" lon="152.8725878">
<ele>261.595</ele>
<time>2016-10-05T02:50:29.747Z</time>
</trkpt>
<trkpt lat="-26.7192232" lon="152.8726025">
<ele>265.293</ele>
<time>2016-10-05T02:50:32.629Z</time>
</trkpt>
<trkpt lat="-26.7196151" lon="152.8724387">
<ele>268.483</ele>
<time>2016-10-05T02:50:36.175Z</time>
</trkpt>
<trkpt lat="-26.7199229" lon="152.8725649">
<ele>270.973</ele>
<time>2016-10-05T02:50:38.924Z</time>
</trkpt>
<trkpt lat="-26.7201071" lon="152.8727433">
<ele>273.594</ele>
<time>2016-10-05T02:50:40.795Z</time>
</trkpt>
<trkpt lat="-26.7203471" lon="152.8728992">
<ele>276.889</ele>
<time>2016-10-05T02:50:42.813Z</time>
</trkpt>
<trkpt lat="-26.7206146" lon="152.8729422">
<ele>280.008</ele>
<time>2016-10-05T02:50:44.728Z</time>
</trkpt>
<trkpt lat="-26.7208827" lon="152.8729825">
<ele>282.379</ele>
<time>2016-10-05T02:50:46.624Z</time>
</trkpt>
<trkpt lat="-26.7211582" lon="152.8729796">
<ele>285.121</ele>
<time>2016-10-05T02:50:48.521Z</time>
</trkpt>
<trkpt lat="-26.7215926" lon="152.8728874">
<ele>288.739</ele>
<time>2016-10-05T02:50:51.337Z</time>
</trkpt>
<trkpt lat="-26.7219281" lon="152.8726922">
<ele>292.698</ele>
<time>2016-10-05T02:50:53.643Z</time>
</trkpt>
<trkpt lat="-26.7222292" lon="152.8725509">
<ele>296.495</ele>
<time>2016-10-05T02:50:55.673Z</time>
</trkpt>
<trkpt lat="-26.7226567" lon="152.8723259">
<ele>299.585</ele>
<time>2016-10-05T02:50:58.698Z</time>
</trkpt>
<trkpt lat="-26.7229381" lon="152.8721904">
<ele>302.043</ele>
<time>2016-10-05T02:51:00.684Z</time>
</trkpt>
<trkpt lat="-26.7232201" lon="152.8720829">
<ele>304.538</ele>
<time>2016-10-05T02:51:02.584Z</time>
</trkpt>
<trkpt lat="-26.7236966" lon="152.8719124">
<ele>307.057</ele>
<time>2016-10-05T02:51:05.664Z</time>
</trkpt>
<trkpt lat="-26.7239974" lon="152.8717548">
<ele>310.066</ele>
<time>2016-10-05T02:51:07.778Z</time>
</trkpt>
<trkpt lat="-26.7242260" lon="152.8715537">
<ele>314.115</ele>
<time>2016-10-05T02:51:09.687Z</time>
</trkpt>
<trkpt lat="-26.7244666" lon="152.8711468">
<ele>318.460</ele>
<time>2016-10-05T02:51:12.533Z</time>
</trkpt>
<trkpt lat="-26.7245636" lon="152.8706290">
<ele>322.749</ele>
<time>2016-10-05T02:51:15.516Z</time>
</trkpt>
<trkpt lat="-26.7245645" lon="152.8702617">
<ele>327.621</ele>
<time>2016-10-05T02:51:17.586Z</time>
</trkpt>
<trkpt lat="-26.7244160" lon="152.8697870">
<ele>332.911</ele>
<time>2016-10-05T02:51:20.505Z</time>
</trkpt>
<trkpt lat="-26.7244283" lon="152.8694457">
<ele>337.945</ele>
<time>2016-10-05T02:51:22.763Z</time>
</trkpt>
<trkpt lat="-26.7246372" lon="152.8693039">
<ele>342.344</ele>
<time>2016-10-05T02:51:24.830Z</time>
</trkpt>
<trkpt lat="-26.7249185" lon="152.8691177">
<ele>345.963</ele>
<time>2016-10-05T02:51:28.025Z</time>
</trkpt>
<trkpt lat="-26.7252020" lon="152.8692765">
<ele>348.878</ele>
<time>2016-10-05T02:51:30.871Z</time>
</trkpt>
<trkpt lat="-26.7254176" lon="152.8696143">
<ele>351.516</ele>
<time>2016-10-05T02:51:33.856Z</time>
</trkpt>
<trkpt lat="-26.7256430" lon="152.8699462">
<ele>354.437</ele>
<time>2016-10-05T02:51:36.903Z</time>
</trkpt>
<trkpt lat="-26.7258768" lon="152.8700585">
<ele>357.798</ele>
<time>2016-10-05T02:51:38.918Z</time>
</trkpt>
<trkpt lat="-26.7261244" lon="152.8699814">
<ele>361.137</ele>
<time>2016-10-05T02:51:40.820Z</time>
</trkpt>
<trkpt lat="-26.7263774" lon="152.8697900">
<ele>364.290</ele>
<time>2016-10-05T02:51:43.001Z</time>
</trkpt>
<trkpt lat="-26.7267867" lon="152.8697053">
<ele>367.051</ele>
<time>2016-10-05T02:51:45.720Z</time>
</trkpt>
<trkpt lat="-26.7272161" lon="152.8699540">
<ele>368.574</ele>
<time>2016-10-05T02:51:48.403Z</time>
</trkpt>
<trkpt lat="-26.7275211" lon="152.8702342">
<ele>368.607</ele>
<time>2016-10-05T02:51:50.454Z</time>
</trkpt>
<trkpt lat="-26.7279722" lon="152.8705901">
<ele>368.344</ele>
<time>2016-10-05T02:51:53.325Z</time>
</trkpt>
<trkpt lat="-26.7283238" lon="152.8707782">
<ele>369.637</ele>
<time>2016-10-05T02:51:55.303Z</time>
</trkpt>
<trkpt lat="-26.7287192" lon="152.8709112">
<ele>373.523</ele>
<time>2016-10-05T02:51:57.437Z</time>
</trkpt>
<trkpt lat="-26.7292143" lon="152.8708947">
<ele>379.071</ele>
<time>2016-10-05T02:52:00.080Z</time>
</trkpt>
<trkpt lat="-26.7297646" lon="152.8709441">
<ele>384.102</ele>
<time>2016-10-05T02:52:03.124Z</time>
</trkpt>
<trkpt lat="-26.7301082" lon="152.8709807">
<ele>387.347</ele>
<time>2016-10-05T02:52:05.143Z</time>
</trkpt>
<trkpt lat="-26.7305918" lon="152.8710622">
<ele>388.955</ele>
<time>2016-10-05T02:52:07.994Z</time>
</trkpt>
<trkpt lat="-26.7311181" lon="152.8710383">
<ele>389.487</ele>
<time>2016-10-05T02:52:11.172Z</time>
</trkpt>
<trkpt lat="-26.7313247" lon="152.8708601">
<ele>389.471</ele>
<time>2016-10-05T02:52:12.917Z</time>
</trkpt>
<trkpt lat="-26.7315555" lon="152.8706419">
<ele>389.480</ele>
<time>2016-10-05T02:52:15.027Z</time>
</trkpt>
<trkpt lat="-26.7319079" lon="152.8703794">
<ele>389.744</ele>
<time>2016-10-05T02:52:17.905Z</time>
</trkpt>
<trkpt lat="-26.7322495" lon="152.8702524">
<ele>390.100</ele>
<time>2016-10-05T02:52:20.037Z</time>
</trkpt>
<trkpt lat="-26.7327774" lon="152.8701106">
<ele>390.089</ele>
<time>2016-10-05T02:52:23.113Z</time>
</trkpt>
<trkpt lat="-26.7332550" lon="152.8699350">
<ele>389.089</ele>
<time>2016-10-05T02:52:25.933Z</time>
</trkpt>
<trkpt lat="-26.7335240" lon="152.8696808">
<ele>387.273</ele>
<time>2016-10-05T02:52:27.981Z</time>
</trkpt>
<trkpt lat="-26.7339110" lon="152.8692982">
<ele>386.256</ele>
<time>2016-10-05T02:52:31.033Z</time>
</trkpt>
<trkpt lat="-26.7342025" lon="152.8691293">
<ele>386.951</ele>
<time>2016-10-05T02:52:32.937Z</time>
</trkpt>
<trkpt lat="-26.7345233" lon="152.8690150">
<ele>388.297</ele>
<time>2016-10-05T02:52:34.873Z</time>
</trkpt>
<trkpt lat="-26.7348419" lon="152.8688623">
<ele>389.162</ele>
<time>2016-10-05T02:52:36.885Z</time>
</trkpt>
<trkpt lat="-26.7351236" lon="152.8686540">
<ele>389.721</ele>
<time>2016-10-05T02:52:38.958Z</time>
</trkpt>
<trkpt lat="-26.7354567" lon="152.8682717">
<ele>391.019</ele>
<time>2016-10-05T02:52:41.951Z</time>
</trkpt>
<trkpt lat="-26.7355788" lon="152.8677604">
<ele>393.834</ele>
<time>2016-10-05T02:52:44.869Z</time>
</trkpt>
<trkpt lat="-26.7356633" lon="152.8674331">
<ele>398.217</ele>
<time>2016-10-05T02:52:46.673Z</time>
</trkpt>
<trkpt lat="-26.7357084" lon="152.8670567">
<ele>403.265</ele>
<time>2016-10-05T02:52:48.592Z</time>
</trkpt>
<trkpt lat="-26.7357206" lon="152.8666361">
<ele>407.243</ele>
<time>2016-10-05T02:52:50.686Z</time>
</trkpt>
<trkpt lat="-26.7357344" lon="152.8660710">
<ele>409.159</ele>
<time>2016-10-05T02:52:53.639Z</time>
</trkpt>
<trkpt lat="-26.7357772" lon="152.8657685">
<ele>409.415</ele>
<time>2016-10-05T02:52:55.385Z</time>
</trkpt>
<trkpt lat="-26.7360310" lon="152.8653343">
<ele>408.507</ele>
<time>2016-10-05T02:52:58.435Z</time>
</trkpt>
<trkpt lat="-26.7364046" lon="152.8650831">
<ele>407.012</ele>
<time>2016-10-05T02:53:01.329Z</time>
</trkpt>
<trkpt lat="-26.7367135" lon="152.8646708">
<ele>405.754</ele>
<time>2016-10-05T02:53:04.460Z</time>
</trkpt>
<trkpt lat="-26.7370729" lon="152.8643817">
<ele>405.182</ele>
<time>2016-10-05T02:53:07.486Z</time>
</trkpt>
<trkpt lat="-26.7372701" lon="152.8642052">
<ele>404.398</ele>
<time>2016-10-05T02:53:09.425Z</time>
</trkpt>
<trkpt lat="-26.7373888" lon="152.8637866">
<ele>402.204</ele>
<time>2016-10-05T02:53:12.582Z</time>
</trkpt>
<trkpt lat="-26.7375812" lon="152.8634453">
<ele>399.027</ele>
<time>2016-10-05T02:53:15.693Z</time>
</trkpt>
<trkpt lat="-26.7378616" lon="152.8634760">
<ele>395.832</ele>
<time>2016-10-05T02:53:17.952Z</time>
</trkpt>
<trkpt lat="-26.7381860" lon="152.8635861">
<ele>393.022</ele>
<time>2016-10-05T02:53:20.186Z</time>
</trkpt>
<trkpt lat="-26.7385824" lon="152.8636668">
<ele>391.220</ele>
<time>2016-10-05T02:53:22.732Z</time>
</trkpt>
<trkpt lat="-26.7390618" lon="152.8635096">
<ele>390.665</ele>
<time>2016-10-05T02:53:25.733Z</time>
</trkpt>
<trkpt lat="-26.7393722" lon="152.8633073">
<ele>391.173</ele>
<time>2016-10-05T02:53:27.791Z</time>
</trkpt>
<trkpt lat="-26.7396467" lon="152.8630629">
<ele>392.907</ele>
<time>2016-10-05T02:53:29.775Z</time>
</trkpt>
<trkpt lat="-26.7400927" lon="152.8627031">
<ele>395.729</ele>
<time>2016-10-05T02:53:32.863Z</time>
</trkpt>
<trkpt lat="-26.7403719" lon="152.8624646">
<ele>399.275</ele>
<time>2016-10-05T02:53:34.797Z</time>
</trkpt>
<trkpt lat="-26.7406753" lon="152.8621999">
<ele>402.936</ele>
<time>2016-10-05T02:53:36.871Z</time>
</trkpt>
<trkpt lat="-26.7411243" lon="152.8618374">
<ele>405.740</ele>
<time>2016-10-05T02:53:39.865Z</time>
</trkpt>
<trkpt lat="-26.7414082" lon="152.8615927">
<ele>407.801</ele>
<time>2016-10-05T02:53:41.930Z</time>
</trkpt>
<trkpt lat="-26.7416554" lon="152.8613860">
<ele>410.106</ele>
<time>2016-10-05T02:53:43.837Z</time>
</trkpt>
<trkpt lat="-26.7419665" lon="152.8612982">
<ele>412.653</ele>
<time>2016-10-05T02:53:45.835Z</time>
</trkpt>
<trkpt lat="-26.7424460" lon="152.8612195">
<ele>414.640</ele>
<time>2016-10-05T02:53:48.818Z</time>
</trkpt>
<trkpt lat="-26.7427518" lon="152.8611604">
<ele>415.560</ele>
<time>2016-10-05T02:53:50.713Z</time>
</trkpt>
<trkpt lat="-26.7430537" lon="152.8611811">
<ele>415.442</ele>
<time>2016-10-05T02:53:52.527Z</time>
</trkpt>
<trkpt lat="-26.7434092" lon="152.8613163">
<ele>414.798</ele>
<time>2016-10-05T02:53:54.617Z</time>
</trkpt>
<trkpt lat="-26.7439954" lon="152.8615110">
<ele>414.329</ele>
<time>2016-10-05T02:53:57.821Z</time>
</trkpt>
<trkpt lat="-26.7443582" lon="152.8617172">
<ele>414.355</ele>
<time>2016-10-05T02:53:59.908Z</time>
</trkpt>
<trkpt lat="-26.7448832" lon="152.8619554">
<ele>414.523</ele>
<time>2016-10-05T02:54:02.986Z</time>
</trkpt>
<trkpt lat="-26.7453392" lon="152.8621844">
<ele>414.474</ele>
<time>2016-10-05T02:54:05.900Z</time>
</trkpt>
<trkpt lat="-26.7457056" lon="152.8625645">
<ele>414.546</ele>
<time>2016-10-05T02:54:08.846Z</time>
</trkpt>
<trkpt lat="-26.7459592" lon="152.8630651">
<ele>415.945</ele>
<time>2016-10-05T02:54:11.915Z</time>
</trkpt>
<trkpt lat="-26.7461542" lon="152.8633502">
<ele>419.495</ele>
<time>2016-10-05T02:54:14.024Z</time>
</trkpt>
<trkpt lat="-26.7465885" lon="152.8634443">
<ele>423.862</ele>
<time>2016-10-05T02:54:16.931Z</time>
</trkpt>
<trkpt lat="-26.7469189" lon="152.8634191">
<ele>426.885</ele>
<time>2016-10-05T02:54:18.810Z</time>
</trkpt>
<trkpt lat="-26.7474950" lon="152.8633464">
<ele>428.498</ele>
<time>2016-10-05T02:54:21.935Z</time>
</trkpt>
<trkpt lat="-26.7478772" lon="152.8633079">
<ele>430.259</ele>
<time>2016-10-05T02:54:24.018Z</time>
</trkpt>
<trkpt lat="-26.7482288" lon="152.8632639">
<ele>433.311</ele>
<time>2016-10-05T02:54:26.203Z</time>
</trkpt>
<trkpt lat="-26.7486615" lon="152.8632168">
<ele>437.679</ele>
<time>2016-10-05T02:54:29.149Z</time>
</trkpt>
<trkpt lat="-26.7488578" lon="152.8634573">
<ele>442.313</ele>
<time>2016-10-05T02:54:31.045Z</time>
</trkpt>
<trkpt lat="-26.7492366" lon="152.8638132">
<ele>445.871</ele>
<time>2016-10-05T02:54:33.955Z</time>
</trkpt>
<trkpt lat="-26.7495450" lon="152.8640317">
<ele>447.779</ele>
<time>2016-10-05T02:54:35.923Z</time>
</trkpt>
<trkpt lat="-26.7500559" lon="152.8643153">
<ele>448.333</ele>
<time>2016-10-05T02:54:38.996Z</time>
</trkpt>
<trkpt lat="-26.7504022" lon="152.8644729">
<ele>448.385</ele>
<time>2016-10-05T02:54:41.089Z</time>
</trkpt>
<trkpt lat="-26.7508809" lon="152.8646556">
<ele>448.597</ele>
<time>2016-10-05T02:54:44.281Z</time>
</trkpt>
<trkpt lat="-26.7512444" lon="152.8647518">
<ele>448.912</ele>
<time>2016-10-05T02:54:47.382Z</time>
</trkpt>
<trkpt lat="-26.7515296" lon="152.8648251">
<ele>448.585</ele>
<time>2016-10-05T02:54:50.990Z</time>
</trkpt>
<trkpt lat="-26.7516320" lon="152.8647407">
<ele>447.215</ele>
<time>2016-10-05T02:54:52.703Z</time>
</trkpt>
<trkpt lat="-26.7516591" lon="152.8644806">
<ele>445.569</ele>
<time>2016-10-05T02:54:54.768Z</time>
</trkpt>
<trkpt lat="-26.7516870" lon="152.8640107">
<ele>444.691</ele>
<time>2016-10-05T02:54:57.789Z</time>
</trkpt>
<trkpt lat="-26.7517398" lon="152.8636671">
<ele>444.755</ele>
<time>2016-10-05T02:54:59.725Z</time>
</trkpt>
<trkpt lat="-26.7517976" lon="152.8633107">
<ele>445.332</ele>
<time>2016-10-05T02:55:01.659Z</time>
</trkpt>
<trkpt lat="-26.7519104" lon="152.8627604">
<ele>446.040</ele>
<time>2016-10-05T02:55:04.604Z</time>
</trkpt>
<trkpt lat="-26.7519899" lon="152.8623732">
<ele>446.995</ele>
<time>2016-10-05T02:55:06.618Z</time>
</trkpt>
<trkpt lat="-26.7520518" lon="152.8619771">
<ele>448.170</ele>
<time>2016-10-05T02:55:08.719Z</time>
</trkpt>
<trkpt lat="-26.7521246" lon="152.8616176">
<ele>449.050</ele>
<time>2016-10-05T02:55:10.810Z</time>
</trkpt>
<trkpt lat="-26.7521803" lon="152.8611395">
<ele>449.104</ele>
<time>2016-10-05T02:55:13.534Z</time>
</trkpt>
<trkpt lat="-26.7521137" lon="152.8605788">
<ele>448.341</ele>
<time>2016-10-05T02:55:16.611Z</time>
</trkpt>
<trkpt lat="-26.7520783" lon="152.8602078">
<ele>447.338</ele>
<time>2016-10-05T02:55:18.647Z</time>
</trkpt>
<trkpt lat="-26.7520351" lon="152.8598612">
<ele>446.338</ele>
<time>2016-10-05T02:55:20.612Z</time>
</trkpt>
<trkpt lat="-26.7520003" lon="152.8593412">
<ele>445.197</ele>
<time>2016-10-05T02:55:23.531Z</time>
</trkpt>
<trkpt lat="-26.7520427" lon="152.8589813">
<ele>443.740</ele>
<time>2016-10-05T02:55:25.469Z</time>
</trkpt>
<trkpt lat="-26.7522300" lon="152.8584561">
<ele>441.807</ele>
<time>2016-10-05T02:55:28.413Z</time>
</trkpt>
<trkpt lat="-26.7523727" lon="152.8580967">
<ele>439.724</ele>
<time>2016-10-05T02:55:30.400Z</time>
</trkpt>
<trkpt lat="-26.7526996" lon="152.8576532">
<ele>438.178</ele>
<time>2016-10-05T02:55:33.233Z</time>
</trkpt>
<trkpt lat="-26.7529834" lon="152.8573837">
<ele>437.538</ele>
<time>2016-10-05T02:55:35.222Z</time>
</trkpt>
<trkpt lat="-26.7534067" lon="152.8570075">
<ele>437.699</ele>
<time>2016-10-05T02:55:38.172Z</time>
</trkpt>
<trkpt lat="-26.7538104" lon="152.8566550">
<ele>438.111</ele>
<time>2016-10-05T02:55:41.168Z</time>
</trkpt>
<trkpt lat="-26.7539902" lon="152.8563729">
<ele>438.548</ele>
<time>2016-10-05T02:55:43.006Z</time>
</trkpt>
<trkpt lat="-26.7542142" lon="152.8558188">
<ele>439.466</ele>
<time>2016-10-05T02:55:46.098Z</time>
</trkpt>
<trkpt lat="-26.7543141" lon="152.8554671">
<ele>441.382</ele>
<time>2016-10-05T02:55:47.950Z</time>
</trkpt>
<trkpt lat="-26.7544925" lon="152.8549279">
<ele>443.806</ele>
<time>2016-10-05T02:55:50.890Z</time>
</trkpt>
<trkpt lat="-26.7546657" lon="152.8545900">
<ele>445.171</ele>
<time>2016-10-05T02:55:52.913Z</time>
</trkpt>
<trkpt lat="-26.7548682" lon="152.8543056">
<ele>444.523</ele>
<time>2016-10-05T02:55:54.866Z</time>
</trkpt>
<trkpt lat="-26.7551780" lon="152.8539212">
<ele>442.693</ele>
<time>2016-10-05T02:55:57.777Z</time>
</trkpt>
<trkpt lat="-26.7554458" lon="152.8535408">
<ele>440.991</ele>
<time>2016-10-05T02:56:00.681Z</time>
</trkpt>
<trkpt lat="-26.7557359" lon="152.8532051">
<ele>439.772</ele>
<time>2016-10-05T02:56:03.648Z</time>
</trkpt>
<trkpt lat="-26.7559739" lon="152.8530585">
<ele>438.398</ele>
<time>2016-10-05T02:56:05.633Z</time>
</trkpt>
<trkpt lat="-26.7563720" lon="152.8529458">
<ele>435.918</ele>
<time>2016-10-05T02:56:08.617Z</time>
</trkpt>
<trkpt lat="-26.7566409" lon="152.8528687">
<ele>431.689</ele>
<time>2016-10-05T02:56:10.598Z</time>
</trkpt>
<trkpt lat="-26.7570874" lon="152.8527901">
<ele>426.031</ele>
<time>2016-10-05T02:56:13.734Z</time>
</trkpt>
<trkpt lat="-26.7574926" lon="152.8526810">
<ele>419.593</ele>
<time>2016-10-05T02:56:16.652Z</time>
</trkpt>
<trkpt lat="-26.7577376" lon="152.8526273">
<ele>412.594</ele>
<time>2016-10-05T02:56:18.600Z</time>
</trkpt>
<trkpt lat="-26.7579966" lon="152.8525460">
<ele>406.068</ele>
<time>2016-10-05T02:56:21.009Z</time>
</trkpt>
<trkpt lat="-26.7581971" lon="152.8525689">
<ele>401.853</ele>
<time>2016-10-05T02:56:23.811Z</time>
</trkpt>
<trkpt lat="-26.7582693" lon="152.8526799">
<ele>400.296</ele>
<time>2016-10-05T02:56:26.082Z</time>
</trkpt>
<trkpt lat="-26.7583553" lon="152.8528278">
<ele>400.265</ele>
<time>2016-10-05T02:56:28.574Z</time>
</trkpt>
<trkpt lat="-26.7584190" lon="152.8530512">
<ele>400.672</ele>
<time>2016-10-05T02:56:31.569Z</time>
</trkpt>
<trkpt lat="-26.7584636" lon="152.8531792">
<ele>400.670</ele>
<time>2016-10-05T02:56:33.463Z</time>
</trkpt>
<trkpt lat="-26.7586017" lon="152.8532519">
<ele>399.880</ele>
<time>2016-10-05T02:56:36.198Z</time>
</trkpt>
<trkpt lat="-26.7586716" lon="152.8531546">
<ele>398.679</ele>
<time>2016-10-05T02:56:38.414Z</time>
</trkpt>
<trkpt lat="-26.7586023" lon="152.8530401">
<ele>397.703</ele>
<time>2016-10-05T02:56:40.813Z</time>
</trkpt>
<trkpt lat="-26.7584868" lon="152.8529384">
<ele>397.228</ele>
<time>2016-10-05T02:56:43.122Z</time>
</trkpt>
<trkpt lat="-26.7583950" lon="152.8527108">
<ele>397.321</ele>
<time>2016-10-05T02:56:46.285Z</time>
</trkpt>
<trkpt lat="-26.7583584" lon="152.8525799">
<ele>398.176</ele>
<time>2016-10-05T02:56:48.151Z</time>
</trkpt>
<trkpt lat="-26.7583828" lon="152.8523720">
<ele>399.904</ele>
<time>2016-10-05T02:56:51.109Z</time>
</trkpt>
<trkpt lat="-26.7584091" lon="152.8522126">
<ele>402.056</ele>
<time>2016-10-05T02:56:53.486Z</time>
</trkpt>
<trkpt lat="-26.7584249" lon="152.8520662">
<ele>403.845</ele>
<time>2016-10-05T02:56:55.703Z</time>
</trkpt>
<trkpt lat="-26.7584810" lon="152.8518644">
<ele>404.843</ele>
<time>2016-10-05T02:56:58.767Z</time>
</trkpt>
<trkpt lat="-26.7585430" lon="152.8516416">
<ele>405.417</ele>
<time>2016-10-05T02:57:01.938Z</time>
</trkpt>
<trkpt lat="-26.7586133" lon="152.8514788">
<ele>406.074</ele>
<time>2016-10-05T02:57:04.618Z</time>
</trkpt>
<trkpt lat="-26.7586421" lon="152.8513517">
<ele>406.700</ele>
<time>2016-10-05T02:57:06.638Z</time>
</trkpt>
<trkpt lat="-26.7586256" lon="152.8511556">
<ele>407.226</ele>
<time>2016-10-05T02:57:09.385Z</time>
</trkpt>
<trkpt lat="-26.7585684" lon="152.8509059">
<ele>407.939</ele>
<time>2016-10-05T02:57:12.528Z</time>
</trkpt>
<trkpt lat="-26.7585262" lon="152.8507413">
<ele>408.798</ele>
<time>2016-10-05T02:57:14.553Z</time>
</trkpt>
<trkpt lat="-26.7584820" lon="152.8505104">
<ele>409.455</ele>
<time>2016-10-05T02:57:17.608Z</time>
</trkpt>
<trkpt lat="-26.7584340" lon="152.8503525">
<ele>409.762</ele>
<time>2016-10-05T02:57:20.351Z</time>
</trkpt>
<trkpt lat="-26.7583753" lon="152.8502557">
<ele>409.813</ele>
<time>2016-10-05T02:57:23.142Z</time>
</trkpt>
<trkpt lat="-26.7583041" lon="152.8501727">
<ele>409.771</ele>
<time>2016-10-05T02:57:26.997Z</time>
</trkpt>
<trkpt lat="-26.7583041" lon="152.8501727">
<ele>409.728</ele>
<time>2016-10-05T02:57:34.997Z</time>
</trkpt>
<trkpt lat="-26.7583041" lon="152.8501727">
<ele>409.651</ele>
<time>2016-10-05T03:02:49.471Z</time>
</trkpt>
<trkpt lat="-26.7583089" lon="152.8499052">
<ele>409.493</ele>
<time>2016-10-05T03:03:00.509Z</time>
</trkpt>
<trkpt lat="-26.7582953" lon="152.8497635">
<ele>409.328</ele>
<time>2016-10-05T03:03:02.391Z</time>
</trkpt>
<trkpt lat="-26.7582323" lon="152.8494962">
<ele>409.340</ele>
<time>2016-10-05T03:03:05.336Z</time>
</trkpt>
<trkpt lat="-26.7581758" lon="152.8492729">
<ele>409.750</ele>
<time>2016-10-05T03:03:07.548Z</time>
</trkpt>
<trkpt lat="-26.7581603" lon="152.8490616">
<ele>410.520</ele>
<time>2016-10-05T03:03:09.561Z</time>
</trkpt>
<trkpt lat="-26.7581493" lon="152.8488620">
<ele>411.285</ele>
<time>2016-10-05T03:03:11.416Z</time>
</trkpt>
<trkpt lat="-26.7581221" lon="152.8485171">
<ele>411.811</ele>
<time>2016-10-05T03:03:14.508Z</time>
</trkpt>
<trkpt lat="-26.7580914" lon="152.8483093">
<ele>412.479</ele>
<time>2016-10-05T03:03:16.314Z</time>
</trkpt>
<trkpt lat="-26.7579921" lon="152.8480833">
<ele>413.743</ele>
<time>2016-10-05T03:03:18.336Z</time>
</trkpt>
<trkpt lat="-26.7577748" lon="152.8477879">
<ele>415.423</ele>
<time>2016-10-05T03:03:21.061Z</time>
</trkpt>
<trkpt lat="-26.7575690" lon="152.8475150">
<ele>417.395</ele>
<time>2016-10-05T03:03:23.224Z</time>
</trkpt>
<trkpt lat="-26.7573596" lon="152.8472755">
<ele>419.937</ele>
<time>2016-10-05T03:03:25.192Z</time>
</trkpt>
<trkpt lat="-26.7571048" lon="152.8468685">
<ele>422.819</ele>
<time>2016-10-05T03:03:28.166Z</time>
</trkpt>
<trkpt lat="-26.7569866" lon="152.8464013">
<ele>425.207</ele>
<time>2016-10-05T03:03:31.124Z</time>
</trkpt>
<trkpt lat="-26.7569084" lon="152.8459198">
<ele>426.939</ele>
<time>2016-10-05T03:03:34.148Z</time>
</trkpt>
<trkpt lat="-26.7568564" lon="152.8456151">
<ele>428.747</ele>
<time>2016-10-05T03:03:36.153Z</time>
</trkpt>
<trkpt lat="-26.7566592" lon="152.8452314">
<ele>431.034</ele>
<time>2016-10-05T03:03:39.051Z</time>
</trkpt>
<trkpt lat="-26.7563328" lon="152.8449778">
<ele>433.468</ele>
<time>2016-10-05T03:03:41.962Z</time>
</trkpt>
<trkpt lat="-26.7560177" lon="152.8446834">
<ele>435.755</ele>
<time>2016-10-05T03:03:44.938Z</time>
</trkpt>
<trkpt lat="-26.7558231" lon="152.8442665">
<ele>437.746</ele>
<time>2016-10-05T03:03:47.910Z</time>
</trkpt>
<trkpt lat="-26.7556587" lon="152.8438156">
<ele>439.435</ele>
<time>2016-10-05T03:03:50.981Z</time>
</trkpt>
<trkpt lat="-26.7554855" lon="152.8433936">
<ele>440.749</ele>
<time>2016-10-05T03:03:54.132Z</time>
</trkpt>
<trkpt lat="-26.7553536" lon="152.8430032">
<ele>441.477</ele>
<time>2016-10-05T03:03:57.265Z</time>
</trkpt>
<trkpt lat="-26.7552676" lon="152.8426328">
<ele>441.624</ele>
<time>2016-10-05T03:04:00.214Z</time>
</trkpt>
<trkpt lat="-26.7552280" lon="152.8423749">
<ele>441.679</ele>
<time>2016-10-05T03:04:02.112Z</time>
</trkpt>
<trkpt lat="-26.7551846" lon="152.8419762">
<ele>442.071</ele>
<time>2016-10-05T03:04:04.892Z</time>
</trkpt>
<trkpt lat="-26.7551787" lon="152.8415390">
<ele>442.975</ele>
<time>2016-10-05T03:04:07.790Z</time>
</trkpt>
<trkpt lat="-26.7551528" lon="152.8412168">
<ele>444.377</ele>
<time>2016-10-05T03:04:09.834Z</time>
</trkpt>
<trkpt lat="-26.7551309" lon="152.8407531">
<ele>445.964</ele>
<time>2016-10-05T03:04:12.706Z</time>
</trkpt>
<trkpt lat="-26.7551488" lon="152.8404326">
<ele>447.279</ele>
<time>2016-10-05T03:04:14.622Z</time>
</trkpt>
<trkpt lat="-26.7551273" lon="152.8399389">
<ele>448.189</ele>
<time>2016-10-05T03:04:17.529Z</time>
</trkpt>
<trkpt lat="-26.7551201" lon="152.8396112">
<ele>448.866</ele>
<time>2016-10-05T03:04:19.440Z</time>
</trkpt>
<trkpt lat="-26.7550901" lon="152.8392781">
<ele>449.432</ele>
<time>2016-10-05T03:04:21.392Z</time>
</trkpt>
<trkpt lat="-26.7550856" lon="152.8389324">
<ele>449.827</ele>
<time>2016-10-05T03:04:23.390Z</time>
</trkpt>
<trkpt lat="-26.7550968" lon="152.8384160">
<ele>449.978</ele>
<time>2016-10-05T03:04:26.344Z</time>
</trkpt>
<trkpt lat="-26.7551276" lon="152.8380476">
<ele>449.773</ele>
<time>2016-10-05T03:04:28.425Z</time>
</trkpt>
<trkpt lat="-26.7551868" lon="152.8376980">
<ele>449.187</ele>
<time>2016-10-05T03:04:30.419Z</time>
</trkpt>
<trkpt lat="-26.7552645" lon="152.8373373">
<ele>448.577</ele>
<time>2016-10-05T03:04:32.529Z</time>
</trkpt>
<trkpt lat="-26.7553971" lon="152.8368334">
<ele>448.192</ele>
<time>2016-10-05T03:04:35.599Z</time>
</trkpt>
<trkpt lat="-26.7554570" lon="152.8365093">
<ele>447.880</ele>
<time>2016-10-05T03:04:37.619Z</time>
</trkpt>
<trkpt lat="-26.7554496" lon="152.8361913">
<ele>447.564</ele>
<time>2016-10-05T03:04:39.560Z</time>
</trkpt>
<trkpt lat="-26.7553873" lon="152.8358648">
<ele>447.370</ele>
<time>2016-10-05T03:04:41.515Z</time>
</trkpt>
<trkpt lat="-26.7551994" lon="152.8353400">
<ele>447.343</ele>
<time>2016-10-05T03:04:44.717Z</time>
</trkpt>
<trkpt lat="-26.7550108" lon="152.8348361">
<ele>447.735</ele>
<time>2016-10-05T03:04:47.742Z</time>
</trkpt>
<trkpt lat="-26.7549132" lon="152.8343101">
<ele>448.958</ele>
<time>2016-10-05T03:04:50.669Z</time>
</trkpt>
<trkpt lat="-26.7547915" lon="152.8337752">
<ele>450.687</ele>
<time>2016-10-05T03:04:53.593Z</time>
</trkpt>
<trkpt lat="-26.7546618" lon="152.8334272">
<ele>451.977</ele>
<time>2016-10-05T03:04:55.526Z</time>
</trkpt>
<trkpt lat="-26.7545167" lon="152.8330701">
<ele>452.459</ele>
<time>2016-10-05T03:04:57.518Z</time>
</trkpt>
<trkpt lat="-26.7542908" lon="152.8325318">
<ele>452.406</ele>
<time>2016-10-05T03:05:00.557Z</time>
</trkpt>
<trkpt lat="-26.7541476" lon="152.8321900">
<ele>452.047</ele>
<time>2016-10-05T03:05:02.538Z</time>
</trkpt>
<trkpt lat="-26.7540224" lon="152.8318503">
<ele>451.559</ele>
<time>2016-10-05T03:05:04.495Z</time>
</trkpt>
<trkpt lat="-26.7538087" lon="152.8313586">
<ele>451.173</ele>
<time>2016-10-05T03:05:07.417Z</time>
</trkpt>
<trkpt lat="-26.7537056" lon="152.8310146">
<ele>450.359</ele>
<time>2016-10-05T03:05:09.310Z</time>
</trkpt>
<trkpt lat="-26.7536972" lon="152.8304320">
<ele>448.390</ele>
<time>2016-10-05T03:05:12.275Z</time>
</trkpt>
<trkpt lat="-26.7536849" lon="152.8298291">
<ele>445.992</ele>
<time>2016-10-05T03:05:15.254Z</time>
</trkpt>
<trkpt lat="-26.7535282" lon="152.8292440">
<ele>444.477</ele>
<time>2016-10-05T03:05:18.221Z</time>
</trkpt>
<trkpt lat="-26.7534232" lon="152.8288577">
<ele>444.244</ele>
<time>2016-10-05T03:05:20.187Z</time>
</trkpt>
<trkpt lat="-26.7532846" lon="152.8282930">
<ele>445.311</ele>
<time>2016-10-05T03:05:23.073Z</time>
</trkpt>
<trkpt lat="-26.7532014" lon="152.8277098">
<ele>447.398</ele>
<time>2016-10-05T03:05:26.012Z</time>
</trkpt>
<trkpt lat="-26.7532350" lon="152.8272878">
<ele>450.067</ele>
<time>2016-10-05T03:05:28.122Z</time>
</trkpt>
<trkpt lat="-26.7533162" lon="152.8266933">
<ele>453.179</ele>
<time>2016-10-05T03:05:31.235Z</time>
</trkpt>
<trkpt lat="-26.7534561" lon="152.8262216">
<ele>456.746</ele>
<time>2016-10-05T03:05:34.027Z</time>
</trkpt>
<trkpt lat="-26.7537674" lon="152.8258599">
<ele>460.299</ele>
<time>2016-10-05T03:05:36.946Z</time>
</trkpt>
<trkpt lat="-26.7540304" lon="152.8256736">
<ele>463.031</ele>
<time>2016-10-05T03:05:38.924Z</time>
</trkpt>
<trkpt lat="-26.7542929" lon="152.8254762">
<ele>464.937</ele>
<time>2016-10-05T03:05:40.981Z</time>
</trkpt>
<trkpt lat="-26.7546696" lon="152.8252265">
<ele>466.510</ele>
<time>2016-10-05T03:05:44.018Z</time>
</trkpt>
<trkpt lat="-26.7548589" lon="152.8250537">
<ele>467.575</ele>
<time>2016-10-05T03:05:45.953Z</time>
</trkpt>
<trkpt lat="-26.7550059" lon="152.8248742">
<ele>467.632</ele>
<time>2016-10-05T03:05:47.904Z</time>
</trkpt>
<trkpt lat="-26.7551508" lon="152.8247410">
<ele>466.719</ele>
<time>2016-10-05T03:05:49.730Z</time>
</trkpt>
<trkpt lat="-26.7554558" lon="152.8246856">
<ele>465.433</ele>
<time>2016-10-05T03:05:52.665Z</time>
</trkpt>
<trkpt lat="-26.7556824" lon="152.8245431">
<ele>464.443</ele>
<time>2016-10-05T03:05:54.730Z</time>
</trkpt>
<trkpt lat="-26.7559282" lon="152.8243519">
<ele>464.254</ele>
<time>2016-10-05T03:05:56.782Z</time>
</trkpt>
<trkpt lat="-26.7561746" lon="152.8241016">
<ele>465.172</ele>
<time>2016-10-05T03:05:58.859Z</time>
</trkpt>
<trkpt lat="-26.7564556" lon="152.8236297">
<ele>466.838</ele>
<time>2016-10-05T03:06:01.836Z</time>
</trkpt>
<trkpt lat="-26.7567429" lon="152.8230883">
<ele>468.925</ele>
<time>2016-10-05T03:06:04.917Z</time>
</trkpt>
<trkpt lat="-26.7569422" lon="152.8227302">
<ele>471.150</ele>
<time>2016-10-05T03:06:06.881Z</time>
</trkpt>
<trkpt lat="-26.7572576" lon="152.8221846">
<ele>472.577</ele>
<time>2016-10-05T03:06:09.820Z</time>
</trkpt>
<trkpt lat="-26.7575857" lon="152.8215894">
<ele>472.626</ele>
<time>2016-10-05T03:06:12.876Z</time>
</trkpt>
<trkpt lat="-26.7578070" lon="152.8211940">
<ele>471.784</ele>
<time>2016-10-05T03:06:14.885Z</time>
</trkpt>
<trkpt lat="-26.7581301" lon="152.8205905">
<ele>470.622</ele>
<time>2016-10-05T03:06:17.941Z</time>
</trkpt>
<trkpt lat="-26.7583420" lon="152.8202183">
<ele>469.142</ele>
<time>2016-10-05T03:06:19.899Z</time>
</trkpt>
<trkpt lat="-26.7585708" lon="152.8195817">
<ele>467.239</ele>
<time>2016-10-05T03:06:22.925Z</time>
</trkpt>
<trkpt lat="-26.7585865" lon="152.8188913">
<ele>465.020</ele>
<time>2016-10-05T03:06:25.929Z</time>
</trkpt>
<trkpt lat="-26.7586536" lon="152.8184622">
<ele>462.808</ele>
<time>2016-10-05T03:06:27.856Z</time>
</trkpt>
<trkpt lat="-26.7587240" lon="152.8180422">
<ele>461.122</ele>
<time>2016-10-05T03:06:29.823Z</time>
</trkpt>
<trkpt lat="-26.7587302" lon="152.8174489">
<ele>460.345</ele>
<time>2016-10-05T03:06:32.682Z</time>
</trkpt>
<trkpt lat="-26.7585894" lon="152.8170445">
<ele>460.356</ele>
<time>2016-10-05T03:06:34.823Z</time>
</trkpt>
<trkpt lat="-26.7583825" lon="152.8166944">
<ele>460.826</ele>
<time>2016-10-05T03:06:36.852Z</time>
</trkpt>
<trkpt lat="-26.7579425" lon="152.8162632">
<ele>461.466</ele>
<time>2016-10-05T03:06:40.059Z</time>
</trkpt>
<trkpt lat="-26.7576157" lon="152.8158732">
<ele>462.504</ele>
<time>2016-10-05T03:06:42.894Z</time>
</trkpt>
<trkpt lat="-26.7575636" lon="152.8155500">
<ele>464.201</ele>
<time>2016-10-05T03:06:44.800Z</time>
</trkpt>
<trkpt lat="-26.7576113" lon="152.8152224">
<ele>466.179</ele>
<time>2016-10-05T03:06:46.738Z</time>
</trkpt>
<trkpt lat="-26.7579211" lon="152.8148216">
<ele>468.105</ele>
<time>2016-10-05T03:06:49.721Z</time>
</trkpt>
<trkpt lat="-26.7582197" lon="152.8146232">
<ele>470.394</ele>
<time>2016-10-05T03:06:51.795Z</time>
</trkpt>
<trkpt lat="-26.7586609" lon="152.8143523">
<ele>473.316</ele>
<time>2016-10-05T03:06:54.734Z</time>
</trkpt>
<trkpt lat="-26.7589534" lon="152.8141624">
<ele>476.495</ele>
<time>2016-10-05T03:06:56.673Z</time>
</trkpt>
<trkpt lat="-26.7592301" lon="152.8139195">
<ele>479.228</ele>
<time>2016-10-05T03:06:58.662Z</time>
</trkpt>
<trkpt lat="-26.7594620" lon="152.8136028">
<ele>481.068</ele>
<time>2016-10-05T03:07:00.735Z</time>
</trkpt>
<trkpt lat="-26.7596264" lon="152.8132584">
<ele>482.427</ele>
<time>2016-10-05T03:07:02.735Z</time>
</trkpt>
<trkpt lat="-26.7597781" lon="152.8129111">
<ele>484.077</ele>
<time>2016-10-05T03:07:04.746Z</time>
</trkpt>
<trkpt lat="-26.7596952" lon="152.8123740">
<ele>486.063</ele>
<time>2016-10-05T03:07:07.660Z</time>
</trkpt>
<trkpt lat="-26.7595366" lon="152.8118409">
<ele>487.968</ele>
<time>2016-10-05T03:07:10.763Z</time>
</trkpt>
<trkpt lat="-26.7593232" lon="152.8115462">
<ele>489.481</ele>
<time>2016-10-05T03:07:12.860Z</time>
</trkpt>
<trkpt lat="-26.7589362" lon="152.8111946">
<ele>490.406</ele>
<time>2016-10-05T03:07:15.952Z</time>
</trkpt>
<trkpt lat="-26.7587304" lon="152.8109290">
<ele>490.562</ele>
<time>2016-10-05T03:07:17.921Z</time>
</trkpt>
<trkpt lat="-26.7585572" lon="152.8104127">
<ele>490.078</ele>
<time>2016-10-05T03:07:21.032Z</time>
</trkpt>
<trkpt lat="-26.7585182" lon="152.8100754">
<ele>489.726</ele>
<time>2016-10-05T03:07:22.971Z</time>
</trkpt>
<trkpt lat="-26.7586152" lon="152.8097129">
<ele>490.152</ele>
<time>2016-10-05T03:07:25.175Z</time>
</trkpt>
<trkpt lat="-26.7588632" lon="152.8093167">
<ele>491.150</ele>
<time>2016-10-05T03:07:28.087Z</time>
</trkpt>
<trkpt lat="-26.7591580" lon="152.8090118">
<ele>492.136</ele>
<time>2016-10-05T03:07:30.960Z</time>
</trkpt>
<trkpt lat="-26.7593766" lon="152.8088546">
<ele>492.572</ele>
<time>2016-10-05T03:07:32.946Z</time>
</trkpt>
<trkpt lat="-26.7595860" lon="152.8087264">
<ele>492.118</ele>
<time>2016-10-05T03:07:34.825Z</time>
</trkpt>
<trkpt lat="-26.7599720" lon="152.8086330">
<ele>491.069</ele>
<time>2016-10-05T03:07:38.053Z</time>
</trkpt>
<trkpt lat="-26.7600719" lon="152.8084266">
<ele>489.789</ele>
<time>2016-10-05T03:07:39.877Z</time>
</trkpt>
<trkpt lat="-26.7601415" lon="152.8081481">
<ele>488.450</ele>
<time>2016-10-05T03:07:42.009Z</time>
</trkpt>
<trkpt lat="-26.7601506" lon="152.8078021">
<ele>487.362</ele>
<time>2016-10-05T03:07:44.209Z</time>
</trkpt>
<trkpt lat="-26.7601144" lon="152.8072844">
<ele>486.743</ele>
<time>2016-10-05T03:07:47.167Z</time>
</trkpt>
<trkpt lat="-26.7601087" lon="152.8068973">
<ele>486.205</ele>
<time>2016-10-05T03:07:49.153Z</time>
</trkpt>
<trkpt lat="-26.7601195" lon="152.8065179">
<ele>485.199</ele>
<time>2016-10-05T03:07:51.098Z</time>
</trkpt>
<trkpt lat="-26.7600369" lon="152.8059570">
<ele>483.816</ele>
<time>2016-10-05T03:07:54.161Z</time>
</trkpt>
<trkpt lat="-26.7599271" lon="152.8056712">
<ele>482.760</ele>
<time>2016-10-05T03:07:55.959Z</time>
</trkpt>
<trkpt lat="-26.7596301" lon="152.8052663">
<ele>482.365</ele>
<time>2016-10-05T03:07:58.965Z</time>
</trkpt>
<trkpt lat="-26.7592837" lon="152.8048533">
<ele>482.429</ele>
<time>2016-10-05T03:08:02.012Z</time>
</trkpt>
<trkpt lat="-26.7590433" lon="152.8045562">
<ele>482.294</ele>
<time>2016-10-05T03:08:04.027Z</time>
</trkpt>
<trkpt lat="-26.7586595" lon="152.8041050">
<ele>481.165</ele>
<time>2016-10-05T03:08:07.090Z</time>
</trkpt>
<trkpt lat="-26.7584076" lon="152.8038124">
<ele>478.730</ele>
<time>2016-10-05T03:08:09.095Z</time>
</trkpt>
<trkpt lat="-26.7580568" lon="152.8033845">
<ele>475.295</ele>
<time>2016-10-05T03:08:12.054Z</time>
</trkpt>
<trkpt lat="-26.7577445" lon="152.8029802">
<ele>471.571</ele>
<time>2016-10-05T03:08:15.003Z</time>
</trkpt>
<trkpt lat="-26.7575721" lon="152.8027197">
<ele>468.490</ele>
<time>2016-10-05T03:08:16.932Z</time>
</trkpt>
<trkpt lat="-26.7575020" lon="152.8022109">
<ele>466.595</ele>
<time>2016-10-05T03:08:19.978Z</time>
</trkpt>
<trkpt lat="-26.7574922" lon="152.8016835">
<ele>465.674</ele>
<time>2016-10-05T03:08:23.055Z</time>
</trkpt>
<trkpt lat="-26.7575536" lon="152.8012033">
<ele>465.224</ele>
<time>2016-10-05T03:08:26.081Z</time>
</trkpt>
<trkpt lat="-26.7576833" lon="152.8008137">
<ele>464.793</ele>
<time>2016-10-05T03:08:28.921Z</time>
</trkpt>
<trkpt lat="-26.7577242" lon="152.8004071">
<ele>464.180</ele>
<time>2016-10-05T03:08:31.750Z</time>
</trkpt>
<trkpt lat="-26.7577010" lon="152.8000944">
<ele>463.728</ele>
<time>2016-10-05T03:08:33.746Z</time>
</trkpt>
<trkpt lat="-26.7577380" lon="152.7997137">
<ele>464.072</ele>
<time>2016-10-05T03:08:35.879Z</time>
</trkpt>
<trkpt lat="-26.7576319" lon="152.7990707">
<ele>465.604</ele>
<time>2016-10-05T03:08:39.081Z</time>
</trkpt>
<trkpt lat="-26.7574957" lon="152.7983721">
<ele>467.960</ele>
<time>2016-10-05T03:08:42.311Z</time>
</trkpt>
<trkpt lat="-26.7574258" lon="152.7977327">
<ele>470.030</ele>
<time>2016-10-05T03:08:45.203Z</time>
</trkpt>
<trkpt lat="-26.7573282" lon="152.7970962">
<ele>470.589</ele>
<time>2016-10-05T03:08:48.155Z</time>
</trkpt>
<trkpt lat="-26.7572630" lon="152.7966902">
<ele>469.333</ele>
<time>2016-10-05T03:08:50.103Z</time>
</trkpt>
<trkpt lat="-26.7572020" lon="152.7962689">
<ele>466.940</ele>
<time>2016-10-05T03:08:52.154Z</time>
</trkpt>
<trkpt lat="-26.7570830" lon="152.7956831">
<ele>464.409</ele>
<time>2016-10-05T03:08:55.081Z</time>
</trkpt>
<trkpt lat="-26.7569960" lon="152.7951186">
<ele>462.547</ele>
<time>2016-10-05T03:08:57.911Z</time>
</trkpt>
<trkpt lat="-26.7569538" lon="152.7947018">
<ele>461.675</ele>
<time>2016-10-05T03:08:59.946Z</time>
</trkpt>
<trkpt lat="-26.7568660" lon="152.7940766">
<ele>461.481</ele>
<time>2016-10-05T03:09:02.956Z</time>
</trkpt>
<trkpt lat="-26.7568482" lon="152.7936656">
<ele>461.585</ele>
<time>2016-10-05T03:09:04.980Z</time>
</trkpt>
<trkpt lat="-26.7569331" lon="152.7931260">
<ele>461.415</ele>
<time>2016-10-05T03:09:07.825Z</time>
</trkpt>
<trkpt lat="-26.7571825" lon="152.7926581">
<ele>460.607</ele>
<time>2016-10-05T03:09:10.719Z</time>
</trkpt>
<trkpt lat="-26.7573578" lon="152.7923011">
<ele>459.580</ele>
<time>2016-10-05T03:09:12.822Z</time>
</trkpt>
<trkpt lat="-26.7576389" lon="152.7918644">
<ele>458.949</ele>
<time>2016-10-05T03:09:15.622Z</time>
</trkpt>
<trkpt lat="-26.7577611" lon="152.7915112">
<ele>458.852</ele>
<time>2016-10-05T03:09:17.742Z</time>
</trkpt>
<trkpt lat="-26.7579595" lon="152.7911362">
<ele>459.287</ele>
<time>2016-10-05T03:09:20.530Z</time>
</trkpt>
<trkpt lat="-26.7581698" lon="152.7909778">
<ele>460.325</ele>
<time>2016-10-05T03:09:22.761Z</time>
</trkpt>
<trkpt lat="-26.7584303" lon="152.7909427">
<ele>461.984</ele>
<time>2016-10-05T03:09:25.161Z</time>
</trkpt>
<trkpt lat="-26.7588969" lon="152.7909278">
<ele>464.005</ele>
<time>2016-10-05T03:09:28.600Z</time>
</trkpt>
<trkpt lat="-26.7593254" lon="152.7907043">
<ele>465.942</ele>
<time>2016-10-05T03:09:31.537Z</time>
</trkpt>
<trkpt lat="-26.7597735" lon="152.7902323">
<ele>467.479</ele>
<time>2016-10-05T03:09:34.772Z</time>
</trkpt>
<trkpt lat="-26.7602106" lon="152.7896733">
<ele>468.756</ele>
<time>2016-10-05T03:09:37.958Z</time>
</trkpt>
<trkpt lat="-26.7606876" lon="152.7892620">
<ele>470.135</ele>
<time>2016-10-05T03:09:41.032Z</time>
</trkpt>
<trkpt lat="-26.7610163" lon="152.7888272">
<ele>471.660</ele>
<time>2016-10-05T03:09:43.834Z</time>
</trkpt>
<trkpt lat="-26.7611365" lon="152.7884172">
<ele>473.220</ele>
<time>2016-10-05T03:09:45.861Z</time>
</trkpt>
<trkpt lat="-26.7613667" lon="152.7877824">
<ele>475.098</ele>
<time>2016-10-05T03:09:48.943Z</time>
</trkpt>
<trkpt lat="-26.7615262" lon="152.7874244">
<ele>478.058</ele>
<time>2016-10-05T03:09:50.901Z</time>
</trkpt>
<trkpt lat="-26.7617156" lon="152.7870531">
<ele>481.822</ele>
<time>2016-10-05T03:09:53.269Z</time>
</trkpt>
<trkpt lat="-26.7618721" lon="152.7869071">
<ele>484.446</ele>
<time>2016-10-05T03:09:54.888Z</time>
</trkpt>
<trkpt lat="-26.7621259" lon="152.7868678">
<ele>484.835</ele>
<time>2016-10-05T03:09:57.076Z</time>
</trkpt>
<trkpt lat="-26.7624466" lon="152.7868803">
<ele>483.992</ele>
<time>2016-10-05T03:09:59.314Z</time>
</trkpt>
<trkpt lat="-26.7627754" lon="152.7868718">
<ele>483.463</ele>
<time>2016-10-05T03:10:01.298Z</time>
</trkpt>
<trkpt lat="-26.7632298" lon="152.7867445">
<ele>484.191</ele>
<time>2016-10-05T03:10:04.069Z</time>
</trkpt>
<trkpt lat="-26.7635485" lon="152.7864543">
<ele>486.117</ele>
<time>2016-10-05T03:10:06.485Z</time>
</trkpt>
<trkpt lat="-26.7638613" lon="152.7862646">
<ele>488.955</ele>
<time>2016-10-05T03:10:08.550Z</time>
</trkpt>
<trkpt lat="-26.7641513" lon="152.7861866">
<ele>492.463</ele>
<time>2016-10-05T03:10:10.333Z</time>
</trkpt>
<trkpt lat="-26.7646586" lon="152.7864119">
<ele>495.663</ele>
<time>2016-10-05T03:10:13.529Z</time>
</trkpt>
<trkpt lat="-26.7650222" lon="152.7866783">
<ele>497.507</ele>
<time>2016-10-05T03:10:15.706Z</time>
</trkpt>
<trkpt lat="-26.7655522" lon="152.7872271">
<ele>497.917</ele>
<time>2016-10-05T03:10:18.887Z</time>
</trkpt>
<trkpt lat="-26.7659023" lon="152.7875752">
<ele>497.255</ele>
<time>2016-10-05T03:10:20.896Z</time>
</trkpt>
<trkpt lat="-26.7661932" lon="152.7878766">
<ele>495.241</ele>
<time>2016-10-05T03:10:22.749Z</time>
</trkpt>
<trkpt lat="-26.7665107" lon="152.7883787">
<ele>492.097</ele>
<time>2016-10-05T03:10:25.623Z</time>
</trkpt>
<trkpt lat="-26.7669018" lon="152.7886776">
<ele>489.471</ele>
<time>2016-10-05T03:10:28.426Z</time>
</trkpt>
<trkpt lat="-26.7673826" lon="152.7889422">
<ele>488.725</ele>
<time>2016-10-05T03:10:31.636Z</time>
</trkpt>
<trkpt lat="-26.7676979" lon="152.7890965">
<ele>489.542</ele>
<time>2016-10-05T03:10:33.617Z</time>
</trkpt>
<trkpt lat="-26.7680799" lon="152.7890884">
<ele>490.843</ele>
<time>2016-10-05T03:10:35.787Z</time>
</trkpt>
<trkpt lat="-26.7685679" lon="152.7890237">
<ele>491.946</ele>
<time>2016-10-05T03:10:38.546Z</time>
</trkpt>
<trkpt lat="-26.7691801" lon="152.7891340">
<ele>492.954</ele>
<time>2016-10-05T03:10:41.853Z</time>
</trkpt>
<trkpt lat="-26.7695690" lon="152.7892782">
<ele>493.864</ele>
<time>2016-10-05T03:10:43.937Z</time>
</trkpt>
<trkpt lat="-26.7701010" lon="152.7894335">
<ele>494.415</ele>
<time>2016-10-05T03:10:46.781Z</time>
</trkpt>
<trkpt lat="-26.7704650" lon="152.7893870">
<ele>495.043</ele>
<time>2016-10-05T03:10:48.745Z</time>
</trkpt>
<trkpt lat="-26.7710529" lon="152.7893631">
<ele>496.833</ele>
<time>2016-10-05T03:10:51.919Z</time>
</trkpt>
<trkpt lat="-26.7713574" lon="152.7893034">
<ele>500.091</ele>
<time>2016-10-05T03:10:53.650Z</time>
</trkpt>
<trkpt lat="-26.7718378" lon="152.7891201">
<ele>503.609</ele>
<time>2016-10-05T03:10:56.586Z</time>
</trkpt>
<trkpt lat="-26.7721303" lon="152.7888899">
<ele>505.901</ele>
<time>2016-10-05T03:10:58.638Z</time>
</trkpt>
<trkpt lat="-26.7724953" lon="152.7884766">
<ele>506.335</ele>
<time>2016-10-05T03:11:01.606Z</time>
</trkpt>
<trkpt lat="-26.7726766" lon="152.7878697">
<ele>505.208</ele>
<time>2016-10-05T03:11:04.824Z</time>
</trkpt>
<trkpt lat="-26.7727566" lon="152.7874930">
<ele>503.076</ele>
<time>2016-10-05T03:11:06.800Z</time>
</trkpt>
<trkpt lat="-26.7729203" lon="152.7869921">
<ele>500.110</ele>
<time>2016-10-05T03:11:09.614Z</time>
</trkpt>
<trkpt lat="-26.7732300" lon="152.7867486">
<ele>496.120</ele>
<time>2016-10-05T03:11:11.757Z</time>
</trkpt>
<trkpt lat="-26.7735590" lon="152.7865219">
<ele>491.959</ele>
<time>2016-10-05T03:11:13.805Z</time>
</trkpt>
<trkpt lat="-26.7740700" lon="152.7862194">
<ele>489.383</ele>
<time>2016-10-05T03:11:16.761Z</time>
</trkpt>
<trkpt lat="-26.7744681" lon="152.7860889">
<ele>488.961</ele>
<time>2016-10-05T03:11:18.793Z</time>
</trkpt>
<trkpt lat="-26.7750532" lon="152.7858774">
<ele>489.751</ele>
<time>2016-10-05T03:11:21.791Z</time>
</trkpt>
<trkpt lat="-26.7754083" lon="152.7857383">
<ele>490.977</ele>
<time>2016-10-05T03:11:23.734Z</time>
</trkpt>
<trkpt lat="-26.7758210" lon="152.7853966">
<ele>492.198</ele>
<time>2016-10-05T03:11:26.612Z</time>
</trkpt>
<trkpt lat="-26.7762533" lon="152.7852373">
<ele>493.495</ele>
<time>2016-10-05T03:11:29.459Z</time>
</trkpt>
<trkpt lat="-26.7767384" lon="152.7852816">
<ele>495.089</ele>
<time>2016-10-05T03:11:32.661Z</time>
</trkpt>
<trkpt lat="-26.7771437" lon="152.7855067">
<ele>496.373</ele>
<time>2016-10-05T03:11:35.545Z</time>
</trkpt>
<trkpt lat="-26.7775476" lon="152.7859247">
<ele>496.156</ele>
<time>2016-10-05T03:11:38.712Z</time>
</trkpt>
<trkpt lat="-26.7779008" lon="152.7864335">
<ele>493.826</ele>
<time>2016-10-05T03:11:41.772Z</time>
</trkpt>
<trkpt lat="-26.7781054" lon="152.7867516">
<ele>489.688</ele>
<time>2016-10-05T03:11:43.626Z</time>
</trkpt>
<trkpt lat="-26.7783169" lon="152.7870992">
<ele>485.302</ele>
<time>2016-10-05T03:11:45.633Z</time>
</trkpt>
<trkpt lat="-26.7785357" lon="152.7874413">
<ele>482.919</ele>
<time>2016-10-05T03:11:47.655Z</time>
</trkpt>
<trkpt lat="-26.7787436" lon="152.7877756">
<ele>483.980</ele>
<time>2016-10-05T03:11:49.653Z</time>
</trkpt>
<trkpt lat="-26.7789516" lon="152.7881035">
<ele>488.195</ele>
<time>2016-10-05T03:11:51.713Z</time>
</trkpt>
<trkpt lat="-26.7791312" lon="152.7883941">
<ele>494.277</ele>
<time>2016-10-05T03:11:53.689Z</time>
</trkpt>
<trkpt lat="-26.7793750" lon="152.7887519">
<ele>500.704</ele>
<time>2016-10-05T03:11:56.457Z</time>
</trkpt>
<trkpt lat="-26.7796809" lon="152.7890567">
<ele>506.577</ele>
<time>2016-10-05T03:11:59.354Z</time>
</trkpt>
<trkpt lat="-26.7800970" lon="152.7894095">
<ele>511.211</ele>
<time>2016-10-05T03:12:02.561Z</time>
</trkpt>
<trkpt lat="-26.7804689" lon="152.7898412">
<ele>513.587</ele>
<time>2016-10-05T03:12:05.564Z</time>
</trkpt>
<trkpt lat="-26.7807322" lon="152.7903972">
<ele>512.937</ele>
<time>2016-10-05T03:12:08.646Z</time>
</trkpt>
<trkpt lat="-26.7808354" lon="152.7907627">
<ele>509.716</ele>
<time>2016-10-05T03:12:10.587Z</time>
</trkpt>
<trkpt lat="-26.7809441" lon="152.7910868">
<ele>505.440</ele>
<time>2016-10-05T03:12:12.488Z</time>
</trkpt>
<trkpt lat="-26.7811339" lon="152.7913329">
<ele>501.640</ele>
<time>2016-10-05T03:12:14.367Z</time>
</trkpt>
<trkpt lat="-26.7815897" lon="152.7916345">
<ele>499.100</ele>
<time>2016-10-05T03:12:17.502Z</time>
</trkpt>
<trkpt lat="-26.7818980" lon="152.7918416">
<ele>498.004</ele>
<time>2016-10-05T03:12:19.441Z</time>
</trkpt>
<trkpt lat="-26.7822008" lon="152.7920560">
<ele>497.750</ele>
<time>2016-10-05T03:12:21.454Z</time>
</trkpt>
<trkpt lat="-26.7825913" lon="152.7922644">
<ele>497.602</ele>
<time>2016-10-05T03:12:24.122Z</time>
</trkpt>
<trkpt lat="-26.7828993" lon="152.7923105">
<ele>497.618</ele>
<time>2016-10-05T03:12:26.138Z</time>
</trkpt>
<trkpt lat="-26.7834127" lon="152.7924105">
<ele>498.309</ele>
<time>2016-10-05T03:12:29.310Z</time>
</trkpt>
<trkpt lat="-26.7838569" lon="152.7925418">
<ele>499.856</ele>
<time>2016-10-05T03:12:32.162Z</time>
</trkpt>
<trkpt lat="-26.7841173" lon="152.7926929">
<ele>502.369</ele>
<time>2016-10-05T03:12:34.111Z</time>
</trkpt>
<trkpt lat="-26.7844511" lon="152.7930043">
<ele>506.024</ele>
<time>2016-10-05T03:12:36.987Z</time>
</trkpt>
<trkpt lat="-26.7847092" lon="152.7932325">
<ele>510.668</ele>
<time>2016-10-05T03:12:39.068Z</time>
</trkpt>
<trkpt lat="-26.7849587" lon="152.7934993">
<ele>515.549</ele>
<time>2016-10-05T03:12:41.163Z</time>
</trkpt>
<trkpt lat="-26.7852161" lon="152.7937640">
<ele>519.673</ele>
<time>2016-10-05T03:12:43.218Z</time>
</trkpt>
<trkpt lat="-26.7855614" lon="152.7941831">
<ele>522.327</ele>
<time>2016-10-05T03:12:46.254Z</time>
</trkpt>
<trkpt lat="-26.7857223" lon="152.7944623">
<ele>523.430</ele>
<time>2016-10-05T03:12:48.156Z</time>
</trkpt>
<trkpt lat="-26.7857836" lon="152.7947615">
<ele>523.290</ele>
<time>2016-10-05T03:12:50.020Z</time>
</trkpt>
<trkpt lat="-26.7858042" lon="152.7952819">
<ele>522.444</ele>
<time>2016-10-05T03:12:53.149Z</time>
</trkpt>
<trkpt lat="-26.7858698" lon="152.7956431">
<ele>521.236</ele>
<time>2016-10-05T03:12:55.168Z</time>
</trkpt>
<trkpt lat="-26.7859812" lon="152.7960552">
<ele>519.929</ele>
<time>2016-10-05T03:12:57.274Z</time>
</trkpt>
<trkpt lat="-26.7860917" lon="152.7964836">
<ele>518.920</ele>
<time>2016-10-05T03:12:59.332Z</time>
</trkpt>
<trkpt lat="-26.7861852" lon="152.7968851">
<ele>518.495</ele>
<time>2016-10-05T03:13:01.256Z</time>
</trkpt>
<trkpt lat="-26.7863449" lon="152.7975063">
<ele>518.516</ele>
<time>2016-10-05T03:13:04.299Z</time>
</trkpt>
<trkpt lat="-26.7864443" lon="152.7981179">
<ele>518.990</ele>
<time>2016-10-05T03:13:07.266Z</time>
</trkpt>
<trkpt lat="-26.7865144" lon="152.7984941">
<ele>519.860</ele>
<time>2016-10-05T03:13:09.163Z</time>
</trkpt>
<trkpt lat="-26.7867352" lon="152.7990092">
<ele>520.397</ele>
<time>2016-10-05T03:13:12.079Z</time>
</trkpt>
<trkpt lat="-26.7869996" lon="152.7994761">
<ele>519.320</ele>
<time>2016-10-05T03:13:15.040Z</time>
</trkpt>
<trkpt lat="-26.7871651" lon="152.7997388">
<ele>516.326</ele>
<time>2016-10-05T03:13:16.904Z</time>
</trkpt>
<trkpt lat="-26.7873350" lon="152.8000429">
<ele>512.725</ele>
<time>2016-10-05T03:13:19.437Z</time>
</trkpt>
<trkpt lat="-26.7874465" lon="152.8002614">
<ele>509.993</ele>
<time>2016-10-05T03:13:21.777Z</time>
</trkpt>
<trkpt lat="-26.7875140" lon="152.8003754">
<ele>508.519</ele>
<time>2016-10-05T03:13:23.291Z</time>
</trkpt>
<trkpt lat="-26.7876167" lon="152.8004468">
<ele>507.902</ele>
<time>2016-10-05T03:13:25.476Z</time>
</trkpt>
<trkpt lat="-26.7877362" lon="152.8003936">
<ele>507.592</ele>
<time>2016-10-05T03:13:28.665Z</time>
</trkpt>
<trkpt lat="-26.7879388" lon="152.8002518">
<ele>507.543</ele>
<time>2016-10-05T03:13:33.073Z</time>
</trkpt>
<trkpt lat="-26.7883679" lon="152.7998923">
<ele>508.276</ele>
<time>2016-10-05T03:13:37.346Z</time>
</trkpt>
<trkpt lat="-26.7888420" lon="152.7994832">
<ele>510.011</ele>
<time>2016-10-05T03:13:40.960Z</time>
</trkpt>
<trkpt lat="-26.7893853" lon="152.7991607">
<ele>512.008</ele>
<time>2016-10-05T03:13:44.404Z</time>
</trkpt>
<trkpt lat="-26.7897351" lon="152.7989456">
<ele>512.178</ele>
<time>2016-10-05T03:13:46.456Z</time>
</trkpt>
<trkpt lat="-26.7900463" lon="152.7986806">
<ele>508.858</ele>
<time>2016-10-05T03:13:48.399Z</time>
</trkpt>
<trkpt lat="-26.7904149" lon="152.7981227">
<ele>502.949</ele>
<time>2016-10-05T03:13:51.383Z</time>
</trkpt>
<trkpt lat="-26.7908145" lon="152.7975930">
<ele>496.460</ele>
<time>2016-10-05T03:13:54.240Z</time>
</trkpt>
<trkpt lat="-26.7911071" lon="152.7972036">
<ele>489.958</ele>
<time>2016-10-05T03:13:56.248Z</time>
</trkpt>
<trkpt lat="-26.7916840" lon="152.7967853">
<ele>483.808</ele>
<time>2016-10-05T03:13:59.242Z</time>
</trkpt>
<trkpt lat="-26.7920904" lon="152.7965898">
<ele>479.194</ele>
<time>2016-10-05T03:14:01.211Z</time>
</trkpt>
<trkpt lat="-26.7926571" lon="152.7962444">
<ele>476.813</ele>
<time>2016-10-05T03:14:04.151Z</time>
</trkpt>
<trkpt lat="-26.7929901" lon="152.7959188">
<ele>476.233</ele>
<time>2016-10-05T03:14:06.187Z</time>
</trkpt>
<trkpt lat="-26.7934194" lon="152.7953801">
<ele>477.133</ele>
<time>2016-10-05T03:14:09.122Z</time>
</trkpt>
<trkpt lat="-26.7936915" lon="152.7949822">
<ele>479.838</ele>
<time>2016-10-05T03:14:11.134Z</time>
</trkpt>
<trkpt lat="-26.7940760" lon="152.7943899">
<ele>483.956</ele>
<time>2016-10-05T03:14:14.140Z</time>
</trkpt>
<trkpt lat="-26.7944502" lon="152.7938546">
<ele>487.809</ele>
<time>2016-10-05T03:14:17.119Z</time>
</trkpt>
<trkpt lat="-26.7949114" lon="152.7934993">
<ele>490.288</ele>
<time>2016-10-05T03:14:20.057Z</time>
</trkpt>
<trkpt lat="-26.7952814" lon="152.7934237">
<ele>491.529</ele>
<time>2016-10-05T03:14:22.101Z</time>
</trkpt>
<trkpt lat="-26.7956395" lon="152.7934415">
<ele>492.115</ele>
<time>2016-10-05T03:14:24.006Z</time>
</trkpt>
<trkpt lat="-26.7961567" lon="152.7937610">
<ele>492.541</ele>
<time>2016-10-05T03:14:26.962Z</time>
</trkpt>
<trkpt lat="-26.7964893" lon="152.7941257">
<ele>492.875</ele>
<time>2016-10-05T03:14:29.047Z</time>
</trkpt>
<trkpt lat="-26.7970038" lon="152.7946689">
<ele>492.907</ele>
<time>2016-10-05T03:14:32.090Z</time>
</trkpt>
<trkpt lat="-26.7975038" lon="152.7951602">
<ele>492.338</ele>
<time>2016-10-05T03:14:34.972Z</time>
</trkpt>
<trkpt lat="-26.7978645" lon="152.7954993">
<ele>491.078</ele>
<time>2016-10-05T03:14:37.093Z</time>
</trkpt>
<trkpt lat="-26.7983810" lon="152.7958915">
<ele>489.723</ele>
<time>2016-10-05T03:14:40.016Z</time>
</trkpt>
<trkpt lat="-26.7986990" lon="152.7960860">
<ele>489.320</ele>
<time>2016-10-05T03:14:41.796Z</time>
</trkpt>
<trkpt lat="-26.7992981" lon="152.7962076">
<ele>490.241</ele>
<time>2016-10-05T03:14:44.785Z</time>
</trkpt>
<trkpt lat="-26.7997316" lon="152.7962153">
<ele>491.711</ele>
<time>2016-10-05T03:14:46.801Z</time>
</trkpt>
<trkpt lat="-26.8004506" lon="152.7960774">
<ele>492.785</ele>
<time>2016-10-05T03:14:50.017Z</time>
</trkpt>
<trkpt lat="-26.8008647" lon="152.7958788">
<ele>492.725</ele>
<time>2016-10-05T03:14:52.004Z</time>
</trkpt>
<trkpt lat="-26.8014782" lon="152.7955513">
<ele>491.256</ele>
<time>2016-10-05T03:14:55.103Z</time>
</trkpt>
<trkpt lat="-26.8018888" lon="152.7953917">
<ele>489.183</ele>
<time>2016-10-05T03:14:57.145Z</time>
</trkpt>
<trkpt lat="-26.8022845" lon="152.7952896">
<ele>487.521</ele>
<time>2016-10-05T03:14:59.071Z</time>
</trkpt>
<trkpt lat="-26.8028992" lon="152.7950984">
<ele>486.602</ele>
<time>2016-10-05T03:15:02.099Z</time>
</trkpt>
<trkpt lat="-26.8032594" lon="152.7948575">
<ele>486.334</ele>
<time>2016-10-05T03:15:04.100Z</time>
</trkpt>
<trkpt lat="-26.8037491" lon="152.7944442">
<ele>486.738</ele>
<time>2016-10-05T03:15:07.050Z</time>
</trkpt>
<trkpt lat="-26.8039773" lon="152.7937143">
<ele>488.874</ele>
<time>2016-10-05T03:15:10.413Z</time>
</trkpt>
<trkpt lat="-26.8041965" lon="152.7933579">
<ele>492.916</ele>
<time>2016-10-05T03:15:12.333Z</time>
</trkpt>
<trkpt lat="-26.8046258" lon="152.7928944">
<ele>496.714</ele>
<time>2016-10-05T03:15:15.265Z</time>
</trkpt>
<trkpt lat="-26.8050204" lon="152.7926461">
<ele>497.943</ele>
<time>2016-10-05T03:15:17.394Z</time>
</trkpt>
<trkpt lat="-26.8056529" lon="152.7925720">
<ele>496.502</ele>
<time>2016-10-05T03:15:20.327Z</time>
</trkpt>
<trkpt lat="-26.8063419" lon="152.7924668">
<ele>494.010</ele>
<time>2016-10-05T03:15:23.480Z</time>
</trkpt>
<trkpt lat="-26.8069590" lon="152.7922604">
<ele>491.523</ele>
<time>2016-10-05T03:15:26.420Z</time>
</trkpt>
<trkpt lat="-26.8073359" lon="152.7920560">
<ele>488.611</ele>
<time>2016-10-05T03:15:28.392Z</time>
</trkpt>
<trkpt lat="-26.8078342" lon="152.7916116">
<ele>485.563</ele>
<time>2016-10-05T03:15:31.394Z</time>
</trkpt>
<trkpt lat="-26.8082314" lon="152.7910557">
<ele>484.294</ele>
<time>2016-10-05T03:15:34.338Z</time>
</trkpt>
<trkpt lat="-26.8086353" lon="152.7904678">
<ele>486.932</ele>
<time>2016-10-05T03:15:37.321Z</time>
</trkpt>
<trkpt lat="-26.8090439" lon="152.7898655">
<ele>493.292</ele>
<time>2016-10-05T03:15:40.330Z</time>
</trkpt>
<trkpt lat="-26.8092987" lon="152.7894750">
<ele>500.977</ele>
<time>2016-10-05T03:15:42.340Z</time>
</trkpt>
<trkpt lat="-26.8094775" lon="152.7890651">
<ele>507.524</ele>
<time>2016-10-05T03:15:44.280Z</time>
</trkpt>
<trkpt lat="-26.8097535" lon="152.7884237">
<ele>511.472</ele>
<time>2016-10-05T03:15:47.283Z</time>
</trkpt>
<trkpt lat="-26.8100022" lon="152.7880320">
<ele>512.529</ele>
<time>2016-10-05T03:15:49.286Z</time>
</trkpt>
<trkpt lat="-26.8104205" lon="152.7875072">
<ele>511.746</ele>
<time>2016-10-05T03:15:52.206Z</time>
</trkpt>
<trkpt lat="-26.8107017" lon="152.7871387">
<ele>510.484</ele>
<time>2016-10-05T03:15:54.174Z</time>
</trkpt>
<trkpt lat="-26.8109421" lon="152.7867148">
<ele>509.455</ele>
<time>2016-10-05T03:15:56.186Z</time>
</trkpt>
<trkpt lat="-26.8111275" lon="152.7862764">
<ele>508.733</ele>
<time>2016-10-05T03:15:58.164Z</time>
</trkpt>
<trkpt lat="-26.8113917" lon="152.7856127">
<ele>508.655</ele>
<time>2016-10-05T03:16:01.296Z</time>
</trkpt>
<trkpt lat="-26.8116031" lon="152.7850754">
<ele>510.131</ele>
<time>2016-10-05T03:16:04.075Z</time>
</trkpt>
<trkpt lat="-26.8117150" lon="152.7844953">
<ele>513.214</ele>
<time>2016-10-05T03:16:07.015Z</time>
</trkpt>
<trkpt lat="-26.8117053" lon="152.7840785">
<ele>516.553</ele>
<time>2016-10-05T03:16:09.024Z</time>
</trkpt>
<trkpt lat="-26.8115862" lon="152.7836904">
<ele>519.544</ele>
<time>2016-10-05T03:16:10.906Z</time>
</trkpt>
<trkpt lat="-26.8111430" lon="152.7831351">
<ele>522.602</ele>
<time>2016-10-05T03:16:14.149Z</time>
</trkpt>
<trkpt lat="-26.8108355" lon="152.7828184">
<ele>525.790</ele>
<time>2016-10-05T03:16:16.124Z</time>
</trkpt>
<trkpt lat="-26.8105973" lon="152.7824329">
<ele>528.751</ele>
<time>2016-10-05T03:16:18.084Z</time>
</trkpt>
<trkpt lat="-26.8104217" lon="152.7819819">
<ele>531.425</ele>
<time>2016-10-05T03:16:20.136Z</time>
</trkpt>
<trkpt lat="-26.8101858" lon="152.7813343">
<ele>533.927</ele>
<time>2016-10-05T03:16:23.135Z</time>
</trkpt>
<trkpt lat="-26.8099736" lon="152.7807548">
<ele>535.899</ele>
<time>2016-10-05T03:16:25.983Z</time>
</trkpt>
<trkpt lat="-26.8098487" lon="152.7803695">
<ele>536.800</ele>
<time>2016-10-05T03:16:27.943Z</time>
</trkpt>
<trkpt lat="-26.8097907" lon="152.7799837">
<ele>536.640</ele>
<time>2016-10-05T03:16:29.827Z</time>
</trkpt>
<trkpt lat="-26.8099559" lon="152.7793871">
<ele>535.724</ele>
<time>2016-10-05T03:16:32.794Z</time>
</trkpt>
<trkpt lat="-26.8100814" lon="152.7787573">
<ele>534.467</ele>
<time>2016-10-05T03:16:35.805Z</time>
</trkpt>
<trkpt lat="-26.8099620" lon="152.7781227">
<ele>532.261</ele>
<time>2016-10-05T03:16:38.816Z</time>
</trkpt>
<trkpt lat="-26.8097853" lon="152.7777203">
<ele>528.268</ele>
<time>2016-10-05T03:16:40.874Z</time>
</trkpt>
<trkpt lat="-26.8095244" lon="152.7771394">
<ele>523.789</ele>
<time>2016-10-05T03:16:43.884Z</time>
</trkpt>
<trkpt lat="-26.8093833" lon="152.7767535">
<ele>520.342</ele>
<time>2016-10-05T03:16:45.812Z</time>
</trkpt>
<trkpt lat="-26.8093434" lon="152.7760860">
<ele>517.890</ele>
<time>2016-10-05T03:16:48.792Z</time>
</trkpt>
<trkpt lat="-26.8095309" lon="152.7753713">
<ele>517.324</ele>
<time>2016-10-05T03:16:51.956Z</time>
</trkpt>
<trkpt lat="-26.8096525" lon="152.7749142">
<ele>520.394</ele>
<time>2016-10-05T03:16:53.983Z</time>
</trkpt>
<trkpt lat="-26.8098036" lon="152.7744827">
<ele>525.905</ele>
<time>2016-10-05T03:16:55.973Z</time>
</trkpt>
<trkpt lat="-26.8098725" lon="152.7738102">
<ele>530.442</ele>
<time>2016-10-05T03:16:58.855Z</time>
</trkpt>
<trkpt lat="-26.8098503" lon="152.7733432">
<ele>532.445</ele>
<time>2016-10-05T03:17:00.833Z</time>
</trkpt>
<trkpt lat="-26.8096394" lon="152.7727235">
<ele>532.996</ele>
<time>2016-10-05T03:17:03.681Z</time>
</trkpt>
<trkpt lat="-26.8092124" lon="152.7721625">
<ele>533.329</ele>
<time>2016-10-05T03:17:06.892Z</time>
</trkpt>
<trkpt lat="-26.8090337" lon="152.7717803">
<ele>534.182</ele>
<time>2016-10-05T03:17:08.792Z</time>
</trkpt>
<trkpt lat="-26.8088956" lon="152.7713441">
<ele>535.964</ele>
<time>2016-10-05T03:17:10.838Z</time>
</trkpt>
<trkpt lat="-26.8088449" lon="152.7707245">
<ele>538.614</ele>
<time>2016-10-05T03:17:13.621Z</time>
</trkpt>
<trkpt lat="-26.8089996" lon="152.7701335">
<ele>541.428</ele>
<time>2016-10-05T03:17:16.471Z</time>
</trkpt>
<trkpt lat="-26.8092287" lon="152.7697882">
<ele>543.511</ele>
<time>2016-10-05T03:17:18.488Z</time>
</trkpt>
<trkpt lat="-26.8097380" lon="152.7694471">
<ele>544.188</ele>
<time>2016-10-05T03:17:21.531Z</time>
</trkpt>
<trkpt lat="-26.8101354" lon="152.7692750">
<ele>543.253</ele>
<time>2016-10-05T03:17:23.583Z</time>
</trkpt>
<trkpt lat="-26.8107081" lon="152.7689159">
<ele>541.125</ele>
<time>2016-10-05T03:17:26.597Z</time>
</trkpt>
<trkpt lat="-26.8112183" lon="152.7683803">
<ele>538.407</ele>
<time>2016-10-05T03:17:29.696Z</time>
</trkpt>
<trkpt lat="-26.8117041" lon="152.7678869">
<ele>535.177</ele>
<time>2016-10-05T03:17:32.664Z</time>
</trkpt>
<trkpt lat="-26.8119883" lon="152.7675675">
<ele>531.646</ele>
<time>2016-10-05T03:17:34.598Z</time>
</trkpt>
<trkpt lat="-26.8122377" lon="152.7672128">
<ele>528.463</ele>
<time>2016-10-05T03:17:36.554Z</time>
</trkpt>
<trkpt lat="-26.8124500" lon="152.7667776">
<ele>525.821</ele>
<time>2016-10-05T03:17:38.602Z</time>
</trkpt>
<trkpt lat="-26.8127556" lon="152.7661050">
<ele>523.400</ele>
<time>2016-10-05T03:17:41.579Z</time>
</trkpt>
<trkpt lat="-26.8129404" lon="152.7656675">
<ele>520.482</ele>
<time>2016-10-05T03:17:43.528Z</time>
</trkpt>
<trkpt lat="-26.8131871" lon="152.7650635">
<ele>516.848</ele>
<time>2016-10-05T03:17:46.408Z</time>
</trkpt>
<trkpt lat="-26.8135421" lon="152.7645774">
<ele>513.589</ele>
<time>2016-10-05T03:17:49.349Z</time>
</trkpt>
<trkpt lat="-26.8138875" lon="152.7643897">
<ele>512.001</ele>
<time>2016-10-05T03:17:51.357Z</time>
</trkpt>
<trkpt lat="-26.8142867" lon="152.7643128">
<ele>512.903</ele>
<time>2016-10-05T03:17:53.399Z</time>
</trkpt>
<trkpt lat="-26.8146986" lon="152.7643519">
<ele>516.332</ele>
<time>2016-10-05T03:17:55.430Z</time>
</trkpt>
<trkpt lat="-26.8152450" lon="152.7647114">
<ele>520.466</ele>
<time>2016-10-05T03:17:58.440Z</time>
</trkpt>
<trkpt lat="-26.8157368" lon="152.7652555">
<ele>522.961</ele>
<time>2016-10-05T03:18:01.505Z</time>
</trkpt>
<trkpt lat="-26.8162901" lon="152.7657370">
<ele>523.390</ele>
<time>2016-10-05T03:18:04.494Z</time>
</trkpt>
<trkpt lat="-26.8166720" lon="152.7659997">
<ele>522.423</ele>
<time>2016-10-05T03:18:06.440Z</time>
</trkpt>
<trkpt lat="-26.8170424" lon="152.7662496">
<ele>520.604</ele>
<time>2016-10-05T03:18:08.387Z</time>
</trkpt>
<trkpt lat="-26.8175812" lon="152.7665947">
<ele>518.746</ele>
<time>2016-10-05T03:18:11.322Z</time>
</trkpt>
<trkpt lat="-26.8179209" lon="152.7668176">
<ele>518.218</ele>
<time>2016-10-05T03:18:13.267Z</time>
</trkpt>
<trkpt lat="-26.8184831" lon="152.7670913">
<ele>519.513</ele>
<time>2016-10-05T03:18:16.268Z</time>
</trkpt>
<trkpt lat="-26.8188809" lon="152.7672128">
<ele>522.165</ele>
<time>2016-10-05T03:18:18.206Z</time>
</trkpt>
<trkpt lat="-26.8195444" lon="152.7674114">
<ele>525.302</ele>
<time>2016-10-05T03:18:21.315Z</time>
</trkpt>
<trkpt lat="-26.8201637" lon="152.7676198">
<ele>527.726</ele>
<time>2016-10-05T03:18:24.257Z</time>
</trkpt>
<trkpt lat="-26.8207488" lon="152.7677985">
<ele>528.726</ele>
<time>2016-10-05T03:18:27.180Z</time>
</trkpt>
<trkpt lat="-26.8212770" lon="152.7679798">
<ele>528.605</ele>
<time>2016-10-05T03:18:30.019Z</time>
</trkpt>
<trkpt lat="-26.8216160" lon="152.7681619">
<ele>527.975</ele>
<time>2016-10-05T03:18:31.995Z</time>
</trkpt>
<trkpt lat="-26.8219839" lon="152.7683722">
<ele>527.501</ele>
<time>2016-10-05T03:18:34.095Z</time>
</trkpt>
<trkpt lat="-26.8224219" lon="152.7688551">
<ele>527.405</ele>
<time>2016-10-05T03:18:37.175Z</time>
</trkpt>
<trkpt lat="-26.8226980" lon="152.7693994">
<ele>527.427</ele>
<time>2016-10-05T03:18:40.053Z</time>
</trkpt>
<trkpt lat="-26.8228026" lon="152.7697892">
<ele>527.304</ele>
<time>2016-10-05T03:18:41.996Z</time>
</trkpt>
<trkpt lat="-26.8228894" lon="152.7703869">
<ele>526.416</ele>
<time>2016-10-05T03:18:44.996Z</time>
</trkpt>
<trkpt lat="-26.8228244" lon="152.7707713">
<ele>523.669</ele>
<time>2016-10-05T03:18:46.996Z</time>
</trkpt>
<trkpt lat="-26.8227426" lon="152.7713794">
<ele>518.968</ele>
<time>2016-10-05T03:18:50.044Z</time>
</trkpt>
<trkpt lat="-26.8226098" lon="152.7718682">
<ele>512.912</ele>
<time>2016-10-05T03:18:52.804Z</time>
</trkpt>
<trkpt lat="-26.8223151" lon="152.7723547">
<ele>505.392</ele>
<time>2016-10-05T03:18:55.994Z</time>
</trkpt>
<trkpt lat="-26.8218851" lon="152.7725120">
<ele>497.231</ele>
<time>2016-10-05T03:18:58.765Z</time>
</trkpt>
<trkpt lat="-26.8216390" lon="152.7726639">
<ele>489.800</ele>
<time>2016-10-05T03:19:00.664Z</time>
</trkpt>
<trkpt lat="-26.8216900" lon="152.7731695">
<ele>483.202</ele>
<time>2016-10-05T03:19:03.980Z</time>
</trkpt>
<trkpt lat="-26.8219790" lon="152.7735975">
<ele>477.601</ele>
<time>2016-10-05T03:19:07.081Z</time>
</trkpt>
<trkpt lat="-26.8221351" lon="152.7739965">
<ele>473.348</ele>
<time>2016-10-05T03:19:09.294Z</time>
</trkpt>
<trkpt lat="-26.8221500" lon="152.7743327">
<ele>469.654</ele>
<time>2016-10-05T03:19:11.032Z</time>
</trkpt>
<trkpt lat="-26.8221169" lon="152.7746899">
<ele>465.197</ele>
<time>2016-10-05T03:19:13.038Z</time>
</trkpt>
<trkpt lat="-26.8219867" lon="152.7748747">
<ele>459.579</ele>
<time>2016-10-05T03:19:14.478Z</time>
</trkpt>
<trkpt lat="-26.8218751" lon="152.7752997">
<ele>453.599</ele>
<time>2016-10-05T03:19:17.428Z</time>
</trkpt>
<trkpt lat="-26.8222799" lon="152.7753935">
<ele>448.031</ele>
<time>2016-10-05T03:19:20.555Z</time>
</trkpt>
<trkpt lat="-26.8225861" lon="152.7756822">
<ele>443.460</ele>
<time>2016-10-05T03:19:22.894Z</time>
</trkpt>
<trkpt lat="-26.8228273" lon="152.7760490">
<ele>440.245</ele>
<time>2016-10-05T03:19:24.859Z</time>
</trkpt>
<trkpt lat="-26.8231703" lon="152.7767400">
<ele>437.833</ele>
<time>2016-10-05T03:19:28.110Z</time>
</trkpt>
<trkpt lat="-26.8235120" lon="152.7773783">
<ele>434.911</ele>
<time>2016-10-05T03:19:31.095Z</time>
</trkpt>
<trkpt lat="-26.8238079" lon="152.7780516">
<ele>430.643</ele>
<time>2016-10-05T03:19:34.091Z</time>
</trkpt>
<trkpt lat="-26.8240761" lon="152.7787315">
<ele>425.825</ele>
<time>2016-10-05T03:19:37.098Z</time>
</trkpt>
<trkpt lat="-26.8242179" lon="152.7794186">
<ele>421.984</ele>
<time>2016-10-05T03:19:40.064Z</time>
</trkpt>
<trkpt lat="-26.8242409" lon="152.7798780">
<ele>419.616</ele>
<time>2016-10-05T03:19:42.158Z</time>
</trkpt>
<trkpt lat="-26.8243554" lon="152.7805040">
<ele>418.221</ele>
<time>2016-10-05T03:19:45.095Z</time>
</trkpt>
<trkpt lat="-26.8245232" lon="152.7809246">
<ele>417.165</ele>
<time>2016-10-05T03:19:47.144Z</time>
</trkpt>
<trkpt lat="-26.8249118" lon="152.7814571">
<ele>416.259</ele>
<time>2016-10-05T03:19:50.164Z</time>
</trkpt>
<trkpt lat="-26.8250559" lon="152.7821116">
<ele>415.319</ele>
<time>2016-10-05T03:19:53.082Z</time>
</trkpt>
<trkpt lat="-26.8250269" lon="152.7825743">
<ele>413.502</ele>
<time>2016-10-05T03:19:55.062Z</time>
</trkpt>
<trkpt lat="-26.8250078" lon="152.7830308">
<ele>410.619</ele>
<time>2016-10-05T03:19:56.994Z</time>
</trkpt>
<trkpt lat="-26.8249871" lon="152.7835125">
<ele>407.981</ele>
<time>2016-10-05T03:19:59.008Z</time>
</trkpt>
<trkpt lat="-26.8249735" lon="152.7840007">
<ele>406.654</ele>
<time>2016-10-05T03:20:01.053Z</time>
</trkpt>
<trkpt lat="-26.8249468" lon="152.7847172">
<ele>405.915</ele>
<time>2016-10-05T03:20:04.076Z</time>
</trkpt>
<trkpt lat="-26.8249255" lon="152.7851910">
<ele>404.426</ele>
<time>2016-10-05T03:20:06.146Z</time>
</trkpt>
<trkpt lat="-26.8249177" lon="152.7855997">
<ele>402.108</ele>
<time>2016-10-05T03:20:08.013Z</time>
</trkpt>
<trkpt lat="-26.8248724" lon="152.7862296">
<ele>400.027</ele>
<time>2016-10-05T03:20:10.960Z</time>
</trkpt>
<trkpt lat="-26.8247788" lon="152.7866199">
<ele>398.878</ele>
<time>2016-10-05T03:20:12.808Z</time>
</trkpt>
<trkpt lat="-26.8245105" lon="152.7872121">
<ele>398.680</ele>
<time>2016-10-05T03:20:15.740Z</time>
</trkpt>
<trkpt lat="-26.8242207" lon="152.7875588">
<ele>399.418</ele>
<time>2016-10-05T03:20:17.818Z</time>
</trkpt>
<trkpt lat="-26.8239573" lon="152.7878579">
<ele>400.888</ele>
<time>2016-10-05T03:20:19.787Z</time>
</trkpt>
<trkpt lat="-26.8237519" lon="152.7881928">
<ele>402.373</ele>
<time>2016-10-05T03:20:21.799Z</time>
</trkpt>
<trkpt lat="-26.8237131" lon="152.7886291">
<ele>403.394</ele>
<time>2016-10-05T03:20:23.904Z</time>
</trkpt>
<trkpt lat="-26.8238388" lon="152.7892953">
<ele>404.015</ele>
<time>2016-10-05T03:20:27.046Z</time>
</trkpt>
<trkpt lat="-26.8242817" lon="152.7897735">
<ele>404.312</ele>
<time>2016-10-05T03:20:30.142Z</time>
</trkpt>
<trkpt lat="-26.8245842" lon="152.7901069">
<ele>404.335</ele>
<time>2016-10-05T03:20:32.286Z</time>
</trkpt>
<trkpt lat="-26.8248246" lon="152.7904311">
<ele>404.205</ele>
<time>2016-10-05T03:20:34.301Z</time>
</trkpt>
<trkpt lat="-26.8250047" lon="152.7907669">
<ele>403.974</ele>
<time>2016-10-05T03:20:36.330Z</time>
</trkpt>
<trkpt lat="-26.8253470" lon="152.7911459">
<ele>403.681</ele>
<time>2016-10-05T03:20:39.242Z</time>
</trkpt>
<trkpt lat="-26.8258481" lon="152.7913303">
<ele>403.452</ele>
<time>2016-10-05T03:20:42.408Z</time>
</trkpt>
<trkpt lat="-26.8262112" lon="152.7913358">
<ele>403.473</ele>
<time>2016-10-05T03:20:44.605Z</time>
</trkpt>
<trkpt lat="-26.8266102" lon="152.7915855">
<ele>403.758</ele>
<time>2016-10-05T03:20:47.452Z</time>
</trkpt>
<trkpt lat="-26.8269265" lon="152.7917065">
<ele>403.504</ele>
<time>2016-10-05T03:20:49.517Z</time>
</trkpt>
<trkpt lat="-26.8271978" lon="152.7918679">
<ele>402.135</ele>
<time>2016-10-05T03:20:51.386Z</time>
</trkpt>
<trkpt lat="-26.8274397" lon="152.7923752">
<ele>400.050</ele>
<time>2016-10-05T03:20:54.319Z</time>
</trkpt>
<trkpt lat="-26.8274656" lon="152.7927951">
<ele>397.791</ele>
<time>2016-10-05T03:20:56.293Z</time>
</trkpt>
<trkpt lat="-26.8274928" lon="152.7932398">
<ele>395.882</ele>
<time>2016-10-05T03:20:58.313Z</time>
</trkpt>
<trkpt lat="-26.8274504" lon="152.7939091">
<ele>394.618</ele>
<time>2016-10-05T03:21:01.237Z</time>
</trkpt>
<trkpt lat="-26.8272844" lon="152.7945923">
<ele>393.273</ele>
<time>2016-10-05T03:21:04.239Z</time>
</trkpt>
<trkpt lat="-26.8272302" lon="152.7952329">
<ele>391.379</ele>
<time>2016-10-05T03:21:06.971Z</time>
</trkpt>
<trkpt lat="-26.8272145" lon="152.7956814">
<ele>389.091</ele>
<time>2016-10-05T03:21:08.897Z</time>
</trkpt>
<trkpt lat="-26.8272099" lon="152.7963918">
<ele>386.795</ele>
<time>2016-10-05T03:21:12.000Z</time>
</trkpt>
<trkpt lat="-26.8271639" lon="152.7968084">
<ele>384.683</ele>
<time>2016-10-05T03:21:13.973Z</time>
</trkpt>
<trkpt lat="-26.8269917" lon="152.7973926">
<ele>382.852</ele>
<time>2016-10-05T03:21:16.877Z</time>
</trkpt>
<trkpt lat="-26.8269500" lon="152.7980303">
<ele>381.610</ele>
<time>2016-10-05T03:21:19.796Z</time>
</trkpt>
<trkpt lat="-26.8270240" lon="152.7986976">
<ele>381.414</ele>
<time>2016-10-05T03:21:22.768Z</time>
</trkpt>
<trkpt lat="-26.8270785" lon="152.7993716">
<ele>382.139</ele>
<time>2016-10-05T03:21:25.786Z</time>
</trkpt>
<trkpt lat="-26.8271102" lon="152.8000149">
<ele>383.110</ele>
<time>2016-10-05T03:21:28.773Z</time>
</trkpt>
<trkpt lat="-26.8270806" lon="152.8004210">
<ele>383.698</ele>
<time>2016-10-05T03:21:30.716Z</time>
</trkpt>
<trkpt lat="-26.8269992" lon="152.8008354">
<ele>383.857</ele>
<time>2016-10-05T03:21:32.711Z</time>
</trkpt>
<trkpt lat="-26.8267844" lon="152.8014310">
<ele>383.349</ele>
<time>2016-10-05T03:21:35.668Z</time>
</trkpt>
<trkpt lat="-26.8265743" lon="152.8018191">
<ele>382.085</ele>
<time>2016-10-05T03:21:37.673Z</time>
</trkpt>
<trkpt lat="-26.8261563" lon="152.8023315">
<ele>380.506</ele>
<time>2016-10-05T03:21:40.631Z</time>
</trkpt>
<trkpt lat="-26.8256950" lon="152.8028645">
<ele>378.433</ele>
<time>2016-10-05T03:21:43.705Z</time>
</trkpt>
<trkpt lat="-26.8252191" lon="152.8033266">
<ele>375.722</ele>
<time>2016-10-05T03:21:46.691Z</time>
</trkpt>
<trkpt lat="-26.8249763" lon="152.8036955">
<ele>372.637</ele>
<time>2016-10-05T03:21:48.693Z</time>
</trkpt>
<trkpt lat="-26.8248187" lon="152.8041434">
<ele>369.111</ele>
<time>2016-10-05T03:21:50.913Z</time>
</trkpt>
<trkpt lat="-26.8247124" lon="152.8046953">
<ele>365.786</ele>
<time>2016-10-05T03:21:53.638Z</time>
</trkpt>
<trkpt lat="-26.8247920" lon="152.8050935">
<ele>362.987</ele>
<time>2016-10-05T03:21:55.559Z</time>
</trkpt>
<trkpt lat="-26.8250326" lon="152.8054767">
<ele>360.041</ele>
<time>2016-10-05T03:21:57.569Z</time>
</trkpt>
<trkpt lat="-26.8253624" lon="152.8058447">
<ele>357.427</ele>
<time>2016-10-05T03:21:59.666Z</time>
</trkpt>
<trkpt lat="-26.8258543" lon="152.8063676">
<ele>355.938</ele>
<time>2016-10-05T03:22:02.699Z</time>
</trkpt>
<trkpt lat="-26.8261759" lon="152.8066965">
<ele>354.447</ele>
<time>2016-10-05T03:22:04.669Z</time>
</trkpt>
<trkpt lat="-26.8266450" lon="152.8072328">
<ele>351.377</ele>
<time>2016-10-05T03:22:07.715Z</time>
</trkpt>
<trkpt lat="-26.8270287" lon="152.8078265">
<ele>346.380</ele>
<time>2016-10-05T03:22:10.709Z</time>
</trkpt>
<trkpt lat="-26.8273689" lon="152.8084515">
<ele>340.190</ele>
<time>2016-10-05T03:22:13.654Z</time>
</trkpt>
<trkpt lat="-26.8275116" lon="152.8089464">
<ele>334.182</ele>
<time>2016-10-05T03:22:15.681Z</time>
</trkpt>
<trkpt lat="-26.8276587" lon="152.8094269">
<ele>329.802</ele>
<time>2016-10-05T03:22:17.708Z</time>
</trkpt>
<trkpt lat="-26.8278139" lon="152.8098701">
<ele>326.830</ele>
<time>2016-10-05T03:22:19.710Z</time>
</trkpt>
<trkpt lat="-26.8279753" lon="152.8102779">
<ele>323.906</ele>
<time>2016-10-05T03:22:21.740Z</time>
</trkpt>
<trkpt lat="-26.8281897" lon="152.8108544">
<ele>320.911</ele>
<time>2016-10-05T03:22:24.739Z</time>
</trkpt>
<trkpt lat="-26.8281983" lon="152.8114362">
<ele>318.619</ele>
<time>2016-10-05T03:22:27.722Z</time>
</trkpt>
<trkpt lat="-26.8280374" lon="152.8119334">
<ele>316.799</ele>
<time>2016-10-05T03:22:30.656Z</time>
</trkpt>
<trkpt lat="-26.8280250" lon="152.8122684">
<ele>314.657</ele>
<time>2016-10-05T03:22:32.683Z</time>
</trkpt>
<trkpt lat="-26.8281412" lon="152.8127182">
<ele>312.192</ele>
<time>2016-10-05T03:22:35.686Z</time>
</trkpt>
<trkpt lat="-26.8285676" lon="152.8127745">
<ele>310.210</ele>
<time>2016-10-05T03:22:38.854Z</time>
</trkpt>
<trkpt lat="-26.8289333" lon="152.8126698">
<ele>309.627</ele>
<time>2016-10-05T03:22:41.077Z</time>
</trkpt>
<trkpt lat="-26.8294622" lon="152.8124833">
<ele>310.418</ele>
<time>2016-10-05T03:22:44.045Z</time>
</trkpt>
<trkpt lat="-26.8298570" lon="152.8124853">
<ele>311.373</ele>
<time>2016-10-05T03:22:46.006Z</time>
</trkpt>
<trkpt lat="-26.8304617" lon="152.8126536">
<ele>311.153</ele>
<time>2016-10-05T03:22:48.933Z</time>
</trkpt>
<trkpt lat="-26.8310991" lon="152.8131073">
<ele>309.226</ele>
<time>2016-10-05T03:22:52.278Z</time>
</trkpt>
<trkpt lat="-26.8315861" lon="152.8136371">
<ele>306.187</ele>
<time>2016-10-05T03:22:55.323Z</time>
</trkpt>
<trkpt lat="-26.8318791" lon="152.8139866">
<ele>303.044</ele>
<time>2016-10-05T03:22:57.361Z</time>
</trkpt>
<trkpt lat="-26.8321685" lon="152.8143130">
<ele>299.800</ele>
<time>2016-10-05T03:22:59.421Z</time>
</trkpt>
<trkpt lat="-26.8324510" lon="152.8146036">
<ele>296.023</ele>
<time>2016-10-05T03:23:01.374Z</time>
</trkpt>
<trkpt lat="-26.8330023" lon="152.8148843">
<ele>292.142</ele>
<time>2016-10-05T03:23:04.382Z</time>
</trkpt>
<trkpt lat="-26.8336050" lon="152.8150879">
<ele>288.992</ele>
<time>2016-10-05T03:23:07.411Z</time>
</trkpt>
<trkpt lat="-26.8339791" lon="152.8153039">
<ele>286.307</ele>
<time>2016-10-05T03:23:09.427Z</time>
</trkpt>
<trkpt lat="-26.8344089" lon="152.8157970">
<ele>283.282</ele>
<time>2016-10-05T03:23:12.585Z</time>
</trkpt>
<trkpt lat="-26.8346552" lon="152.8160871">
<ele>280.288</ele>
<time>2016-10-05T03:23:14.667Z</time>
</trkpt>
<trkpt lat="-26.8348812" lon="152.8163842">
<ele>278.226</ele>
<time>2016-10-05T03:23:16.857Z</time>
</trkpt>
<trkpt lat="-26.8351776" lon="152.8167745">
<ele>277.227</ele>
<time>2016-10-05T03:23:20.113Z</time>
</trkpt>
<trkpt lat="-26.8353799" lon="152.8169968">
<ele>276.654</ele>
<time>2016-10-05T03:23:22.439Z</time>
</trkpt>
<trkpt lat="-26.8355542" lon="152.8173431">
<ele>275.486</ele>
<time>2016-10-05T03:23:26.439Z</time>
</trkpt>
<trkpt lat="-26.8355935" lon="152.8175067">
<ele>273.147</ele>
<time>2016-10-05T03:23:28.040Z</time>
</trkpt>
<trkpt lat="-26.8357309" lon="152.8175966">
<ele>269.947</ele>
<time>2016-10-05T03:23:29.545Z</time>
</trkpt>
<trkpt lat="-26.8360703" lon="152.8175793">
<ele>267.004</ele>
<time>2016-10-05T03:23:32.088Z</time>
</trkpt>
<trkpt lat="-26.8363507" lon="152.8176086">
<ele>265.563</ele>
<time>2016-10-05T03:23:33.962Z</time>
</trkpt>
<trkpt lat="-26.8366403" lon="152.8176836">
<ele>265.704</ele>
<time>2016-10-05T03:23:35.873Z</time>
</trkpt>
<trkpt lat="-26.8371187" lon="152.8175769">
<ele>266.310</ele>
<time>2016-10-05T03:23:38.816Z</time>
</trkpt>
<trkpt lat="-26.8376063" lon="152.8173875">
<ele>266.494</ele>
<time>2016-10-05T03:23:41.860Z</time>
</trkpt>
<trkpt lat="-26.8378982" lon="152.8172977">
<ele>266.244</ele>
<time>2016-10-05T03:23:43.593Z</time>
</trkpt>
<trkpt lat="-26.8384921" lon="152.8174803">
<ele>265.504</ele>
<time>2016-10-05T03:23:47.021Z</time>
</trkpt>
<trkpt lat="-26.8389996" lon="152.8174364">
<ele>263.535</ele>
<time>2016-10-05T03:23:49.911Z</time>
</trkpt>
<trkpt lat="-26.8394068" lon="152.8170382">
<ele>260.217</ele>
<time>2016-10-05T03:23:53.060Z</time>
</trkpt>
<trkpt lat="-26.8396916" lon="152.8165600">
<ele>256.731</ele>
<time>2016-10-05T03:23:56.191Z</time>
</trkpt>
<trkpt lat="-26.8399623" lon="152.8163658">
<ele>254.195</ele>
<time>2016-10-05T03:23:58.162Z</time>
</trkpt>
<trkpt lat="-26.8404360" lon="152.8162358">
<ele>252.723</ele>
<time>2016-10-05T03:24:01.080Z</time>
</trkpt>
<trkpt lat="-26.8407541" lon="152.8162438">
<ele>251.856</ele>
<time>2016-10-05T03:24:02.924Z</time>
</trkpt>
<trkpt lat="-26.8411837" lon="152.8167029">
<ele>250.313</ele>
<time>2016-10-05T03:24:06.201Z</time>
</trkpt>
<trkpt lat="-26.8415149" lon="152.8172222">
<ele>246.639</ele>
<time>2016-10-05T03:24:09.503Z</time>
</trkpt>
<trkpt lat="-26.8417424" lon="152.8175049">
<ele>241.028</ele>
<time>2016-10-05T03:24:11.523Z</time>
</trkpt>
<trkpt lat="-26.8420719" lon="152.8176185">
<ele>235.714</ele>
<time>2016-10-05T03:24:13.474Z</time>
</trkpt>
<trkpt lat="-26.8424359" lon="152.8176454">
<ele>232.465</ele>
<time>2016-10-05T03:24:15.496Z</time>
</trkpt>
<trkpt lat="-26.8429124" lon="152.8178867">
<ele>231.067</ele>
<time>2016-10-05T03:24:18.339Z</time>
</trkpt>
<trkpt lat="-26.8433373" lon="152.8183377">
<ele>229.852</ele>
<time>2016-10-05T03:24:21.583Z</time>
</trkpt>
<trkpt lat="-26.8437939" lon="152.8186266">
<ele>227.783</ele>
<time>2016-10-05T03:24:24.553Z</time>
</trkpt>
<trkpt lat="-26.8441734" lon="152.8186345">
<ele>225.056</ele>
<time>2016-10-05T03:24:26.670Z</time>
</trkpt>
<trkpt lat="-26.8445495" lon="152.8186463">
<ele>222.182</ele>
<time>2016-10-05T03:24:28.724Z</time>
</trkpt>
<trkpt lat="-26.8449167" lon="152.8186886">
<ele>219.007</ele>
<time>2016-10-05T03:24:30.700Z</time>
</trkpt>
<trkpt lat="-26.8452544" lon="152.8188344">
<ele>215.481</ele>
<time>2016-10-05T03:24:32.671Z</time>
</trkpt>
<trkpt lat="-26.8455626" lon="152.8191113">
<ele>211.948</ele>
<time>2016-10-05T03:24:34.864Z</time>
</trkpt>
<trkpt lat="-26.8459458" lon="152.8195230">
<ele>208.773</ele>
<time>2016-10-05T03:24:37.934Z</time>
</trkpt>
<trkpt lat="-26.8462193" lon="152.8197521">
<ele>205.604</ele>
<time>2016-10-05T03:24:39.930Z</time>
</trkpt>
<trkpt lat="-26.8465212" lon="152.8199398">
<ele>202.118</ele>
<time>2016-10-05T03:24:41.900Z</time>
</trkpt>
<trkpt lat="-26.8470276" lon="152.8199525">
<ele>198.715</ele>
<time>2016-10-05T03:24:44.580Z</time>
</trkpt>
<trkpt lat="-26.8474157" lon="152.8198401">
<ele>195.600</ele>
<time>2016-10-05T03:24:46.610Z</time>
</trkpt>
<trkpt lat="-26.8478852" lon="152.8194631">
<ele>192.344</ele>
<time>2016-10-05T03:24:49.447Z</time>
</trkpt>
<trkpt lat="-26.8481158" lon="152.8190854">
<ele>188.759</ele>
<time>2016-10-05T03:24:51.461Z</time>
</trkpt>
<trkpt lat="-26.8482350" lon="152.8186479">
<ele>185.284</ele>
<time>2016-10-05T03:24:53.492Z</time>
</trkpt>
<trkpt lat="-26.8483241" lon="152.8179603">
<ele>182.716</ele>
<time>2016-10-05T03:24:56.662Z</time>
</trkpt>
<trkpt lat="-26.8483675" lon="152.8175272">
<ele>181.149</ele>
<time>2016-10-05T03:24:58.657Z</time>
</trkpt>
<trkpt lat="-26.8485049" lon="152.8169062">
<ele>179.658</ele>
<time>2016-10-05T03:25:01.536Z</time>
</trkpt>
<trkpt lat="-26.8488408" lon="152.8163301">
<ele>177.627</ele>
<time>2016-10-05T03:25:04.519Z</time>
</trkpt>
<trkpt lat="-26.8493396" lon="152.8159385">
<ele>174.790</ele>
<time>2016-10-05T03:25:07.312Z</time>
</trkpt>
<trkpt lat="-26.8497518" lon="152.8157874">
<ele>170.921</ele>
<time>2016-10-05T03:25:09.242Z</time>
</trkpt>
<trkpt lat="-26.8504328" lon="152.8157410">
<ele>166.873</ele>
<time>2016-10-05T03:25:12.179Z</time>
</trkpt>
<trkpt lat="-26.8508847" lon="152.8157483">
<ele>164.392</ele>
<time>2016-10-05T03:25:14.098Z</time>
</trkpt>
<trkpt lat="-26.8516061" lon="152.8157335">
<ele>164.028</ele>
<time>2016-10-05T03:25:17.113Z</time>
</trkpt>
<trkpt lat="-26.8522993" lon="152.8157032">
<ele>165.003</ele>
<time>2016-10-05T03:25:20.062Z</time>
</trkpt>
<trkpt lat="-26.8529940" lon="152.8156848">
<ele>166.564</ele>
<time>2016-10-05T03:25:23.153Z</time>
</trkpt>
<trkpt lat="-26.8534276" lon="152.8156886">
<ele>168.021</ele>
<time>2016-10-05T03:25:25.093Z</time>
</trkpt>
<trkpt lat="-26.8538827" lon="152.8156856">
<ele>168.747</ele>
<time>2016-10-05T03:25:27.110Z</time>
</trkpt>
<trkpt lat="-26.8545608" lon="152.8156743">
<ele>168.461</ele>
<time>2016-10-05T03:25:30.001Z</time>
</trkpt>
<trkpt lat="-26.8550393" lon="152.8156681">
<ele>167.464</ele>
<time>2016-10-05T03:25:32.007Z</time>
</trkpt>
<trkpt lat="-26.8557664" lon="152.8156513">
<ele>166.117</ele>
<time>2016-10-05T03:25:34.975Z</time>
</trkpt>
<trkpt lat="-26.8562612" lon="152.8156485">
<ele>163.950</ele>
<time>2016-10-05T03:25:36.960Z</time>
</trkpt>
<trkpt lat="-26.8570242" lon="152.8156368">
<ele>160.191</ele>
<time>2016-10-05T03:25:39.931Z</time>
</trkpt>
<trkpt lat="-26.8575466" lon="152.8156305">
<ele>154.929</ele>
<time>2016-10-05T03:25:41.960Z</time>
</trkpt>
<trkpt lat="-26.8583096" lon="152.8156115">
<ele>149.650</ele>
<time>2016-10-05T03:25:44.961Z</time>
</trkpt>
<trkpt lat="-26.8588158" lon="152.8156023">
<ele>145.677</ele>
<time>2016-10-05T03:25:46.926Z</time>
</trkpt>
<trkpt lat="-26.8593263" lon="152.8155972">
<ele>143.011</ele>
<time>2016-10-05T03:25:48.875Z</time>
</trkpt>
<trkpt lat="-26.8598545" lon="152.8155932">
<ele>141.351</ele>
<time>2016-10-05T03:25:50.885Z</time>
</trkpt>
<trkpt lat="-26.8603851" lon="152.8155913">
<ele>140.573</ele>
<time>2016-10-05T03:25:52.911Z</time>
</trkpt>
<trkpt lat="-26.8611655" lon="152.8155206">
<ele>140.192</ele>
<time>2016-10-05T03:25:55.934Z</time>
</trkpt>
<trkpt lat="-26.8619120" lon="152.8153447">
<ele>139.822</ele>
<time>2016-10-05T03:25:58.898Z</time>
</trkpt>
<trkpt lat="-26.8623975" lon="152.8151857">
<ele>139.386</ele>
<time>2016-10-05T03:26:00.867Z</time>
</trkpt>
<trkpt lat="-26.8628741" lon="152.8149803">
<ele>139.039</ele>
<time>2016-10-05T03:26:02.911Z</time>
</trkpt>
<trkpt lat="-26.8633120" lon="152.8147423">
<ele>138.532</ele>
<time>2016-10-05T03:26:04.913Z</time>
</trkpt>
<trkpt lat="-26.8639195" lon="152.8143532">
<ele>137.097</ele>
<time>2016-10-05T03:26:07.887Z</time>
</trkpt>
<trkpt lat="-26.8642984" lon="152.8140493">
<ele>134.185</ele>
<time>2016-10-05T03:26:09.850Z</time>
</trkpt>
<trkpt lat="-26.8646655" lon="152.8137198">
<ele>130.456</ele>
<time>2016-10-05T03:26:11.814Z</time>
</trkpt>
<trkpt lat="-26.8652160" lon="152.8132042">
<ele>127.077</ele>
<time>2016-10-05T03:26:14.779Z</time>
</trkpt>
<trkpt lat="-26.8657769" lon="152.8126983">
<ele>124.639</ele>
<time>2016-10-05T03:26:17.757Z</time>
</trkpt>
<trkpt lat="-26.8661422" lon="152.8123628">
<ele>123.231</ele>
<time>2016-10-05T03:26:19.719Z</time>
</trkpt>
<trkpt lat="-26.8665199" lon="152.8120275">
<ele>122.637</ele>
<time>2016-10-05T03:26:21.732Z</time>
</trkpt>
<trkpt lat="-26.8670652" lon="152.8115259">
<ele>122.332</ele>
<time>2016-10-05T03:26:24.659Z</time>
</trkpt>
<trkpt lat="-26.8676229" lon="152.8110013">
<ele>121.949</ele>
<time>2016-10-05T03:26:27.630Z</time>
</trkpt>
<trkpt lat="-26.8682064" lon="152.8104869">
<ele>121.318</ele>
<time>2016-10-05T03:26:30.637Z</time>
</trkpt>
<trkpt lat="-26.8687798" lon="152.8099451">
<ele>120.556</ele>
<time>2016-10-05T03:26:33.642Z</time>
</trkpt>
<trkpt lat="-26.8693076" lon="152.8093479">
<ele>120.168</ele>
<time>2016-10-05T03:26:36.592Z</time>
</trkpt>
<trkpt lat="-26.8697700" lon="152.8086611">
<ele>120.719</ele>
<time>2016-10-05T03:26:39.580Z</time>
</trkpt>
<trkpt lat="-26.8700493" lon="152.8081825">
<ele>122.454</ele>
<time>2016-10-05T03:26:41.582Z</time>
</trkpt>
<trkpt lat="-26.8703922" lon="152.8074437">
<ele>125.185</ele>
<time>2016-10-05T03:26:44.566Z</time>
</trkpt>
<trkpt lat="-26.8705516" lon="152.8069075">
<ele>127.974</ele>
<time>2016-10-05T03:26:46.644Z</time>
</trkpt>
<trkpt lat="-26.8707507" lon="152.8061460">
<ele>129.764</ele>
<time>2016-10-05T03:26:49.634Z</time>
</trkpt>
<trkpt lat="-26.8709368" lon="152.8054036">
<ele>130.370</ele>
<time>2016-10-05T03:26:52.560Z</time>
</trkpt>
<trkpt lat="-26.8710490" lon="152.8048968">
<ele>130.320</ele>
<time>2016-10-05T03:26:54.528Z</time>
</trkpt>
<trkpt lat="-26.8712452" lon="152.8041232">
<ele>130.007</ele>
<time>2016-10-05T03:26:57.562Z</time>
</trkpt>
<trkpt lat="-26.8713606" lon="152.8036135">
<ele>129.578</ele>
<time>2016-10-05T03:26:59.565Z</time>
</trkpt>
<trkpt lat="-26.8715701" lon="152.8028725">
<ele>129.202</ele>
<time>2016-10-05T03:27:02.528Z</time>
</trkpt>
<trkpt lat="-26.8717226" lon="152.8023839">
<ele>129.018</ele>
<time>2016-10-05T03:27:04.490Z</time>
</trkpt>
<trkpt lat="-26.8718982" lon="152.8018901">
<ele>129.198</ele>
<time>2016-10-05T03:27:06.503Z</time>
</trkpt>
<trkpt lat="-26.8720887" lon="152.8014166">
<ele>129.893</ele>
<time>2016-10-05T03:27:08.473Z</time>
</trkpt>
<trkpt lat="-26.8723102" lon="152.8009451">
<ele>130.759</ele>
<time>2016-10-05T03:27:10.475Z</time>
</trkpt>
<trkpt lat="-26.8725290" lon="152.8004861">
<ele>131.369</ele>
<time>2016-10-05T03:27:12.387Z</time>
</trkpt>
<trkpt lat="-26.8728681" lon="152.7997603">
<ele>131.847</ele>
<time>2016-10-05T03:27:15.366Z</time>
</trkpt>
<trkpt lat="-26.8731916" lon="152.7990362">
<ele>132.278</ele>
<time>2016-10-05T03:27:18.376Z</time>
</trkpt>
<trkpt lat="-26.8734000" lon="152.7985716">
<ele>132.441</ele>
<time>2016-10-05T03:27:20.344Z</time>
</trkpt>
<trkpt lat="-26.8736093" lon="152.7981243">
<ele>131.949</ele>
<time>2016-10-05T03:27:22.235Z</time>
</trkpt>
<trkpt lat="-26.8739362" lon="152.7974127">
<ele>130.600</ele>
<time>2016-10-05T03:27:25.174Z</time>
</trkpt>
<trkpt lat="-26.8741569" lon="152.7969240">
<ele>128.942</ele>
<time>2016-10-05T03:27:27.148Z</time>
</trkpt>
<trkpt lat="-26.8744886" lon="152.7961842">
<ele>127.824</ele>
<time>2016-10-05T03:27:30.124Z</time>
</trkpt>
<trkpt lat="-26.8747094" lon="152.7956817">
<ele>127.262</ele>
<time>2016-10-05T03:27:32.138Z</time>
</trkpt>
<trkpt lat="-26.8750472" lon="152.7949508">
<ele>126.678</ele>
<time>2016-10-05T03:27:35.095Z</time>
</trkpt>
<trkpt lat="-26.8752712" lon="152.7944616">
<ele>125.580</ele>
<time>2016-10-05T03:27:37.070Z</time>
</trkpt>
<trkpt lat="-26.8755032" lon="152.7939795">
<ele>123.715</ele>
<time>2016-10-05T03:27:39.044Z</time>
</trkpt>
<trkpt lat="-26.8758167" lon="152.7932387">
<ele>121.493</ele>
<time>2016-10-05T03:27:42.001Z</time>
</trkpt>
<trkpt lat="-26.8760344" lon="152.7927502">
<ele>119.910</ele>
<time>2016-10-05T03:27:43.967Z</time>
</trkpt>
<trkpt lat="-26.8762530" lon="152.7922496">
<ele>119.364</ele>
<time>2016-10-05T03:27:45.970Z</time>
</trkpt>
<trkpt lat="-26.8764685" lon="152.7917553">
<ele>119.410</ele>
<time>2016-10-05T03:27:47.948Z</time>
</trkpt>
<trkpt lat="-26.8768063" lon="152.7910146">
<ele>119.491</ele>
<time>2016-10-05T03:27:50.939Z</time>
</trkpt>
<trkpt lat="-26.8770529" lon="152.7905307">
<ele>119.381</ele>
<time>2016-10-05T03:27:52.941Z</time>
</trkpt>
<trkpt lat="-26.8773327" lon="152.7900794">
<ele>119.219</ele>
<time>2016-10-05T03:27:54.917Z</time>
</trkpt>
<trkpt lat="-26.8776414" lon="152.7896438">
<ele>119.132</ele>
<time>2016-10-05T03:27:56.914Z</time>
</trkpt>
<trkpt lat="-26.8779710" lon="152.7892228">
<ele>119.106</ele>
<time>2016-10-05T03:27:58.923Z</time>
</trkpt>
<trkpt lat="-26.8783313" lon="152.7888463">
<ele>119.266</ele>
<time>2016-10-05T03:28:00.902Z</time>
</trkpt>
<trkpt lat="-26.8787127" lon="152.7884988">
<ele>119.660</ele>
<time>2016-10-05T03:28:02.878Z</time>
</trkpt>
<trkpt lat="-26.8793185" lon="152.7880079">
<ele>119.843</ele>
<time>2016-10-05T03:28:05.885Z</time>
</trkpt>
<trkpt lat="-26.8797541" lon="152.7877418">
<ele>119.468</ele>
<time>2016-10-05T03:28:07.885Z</time>
</trkpt>
<trkpt lat="-26.8802108" lon="152.7875360">
<ele>118.786</ele>
<time>2016-10-05T03:28:09.869Z</time>
</trkpt>
<trkpt lat="-26.8806757" lon="152.7873498">
<ele>118.141</ele>
<time>2016-10-05T03:28:11.843Z</time>
</trkpt>
<trkpt lat="-26.8814206" lon="152.7871392">
<ele>117.816</ele>
<time>2016-10-05T03:28:14.913Z</time>
</trkpt>
<trkpt lat="-26.8819082" lon="152.7870264">
<ele>117.921</ele>
<time>2016-10-05T03:28:16.912Z</time>
</trkpt>
<trkpt lat="-26.8826528" lon="152.7869540">
<ele>118.037</ele>
<time>2016-10-05T03:28:19.913Z</time>
</trkpt>
<trkpt lat="-26.8831529" lon="152.7869471">
<ele>117.632</ele>
<time>2016-10-05T03:28:21.919Z</time>
</trkpt>
<trkpt lat="-26.8836422" lon="152.7869742">
<ele>116.718</ele>
<time>2016-10-05T03:28:23.879Z</time>
</trkpt>
<trkpt lat="-26.8843837" lon="152.7870075">
<ele>115.772</ele>
<time>2016-10-05T03:28:26.852Z</time>
</trkpt>
<trkpt lat="-26.8848633" lon="152.7870311">
<ele>114.975</ele>
<time>2016-10-05T03:28:28.784Z</time>
</trkpt>
<trkpt lat="-26.8856083" lon="152.7870337">
<ele>114.240</ele>
<time>2016-10-05T03:28:31.784Z</time>
</trkpt>
<trkpt lat="-26.8861103" lon="152.7869983">
<ele>113.788</ele>
<time>2016-10-05T03:28:33.806Z</time>
</trkpt>
<trkpt lat="-26.8866037" lon="152.7869460">
<ele>114.040</ele>
<time>2016-10-05T03:28:35.798Z</time>
</trkpt>
<trkpt lat="-26.8873309" lon="152.7867963">
<ele>114.901</ele>
<time>2016-10-05T03:28:38.771Z</time>
</trkpt>
<trkpt lat="-26.8878096" lon="152.7866636">
<ele>115.616</ele>
<time>2016-10-05T03:28:40.754Z</time>
</trkpt>
<trkpt lat="-26.8882780" lon="152.7864896">
<ele>115.411</ele>
<time>2016-10-05T03:28:42.737Z</time>
</trkpt>
<trkpt lat="-26.8889581" lon="152.7861515">
<ele>114.359</ele>
<time>2016-10-05T03:28:45.732Z</time>
</trkpt>
<trkpt lat="-26.8893799" lon="152.7858872">
<ele>113.113</ele>
<time>2016-10-05T03:28:47.681Z</time>
</trkpt>
<trkpt lat="-26.8898035" lon="152.7856042">
<ele>111.813</ele>
<time>2016-10-05T03:28:49.668Z</time>
</trkpt>
<trkpt lat="-26.8904194" lon="152.7851562">
<ele>110.193</ele>
<time>2016-10-05T03:28:52.636Z</time>
</trkpt>
<trkpt lat="-26.8910191" lon="152.7846984">
<ele>108.621</ele>
<time>2016-10-05T03:28:55.600Z</time>
</trkpt>
<trkpt lat="-26.8916116" lon="152.7842514">
<ele>107.438</ele>
<time>2016-10-05T03:28:58.535Z</time>
</trkpt>
<trkpt lat="-26.8922264" lon="152.7837985">
<ele>106.511</ele>
<time>2016-10-05T03:29:01.521Z</time>
</trkpt>
<trkpt lat="-26.8926458" lon="152.7834924">
<ele>105.928</ele>
<time>2016-10-05T03:29:03.513Z</time>
</trkpt>
<trkpt lat="-26.8932812" lon="152.7830213">
<ele>105.851</ele>
<time>2016-10-05T03:29:06.559Z</time>
</trkpt>
<trkpt lat="-26.8936956" lon="152.7827230">
<ele>106.305</ele>
<time>2016-10-05T03:29:08.580Z</time>
</trkpt>
<trkpt lat="-26.8942933" lon="152.7822640">
<ele>107.270</ele>
<time>2016-10-05T03:29:11.582Z</time>
</trkpt>
<trkpt lat="-26.8946883" lon="152.7819721">
<ele>108.668</ele>
<time>2016-10-05T03:29:13.540Z</time>
</trkpt>
<trkpt lat="-26.8950907" lon="152.7816629">
<ele>110.544</ele>
<time>2016-10-05T03:29:15.527Z</time>
</trkpt>
<trkpt lat="-26.8955011" lon="152.7813615">
<ele>112.885</ele>
<time>2016-10-05T03:29:17.475Z</time>
</trkpt>
<trkpt lat="-26.8961500" lon="152.7809239">
<ele>115.116</ele>
<time>2016-10-05T03:29:20.444Z</time>
</trkpt>
<trkpt lat="-26.8965992" lon="152.7806420">
<ele>116.503</ele>
<time>2016-10-05T03:29:22.473Z</time>
</trkpt>
<trkpt lat="-26.8972527" lon="152.7802534">
<ele>116.324</ele>
<time>2016-10-05T03:29:25.400Z</time>
</trkpt>
<trkpt lat="-26.8977005" lon="152.7799888">
<ele>114.054</ele>
<time>2016-10-05T03:29:27.379Z</time>
</trkpt>
<trkpt lat="-26.8981611" lon="152.7797213">
<ele>110.501</ele>
<time>2016-10-05T03:29:29.376Z</time>
</trkpt>
<trkpt lat="-26.8988509" lon="152.7793020">
<ele>107.503</ele>
<time>2016-10-05T03:29:32.367Z</time>
</trkpt>
<trkpt lat="-26.8993203" lon="152.7790240">
<ele>106.043</ele>
<time>2016-10-05T03:29:34.377Z</time>
</trkpt>
<trkpt lat="-26.8997836" lon="152.7787496">
<ele>106.080</ele>
<time>2016-10-05T03:29:36.385Z</time>
</trkpt>
<trkpt lat="-26.9002414" lon="152.7784962">
<ele>106.984</ele>
<time>2016-10-05T03:29:38.385Z</time>
</trkpt>
<trkpt lat="-26.9009222" lon="152.7781508">
<ele>107.706</ele>
<time>2016-10-05T03:29:41.350Z</time>
</trkpt>
<trkpt lat="-26.9013919" lon="152.7779555">
<ele>107.729</ele>
<time>2016-10-05T03:29:43.339Z</time>
</trkpt>
<trkpt lat="-26.9021257" lon="152.7777285">
<ele>107.963</ele>
<time>2016-10-05T03:29:46.310Z</time>
</trkpt>
<trkpt lat="-26.9028979" lon="152.7775527">
<ele>109.174</ele>
<time>2016-10-05T03:29:49.303Z</time>
</trkpt>
<trkpt lat="-26.9034341" lon="152.7774884">
<ele>110.520</ele>
<time>2016-10-05T03:29:51.337Z</time>
</trkpt>
<trkpt lat="-26.9042171" lon="152.7774459">
<ele>111.032</ele>
<time>2016-10-05T03:29:54.344Z</time>
</trkpt>
<trkpt lat="-26.9047187" lon="152.7774213">
<ele>110.777</ele>
<time>2016-10-05T03:29:56.325Z</time>
</trkpt>
<trkpt lat="-26.9054697" lon="152.7773526">
<ele>110.178</ele>
<time>2016-10-05T03:29:59.331Z</time>
</trkpt>
<trkpt lat="-26.9061910" lon="152.7772074">
<ele>110.084</ele>
<time>2016-10-05T03:30:02.272Z</time>
</trkpt>
<trkpt lat="-26.9069099" lon="152.7770149">
<ele>110.968</ele>
<time>2016-10-05T03:30:05.222Z</time>
</trkpt>
<trkpt lat="-26.9073901" lon="152.7768398">
<ele>112.106</ele>
<time>2016-10-05T03:30:07.223Z</time>
</trkpt>
<trkpt lat="-26.9080930" lon="152.7765333">
<ele>112.707</ele>
<time>2016-10-05T03:30:10.217Z</time>
</trkpt>
<trkpt lat="-26.9087511" lon="152.7761703">
<ele>112.691</ele>
<time>2016-10-05T03:30:13.141Z</time>
</trkpt>
<trkpt lat="-26.9091808" lon="152.7758944">
<ele>112.251</ele>
<time>2016-10-05T03:30:15.119Z</time>
</trkpt>
<trkpt lat="-26.9097880" lon="152.7754116">
<ele>111.748</ele>
<time>2016-10-05T03:30:18.079Z</time>
</trkpt>
<trkpt lat="-26.9101861" lon="152.7750655">
<ele>111.158</ele>
<time>2016-10-05T03:30:20.046Z</time>
</trkpt>
<trkpt lat="-26.9107816" lon="152.7744961">
<ele>110.247</ele>
<time>2016-10-05T03:30:23.061Z</time>
</trkpt>
<trkpt lat="-26.9113964" lon="152.7739515">
<ele>109.154</ele>
<time>2016-10-05T03:30:26.058Z</time>
</trkpt>
<trkpt lat="-26.9120202" lon="152.7734413">
<ele>108.193</ele>
<time>2016-10-05T03:30:29.017Z</time>
</trkpt>
<trkpt lat="-26.9126743" lon="152.7729772">
<ele>107.540</ele>
<time>2016-10-05T03:30:31.987Z</time>
</trkpt>
<trkpt lat="-26.9131200" lon="152.7726738">
<ele>106.947</ele>
<time>2016-10-05T03:30:33.982Z</time>
</trkpt>
<trkpt lat="-26.9137974" lon="152.7722405">
<ele>105.953</ele>
<time>2016-10-05T03:30:36.972Z</time>
</trkpt>
<trkpt lat="-26.9144821" lon="152.7718521">
<ele>104.524</ele>
<time>2016-10-05T03:30:39.949Z</time>
</trkpt>
<trkpt lat="-26.9151471" lon="152.7714533">
<ele>103.033</ele>
<time>2016-10-05T03:30:42.938Z</time>
</trkpt>
<trkpt lat="-26.9157947" lon="152.7710804">
<ele>101.970</ele>
<time>2016-10-05T03:30:45.892Z</time>
</trkpt>
<trkpt lat="-26.9164295" lon="152.7706904">
<ele>101.459</ele>
<time>2016-10-05T03:30:48.887Z</time>
</trkpt>
<trkpt lat="-26.9170516" lon="152.7703256">
<ele>100.936</ele>
<time>2016-10-05T03:30:51.833Z</time>
</trkpt>
<trkpt lat="-26.9176791" lon="152.7699591">
<ele>100.097</ele>
<time>2016-10-05T03:30:54.808Z</time>
</trkpt>
<trkpt lat="-26.9183180" lon="152.7695828">
<ele>99.341</ele>
<time>2016-10-05T03:30:57.816Z</time>
</trkpt>
<trkpt lat="-26.9187332" lon="152.7693136">
<ele>99.030</ele>
<time>2016-10-05T03:30:59.807Z</time>
</trkpt>
<trkpt lat="-26.9191385" lon="152.7690284">
<ele>99.306</ele>
<time>2016-10-05T03:31:01.785Z</time>
</trkpt>
<trkpt lat="-26.9197451" lon="152.7685508">
<ele>100.358</ele>
<time>2016-10-05T03:31:04.817Z</time>
</trkpt>
<trkpt lat="-26.9201241" lon="152.7682033">
<ele>101.808</ele>
<time>2016-10-05T03:31:06.795Z</time>
</trkpt>
<trkpt lat="-26.9204846" lon="152.7678212">
<ele>102.795</ele>
<time>2016-10-05T03:31:08.770Z</time>
</trkpt>
<trkpt lat="-26.9210334" lon="152.7672160">
<ele>103.005</ele>
<time>2016-10-05T03:31:11.763Z</time>
</trkpt>
<trkpt lat="-26.9215982" lon="152.7665975">
<ele>102.911</ele>
<time>2016-10-05T03:31:14.775Z</time>
</trkpt>
<trkpt lat="-26.9221540" lon="152.7659953">
<ele>102.952</ele>
<time>2016-10-05T03:31:17.744Z</time>
</trkpt>
<trkpt lat="-26.9226973" lon="152.7654018">
<ele>103.102</ele>
<time>2016-10-05T03:31:20.709Z</time>
</trkpt>
<trkpt lat="-26.9230461" lon="152.7650097">
<ele>103.302</ele>
<time>2016-10-05T03:31:22.677Z</time>
</trkpt>
<trkpt lat="-26.9235650" lon="152.7644524">
<ele>103.714</ele>
<time>2016-10-05T03:31:25.582Z</time>
</trkpt>
<trkpt lat="-26.9240957" lon="152.7638640">
<ele>104.293</ele>
<time>2016-10-05T03:31:28.617Z</time>
</trkpt>
<trkpt lat="-26.9244356" lon="152.7634791">
<ele>104.734</ele>
<time>2016-10-05T03:31:30.591Z</time>
</trkpt>
<trkpt lat="-26.9247732" lon="152.7630987">
<ele>104.571</ele>
<time>2016-10-05T03:31:32.564Z</time>
</trkpt>
<trkpt lat="-26.9251143" lon="152.7627256">
<ele>103.686</ele>
<time>2016-10-05T03:31:34.545Z</time>
</trkpt>
<trkpt lat="-26.9256101" lon="152.7621772">
<ele>102.523</ele>
<time>2016-10-05T03:31:37.475Z</time>
</trkpt>
<trkpt lat="-26.9259447" lon="152.7618041">
<ele>101.239</ele>
<time>2016-10-05T03:31:39.472Z</time>
</trkpt>
<trkpt lat="-26.9264432" lon="152.7612491">
<ele>99.817</ele>
<time>2016-10-05T03:31:42.445Z</time>
</trkpt>
<trkpt lat="-26.9269419" lon="152.7606943">
<ele>98.501</ele>
<time>2016-10-05T03:31:45.430Z</time>
</trkpt>
<trkpt lat="-26.9274474" lon="152.7601443">
<ele>97.225</ele>
<time>2016-10-05T03:31:48.433Z</time>
</trkpt>
<trkpt lat="-26.9277825" lon="152.7597829">
<ele>95.950</ele>
<time>2016-10-05T03:31:50.427Z</time>
</trkpt>
<trkpt lat="-26.9281008" lon="152.7594194">
<ele>95.032</ele>
<time>2016-10-05T03:31:52.406Z</time>
</trkpt>
<trkpt lat="-26.9284121" lon="152.7590679">
<ele>94.648</ele>
<time>2016-10-05T03:31:54.383Z</time>
</trkpt>
<trkpt lat="-26.9288530" lon="152.7585515">
<ele>94.670</ele>
<time>2016-10-05T03:31:57.348Z</time>
</trkpt>
<trkpt lat="-26.9292809" lon="152.7580665">
<ele>94.934</ele>
<time>2016-10-05T03:32:00.338Z</time>
</trkpt>
<trkpt lat="-26.9295525" lon="152.7577791">
<ele>95.293</ele>
<time>2016-10-05T03:32:02.274Z</time>
</trkpt>
<trkpt lat="-26.9299498" lon="152.7573570">
<ele>95.520</ele>
<time>2016-10-05T03:32:05.249Z</time>
</trkpt>
<trkpt lat="-26.9301752" lon="152.7571221">
<ele>95.305</ele>
<time>2016-10-05T03:32:07.027Z</time>
</trkpt>
<trkpt lat="-26.9303971" lon="152.7569620">
<ele>94.509</ele>
<time>2016-10-05T03:32:08.734Z</time>
</trkpt>
<trkpt lat="-26.9306332" lon="152.7568982">
<ele>93.359</ele>
<time>2016-10-05T03:32:10.524Z</time>
</trkpt>
<trkpt lat="-26.9310067" lon="152.7570519">
<ele>91.927</ele>
<time>2016-10-05T03:32:13.625Z</time>
</trkpt>
<trkpt lat="-26.9313786" lon="152.7575145">
<ele>90.311</ele>
<time>2016-10-05T03:32:17.061Z</time>
</trkpt>
<trkpt lat="-26.9317128" lon="152.7578992">
<ele>89.932</ele>
<time>2016-10-05T03:32:19.227Z</time>
</trkpt>
<trkpt lat="-26.9320506" lon="152.7583070">
<ele>92.283</ele>
<time>2016-10-05T03:32:21.256Z</time>
</trkpt>
<trkpt lat="-26.9323846" lon="152.7586887">
<ele>96.182</ele>
<time>2016-10-05T03:32:23.242Z</time>
</trkpt>
<trkpt lat="-26.9326801" lon="152.7590139">
<ele>98.537</ele>
<time>2016-10-05T03:32:25.111Z</time>
</trkpt>
<trkpt lat="-26.9330864" lon="152.7594357">
<ele>97.888</ele>
<time>2016-10-05T03:32:27.896Z</time>
</trkpt>
<trkpt lat="-26.9335221" lon="152.7598608">
<ele>95.216</ele>
<time>2016-10-05T03:32:30.932Z</time>
</trkpt>
<trkpt lat="-26.9338185" lon="152.7601453">
<ele>92.305</ele>
<time>2016-10-05T03:32:32.945Z</time>
</trkpt>
<trkpt lat="-26.9341332" lon="152.7604283">
<ele>90.456</ele>
<time>2016-10-05T03:32:34.981Z</time>
</trkpt>
<trkpt lat="-26.9346194" lon="152.7608470">
<ele>90.101</ele>
<time>2016-10-05T03:32:38.005Z</time>
</trkpt>
<trkpt lat="-26.9351202" lon="152.7612583">
<ele>90.741</ele>
<time>2016-10-05T03:32:41.008Z</time>
</trkpt>
<trkpt lat="-26.9354680" lon="152.7615019">
<ele>91.531</ele>
<time>2016-10-05T03:32:42.977Z</time>
</trkpt>
<trkpt lat="-26.9359732" lon="152.7618452">
<ele>91.898</ele>
<time>2016-10-05T03:32:45.868Z</time>
</trkpt>
<trkpt lat="-26.9364920" lon="152.7621872">
<ele>91.882</ele>
<time>2016-10-05T03:32:48.872Z</time>
</trkpt>
<trkpt lat="-26.9370129" lon="152.7625219">
<ele>92.062</ele>
<time>2016-10-05T03:32:51.857Z</time>
</trkpt>
<trkpt lat="-26.9375716" lon="152.7628735">
<ele>92.906</ele>
<time>2016-10-05T03:32:54.997Z</time>
</trkpt>
<trkpt lat="-26.9379337" lon="152.7630910">
<ele>94.035</ele>
<time>2016-10-05T03:32:56.997Z</time>
</trkpt>
<trkpt lat="-26.9382776" lon="152.7633050">
<ele>94.874</ele>
<time>2016-10-05T03:32:58.917Z</time>
</trkpt>
<trkpt lat="-26.9386240" lon="152.7635201">
<ele>95.468</ele>
<time>2016-10-05T03:33:00.852Z</time>
</trkpt>
<trkpt lat="-26.9390934" lon="152.7639577">
<ele>96.323</ele>
<time>2016-10-05T03:33:03.850Z</time>
</trkpt>
<trkpt lat="-26.9393553" lon="152.7642986">
<ele>98.420</ele>
<time>2016-10-05T03:33:05.829Z</time>
</trkpt>
<trkpt lat="-26.9397133" lon="152.7648429">
<ele>101.683</ele>
<time>2016-10-05T03:33:08.793Z</time>
</trkpt>
<trkpt lat="-26.9399390" lon="152.7652213">
<ele>104.686</ele>
<time>2016-10-05T03:33:10.778Z</time>
</trkpt>
<trkpt lat="-26.9401745" lon="152.7655934">
<ele>106.642</ele>
<time>2016-10-05T03:33:12.756Z</time>
</trkpt>
<trkpt lat="-26.9403833" lon="152.7659728">
<ele>107.854</ele>
<time>2016-10-05T03:33:14.686Z</time>
</trkpt>
<trkpt lat="-26.9406209" lon="152.7663551">
<ele>108.420</ele>
<time>2016-10-05T03:33:16.704Z</time>
</trkpt>
<trkpt lat="-26.9408505" lon="152.7667470">
<ele>108.351</ele>
<time>2016-10-05T03:33:18.730Z</time>
</trkpt>
<trkpt lat="-26.9412213" lon="152.7673211">
<ele>107.954</ele>
<time>2016-10-05T03:33:21.772Z</time>
</trkpt>
<trkpt lat="-26.9414668" lon="152.7676874">
<ele>107.663</ele>
<time>2016-10-05T03:33:23.733Z</time>
</trkpt>
<trkpt lat="-26.9417200" lon="152.7680479">
<ele>107.578</ele>
<time>2016-10-05T03:33:25.701Z</time>
</trkpt>
<trkpt lat="-26.9421173" lon="152.7685690">
<ele>107.567</ele>
<time>2016-10-05T03:33:28.653Z</time>
</trkpt>
<trkpt lat="-26.9424031" lon="152.7689142">
<ele>107.158</ele>
<time>2016-10-05T03:33:30.683Z</time>
</trkpt>
<trkpt lat="-26.9427901" lon="152.7694251">
<ele>106.050</ele>
<time>2016-10-05T03:33:33.591Z</time>
</trkpt>
<trkpt lat="-26.9431287" lon="152.7697113">
<ele>104.638</ele>
<time>2016-10-05T03:33:35.664Z</time>
</trkpt>
<trkpt lat="-26.9435844" lon="152.7701790">
<ele>103.368</ele>
<time>2016-10-05T03:33:38.674Z</time>
</trkpt>
<trkpt lat="-26.9438995" lon="152.7704666">
<ele>102.376</ele>
<time>2016-10-05T03:33:40.655Z</time>
</trkpt>
<trkpt lat="-26.9442131" lon="152.7707227">
<ele>101.812</ele>
<time>2016-10-05T03:33:42.572Z</time>
</trkpt>
<trkpt lat="-26.9446905" lon="152.7710998">
<ele>101.586</ele>
<time>2016-10-05T03:33:45.519Z</time>
</trkpt>
<trkpt lat="-26.9451707" lon="152.7714700">
<ele>101.389</ele>
<time>2016-10-05T03:33:48.491Z</time>
</trkpt>
<trkpt lat="-26.9456374" lon="152.7718434">
<ele>101.164</ele>
<time>2016-10-05T03:33:51.422Z</time>
</trkpt>
<trkpt lat="-26.9459577" lon="152.7720846">
<ele>100.879</ele>
<time>2016-10-05T03:33:53.397Z</time>
</trkpt>
<trkpt lat="-26.9463988" lon="152.7724312">
<ele>100.396</ele>
<time>2016-10-05T03:33:56.206Z</time>
</trkpt>
<trkpt lat="-26.9467098" lon="152.7726593">
<ele>99.827</ele>
<time>2016-10-05T03:33:58.178Z</time>
</trkpt>
<trkpt lat="-26.9469945" lon="152.7728973">
<ele>99.436</ele>
<time>2016-10-05T03:34:00.094Z</time>
</trkpt>
<trkpt lat="-26.9474238" lon="152.7732348">
<ele>99.091</ele>
<time>2016-10-05T03:34:03.006Z</time>
</trkpt>
<trkpt lat="-26.9476850" lon="152.7734713">
<ele>98.435</ele>
<time>2016-10-05T03:34:04.913Z</time>
</trkpt>
<trkpt lat="-26.9480509" lon="152.7738335">
<ele>97.498</ele>
<time>2016-10-05T03:34:07.801Z</time>
</trkpt>
<trkpt lat="-26.9482484" lon="152.7740729">
<ele>96.629</ele>
<time>2016-10-05T03:34:09.583Z</time>
</trkpt>
<trkpt lat="-26.9484481" lon="152.7743238">
<ele>96.019</ele>
<time>2016-10-05T03:34:11.506Z</time>
</trkpt>
<trkpt lat="-26.9487415" lon="152.7747069">
<ele>95.491</ele>
<time>2016-10-05T03:34:14.476Z</time>
</trkpt>
<trkpt lat="-26.9490417" lon="152.7750769">
<ele>94.870</ele>
<time>2016-10-05T03:34:17.462Z</time>
</trkpt>
<trkpt lat="-26.9493098" lon="152.7754251">
<ele>94.530</ele>
<time>2016-10-05T03:34:20.261Z</time>
</trkpt>
<trkpt lat="-26.9496008" lon="152.7757859">
<ele>94.886</ele>
<time>2016-10-05T03:34:23.266Z</time>
</trkpt>
<trkpt lat="-26.9497969" lon="152.7760244">
<ele>95.764</ele>
<time>2016-10-05T03:34:25.273Z</time>
</trkpt>
<trkpt lat="-26.9500052" lon="152.7762366">
<ele>96.798</ele>
<time>2016-10-05T03:34:27.209Z</time>
</trkpt>
<trkpt lat="-26.9502464" lon="152.7764141">
<ele>97.749</ele>
<time>2016-10-05T03:34:29.219Z</time>
</trkpt>
<trkpt lat="-26.9506763" lon="152.7765707">
<ele>98.727</ele>
<time>2016-10-05T03:34:32.393Z</time>
</trkpt>
<trkpt lat="-26.9509536" lon="152.7766667">
<ele>99.868</ele>
<time>2016-10-05T03:34:34.402Z</time>
</trkpt>
<trkpt lat="-26.9512193" lon="152.7767467">
<ele>100.889</ele>
<time>2016-10-05T03:34:36.271Z</time>
</trkpt>
<trkpt lat="-26.9516299" lon="152.7768816">
<ele>101.772</ele>
<time>2016-10-05T03:34:39.245Z</time>
</trkpt>
<trkpt lat="-26.9519866" lon="152.7770163">
<ele>102.970</ele>
<time>2016-10-05T03:34:41.941Z</time>
</trkpt>
<trkpt lat="-26.9522538" lon="152.7770942">
<ele>104.354</ele>
<time>2016-10-05T03:34:43.963Z</time>
</trkpt>
<trkpt lat="-26.9526461" lon="152.7772024">
<ele>105.302</ele>
<time>2016-10-05T03:34:46.966Z</time>
</trkpt>
<trkpt lat="-26.9529985" lon="152.7773566">
<ele>106.112</ele>
<time>2016-10-05T03:34:49.779Z</time>
</trkpt>
<trkpt lat="-26.9534088" lon="152.7774847">
<ele>107.378</ele>
<time>2016-10-05T03:34:52.935Z</time>
</trkpt>
<trkpt lat="-26.9536793" lon="152.7775697">
<ele>108.750</ele>
<time>2016-10-05T03:34:54.998Z</time>
</trkpt>
<trkpt lat="-26.9539120" lon="152.7776731">
<ele>109.676</ele>
<time>2016-10-05T03:34:56.803Z</time>
</trkpt>
<trkpt lat="-26.9543402" lon="152.7777726">
<ele>110.135</ele>
<time>2016-10-05T03:34:59.957Z</time>
</trkpt>
<trkpt lat="-26.9545920" lon="152.7778543">
<ele>110.196</ele>
<time>2016-10-05T03:35:01.857Z</time>
</trkpt>
<trkpt lat="-26.9548740" lon="152.7779275">
<ele>109.910</ele>
<time>2016-10-05T03:35:03.957Z</time>
</trkpt>
<trkpt lat="-26.9552534" lon="152.7780415">
<ele>109.422</ele>
<time>2016-10-05T03:35:06.838Z</time>
</trkpt>
<trkpt lat="-26.9555369" lon="152.7781184">
<ele>109.098</ele>
<time>2016-10-05T03:35:09.008Z</time>
</trkpt>
<trkpt lat="-26.9559447" lon="152.7782513">
<ele>109.264</ele>
<time>2016-10-05T03:35:12.124Z</time>
</trkpt>
<trkpt lat="-26.9563359" lon="152.7783587">
<ele>109.942</ele>
<time>2016-10-05T03:35:15.014Z</time>
</trkpt>
<trkpt lat="-26.9567431" lon="152.7784696">
<ele>110.821</ele>
<time>2016-10-05T03:35:17.990Z</time>
</trkpt>
<trkpt lat="-26.9570186" lon="152.7785490">
<ele>111.671</ele>
<time>2016-10-05T03:35:20.004Z</time>
</trkpt>
<trkpt lat="-26.9572885" lon="152.7786097">
<ele>112.455</ele>
<time>2016-10-05T03:35:21.938Z</time>
</trkpt>
<trkpt lat="-26.9575879" lon="152.7787049">
<ele>113.092</ele>
<time>2016-10-05T03:35:24.118Z</time>
</trkpt>
<trkpt lat="-26.9580126" lon="152.7788331">
<ele>113.623</ele>
<time>2016-10-05T03:35:27.123Z</time>
</trkpt>
<trkpt lat="-26.9582802" lon="152.7789215">
<ele>114.191</ele>
<time>2016-10-05T03:35:29.007Z</time>
</trkpt>
<trkpt lat="-26.9587238" lon="152.7790371">
<ele>114.665</ele>
<time>2016-10-05T03:35:32.071Z</time>
</trkpt>
<trkpt lat="-26.9591742" lon="152.7791494">
<ele>115.005</ele>
<time>2016-10-05T03:35:35.151Z</time>
</trkpt>
<trkpt lat="-26.9595975" lon="152.7792634">
<ele>115.363</ele>
<time>2016-10-05T03:35:38.050Z</time>
</trkpt>
<trkpt lat="-26.9598829" lon="152.7793408">
<ele>115.683</ele>
<time>2016-10-05T03:35:40.007Z</time>
</trkpt>
<trkpt lat="-26.9603356" lon="152.7794866">
<ele>115.708</ele>
<time>2016-10-05T03:35:43.156Z</time>
</trkpt>
<trkpt lat="-26.9607571" lon="152.7796191">
<ele>115.426</ele>
<time>2016-10-05T03:35:46.086Z</time>
</trkpt>
<trkpt lat="-26.9610280" lon="152.7797358">
<ele>115.101</ele>
<time>2016-10-05T03:35:48.027Z</time>
</trkpt>
<trkpt lat="-26.9614320" lon="152.7799593">
<ele>114.954</ele>
<time>2016-10-05T03:35:51.034Z</time>
</trkpt>
<trkpt lat="-26.9617069" lon="152.7801119">
<ele>114.904</ele>
<time>2016-10-05T03:35:53.076Z</time>
</trkpt>
<trkpt lat="-26.9621015" lon="152.7803375">
<ele>114.781</ele>
<time>2016-10-05T03:35:55.999Z</time>
</trkpt>
<trkpt lat="-26.9623668" lon="152.7805203">
<ele>114.566</ele>
<time>2016-10-05T03:35:58.049Z</time>
</trkpt>
<trkpt lat="-26.9627466" lon="152.7807925">
<ele>114.386</ele>
<time>2016-10-05T03:36:01.034Z</time>
</trkpt>
<trkpt lat="-26.9631686" lon="152.7810127">
<ele>114.190</ele>
<time>2016-10-05T03:36:04.137Z</time>
</trkpt>
<trkpt lat="-26.9634497" lon="152.7811556">
<ele>113.676</ele>
<time>2016-10-05T03:36:06.177Z</time>
</trkpt>
<trkpt lat="-26.9637058" lon="152.7813189">
<ele>112.601</ele>
<time>2016-10-05T03:36:08.080Z</time>
</trkpt>
<trkpt lat="-26.9641839" lon="152.7815762">
<ele>111.255</ele>
<time>2016-10-05T03:36:11.433Z</time>
</trkpt>
<trkpt lat="-26.9645321" lon="152.7817619">
<ele>110.280</ele>
<time>2016-10-05T03:36:13.710Z</time>
</trkpt>
<trkpt lat="-26.9650558" lon="152.7820723">
<ele>110.027</ele>
<time>2016-10-05T03:36:16.856Z</time>
</trkpt>
<trkpt lat="-26.9655924" lon="152.7823978">
<ele>110.439</ele>
<time>2016-10-05T03:36:19.917Z</time>
</trkpt>
<trkpt lat="-26.9659261" lon="152.7826368">
<ele>111.474</ele>
<time>2016-10-05T03:36:21.862Z</time>
</trkpt>
<trkpt lat="-26.9664173" lon="152.7830203">
<ele>113.018</ele>
<time>2016-10-05T03:36:24.807Z</time>
</trkpt>
<trkpt lat="-26.9668984" lon="152.7834100">
<ele>114.809</ele>
<time>2016-10-05T03:36:27.757Z</time>
</trkpt>
<trkpt lat="-26.9672088" lon="152.7836772">
<ele>116.770</ele>
<time>2016-10-05T03:36:29.719Z</time>
</trkpt>
<trkpt lat="-26.9674894" lon="152.7839610">
<ele>119.058</ele>
<time>2016-10-05T03:36:31.627Z</time>
</trkpt>
<trkpt lat="-26.9678132" lon="152.7842304">
<ele>121.647</ele>
<time>2016-10-05T03:36:33.672Z</time>
</trkpt>
<trkpt lat="-26.9682384" lon="152.7846495">
<ele>124.165</ele>
<time>2016-10-05T03:36:36.567Z</time>
</trkpt>
<trkpt lat="-26.9685456" lon="152.7849211">
<ele>126.237</ele>
<time>2016-10-05T03:36:38.584Z</time>
</trkpt>
<trkpt lat="-26.9688564" lon="152.7851922">
<ele>127.705</ele>
<time>2016-10-05T03:36:40.623Z</time>
</trkpt>
<trkpt lat="-26.9691634" lon="152.7854622">
<ele>128.633</ele>
<time>2016-10-05T03:36:42.629Z</time>
</trkpt>
<trkpt lat="-26.9696209" lon="152.7858782">
<ele>129.245</ele>
<time>2016-10-05T03:36:45.637Z</time>
</trkpt>
<trkpt lat="-26.9699283" lon="152.7861574">
<ele>129.673</ele>
<time>2016-10-05T03:36:47.644Z</time>
</trkpt>
<trkpt lat="-26.9704119" lon="152.7865611">
<ele>129.836</ele>
<time>2016-10-05T03:36:50.676Z</time>
</trkpt>
<trkpt lat="-26.9707252" lon="152.7868282">
<ele>129.757</ele>
<time>2016-10-05T03:36:52.652Z</time>
</trkpt>
<trkpt lat="-26.9711784" lon="152.7872283">
<ele>129.574</ele>
<time>2016-10-05T03:36:55.546Z</time>
</trkpt>
<trkpt lat="-26.9715188" lon="152.7874708">
<ele>129.274</ele>
<time>2016-10-05T03:36:57.570Z</time>
</trkpt>
<trkpt lat="-26.9718536" lon="152.7877146">
<ele>128.845</ele>
<time>2016-10-05T03:36:59.570Z</time>
</trkpt>
<trkpt lat="-26.9723513" lon="152.7880652">
<ele>128.485</ele>
<time>2016-10-05T03:37:02.513Z</time>
</trkpt>
<trkpt lat="-26.9726943" lon="152.7882993">
<ele>128.201</ele>
<time>2016-10-05T03:37:04.522Z</time>
</trkpt>
<trkpt lat="-26.9730322" lon="152.7885342">
<ele>127.804</ele>
<time>2016-10-05T03:37:06.507Z</time>
</trkpt>
<trkpt lat="-26.9735411" lon="152.7888903">
<ele>127.355</ele>
<time>2016-10-05T03:37:09.500Z</time>
</trkpt>
<trkpt lat="-26.9738805" lon="152.7891313">
<ele>127.013</ele>
<time>2016-10-05T03:37:11.503Z</time>
</trkpt>
<trkpt lat="-26.9742108" lon="152.7893655">
<ele>126.805</ele>
<time>2016-10-05T03:37:13.450Z</time>
</trkpt>
<trkpt lat="-26.9745506" lon="152.7896091">
<ele>126.698</ele>
<time>2016-10-05T03:37:15.459Z</time>
</trkpt>
<trkpt lat="-26.9748689" lon="152.7898689">
<ele>126.682</ele>
<time>2016-10-05T03:37:17.422Z</time>
</trkpt>
<trkpt lat="-26.9752101" lon="152.7900996">
<ele>126.761</ele>
<time>2016-10-05T03:37:19.413Z</time>
</trkpt>
<trkpt lat="-26.9755491" lon="152.7903298">
<ele>127.066</ele>
<time>2016-10-05T03:37:21.398Z</time>
</trkpt>
<trkpt lat="-26.9760655" lon="152.7906760">
<ele>127.639</ele>
<time>2016-10-05T03:37:24.410Z</time>
</trkpt>
<trkpt lat="-26.9764022" lon="152.7909058">
<ele>128.165</ele>
<time>2016-10-05T03:37:26.382Z</time>
</trkpt>
<trkpt lat="-26.9767488" lon="152.7911463">
<ele>128.370</ele>
<time>2016-10-05T03:37:28.420Z</time>
</trkpt>
<trkpt lat="-26.9770946" lon="152.7913747">
<ele>128.502</ele>
<time>2016-10-05T03:37:30.423Z</time>
</trkpt>
<trkpt lat="-26.9775989" lon="152.7917344">
<ele>128.976</ele>
<time>2016-10-05T03:37:33.404Z</time>
</trkpt>
<trkpt lat="-26.9779340" lon="152.7919742">
<ele>130.054</ele>
<time>2016-10-05T03:37:35.386Z</time>
</trkpt>
<trkpt lat="-26.9784412" lon="152.7923271">
<ele>131.480</ele>
<time>2016-10-05T03:37:38.362Z</time>
</trkpt>
<trkpt lat="-26.9787768" lon="152.7925643">
<ele>132.644</ele>
<time>2016-10-05T03:37:40.339Z</time>
</trkpt>
<trkpt lat="-26.9791180" lon="152.7927967">
<ele>133.242</ele>
<time>2016-10-05T03:37:42.324Z</time>
</trkpt>
<trkpt lat="-26.9794519" lon="152.7930492">
<ele>133.421</ele>
<time>2016-10-05T03:37:44.329Z</time>
</trkpt>
<trkpt lat="-26.9799594" lon="152.7933999">
<ele>133.380</ele>
<time>2016-10-05T03:37:47.291Z</time>
</trkpt>
<trkpt lat="-26.9802967" lon="152.7936298">
<ele>133.013</ele>
<time>2016-10-05T03:37:49.251Z</time>
</trkpt>
<trkpt lat="-26.9806462" lon="152.7938572">
<ele>131.760</ele>
<time>2016-10-05T03:37:51.257Z</time>
</trkpt>
<trkpt lat="-26.9811798" lon="152.7941770">
<ele>129.478</ele>
<time>2016-10-05T03:37:54.265Z</time>
</trkpt>
<trkpt lat="-26.9817276" lon="152.7944571">
<ele>126.962</ele>
<time>2016-10-05T03:37:57.264Z</time>
</trkpt>
<trkpt lat="-26.9820982" lon="152.7946339">
<ele>125.110</ele>
<time>2016-10-05T03:37:59.274Z</time>
</trkpt>
<trkpt lat="-26.9826282" lon="152.7948501">
<ele>124.191</ele>
<time>2016-10-05T03:38:02.134Z</time>
</trkpt>
<trkpt lat="-26.9831366" lon="152.7950579">
<ele>124.153</ele>
<time>2016-10-05T03:38:04.985Z</time>
</trkpt>
<trkpt lat="-26.9836359" lon="152.7952591">
<ele>124.860</ele>
<time>2016-10-05T03:38:07.906Z</time>
</trkpt>
<trkpt lat="-26.9841524" lon="152.7954900">
<ele>126.205</ele>
<time>2016-10-05T03:38:11.003Z</time>
</trkpt>
<trkpt lat="-26.9844747" lon="152.7956554">
<ele>127.952</ele>
<time>2016-10-05T03:38:12.952Z</time>
</trkpt>
<trkpt lat="-26.9847814" lon="152.7958076">
<ele>129.453</ele>
<time>2016-10-05T03:38:14.778Z</time>
</trkpt>
<trkpt lat="-26.9850548" lon="152.7959790">
<ele>130.209</ele>
<time>2016-10-05T03:38:16.560Z</time>
</trkpt>
<trkpt lat="-26.9854357" lon="152.7962487">
<ele>130.420</ele>
<time>2016-10-05T03:38:19.292Z</time>
</trkpt>
<trkpt lat="-26.9856726" lon="152.7964338">
<ele>130.478</ele>
<time>2016-10-05T03:38:21.136Z</time>
</trkpt>
<trkpt lat="-26.9858974" lon="152.7966239">
<ele>130.721</ele>
<time>2016-10-05T03:38:22.968Z</time>
</trkpt>
<trkpt lat="-26.9861267" lon="152.7968078">
<ele>131.235</ele>
<time>2016-10-05T03:38:24.857Z</time>
</trkpt>
<trkpt lat="-26.9863385" lon="152.7970008">
<ele>131.624</ele>
<time>2016-10-05T03:38:26.726Z</time>
</trkpt>
<trkpt lat="-26.9866435" lon="152.7973025">
<ele>131.460</ele>
<time>2016-10-05T03:38:29.566Z</time>
</trkpt>
<trkpt lat="-26.9868238" lon="152.7974798">
<ele>130.846</ele>
<time>2016-10-05T03:38:31.305Z</time>
</trkpt>
<trkpt lat="-26.9870548" lon="152.7977128">
<ele>130.137</ele>
<time>2016-10-05T03:38:33.618Z</time>
</trkpt>
<trkpt lat="-26.9872010" lon="152.7978114">
<ele>129.453</ele>
<time>2016-10-05T03:38:34.952Z</time>
</trkpt>
<trkpt lat="-26.9873898" lon="152.7976321">
<ele>128.832</ele>
<time>2016-10-05T03:38:37.128Z</time>
</trkpt>
<trkpt lat="-26.9875381" lon="152.7974212">
<ele>128.674</ele>
<time>2016-10-05T03:38:39.445Z</time>
</trkpt>
<trkpt lat="-26.9877276" lon="152.7971991">
<ele>129.449</ele>
<time>2016-10-05T03:38:42.456Z</time>
</trkpt>
<trkpt lat="-26.9880342" lon="152.7968105">
<ele>130.851</ele>
<time>2016-10-05T03:38:46.586Z</time>
</trkpt>
<trkpt lat="-26.9883716" lon="152.7964567">
<ele>131.786</ele>
<time>2016-10-05T03:38:49.800Z</time>
</trkpt>
<trkpt lat="-26.9885984" lon="152.7962441">
<ele>131.147</ele>
<time>2016-10-05T03:38:51.722Z</time>
</trkpt>
<trkpt lat="-26.9889518" lon="152.7959940">
<ele>128.847</ele>
<time>2016-10-05T03:38:54.459Z</time>
</trkpt>
<trkpt lat="-26.9892151" lon="152.7958118">
<ele>125.666</ele>
<time>2016-10-05T03:38:56.580Z</time>
</trkpt>
<trkpt lat="-26.9894993" lon="152.7956231">
<ele>122.448</ele>
<time>2016-10-05T03:38:58.863Z</time>
</trkpt>
<trkpt lat="-26.9899515" lon="152.7953694">
<ele>119.841</ele>
<time>2016-10-05T03:39:02.166Z</time>
</trkpt>
<trkpt lat="-26.9902825" lon="152.7952289">
<ele>117.828</ele>
<time>2016-10-05T03:39:04.299Z</time>
</trkpt>
<trkpt lat="-26.9906022" lon="152.7951284">
<ele>116.068</ele>
<time>2016-10-05T03:39:06.261Z</time>
</trkpt>
<trkpt lat="-26.9911402" lon="152.7949849">
<ele>114.911</ele>
<time>2016-10-05T03:39:09.438Z</time>
</trkpt>
<trkpt lat="-26.9916886" lon="152.7949077">
<ele>114.740</ele>
<time>2016-10-05T03:39:12.506Z</time>
</trkpt>
<trkpt lat="-26.9922601" lon="152.7948077">
<ele>115.585</ele>
<time>2016-10-05T03:39:15.618Z</time>
</trkpt>
<trkpt lat="-26.9926167" lon="152.7947497">
<ele>117.794</ele>
<time>2016-10-05T03:39:17.528Z</time>
</trkpt>
<trkpt lat="-26.9929846" lon="152.7947029">
<ele>121.322</ele>
<time>2016-10-05T03:39:19.489Z</time>
</trkpt>
<trkpt lat="-26.9935395" lon="152.7946294">
<ele>124.958</ele>
<time>2016-10-05T03:39:22.475Z</time>
</trkpt>
<trkpt lat="-26.9938980" lon="152.7945785">
<ele>127.799</ele>
<time>2016-10-05T03:39:24.412Z</time>
</trkpt>
<trkpt lat="-26.9942783" lon="152.7945175">
<ele>129.883</ele>
<time>2016-10-05T03:39:26.474Z</time>
</trkpt>
<trkpt lat="-26.9948838" lon="152.7944179">
<ele>131.103</ele>
<time>2016-10-05T03:39:29.720Z</time>
</trkpt>
<trkpt lat="-26.9952846" lon="152.7943520">
<ele>131.684</ele>
<time>2016-10-05T03:39:31.802Z</time>
</trkpt>
<trkpt lat="-26.9956723" lon="152.7942945">
<ele>132.248</ele>
<time>2016-10-05T03:39:33.756Z</time>
</trkpt>
<trkpt lat="-26.9960606" lon="152.7942340">
<ele>132.708</ele>
<time>2016-10-05T03:39:35.708Z</time>
</trkpt>
<trkpt lat="-26.9966189" lon="152.7941625">
<ele>132.788</ele>
<time>2016-10-05T03:39:38.526Z</time>
</trkpt>
<trkpt lat="-26.9971962" lon="152.7940896">
<ele>132.868</ele>
<time>2016-10-05T03:39:41.461Z</time>
</trkpt>
<trkpt lat="-26.9975834" lon="152.7940313">
<ele>133.286</ele>
<time>2016-10-05T03:39:43.423Z</time>
</trkpt>
<trkpt lat="-26.9979701" lon="152.7939753">
<ele>133.770</ele>
<time>2016-10-05T03:39:45.369Z</time>
</trkpt>
<trkpt lat="-26.9985561" lon="152.7938940">
<ele>133.962</ele>
<time>2016-10-05T03:39:48.343Z</time>
</trkpt>
<trkpt lat="-26.9991421" lon="152.7937673">
<ele>133.906</ele>
<time>2016-10-05T03:39:51.402Z</time>
</trkpt>
<trkpt lat="-26.9997126" lon="152.7935491">
<ele>133.736</ele>
<time>2016-10-05T03:39:54.497Z</time>
</trkpt>
<trkpt lat="-27.0000475" lon="152.7933148">
<ele>133.520</ele>
<time>2016-10-05T03:39:56.493Z</time>
</trkpt>
<trkpt lat="-27.0005184" lon="152.7928561">
<ele>133.346</ele>
<time>2016-10-05T03:39:59.571Z</time>
</trkpt>
<trkpt lat="-27.0007768" lon="152.7924949">
<ele>133.321</ele>
<time>2016-10-05T03:40:01.565Z</time>
</trkpt>
<trkpt lat="-27.0009926" lon="152.7920821">
<ele>133.427</ele>
<time>2016-10-05T03:40:03.602Z</time>
</trkpt>
<trkpt lat="-27.0012066" lon="152.7913639">
<ele>133.224</ele>
<time>2016-10-05T03:40:06.747Z</time>
</trkpt>
<trkpt lat="-27.0012361" lon="152.7908844">
<ele>132.289</ele>
<time>2016-10-05T03:40:08.706Z</time>
</trkpt>
<trkpt lat="-27.0012908" lon="152.7903940">
<ele>130.808</ele>
<time>2016-10-05T03:40:10.717Z</time>
</trkpt>
<trkpt lat="-27.0013162" lon="152.7899434">
<ele>129.348</ele>
<time>2016-10-05T03:40:12.565Z</time>
</trkpt>
<trkpt lat="-27.0013641" lon="152.7895082">
<ele>128.045</ele>
<time>2016-10-05T03:40:14.397Z</time>
</trkpt>
<trkpt lat="-27.0014319" lon="152.7888882">
<ele>126.836</ele>
<time>2016-10-05T03:40:17.137Z</time>
</trkpt>
<trkpt lat="-27.0015271" lon="152.7882902">
<ele>125.979</ele>
<time>2016-10-05T03:40:19.970Z</time>
</trkpt>
<trkpt lat="-27.0015366" lon="152.7878489">
<ele>125.742</ele>
<time>2016-10-05T03:40:22.068Z</time>
</trkpt>
<trkpt lat="-27.0015962" lon="152.7871958">
<ele>125.861</ele>
<time>2016-10-05T03:40:25.144Z</time>
</trkpt>
<trkpt lat="-27.0016488" lon="152.7865322">
<ele>125.752</ele>
<time>2016-10-05T03:40:28.188Z</time>
</trkpt>
<trkpt lat="-27.0017443" lon="152.7861441">
<ele>125.123</ele>
<time>2016-10-05T03:40:30.027Z</time>
</trkpt>
<trkpt lat="-27.0019132" lon="152.7855286">
<ele>124.419</ele>
<time>2016-10-05T03:40:33.019Z</time>
</trkpt>
<trkpt lat="-27.0021874" lon="152.7849486">
<ele>124.609</ele>
<time>2016-10-05T03:40:36.108Z</time>
</trkpt>
<trkpt lat="-27.0025329" lon="152.7843697">
<ele>126.006</ele>
<time>2016-10-05T03:40:39.337Z</time>
</trkpt>
<trkpt lat="-27.0028302" lon="152.7839214">
<ele>128.224</ele>
<time>2016-10-05T03:40:41.842Z</time>
</trkpt>
<trkpt lat="-27.0032773" lon="152.7831976">
<ele>130.829</ele>
<time>2016-10-05T03:40:45.300Z</time>
</trkpt>
<trkpt lat="-27.0035476" lon="152.7827407">
<ele>133.082</ele>
<time>2016-10-05T03:40:47.309Z</time>
</trkpt>
<trkpt lat="-27.0037865" lon="152.7823166">
<ele>133.962</ele>
<time>2016-10-05T03:40:49.105Z</time>
</trkpt>
<trkpt lat="-27.0041693" lon="152.7816661">
<ele>133.489</ele>
<time>2016-10-05T03:40:51.996Z</time>
</trkpt>
<trkpt lat="-27.0046001" lon="152.7810656">
<ele>132.883</ele>
<time>2016-10-05T03:40:54.929Z</time>
</trkpt>
<trkpt lat="-27.0050976" lon="152.7804605">
<ele>133.053</ele>
<time>2016-10-05T03:40:58.082Z</time>
</trkpt>
<trkpt lat="-27.0054615" lon="152.7801102">
<ele>133.547</ele>
<time>2016-10-05T03:41:00.122Z</time>
</trkpt>
<trkpt lat="-27.0060707" lon="152.7796175">
<ele>133.735</ele>
<time>2016-10-05T03:41:03.225Z</time>
</trkpt>
<trkpt lat="-27.0067014" lon="152.7792004">
<ele>133.969</ele>
<time>2016-10-05T03:41:06.207Z</time>
</trkpt>
<trkpt lat="-27.0071369" lon="152.7789630">
<ele>134.659</ele>
<time>2016-10-05T03:41:08.174Z</time>
</trkpt>
<trkpt lat="-27.0077966" lon="152.7786661">
<ele>135.347</ele>
<time>2016-10-05T03:41:11.119Z</time>
</trkpt>
<trkpt lat="-27.0082578" lon="152.7785176">
<ele>135.413</ele>
<time>2016-10-05T03:41:13.126Z</time>
</trkpt>
<trkpt lat="-27.0087304" lon="152.7784226">
<ele>134.965</ele>
<time>2016-10-05T03:41:15.134Z</time>
</trkpt>
<trkpt lat="-27.0094425" lon="152.7783541">
<ele>134.734</ele>
<time>2016-10-05T03:41:18.116Z</time>
</trkpt>
<trkpt lat="-27.0099198" lon="152.7783453">
<ele>135.595</ele>
<time>2016-10-05T03:41:20.105Z</time>
</trkpt>
<trkpt lat="-27.0103801" lon="152.7783299">
<ele>137.556</ele>
<time>2016-10-05T03:41:22.026Z</time>
</trkpt>
<trkpt lat="-27.0108482" lon="152.7783502">
<ele>139.829</ele>
<time>2016-10-05T03:41:24.004Z</time>
</trkpt>
<trkpt lat="-27.0113362" lon="152.7784278">
<ele>141.850</ele>
<time>2016-10-05T03:41:26.095Z</time>
</trkpt>
<trkpt lat="-27.0120812" lon="152.7785482">
<ele>143.985</ele>
<time>2016-10-05T03:41:29.197Z</time>
</trkpt>
<trkpt lat="-27.0128196" lon="152.7786739">
<ele>146.731</ele>
<time>2016-10-05T03:41:32.207Z</time>
</trkpt>
<trkpt lat="-27.0132680" lon="152.7787452">
<ele>149.519</ele>
<time>2016-10-05T03:41:34.023Z</time>
</trkpt>
<trkpt lat="-27.0137220" lon="152.7788269">
<ele>151.243</ele>
<time>2016-10-05T03:41:35.921Z</time>
</trkpt>
<trkpt lat="-27.0144339" lon="152.7788733">
<ele>151.775</ele>
<time>2016-10-05T03:41:38.963Z</time>
</trkpt>
<trkpt lat="-27.0149006" lon="152.7788603">
<ele>151.890</ele>
<time>2016-10-05T03:41:40.960Z</time>
</trkpt>
<trkpt lat="-27.0153723" lon="152.7788435">
<ele>152.189</ele>
<time>2016-10-05T03:41:42.965Z</time>
</trkpt>
<trkpt lat="-27.0158510" lon="152.7788783">
<ele>153.046</ele>
<time>2016-10-05T03:41:44.997Z</time>
</trkpt>
<trkpt lat="-27.0165738" lon="152.7789813">
<ele>154.604</ele>
<time>2016-10-05T03:41:48.034Z</time>
</trkpt>
<trkpt lat="-27.0172695" lon="152.7790796">
<ele>156.312</ele>
<time>2016-10-05T03:41:50.949Z</time>
</trkpt>
<trkpt lat="-27.0177119" lon="152.7791366">
<ele>157.800</ele>
<time>2016-10-05T03:41:52.814Z</time>
</trkpt>
<trkpt lat="-27.0183739" lon="152.7792247">
<ele>159.486</ele>
<time>2016-10-05T03:41:55.681Z</time>
</trkpt>
<trkpt lat="-27.0188240" lon="152.7793293">
<ele>161.598</ele>
<time>2016-10-05T03:41:57.705Z</time>
</trkpt>
<trkpt lat="-27.0192849" lon="152.7794644">
<ele>164.121</ele>
<time>2016-10-05T03:41:59.813Z</time>
</trkpt>
<trkpt lat="-27.0199853" lon="152.7797492">
<ele>166.956</ele>
<time>2016-10-05T03:42:02.990Z</time>
</trkpt>
<trkpt lat="-27.0203924" lon="152.7799243">
<ele>169.750</ele>
<time>2016-10-05T03:42:04.797Z</time>
</trkpt>
<trkpt lat="-27.0208003" lon="152.7801122">
<ele>172.209</ele>
<time>2016-10-05T03:42:06.622Z</time>
</trkpt>
<trkpt lat="-27.0212498" lon="152.7802860">
<ele>174.234</ele>
<time>2016-10-05T03:42:08.669Z</time>
</trkpt>
<trkpt lat="-27.0219163" lon="152.7805574">
<ele>176.200</ele>
<time>2016-10-05T03:42:11.782Z</time>
</trkpt>
<trkpt lat="-27.0223524" lon="152.7807318">
<ele>178.994</ele>
<time>2016-10-05T03:42:13.785Z</time>
</trkpt>
<trkpt lat="-27.0229148" lon="152.7809554">
<ele>182.425</ele>
<time>2016-10-05T03:42:16.378Z</time>
</trkpt>
<trkpt lat="-27.0234398" lon="152.7810621">
<ele>185.011</ele>
<time>2016-10-05T03:42:18.857Z</time>
</trkpt>
<trkpt lat="-27.0237481" lon="152.7807879">
<ele>186.095</ele>
<time>2016-10-05T03:42:20.914Z</time>
</trkpt>
<trkpt lat="-27.0240333" lon="152.7802812">
<ele>186.414</ele>
<time>2016-10-05T03:42:23.875Z</time>
</trkpt>
<trkpt lat="-27.0240851" lon="152.7799233">
<ele>187.654</ele>
<time>2016-10-05T03:42:25.773Z</time>
</trkpt>
<trkpt lat="-27.0241877" lon="152.7796400">
<ele>190.470</ele>
<time>2016-10-05T03:42:27.393Z</time>
</trkpt>
<trkpt lat="-27.0244301" lon="152.7794333">
<ele>193.375</ele>
<time>2016-10-05T03:42:29.295Z</time>
</trkpt>
<trkpt lat="-27.0249491" lon="152.7795055">
<ele>195.425</ele>
<time>2016-10-05T03:42:33.216Z</time>
</trkpt>
<trkpt lat="-27.0254324" lon="152.7793128">
<ele>197.430</ele>
<time>2016-10-05T03:42:37.266Z</time>
</trkpt>
<trkpt lat="-27.0257325" lon="152.7790271">
<ele>200.009</ele>
<time>2016-10-05T03:42:39.904Z</time>
</trkpt>
<trkpt lat="-27.0257672" lon="152.7787562">
<ele>203.173</ele>
<time>2016-10-05T03:42:41.586Z</time>
</trkpt>
<trkpt lat="-27.0257006" lon="152.7783000">
<ele>206.235</ele>
<time>2016-10-05T03:42:44.656Z</time>
</trkpt>
<trkpt lat="-27.0258086" lon="152.7780625">
<ele>208.377</ele>
<time>2016-10-05T03:42:46.625Z</time>
</trkpt>
<trkpt lat="-27.0260271" lon="152.7782885">
<ele>209.526</ele>
<time>2016-10-05T03:42:49.248Z</time>
</trkpt>
<trkpt lat="-27.0265900" lon="152.7787212">
<ele>209.989</ele>
<time>2016-10-05T03:42:56.394Z</time>
</trkpt>
<trkpt lat="-27.0268272" lon="152.7790083">
<ele>209.458</ele>
<time>2016-10-05T03:42:58.756Z</time>
</trkpt>
<trkpt lat="-27.0271749" lon="152.7793639">
<ele>207.032</ele>
<time>2016-10-05T03:43:01.581Z</time>
</trkpt>
<trkpt lat="-27.0274754" lon="152.7793929">
<ele>202.391</ele>
<time>2016-10-05T03:43:03.555Z</time>
</trkpt>
<trkpt lat="-27.0279658" lon="152.7792824">
<ele>196.919</ele>
<time>2016-10-05T03:43:07.136Z</time>
</trkpt>
<trkpt lat="-27.0283371" lon="152.7791862">
<ele>192.242</ele>
<time>2016-10-05T03:43:09.652Z</time>
</trkpt>
<trkpt lat="-27.0287936" lon="152.7792559">
<ele>188.419</ele>
<time>2016-10-05T03:43:12.527Z</time>
</trkpt>
<trkpt lat="-27.0293870" lon="152.7793443">
<ele>184.681</ele>
<time>2016-10-05T03:43:16.021Z</time>
</trkpt>
<trkpt lat="-27.0299945" lon="152.7792677">
<ele>180.447</ele>
<time>2016-10-05T03:43:19.307Z</time>
</trkpt>
<trkpt lat="-27.0304195" lon="152.7789010">
<ele>175.914</ele>
<time>2016-10-05T03:43:22.114Z</time>
</trkpt>
<trkpt lat="-27.0307146" lon="152.7785631">
<ele>172.384</ele>
<time>2016-10-05T03:43:24.268Z</time>
</trkpt>
<trkpt lat="-27.0312308" lon="152.7782284">
<ele>171.230</ele>
<time>2016-10-05T03:43:27.284Z</time>
</trkpt>
<trkpt lat="-27.0316083" lon="152.7780996">
<ele>172.819</ele>
<time>2016-10-05T03:43:29.292Z</time>
</trkpt>
<trkpt lat="-27.0322297" lon="152.7781113">
<ele>176.458</ele>
<time>2016-10-05T03:43:32.575Z</time>
</trkpt>
<trkpt lat="-27.0326868" lon="152.7780454">
<ele>181.013</ele>
<time>2016-10-05T03:43:35.216Z</time>
</trkpt>
<trkpt lat="-27.0329363" lon="152.7777446">
<ele>185.806</ele>
<time>2016-10-05T03:43:37.456Z</time>
</trkpt>
<trkpt lat="-27.0333597" lon="152.7774957">
<ele>190.551</ele>
<time>2016-10-05T03:43:40.341Z</time>
</trkpt>
<trkpt lat="-27.0336446" lon="152.7772466">
<ele>195.424</ele>
<time>2016-10-05T03:43:42.403Z</time>
</trkpt>
<trkpt lat="-27.0340860" lon="152.7769559">
<ele>200.862</ele>
<time>2016-10-05T03:43:45.311Z</time>
</trkpt>
<trkpt lat="-27.0343168" lon="152.7767121">
<ele>206.832</ele>
<time>2016-10-05T03:43:47.255Z</time>
</trkpt>
<trkpt lat="-27.0345167" lon="152.7764805">
<ele>212.864</ele>
<time>2016-10-05T03:43:49.344Z</time>
</trkpt>
<trkpt lat="-27.0348578" lon="152.7764666">
<ele>218.282</ele>
<time>2016-10-05T03:43:52.216Z</time>
</trkpt>
<trkpt lat="-27.0350086" lon="152.7766724">
<ele>223.038</ele>
<time>2016-10-05T03:43:54.269Z</time>
</trkpt>
<trkpt lat="-27.0353222" lon="152.7769473">
<ele>227.712</ele>
<time>2016-10-05T03:43:57.389Z</time>
</trkpt>
<trkpt lat="-27.0356329" lon="152.7770258">
<ele>232.358</ele>
<time>2016-10-05T03:43:59.587Z</time>
</trkpt>
<trkpt lat="-27.0360345" lon="152.7773176">
<ele>236.775</ele>
<time>2016-10-05T03:44:02.898Z</time>
</trkpt>
<trkpt lat="-27.0362699" lon="152.7773726">
<ele>241.286</ele>
<time>2016-10-05T03:44:04.755Z</time>
</trkpt>
<trkpt lat="-27.0366520" lon="152.7773308">
<ele>245.807</ele>
<time>2016-10-05T03:44:07.694Z</time>
</trkpt>
<trkpt lat="-27.0371044" lon="152.7773421">
<ele>250.014</ele>
<time>2016-10-05T03:44:10.984Z</time>
</trkpt>
<trkpt lat="-27.0375447" lon="152.7773954">
<ele>253.876</ele>
<time>2016-10-05T03:44:14.103Z</time>
</trkpt>
<trkpt lat="-27.0377796" lon="152.7772547">
<ele>257.412</ele>
<time>2016-10-05T03:44:15.965Z</time>
</trkpt>
<trkpt lat="-27.0380495" lon="152.7772249">
<ele>260.768</ele>
<time>2016-10-05T03:44:17.821Z</time>
</trkpt>
<trkpt lat="-27.0384784" lon="152.7772796">
<ele>264.299</ele>
<time>2016-10-05T03:44:20.811Z</time>
</trkpt>
<trkpt lat="-27.0387187" lon="152.7770783">
<ele>268.168</ele>
<time>2016-10-05T03:44:22.970Z</time>
</trkpt>
<trkpt lat="-27.0389512" lon="152.7769552">
<ele>272.317</ele>
<time>2016-10-05T03:44:24.895Z</time>
</trkpt>
<trkpt lat="-27.0391960" lon="152.7769037">
<ele>276.172</ele>
<time>2016-10-05T03:44:26.818Z</time>
</trkpt>
<trkpt lat="-27.0395771" lon="152.7771313">
<ele>279.142</ele>
<time>2016-10-05T03:44:29.967Z</time>
</trkpt>
<trkpt lat="-27.0400447" lon="152.7771801">
<ele>282.090</ele>
<time>2016-10-05T03:44:32.921Z</time>
</trkpt>
<trkpt lat="-27.0404140" lon="152.7772116">
<ele>286.468</ele>
<time>2016-10-05T03:44:34.887Z</time>
</trkpt>
<trkpt lat="-27.0408037" lon="152.7772732">
<ele>292.298</ele>
<time>2016-10-05T03:44:36.881Z</time>
</trkpt>
<trkpt lat="-27.0414099" lon="152.7773721">
<ele>298.461</ele>
<time>2016-10-05T03:44:39.921Z</time>
</trkpt>
<trkpt lat="-27.0420240" lon="152.7774244">
<ele>304.485</ele>
<time>2016-10-05T03:44:42.844Z</time>
</trkpt>
<trkpt lat="-27.0424728" lon="152.7774449">
<ele>311.102</ele>
<time>2016-10-05T03:44:44.947Z</time>
</trkpt>
<trkpt lat="-27.0430944" lon="152.7774952">
<ele>318.647</ele>
<time>2016-10-05T03:44:47.944Z</time>
</trkpt>
<trkpt lat="-27.0435013" lon="152.7774571">
<ele>325.864</ele>
<time>2016-10-05T03:44:49.928Z</time>
</trkpt>
<trkpt lat="-27.0441168" lon="152.7773276">
<ele>331.797</ele>
<time>2016-10-05T03:44:52.955Z</time>
</trkpt>
<trkpt lat="-27.0445205" lon="152.7771877">
<ele>337.248</ele>
<time>2016-10-05T03:44:55.003Z</time>
</trkpt>
<trkpt lat="-27.0448992" lon="152.7770176">
<ele>342.821</ele>
<time>2016-10-05T03:44:57.153Z</time>
</trkpt>
<trkpt lat="-27.0453242" lon="152.7767008">
<ele>347.890</ele>
<time>2016-10-05T03:45:00.302Z</time>
</trkpt>
<trkpt lat="-27.0454967" lon="152.7765194">
<ele>351.741</ele>
<time>2016-10-05T03:45:02.163Z</time>
</trkpt>
<trkpt lat="-27.0456361" lon="152.7761589">
<ele>354.384</ele>
<time>2016-10-05T03:45:05.021Z</time>
</trkpt>
<trkpt lat="-27.0457775" lon="152.7759496">
<ele>356.599</ele>
<time>2016-10-05T03:45:06.898Z</time>
</trkpt>
<trkpt lat="-27.0459269" lon="152.7757450">
<ele>359.198</ele>
<time>2016-10-05T03:45:08.714Z</time>
</trkpt>
<trkpt lat="-27.0462266" lon="152.7754609">
<ele>362.382</ele>
<time>2016-10-05T03:45:11.704Z</time>
</trkpt>
<trkpt lat="-27.0463477" lon="152.7750742">
<ele>366.484</ele>
<time>2016-10-05T03:45:14.386Z</time>
</trkpt>
<trkpt lat="-27.0463266" lon="152.7745792">
<ele>371.598</ele>
<time>2016-10-05T03:45:17.479Z</time>
</trkpt>
<trkpt lat="-27.0462930" lon="152.7740966">
<ele>376.788</ele>
<time>2016-10-05T03:45:20.522Z</time>
</trkpt>
<trkpt lat="-27.0461994" lon="152.7738306">
<ele>381.324</ele>
<time>2016-10-05T03:45:22.438Z</time>
</trkpt>
<trkpt lat="-27.0461713" lon="152.7733886">
<ele>384.910</ele>
<time>2016-10-05T03:45:25.427Z</time>
</trkpt>
<trkpt lat="-27.0462294" lon="152.7730858">
<ele>387.522</ele>
<time>2016-10-05T03:45:27.406Z</time>
</trkpt>
<trkpt lat="-27.0463519" lon="152.7727460">
<ele>390.219</ele>
<time>2016-10-05T03:45:29.561Z</time>
</trkpt>
<trkpt lat="-27.0466774" lon="152.7723483">
<ele>394.106</ele>
<time>2016-10-05T03:45:32.611Z</time>
</trkpt>
<trkpt lat="-27.0470994" lon="152.7721099">
<ele>398.918</ele>
<time>2016-10-05T03:45:35.523Z</time>
</trkpt>
<trkpt lat="-27.0475532" lon="152.7718884">
<ele>403.430</ele>
<time>2016-10-05T03:45:38.374Z</time>
</trkpt>
<trkpt lat="-27.0480943" lon="152.7716239">
<ele>407.282</ele>
<time>2016-10-05T03:45:41.486Z</time>
</trkpt>
<trkpt lat="-27.0486252" lon="152.7713622">
<ele>411.517</ele>
<time>2016-10-05T03:45:44.476Z</time>
</trkpt>
<trkpt lat="-27.0491211" lon="152.7710868">
<ele>416.346</ele>
<time>2016-10-05T03:45:47.406Z</time>
</trkpt>
<trkpt lat="-27.0494614" lon="152.7709323">
<ele>420.310</ele>
<time>2016-10-05T03:45:49.366Z</time>
</trkpt>
<trkpt lat="-27.0500189" lon="152.7708378">
<ele>422.789</ele>
<time>2016-10-05T03:45:52.333Z</time>
</trkpt>
<trkpt lat="-27.0505999" lon="152.7709213">
<ele>424.491</ele>
<time>2016-10-05T03:45:55.306Z</time>
</trkpt>
<trkpt lat="-27.0511709" lon="152.7711998">
<ele>425.790</ele>
<time>2016-10-05T03:45:58.308Z</time>
</trkpt>
<trkpt lat="-27.0515148" lon="152.7714867">
<ele>425.966</ele>
<time>2016-10-05T03:46:00.283Z</time>
</trkpt>
<trkpt lat="-27.0518561" lon="152.7718030">
<ele>424.814</ele>
<time>2016-10-05T03:46:02.318Z</time>
</trkpt>
<trkpt lat="-27.0521780" lon="152.7721090">
<ele>422.708</ele>
<time>2016-10-05T03:46:04.297Z</time>
</trkpt>
<trkpt lat="-27.0526482" lon="152.7725531">
<ele>419.789</ele>
<time>2016-10-05T03:46:07.217Z</time>
</trkpt>
<trkpt lat="-27.0531200" lon="152.7730077">
<ele>416.642</ele>
<time>2016-10-05T03:46:10.177Z</time>
</trkpt>
<trkpt lat="-27.0534590" lon="152.7732755">
<ele>414.054</ele>
<time>2016-10-05T03:46:12.135Z</time>
</trkpt>
<trkpt lat="-27.0538341" lon="152.7735084">
<ele>412.110</ele>
<time>2016-10-05T03:46:14.129Z</time>
</trkpt>
<trkpt lat="-27.0544798" lon="152.7737275">
<ele>410.970</ele>
<time>2016-10-05T03:46:17.217Z</time>
</trkpt>
<trkpt lat="-27.0549027" lon="152.7738510">
<ele>410.779</ele>
<time>2016-10-05T03:46:19.201Z</time>
</trkpt>
<trkpt lat="-27.0555353" lon="152.7739957">
<ele>411.375</ele>
<time>2016-10-05T03:46:22.113Z</time>
</trkpt>
<trkpt lat="-27.0559877" lon="152.7741232">
<ele>412.375</ele>
<time>2016-10-05T03:46:24.187Z</time>
</trkpt>
<trkpt lat="-27.0566215" lon="152.7742994">
<ele>413.315</ele>
<time>2016-10-05T03:46:27.099Z</time>
</trkpt>
<trkpt lat="-27.0570659" lon="152.7744214">
<ele>413.985</ele>
<time>2016-10-05T03:46:29.143Z</time>
</trkpt>
<trkpt lat="-27.0575032" lon="152.7745424">
<ele>414.474</ele>
<time>2016-10-05T03:46:31.161Z</time>
</trkpt>
<trkpt lat="-27.0579313" lon="152.7746567">
<ele>414.870</ele>
<time>2016-10-05T03:46:33.187Z</time>
</trkpt>
<trkpt lat="-27.0585038" lon="152.7748917">
<ele>415.142</ele>
<time>2016-10-05T03:46:36.080Z</time>
</trkpt>
<trkpt lat="-27.0588211" lon="152.7751386">
<ele>415.173</ele>
<time>2016-10-05T03:46:37.956Z</time>
</trkpt>
<trkpt lat="-27.0592962" lon="152.7755948">
<ele>415.017</ele>
<time>2016-10-05T03:46:40.995Z</time>
</trkpt>
<trkpt lat="-27.0595622" lon="152.7759416">
<ele>415.015</ele>
<time>2016-10-05T03:46:42.982Z</time>
</trkpt>
<trkpt lat="-27.0599535" lon="152.7764640">
<ele>415.656</ele>
<time>2016-10-05T03:46:45.950Z</time>
</trkpt>
<trkpt lat="-27.0602356" lon="152.7768304">
<ele>416.891</ele>
<time>2016-10-05T03:46:48.036Z</time>
</trkpt>
<trkpt lat="-27.0604781" lon="152.7771790">
<ele>418.329</ele>
<time>2016-10-05T03:46:49.938Z</time>
</trkpt>
<trkpt lat="-27.0607233" lon="152.7775395">
<ele>419.735</ele>
<time>2016-10-05T03:46:51.883Z</time>
</trkpt>
<trkpt lat="-27.0611409" lon="152.7780771">
<ele>420.882</ele>
<time>2016-10-05T03:46:54.888Z</time>
</trkpt>
<trkpt lat="-27.0616222" lon="152.7786066">
<ele>421.691</ele>
<time>2016-10-05T03:46:58.011Z</time>
</trkpt>
<trkpt lat="-27.0619357" lon="152.7788948">
<ele>422.725</ele>
<time>2016-10-05T03:46:59.948Z</time>
</trkpt>
<trkpt lat="-27.0623932" lon="152.7793267">
<ele>424.754</ele>
<time>2016-10-05T03:47:02.871Z</time>
</trkpt>
<trkpt lat="-27.0627091" lon="152.7796239">
<ele>427.952</ele>
<time>2016-10-05T03:47:04.864Z</time>
</trkpt>
<trkpt lat="-27.0631864" lon="152.7800694">
<ele>431.769</ele>
<time>2016-10-05T03:47:07.812Z</time>
</trkpt>
<trkpt lat="-27.0635249" lon="152.7803553">
<ele>435.857</ele>
<time>2016-10-05T03:47:09.810Z</time>
</trkpt>
<trkpt lat="-27.0638795" lon="152.7805940">
<ele>440.062</ele>
<time>2016-10-05T03:47:11.752Z</time>
</trkpt>
<trkpt lat="-27.0645051" lon="152.7808363">
<ele>444.127</ele>
<time>2016-10-05T03:47:14.803Z</time>
</trkpt>
<trkpt lat="-27.0649438" lon="152.7808913">
<ele>448.473</ele>
<time>2016-10-05T03:47:16.802Z</time>
</trkpt>
<trkpt lat="-27.0656274" lon="152.7808873">
<ele>453.432</ele>
<time>2016-10-05T03:47:19.909Z</time>
</trkpt>
<trkpt lat="-27.0660584" lon="152.7808744">
<ele>458.352</ele>
<time>2016-10-05T03:47:21.872Z</time>
</trkpt>
<trkpt lat="-27.0666950" lon="152.7809536">
<ele>462.469</ele>
<time>2016-10-05T03:47:24.781Z</time>
</trkpt>
<trkpt lat="-27.0673417" lon="152.7810485">
<ele>465.879</ele>
<time>2016-10-05T03:47:27.769Z</time>
</trkpt>
<trkpt lat="-27.0677618" lon="152.7811161">
<ele>468.787</ele>
<time>2016-10-05T03:47:29.762Z</time>
</trkpt>
<trkpt lat="-27.0683886" lon="152.7812054">
<ele>470.737</ele>
<time>2016-10-05T03:47:32.766Z</time>
</trkpt>
<trkpt lat="-27.0690191" lon="152.7813596">
<ele>471.397</ele>
<time>2016-10-05T03:47:35.827Z</time>
</trkpt>
<trkpt lat="-27.0694058" lon="152.7814672">
<ele>471.287</ele>
<time>2016-10-05T03:47:37.728Z</time>
</trkpt>
<trkpt lat="-27.0699943" lon="152.7816166">
<ele>470.653</ele>
<time>2016-10-05T03:47:40.642Z</time>
</trkpt>
<trkpt lat="-27.0705595" lon="152.7816720">
<ele>469.232</ele>
<time>2016-10-05T03:47:43.408Z</time>
</trkpt>
<trkpt lat="-27.0709716" lon="152.7816517">
<ele>467.202</ele>
<time>2016-10-05T03:47:45.425Z</time>
</trkpt>
<trkpt lat="-27.0713907" lon="152.7816224">
<ele>465.405</ele>
<time>2016-10-05T03:47:47.449Z</time>
</trkpt>
<trkpt lat="-27.0720108" lon="152.7817167">
<ele>464.295</ele>
<time>2016-10-05T03:47:50.438Z</time>
</trkpt>
<trkpt lat="-27.0724070" lon="152.7818457">
<ele>463.095</ele>
<time>2016-10-05T03:47:52.411Z</time>
</trkpt>
<trkpt lat="-27.0730688" lon="152.7819705">
<ele>460.654</ele>
<time>2016-10-05T03:47:55.543Z</time>
</trkpt>
<trkpt lat="-27.0735408" lon="152.7819455">
<ele>456.538</ele>
<time>2016-10-05T03:47:57.660Z</time>
</trkpt>
<trkpt lat="-27.0742109" lon="152.7818477">
<ele>451.902</ele>
<time>2016-10-05T03:48:00.658Z</time>
</trkpt>
<trkpt lat="-27.0748668" lon="152.7818320">
<ele>448.445</ele>
<time>2016-10-05T03:48:03.587Z</time>
</trkpt>
<trkpt lat="-27.0753074" lon="152.7819063">
<ele>446.651</ele>
<time>2016-10-05T03:48:05.602Z</time>
</trkpt>
<trkpt lat="-27.0759223" lon="152.7819663">
<ele>445.826</ele>
<time>2016-10-05T03:48:08.448Z</time>
</trkpt>
<trkpt lat="-27.0763676" lon="152.7819203">
<ele>445.311</ele>
<time>2016-10-05T03:48:10.510Z</time>
</trkpt>
<trkpt lat="-27.0769974" lon="152.7817136">
<ele>444.791</ele>
<time>2016-10-05T03:48:13.460Z</time>
</trkpt>
<trkpt lat="-27.0775936" lon="152.7813612">
<ele>444.858</ele>
<time>2016-10-05T03:48:16.496Z</time>
</trkpt>
<trkpt lat="-27.0778962" lon="152.7810532">
<ele>446.106</ele>
<time>2016-10-05T03:48:18.422Z</time>
</trkpt>
<trkpt lat="-27.0782819" lon="152.7805670">
<ele>448.387</ele>
<time>2016-10-05T03:48:21.284Z</time>
</trkpt>
<trkpt lat="-27.0786603" lon="152.7800809">
<ele>451.125</ele>
<time>2016-10-05T03:48:24.207Z</time>
</trkpt>
<trkpt lat="-27.0788731" lon="152.7796930">
<ele>453.981</ele>
<time>2016-10-05T03:48:26.261Z</time>
</trkpt>
<trkpt lat="-27.0790427" lon="152.7792477">
<ele>457.234</ele>
<time>2016-10-05T03:48:28.362Z</time>
</trkpt>
<trkpt lat="-27.0791481" lon="152.7787798">
<ele>460.886</ele>
<time>2016-10-05T03:48:30.413Z</time>
</trkpt>
<trkpt lat="-27.0792140" lon="152.7781336">
<ele>464.355</ele>
<time>2016-10-05T03:48:33.322Z</time>
</trkpt>
<trkpt lat="-27.0792346" lon="152.7777501">
<ele>467.154</ele>
<time>2016-10-05T03:48:35.197Z</time>
</trkpt>
<trkpt lat="-27.0792159" lon="152.7771576">
<ele>468.683</ele>
<time>2016-10-05T03:48:38.195Z</time>
</trkpt>
<trkpt lat="-27.0791139" lon="152.7766197">
<ele>468.500</ele>
<time>2016-10-05T03:48:41.062Z</time>
</trkpt>
<trkpt lat="-27.0790210" lon="152.7762535">
<ele>466.757</ele>
<time>2016-10-05T03:48:43.134Z</time>
</trkpt>
<trkpt lat="-27.0789336" lon="152.7757384">
<ele>464.302</ele>
<time>2016-10-05T03:48:46.120Z</time>
</trkpt>
<trkpt lat="-27.0789328" lon="152.7754157">
<ele>462.566</ele>
<time>2016-10-05T03:48:48.028Z</time>
</trkpt>
<trkpt lat="-27.0790059" lon="152.7749343">
<ele>462.417</ele>
<time>2016-10-05T03:48:50.929Z</time>
</trkpt>
<trkpt lat="-27.0791538" lon="152.7744406">
<ele>463.417</ele>
<time>2016-10-05T03:48:53.900Z</time>
</trkpt>
<trkpt lat="-27.0793202" lon="152.7741280">
<ele>464.357</ele>
<time>2016-10-05T03:48:55.877Z</time>
</trkpt>
<trkpt lat="-27.0795563" lon="152.7736495">
<ele>464.528</ele>
<time>2016-10-05T03:48:58.856Z</time>
</trkpt>
<trkpt lat="-27.0799024" lon="152.7732621">
<ele>464.253</ele>
<time>2016-10-05T03:49:01.894Z</time>
</trkpt>
<trkpt lat="-27.0803119" lon="152.7728912">
<ele>463.673</ele>
<time>2016-10-05T03:49:05.066Z</time>
</trkpt>
<trkpt lat="-27.0805263" lon="152.7726540">
<ele>462.678</ele>
<time>2016-10-05T03:49:06.893Z</time>
</trkpt>
<trkpt lat="-27.0806943" lon="152.7723978">
<ele>461.706</ele>
<time>2016-10-05T03:49:08.720Z</time>
</trkpt>
<trkpt lat="-27.0808069" lon="152.7720498">
<ele>461.225</ele>
<time>2016-10-05T03:49:10.881Z</time>
</trkpt>
<trkpt lat="-27.0808677" lon="152.7715315">
<ele>461.117</ele>
<time>2016-10-05T03:49:13.871Z</time>
</trkpt>
<trkpt lat="-27.0808556" lon="152.7712077">
<ele>461.130</ele>
<time>2016-10-05T03:49:15.761Z</time>
</trkpt>
<trkpt lat="-27.0807067" lon="152.7707181">
<ele>461.382</ele>
<time>2016-10-05T03:49:18.816Z</time>
</trkpt>
<trkpt lat="-27.0806142" lon="152.7702539">
<ele>462.405</ele>
<time>2016-10-05T03:49:21.680Z</time>
</trkpt>
<trkpt lat="-27.0806932" lon="152.7699231">
<ele>464.347</ele>
<time>2016-10-05T03:49:23.785Z</time>
</trkpt>
<trkpt lat="-27.0808281" lon="152.7694082">
<ele>466.729</ele>
<time>2016-10-05T03:49:26.896Z</time>
</trkpt>
<trkpt lat="-27.0808936" lon="152.7688192">
<ele>468.860</ele>
<time>2016-10-05T03:49:30.064Z</time>
</trkpt>
<trkpt lat="-27.0809211" lon="152.7684408">
<ele>470.278</ele>
<time>2016-10-05T03:49:32.038Z</time>
</trkpt>
<trkpt lat="-27.0809379" lon="152.7680726">
<ele>471.236</ele>
<time>2016-10-05T03:49:33.977Z</time>
</trkpt>
<trkpt lat="-27.0809624" lon="152.7674729">
<ele>472.365</ele>
<time>2016-10-05T03:49:37.018Z</time>
</trkpt>
<trkpt lat="-27.0810008" lon="152.7667487">
<ele>474.338</ele>
<time>2016-10-05T03:49:40.236Z</time>
</trkpt>
<trkpt lat="-27.0810260" lon="152.7662908">
<ele>477.079</ele>
<time>2016-10-05T03:49:42.158Z</time>
</trkpt>
<trkpt lat="-27.0810625" lon="152.7656213">
<ele>478.895</ele>
<time>2016-10-05T03:49:45.060Z</time>
</trkpt>
<trkpt lat="-27.0811674" lon="152.7649525">
<ele>478.614</ele>
<time>2016-10-05T03:49:48.043Z</time>
</trkpt>
<trkpt lat="-27.0813951" lon="152.7643631">
<ele>477.300</ele>
<time>2016-10-05T03:49:50.922Z</time>
</trkpt>
<trkpt lat="-27.0816219" lon="152.7640291">
<ele>476.691</ele>
<time>2016-10-05T03:49:52.875Z</time>
</trkpt>
<trkpt lat="-27.0819802" lon="152.7635569">
<ele>477.325</ele>
<time>2016-10-05T03:49:55.822Z</time>
</trkpt>
<trkpt lat="-27.0822110" lon="152.7632144">
<ele>477.999</ele>
<time>2016-10-05T03:49:57.862Z</time>
</trkpt>
<trkpt lat="-27.0823763" lon="152.7628536">
<ele>477.387</ele>
<time>2016-10-05T03:49:59.797Z</time>
</trkpt>
<trkpt lat="-27.0824733" lon="152.7622125">
<ele>475.470</ele>
<time>2016-10-05T03:50:02.875Z</time>
</trkpt>
<trkpt lat="-27.0824019" lon="152.7617963">
<ele>473.135</ele>
<time>2016-10-05T03:50:04.840Z</time>
</trkpt>
<trkpt lat="-27.0823432" lon="152.7611815">
<ele>471.328</ele>
<time>2016-10-05T03:50:07.796Z</time>
</trkpt>
<trkpt lat="-27.0823889" lon="152.7608154">
<ele>470.367</ele>
<time>2016-10-05T03:50:09.671Z</time>
</trkpt>
<trkpt lat="-27.0827469" lon="152.7604011">
<ele>469.908</ele>
<time>2016-10-05T03:50:12.708Z</time>
</trkpt>
<trkpt lat="-27.0832437" lon="152.7601914">
<ele>469.627</ele>
<time>2016-10-05T03:50:15.807Z</time>
</trkpt>
<trkpt lat="-27.0835328" lon="152.7599981">
<ele>469.720</ele>
<time>2016-10-05T03:50:17.742Z</time>
</trkpt>
<trkpt lat="-27.0839390" lon="152.7595457">
<ele>470.570</ele>
<time>2016-10-05T03:50:20.875Z</time>
</trkpt>
<trkpt lat="-27.0842097" lon="152.7592124">
<ele>471.951</ele>
<time>2016-10-05T03:50:22.939Z</time>
</trkpt>
<trkpt lat="-27.0844707" lon="152.7588887">
<ele>473.226</ele>
<time>2016-10-05T03:50:24.937Z</time>
</trkpt>
<trkpt lat="-27.0847028" lon="152.7585812">
<ele>474.170</ele>
<time>2016-10-05T03:50:26.830Z</time>
</trkpt>
<trkpt lat="-27.0850842" lon="152.7581212">
<ele>475.042</ele>
<time>2016-10-05T03:50:29.804Z</time>
</trkpt>
<trkpt lat="-27.0854189" lon="152.7576078">
<ele>476.663</ele>
<time>2016-10-05T03:50:32.818Z</time>
</trkpt>
<trkpt lat="-27.0855844" lon="152.7571915">
<ele>479.217</ele>
<time>2016-10-05T03:50:34.949Z</time>
</trkpt>
<trkpt lat="-27.0857724" lon="152.7565666">
<ele>481.633</ele>
<time>2016-10-05T03:50:37.917Z</time>
</trkpt>
<trkpt lat="-27.0858686" lon="152.7561469">
<ele>483.001</ele>
<time>2016-10-05T03:50:39.836Z</time>
</trkpt>
<trkpt lat="-27.0860541" lon="152.7554831">
<ele>483.559</ele>
<time>2016-10-05T03:50:42.867Z</time>
</trkpt>
<trkpt lat="-27.0862169" lon="152.7550679">
<ele>483.740</ele>
<time>2016-10-05T03:50:44.817Z</time>
</trkpt>
<trkpt lat="-27.0865168" lon="152.7544851">
<ele>483.813</ele>
<time>2016-10-05T03:50:47.732Z</time>
</trkpt>
<trkpt lat="-27.0867139" lon="152.7540949">
<ele>483.969</ele>
<time>2016-10-05T03:50:49.680Z</time>
</trkpt>
<trkpt lat="-27.0869739" lon="152.7534701">
<ele>484.429</ele>
<time>2016-10-05T03:50:52.651Z</time>
</trkpt>
<trkpt lat="-27.0871033" lon="152.7530305">
<ele>485.561</ele>
<time>2016-10-05T03:50:54.634Z</time>
</trkpt>
<trkpt lat="-27.0872101" lon="152.7525618">
<ele>487.904</ele>
<time>2016-10-05T03:50:56.700Z</time>
</trkpt>
<trkpt lat="-27.0873742" lon="152.7518881">
<ele>491.466</ele>
<time>2016-10-05T03:50:59.708Z</time>
</trkpt>
<trkpt lat="-27.0874840" lon="152.7514556">
<ele>495.594</ele>
<time>2016-10-05T03:51:01.669Z</time>
</trkpt>
<trkpt lat="-27.0876720" lon="152.7507873">
<ele>499.683</ele>
<time>2016-10-05T03:51:04.713Z</time>
</trkpt>
<trkpt lat="-27.0878404" lon="152.7501133">
<ele>503.933</ele>
<time>2016-10-05T03:51:07.739Z</time>
</trkpt>
<trkpt lat="-27.0879942" lon="152.7494742">
<ele>508.874</ele>
<time>2016-10-05T03:51:10.639Z</time>
</trkpt>
<trkpt lat="-27.0880952" lon="152.7490560">
<ele>514.251</ele>
<time>2016-10-05T03:51:12.556Z</time>
</trkpt>
<trkpt lat="-27.0882367" lon="152.7486526">
<ele>519.337</ele>
<time>2016-10-05T03:51:14.483Z</time>
</trkpt>
<trkpt lat="-27.0885150" lon="152.7480345">
<ele>523.472</ele>
<time>2016-10-05T03:51:17.525Z</time>
</trkpt>
<trkpt lat="-27.0887863" lon="152.7476525">
<ele>526.333</ele>
<time>2016-10-05T03:51:19.605Z</time>
</trkpt>
<trkpt lat="-27.0892754" lon="152.7471991">
<ele>528.134</ele>
<time>2016-10-05T03:51:22.550Z</time>
</trkpt>
<trkpt lat="-27.0898400" lon="152.7468912">
<ele>529.112</ele>
<time>2016-10-05T03:51:25.469Z</time>
</trkpt>
<trkpt lat="-27.0902530" lon="152.7467831">
<ele>529.138</ele>
<time>2016-10-05T03:51:27.457Z</time>
</trkpt>
<trkpt lat="-27.0908868" lon="152.7467586">
<ele>528.052</ele>
<time>2016-10-05T03:51:30.436Z</time>
</trkpt>
<trkpt lat="-27.0915012" lon="152.7468999">
<ele>525.668</ele>
<time>2016-10-05T03:51:33.365Z</time>
</trkpt>
<trkpt lat="-27.0919027" lon="152.7470924">
<ele>521.940</ele>
<time>2016-10-05T03:51:35.396Z</time>
</trkpt>
<trkpt lat="-27.0924455" lon="152.7475116">
<ele>517.848</ele>
<time>2016-10-05T03:51:38.441Z</time>
</trkpt>
<trkpt lat="-27.0927663" lon="152.7478202">
<ele>514.571</ele>
<time>2016-10-05T03:51:40.394Z</time>
</trkpt>
<trkpt lat="-27.0930998" lon="152.7481102">
<ele>512.201</ele>
<time>2016-10-05T03:51:42.362Z</time>
</trkpt>
<trkpt lat="-27.0936471" lon="152.7484926">
<ele>510.349</ele>
<time>2016-10-05T03:51:45.374Z</time>
</trkpt>
<trkpt lat="-27.0940487" lon="152.7486759">
<ele>508.722</ele>
<time>2016-10-05T03:51:47.396Z</time>
</trkpt>
<trkpt lat="-27.0944562" lon="152.7488266">
<ele>507.198</ele>
<time>2016-10-05T03:51:49.406Z</time>
</trkpt>
<trkpt lat="-27.0951999" lon="152.7487676">
<ele>505.949</ele>
<time>2016-10-05T03:51:52.828Z</time>
</trkpt>
<trkpt lat="-27.0959665" lon="152.7485903">
<ele>504.841</ele>
<time>2016-10-05T03:51:56.139Z</time>
</trkpt>
<trkpt lat="-27.0964381" lon="152.7484840">
<ele>502.629</ele>
<time>2016-10-05T03:51:58.090Z</time>
</trkpt>
<trkpt lat="-27.0971140" lon="152.7483200">
<ele>498.459</ele>
<time>2016-10-05T03:52:00.935Z</time>
</trkpt>
<trkpt lat="-27.0977851" lon="152.7482371">
<ele>493.751</ele>
<time>2016-10-05T03:52:03.787Z</time>
</trkpt>
<trkpt lat="-27.0982356" lon="152.7482336">
<ele>490.546</ele>
<time>2016-10-05T03:52:05.728Z</time>
</trkpt>
<trkpt lat="-27.0987067" lon="152.7483060">
<ele>489.273</ele>
<time>2016-10-05T03:52:07.785Z</time>
</trkpt>
<trkpt lat="-27.0993946" lon="152.7485277">
<ele>489.473</ele>
<time>2016-10-05T03:52:10.823Z</time>
</trkpt>
<trkpt lat="-27.0998381" lon="152.7487609">
<ele>490.515</ele>
<time>2016-10-05T03:52:12.850Z</time>
</trkpt>
<trkpt lat="-27.1002420" lon="152.7490522">
<ele>491.672</ele>
<time>2016-10-05T03:52:14.824Z</time>
</trkpt>
<trkpt lat="-27.1006151" lon="152.7493914">
<ele>492.398</ele>
<time>2016-10-05T03:52:16.804Z</time>
</trkpt>
<trkpt lat="-27.1009559" lon="152.7497782">
<ele>492.582</ele>
<time>2016-10-05T03:52:18.801Z</time>
</trkpt>
<trkpt lat="-27.1014259" lon="152.7503763">
<ele>491.912</ele>
<time>2016-10-05T03:52:21.769Z</time>
</trkpt>
<trkpt lat="-27.1017634" lon="152.7506927">
<ele>490.000</ele>
<time>2016-10-05T03:52:23.677Z</time>
</trkpt>
<trkpt lat="-27.1021481" lon="152.7509298">
<ele>487.518</ele>
<time>2016-10-05T03:52:25.649Z</time>
</trkpt>
<trkpt lat="-27.1028189" lon="152.7511538">
<ele>486.307</ele>
<time>2016-10-05T03:52:28.754Z</time>
</trkpt>
<trkpt lat="-27.1034668" lon="152.7512899">
<ele>487.796</ele>
<time>2016-10-05T03:52:31.689Z</time>
</trkpt>
<trkpt lat="-27.1038437" lon="152.7513756">
<ele>491.124</ele>
<time>2016-10-05T03:52:33.523Z</time>
</trkpt>
<trkpt lat="-27.1042297" lon="152.7514283">
<ele>494.028</ele>
<time>2016-10-05T03:52:35.487Z</time>
</trkpt>
<trkpt lat="-27.1048573" lon="152.7513750">
<ele>495.455</ele>
<time>2016-10-05T03:52:38.618Z</time>
</trkpt>
<trkpt lat="-27.1055112" lon="152.7512536">
<ele>496.070</ele>
<time>2016-10-05T03:52:41.706Z</time>
</trkpt>
<trkpt lat="-27.1061479" lon="152.7511337">
<ele>496.962</ele>
<time>2016-10-05T03:52:44.666Z</time>
</trkpt>
<trkpt lat="-27.1067669" lon="152.7509794">
<ele>498.466</ele>
<time>2016-10-05T03:52:47.634Z</time>
</trkpt>
<trkpt lat="-27.1074043" lon="152.7508511">
<ele>500.048</ele>
<time>2016-10-05T03:52:50.669Z</time>
</trkpt>
<trkpt lat="-27.1080454" lon="152.7507240">
<ele>501.239</ele>
<time>2016-10-05T03:52:53.685Z</time>
</trkpt>
<trkpt lat="-27.1086836" lon="152.7505777">
<ele>502.033</ele>
<time>2016-10-05T03:52:56.686Z</time>
</trkpt>
<trkpt lat="-27.1093209" lon="152.7504738">
<ele>502.791</ele>
<time>2016-10-05T03:52:59.678Z</time>
</trkpt>
<trkpt lat="-27.1099709" lon="152.7504530">
<ele>503.658</ele>
<time>2016-10-05T03:53:02.663Z</time>
</trkpt>
<trkpt lat="-27.1106932" lon="152.7505375">
<ele>504.293</ele>
<time>2016-10-05T03:53:05.824Z</time>
</trkpt>
<trkpt lat="-27.1111601" lon="152.7506598">
<ele>504.454</ele>
<time>2016-10-05T03:53:07.830Z</time>
</trkpt>
<trkpt lat="-27.1116109" lon="152.7508267">
<ele>504.664</ele>
<time>2016-10-05T03:53:09.807Z</time>
</trkpt>
<trkpt lat="-27.1122415" lon="152.7511053">
<ele>505.379</ele>
<time>2016-10-05T03:53:12.686Z</time>
</trkpt>
<trkpt lat="-27.1126638" lon="152.7513503">
<ele>506.200</ele>
<time>2016-10-05T03:53:14.746Z</time>
</trkpt>
<trkpt lat="-27.1132059" lon="152.7516079">
<ele>506.604</ele>
<time>2016-10-05T03:53:17.437Z</time>
</trkpt>
<trkpt lat="-27.1138196" lon="152.7518747">
<ele>506.689</ele>
<time>2016-10-05T03:53:20.580Z</time>
</trkpt>
<trkpt lat="-27.1143977" lon="152.7521073">
<ele>506.750</ele>
<time>2016-10-05T03:53:23.562Z</time>
</trkpt>
<trkpt lat="-27.1147767" lon="152.7523200">
<ele>507.110</ele>
<time>2016-10-05T03:53:25.634Z</time>
</trkpt>
<trkpt lat="-27.1151556" lon="152.7525485">
<ele>507.766</ele>
<time>2016-10-05T03:53:27.684Z</time>
</trkpt>
<trkpt lat="-27.1156811" lon="152.7529694">
<ele>508.367</ele>
<time>2016-10-05T03:53:30.652Z</time>
</trkpt>
<trkpt lat="-27.1159789" lon="152.7533299">
<ele>508.646</ele>
<time>2016-10-05T03:53:32.627Z</time>
</trkpt>
<trkpt lat="-27.1162415" lon="152.7536956">
<ele>508.740</ele>
<time>2016-10-05T03:53:34.512Z</time>
</trkpt>
<trkpt lat="-27.1167416" lon="152.7541317">
<ele>508.831</ele>
<time>2016-10-05T03:53:37.440Z</time>
</trkpt>
<trkpt lat="-27.1172981" lon="152.7544805">
<ele>508.794</ele>
<time>2016-10-05T03:53:40.483Z</time>
</trkpt>
<trkpt lat="-27.1177403" lon="152.7546180">
<ele>508.307</ele>
<time>2016-10-05T03:53:42.660Z</time>
</trkpt>
<trkpt lat="-27.1183038" lon="152.7548310">
<ele>507.183</ele>
<time>2016-10-05T03:53:45.474Z</time>
</trkpt>
<trkpt lat="-27.1186956" lon="152.7549947">
<ele>505.313</ele>
<time>2016-10-05T03:53:47.479Z</time>
</trkpt>
<trkpt lat="-27.1192997" lon="152.7553293">
<ele>502.937</ele>
<time>2016-10-05T03:53:50.633Z</time>
</trkpt>
<trkpt lat="-27.1198837" lon="152.7557019">
<ele>500.636</ele>
<time>2016-10-05T03:53:53.695Z</time>
</trkpt>
<trkpt lat="-27.1202505" lon="152.7559635">
<ele>498.554</ele>
<time>2016-10-05T03:53:55.654Z</time>
</trkpt>
<trkpt lat="-27.1208156" lon="152.7563512">
<ele>496.635</ele>
<time>2016-10-05T03:53:58.608Z</time>
</trkpt>
<trkpt lat="-27.1213907" lon="152.7567447">
<ele>494.734</ele>
<time>2016-10-05T03:54:01.614Z</time>
</trkpt>
<trkpt lat="-27.1218697" lon="152.7571805">
<ele>492.363</ele>
<time>2016-10-05T03:54:04.400Z</time>
</trkpt>
<trkpt lat="-27.1223716" lon="152.7576858">
<ele>489.817</ele>
<time>2016-10-05T03:54:07.474Z</time>
</trkpt>
<trkpt lat="-27.1228827" lon="152.7582964">
<ele>488.629</ele>
<time>2016-10-05T03:54:10.734Z</time>
</trkpt>
<trkpt lat="-27.1230574" lon="152.7590427">
<ele>489.331</ele>
<time>2016-10-05T03:54:13.639Z</time>
</trkpt>
<trkpt lat="-27.1233025" lon="152.7597504">
<ele>490.669</ele>
<time>2016-10-05T03:54:16.585Z</time>
</trkpt>
<trkpt lat="-27.1234460" lon="152.7601986">
<ele>491.486</ele>
<time>2016-10-05T03:54:18.493Z</time>
</trkpt>
<trkpt lat="-27.1235964" lon="152.7606598">
<ele>491.743</ele>
<time>2016-10-05T03:54:20.498Z</time>
</trkpt>
<trkpt lat="-27.1237336" lon="152.7613712">
<ele>491.843</ele>
<time>2016-10-05T03:54:23.454Z</time>
</trkpt>
<trkpt lat="-27.1238570" lon="152.7621157">
<ele>492.074</ele>
<time>2016-10-05T03:54:26.479Z</time>
</trkpt>
<trkpt lat="-27.1239413" lon="152.7628579">
<ele>492.207</ele>
<time>2016-10-05T03:54:29.438Z</time>
</trkpt>
<trkpt lat="-27.1240579" lon="152.7636061">
<ele>491.507</ele>
<time>2016-10-05T03:54:32.453Z</time>
</trkpt>
<trkpt lat="-27.1241530" lon="152.7640908">
<ele>489.826</ele>
<time>2016-10-05T03:54:34.430Z</time>
</trkpt>
<trkpt lat="-27.1243134" lon="152.7645714">
<ele>487.894</ele>
<time>2016-10-05T03:54:36.468Z</time>
</trkpt>
<trkpt lat="-27.1246168" lon="152.7652254">
<ele>486.421</ele>
<time>2016-10-05T03:54:39.428Z</time>
</trkpt>
<trkpt lat="-27.1248745" lon="152.7655722">
<ele>485.639</ele>
<time>2016-10-05T03:54:41.313Z</time>
</trkpt>
<trkpt lat="-27.1253546" lon="152.7659588">
<ele>485.503</ele>
<time>2016-10-05T03:54:44.235Z</time>
</trkpt>
<trkpt lat="-27.1259993" lon="152.7661463">
<ele>485.683</ele>
<time>2016-10-05T03:54:47.533Z</time>
</trkpt>
<trkpt lat="-27.1265537" lon="152.7665184">
<ele>485.490</ele>
<time>2016-10-05T03:54:50.592Z</time>
</trkpt>
<trkpt lat="-27.1269107" lon="152.7667738">
<ele>484.205</ele>
<time>2016-10-05T03:54:52.563Z</time>
</trkpt>
<trkpt lat="-27.1273759" lon="152.7672144">
<ele>481.432</ele>
<time>2016-10-05T03:54:55.421Z</time>
</trkpt>
<trkpt lat="-27.1275043" lon="152.7676232">
<ele>477.344</ele>
<time>2016-10-05T03:54:57.277Z</time>
</trkpt>
<trkpt lat="-27.1275731" lon="152.7682454">
<ele>472.622</ele>
<time>2016-10-05T03:55:00.088Z</time>
</trkpt>
<trkpt lat="-27.1273928" lon="152.7685768">
<ele>467.933</ele>
<time>2016-10-05T03:55:01.912Z</time>
</trkpt>
<trkpt lat="-27.1271684" lon="152.7689259">
<ele>463.686</ele>
<time>2016-10-05T03:55:04.042Z</time>
</trkpt>
<trkpt lat="-27.1266500" lon="152.7691829">
<ele>460.233</ele>
<time>2016-10-05T03:55:07.140Z</time>
</trkpt>
<trkpt lat="-27.1262351" lon="152.7692295">
<ele>457.778</ele>
<time>2016-10-05T03:55:09.306Z</time>
</trkpt>
<trkpt lat="-27.1256397" lon="152.7693658">
<ele>456.396</ele>
<time>2016-10-05T03:55:12.365Z</time>
</trkpt>
<trkpt lat="-27.1251960" lon="152.7696972">
<ele>455.851</ele>
<time>2016-10-05T03:55:15.160Z</time>
</trkpt>
<trkpt lat="-27.1250415" lon="152.7701564">
<ele>455.913</ele>
<time>2016-10-05T03:55:17.495Z</time>
</trkpt>
<trkpt lat="-27.1249062" lon="152.7709297">
<ele>457.024</ele>
<time>2016-10-05T03:55:20.995Z</time>
</trkpt>
<trkpt lat="-27.1247335" lon="152.7713091">
<ele>459.175</ele>
<time>2016-10-05T03:55:22.858Z</time>
</trkpt>
<trkpt lat="-27.1244264" lon="152.7715624">
<ele>461.157</ele>
<time>2016-10-05T03:55:24.826Z</time>
</trkpt>
<trkpt lat="-27.1238791" lon="152.7719610">
<ele>462.069</ele>
<time>2016-10-05T03:55:27.991Z</time>
</trkpt>
<trkpt lat="-27.1234907" lon="152.7721895">
<ele>462.649</ele>
<time>2016-10-05T03:55:29.958Z</time>
</trkpt>
<trkpt lat="-27.1231556" lon="152.7725177">
<ele>463.678</ele>
<time>2016-10-05T03:55:31.939Z</time>
</trkpt>
<trkpt lat="-27.1227071" lon="152.7731007">
<ele>464.490</ele>
<time>2016-10-05T03:55:34.931Z</time>
</trkpt>
<trkpt lat="-27.1224163" lon="152.7735010">
<ele>464.309</ele>
<time>2016-10-05T03:55:36.899Z</time>
</trkpt>
<trkpt lat="-27.1219553" lon="152.7740667">
<ele>463.273</ele>
<time>2016-10-05T03:55:39.894Z</time>
</trkpt>
<trkpt lat="-27.1216494" lon="152.7743890">
<ele>461.635</ele>
<time>2016-10-05T03:55:41.804Z</time>
</trkpt>
<trkpt lat="-27.1211583" lon="152.7748588">
<ele>459.945</ele>
<time>2016-10-05T03:55:44.786Z</time>
</trkpt>
<trkpt lat="-27.1208213" lon="152.7751809">
<ele>459.190</ele>
<time>2016-10-05T03:55:46.814Z</time>
</trkpt>
<trkpt lat="-27.1204812" lon="152.7754854">
<ele>459.831</ele>
<time>2016-10-05T03:55:48.814Z</time>
</trkpt>
<trkpt lat="-27.1200983" lon="152.7760054">
<ele>461.241</ele>
<time>2016-10-05T03:55:51.674Z</time>
</trkpt>
<trkpt lat="-27.1198919" lon="152.7764204">
<ele>462.355</ele>
<time>2016-10-05T03:55:53.707Z</time>
</trkpt>
<trkpt lat="-27.1196443" lon="152.7771014">
<ele>462.665</ele>
<time>2016-10-05T03:55:56.779Z</time>
</trkpt>
<trkpt lat="-27.1194639" lon="152.7774951">
<ele>462.101</ele>
<time>2016-10-05T03:55:58.613Z</time>
</trkpt>
<trkpt lat="-27.1192528" lon="152.7778738">
<ele>460.687</ele>
<time>2016-10-05T03:56:00.487Z</time>
</trkpt>
<trkpt lat="-27.1189739" lon="152.7782432">
<ele>458.960</ele>
<time>2016-10-05T03:56:02.520Z</time>
</trkpt>
<trkpt lat="-27.1184904" lon="152.7787464">
<ele>457.755</ele>
<time>2016-10-05T03:56:05.566Z</time>
</trkpt>
<trkpt lat="-27.1181807" lon="152.7790791">
<ele>457.387</ele>
<time>2016-10-05T03:56:07.545Z</time>
</trkpt>
<trkpt lat="-27.1177216" lon="152.7795701">
<ele>457.651</ele>
<time>2016-10-05T03:56:10.475Z</time>
</trkpt>
<trkpt lat="-27.1171796" lon="152.7800589">
<ele>458.198</ele>
<time>2016-10-05T03:56:13.609Z</time>
</trkpt>
<trkpt lat="-27.1168296" lon="152.7803868">
<ele>458.638</ele>
<time>2016-10-05T03:56:15.637Z</time>
</trkpt>
<trkpt lat="-27.1164114" lon="152.7809753">
<ele>458.417</ele>
<time>2016-10-05T03:56:18.680Z</time>
</trkpt>
<trkpt lat="-27.1161148" lon="152.7816501">
<ele>456.895</ele>
<time>2016-10-05T03:56:21.725Z</time>
</trkpt>
<trkpt lat="-27.1159836" lon="152.7821378">
<ele>454.251</ele>
<time>2016-10-05T03:56:23.740Z</time>
</trkpt>
<trkpt lat="-27.1160471" lon="152.7826553">
<ele>451.746</ele>
<time>2016-10-05T03:56:25.803Z</time>
</trkpt>
<trkpt lat="-27.1161350" lon="152.7834269">
<ele>450.339</ele>
<time>2016-10-05T03:56:28.897Z</time>
</trkpt>
<trkpt lat="-27.1161759" lon="152.7839058">
<ele>449.668</ele>
<time>2016-10-05T03:56:30.859Z</time>
</trkpt>
<trkpt lat="-27.1162050" lon="152.7843714">
<ele>449.032</ele>
<time>2016-10-05T03:56:32.828Z</time>
</trkpt>
<trkpt lat="-27.1161940" lon="152.7849708">
<ele>448.651</ele>
<time>2016-10-05T03:56:35.521Z</time>
</trkpt>
<trkpt lat="-27.1161624" lon="152.7853803">
<ele>449.103</ele>
<time>2016-10-05T03:56:37.447Z</time>
</trkpt>
<trkpt lat="-27.1161626" lon="152.7858267">
<ele>450.471</ele>
<time>2016-10-05T03:56:39.516Z</time>
</trkpt>
<trkpt lat="-27.1162180" lon="152.7864888">
<ele>452.605</ele>
<time>2016-10-05T03:56:42.512Z</time>
</trkpt>
<trkpt lat="-27.1163975" lon="152.7871279">
<ele>455.285</ele>
<time>2016-10-05T03:56:45.488Z</time>
</trkpt>
<trkpt lat="-27.1166891" lon="152.7877056">
<ele>458.032</ele>
<time>2016-10-05T03:56:48.468Z</time>
</trkpt>
<trkpt lat="-27.1170383" lon="152.7881613">
<ele>460.129</ele>
<time>2016-10-05T03:56:51.309Z</time>
</trkpt>
<trkpt lat="-27.1174058" lon="152.7884729">
<ele>460.768</ele>
<time>2016-10-05T03:56:53.973Z</time>
</trkpt>
<trkpt lat="-27.1179167" lon="152.7886555">
<ele>459.353</ele>
<time>2016-10-05T03:56:57.292Z</time>
</trkpt>
<trkpt lat="-27.1182111" lon="152.7887930">
<ele>455.966</ele>
<time>2016-10-05T03:56:59.308Z</time>
</trkpt>
<trkpt lat="-27.1185684" lon="152.7890104">
<ele>451.840</ele>
<time>2016-10-05T03:57:01.994Z</time>
</trkpt>
<trkpt lat="-27.1187690" lon="152.7893483">
<ele>448.453</ele>
<time>2016-10-05T03:57:04.390Z</time>
</trkpt>
<trkpt lat="-27.1190920" lon="152.7898044">
<ele>446.072</ele>
<time>2016-10-05T03:57:07.544Z</time>
</trkpt>
<trkpt lat="-27.1193342" lon="152.7900666">
<ele>444.152</ele>
<time>2016-10-05T03:57:09.517Z</time>
</trkpt>
<trkpt lat="-27.1196230" lon="152.7905425">
<ele>442.650</ele>
<time>2016-10-05T03:57:12.502Z</time>
</trkpt>
<trkpt lat="-27.1197441" lon="152.7909562">
<ele>442.239</ele>
<time>2016-10-05T03:57:14.662Z</time>
</trkpt>
<trkpt lat="-27.1199920" lon="152.7915489">
<ele>443.441</ele>
<time>2016-10-05T03:57:17.736Z</time>
</trkpt>
<trkpt lat="-27.1202485" lon="152.7918862">
<ele>445.559</ele>
<time>2016-10-05T03:57:19.773Z</time>
</trkpt>
<trkpt lat="-27.1206902" lon="152.7923237">
<ele>447.263</ele>
<time>2016-10-05T03:57:22.789Z</time>
</trkpt>
<trkpt lat="-27.1210030" lon="152.7925378">
<ele>447.554</ele>
<time>2016-10-05T03:57:24.701Z</time>
</trkpt>
<trkpt lat="-27.1213581" lon="152.7927141">
<ele>446.378</ele>
<time>2016-10-05T03:57:26.755Z</time>
</trkpt>
<trkpt lat="-27.1219226" lon="152.7929698">
<ele>444.439</ele>
<time>2016-10-05T03:57:29.960Z</time>
</trkpt>
<trkpt lat="-27.1223870" lon="152.7933518">
<ele>442.393</ele>
<time>2016-10-05T03:57:32.866Z</time>
</trkpt>
<trkpt lat="-27.1226928" lon="152.7936776">
<ele>440.617</ele>
<time>2016-10-05T03:57:34.892Z</time>
</trkpt>
<trkpt lat="-27.1229632" lon="152.7940282">
<ele>439.442</ele>
<time>2016-10-05T03:57:36.863Z</time>
</trkpt>
<trkpt lat="-27.1231786" lon="152.7943791">
<ele>438.334</ele>
<time>2016-10-05T03:57:38.718Z</time>
</trkpt>
<trkpt lat="-27.1235110" lon="152.7948987">
<ele>436.681</ele>
<time>2016-10-05T03:57:41.655Z</time>
</trkpt>
<trkpt lat="-27.1238038" lon="152.7953536">
<ele>434.866</ele>
<time>2016-10-05T03:57:44.504Z</time>
</trkpt>
<trkpt lat="-27.1239278" lon="152.7956191">
<ele>432.798</ele>
<time>2016-10-05T03:57:46.202Z</time>
</trkpt>
<trkpt lat="-27.1238020" lon="152.7960100">
<ele>429.669</ele>
<time>2016-10-05T03:57:48.902Z</time>
</trkpt>
<trkpt lat="-27.1237263" lon="152.7964476">
<ele>426.258</ele>
<time>2016-10-05T03:57:51.942Z</time>
</trkpt>
<trkpt lat="-27.1238503" lon="152.7967858">
<ele>424.371</ele>
<time>2016-10-05T03:57:54.268Z</time>
</trkpt>
<trkpt lat="-27.1240432" lon="152.7970182">
<ele>424.372</ele>
<time>2016-10-05T03:57:56.120Z</time>
</trkpt>
<trkpt lat="-27.1243362" lon="152.7971957">
<ele>425.047</ele>
<time>2016-10-05T03:57:58.276Z</time>
</trkpt>
<trkpt lat="-27.1247651" lon="152.7975690">
<ele>425.234</ele>
<time>2016-10-05T03:58:01.659Z</time>
</trkpt>
<trkpt lat="-27.1249744" lon="152.7979070">
<ele>424.832</ele>
<time>2016-10-05T03:58:03.801Z</time>
</trkpt>
<trkpt lat="-27.1252291" lon="152.7984198">
<ele>424.261</ele>
<time>2016-10-05T03:58:06.818Z</time>
</trkpt>
<trkpt lat="-27.1254897" lon="152.7987851">
<ele>423.435</ele>
<time>2016-10-05T03:58:09.457Z</time>
</trkpt>
<trkpt lat="-27.1258949" lon="152.7989081">
<ele>422.157</ele>
<time>2016-10-05T03:58:12.363Z</time>
</trkpt>
<trkpt lat="-27.1260936" lon="152.7991142">
<ele>420.670</ele>
<time>2016-10-05T03:58:14.315Z</time>
</trkpt>
<trkpt lat="-27.1262502" lon="152.7996253">
<ele>419.120</ele>
<time>2016-10-05T03:58:17.631Z</time>
</trkpt>
<trkpt lat="-27.1263082" lon="152.7999878">
<ele>417.558</ele>
<time>2016-10-05T03:58:19.661Z</time>
</trkpt>
<trkpt lat="-27.1263287" lon="152.8003774">
<ele>416.199</ele>
<time>2016-10-05T03:58:21.719Z</time>
</trkpt>
<trkpt lat="-27.1262183" lon="152.8007042">
<ele>414.752</ele>
<time>2016-10-05T03:58:23.583Z</time>
</trkpt>
<trkpt lat="-27.1261796" lon="152.8010506">
<ele>412.732</ele>
<time>2016-10-05T03:58:25.481Z</time>
</trkpt>
<trkpt lat="-27.1263042" lon="152.8016221">
<ele>410.344</ele>
<time>2016-10-05T03:58:28.605Z</time>
</trkpt>
<trkpt lat="-27.1265211" lon="152.8019423">
<ele>408.354</ele>
<time>2016-10-05T03:58:30.662Z</time>
</trkpt>
<trkpt lat="-27.1269608" lon="152.8023279">
<ele>406.891</ele>
<time>2016-10-05T03:58:33.739Z</time>
</trkpt>
<trkpt lat="-27.1272986" lon="152.8025405">
<ele>405.446</ele>
<time>2016-10-05T03:58:35.805Z</time>
</trkpt>
<trkpt lat="-27.1278018" lon="152.8028073">
<ele>403.417</ele>
<time>2016-10-05T03:58:38.767Z</time>
</trkpt>
<trkpt lat="-27.1281046" lon="152.8029891">
<ele>400.498</ele>
<time>2016-10-05T03:58:40.644Z</time>
</trkpt>
<trkpt lat="-27.1283861" lon="152.8031690">
<ele>397.410</ele>
<time>2016-10-05T03:58:42.472Z</time>
</trkpt>
<trkpt lat="-27.1286989" lon="152.8035307">
<ele>395.360</ele>
<time>2016-10-05T03:58:45.093Z</time>
</trkpt>
<trkpt lat="-27.1289209" lon="152.8038738">
<ele>394.222</ele>
<time>2016-10-05T03:58:47.294Z</time>
</trkpt>
<trkpt lat="-27.1291383" lon="152.8042221">
<ele>393.038</ele>
<time>2016-10-05T03:58:49.422Z</time>
</trkpt>
<trkpt lat="-27.1293555" lon="152.8045519">
<ele>391.518</ele>
<time>2016-10-05T03:58:51.429Z</time>
</trkpt>
<trkpt lat="-27.1297474" lon="152.8049323">
<ele>390.026</ele>
<time>2016-10-05T03:58:54.353Z</time>
</trkpt>
<trkpt lat="-27.1300543" lon="152.8050861">
<ele>388.209</ele>
<time>2016-10-05T03:58:56.317Z</time>
</trkpt>
<trkpt lat="-27.1302881" lon="152.8053171">
<ele>385.721</ele>
<time>2016-10-05T03:58:58.206Z</time>
</trkpt>
<trkpt lat="-27.1305452" lon="152.8058127">
<ele>383.246</ele>
<time>2016-10-05T03:59:01.331Z</time>
</trkpt>
<trkpt lat="-27.1307448" lon="152.8063964">
<ele>381.350</ele>
<time>2016-10-05T03:59:04.551Z</time>
</trkpt>
<trkpt lat="-27.1309217" lon="152.8067277">
<ele>380.017</ele>
<time>2016-10-05T03:59:06.489Z</time>
</trkpt>
<trkpt lat="-27.1311578" lon="152.8069759">
<ele>379.413</ele>
<time>2016-10-05T03:59:08.370Z</time>
</trkpt>
<trkpt lat="-27.1314249" lon="152.8070959">
<ele>379.567</ele>
<time>2016-10-05T03:59:10.180Z</time>
</trkpt>
<trkpt lat="-27.1318544" lon="152.8070029">
<ele>380.278</ele>
<time>2016-10-05T03:59:13.159Z</time>
</trkpt>
<trkpt lat="-27.1321664" lon="152.8068931">
<ele>381.005</ele>
<time>2016-10-05T03:59:15.312Z</time>
</trkpt>
<trkpt lat="-27.1325143" lon="152.8068460">
<ele>381.215</ele>
<time>2016-10-05T03:59:17.428Z</time>
</trkpt>
<trkpt lat="-27.1329980" lon="152.8068055">
<ele>380.888</ele>
<time>2016-10-05T03:59:20.352Z</time>
</trkpt>
<trkpt lat="-27.1334965" lon="152.8069272">
<ele>380.282</ele>
<time>2016-10-05T03:59:23.550Z</time>
</trkpt>
<trkpt lat="-27.1337713" lon="152.8071271">
<ele>379.666</ele>
<time>2016-10-05T03:59:25.583Z</time>
</trkpt>
<trkpt lat="-27.1340549" lon="152.8073363">
<ele>379.565</ele>
<time>2016-10-05T03:59:27.617Z</time>
</trkpt>
<trkpt lat="-27.1343763" lon="152.8075374">
<ele>380.349</ele>
<time>2016-10-05T03:59:29.749Z</time>
</trkpt>
<trkpt lat="-27.1347038" lon="152.8076695">
<ele>381.948</ele>
<time>2016-10-05T03:59:31.738Z</time>
</trkpt>
<trkpt lat="-27.1352236" lon="152.8078217">
<ele>384.149</ele>
<time>2016-10-05T03:59:34.803Z</time>
</trkpt>
<trkpt lat="-27.1357313" lon="152.8079274">
<ele>387.090</ele>
<time>2016-10-05T03:59:37.746Z</time>
</trkpt>
<trkpt lat="-27.1362430" lon="152.8080436">
<ele>390.719</ele>
<time>2016-10-05T03:59:40.715Z</time>
</trkpt>
<trkpt lat="-27.1365820" lon="152.8081061">
<ele>394.580</ele>
<time>2016-10-05T03:59:42.666Z</time>
</trkpt>
<trkpt lat="-27.1370415" lon="152.8081221">
<ele>398.480</ele>
<time>2016-10-05T03:59:45.430Z</time>
</trkpt>
<trkpt lat="-27.1375165" lon="152.8080051">
<ele>401.995</ele>
<time>2016-10-05T03:59:48.464Z</time>
</trkpt>
<trkpt lat="-27.1378624" lon="152.8079219">
<ele>403.882</ele>
<time>2016-10-05T03:59:50.599Z</time>
</trkpt>
<trkpt lat="-27.1382152" lon="152.8079205">
<ele>403.374</ele>
<time>2016-10-05T03:59:52.635Z</time>
</trkpt>
<trkpt lat="-27.1387419" lon="152.8080731">
<ele>401.228</ele>
<time>2016-10-05T03:59:55.673Z</time>
</trkpt>
<trkpt lat="-27.1390471" lon="152.8082576">
<ele>398.467</ele>
<time>2016-10-05T03:59:57.592Z</time>
</trkpt>
<trkpt lat="-27.1393451" lon="152.8084314">
<ele>395.187</ele>
<time>2016-10-05T03:59:59.498Z</time>
</trkpt>
<trkpt lat="-27.1397656" lon="152.8086252">
<ele>391.354</ele>
<time>2016-10-05T04:00:02.256Z</time>
</trkpt>
<trkpt lat="-27.1400430" lon="152.8087374">
<ele>387.337</ele>
<time>2016-10-05T04:00:04.163Z</time>
</trkpt>
<trkpt lat="-27.1404101" lon="152.8089015">
<ele>383.615</ele>
<time>2016-10-05T04:00:06.960Z</time>
</trkpt>
<trkpt lat="-27.1406474" lon="152.8089504">
<ele>380.536</ele>
<time>2016-10-05T04:00:08.776Z</time>
</trkpt>
<trkpt lat="-27.1408574" lon="152.8089422">
<ele>378.210</ele>
<time>2016-10-05T04:00:10.473Z</time>
</trkpt>
<trkpt lat="-27.1411969" lon="152.8087588">
<ele>376.879</ele>
<time>2016-10-05T04:00:13.727Z</time>
</trkpt>
<trkpt lat="-27.1415436" lon="152.8087298">
<ele>376.020</ele>
<time>2016-10-05T04:00:16.750Z</time>
</trkpt>
<trkpt lat="-27.1417558" lon="152.8088346">
<ele>374.250</ele>
<time>2016-10-05T04:00:18.780Z</time>
</trkpt>
<trkpt lat="-27.1418847" lon="152.8090432">
<ele>371.360</ele>
<time>2016-10-05T04:00:20.802Z</time>
</trkpt>
<trkpt lat="-27.1419727" lon="152.8092810">
<ele>368.474</ele>
<time>2016-10-05T04:00:22.865Z</time>
</trkpt>
<trkpt lat="-27.1421887" lon="152.8095414">
<ele>366.417</ele>
<time>2016-10-05T04:00:25.757Z</time>
</trkpt>
<trkpt lat="-27.1424822" lon="152.8095767">
<ele>365.155</ele>
<time>2016-10-05T04:00:28.596Z</time>
</trkpt>
<trkpt lat="-27.1428102" lon="152.8096948">
<ele>364.196</ele>
<time>2016-10-05T04:00:31.892Z</time>
</trkpt>
<trkpt lat="-27.1429571" lon="152.8099386">
<ele>363.240</ele>
<time>2016-10-05T04:00:34.190Z</time>
</trkpt>
<trkpt lat="-27.1430696" lon="152.8103746">
<ele>362.329</ele>
<time>2016-10-05T04:00:37.375Z</time>
</trkpt>
<trkpt lat="-27.1432485" lon="152.8105749">
<ele>361.497</ele>
<time>2016-10-05T04:00:39.332Z</time>
</trkpt>
<trkpt lat="-27.1435678" lon="152.8105951">
<ele>360.752</ele>
<time>2016-10-05T04:00:42.001Z</time>
</trkpt>
<trkpt lat="-27.1438111" lon="152.8105878">
<ele>360.092</ele>
<time>2016-10-05T04:00:44.113Z</time>
</trkpt>
<trkpt lat="-27.1440385" lon="152.8107079">
<ele>359.387</ele>
<time>2016-10-05T04:00:46.256Z</time>
</trkpt>
<trkpt lat="-27.1443046" lon="152.8110863">
<ele>358.306</ele>
<time>2016-10-05T04:00:49.559Z</time>
</trkpt>
<trkpt lat="-27.1446875" lon="152.8114053">
<ele>356.702</ele>
<time>2016-10-05T04:00:52.775Z</time>
</trkpt>
<trkpt lat="-27.1450464" lon="152.8114988">
<ele>355.029</ele>
<time>2016-10-05T04:00:55.028Z</time>
</trkpt>
<trkpt lat="-27.1453850" lon="152.8115810">
<ele>353.804</ele>
<time>2016-10-05T04:00:57.020Z</time>
</trkpt>
<trkpt lat="-27.1458016" lon="152.8119365">
<ele>352.533</ele>
<time>2016-10-05T04:00:59.951Z</time>
</trkpt>
<trkpt lat="-27.1460754" lon="152.8122385">
<ele>350.410</ele>
<time>2016-10-05T04:01:02.041Z</time>
</trkpt>
<trkpt lat="-27.1464996" lon="152.8126191">
<ele>347.260</ele>
<time>2016-10-05T04:01:04.979Z</time>
</trkpt>
<trkpt lat="-27.1469394" lon="152.8129698">
<ele>343.410</ele>
<time>2016-10-05T04:01:07.911Z</time>
</trkpt>
<trkpt lat="-27.1472339" lon="152.8131995">
<ele>339.474</ele>
<time>2016-10-05T04:01:09.887Z</time>
</trkpt>
<trkpt lat="-27.1474703" lon="152.8134693">
<ele>336.335</ele>
<time>2016-10-05T04:01:11.817Z</time>
</trkpt>
<trkpt lat="-27.1476200" lon="152.8139975">
<ele>334.291</ele>
<time>2016-10-05T04:01:14.778Z</time>
</trkpt>
<trkpt lat="-27.1475695" lon="152.8145338">
<ele>333.025</ele>
<time>2016-10-05T04:01:17.724Z</time>
</trkpt>
<trkpt lat="-27.1475615" lon="152.8148843">
<ele>332.143</ele>
<time>2016-10-05T04:01:19.680Z</time>
</trkpt>
<trkpt lat="-27.1476960" lon="152.8153619">
<ele>330.971</ele>
<time>2016-10-05T04:01:22.610Z</time>
</trkpt>
<trkpt lat="-27.1479390" lon="152.8155804">
<ele>329.158</ele>
<time>2016-10-05T04:01:24.706Z</time>
</trkpt>
<trkpt lat="-27.1483946" lon="152.8157144">
<ele>327.153</ele>
<time>2016-10-05T04:01:27.797Z</time>
</trkpt>
<trkpt lat="-27.1486908" lon="152.8158336">
<ele>325.265</ele>
<time>2016-10-05T04:01:29.809Z</time>
</trkpt>
<trkpt lat="-27.1489882" lon="152.8161756">
<ele>323.489</ele>
<time>2016-10-05T04:01:32.603Z</time>
</trkpt>
<trkpt lat="-27.1491324" lon="152.8166941">
<ele>321.587</ele>
<time>2016-10-05T04:01:35.713Z</time>
</trkpt>
<trkpt lat="-27.1492176" lon="152.8170470">
<ele>319.339</ele>
<time>2016-10-05T04:01:37.706Z</time>
</trkpt>
<trkpt lat="-27.1494186" lon="152.8175263">
<ele>317.062</ele>
<time>2016-10-05T04:01:40.657Z</time>
</trkpt>
<trkpt lat="-27.1496489" lon="152.8177364">
<ele>314.536</ele>
<time>2016-10-05T04:01:42.605Z</time>
</trkpt>
<trkpt lat="-27.1499352" lon="152.8178795">
<ele>311.546</ele>
<time>2016-10-05T04:01:44.672Z</time>
</trkpt>
<trkpt lat="-27.1503983" lon="152.8180913">
<ele>309.048</ele>
<time>2016-10-05T04:01:47.828Z</time>
</trkpt>
<trkpt lat="-27.1506883" lon="152.8182188">
<ele>307.336</ele>
<time>2016-10-05T04:01:49.797Z</time>
</trkpt>
<trkpt lat="-27.1508835" lon="152.8184173">
<ele>305.487</ele>
<time>2016-10-05T04:01:51.576Z</time>
</trkpt>
<trkpt lat="-27.1509133" lon="152.8187060">
<ele>302.865</ele>
<time>2016-10-05T04:01:53.459Z</time>
</trkpt>
<trkpt lat="-27.1507952" lon="152.8191634">
<ele>299.879</ele>
<time>2016-10-05T04:01:56.547Z</time>
</trkpt>
<trkpt lat="-27.1508256" lon="152.8194903">
<ele>297.442</ele>
<time>2016-10-05T04:01:58.572Z</time>
</trkpt>
<trkpt lat="-27.1511556" lon="152.8199098">
<ele>295.966</ele>
<time>2016-10-05T04:02:01.737Z</time>
</trkpt>
<trkpt lat="-27.1514160" lon="152.8201527">
<ele>295.025</ele>
<time>2016-10-05T04:02:03.710Z</time>
</trkpt>
<trkpt lat="-27.1516251" lon="152.8204452">
<ele>293.820</ele>
<time>2016-10-05T04:02:05.666Z</time>
</trkpt>
<trkpt lat="-27.1517036" lon="152.8209820">
<ele>291.870</ele>
<time>2016-10-05T04:02:08.596Z</time>
</trkpt>
<trkpt lat="-27.1517069" lon="152.8215472">
<ele>289.423</ele>
<time>2016-10-05T04:02:11.604Z</time>
</trkpt>
<trkpt lat="-27.1517678" lon="152.8221223">
<ele>286.849</ele>
<time>2016-10-05T04:02:14.621Z</time>
</trkpt>
<trkpt lat="-27.1518283" lon="152.8226957">
<ele>284.073</ele>
<time>2016-10-05T04:02:17.644Z</time>
</trkpt>
<trkpt lat="-27.1518611" lon="152.8230554">
<ele>281.293</ele>
<time>2016-10-05T04:02:19.578Z</time>
</trkpt>
<trkpt lat="-27.1519792" lon="152.8235360">
<ele>278.793</ele>
<time>2016-10-05T04:02:22.408Z</time>
</trkpt>
<trkpt lat="-27.1523135" lon="152.8239076">
<ele>276.210</ele>
<time>2016-10-05T04:02:25.479Z</time>
</trkpt>
<trkpt lat="-27.1527442" lon="152.8242370">
<ele>273.339</ele>
<time>2016-10-05T04:02:28.659Z</time>
</trkpt>
<trkpt lat="-27.1530135" lon="152.8244489">
<ele>270.919</ele>
<time>2016-10-05T04:02:30.581Z</time>
</trkpt>
<trkpt lat="-27.1533220" lon="152.8248576">
<ele>269.159</ele>
<time>2016-10-05T04:02:33.494Z</time>
</trkpt>
<trkpt lat="-27.1535852" lon="152.8252421">
<ele>267.111</ele>
<time>2016-10-05T04:02:36.310Z</time>
</trkpt>
<trkpt lat="-27.1538012" lon="152.8256733">
<ele>263.894</ele>
<time>2016-10-05T04:02:39.335Z</time>
</trkpt>
<trkpt lat="-27.1539492" lon="152.8258998">
<ele>259.802</ele>
<time>2016-10-05T04:02:41.169Z</time>
</trkpt>
<trkpt lat="-27.1541532" lon="152.8260189">
<ele>255.570</ele>
<time>2016-10-05T04:02:43.006Z</time>
</trkpt>
<trkpt lat="-27.1544992" lon="152.8259935">
<ele>252.042</ele>
<time>2016-10-05T04:02:46.001Z</time>
</trkpt>
<trkpt lat="-27.1548829" lon="152.8256454">
<ele>250.019</ele>
<time>2016-10-05T04:02:49.872Z</time>
</trkpt>
<trkpt lat="-27.1553475" lon="152.8255611">
<ele>249.343</ele>
<time>2016-10-05T04:02:52.986Z</time>
</trkpt>
<trkpt lat="-27.1556500" lon="152.8255195">
<ele>248.891</ele>
<time>2016-10-05T04:02:54.998Z</time>
</trkpt>
<trkpt lat="-27.1559648" lon="152.8252347">
<ele>247.537</ele>
<time>2016-10-05T04:02:57.854Z</time>
</trkpt>
<trkpt lat="-27.1560850" lon="152.8249503">
<ele>244.625</ele>
<time>2016-10-05T04:02:59.938Z</time>
</trkpt>
<trkpt lat="-27.1563045" lon="152.8245997">
<ele>240.854</ele>
<time>2016-10-05T04:03:02.862Z</time>
</trkpt>
<trkpt lat="-27.1565465" lon="152.8245198">
<ele>237.494</ele>
<time>2016-10-05T04:03:04.889Z</time>
</trkpt>
<trkpt lat="-27.1569188" lon="152.8246427">
<ele>235.062</ele>
<time>2016-10-05T04:03:07.965Z</time>
</trkpt>
<trkpt lat="-27.1573131" lon="152.8246594">
<ele>232.420</ele>
<time>2016-10-05T04:03:10.904Z</time>
</trkpt>
<trkpt lat="-27.1577232" lon="152.8248513">
<ele>228.622</ele>
<time>2016-10-05T04:03:14.054Z</time>
</trkpt>
<trkpt lat="-27.1579707" lon="152.8249472">
<ele>224.570</ele>
<time>2016-10-05T04:03:15.933Z</time>
</trkpt>
<trkpt lat="-27.1582178" lon="152.8249003">
<ele>221.166</ele>
<time>2016-10-05T04:03:17.860Z</time>
</trkpt>
<trkpt lat="-27.1585821" lon="152.8248149">
<ele>218.419</ele>
<time>2016-10-05T04:03:20.829Z</time>
</trkpt>
<trkpt lat="-27.1587960" lon="152.8249398">
<ele>216.444</ele>
<time>2016-10-05T04:03:22.766Z</time>
</trkpt>
<trkpt lat="-27.1589733" lon="152.8251645">
<ele>214.847</ele>
<time>2016-10-05T04:03:24.907Z</time>
</trkpt>
<trkpt lat="-27.1591736" lon="152.8252741">
<ele>213.241</ele>
<time>2016-10-05T04:03:26.764Z</time>
</trkpt>
<trkpt lat="-27.1595678" lon="152.8251107">
<ele>211.353</ele>
<time>2016-10-05T04:03:30.027Z</time>
</trkpt>
<trkpt lat="-27.1598475" lon="152.8248874">
<ele>209.216</ele>
<time>2016-10-05T04:03:32.236Z</time>
</trkpt>
<trkpt lat="-27.1601974" lon="152.8245269">
<ele>207.552</ele>
<time>2016-10-05T04:03:35.183Z</time>
</trkpt>
<trkpt lat="-27.1604411" lon="152.8243538">
<ele>206.344</ele>
<time>2016-10-05T04:03:37.076Z</time>
</trkpt>
<trkpt lat="-27.1608631" lon="152.8242191">
<ele>204.579</ele>
<time>2016-10-05T04:03:40.074Z</time>
</trkpt>
<trkpt lat="-27.1611058" lon="152.8240597">
<ele>201.746</ele>
<time>2016-10-05T04:03:41.988Z</time>
</trkpt>
<trkpt lat="-27.1612391" lon="152.8238645">
<ele>198.531</ele>
<time>2016-10-05T04:03:43.561Z</time>
</trkpt>
<trkpt lat="-27.1615926" lon="152.8234175">
<ele>195.948</ele>
<time>2016-10-05T04:03:47.350Z</time>
</trkpt>
<trkpt lat="-27.1619939" lon="152.8231576">
<ele>194.042</ele>
<time>2016-10-05T04:03:50.433Z</time>
</trkpt>
<trkpt lat="-27.1624228" lon="152.8230089">
<ele>192.097</ele>
<time>2016-10-05T04:03:53.389Z</time>
</trkpt>
<trkpt lat="-27.1627356" lon="152.8231176">
<ele>189.544</ele>
<time>2016-10-05T04:03:55.494Z</time>
</trkpt>
<trkpt lat="-27.1632137" lon="152.8233857">
<ele>186.272</ele>
<time>2016-10-05T04:03:58.609Z</time>
</trkpt>
<trkpt lat="-27.1635057" lon="152.8236455">
<ele>183.045</ele>
<time>2016-10-05T04:04:00.575Z</time>
</trkpt>
<trkpt lat="-27.1639465" lon="152.8240902">
<ele>180.851</ele>
<time>2016-10-05T04:04:03.689Z</time>
</trkpt>
<trkpt lat="-27.1641920" lon="152.8243695">
<ele>179.059</ele>
<time>2016-10-05T04:04:05.701Z</time>
</trkpt>
<trkpt lat="-27.1643237" lon="152.8246478">
<ele>175.946</ele>
<time>2016-10-05T04:04:07.472Z</time>
</trkpt>
<trkpt lat="-27.1643234" lon="152.8249835">
<ele>171.657</ele>
<time>2016-10-05T04:04:09.385Z</time>
</trkpt>
<trkpt lat="-27.1641447" lon="152.8255508">
<ele>168.202</ele>
<time>2016-10-05T04:04:12.619Z</time>
</trkpt>
<trkpt lat="-27.1639483" lon="152.8260293">
<ele>166.602</ele>
<time>2016-10-05T04:04:15.509Z</time>
</trkpt>
<trkpt lat="-27.1638943" lon="152.8263132">
<ele>165.315</ele>
<time>2016-10-05T04:04:17.304Z</time>
</trkpt>
<trkpt lat="-27.1638661" lon="152.8265905">
<ele>162.567</ele>
<time>2016-10-05T04:04:19.196Z</time>
</trkpt>
<trkpt lat="-27.1643003" lon="152.8269015">
<ele>159.164</ele>
<time>2016-10-05T04:04:23.068Z</time>
</trkpt>
<trkpt lat="-27.1645667" lon="152.8270373">
<ele>156.816</ele>
<time>2016-10-05T04:04:25.053Z</time>
</trkpt>
<trkpt lat="-27.1648845" lon="152.8270975">
<ele>155.382</ele>
<time>2016-10-05T04:04:27.052Z</time>
</trkpt>
<trkpt lat="-27.1654704" lon="152.8270036">
<ele>153.993</ele>
<time>2016-10-05T04:04:30.473Z</time>
</trkpt>
<trkpt lat="-27.1660053" lon="152.8268405">
<ele>152.310</ele>
<time>2016-10-05T04:04:33.603Z</time>
</trkpt>
<trkpt lat="-27.1665178" lon="152.8267112">
<ele>150.184</ele>
<time>2016-10-05T04:04:36.636Z</time>
</trkpt>
<trkpt lat="-27.1670151" lon="152.8265891">
<ele>147.431</ele>
<time>2016-10-05T04:04:39.635Z</time>
</trkpt>
<trkpt lat="-27.1673484" lon="152.8265914">
<ele>144.211</ele>
<time>2016-10-05T04:04:41.599Z</time>
</trkpt>
<trkpt lat="-27.1678395" lon="152.8267570">
<ele>141.048</ele>
<time>2016-10-05T04:04:44.614Z</time>
</trkpt>
<trkpt lat="-27.1681197" lon="152.8269315">
<ele>138.315</ele>
<time>2016-10-05T04:04:46.592Z</time>
</trkpt>
<trkpt lat="-27.1685129" lon="152.8271741">
<ele>135.957</ele>
<time>2016-10-05T04:04:49.500Z</time>
</trkpt>
<trkpt lat="-27.1688256" lon="152.8271929">
<ele>133.597</ele>
<time>2016-10-05T04:04:51.657Z</time>
</trkpt>
<trkpt lat="-27.1692072" lon="152.8269985">
<ele>131.049</ele>
<time>2016-10-05T04:04:54.554Z</time>
</trkpt>
<trkpt lat="-27.1693640" lon="152.8265334">
<ele>128.746</ele>
<time>2016-10-05T04:04:57.543Z</time>
</trkpt>
<trkpt lat="-27.1694047" lon="152.8261987">
<ele>127.268</ele>
<time>2016-10-05T04:04:59.423Z</time>
</trkpt>
<trkpt lat="-27.1697263" lon="152.8257553">
<ele>126.172</ele>
<time>2016-10-05T04:05:02.442Z</time>
</trkpt>
<trkpt lat="-27.1701626" lon="152.8253876">
<ele>124.478</ele>
<time>2016-10-05T04:05:05.578Z</time>
</trkpt>
<trkpt lat="-27.1706083" lon="152.8251344">
<ele>122.120</ele>
<time>2016-10-05T04:05:08.517Z</time>
</trkpt>
<trkpt lat="-27.1709406" lon="152.8250819">
<ele>119.447</ele>
<time>2016-10-05T04:05:10.499Z</time>
</trkpt>
<trkpt lat="-27.1712976" lon="152.8251292">
<ele>116.562</ele>
<time>2016-10-05T04:05:12.633Z</time>
</trkpt>
<trkpt lat="-27.1717858" lon="152.8251968">
<ele>113.741</ele>
<time>2016-10-05T04:05:15.674Z</time>
</trkpt>
<trkpt lat="-27.1722271" lon="152.8251263">
<ele>111.209</ele>
<time>2016-10-05T04:05:18.526Z</time>
</trkpt>
<trkpt lat="-27.1726953" lon="152.8250082">
<ele>108.539</ele>
<time>2016-10-05T04:05:21.513Z</time>
</trkpt>
<trkpt lat="-27.1731995" lon="152.8250131">
<ele>105.276</ele>
<time>2016-10-05T04:05:24.582Z</time>
</trkpt>
<trkpt lat="-27.1736890" lon="152.8250700">
<ele>101.670</ele>
<time>2016-10-05T04:05:27.615Z</time>
</trkpt>
<trkpt lat="-27.1740172" lon="152.8250779">
<ele>98.255</ele>
<time>2016-10-05T04:05:29.621Z</time>
</trkpt>
<trkpt lat="-27.1743539" lon="152.8251538">
<ele>95.359</ele>
<time>2016-10-05T04:05:31.654Z</time>
</trkpt>
<trkpt lat="-27.1746630" lon="152.8253783">
<ele>93.436</ele>
<time>2016-10-05T04:05:33.759Z</time>
</trkpt>
<trkpt lat="-27.1750338" lon="152.8257978">
<ele>92.473</ele>
<time>2016-10-05T04:05:36.788Z</time>
</trkpt>
<trkpt lat="-27.1752742" lon="152.8260457">
<ele>91.440</ele>
<time>2016-10-05T04:05:38.726Z</time>
</trkpt>
<trkpt lat="-27.1757352" lon="152.8263095">
<ele>89.362</ele>
<time>2016-10-05T04:05:41.719Z</time>
</trkpt>
<trkpt lat="-27.1761027" lon="152.8263650">
<ele>86.814</ele>
<time>2016-10-05T04:05:43.763Z</time>
</trkpt>
<trkpt lat="-27.1764454" lon="152.8264596">
<ele>84.818</ele>
<time>2016-10-05T04:05:45.740Z</time>
</trkpt>
<trkpt lat="-27.1769405" lon="152.8265687">
<ele>83.529</ele>
<time>2016-10-05T04:05:48.585Z</time>
</trkpt>
<trkpt lat="-27.1774740" lon="152.8267156">
<ele>82.658</ele>
<time>2016-10-05T04:05:51.671Z</time>
</trkpt>
<trkpt lat="-27.1780118" lon="152.8268486">
<ele>82.010</ele>
<time>2016-10-05T04:05:54.745Z</time>
</trkpt>
<trkpt lat="-27.1785588" lon="152.8269601">
<ele>81.701</ele>
<time>2016-10-05T04:05:57.889Z</time>
</trkpt>
<trkpt lat="-27.1788879" lon="152.8270461">
<ele>81.885</ele>
<time>2016-10-05T04:05:59.827Z</time>
</trkpt>
<trkpt lat="-27.1792069" lon="152.8271447">
<ele>82.282</ele>
<time>2016-10-05T04:06:01.653Z</time>
</trkpt>
<trkpt lat="-27.1797602" lon="152.8272822">
<ele>82.541</ele>
<time>2016-10-05T04:06:04.718Z</time>
</trkpt>
<trkpt lat="-27.1801282" lon="152.8273819">
<ele>82.489</ele>
<time>2016-10-05T04:06:06.761Z</time>
</trkpt>
<trkpt lat="-27.1806551" lon="152.8275022">
<ele>81.947</ele>
<time>2016-10-05T04:06:09.708Z</time>
</trkpt>
<trkpt lat="-27.1810052" lon="152.8275582">
<ele>80.831</ele>
<time>2016-10-05T04:06:11.691Z</time>
</trkpt>
<trkpt lat="-27.1813418" lon="152.8275771">
<ele>79.179</ele>
<time>2016-10-05T04:06:13.543Z</time>
</trkpt>
<trkpt lat="-27.1817224" lon="152.8276117">
<ele>77.189</ele>
<time>2016-10-05T04:06:15.586Z</time>
</trkpt>
<trkpt lat="-27.1823034" lon="152.8277126">
<ele>75.195</ele>
<time>2016-10-05T04:06:18.713Z</time>
</trkpt>
<trkpt lat="-27.1826637" lon="152.8277961">
<ele>73.492</ele>
<time>2016-10-05T04:06:20.662Z</time>
</trkpt>
<trkpt lat="-27.1832041" lon="152.8279434">
<ele>72.188</ele>
<time>2016-10-05T04:06:23.625Z</time>
</trkpt>
<trkpt lat="-27.1835561" lon="152.8280537">
<ele>70.964</ele>
<time>2016-10-05T04:06:25.600Z</time>
</trkpt>
<trkpt lat="-27.1840413" lon="152.8283304">
<ele>69.357</ele>
<time>2016-10-05T04:06:28.529Z</time>
</trkpt>
<trkpt lat="-27.1843259" lon="152.8285857">
<ele>67.220</ele>
<time>2016-10-05T04:06:30.554Z</time>
</trkpt>
<trkpt lat="-27.1847551" lon="152.8289100">
<ele>64.795</ele>
<time>2016-10-05T04:06:33.550Z</time>
</trkpt>
<trkpt lat="-27.1850864" lon="152.8289695">
<ele>61.968</ele>
<time>2016-10-05T04:06:35.443Z</time>
</trkpt>
<trkpt lat="-27.1856336" lon="152.8287943">
<ele>58.858</ele>
<time>2016-10-05T04:06:38.442Z</time>
</trkpt>
<trkpt lat="-27.1859820" lon="152.8285410">
<ele>56.573</ele>
<time>2016-10-05T04:06:40.477Z</time>
</trkpt>
<trkpt lat="-27.1863358" lon="152.8283146">
<ele>55.870</ele>
<time>2016-10-05T04:06:42.531Z</time>
</trkpt>
<trkpt lat="-27.1866535" lon="152.8280944">
<ele>55.575</ele>
<time>2016-10-05T04:06:44.500Z</time>
</trkpt>
<trkpt lat="-27.1869707" lon="152.8278704">
<ele>54.389</ele>
<time>2016-10-05T04:06:46.534Z</time>
</trkpt>
<trkpt lat="-27.1872774" lon="152.8276515">
<ele>52.556</ele>
<time>2016-10-05T04:06:48.539Z</time>
</trkpt>
<trkpt lat="-27.1876802" lon="152.8272575">
<ele>51.150</ele>
<time>2016-10-05T04:06:51.524Z</time>
</trkpt>
<trkpt lat="-27.1880372" lon="152.8268345">
<ele>50.514</ele>
<time>2016-10-05T04:06:54.526Z</time>
</trkpt>
<trkpt lat="-27.1882954" lon="152.8266096">
<ele>50.297</ele>
<time>2016-10-05T04:06:56.546Z</time>
</trkpt>
<trkpt lat="-27.1885741" lon="152.8264592">
<ele>50.137</ele>
<time>2016-10-05T04:06:58.519Z</time>
</trkpt>
<trkpt lat="-27.1888773" lon="152.8263790">
<ele>49.970</ele>
<time>2016-10-05T04:07:00.491Z</time>
</trkpt>
<trkpt lat="-27.1893502" lon="152.8263716">
<ele>49.857</ele>
<time>2016-10-05T04:07:03.479Z</time>
</trkpt>
<trkpt lat="-27.1898131" lon="152.8264162">
<ele>49.816</ele>
<time>2016-10-05T04:07:06.448Z</time>
</trkpt>
<trkpt lat="-27.1901357" lon="152.8264231">
<ele>49.619</ele>
<time>2016-10-05T04:07:08.536Z</time>
</trkpt>
<trkpt lat="-27.1905745" lon="152.8264566">
<ele>49.094</ele>
<time>2016-10-05T04:07:11.394Z</time>
</trkpt>
<trkpt lat="-27.1909043" lon="152.8264930">
<ele>48.409</ele>
<time>2016-10-05T04:07:13.549Z</time>
</trkpt>
<trkpt lat="-27.1912244" lon="152.8265264">
<ele>47.728</ele>
<time>2016-10-05T04:07:15.635Z</time>
</trkpt>
<trkpt lat="-27.1916774" lon="152.8265881">
<ele>47.081</ele>
<time>2016-10-05T04:07:18.608Z</time>
</trkpt>
<trkpt lat="-27.1919516" lon="152.8265986">
<ele>46.503</ele>
<time>2016-10-05T04:07:20.412Z</time>
</trkpt>
<trkpt lat="-27.1922655" lon="152.8266373">
<ele>45.930</ele>
<time>2016-10-05T04:07:22.486Z</time>
</trkpt>
<trkpt lat="-27.1925768" lon="152.8266716">
<ele>45.301</ele>
<time>2016-10-05T04:07:24.544Z</time>
</trkpt>
<trkpt lat="-27.1930125" lon="152.8266602">
<ele>44.793</ele>
<time>2016-10-05T04:07:27.413Z</time>
</trkpt>
<trkpt lat="-27.1934454" lon="152.8265548">
<ele>44.551</ele>
<time>2016-10-05T04:07:30.317Z</time>
</trkpt>
<trkpt lat="-27.1939195" lon="152.8264329">
<ele>44.388</ele>
<time>2016-10-05T04:07:33.470Z</time>
</trkpt>
<trkpt lat="-27.1942348" lon="152.8263349">
<ele>44.126</ele>
<time>2016-10-05T04:07:35.574Z</time>
</trkpt>
<trkpt lat="-27.1945318" lon="152.8262158">
<ele>43.881</ele>
<time>2016-10-05T04:07:37.666Z</time>
</trkpt>
<trkpt lat="-27.1949663" lon="152.8261018">
<ele>43.754</ele>
<time>2016-10-05T04:07:40.882Z</time>
</trkpt>
<trkpt lat="-27.1953207" lon="152.8260153">
<ele>43.627</ele>
<time>2016-10-05T04:07:44.003Z</time>
</trkpt>
<trkpt lat="-27.1956011" lon="152.8259798">
<ele>43.330</ele>
<time>2016-10-05T04:07:47.173Z</time>
</trkpt>
<trkpt lat="-27.1957856" lon="152.8260622">
<ele>42.522</ele>
<time>2016-10-05T04:07:50.002Z</time>
</trkpt>
<trkpt lat="-27.1958288" lon="152.8261974">
<ele>40.912</ele>
<time>2016-10-05T04:07:51.555Z</time>
</trkpt>
<trkpt lat="-27.1958403" lon="152.8264151">
<ele>39.042</ele>
<time>2016-10-05T04:07:53.359Z</time>
</trkpt>
<trkpt lat="-27.1958128" lon="152.8268530">
<ele>38.061</ele>
<time>2016-10-05T04:07:56.403Z</time>
</trkpt>
<trkpt lat="-27.1957435" lon="152.8273447">
<ele>38.539</ele>
<time>2016-10-05T04:07:59.334Z</time>
</trkpt>
<trkpt lat="-27.1955378" lon="152.8278633">
<ele>40.253</ele>
<time>2016-10-05T04:08:02.331Z</time>
</trkpt>
<trkpt lat="-27.1952090" lon="152.8283489">
<ele>42.974</ele>
<time>2016-10-05T04:08:05.318Z</time>
</trkpt>
<trkpt lat="-27.1949565" lon="152.8286742">
<ele>46.498</ele>
<time>2016-10-05T04:08:07.400Z</time>
</trkpt>
<trkpt lat="-27.1947216" lon="152.8289856">
<ele>49.799</ele>
<time>2016-10-05T04:08:09.464Z</time>
</trkpt>
<trkpt lat="-27.1945160" lon="152.8292572">
<ele>51.655</ele>
<time>2016-10-05T04:08:11.403Z</time>
</trkpt>
<trkpt lat="-27.1943120" lon="152.8295222">
<ele>51.898</ele>
<time>2016-10-05T04:08:13.396Z</time>
</trkpt>
<trkpt lat="-27.1940597" lon="152.8299631">
<ele>51.070</ele>
<time>2016-10-05T04:08:16.396Z</time>
</trkpt>
<trkpt lat="-27.1939038" lon="152.8302478">
<ele>49.890</ele>
<time>2016-10-05T04:08:18.277Z</time>
</trkpt>
<trkpt lat="-27.1937750" lon="152.8305776">
<ele>49.069</ele>
<time>2016-10-05T04:08:20.249Z</time>
</trkpt>
<trkpt lat="-27.1936251" lon="152.8311063">
<ele>49.006</ele>
<time>2016-10-05T04:08:23.191Z</time>
</trkpt>
<trkpt lat="-27.1935072" lon="152.8316824">
<ele>49.968</ele>
<time>2016-10-05T04:08:26.175Z</time>
</trkpt>
<trkpt lat="-27.1934651" lon="152.8323035">
<ele>52.403</ele>
<time>2016-10-05T04:08:29.189Z</time>
</trkpt>
<trkpt lat="-27.1934742" lon="152.8327236">
<ele>56.392</ele>
<time>2016-10-05T04:08:31.173Z</time>
</trkpt>
<trkpt lat="-27.1935164" lon="152.8333561">
<ele>60.679</ele>
<time>2016-10-05T04:08:34.186Z</time>
</trkpt>
<trkpt lat="-27.1935839" lon="152.8339543">
<ele>63.565</ele>
<time>2016-10-05T04:08:37.225Z</time>
</trkpt>
<trkpt lat="-27.1936196" lon="152.8342847">
<ele>64.694</ele>
<time>2016-10-05T04:08:39.462Z</time>
</trkpt>
<trkpt lat="-27.1936297" lon="152.8345883">
<ele>64.582</ele>
<time>2016-10-05T04:08:43.035Z</time>
</trkpt>
<trkpt lat="-27.1936227" lon="152.8346894">
<ele>63.355</ele>
<time>2016-10-05T04:08:44.997Z</time>
</trkpt>
<trkpt lat="-27.1936227" lon="152.8346894">
<ele>61.469</ele>
<time>2016-10-05T04:08:46.997Z</time>
</trkpt>
<trkpt lat="-27.1936227" lon="152.8346894">
<ele>60.219</ele>
<time>2016-10-05T04:09:03.291Z</time>
</trkpt>
<trkpt lat="-27.1935984" lon="152.8348412">
<ele>60.255</ele>
<time>2016-10-05T04:09:06.937Z</time>
</trkpt>
<trkpt lat="-27.1936307" lon="152.8350589">
<ele>60.875</ele>
<time>2016-10-05T04:09:09.034Z</time>
</trkpt>
<trkpt lat="-27.1936849" lon="152.8355218">
<ele>61.340</ele>
<time>2016-10-05T04:09:12.391Z</time>
</trkpt>
<trkpt lat="-27.1937341" lon="152.8359327">
<ele>61.855</ele>
<time>2016-10-05T04:09:15.000Z</time>
</trkpt>
<trkpt lat="-27.1938252" lon="152.8366628">
<ele>63.194</ele>
<time>2016-10-05T04:09:18.928Z</time>
</trkpt>
<trkpt lat="-27.1938838" lon="152.8371768">
<ele>65.259</ele>
<time>2016-10-05T04:09:21.234Z</time>
</trkpt>
<trkpt lat="-27.1940076" lon="152.8379537">
<ele>66.529</ele>
<time>2016-10-05T04:09:24.263Z</time>
</trkpt>
<trkpt lat="-27.1942557" lon="152.8387322">
<ele>66.085</ele>
<time>2016-10-05T04:09:27.190Z</time>
</trkpt>
<trkpt lat="-27.1946292" lon="152.8394890">
<ele>64.698</ele>
<time>2016-10-05T04:09:30.131Z</time>
</trkpt>
<trkpt lat="-27.1949863" lon="152.8399414">
<ele>63.475</ele>
<time>2016-10-05T04:09:32.146Z</time>
</trkpt>
<trkpt lat="-27.1954034" lon="152.8403463">
<ele>62.907</ele>
<time>2016-10-05T04:09:34.200Z</time>
</trkpt>
<trkpt lat="-27.1960212" lon="152.8408953">
<ele>63.252</ele>
<time>2016-10-05T04:09:37.048Z</time>
</trkpt>
<trkpt lat="-27.1966880" lon="152.8414883">
<ele>64.619</ele>
<time>2016-10-05T04:09:39.939Z</time>
</trkpt>
<trkpt lat="-27.1971510" lon="152.8419096">
<ele>66.800</ele>
<time>2016-10-05T04:09:41.955Z</time>
</trkpt>
<trkpt lat="-27.1976129" lon="152.8423235">
<ele>69.294</ele>
<time>2016-10-05T04:09:43.962Z</time>
</trkpt>
<trkpt lat="-27.1983053" lon="152.8429261">
<ele>71.690</ele>
<time>2016-10-05T04:09:46.991Z</time>
</trkpt>
<trkpt lat="-27.1989705" lon="152.8435323">
<ele>73.800</ele>
<time>2016-10-05T04:09:49.998Z</time>
</trkpt>
<trkpt lat="-27.1995972" lon="152.8441824">
<ele>75.667</ele>
<time>2016-10-05T04:09:52.859Z</time>
</trkpt>
<trkpt lat="-27.2002139" lon="152.8449551">
<ele>77.622</ele>
<time>2016-10-05T04:09:55.729Z</time>
</trkpt>
<trkpt lat="-27.2005926" lon="152.8455643">
<ele>80.236</ele>
<time>2016-10-05T04:09:57.750Z</time>
</trkpt>
<trkpt lat="-27.2009348" lon="152.8462097">
<ele>83.876</ele>
<time>2016-10-05T04:09:59.877Z</time>
</trkpt>
<trkpt lat="-27.2012207" lon="152.8468276">
<ele>88.508</ele>
<time>2016-10-05T04:10:01.917Z</time>
</trkpt>
<trkpt lat="-27.2015450" lon="152.8477510">
<ele>93.050</ele>
<time>2016-10-05T04:10:04.938Z</time>
</trkpt>
<trkpt lat="-27.2016961" lon="152.8483651">
<ele>94.324</ele>
<time>2016-10-05T04:10:06.874Z</time>
</trkpt>
<trkpt lat="-27.2018637" lon="152.8493304">
<ele>91.062</ele>
<time>2016-10-05T04:10:09.764Z</time>
</trkpt>
<trkpt lat="-27.2019115" lon="152.8500100">
<ele>89.492</ele>
<time>2016-10-05T04:10:11.737Z</time>
</trkpt>
<trkpt lat="-27.2019216" lon="152.8510478">
<ele>94.478</ele>
<time>2016-10-05T04:10:14.742Z</time>
</trkpt>
<trkpt lat="-27.2019333" lon="152.8517360">
<ele>100.189</ele>
<time>2016-10-05T04:10:16.747Z</time>
</trkpt>
<trkpt lat="-27.2019298" lon="152.8524090">
<ele>100.009</ele>
<time>2016-10-05T04:10:18.705Z</time>
</trkpt>
<trkpt lat="-27.2019901" lon="152.8534228">
<ele>95.781</ele>
<time>2016-10-05T04:10:21.562Z</time>
</trkpt>
<trkpt lat="-27.2021562" lon="152.8541235">
<ele>89.642</ele>
<time>2016-10-05T04:10:23.519Z</time>
</trkpt>
<trkpt lat="-27.2023926" lon="152.8548097">
<ele>81.191</ele>
<time>2016-10-05T04:10:25.477Z</time>
</trkpt>
<trkpt lat="-27.2026822" lon="152.8554818">
<ele>73.060</ele>
<time>2016-10-05T04:10:27.467Z</time>
</trkpt>
<trkpt lat="-27.2032764" lon="152.8563897">
<ele>67.726</ele>
<time>2016-10-05T04:10:30.411Z</time>
</trkpt>
<trkpt lat="-27.2037704" lon="152.8569423">
<ele>63.769</ele>
<time>2016-10-05T04:10:32.381Z</time>
</trkpt>
<trkpt lat="-27.2043394" lon="152.8574374">
<ele>60.360</ele>
<time>2016-10-05T04:10:34.377Z</time>
</trkpt>
<trkpt lat="-27.2052238" lon="152.8581523">
<ele>57.950</ele>
<time>2016-10-05T04:10:37.462Z</time>
</trkpt>
<trkpt lat="-27.2057760" lon="152.8586100">
<ele>56.483</ele>
<time>2016-10-05T04:10:39.522Z</time>
</trkpt>
<trkpt lat="-27.2065193" lon="152.8592962">
<ele>55.479</ele>
<time>2016-10-05T04:10:42.652Z</time>
</trkpt>
<trkpt lat="-27.2071007" lon="152.8600459">
<ele>54.548</ele>
<time>2016-10-05T04:10:45.778Z</time>
</trkpt>
<trkpt lat="-27.2073916" lon="152.8605828">
<ele>52.653</ele>
<time>2016-10-05T04:10:47.820Z</time>
</trkpt>
<trkpt lat="-27.2076922" lon="152.8614254">
<ele>48.666</ele>
<time>2016-10-05T04:10:51.029Z</time>
</trkpt>
<trkpt lat="-27.2078063" lon="152.8619502">
<ele>43.820</ele>
<time>2016-10-05T04:10:53.085Z</time>
</trkpt>
<trkpt lat="-27.2078829" lon="152.8626713">
<ele>40.039</ele>
<time>2016-10-05T04:10:55.970Z</time>
</trkpt>
<trkpt lat="-27.2078969" lon="152.8631582">
<ele>37.513</ele>
<time>2016-10-05T04:10:57.862Z</time>
</trkpt>
<trkpt lat="-27.2079101" lon="152.8639430">
<ele>36.339</ele>
<time>2016-10-05T04:11:00.740Z</time>
</trkpt>
<trkpt lat="-27.2078791" lon="152.8644788">
<ele>37.242</ele>
<time>2016-10-05T04:11:02.654Z</time>
</trkpt>
<trkpt lat="-27.2078558" lon="152.8653280">
<ele>40.283</ele>
<time>2016-10-05T04:11:05.605Z</time>
</trkpt>
<trkpt lat="-27.2077986" lon="152.8659059">
<ele>44.519</ele>
<time>2016-10-05T04:11:07.593Z</time>
</trkpt>
<trkpt lat="-27.2076923" lon="152.8667905">
<ele>48.608</ele>
<time>2016-10-05T04:11:10.714Z</time>
</trkpt>
<trkpt lat="-27.2075868" lon="152.8673489">
<ele>51.606</ele>
<time>2016-10-05T04:11:12.777Z</time>
</trkpt>
<trkpt lat="-27.2073935" lon="152.8681186">
<ele>53.381</ele>
<time>2016-10-05T04:11:15.744Z</time>
</trkpt>
<trkpt lat="-27.2071925" lon="152.8688864">
<ele>54.761</ele>
<time>2016-10-05T04:11:18.749Z</time>
</trkpt>
<trkpt lat="-27.2069945" lon="152.8696463">
<ele>57.071</ele>
<time>2016-10-05T04:11:21.722Z</time>
</trkpt>
<trkpt lat="-27.2068191" lon="152.8704185">
<ele>60.536</ele>
<time>2016-10-05T04:11:24.644Z</time>
</trkpt>
<trkpt lat="-27.2067206" lon="152.8712448">
<ele>64.211</ele>
<time>2016-10-05T04:11:27.580Z</time>
</trkpt>
<trkpt lat="-27.2067181" lon="152.8718130">
<ele>67.504</ele>
<time>2016-10-05T04:11:29.536Z</time>
</trkpt>
<trkpt lat="-27.2067523" lon="152.8723837">
<ele>70.050</ele>
<time>2016-10-05T04:11:31.501Z</time>
</trkpt>
<trkpt lat="-27.2068845" lon="152.8732268">
<ele>71.306</ele>
<time>2016-10-05T04:11:34.444Z</time>
</trkpt>
<trkpt lat="-27.2070465" lon="152.8737851">
<ele>70.644</ele>
<time>2016-10-05T04:11:36.483Z</time>
</trkpt>
<trkpt lat="-27.2072523" lon="152.8743168">
<ele>67.894</ele>
<time>2016-10-05T04:11:38.547Z</time>
</trkpt>
<trkpt lat="-27.2075956" lon="152.8750316">
<ele>63.941</ele>
<time>2016-10-05T04:11:41.566Z</time>
</trkpt>
<trkpt lat="-27.2080074" lon="152.8756650">
<ele>59.957</ele>
<time>2016-10-05T04:11:44.533Z</time>
</trkpt>
<trkpt lat="-27.2085044" lon="152.8762242">
<ele>56.249</ele>
<time>2016-10-05T04:11:47.481Z</time>
</trkpt>
<trkpt lat="-27.2088776" lon="152.8765604">
<ele>53.068</ele>
<time>2016-10-05T04:11:49.471Z</time>
</trkpt>
<trkpt lat="-27.2094610" lon="152.8770287">
<ele>51.052</ele>
<time>2016-10-05T04:11:52.489Z</time>
</trkpt>
<trkpt lat="-27.2100420" lon="152.8774723">
<ele>50.298</ele>
<time>2016-10-05T04:11:55.429Z</time>
</trkpt>
<trkpt lat="-27.2104541" lon="152.8777766">
<ele>50.038</ele>
<time>2016-10-05T04:11:57.431Z</time>
</trkpt>
<trkpt lat="-27.2110871" lon="152.8782648">
<ele>49.765</ele>
<time>2016-10-05T04:12:00.473Z</time>
</trkpt>
<trkpt lat="-27.2115149" lon="152.8785853">
<ele>49.359</ele>
<time>2016-10-05T04:12:02.479Z</time>
</trkpt>
<trkpt lat="-27.2119499" lon="152.8789005">
<ele>48.318</ele>
<time>2016-10-05T04:12:04.515Z</time>
</trkpt>
<trkpt lat="-27.2123542" lon="152.8792020">
<ele>46.411</ele>
<time>2016-10-05T04:12:06.461Z</time>
</trkpt>
<trkpt lat="-27.2129410" lon="152.8797026">
<ele>44.075</ele>
<time>2016-10-05T04:12:09.487Z</time>
</trkpt>
<trkpt lat="-27.2134611" lon="152.8802652">
<ele>41.537</ele>
<time>2016-10-05T04:12:12.486Z</time>
</trkpt>
<trkpt lat="-27.2139011" lon="152.8809078">
<ele>39.132</ele>
<time>2016-10-05T04:12:15.440Z</time>
</trkpt>
<trkpt lat="-27.2141581" lon="152.8813704">
<ele>38.414</ele>
<time>2016-10-05T04:12:17.383Z</time>
</trkpt>
<trkpt lat="-27.2144597" lon="152.8821355">
<ele>40.086</ele>
<time>2016-10-05T04:12:20.391Z</time>
</trkpt>
<trkpt lat="-27.2147514" lon="152.8828873">
<ele>43.547</ele>
<time>2016-10-05T04:12:23.429Z</time>
</trkpt>
<trkpt lat="-27.2150157" lon="152.8836264">
<ele>47.695</ele>
<time>2016-10-05T04:12:26.432Z</time>
</trkpt>
<trkpt lat="-27.2152713" lon="152.8843536">
<ele>51.218</ele>
<time>2016-10-05T04:12:29.380Z</time>
</trkpt>
<trkpt lat="-27.2154423" lon="152.8848492">
<ele>53.573</ele>
<time>2016-10-05T04:12:31.388Z</time>
</trkpt>
<trkpt lat="-27.2156839" lon="152.8855781">
<ele>55.201</ele>
<time>2016-10-05T04:12:34.302Z</time>
</trkpt>
<trkpt lat="-27.2158728" lon="152.8860938">
<ele>56.485</ele>
<time>2016-10-05T04:12:36.347Z</time>
</trkpt>
<trkpt lat="-27.2160471" lon="152.8866028">
<ele>57.684</ele>
<time>2016-10-05T04:12:38.333Z</time>
</trkpt>
<trkpt lat="-27.2162246" lon="152.8871022">
<ele>58.590</ele>
<time>2016-10-05T04:12:40.283Z</time>
</trkpt>
<trkpt lat="-27.2164061" lon="152.8876101">
<ele>58.683</ele>
<time>2016-10-05T04:12:42.253Z</time>
</trkpt>
<trkpt lat="-27.2166836" lon="152.8883785">
<ele>57.630</ele>
<time>2016-10-05T04:12:45.205Z</time>
</trkpt>
<trkpt lat="-27.2168823" lon="152.8889107">
<ele>55.295</ele>
<time>2016-10-05T04:12:47.239Z</time>
</trkpt>
<trkpt lat="-27.2171546" lon="152.8897041">
<ele>52.323</ele>
<time>2016-10-05T04:12:50.220Z</time>
</trkpt>
<trkpt lat="-27.2173516" lon="152.8902321">
<ele>49.967</ele>
<time>2016-10-05T04:12:52.199Z</time>
</trkpt>
<trkpt lat="-27.2176545" lon="152.8910395">
<ele>48.914</ele>
<time>2016-10-05T04:12:55.178Z</time>
</trkpt>
<trkpt lat="-27.2178539" lon="152.8915861">
<ele>49.663</ele>
<time>2016-10-05T04:12:57.151Z</time>
</trkpt>
<trkpt lat="-27.2181483" lon="152.8924177">
<ele>52.377</ele>
<time>2016-10-05T04:13:00.147Z</time>
</trkpt>
<trkpt lat="-27.2183544" lon="152.8929637">
<ele>56.455</ele>
<time>2016-10-05T04:13:02.148Z</time>
</trkpt>
<trkpt lat="-27.2185809" lon="152.8934963">
<ele>61.159</ele>
<time>2016-10-05T04:13:04.138Z</time>
</trkpt>
<trkpt lat="-27.2189443" lon="152.8942823">
<ele>65.432</ele>
<time>2016-10-05T04:13:07.117Z</time>
</trkpt>
<trkpt lat="-27.2192071" lon="152.8947962">
<ele>68.214</ele>
<time>2016-10-05T04:13:09.130Z</time>
</trkpt>
<trkpt lat="-27.2194688" lon="152.8952624">
<ele>69.591</ele>
<time>2016-10-05T04:13:11.027Z</time>
</trkpt>
<trkpt lat="-27.2199273" lon="152.8959654">
<ele>70.016</ele>
<time>2016-10-05T04:13:14.037Z</time>
</trkpt>
<trkpt lat="-27.2202238" lon="152.8964152">
<ele>69.219</ele>
<time>2016-10-05T04:13:15.995Z</time>
</trkpt>
<trkpt lat="-27.2205428" lon="152.8968454">
<ele>66.889</ele>
<time>2016-10-05T04:13:17.972Z</time>
</trkpt>
<trkpt lat="-27.2208864" lon="152.8972593">
<ele>63.718</ele>
<time>2016-10-05T04:13:19.969Z</time>
</trkpt>
<trkpt lat="-27.2212418" lon="152.8976670">
<ele>60.271</ele>
<time>2016-10-05T04:13:21.989Z</time>
</trkpt>
<trkpt lat="-27.2217951" lon="152.8982420">
<ele>56.471</ele>
<time>2016-10-05T04:13:25.004Z</time>
</trkpt>
<trkpt lat="-27.2223570" lon="152.8987835">
<ele>52.344</ele>
<time>2016-10-05T04:13:27.986Z</time>
</trkpt>
<trkpt lat="-27.2227404" lon="152.8991304">
<ele>48.269</ele>
<time>2016-10-05T04:13:29.992Z</time>
</trkpt>
<trkpt lat="-27.2233094" lon="152.8996576">
<ele>44.955</ele>
<time>2016-10-05T04:13:33.054Z</time>
</trkpt>
<trkpt lat="-27.2238654" lon="152.9001513">
<ele>42.607</ele>
<time>2016-10-05T04:13:36.051Z</time>
</trkpt>
<trkpt lat="-27.2244000" lon="152.9006586">
<ele>40.526</ele>
<time>2016-10-05T04:13:38.979Z</time>
</trkpt>
<trkpt lat="-27.2249336" lon="152.9012174">
<ele>38.571</ele>
<time>2016-10-05T04:13:41.956Z</time>
</trkpt>
<trkpt lat="-27.2254596" lon="152.9018455">
<ele>38.023</ele>
<time>2016-10-05T04:13:45.020Z</time>
</trkpt>
<trkpt lat="-27.2259382" lon="152.9025033">
<ele>40.683</ele>
<time>2016-10-05T04:13:47.997Z</time>
</trkpt>
<trkpt lat="-27.2262495" lon="152.9029652">
<ele>47.004</ele>
<time>2016-10-05T04:13:50.032Z</time>
</trkpt>
<trkpt lat="-27.2266845" lon="152.9036393">
<ele>54.591</ele>
<time>2016-10-05T04:13:52.992Z</time>
</trkpt>
<trkpt lat="-27.2271045" lon="152.9042936">
<ele>60.027</ele>
<time>2016-10-05T04:13:55.889Z</time>
</trkpt>
<trkpt lat="-27.2273866" lon="152.9047475">
<ele>62.531</ele>
<time>2016-10-05T04:13:57.860Z</time>
</trkpt>
<trkpt lat="-27.2277060" lon="152.9051763">
<ele>63.604</ele>
<time>2016-10-05T04:13:59.794Z</time>
</trkpt>
<trkpt lat="-27.2282247" lon="152.9058406">
<ele>64.335</ele>
<time>2016-10-05T04:14:02.808Z</time>
</trkpt>
<trkpt lat="-27.2287975" lon="152.9064609">
<ele>65.238</ele>
<time>2016-10-05T04:14:05.864Z</time>
</trkpt>
<trkpt lat="-27.2293549" lon="152.9070160">
<ele>66.507</ele>
<time>2016-10-05T04:14:08.775Z</time>
</trkpt>
<trkpt lat="-27.2297476" lon="152.9073774">
<ele>67.652</ele>
<time>2016-10-05T04:14:10.777Z</time>
</trkpt>
<trkpt lat="-27.2301378" lon="152.9077264">
<ele>68.263</ele>
<time>2016-10-05T04:14:12.743Z</time>
</trkpt>
<trkpt lat="-27.2305470" lon="152.9080611">
<ele>68.592</ele>
<time>2016-10-05T04:14:14.764Z</time>
</trkpt>
<trkpt lat="-27.2311253" lon="152.9085774">
<ele>68.944</ele>
<time>2016-10-05T04:14:17.755Z</time>
</trkpt>
<trkpt lat="-27.2314952" lon="152.9089130">
<ele>69.304</ele>
<time>2016-10-05T04:14:19.691Z</time>
</trkpt>
<trkpt lat="-27.2318667" lon="152.9092749">
<ele>69.429</ele>
<time>2016-10-05T04:14:21.667Z</time>
</trkpt>
<trkpt lat="-27.2322244" lon="152.9096761">
<ele>69.146</ele>
<time>2016-10-05T04:14:23.655Z</time>
</trkpt>
<trkpt lat="-27.2327460" lon="152.9103209">
<ele>68.747</ele>
<time>2016-10-05T04:14:26.661Z</time>
</trkpt>
<trkpt lat="-27.2330713" lon="152.9107804">
<ele>68.526</ele>
<time>2016-10-05T04:14:28.658Z</time>
</trkpt>
<trkpt lat="-27.2333688" lon="152.9112608">
<ele>68.219</ele>
<time>2016-10-05T04:14:30.630Z</time>
</trkpt>
<trkpt lat="-27.2336599" lon="152.9117507">
<ele>67.585</ele>
<time>2016-10-05T04:14:32.623Z</time>
</trkpt>
<trkpt lat="-27.2340614" lon="152.9124926">
<ele>66.855</ele>
<time>2016-10-05T04:14:35.587Z</time>
</trkpt>
<trkpt lat="-27.2343427" lon="152.9129901">
<ele>66.324</ele>
<time>2016-10-05T04:14:37.619Z</time>
</trkpt>
<trkpt lat="-27.2347524" lon="152.9137275">
<ele>65.618</ele>
<time>2016-10-05T04:14:40.600Z</time>
</trkpt>
<trkpt lat="-27.2350437" lon="152.9142173">
<ele>63.674</ele>
<time>2016-10-05T04:14:42.585Z</time>
</trkpt>
<trkpt lat="-27.2353686" lon="152.9146965">
<ele>59.900</ele>
<time>2016-10-05T04:14:44.611Z</time>
</trkpt>
<trkpt lat="-27.2358650" lon="152.9153687">
<ele>55.557</ele>
<time>2016-10-05T04:14:47.545Z</time>
</trkpt>
<trkpt lat="-27.2362422" lon="152.9158081">
<ele>52.556</ele>
<time>2016-10-05T04:14:49.613Z</time>
</trkpt>
<trkpt lat="-27.2368171" lon="152.9163951">
<ele>51.447</ele>
<time>2016-10-05T04:14:52.599Z</time>
</trkpt>
<trkpt lat="-27.2372064" lon="152.9167640">
<ele>51.725</ele>
<time>2016-10-05T04:14:54.569Z</time>
</trkpt>
<trkpt lat="-27.2376209" lon="152.9170909">
<ele>52.747</ele>
<time>2016-10-05T04:14:56.547Z</time>
</trkpt>
<trkpt lat="-27.2380438" lon="152.9174021">
<ele>53.736</ele>
<time>2016-10-05T04:14:58.537Z</time>
</trkpt>
<trkpt lat="-27.2387072" lon="152.9178079">
<ele>54.535</ele>
<time>2016-10-05T04:15:01.516Z</time>
</trkpt>
<trkpt lat="-27.2391584" lon="152.9180647">
<ele>56.010</ele>
<time>2016-10-05T04:15:03.535Z</time>
</trkpt>
<trkpt lat="-27.2396128" lon="152.9182615">
<ele>58.293</ele>
<time>2016-10-05T04:15:05.518Z</time>
</trkpt>
<trkpt lat="-27.2400673" lon="152.9184757">
<ele>60.804</ele>
<time>2016-10-05T04:15:07.550Z</time>
</trkpt>
<trkpt lat="-27.2407319" lon="152.9187798">
<ele>63.307</ele>
<time>2016-10-05T04:15:10.519Z</time>
</trkpt>
<trkpt lat="-27.2411897" lon="152.9189845">
<ele>66.009</ele>
<time>2016-10-05T04:15:12.572Z</time>
</trkpt>
<trkpt lat="-27.2416413" lon="152.9191935">
<ele>69.067</ele>
<time>2016-10-05T04:15:14.629Z</time>
</trkpt>
<trkpt lat="-27.2422922" lon="152.9194880">
<ele>72.834</ele>
<time>2016-10-05T04:15:17.610Z</time>
</trkpt>
<trkpt lat="-27.2429233" lon="152.9198332">
<ele>77.101</ele>
<time>2016-10-05T04:15:20.600Z</time>
</trkpt>
<trkpt lat="-27.2433380" lon="152.9200818">
<ele>81.118</ele>
<time>2016-10-05T04:15:22.571Z</time>
</trkpt>
<trkpt lat="-27.2437155" lon="152.9203804">
<ele>84.628</ele>
<time>2016-10-05T04:15:24.488Z</time>
</trkpt>
<trkpt lat="-27.2443201" lon="152.9208179">
<ele>88.239</ele>
<time>2016-10-05T04:15:27.505Z</time>
</trkpt>
<trkpt lat="-27.2447068" lon="152.9211097">
<ele>91.842</ele>
<time>2016-10-05T04:15:29.575Z</time>
</trkpt>
<trkpt lat="-27.2450486" lon="152.9213959">
<ele>94.526</ele>
<time>2016-10-05T04:15:31.612Z</time>
</trkpt>
<trkpt lat="-27.2455048" lon="152.9218492">
<ele>95.681</ele>
<time>2016-10-05T04:15:34.689Z</time>
</trkpt>
<trkpt lat="-27.2457835" lon="152.9221297">
<ele>95.444</ele>
<time>2016-10-05T04:15:36.734Z</time>
</trkpt>
<trkpt lat="-27.2461463" lon="152.9225626">
<ele>94.211</ele>
<time>2016-10-05T04:15:39.681Z</time>
</trkpt>
<trkpt lat="-27.2463888" lon="152.9228647">
<ele>92.430</ele>
<time>2016-10-05T04:15:41.701Z</time>
</trkpt>
<trkpt lat="-27.2467425" lon="152.9233221">
<ele>90.586</ele>
<time>2016-10-05T04:15:44.712Z</time>
</trkpt>
<trkpt lat="-27.2470407" lon="152.9237831">
<ele>88.811</ele>
<time>2016-10-05T04:15:47.577Z</time>
</trkpt>
<trkpt lat="-27.2473175" lon="152.9242884">
<ele>86.718</ele>
<time>2016-10-05T04:15:50.625Z</time>
</trkpt>
<trkpt lat="-27.2474760" lon="152.9246144">
<ele>83.901</ele>
<time>2016-10-05T04:15:52.576Z</time>
</trkpt>
<trkpt lat="-27.2476408" lon="152.9249454">
<ele>80.646</ele>
<time>2016-10-05T04:15:54.543Z</time>
</trkpt>
<trkpt lat="-27.2478882" lon="152.9254685">
<ele>77.895</ele>
<time>2016-10-05T04:15:57.582Z</time>
</trkpt>
<trkpt lat="-27.2480584" lon="152.9258170">
<ele>76.239</ele>
<time>2016-10-05T04:15:59.598Z</time>
</trkpt>
<trkpt lat="-27.2482528" lon="152.9261707">
<ele>75.084</ele>
<time>2016-10-05T04:16:01.691Z</time>
</trkpt>
<trkpt lat="-27.2484104" lon="152.9265149">
<ele>73.443</ele>
<time>2016-10-05T04:16:03.611Z</time>
</trkpt>
<trkpt lat="-27.2485990" lon="152.9270863">
<ele>70.830</ele>
<time>2016-10-05T04:16:06.612Z</time>
</trkpt>
<trkpt lat="-27.2486912" lon="152.9276910">
<ele>67.295</ele>
<time>2016-10-05T04:16:09.656Z</time>
</trkpt>
<trkpt lat="-27.2486994" lon="152.9282726">
<ele>63.010</ele>
<time>2016-10-05T04:16:12.604Z</time>
</trkpt>
<trkpt lat="-27.2486444" lon="152.9286578">
<ele>58.439</ele>
<time>2016-10-05T04:16:14.627Z</time>
</trkpt>
<trkpt lat="-27.2485171" lon="152.9290114">
<ele>54.744</ele>
<time>2016-10-05T04:16:16.619Z</time>
</trkpt>
<trkpt lat="-27.2483689" lon="152.9293719">
<ele>53.025</ele>
<time>2016-10-05T04:16:18.688Z</time>
</trkpt>
<trkpt lat="-27.2482124" lon="152.9297128">
<ele>53.173</ele>
<time>2016-10-05T04:16:20.681Z</time>
</trkpt>
<trkpt lat="-27.2480672" lon="152.9300462">
<ele>54.210</ele>
<time>2016-10-05T04:16:22.587Z</time>
</trkpt>
<trkpt lat="-27.2478563" lon="152.9305776">
<ele>55.126</ele>
<time>2016-10-05T04:16:25.545Z</time>
</trkpt>
<trkpt lat="-27.2477864" lon="152.9311669">
<ele>55.359</ele>
<time>2016-10-05T04:16:28.525Z</time>
</trkpt>
<trkpt lat="-27.2478373" lon="152.9315746">
<ele>54.772</ele>
<time>2016-10-05T04:16:30.584Z</time>
</trkpt>
<trkpt lat="-27.2479747" lon="152.9319428">
<ele>52.934</ele>
<time>2016-10-05T04:16:32.656Z</time>
</trkpt>
<trkpt lat="-27.2482868" lon="152.9323907">
<ele>50.036</ele>
<time>2016-10-05T04:16:35.707Z</time>
</trkpt>
<trkpt lat="-27.2485286" lon="152.9326440">
<ele>47.603</ele>
<time>2016-10-05T04:16:37.771Z</time>
</trkpt>
<trkpt lat="-27.2487587" lon="152.9328902">
<ele>46.595</ele>
<time>2016-10-05T04:16:39.801Z</time>
</trkpt>
<trkpt lat="-27.2491133" lon="152.9332318">
<ele>46.366</ele>
<time>2016-10-05T04:16:42.838Z</time>
</trkpt>
<trkpt lat="-27.2493532" lon="152.9334415">
<ele>46.181</ele>
<time>2016-10-05T04:16:44.842Z</time>
</trkpt>
<trkpt lat="-27.2495736" lon="152.9336622">
<ele>45.946</ele>
<time>2016-10-05T04:16:46.730Z</time>
</trkpt>
<trkpt lat="-27.2499151" lon="152.9340071">
<ele>45.846</ele>
<time>2016-10-05T04:16:49.590Z</time>
</trkpt>
<trkpt lat="-27.2501463" lon="152.9342537">
<ele>45.924</ele>
<time>2016-10-05T04:16:51.470Z</time>
</trkpt>
<trkpt lat="-27.2503918" lon="152.9345400">
<ele>46.113</ele>
<time>2016-10-05T04:16:53.451Z</time>
</trkpt>
<trkpt lat="-27.2507318" lon="152.9350299">
<ele>46.108</ele>
<time>2016-10-05T04:16:56.465Z</time>
</trkpt>
<trkpt lat="-27.2510098" lon="152.9355710">
<ele>45.290</ele>
<time>2016-10-05T04:16:59.456Z</time>
</trkpt>
<trkpt lat="-27.2511838" lon="152.9359451">
<ele>43.675</ele>
<time>2016-10-05T04:17:01.443Z</time>
</trkpt>
<trkpt lat="-27.2514488" lon="152.9365299">
<ele>42.127</ele>
<time>2016-10-05T04:17:04.484Z</time>
</trkpt>
<trkpt lat="-27.2516631" lon="152.9368997">
<ele>41.003</ele>
<time>2016-10-05T04:17:06.512Z</time>
</trkpt>
<trkpt lat="-27.2518711" lon="152.9372171">
<ele>39.734</ele>
<time>2016-10-05T04:17:08.360Z</time>
</trkpt>
<trkpt lat="-27.2521213" lon="152.9375253">
<ele>38.013</ele>
<time>2016-10-05T04:17:10.415Z</time>
</trkpt>
<trkpt lat="-27.2524702" lon="152.9379275">
<ele>36.346</ele>
<time>2016-10-05T04:17:13.327Z</time>
</trkpt>
<trkpt lat="-27.2527944" lon="152.9383236">
<ele>35.088</ele>
<time>2016-10-05T04:17:16.263Z</time>
</trkpt>
<trkpt lat="-27.2529932" lon="152.9386034">
<ele>34.071</ele>
<time>2016-10-05T04:17:18.219Z</time>
</trkpt>
<trkpt lat="-27.2532886" lon="152.9390680">
<ele>33.372</ele>
<time>2016-10-05T04:17:21.296Z</time>
</trkpt>
<trkpt lat="-27.2535626" lon="152.9395252">
<ele>33.160</ele>
<time>2016-10-05T04:17:24.253Z</time>
</trkpt>
<trkpt lat="-27.2538351" lon="152.9399959">
<ele>33.352</ele>
<time>2016-10-05T04:17:27.383Z</time>
</trkpt>
<trkpt lat="-27.2540262" lon="152.9404475">
<ele>33.854</ele>
<time>2016-10-05T04:17:30.458Z</time>
</trkpt>
<trkpt lat="-27.2541981" lon="152.9408488">
<ele>34.773</ele>
<time>2016-10-05T04:17:33.478Z</time>
</trkpt>
<trkpt lat="-27.2543342" lon="152.9412377">
<ele>36.189</ele>
<time>2016-10-05T04:17:36.397Z</time>
</trkpt>
<trkpt lat="-27.2544114" lon="152.9415048">
<ele>37.794</ele>
<time>2016-10-05T04:17:38.274Z</time>
</trkpt>
<trkpt lat="-27.2545298" lon="152.9419608">
<ele>39.085</ele>
<time>2016-10-05T04:17:41.276Z</time>
</trkpt>
<trkpt lat="-27.2546427" lon="152.9424510">
<ele>39.700</ele>
<time>2016-10-05T04:17:44.240Z</time>
</trkpt>
<trkpt lat="-27.2547233" lon="152.9428022">
<ele>39.425</ele>
<time>2016-10-05T04:17:46.250Z</time>
</trkpt>
<trkpt lat="-27.2548127" lon="152.9431519">
<ele>38.332</ele>
<time>2016-10-05T04:17:48.228Z</time>
</trkpt>
<trkpt lat="-27.2548846" lon="152.9434976">
<ele>36.850</ele>
<time>2016-10-05T04:17:50.127Z</time>
</trkpt>
<trkpt lat="-27.2550106" lon="152.9440320">
<ele>35.441</ele>
<time>2016-10-05T04:17:53.029Z</time>
</trkpt>
<trkpt lat="-27.2551164" lon="152.9446080">
<ele>34.056</ele>
<time>2016-10-05T04:17:56.020Z</time>
</trkpt>
<trkpt lat="-27.2551608" lon="152.9452144">
<ele>32.533</ele>
<time>2016-10-05T04:17:59.064Z</time>
</trkpt>
<trkpt lat="-27.2551432" lon="152.9458042">
<ele>30.633</ele>
<time>2016-10-05T04:18:02.022Z</time>
</trkpt>
<trkpt lat="-27.2551210" lon="152.9464008">
<ele>28.125</ele>
<time>2016-10-05T04:18:04.997Z</time>
</trkpt>
<trkpt lat="-27.2551760" lon="152.9467845">
<ele>25.558</ele>
<time>2016-10-05T04:18:06.922Z</time>
</trkpt>
<trkpt lat="-27.2551765" lon="152.9471945">
<ele>23.822</ele>
<time>2016-10-05T04:18:08.972Z</time>
</trkpt>
<trkpt lat="-27.2552182" lon="152.9477747">
<ele>23.108</ele>
<time>2016-10-05T04:18:11.909Z</time>
</trkpt>
<trkpt lat="-27.2552785" lon="152.9481541">
<ele>23.225</ele>
<time>2016-10-05T04:18:13.855Z</time>
</trkpt>
<trkpt lat="-27.2555008" lon="152.9486873">
<ele>23.952</ele>
<time>2016-10-05T04:18:16.809Z</time>
</trkpt>
<trkpt lat="-27.2557028" lon="152.9490131">
<ele>24.985</ele>
<time>2016-10-05T04:18:18.776Z</time>
</trkpt>
<trkpt lat="-27.2559684" lon="152.9493125">
<ele>25.918</ele>
<time>2016-10-05T04:18:20.869Z</time>
</trkpt>
<trkpt lat="-27.2564126" lon="152.9496351">
<ele>26.398</ele>
<time>2016-10-05T04:18:23.861Z</time>
</trkpt>
<trkpt lat="-27.2569007" lon="152.9499155">
<ele>26.260</ele>
<time>2016-10-05T04:18:27.040Z</time>
</trkpt>
<trkpt lat="-27.2572906" lon="152.9502257">
<ele>25.088</ele>
<time>2016-10-05T04:18:29.829Z</time>
</trkpt>
<trkpt lat="-27.2576840" lon="152.9505854">
<ele>22.653</ele>
<time>2016-10-05T04:18:32.786Z</time>
</trkpt>
<trkpt lat="-27.2580272" lon="152.9509987">
<ele>19.130</ele>
<time>2016-10-05T04:18:35.734Z</time>
</trkpt>
<trkpt lat="-27.2582520" lon="152.9513048">
<ele>15.177</ele>
<time>2016-10-05T04:18:37.810Z</time>
</trkpt>
<trkpt lat="-27.2584442" lon="152.9516218">
<ele>12.046</ele>
<time>2016-10-05T04:18:39.804Z</time>
</trkpt>
<trkpt lat="-27.2587215" lon="152.9521281">
<ele>10.514</ele>
<time>2016-10-05T04:18:42.878Z</time>
</trkpt>
<trkpt lat="-27.2589959" lon="152.9526319">
<ele>10.112</ele>
<time>2016-10-05T04:18:45.942Z</time>
</trkpt>
<trkpt lat="-27.2592598" lon="152.9531074">
<ele>10.220</ele>
<time>2016-10-05T04:18:48.909Z</time>
</trkpt>
<trkpt lat="-27.2595255" lon="152.9535928">
<ele>10.137</ele>
<time>2016-10-05T04:18:51.991Z</time>
</trkpt>
<trkpt lat="-27.2596989" lon="152.9538996">
<ele>9.363</ele>
<time>2016-10-05T04:18:54.061Z</time>
</trkpt>
<trkpt lat="-27.2598097" lon="152.9541456">
<ele>7.934</ele>
<time>2016-10-05T04:18:55.762Z</time>
</trkpt>
<trkpt lat="-27.2599529" lon="152.9544020">
<ele>6.283</ele>
<time>2016-10-05T04:18:57.757Z</time>
</trkpt>
<trkpt lat="-27.2601418" lon="152.9547618">
<ele>4.978</ele>
<time>2016-10-05T04:19:00.556Z</time>
</trkpt>
<trkpt lat="-27.2602893" lon="152.9550317">
<ele>4.596</ele>
<time>2016-10-05T04:19:02.609Z</time>
</trkpt>
<trkpt lat="-27.2604383" lon="152.9553091">
<ele>5.194</ele>
<time>2016-10-05T04:19:04.613Z</time>
</trkpt>
<trkpt lat="-27.2607032" lon="152.9557468">
<ele>6.158</ele>
<time>2016-10-05T04:19:07.769Z</time>
</trkpt>
<trkpt lat="-27.2608688" lon="152.9560348">
<ele>6.580</ele>
<time>2016-10-05T04:19:09.720Z</time>
</trkpt>
<trkpt lat="-27.2611898" lon="152.9564532">
<ele>6.039</ele>
<time>2016-10-05T04:19:12.716Z</time>
</trkpt>
<trkpt lat="-27.2615623" lon="152.9568251">
<ele>4.621</ele>
<time>2016-10-05T04:19:15.684Z</time>
</trkpt>
<trkpt lat="-27.2617985" lon="152.9570694">
<ele>2.501</ele>
<time>2016-10-05T04:19:17.680Z</time>
</trkpt>
<trkpt lat="-27.2620239" lon="152.9572800">
<ele>0.096</ele>
<time>2016-10-05T04:19:19.648Z</time>
</trkpt>
<trkpt lat="-27.2622287" lon="152.9574674">
<ele>0.000</ele>
<time>2016-10-05T04:19:21.676Z</time>
</trkpt>
<trkpt lat="-27.2623712" lon="152.9576024">
<ele>0.000</ele>
<time>2016-10-05T04:19:23.484Z</time>
</trkpt>
<trkpt lat="-27.2624602" lon="152.9576831">
<ele>0.000</ele>
<time>2016-10-05T04:19:24.993Z</time>
</trkpt>
<trkpt lat="-27.2624602" lon="152.9576831">
<ele>0.000</ele>
<time>2016-10-05T04:19:29.993Z</time>
</trkpt>
<trkpt lat="-27.2624602" lon="152.9576831">
<ele>0.000</ele>
<time>2016-10-05T04:19:42.154Z</time>
</trkpt>
<trkpt lat="-27.2626846" lon="152.9577655">
<ele>0.000</ele>
<time>2016-10-05T04:19:47.415Z</time>
</trkpt>
<trkpt lat="-27.2628744" lon="152.9575628">
<ele>0.000</ele>
<time>2016-10-05T04:19:50.183Z</time>
</trkpt>
<trkpt lat="-27.2631415" lon="152.9572805">
<ele>0.358</ele>
<time>2016-10-05T04:19:53.198Z</time>
</trkpt>
<trkpt lat="-27.2634630" lon="152.9570908">
<ele>0.593</ele>
<time>2016-10-05T04:19:56.079Z</time>
</trkpt>
<trkpt lat="-27.2636306" lon="152.9570141">
<ele>0.074</ele>
<time>2016-10-05T04:19:57.907Z</time>
</trkpt>
<trkpt lat="-27.2637217" lon="152.9569703">
<ele>0.000</ele>
<time>2016-10-05T04:19:59.142Z</time>
</trkpt>
<trkpt lat="-27.2637217" lon="152.9569703">
<ele>0.000</ele>
<time>2016-10-05T04:20:03.068Z</time>
</trkpt>
<trkpt lat="-27.2637217" lon="152.9569703">
<ele>0.000</ele>
<time>2016-10-05T04:20:56.778Z</time>
</trkpt>
<trkpt lat="-27.2638997" lon="152.9568953">
<ele>0.000</ele>
<time>2016-10-05T04:21:02.468Z</time>
</trkpt>
<trkpt lat="-27.2641640" lon="152.9567885">
<ele>0.000</ele>
<time>2016-10-05T04:21:05.534Z</time>
</trkpt>
<trkpt lat="-27.2645300" lon="152.9566137">
<ele>0.000</ele>
<time>2016-10-05T04:21:08.671Z</time>
</trkpt>
<trkpt lat="-27.2647856" lon="152.9564651">
<ele>0.000</ele>
<time>2016-10-05T04:21:10.704Z</time>
</trkpt>
<trkpt lat="-27.2651806" lon="152.9562977">
<ele>0.000</ele>
<time>2016-10-05T04:21:13.610Z</time>
</trkpt>
<trkpt lat="-27.2656139" lon="152.9561762">
<ele>0.000</ele>
<time>2016-10-05T04:21:16.555Z</time>
</trkpt>
<trkpt lat="-27.2659359" lon="152.9562062">
<ele>0.000</ele>
<time>2016-10-05T04:21:18.601Z</time>
</trkpt>
<trkpt lat="-27.2663922" lon="152.9563896">
<ele>0.000</ele>
<time>2016-10-05T04:21:21.764Z</time>
</trkpt>
<trkpt lat="-27.2668146" lon="152.9565208">
<ele>0.000</ele>
<time>2016-10-05T04:21:24.932Z</time>
</trkpt>
<trkpt lat="-27.2670649" lon="152.9565098">
<ele>0.000</ele>
<time>2016-10-05T04:21:26.966Z</time>
</trkpt>
<trkpt lat="-27.2673817" lon="152.9563337">
<ele>0.000</ele>
<time>2016-10-05T04:21:29.897Z</time>
</trkpt>
<trkpt lat="-27.2675469" lon="152.9559725">
<ele>0.000</ele>
<time>2016-10-05T04:21:32.871Z</time>
</trkpt>
<trkpt lat="-27.2675815" lon="152.9556955">
<ele>0.000</ele>
<time>2016-10-05T04:21:34.795Z</time>
</trkpt>
<trkpt lat="-27.2675863" lon="152.9552490">
<ele>0.000</ele>
<time>2016-10-05T04:21:37.833Z</time>
</trkpt>
<trkpt lat="-27.2675976" lon="152.9548374">
<ele>0.000</ele>
<time>2016-10-05T04:21:40.700Z</time>
</trkpt>
<trkpt lat="-27.2676143" lon="152.9545630">
<ele>0.000</ele>
<time>2016-10-05T04:21:42.643Z</time>
</trkpt>
<trkpt lat="-27.2676738" lon="152.9541409">
<ele>2.646</ele>
<time>2016-10-05T04:21:45.644Z</time>
</trkpt>
<trkpt lat="-27.2677831" lon="152.9538912">
<ele>6.477</ele>
<time>2016-10-05T04:21:47.599Z</time>
</trkpt>
<trkpt lat="-27.2679661" lon="152.9536931">
<ele>9.979</ele>
<time>2016-10-05T04:21:49.623Z</time>
</trkpt>
<trkpt lat="-27.2681935" lon="152.9535534">
<ele>12.528</ele>
<time>2016-10-05T04:21:51.660Z</time>
</trkpt>
<trkpt lat="-27.2685544" lon="152.9534095">
<ele>13.883</ele>
<time>2016-10-05T04:21:54.549Z</time>
</trkpt>
<trkpt lat="-27.2689572" lon="152.9532727">
<ele>14.320</ele>
<time>2016-10-05T04:21:57.551Z</time>
</trkpt>
<trkpt lat="-27.2692335" lon="152.9531736">
<ele>14.162</ele>
<time>2016-10-05T04:21:59.529Z</time>
</trkpt>
<trkpt lat="-27.2695143" lon="152.9530617">
<ele>13.507</ele>
<time>2016-10-05T04:22:01.501Z</time>
</trkpt>
<trkpt lat="-27.2699365" lon="152.9528746">
<ele>12.427</ele>
<time>2016-10-05T04:22:04.467Z</time>
</trkpt>
<trkpt lat="-27.2703604" lon="152.9526783">
<ele>11.060</ele>
<time>2016-10-05T04:22:07.453Z</time>
</trkpt>
<trkpt lat="-27.2706442" lon="152.9525581">
<ele>9.573</ele>
<time>2016-10-05T04:22:09.439Z</time>
</trkpt>
<trkpt lat="-27.2709317" lon="152.9524406">
<ele>8.273</ele>
<time>2016-10-05T04:22:11.454Z</time>
</trkpt>
<trkpt lat="-27.2713552" lon="152.9522766">
<ele>7.382</ele>
<time>2016-10-05T04:22:14.429Z</time>
</trkpt>
<trkpt lat="-27.2716338" lon="152.9521686">
<ele>6.784</ele>
<time>2016-10-05T04:22:16.422Z</time>
</trkpt>
<trkpt lat="-27.2719116" lon="152.9520754">
<ele>6.338</ele>
<time>2016-10-05T04:22:18.414Z</time>
</trkpt>
<trkpt lat="-27.2721844" lon="152.9519795">
<ele>6.014</ele>
<time>2016-10-05T04:22:20.434Z</time>
</trkpt>
<trkpt lat="-27.2725730" lon="152.9518231">
<ele>5.716</ele>
<time>2016-10-05T04:22:23.505Z</time>
</trkpt>
<trkpt lat="-27.2728070" lon="152.9517563">
<ele>5.142</ele>
<time>2016-10-05T04:22:25.614Z</time>
</trkpt>
<trkpt lat="-27.2730024" lon="152.9517336">
<ele>4.227</ele>
<time>2016-10-05T04:22:27.604Z</time>
</trkpt>
<trkpt lat="-27.2732689" lon="152.9517132">
<ele>3.267</ele>
<time>2016-10-05T04:22:30.384Z</time>
</trkpt>
<trkpt lat="-27.2734535" lon="152.9516142">
<ele>2.549</ele>
<time>2016-10-05T04:22:32.242Z</time>
</trkpt>
<trkpt lat="-27.2737743" lon="152.9513649">
<ele>2.475</ele>
<time>2016-10-05T04:22:35.287Z</time>
</trkpt>
<trkpt lat="-27.2741710" lon="152.9511247">
<ele>3.387</ele>
<time>2016-10-05T04:22:38.383Z</time>
</trkpt>
<trkpt lat="-27.2744424" lon="152.9509980">
<ele>4.938</ele>
<time>2016-10-05T04:22:40.352Z</time>
</trkpt>
<trkpt lat="-27.2747164" lon="152.9508911">
<ele>6.357</ele>
<time>2016-10-05T04:22:42.280Z</time>
</trkpt>
<trkpt lat="-27.2751545" lon="152.9507191">
<ele>7.148</ele>
<time>2016-10-05T04:22:45.341Z</time>
</trkpt>
<trkpt lat="-27.2754339" lon="152.9506066">
<ele>7.232</ele>
<time>2016-10-05T04:22:47.317Z</time>
</trkpt>
<trkpt lat="-27.2757117" lon="152.9504960">
<ele>6.675</ele>
<time>2016-10-05T04:22:49.299Z</time>
</trkpt>
<trkpt lat="-27.2759906" lon="152.9503905">
<ele>5.755</ele>
<time>2016-10-05T04:22:51.285Z</time>
</trkpt>
<trkpt lat="-27.2764039" lon="152.9502264">
<ele>5.054</ele>
<time>2016-10-05T04:22:54.238Z</time>
</trkpt>
<trkpt lat="-27.2766805" lon="152.9500975">
<ele>4.866</ele>
<time>2016-10-05T04:22:56.244Z</time>
</trkpt>
<trkpt lat="-27.2770868" lon="152.9498930">
<ele>4.895</ele>
<time>2016-10-05T04:22:59.219Z</time>
</trkpt>
<trkpt lat="-27.2773523" lon="152.9497554">
<ele>4.766</ele>
<time>2016-10-05T04:23:01.174Z</time>
</trkpt>
<trkpt lat="-27.2777605" lon="152.9495463">
<ele>4.149</ele>
<time>2016-10-05T04:23:04.182Z</time>
</trkpt>
<trkpt lat="-27.2781598" lon="152.9493435">
<ele>3.003</ele>
<time>2016-10-05T04:23:07.136Z</time>
</trkpt>
<trkpt lat="-27.2784381" lon="152.9492527">
<ele>1.836</ele>
<time>2016-10-05T04:23:09.096Z</time>
</trkpt>
<trkpt lat="-27.2788789" lon="152.9491812">
<ele>1.070</ele>
<time>2016-10-05T04:23:12.114Z</time>
</trkpt>
<trkpt lat="-27.2791746" lon="152.9491679">
<ele>0.643</ele>
<time>2016-10-05T04:23:14.120Z</time>
</trkpt>
<trkpt lat="-27.2794757" lon="152.9491957">
<ele>0.513</ele>
<time>2016-10-05T04:23:16.162Z</time>
</trkpt>
<trkpt lat="-27.2799033" lon="152.9492872">
<ele>0.649</ele>
<time>2016-10-05T04:23:19.104Z</time>
</trkpt>
<trkpt lat="-27.2801850" lon="152.9493853">
<ele>0.761</ele>
<time>2016-10-05T04:23:21.097Z</time>
</trkpt>
<trkpt lat="-27.2804627" lon="152.9494958">
<ele>0.644</ele>
<time>2016-10-05T04:23:23.079Z</time>
</trkpt>
<trkpt lat="-27.2808789" lon="152.9496960">
<ele>0.683</ele>
<time>2016-10-05T04:23:26.121Z</time>
</trkpt>
<trkpt lat="-27.2812875" lon="152.9498935">
<ele>1.241</ele>
<time>2016-10-05T04:23:29.169Z</time>
</trkpt>
<trkpt lat="-27.2815394" lon="152.9499916">
<ele>1.929</ele>
<time>2016-10-05T04:23:31.199Z</time>
</trkpt>
<trkpt lat="-27.2818641" lon="152.9501115">
<ele>2.176</ele>
<time>2016-10-05T04:23:34.165Z</time>
</trkpt>
<trkpt lat="-27.2821264" lon="152.9502223">
<ele>1.878</ele>
<time>2016-10-05T04:23:37.154Z</time>
</trkpt>
<trkpt lat="-27.2822506" lon="152.9502687">
<ele>1.135</ele>
<time>2016-10-05T04:23:38.993Z</time>
</trkpt>
<trkpt lat="-27.2823626" lon="152.9503071">
<ele>0.178</ele>
<time>2016-10-05T04:23:41.428Z</time>
</trkpt>
<trkpt lat="-27.2824487" lon="152.9503526">
<ele>0.000</ele>
<time>2016-10-05T04:23:44.051Z</time>
</trkpt>
<trkpt lat="-27.2824487" lon="152.9503526">
<ele>0.000</ele>
<time>2016-10-05T04:23:47.084Z</time>
</trkpt>
<trkpt lat="-27.2824487" lon="152.9503526">
<ele>0.000</ele>
<time>2016-10-05T04:23:54.065Z</time>
</trkpt>
<trkpt lat="-27.2826438" lon="152.9504273">
<ele>0.000</ele>
<time>2016-10-05T04:23:59.655Z</time>
</trkpt>
<trkpt lat="-27.2827932" lon="152.9504856">
<ele>0.110</ele>
<time>2016-10-05T04:24:01.529Z</time>
</trkpt>
<trkpt lat="-27.2830680" lon="152.9505981">
<ele>0.795</ele>
<time>2016-10-05T04:24:04.406Z</time>
</trkpt>
<trkpt lat="-27.2834157" lon="152.9507354">
<ele>1.687</ele>
<time>2016-10-05T04:24:07.415Z</time>
</trkpt>
<trkpt lat="-27.2838051" lon="152.9508779">
<ele>2.707</ele>
<time>2016-10-05T04:24:10.434Z</time>
</trkpt>
<trkpt lat="-27.2840889" lon="152.9509890">
<ele>3.983</ele>
<time>2016-10-05T04:24:12.481Z</time>
</trkpt>
<trkpt lat="-27.2843841" lon="152.9510838">
<ele>5.473</ele>
<time>2016-10-05T04:24:14.529Z</time>
</trkpt>
<trkpt lat="-27.2846557" lon="152.9511784">
<ele>6.605</ele>
<time>2016-10-05T04:24:16.443Z</time>
</trkpt>
<trkpt lat="-27.2849320" lon="152.9512727">
<ele>6.970</ele>
<time>2016-10-05T04:24:18.381Z</time>
</trkpt>
<trkpt lat="-27.2853574" lon="152.9514386">
<ele>6.875</ele>
<time>2016-10-05T04:24:21.342Z</time>
</trkpt>
<trkpt lat="-27.2856571" lon="152.9515457">
<ele>6.695</ele>
<time>2016-10-05T04:24:23.348Z</time>
</trkpt>
<trkpt lat="-27.2859488" lon="152.9516405">
<ele>6.606</ele>
<time>2016-10-05T04:24:25.288Z</time>
</trkpt>
<trkpt lat="-27.2863793" lon="152.9518246">
<ele>6.682</ele>
<time>2016-10-05T04:24:28.264Z</time>
</trkpt>
<trkpt lat="-27.2868010" lon="152.9520285">
<ele>6.983</ele>
<time>2016-10-05T04:24:31.262Z</time>
</trkpt>
<trkpt lat="-27.2870797" lon="152.9521704">
<ele>7.419</ele>
<time>2016-10-05T04:24:33.266Z</time>
</trkpt>
<trkpt lat="-27.2875177" lon="152.9523518">
<ele>7.594</ele>
<time>2016-10-05T04:24:36.308Z</time>
</trkpt>
<trkpt lat="-27.2878301" lon="152.9524377">
<ele>7.304</ele>
<time>2016-10-05T04:24:38.371Z</time>
</trkpt>
<trkpt lat="-27.2882681" lon="152.9525972">
<ele>6.937</ele>
<time>2016-10-05T04:24:41.298Z</time>
</trkpt>
<trkpt lat="-27.2887124" lon="152.9527602">
<ele>7.071</ele>
<time>2016-10-05T04:24:44.247Z</time>
</trkpt>
<trkpt lat="-27.2890044" lon="152.9528688">
<ele>7.757</ele>
<time>2016-10-05T04:24:46.191Z</time>
</trkpt>
<trkpt lat="-27.2894445" lon="152.9530279">
<ele>8.540</ele>
<time>2016-10-05T04:24:49.133Z</time>
</trkpt>
<trkpt lat="-27.2898846" lon="152.9531921">
<ele>9.104</ele>
<time>2016-10-05T04:24:52.096Z</time>
</trkpt>
<trkpt lat="-27.2901767" lon="152.9533098">
<ele>9.556</ele>
<time>2016-10-05T04:24:54.166Z</time>
</trkpt>
<trkpt lat="-27.2904245" lon="152.9534098">
<ele>9.979</ele>
<time>2016-10-05T04:24:56.242Z</time>
</trkpt>
<trkpt lat="-27.2906851" lon="152.9535206">
<ele>9.981</ele>
<time>2016-10-05T04:24:59.021Z</time>
</trkpt>
<trkpt lat="-27.2908116" lon="152.9535657">
<ele>9.181</ele>
<time>2016-10-05T04:25:00.974Z</time>
</trkpt>
<trkpt lat="-27.2909417" lon="152.9536171">
<ele>7.813</ele>
<time>2016-10-05T04:25:03.831Z</time>
</trkpt>
<trkpt lat="-27.2910337" lon="152.9536487">
<ele>6.382</ele>
<time>2016-10-05T04:25:07.117Z</time>
</trkpt>
<trkpt lat="-27.2910337" lon="152.9536487">
<ele>5.299</ele>
<time>2016-10-05T04:25:09.146Z</time>
</trkpt>
<trkpt lat="-27.2910337" lon="152.9536487">
<ele>4.843</ele>
<time>2016-10-05T04:25:23.871Z</time>
</trkpt>
<trkpt lat="-27.2912011" lon="152.9537111">
<ele>5.052</ele>
<time>2016-10-05T04:25:28.188Z</time>
</trkpt>
<trkpt lat="-27.2914832" lon="152.9538199">
<ele>5.748</ele>
<time>2016-10-05T04:25:31.370Z</time>
</trkpt>
<trkpt lat="-27.2917268" lon="152.9539143">
<ele>6.820</ele>
<time>2016-10-05T04:25:33.489Z</time>
</trkpt>
<trkpt lat="-27.2921471" lon="152.9540615">
<ele>8.239</ele>
<time>2016-10-05T04:25:36.813Z</time>
</trkpt>
<trkpt lat="-27.2924207" lon="152.9541772">
<ele>9.678</ele>
<time>2016-10-05T04:25:38.912Z</time>
</trkpt>
<trkpt lat="-27.2927834" lon="152.9543979">
<ele>10.651</ele>
<time>2016-10-05T04:25:42.099Z</time>
</trkpt>
<trkpt lat="-27.2930521" lon="152.9546455">
<ele>10.856</ele>
<time>2016-10-05T04:25:45.429Z</time>
</trkpt>
<trkpt lat="-27.2931768" lon="152.9547905">
<ele>10.329</ele>
<time>2016-10-05T04:25:48.480Z</time>
</trkpt>
<trkpt lat="-27.2932548" lon="152.9548898">
<ele>9.433</ele>
<time>2016-10-05T04:25:51.317Z</time>
</trkpt>
<trkpt lat="-27.2933324" lon="152.9549797">
<ele>8.575</ele>
<time>2016-10-05T04:25:54.124Z</time>
</trkpt>
<trkpt lat="-27.2934218" lon="152.9550977">
<ele>8.060</ele>
<time>2016-10-05T04:25:55.933Z</time>
</trkpt>
<trkpt lat="-27.2935938" lon="152.9553404">
<ele>8.104</ele>
<time>2016-10-05T04:25:58.713Z</time>
</trkpt>
<trkpt lat="-27.2938547" lon="152.9556592">
<ele>8.798</ele>
<time>2016-10-05T04:26:01.719Z</time>
</trkpt>
<trkpt lat="-27.2940584" lon="152.9558900">
<ele>10.161</ele>
<time>2016-10-05T04:26:03.686Z</time>
</trkpt>
<trkpt lat="-27.2943643" lon="152.9562703">
<ele>11.826</ele>
<time>2016-10-05T04:26:06.664Z</time>
</trkpt>
<trkpt lat="-27.2946872" lon="152.9566511">
<ele>13.339</ele>
<time>2016-10-05T04:26:09.676Z</time>
</trkpt>
<trkpt lat="-27.2949001" lon="152.9568935">
<ele>14.607</ele>
<time>2016-10-05T04:26:11.680Z</time>
</trkpt>
<trkpt lat="-27.2951037" lon="152.9571299">
<ele>15.674</ele>
<time>2016-10-05T04:26:13.622Z</time>
</trkpt>
<trkpt lat="-27.2954140" lon="152.9574931">
<ele>16.525</ele>
<time>2016-10-05T04:26:16.576Z</time>
</trkpt>
<trkpt lat="-27.2956385" lon="152.9577192">
<ele>17.462</ele>
<time>2016-10-05T04:26:18.565Z</time>
</trkpt>
<trkpt lat="-27.2960364" lon="152.9579590">
<ele>18.746</ele>
<time>2016-10-05T04:26:21.665Z</time>
</trkpt>
<trkpt lat="-27.2964179" lon="152.9581265">
<ele>20.477</ele>
<time>2016-10-05T04:26:24.791Z</time>
</trkpt>
<trkpt lat="-27.2966241" lon="152.9582338">
<ele>22.408</ele>
<time>2016-10-05T04:26:26.779Z</time>
</trkpt>
<trkpt lat="-27.2968242" lon="152.9583353">
<ele>23.926</ele>
<time>2016-10-05T04:26:28.796Z</time>
</trkpt>
<trkpt lat="-27.2970242" lon="152.9584299">
<ele>24.669</ele>
<time>2016-10-05T04:26:31.129Z</time>
</trkpt>
<trkpt lat="-27.2972491" lon="152.9585221">
<ele>24.863</ele>
<time>2016-10-05T04:26:35.038Z</time>
</trkpt>
<trkpt lat="-27.2973490" lon="152.9585615">
<ele>24.787</ele>
<time>2016-10-05T04:26:37.961Z</time>
</trkpt>
<trkpt lat="-27.2974443" lon="152.9586035">
<ele>24.655</ele>
<time>2016-10-05T04:26:39.733Z</time>
</trkpt>
<trkpt lat="-27.2975821" lon="152.9586677">
<ele>24.612</ele>
<time>2016-10-05T04:26:41.563Z</time>
</trkpt>
<trkpt lat="-27.2977467" lon="152.9587714">
<ele>24.969</ele>
<time>2016-10-05T04:26:43.378Z</time>
</trkpt>
<trkpt lat="-27.2980652" lon="152.9589774">
<ele>25.922</ele>
<time>2016-10-05T04:26:46.462Z</time>
</trkpt>
<trkpt lat="-27.2982841" lon="152.9591558">
<ele>27.353</ele>
<time>2016-10-05T04:26:48.472Z</time>
</trkpt>
<trkpt lat="-27.2986112" lon="152.9594353">
<ele>29.161</ele>
<time>2016-10-05T04:26:51.419Z</time>
</trkpt>
<trkpt lat="-27.2988406" lon="152.9596300">
<ele>31.012</ele>
<time>2016-10-05T04:26:53.407Z</time>
</trkpt>
<trkpt lat="-27.2991816" lon="152.9599444">
<ele>32.258</ele>
<time>2016-10-05T04:26:56.448Z</time>
</trkpt>
<trkpt lat="-27.2993942" lon="152.9601549">
<ele>32.667</ele>
<time>2016-10-05T04:26:58.472Z</time>
</trkpt>
<trkpt lat="-27.2996001" lon="152.9603507">
<ele>32.453</ele>
<time>2016-10-05T04:27:00.457Z</time>
</trkpt>
<trkpt lat="-27.2999305" lon="152.9606061">
<ele>31.866</ele>
<time>2016-10-05T04:27:03.457Z</time>
</trkpt>
<trkpt lat="-27.3002797" lon="152.9608000">
<ele>31.209</ele>
<time>2016-10-05T04:27:06.465Z</time>
</trkpt>
<trkpt lat="-27.3005061" lon="152.9608941">
<ele>30.783</ele>
<time>2016-10-05T04:27:08.433Z</time>
</trkpt>
<trkpt lat="-27.3008557" lon="152.9610182">
<ele>30.649</ele>
<time>2016-10-05T04:27:11.515Z</time>
</trkpt>
<trkpt lat="-27.3010663" lon="152.9610905">
<ele>30.618</ele>
<time>2016-10-05T04:27:13.384Z</time>
</trkpt>
<trkpt lat="-27.3012898" lon="152.9611707">
<ele>30.538</ele>
<time>2016-10-05T04:27:15.333Z</time>
</trkpt>
<trkpt lat="-27.3016539" lon="152.9612988">
<ele>30.330</ele>
<time>2016-10-05T04:27:18.468Z</time>
</trkpt>
<trkpt lat="-27.3019910" lon="152.9614173">
<ele>30.002</ele>
<time>2016-10-05T04:27:21.353Z</time>
</trkpt>
<trkpt lat="-27.3023496" lon="152.9615399">
<ele>29.532</ele>
<time>2016-10-05T04:27:24.317Z</time>
</trkpt>
<trkpt lat="-27.3027267" lon="152.9616872">
<ele>28.815</ele>
<time>2016-10-05T04:27:27.321Z</time>
</trkpt>
<trkpt lat="-27.3029775" lon="152.9618119">
<ele>27.656</ele>
<time>2016-10-05T04:27:29.318Z</time>
</trkpt>
<trkpt lat="-27.3032134" lon="152.9619737">
<ele>26.231</ele>
<time>2016-10-05T04:27:31.312Z</time>
</trkpt>
<trkpt lat="-27.3035416" lon="152.9622571">
<ele>24.869</ele>
<time>2016-10-05T04:27:34.357Z</time>
</trkpt>
<trkpt lat="-27.3038268" lon="152.9625445">
<ele>23.536</ele>
<time>2016-10-05T04:27:37.358Z</time>
</trkpt>
<trkpt lat="-27.3040946" lon="152.9628007">
<ele>22.196</ele>
<time>2016-10-05T04:27:40.317Z</time>
</trkpt>
<trkpt lat="-27.3042774" lon="152.9629518">
<ele>21.035</ele>
<time>2016-10-05T04:27:42.243Z</time>
</trkpt>
<trkpt lat="-27.3044821" lon="152.9631041">
<ele>20.114</ele>
<time>2016-10-05T04:27:44.286Z</time>
</trkpt>
<trkpt lat="-27.3047973" lon="152.9633045">
<ele>19.646</ele>
<time>2016-10-05T04:27:47.374Z</time>
</trkpt>
<trkpt lat="-27.3049999" lon="152.9634027">
<ele>19.718</ele>
<time>2016-10-05T04:27:49.395Z</time>
</trkpt>
<trkpt lat="-27.3052531" lon="152.9635931">
<ele>19.996</ele>
<time>2016-10-05T04:27:52.289Z</time>
</trkpt>
<trkpt lat="-27.3054051" lon="152.9637298">
<ele>20.167</ele>
<time>2016-10-05T04:27:54.213Z</time>
</trkpt>
<trkpt lat="-27.3056115" lon="152.9637482">
<ele>20.204</ele>
<time>2016-10-05T04:27:56.137Z</time>
</trkpt>
<trkpt lat="-27.3059913" lon="152.9637529">
<ele>20.469</ele>
<time>2016-10-05T04:27:59.273Z</time>
</trkpt>
<trkpt lat="-27.3063967" lon="152.9637909">
<ele>21.406</ele>
<time>2016-10-05T04:28:02.330Z</time>
</trkpt>
<trkpt lat="-27.3067914" lon="152.9637956">
<ele>22.848</ele>
<time>2016-10-05T04:28:05.190Z</time>
</trkpt>
<trkpt lat="-27.3070972" lon="152.9637879">
<ele>24.282</ele>
<time>2016-10-05T04:28:07.224Z</time>
</trkpt>
<trkpt lat="-27.3074231" lon="152.9637746">
<ele>25.680</ele>
<time>2016-10-05T04:28:09.271Z</time>
</trkpt>
<trkpt lat="-27.3079087" lon="152.9637330">
<ele>27.367</ele>
<time>2016-10-05T04:28:12.284Z</time>
</trkpt>
<trkpt lat="-27.3082293" lon="152.9636845">
<ele>29.195</ele>
<time>2016-10-05T04:28:14.278Z</time>
</trkpt>
<trkpt lat="-27.3085479" lon="152.9636233">
<ele>30.693</ele>
<time>2016-10-05T04:28:16.297Z</time>
</trkpt>
<trkpt lat="-27.3088474" lon="152.9635643">
<ele>31.718</ele>
<time>2016-10-05T04:28:18.236Z</time>
</trkpt>
<trkpt lat="-27.3093114" lon="152.9634781">
<ele>32.509</ele>
<time>2016-10-05T04:28:21.265Z</time>
</trkpt>
<trkpt lat="-27.3096119" lon="152.9634206">
<ele>33.380</ele>
<time>2016-10-05T04:28:23.252Z</time>
</trkpt>
<trkpt lat="-27.3099108" lon="152.9633688">
<ele>34.447</ele>
<time>2016-10-05T04:28:25.253Z</time>
</trkpt>
<trkpt lat="-27.3102066" lon="152.9633131">
<ele>35.431</ele>
<time>2016-10-05T04:28:27.232Z</time>
</trkpt>
<trkpt lat="-27.3106665" lon="152.9632375">
<ele>35.840</ele>
<time>2016-10-05T04:28:30.251Z</time>
</trkpt>
<trkpt lat="-27.3109725" lon="152.9631993">
<ele>35.516</ele>
<time>2016-10-05T04:28:32.190Z</time>
</trkpt>
<trkpt lat="-27.3114591" lon="152.9631559">
<ele>34.868</ele>
<time>2016-10-05T04:28:35.199Z</time>
</trkpt>
<trkpt lat="-27.3117892" lon="152.9631416">
<ele>34.282</ele>
<time>2016-10-05T04:28:37.209Z</time>
</trkpt>
<trkpt lat="-27.3122782" lon="152.9631403">
<ele>33.606</ele>
<time>2016-10-05T04:28:40.230Z</time>
</trkpt>
<trkpt lat="-27.3125818" lon="152.9631515">
<ele>32.368</ele>
<time>2016-10-05T04:28:42.212Z</time>
</trkpt>
<trkpt lat="-27.3128735" lon="152.9631721">
<ele>30.484</ele>
<time>2016-10-05T04:28:44.327Z</time>
</trkpt>
<trkpt lat="-27.3132333" lon="152.9632193">
<ele>28.467</ele>
<time>2016-10-05T04:28:47.442Z</time>
</trkpt>
<trkpt lat="-27.3133931" lon="152.9632455">
<ele>26.621</ele>
<time>2016-10-05T04:28:49.494Z</time>
</trkpt>
<trkpt lat="-27.3135016" lon="152.9632647">
<ele>24.901</ele>
<time>2016-10-05T04:28:51.676Z</time>
</trkpt>
<trkpt lat="-27.3136158" lon="152.9632845">
<ele>23.542</ele>
<time>2016-10-05T04:28:54.368Z</time>
</trkpt>
<trkpt lat="-27.3137708" lon="152.9633118">
<ele>22.855</ele>
<time>2016-10-05T04:28:57.553Z</time>
</trkpt>
<trkpt lat="-27.3139476" lon="152.9633507">
<ele>22.924</ele>
<time>2016-10-05T04:28:59.735Z</time>
</trkpt>
<trkpt lat="-27.3142886" lon="152.9634264">
<ele>23.753</ele>
<time>2016-10-05T04:29:02.977Z</time>
</trkpt>
<trkpt lat="-27.3145301" lon="152.9634799">
<ele>25.176</ele>
<time>2016-10-05T04:29:04.942Z</time>
</trkpt>
<trkpt lat="-27.3149406" lon="152.9635807">
<ele>26.674</ele>
<time>2016-10-05T04:29:08.033Z</time>
</trkpt>
<trkpt lat="-27.3153667" lon="152.9636982">
<ele>27.988</ele>
<time>2016-10-05T04:29:11.054Z</time>
</trkpt>
<trkpt lat="-27.3156505" lon="152.9637709">
<ele>29.374</ele>
<time>2016-10-05T04:29:13.027Z</time>
</trkpt>
<trkpt lat="-27.3160902" lon="152.9638307">
<ele>30.808</ele>
<time>2016-10-05T04:29:16.015Z</time>
</trkpt>
<trkpt lat="-27.3165440" lon="152.9638185">
<ele>31.827</ele>
<time>2016-10-05T04:29:19.017Z</time>
</trkpt>
<trkpt lat="-27.3168586" lon="152.9638037">
<ele>32.375</ele>
<time>2016-10-05T04:29:21.026Z</time>
</trkpt>
<trkpt lat="-27.3173393" lon="152.9637816">
<ele>32.818</ele>
<time>2016-10-05T04:29:24.062Z</time>
</trkpt>
<trkpt lat="-27.3176509" lon="152.9637763">
<ele>33.347</ele>
<time>2016-10-05T04:29:26.028Z</time>
</trkpt>
<trkpt lat="-27.3181243" lon="152.9637674">
<ele>33.797</ele>
<time>2016-10-05T04:29:28.994Z</time>
</trkpt>
<trkpt lat="-27.3184557" lon="152.9637572">
<ele>33.801</ele>
<time>2016-10-05T04:29:31.004Z</time>
</trkpt>
<trkpt lat="-27.3189640" lon="152.9637367">
<ele>32.996</ele>
<time>2016-10-05T04:29:33.980Z</time>
</trkpt>
<trkpt lat="-27.3193255" lon="152.9637287">
<ele>31.321</ele>
<time>2016-10-05T04:29:35.985Z</time>
</trkpt>
<trkpt lat="-27.3198866" lon="152.9637203">
<ele>29.014</ele>
<time>2016-10-05T04:29:39.018Z</time>
</trkpt>
<trkpt lat="-27.3204347" lon="152.9637033">
<ele>26.277</ele>
<time>2016-10-05T04:29:42.007Z</time>
</trkpt>
<trkpt lat="-27.3207849" lon="152.9636941">
<ele>23.199</ele>
<time>2016-10-05T04:29:44.019Z</time>
</trkpt>
<trkpt lat="-27.3212743" lon="152.9636810">
<ele>19.886</ele>
<time>2016-10-05T04:29:47.001Z</time>
</trkpt>
<trkpt lat="-27.3215744" lon="152.9636687">
<ele>16.850</ele>
<time>2016-10-05T04:29:48.970Z</time>
</trkpt>
<trkpt lat="-27.3218662" lon="152.9636622">
<ele>14.828</ele>
<time>2016-10-05T04:29:50.949Z</time>
</trkpt>
<trkpt lat="-27.3222967" lon="152.9636513">
<ele>14.014</ele>
<time>2016-10-05T04:29:53.890Z</time>
</trkpt>
<trkpt lat="-27.3225938" lon="152.9636423">
<ele>14.142</ele>
<time>2016-10-05T04:29:55.982Z</time>
</trkpt>
<trkpt lat="-27.3229789" lon="152.9636345">
<ele>14.975</ele>
<time>2016-10-05T04:29:59.044Z</time>
</trkpt>
<trkpt lat="-27.3232465" lon="152.9636308">
<ele>16.138</ele>
<time>2016-10-05T04:30:01.862Z</time>
</trkpt>
<trkpt lat="-27.3234214" lon="152.9636247">
<ele>17.199</ele>
<time>2016-10-05T04:30:04.412Z</time>
</trkpt>
<trkpt lat="-27.3235259" lon="152.9636214">
<ele>18.058</ele>
<time>2016-10-05T04:30:06.319Z</time>
</trkpt>
<trkpt lat="-27.3236901" lon="152.9636257">
<ele>18.894</ele>
<time>2016-10-05T04:30:09.239Z</time>
</trkpt>
<trkpt lat="-27.3239456" lon="152.9636621">
<ele>19.853</ele>
<time>2016-10-05T04:30:12.559Z</time>
</trkpt>
<trkpt lat="-27.3241431" lon="152.9637142">
<ele>21.135</ele>
<time>2016-10-05T04:30:14.713Z</time>
</trkpt>
<trkpt lat="-27.3243023" lon="152.9637882">
<ele>22.811</ele>
<time>2016-10-05T04:30:16.643Z</time>
</trkpt>
<trkpt lat="-27.3245134" lon="152.9638761">
<ele>24.387</ele>
<time>2016-10-05T04:30:19.501Z</time>
</trkpt>
<trkpt lat="-27.3246465" lon="152.9638450">
<ele>25.408</ele>
<time>2016-10-05T04:30:21.428Z</time>
</trkpt>
<trkpt lat="-27.3247391" lon="152.9637166">
<ele>25.990</ele>
<time>2016-10-05T04:30:23.472Z</time>
</trkpt>
<trkpt lat="-27.3248304" lon="152.9635525">
<ele>26.387</ele>
<time>2016-10-05T04:30:25.506Z</time>
</trkpt>
<trkpt lat="-27.3250498" lon="152.9632546">
<ele>26.918</ele>
<time>2016-10-05T04:30:28.751Z</time>
</trkpt>
<trkpt lat="-27.3253563" lon="152.9629725">
<ele>27.909</ele>
<time>2016-10-05T04:30:31.861Z</time>
</trkpt>
<trkpt lat="-27.3257442" lon="152.9627575">
<ele>29.361</ele>
<time>2016-10-05T04:30:34.909Z</time>
</trkpt>
<trkpt lat="-27.3260421" lon="152.9626684">
<ele>30.885</ele>
<time>2016-10-05T04:30:36.901Z</time>
</trkpt>
<trkpt lat="-27.3263809" lon="152.9626041">
<ele>31.970</ele>
<time>2016-10-05T04:30:38.960Z</time>
</trkpt>
<trkpt lat="-27.3269040" lon="152.9625089">
<ele>32.375</ele>
<time>2016-10-05T04:30:41.963Z</time>
</trkpt>
<trkpt lat="-27.3274604" lon="152.9623970">
<ele>32.017</ele>
<time>2016-10-05T04:30:44.969Z</time>
</trkpt>
<trkpt lat="-27.3278489" lon="152.9623108">
<ele>30.329</ele>
<time>2016-10-05T04:30:46.956Z</time>
</trkpt>
<trkpt lat="-27.3284555" lon="152.9621639">
<ele>27.278</ele>
<time>2016-10-05T04:30:49.981Z</time>
</trkpt>
<trkpt lat="-27.3288565" lon="152.9620669">
<ele>23.673</ele>
<time>2016-10-05T04:30:51.960Z</time>
</trkpt>
<trkpt lat="-27.3294626" lon="152.9619760">
<ele>20.430</ele>
<time>2016-10-05T04:30:54.951Z</time>
</trkpt>
<trkpt lat="-27.3298438" lon="152.9619106">
<ele>18.847</ele>
<time>2016-10-05T04:30:56.914Z</time>
</trkpt>
<trkpt lat="-27.3303880" lon="152.9618118">
<ele>19.447</ele>
<time>2016-10-05T04:30:59.830Z</time>
</trkpt>
<trkpt lat="-27.3309363" lon="152.9617261">
<ele>20.675</ele>
<time>2016-10-05T04:31:02.828Z</time>
</trkpt>
<trkpt lat="-27.3313038" lon="152.9616625">
<ele>20.534</ele>
<time>2016-10-05T04:31:04.807Z</time>
</trkpt>
<trkpt lat="-27.3318793" lon="152.9615589">
<ele>18.478</ele>
<time>2016-10-05T04:31:07.837Z</time>
</trkpt>
<trkpt lat="-27.3322643" lon="152.9615056">
<ele>15.585</ele>
<time>2016-10-05T04:31:09.814Z</time>
</trkpt>
<trkpt lat="-27.3328539" lon="152.9614438">
<ele>13.298</ele>
<time>2016-10-05T04:31:12.825Z</time>
</trkpt>
<trkpt lat="-27.3334268" lon="152.9613925">
<ele>12.178</ele>
<time>2016-10-05T04:31:15.840Z</time>
</trkpt>
<trkpt lat="-27.3339519" lon="152.9613190">
<ele>12.410</ele>
<time>2016-10-05T04:31:18.850Z</time>
</trkpt>
<trkpt lat="-27.3342561" lon="152.9612612">
<ele>14.013</ele>
<time>2016-10-05T04:31:20.715Z</time>
</trkpt>
<trkpt lat="-27.3345969" lon="152.9612041">
<ele>16.376</ele>
<time>2016-10-05T04:31:22.795Z</time>
</trkpt>
<trkpt lat="-27.3350866" lon="152.9611266">
<ele>18.626</ele>
<time>2016-10-05T04:31:25.891Z</time>
</trkpt>
<trkpt lat="-27.3354844" lon="152.9610353">
<ele>20.283</ele>
<time>2016-10-05T04:31:28.974Z</time>
</trkpt>
<trkpt lat="-27.3356536" lon="152.9609941">
<ele>20.680</ele>
<time>2016-10-05T04:31:30.847Z</time>
</trkpt>
<trkpt lat="-27.3358093" lon="152.9609498">
<ele>19.326</ele>
<time>2016-10-05T04:31:33.078Z</time>
</trkpt>
<trkpt lat="-27.3358093" lon="152.9609498">
<ele>17.088</ele>
<time>2016-10-05T04:31:38.107Z</time>
</trkpt>
<trkpt lat="-27.3358093" lon="152.9609498">
<ele>15.695</ele>
<time>2016-10-05T04:32:15.883Z</time>
</trkpt>
<trkpt lat="-27.3360433" lon="152.9608937">
<ele>15.769</ele>
<time>2016-10-05T04:32:21.427Z</time>
</trkpt>
<trkpt lat="-27.3363857" lon="152.9608319">
<ele>16.399</ele>
<time>2016-10-05T04:32:24.598Z</time>
</trkpt>
<trkpt lat="-27.3366791" lon="152.9607909">
<ele>16.697</ele>
<time>2016-10-05T04:32:26.641Z</time>
</trkpt>
<trkpt lat="-27.3371697" lon="152.9607419">
<ele>17.016</ele>
<time>2016-10-05T04:32:29.861Z</time>
</trkpt>
<trkpt lat="-27.3376675" lon="152.9606638">
<ele>17.991</ele>
<time>2016-10-05T04:32:32.980Z</time>
</trkpt>
<trkpt lat="-27.3379918" lon="152.9605971">
<ele>19.608</ele>
<time>2016-10-05T04:32:35.025Z</time>
</trkpt>
<trkpt lat="-27.3384661" lon="152.9605634">
<ele>21.307</ele>
<time>2016-10-05T04:32:37.951Z</time>
</trkpt>
<trkpt lat="-27.3390173" lon="152.9607145">
<ele>22.335</ele>
<time>2016-10-05T04:32:41.240Z</time>
</trkpt>
<trkpt lat="-27.3393683" lon="152.9608150">
<ele>22.221</ele>
<time>2016-10-05T04:32:43.114Z</time>
</trkpt>
<trkpt lat="-27.3399369" lon="152.9609889">
<ele>21.240</ele>
<time>2016-10-05T04:32:46.009Z</time>
</trkpt>
<trkpt lat="-27.3405658" lon="152.9612052">
<ele>19.992</ele>
<time>2016-10-05T04:32:49.234Z</time>
</trkpt>
<trkpt lat="-27.3414234" lon="152.9611796">
<ele>17.905</ele>
<time>2016-10-05T04:32:53.555Z</time>
</trkpt>
<trkpt lat="-27.3420004" lon="152.9612412">
<ele>15.580</ele>
<time>2016-10-05T04:32:56.553Z</time>
</trkpt>
<trkpt lat="-27.3425574" lon="152.9612931">
<ele>12.350</ele>
<time>2016-10-05T04:32:59.471Z</time>
</trkpt>
<trkpt lat="-27.3431161" lon="152.9613568">
<ele>9.622</ele>
<time>2016-10-05T04:33:02.507Z</time>
</trkpt>
<trkpt lat="-27.3434460" lon="152.9614278">
<ele>7.761</ele>
<time>2016-10-05T04:33:04.430Z</time>
</trkpt>
<trkpt lat="-27.3437564" lon="152.9615475">
<ele>6.554</ele>
<time>2016-10-05T04:33:06.359Z</time>
</trkpt>
<trkpt lat="-27.3440574" lon="152.9617030">
<ele>6.356</ele>
<time>2016-10-05T04:33:08.340Z</time>
</trkpt>
<trkpt lat="-27.3444736" lon="152.9619887">
<ele>7.356</ele>
<time>2016-10-05T04:33:11.321Z</time>
</trkpt>
<trkpt lat="-27.3448423" lon="152.9623020">
<ele>9.083</ele>
<time>2016-10-05T04:33:14.279Z</time>
</trkpt>
<trkpt lat="-27.3450413" lon="152.9625227">
<ele>11.083</ele>
<time>2016-10-05T04:33:16.251Z</time>
</trkpt>
<trkpt lat="-27.3452732" lon="152.9628480">
<ele>12.992</ele>
<time>2016-10-05T04:33:19.283Z</time>
</trkpt>
<trkpt lat="-27.3453526" lon="152.9629863">
<ele>14.156</ele>
<time>2016-10-05T04:33:21.248Z</time>
</trkpt>
<trkpt lat="-27.3453968" lon="152.9630890">
<ele>14.254</ele>
<time>2016-10-05T04:33:23.098Z</time>
</trkpt>
<trkpt lat="-27.3453968" lon="152.9630890">
<ele>13.698</ele>
<time>2016-10-05T04:33:26.066Z</time>
</trkpt>
<trkpt lat="-27.3453968" lon="152.9630890">
<ele>13.227</ele>
<time>2016-10-05T04:34:03.420Z</time>
</trkpt>
<trkpt lat="-27.3455126" lon="152.9632315">
<ele>13.306</ele>
<time>2016-10-05T04:34:08.582Z</time>
</trkpt>
<trkpt lat="-27.3457053" lon="152.9633019">
<ele>13.935</ele>
<time>2016-10-05T04:34:11.802Z</time>
</trkpt>
<trkpt lat="-27.3458356" lon="152.9632440">
<ele>14.929</ele>
<time>2016-10-05T04:34:13.552Z</time>
</trkpt>
<trkpt lat="-27.3460348" lon="152.9630290">
<ele>16.036</ele>
<time>2016-10-05T04:34:16.641Z</time>
</trkpt>
<trkpt lat="-27.3462451" lon="152.9628099">
<ele>17.242</ele>
<time>2016-10-05T04:34:19.490Z</time>
</trkpt>
<trkpt lat="-27.3464891" lon="152.9625740">
<ele>18.704</ele>
<time>2016-10-05T04:34:22.401Z</time>
</trkpt>
<trkpt lat="-27.3467564" lon="152.9623197">
<ele>20.250</ele>
<time>2016-10-05T04:34:25.329Z</time>
</trkpt>
<trkpt lat="-27.3470439" lon="152.9620458">
<ele>21.447</ele>
<time>2016-10-05T04:34:28.320Z</time>
</trkpt>
<trkpt lat="-27.3472462" lon="152.9618614">
<ele>21.930</ele>
<time>2016-10-05T04:34:30.310Z</time>
</trkpt>
<trkpt lat="-27.3474445" lon="152.9616738">
<ele>21.567</ele>
<time>2016-10-05T04:34:32.235Z</time>
</trkpt>
<trkpt lat="-27.3477317" lon="152.9613465">
<ele>20.576</ele>
<time>2016-10-05T04:34:35.174Z</time>
</trkpt>
<trkpt lat="-27.3479456" lon="152.9608945">
<ele>19.478</ele>
<time>2016-10-05T04:34:38.311Z</time>
</trkpt>
<trkpt lat="-27.3480409" lon="152.9604114">
<ele>18.777</ele>
<time>2016-10-05T04:34:41.324Z</time>
</trkpt>
<trkpt lat="-27.3480249" lon="152.9600912">
<ele>17.879</ele>
<time>2016-10-05T04:34:43.378Z</time>
</trkpt>
<trkpt lat="-27.3479534" lon="152.9596559">
<ele>15.801</ele>
<time>2016-10-05T04:34:46.433Z</time>
</trkpt>
<trkpt lat="-27.3478918" lon="152.9592796">
<ele>12.791</ele>
<time>2016-10-05T04:34:49.417Z</time>
</trkpt>
<trkpt lat="-27.3478627" lon="152.9590623">
<ele>9.834</ele>
<time>2016-10-05T04:34:51.285Z</time>
</trkpt>
<trkpt lat="-27.3478159" lon="152.9587221">
<ele>7.679</ele>
<time>2016-10-05T04:34:54.166Z</time>
</trkpt>
<trkpt lat="-27.3477811" lon="152.9584756">
<ele>6.773</ele>
<time>2016-10-05T04:34:56.140Z</time>
</trkpt>
<trkpt lat="-27.3477362" lon="152.9580970">
<ele>7.228</ele>
<time>2016-10-05T04:34:59.113Z</time>
</trkpt>
<trkpt lat="-27.3477340" lon="152.9578472">
<ele>9.010</ele>
<time>2016-10-05T04:35:00.994Z</time>
</trkpt>
<trkpt lat="-27.3477946" lon="152.9574472">
<ele>11.692</ele>
<time>2016-10-05T04:35:03.906Z</time>
</trkpt>
<trkpt lat="-27.3478880" lon="152.9571755">
<ele>14.717</ele>
<time>2016-10-05T04:35:05.892Z</time>
</trkpt>
<trkpt lat="-27.3480906" lon="152.9568130">
<ele>17.785</ele>
<time>2016-10-05T04:35:08.810Z</time>
</trkpt>
<trkpt lat="-27.3482622" lon="152.9566112">
<ele>20.575</ele>
<time>2016-10-05T04:35:10.741Z</time>
</trkpt>
<trkpt lat="-27.3484471" lon="152.9564112">
<ele>22.605</ele>
<time>2016-10-05T04:35:12.745Z</time>
</trkpt>
<trkpt lat="-27.3487172" lon="152.9561169">
<ele>23.606</ele>
<time>2016-10-05T04:35:15.712Z</time>
</trkpt>
<trkpt lat="-27.3489808" lon="152.9558294">
<ele>23.685</ele>
<time>2016-10-05T04:35:18.636Z</time>
</trkpt>
<trkpt lat="-27.3491797" lon="152.9556799">
<ele>23.178</ele>
<time>2016-10-05T04:35:20.502Z</time>
</trkpt>
<trkpt lat="-27.3495664" lon="152.9555165">
<ele>22.140</ele>
<time>2016-10-05T04:35:23.649Z</time>
</trkpt>
<trkpt lat="-27.3499193" lon="152.9553751">
<ele>20.436</ele>
<time>2016-10-05T04:35:26.606Z</time>
</trkpt>
<trkpt lat="-27.3501231" lon="152.9552937">
<ele>18.515</ele>
<time>2016-10-05T04:35:28.465Z</time>
</trkpt>
<trkpt lat="-27.3503323" lon="152.9552101">
<ele>17.245</ele>
<time>2016-10-05T04:35:30.438Z</time>
</trkpt>
<trkpt lat="-27.3505453" lon="152.9551250">
<ele>17.001</ele>
<time>2016-10-05T04:35:32.406Z</time>
</trkpt>
<trkpt lat="-27.3507852" lon="152.9550292">
<ele>17.695</ele>
<time>2016-10-05T04:35:34.500Z</time>
</trkpt>
<trkpt lat="-27.3510279" lon="152.9549323">
<ele>19.194</ele>
<time>2016-10-05T04:35:36.531Z</time>
</trkpt>
<trkpt lat="-27.3512632" lon="152.9548383">
<ele>21.426</ele>
<time>2016-10-05T04:35:38.493Z</time>
</trkpt>
<trkpt lat="-27.3516204" lon="152.9546872">
<ele>23.856</ele>
<time>2016-10-05T04:35:41.516Z</time>
</trkpt>
<trkpt lat="-27.3519653" lon="152.9545605">
<ele>25.446</ele>
<time>2016-10-05T04:35:44.422Z</time>
</trkpt>
<trkpt lat="-27.3522073" lon="152.9544687">
<ele>25.423</ele>
<time>2016-10-05T04:35:46.466Z</time>
</trkpt>
<trkpt lat="-27.3525604" lon="152.9543405">
<ele>24.091</ele>
<time>2016-10-05T04:35:49.517Z</time>
</trkpt>
<trkpt lat="-27.3527506" lon="152.9542759">
<ele>22.547</ele>
<time>2016-10-05T04:35:51.335Z</time>
</trkpt>
<trkpt lat="-27.3529099" lon="152.9542295">
<ele>21.579</ele>
<time>2016-10-05T04:35:53.002Z</time>
</trkpt>
<trkpt lat="-27.3532062" lon="152.9542514">
<ele>21.379</ele>
<time>2016-10-05T04:35:56.279Z</time>
</trkpt>
<trkpt lat="-27.3533490" lon="152.9542754">
<ele>22.134</ele>
<time>2016-10-05T04:35:58.114Z</time>
</trkpt>
<trkpt lat="-27.3534778" lon="152.9543055">
<ele>23.488</ele>
<time>2016-10-05T04:36:00.422Z</time>
</trkpt>
<trkpt lat="-27.3536602" lon="152.9543683">
<ele>24.658</ele>
<time>2016-10-05T04:36:03.813Z</time>
</trkpt>
<trkpt lat="-27.3539556" lon="152.9545315">
<ele>25.535</ele>
<time>2016-10-05T04:36:07.426Z</time>
</trkpt>
<trkpt lat="-27.3541786" lon="152.9547015">
<ele>26.602</ele>
<time>2016-10-05T04:36:09.677Z</time>
</trkpt>
<trkpt lat="-27.3544548" lon="152.9549882">
<ele>27.786</ele>
<time>2016-10-05T04:36:12.783Z</time>
</trkpt>
<trkpt lat="-27.3545765" lon="152.9551371">
<ele>28.577</ele>
<time>2016-10-05T04:36:14.363Z</time>
</trkpt>
<trkpt lat="-27.3547421" lon="152.9555124">
<ele>28.633</ele>
<time>2016-10-05T04:36:17.683Z</time>
</trkpt>
<trkpt lat="-27.3548411" lon="152.9559045">
<ele>27.674</ele>
<time>2016-10-05T04:36:20.772Z</time>
</trkpt>
<trkpt lat="-27.3548738" lon="152.9561064">
<ele>25.321</ele>
<time>2016-10-05T04:36:22.296Z</time>
</trkpt>
<trkpt lat="-27.3548783" lon="152.9565667">
<ele>21.736</ele>
<time>2016-10-05T04:36:25.716Z</time>
</trkpt>
<trkpt lat="-27.3548907" lon="152.9568293">
<ele>18.000</ele>
<time>2016-10-05T04:36:27.766Z</time>
</trkpt>
<trkpt lat="-27.3548986" lon="152.9570480">
<ele>15.217</ele>
<time>2016-10-05T04:36:29.755Z</time>
</trkpt>
<trkpt lat="-27.3548373" lon="152.9573043">
<ele>13.609</ele>
<time>2016-10-05T04:36:32.927Z</time>
</trkpt>
<trkpt lat="-27.3548703" lon="152.9574035">
<ele>12.735</ele>
<time>2016-10-05T04:36:34.658Z</time>
</trkpt>
<trkpt lat="-27.3550844" lon="152.9573325">
<ele>12.176</ele>
<time>2016-10-05T04:36:38.292Z</time>
</trkpt>
<trkpt lat="-27.3552834" lon="152.9573155">
<ele>12.021</ele>
<time>2016-10-05T04:36:40.438Z</time>
</trkpt>
<trkpt lat="-27.3555098" lon="152.9572738">
<ele>12.468</ele>
<time>2016-10-05T04:36:42.538Z</time>
</trkpt>
<trkpt lat="-27.3558287" lon="152.9571720">
<ele>13.293</ele>
<time>2016-10-05T04:36:45.522Z</time>
</trkpt>
<trkpt lat="-27.3560040" lon="152.9570614">
<ele>14.065</ele>
<time>2016-10-05T04:36:47.411Z</time>
</trkpt>
<trkpt lat="-27.3562748" lon="152.9568774">
<ele>14.531</ele>
<time>2016-10-05T04:36:50.416Z</time>
</trkpt>
<trkpt lat="-27.3565188" lon="152.9566873">
<ele>14.737</ele>
<time>2016-10-05T04:36:53.485Z</time>
</trkpt>
<trkpt lat="-27.3566724" lon="152.9565676">
<ele>14.848</ele>
<time>2016-10-05T04:36:56.000Z</time>
</trkpt>
<trkpt lat="-27.3566724" lon="152.9565676">
<ele>14.907</ele>
<time>2016-10-05T04:37:00.000Z</time>
</trkpt>
<trkpt lat="-27.3566724" lon="152.9565676">
<ele>14.896</ele>
<time>2016-10-05T04:37:26.365Z</time>
</trkpt>
<trkpt lat="-27.3568181" lon="152.9566129">
<ele>14.859</ele>
<time>2016-10-05T04:37:32.000Z</time>
</trkpt>
<trkpt lat="-27.3568181" lon="152.9566129">
<ele>14.834</ele>
<time>2016-10-05T04:37:44.000Z</time>
</trkpt>
</trkseg>
</trk>
<extensions>
<fpdata xmlns="http://www.motionx.com/GPX-Extensions/1/1" sfv="10" origin="MotionXGPSFull 24.1 Build 5049R64">
<bin enc="base64">
RgIAAAACAAAA1T7+Jgb91UEBAAAA26XABCH91UEAAN/VGQ3RQJUaAADjqNUBg7wLsa5X
N0BaAIKwQqstQAAAAAAQAAAAR2F0ZXdheSA1LTEwLTE2ABUAAAA1IE9jdC4gMjAxNiAg
NzowMSBhbQAAAAAAIqbABCH91UHTMGQPIf3VQcFFDQHWKNjLS4ubQCwAAAACAAAAlBPU
ipweY0ADHPTMXls7wIO8C7GuVzdAAAAAAAAAJEAAAAAAAAAoQAAAAAAAZq9AAAAAAAAA
AAAAAAAAkML1KFzPQkDZe53bLXktQAEAAADONvSeLmigvwEAAAABAAAAGq2ZSi1mwD+z
KDTmhuvBvwEAAAABAAAAAQAAAIO8C7GuVzdAAAAAAAAAAAABAAAAFAAAAEdhdGV3YXlf
NS0xMC0xNi5ncHgAAQAAALx0GA0h/dVBCgAAAAEAAAAQAAAAR2F0ZXdheSA1LTEwLTE2
AAAAAAAMAAAAAAAAAAAAAAC0BgAA6AIA5iD91UEAAAAAAAAAAAAAAAAAAAAA/yVEvAIA
AAAAAAAAAAAAAAEAAAAnAAAAMjQuMSBCdWlsZCA1MDQ5UjY0LCBNWEFFIDguMSBiLiA2
MjZSNjQAAAAAABVuAAABAAAAASoAAACbGPRXmIP0VwTVP/4mBv3VQdU//iYG/dVBAAAA
AACQET8AAAAAAuI+/iYG/dVBlifIoAb91UEAAAAtenJ+QAAAAAAC8kKKogb91UFtkIuz
Bv3VQQAA4MVmWYFAAAAAAAInLkv1B/3VQdBI0AsI/dVBAAAAGwoqhEAAAAAAAqWFTg0I
/dVBv7ZKDwj91UEAAEA+kGmEQAAAAAACXp/PEAj91UFI400UCP3VQQAAgLtY2YRAAAAA
AAK5cdMWCP3VQahwShsI/dVBAABgmThohUAAAAAAAsNlTSMI/dVBDW2IKwj91UEAAKCC
mW+GQAAAAAACkL6LoAj91UEqcIqqCP3VQQAA4LVvr4dAAAAAAAKQatBCC/3VQSkIDHML
/dVBAAAAaeO2jUAAAAAAAsdIzYEL/dVBlQ0Ovgv91UEAAGABfp+SQAAAAAAC4s6OzAv9
1UHusAjUC/3VQQAAICIcF5NAAAAAAAJlb0vWC/3VQY0mjuQL/dVBAACglEf7k0AAAAAA
AkYmE/UL/dVBthTI9gz91UEAANA9SwuiQAAAAAACB11K+Az91UE+lAh+Dv3VQQAAiPc8
Oa5AAAAAAAIBaYqFDv3VQYOKiJsP/dVBAADMAZd0s0AAAAAAAvBsS7QP/dVBJLcFwA/9
1UEAAJwqgKOzQAAAAAACQfNJ8A/91UGVD4n8D/3VQQAA7Jt81LNAAAAAAAJOfosWEP3V
QeOoSBsQ/dVBAABARnHns0AAAAAAAljLiR8Q/dVB/5aHJhD91UEAANx0aAO0QAAAAAAC
dNXLQxH91UGyEYhPEf3VQQAA1GVZMrRAAAAAAAK+ZglTEf3VQY6Tx2AR/dVBAAAUGVJp
tEAAAAAAAqXYCnMR/dVB4BOIIBT91UEAAAAGRx+/QAAAAAACkiLJIhT91UFO8MiSFP3V
QQAAeB6jb8BAAAAAAALElYuUFP3VQa3ARwUV/dVBAABKdBtRwUAAAAAAAvrViQcV/dVB
Gi9HChX91UEAAIomllbBQAAAAAACBklLDBX91UEzUciVFf3VQQAA5DaQacJAAAAAAAJD
4sqWFf3VQbNDx1QW/dVBAADE+Yjlw0AAAAAAAtydylUW/dVBCwwH0Rb91UEAACLWAdzE
QAAAAAAC0oyI1Rb91UHUuUgcF/3VQQAAJjCCacVAAAAAAALjxMzYF/3VQSRjyFMY/dVB
AACobHlfxkAAAAAAAkxTSXIY/dVBzt0IgBj91UEAAKyB+HrGQAAAAAACgNZMihr91UE8
v8YHG/3VQQAAJFPsdcdAAAAAAAK87ItYG/3VQQ6IyTMf/dVBAADIiWcsz0AAAAAAApOM
iTgf/dVBhGKI1B/91UEAANWaMjLQQAAAAAACILKN2B/91UH1usjcH/3VQQAAqqNtNtBA
AAAAAAK4HlDrH/3VQaLvyRQg/dVBAACUdOdf0EAAAAAAApljihcg/dVBDqBNKSD91UEA
AAmxqnHQQAAAAAACuI/MLSD91UGalYuKIP3VQQAA67ZpztBAAAAAAAKhMA+VIP3VQQqE
iaUg/dVBAABUCuTe0EAAAAAAAphMy68g/dVBHAwG2yD91UEAANjJHgrRQAAAAAACl40L
4yD91UGemQbmIP3VQQAA39UZDdFAAAAAAAAAAAA=
</bin>
</fpdata>
</extensions>
</gpx> 